<?xml version='1.0' encoding='UTF-8'?><gpx version="1.1" creator="JPX - https://github.com/jenetics/jpx" xmlns="http://www.topografix.com/GPX/1/1"><trk><trkseg><trkpt lat="45.5150334" lon="9.3337504"><ele>127.99999999999999</ele><time>2026-04-25T06:45:08.764Z</time></trkpt><trkpt lat="45.5150468" lon="9.3338587"><ele>128.0</ele><time>2026-04-25T06:45:09.763Z</time></trkpt><trkpt lat="45.5150512" lon="9.3339639"><ele>128.0</ele><time>2026-04-25T06:45:10.763Z</time></trkpt><trkpt lat="45.5150511" lon="9.3340695"><ele>128.0</ele><time>2026-04-25T06:45:11.764Z</time></trkpt><trkpt lat="45.515062" lon="9.334168"><ele>127.99999999999999</ele><time>2026-04-25T06:45:12.764Z</time></trkpt><trkpt lat="45.5150964" lon="9.3342807"><ele>128.0</ele><time>2026-04-25T06:45:14.763Z</time></trkpt><trkpt lat="45.51514" lon="9.3343597"><ele>128.0</ele><time>2026-04-25T06:45:17.763Z</time></trkpt><trkpt lat="45.5151698" lon="9.3344632"><ele>128.0</ele><time>2026-04-25T06:45:18.764Z</time></trkpt><trkpt lat="45.5151893" lon="9.3346108"><ele>128.0</ele><time>2026-04-25T06:45:19.764Z</time></trkpt><trkpt lat="45.5152031" lon="9.3347809"><ele>128.0</ele><time>2026-04-25T06:45:20.763Z</time></trkpt><trkpt lat="45.5152176" lon="9.3349573"><ele>128.0</ele><time>2026-04-25T06:45:21.764Z</time></trkpt><trkpt lat="45.5152337" lon="9.335141"><ele>128.0</ele><time>2026-04-25T06:45:22.763Z</time></trkpt><trkpt lat="45.5152485" lon="9.3353287"><ele>128.0</ele><time>2026-04-25T06:45:23.763Z</time></trkpt><trkpt lat="45.515264" lon="9.3355202"><ele>128.0</ele><time>2026-04-25T06:45:24.764Z</time></trkpt><trkpt lat="45.5152783" lon="9.3357059"><ele>128.0</ele><time>2026-04-25T06:45:25.763Z</time></trkpt><trkpt lat="45.5152919" lon="9.3358774"><ele>128.0</ele><time>2026-04-25T06:45:26.764Z</time></trkpt><trkpt lat="45.5153046" lon="9.3360369"><ele>128.0</ele><time>2026-04-25T06:45:27.763Z</time></trkpt><trkpt lat="45.5153184" lon="9.3362044"><ele>128.0</ele><time>2026-04-25T06:45:28.764Z</time></trkpt><trkpt lat="45.5153336" lon="9.3363686"><ele>128.0</ele><time>2026-04-25T06:45:29.763Z</time></trkpt><trkpt lat="45.5153483" lon="9.3365287"><ele>128.20000000000002</ele><time>2026-04-25T06:45:30.763Z</time></trkpt><trkpt lat="45.5153619" lon="9.3366856"><ele>128.4</ele><time>2026-04-25T06:45:31.763Z</time></trkpt><trkpt lat="45.5153743" lon="9.336836"><ele>128.60000000000002</ele><time>2026-04-25T06:45:32.763Z</time></trkpt><trkpt lat="45.5153845" lon="9.3369692"><ele>128.8</ele><time>2026-04-25T06:45:33.763Z</time></trkpt><trkpt lat="45.5153915" lon="9.337093"><ele>129.0</ele><time>2026-04-25T06:45:34.763Z</time></trkpt><trkpt lat="45.5153919" lon="9.3372045"><ele>129.0</ele><time>2026-04-25T06:45:35.764Z</time></trkpt><trkpt lat="45.5153885" lon="9.3373055"><ele>129.0</ele><time>2026-04-25T06:45:36.763Z</time></trkpt><trkpt lat="45.5153779" lon="9.3374581"><ele>129.0</ele><time>2026-04-25T06:45:38.763Z</time></trkpt><trkpt lat="45.5153781" lon="9.3375636"><ele>129.0</ele><time>2026-04-25T06:45:40.763Z</time></trkpt><trkpt lat="45.5153641" lon="9.3377019"><ele>129.0</ele><time>2026-04-25T06:45:43.763Z</time></trkpt><trkpt lat="45.5153476" lon="9.3378079"><ele>129.0</ele><time>2026-04-25T06:45:44.764Z</time></trkpt><trkpt lat="45.5153415" lon="9.3379299"><ele>128.8</ele><time>2026-04-25T06:45:45.764Z</time></trkpt><trkpt lat="45.5153582" lon="9.3380583"><ele>128.60000000000002</ele><time>2026-04-25T06:45:46.763Z</time></trkpt><trkpt lat="45.5153768" lon="9.3381944"><ele>128.4</ele><time>2026-04-25T06:45:47.764Z</time></trkpt><trkpt lat="45.5154026" lon="9.3383365"><ele>128.20000000000002</ele><time>2026-04-25T06:45:48.764Z</time></trkpt><trkpt lat="45.5154312" lon="9.3384805"><ele>128.0</ele><time>2026-04-25T06:45:49.764Z</time></trkpt><trkpt lat="45.5154638" lon="9.3386284"><ele>128.0</ele><time>2026-04-25T06:45:50.763Z</time></trkpt><trkpt lat="45.5154947" lon="9.3387778"><ele>128.0</ele><time>2026-04-25T06:45:51.764Z</time></trkpt><trkpt lat="45.5155196" lon="9.3389294"><ele>128.0</ele><time>2026-04-25T06:45:52.764Z</time></trkpt><trkpt lat="45.5155337" lon="9.3390862"><ele>128.0</ele><time>2026-04-25T06:45:53.763Z</time></trkpt><trkpt lat="45.5155456" lon="9.339245"><ele>128.0</ele><time>2026-04-25T06:45:54.764Z</time></trkpt><trkpt lat="45.5155577" lon="9.3394091"><ele>128.25</ele><time>2026-04-25T06:45:55.763Z</time></trkpt><trkpt lat="45.5155705" lon="9.3395835"><ele>128.5</ele><time>2026-04-25T06:45:56.764Z</time></trkpt><trkpt lat="45.5155811" lon="9.3397644"><ele>128.75</ele><time>2026-04-25T06:45:57.764Z</time></trkpt><trkpt lat="45.5155938" lon="9.3399462"><ele>129.0</ele><time>2026-04-25T06:45:58.764Z</time></trkpt><trkpt lat="45.5156093" lon="9.3401293"><ele>129.0</ele><time>2026-04-25T06:45:59.764Z</time></trkpt><trkpt lat="45.5156244" lon="9.3403141"><ele>129.0</ele><time>2026-04-25T06:46:00.763Z</time></trkpt><trkpt lat="45.5156378" lon="9.3404998"><ele>129.0</ele><time>2026-04-25T06:46:01.763Z</time></trkpt><trkpt lat="45.515653" lon="9.3406844"><ele>129.0</ele><time>2026-04-25T06:46:02.763Z</time></trkpt><trkpt lat="45.5156684" lon="9.3408667"><ele>129.0</ele><time>2026-04-25T06:46:03.763Z</time></trkpt><trkpt lat="45.5156841" lon="9.3410517"><ele>129.0</ele><time>2026-04-25T06:46:04.764Z</time></trkpt><trkpt lat="45.5157008" lon="9.341238"><ele>129.0</ele><time>2026-04-25T06:46:05.763Z</time></trkpt><trkpt lat="45.5157168" lon="9.3414263"><ele>129.0</ele><time>2026-04-25T06:46:06.764Z</time></trkpt><trkpt lat="45.5157314" lon="9.3416109"><ele>129.0</ele><time>2026-04-25T06:46:07.763Z</time></trkpt><trkpt lat="45.5157475" lon="9.3417976"><ele>129.0</ele><time>2026-04-25T06:46:08.763Z</time></trkpt><trkpt lat="45.5157603" lon="9.3419838"><ele>129.0</ele><time>2026-04-25T06:46:09.764Z</time></trkpt><trkpt lat="45.5157743" lon="9.3421685"><ele>129.0</ele><time>2026-04-25T06:46:10.764Z</time></trkpt><trkpt lat="45.5157875" lon="9.3423509"><ele>129.0</ele><time>2026-04-25T06:46:11.763Z</time></trkpt><trkpt lat="45.5158011" lon="9.3425303"><ele>129.0</ele><time>2026-04-25T06:46:12.763Z</time></trkpt><trkpt lat="45.5158146" lon="9.3427095"><ele>129.0</ele><time>2026-04-25T06:46:13.764Z</time></trkpt><trkpt lat="45.5158277" lon="9.3428856"><ele>129.0</ele><time>2026-04-25T06:46:14.763Z</time></trkpt><trkpt lat="45.515841" lon="9.3430592"><ele>129.0</ele><time>2026-04-25T06:46:15.763Z</time></trkpt><trkpt lat="45.5158553" lon="9.3432311"><ele>129.0</ele><time>2026-04-25T06:46:16.764Z</time></trkpt><trkpt lat="45.5158676" lon="9.3434002"><ele>129.0</ele><time>2026-04-25T06:46:17.763Z</time></trkpt><trkpt lat="45.5158791" lon="9.3435618"><ele>129.0</ele><time>2026-04-25T06:46:18.763Z</time></trkpt><trkpt lat="45.5158939" lon="9.3437215"><ele>128.75</ele><time>2026-04-25T06:46:19.763Z</time></trkpt><trkpt lat="45.5159179" lon="9.3438804"><ele>128.5</ele><time>2026-04-25T06:46:20.764Z</time></trkpt><trkpt lat="45.5159494" lon="9.3440376"><ele>128.25</ele><time>2026-04-25T06:46:21.764Z</time></trkpt><trkpt lat="45.5159823" lon="9.344195"><ele>128.0</ele><time>2026-04-25T06:46:22.763Z</time></trkpt><trkpt lat="45.5160131" lon="9.3443561"><ele>128.0</ele><time>2026-04-25T06:46:23.763Z</time></trkpt><trkpt lat="45.5160398" lon="9.3445192"><ele>128.0</ele><time>2026-04-25T06:46:24.764Z</time></trkpt><trkpt lat="45.516067" lon="9.3446845"><ele>128.0</ele><time>2026-04-25T06:46:25.763Z</time></trkpt><trkpt lat="45.5160941" lon="9.3448501"><ele>128.0</ele><time>2026-04-25T06:46:26.763Z</time></trkpt><trkpt lat="45.5161199" lon="9.345017"><ele>128.25</ele><time>2026-04-25T06:46:27.764Z</time></trkpt><trkpt lat="45.5161457" lon="9.3451817"><ele>128.5</ele><time>2026-04-25T06:46:28.763Z</time></trkpt><trkpt lat="45.5161697" lon="9.3453477"><ele>128.75</ele><time>2026-04-25T06:46:29.763Z</time></trkpt><trkpt lat="45.5161951" lon="9.3455142"><ele>129.0</ele><time>2026-04-25T06:46:30.763Z</time></trkpt><trkpt lat="45.5162201" lon="9.3456831"><ele>129.25</ele><time>2026-04-25T06:46:31.763Z</time></trkpt><trkpt lat="45.516248" lon="9.3458511"><ele>129.5</ele><time>2026-04-25T06:46:32.764Z</time></trkpt><trkpt lat="45.5162766" lon="9.3460223"><ele>129.75</ele><time>2026-04-25T06:46:33.764Z</time></trkpt><trkpt lat="45.5163042" lon="9.346201"><ele>130.0</ele><time>2026-04-25T06:46:34.764Z</time></trkpt><trkpt lat="45.5163338" lon="9.3463823"><ele>130.0</ele><time>2026-04-25T06:46:35.764Z</time></trkpt><trkpt lat="45.5163588" lon="9.3465641"><ele>130.0</ele><time>2026-04-25T06:46:36.764Z</time></trkpt><trkpt lat="45.516385" lon="9.3467451"><ele>130.0</ele><time>2026-04-25T06:46:37.763Z</time></trkpt><trkpt lat="45.516411" lon="9.3469258"><ele>130.0</ele><time>2026-04-25T06:46:38.763Z</time></trkpt><trkpt lat="45.5164386" lon="9.3471104"><ele>129.75</ele><time>2026-04-25T06:46:39.763Z</time></trkpt><trkpt lat="45.516465" lon="9.347294"><ele>129.5</ele><time>2026-04-25T06:46:40.763Z</time></trkpt><trkpt lat="45.5164922" lon="9.3474754"><ele>129.25</ele><time>2026-04-25T06:46:41.763Z</time></trkpt><trkpt lat="45.5165199" lon="9.3476553"><ele>129.0</ele><time>2026-04-25T06:46:42.763Z</time></trkpt><trkpt lat="45.516547" lon="9.3478298"><ele>129.0</ele><time>2026-04-25T06:46:43.763Z</time></trkpt><trkpt lat="45.5165737" lon="9.3480042"><ele>129.0</ele><time>2026-04-25T06:46:44.763Z</time></trkpt><trkpt lat="45.5165963" lon="9.3481741"><ele>129.0</ele><time>2026-04-25T06:46:45.763Z</time></trkpt><trkpt lat="45.5166229" lon="9.3483461"><ele>129.0</ele><time>2026-04-25T06:46:46.764Z</time></trkpt><trkpt lat="45.5166464" lon="9.3485084"><ele>129.25</ele><time>2026-04-25T06:46:47.764Z</time></trkpt><trkpt lat="45.5166699" lon="9.3486727"><ele>129.5</ele><time>2026-04-25T06:46:48.763Z</time></trkpt><trkpt lat="45.5166838" lon="9.3488406"><ele>129.75</ele><time>2026-04-25T06:46:49.764Z</time></trkpt><trkpt lat="45.5166912" lon="9.3490092"><ele>130.0</ele><time>2026-04-25T06:46:50.763Z</time></trkpt><trkpt lat="45.5167045" lon="9.3491802"><ele>130.0</ele><time>2026-04-25T06:46:51.764Z</time></trkpt><trkpt lat="45.5167292" lon="9.3493445"><ele>130.0</ele><time>2026-04-25T06:46:52.764Z</time></trkpt><trkpt lat="45.516766" lon="9.3495105"><ele>130.0</ele><time>2026-04-25T06:46:53.763Z</time></trkpt><trkpt lat="45.5168012" lon="9.3496759"><ele>130.0</ele><time>2026-04-25T06:46:54.763Z</time></trkpt><trkpt lat="45.5168364" lon="9.3498495"><ele>130.25</ele><time>2026-04-25T06:46:55.764Z</time></trkpt><trkpt lat="45.5168696" lon="9.3500303"><ele>130.5</ele><time>2026-04-25T06:46:56.764Z</time></trkpt><trkpt lat="45.5169054" lon="9.3502146"><ele>130.75</ele><time>2026-04-25T06:46:57.763Z</time></trkpt><trkpt lat="45.5169392" lon="9.3503988"><ele>131.0</ele><time>2026-04-25T06:46:58.764Z</time></trkpt><trkpt lat="45.5169692" lon="9.3505817"><ele>131.0</ele><time>2026-04-25T06:46:59.763Z</time></trkpt><trkpt lat="45.5169954" lon="9.3507644"><ele>131.0</ele><time>2026-04-25T06:47:00.764Z</time></trkpt><trkpt lat="45.5170219" lon="9.3509457"><ele>131.0</ele><time>2026-04-25T06:47:01.764Z</time></trkpt><trkpt lat="45.5170522" lon="9.3511253"><ele>131.0</ele><time>2026-04-25T06:47:02.764Z</time></trkpt><trkpt lat="45.5170814" lon="9.3513059"><ele>130.75</ele><time>2026-04-25T06:47:03.763Z</time></trkpt><trkpt lat="45.5171085" lon="9.3514839"><ele>130.5</ele><time>2026-04-25T06:47:04.764Z</time></trkpt><trkpt lat="45.5171346" lon="9.3516609"><ele>130.25</ele><time>2026-04-25T06:47:05.763Z</time></trkpt><trkpt lat="45.5171626" lon="9.3518383"><ele>130.0</ele><time>2026-04-25T06:47:06.763Z</time></trkpt><trkpt lat="45.5171883" lon="9.3520078"><ele>130.0</ele><time>2026-04-25T06:47:07.763Z</time></trkpt><trkpt lat="45.5172129" lon="9.3521758"><ele>130.0</ele><time>2026-04-25T06:47:08.763Z</time></trkpt><trkpt lat="45.5172387" lon="9.3523447"><ele>130.0</ele><time>2026-04-25T06:47:09.763Z</time></trkpt><trkpt lat="45.5172638" lon="9.3525087"><ele>130.0</ele><time>2026-04-25T06:47:10.764Z</time></trkpt><trkpt lat="45.5172874" lon="9.3526744"><ele>130.0</ele><time>2026-04-25T06:47:11.764Z</time></trkpt><trkpt lat="45.5173121" lon="9.3528382"><ele>130.0</ele><time>2026-04-25T06:47:12.764Z</time></trkpt><trkpt lat="45.5173361" lon="9.3529965"><ele>130.0</ele><time>2026-04-25T06:47:13.764Z</time></trkpt><trkpt lat="45.5173633" lon="9.3531464"><ele>130.0</ele><time>2026-04-25T06:47:14.763Z</time></trkpt><trkpt lat="45.5173898" lon="9.3532844"><ele>130.0</ele><time>2026-04-25T06:47:15.764Z</time></trkpt><trkpt lat="45.517419" lon="9.3534141"><ele>130.0</ele><time>2026-04-25T06:47:16.763Z</time></trkpt><trkpt lat="45.5174455" lon="9.3535443"><ele>130.0</ele><time>2026-04-25T06:47:17.764Z</time></trkpt><trkpt lat="45.5174568" lon="9.3536873"><ele>130.0</ele><time>2026-04-25T06:47:18.764Z</time></trkpt><trkpt lat="45.5174703" lon="9.3538237"><ele>130.0</ele><time>2026-04-25T06:47:19.764Z</time></trkpt><trkpt lat="45.5174918" lon="9.3539618"><ele>130.0</ele><time>2026-04-25T06:47:20.763Z</time></trkpt><trkpt lat="45.5175163" lon="9.3541047"><ele>130.0</ele><time>2026-04-25T06:47:21.764Z</time></trkpt><trkpt lat="45.5175407" lon="9.3542519"><ele>130.0</ele><time>2026-04-25T06:47:22.764Z</time></trkpt><trkpt lat="45.5175644" lon="9.3544006"><ele>130.0</ele><time>2026-04-25T06:47:23.763Z</time></trkpt><trkpt lat="45.5175888" lon="9.354552"><ele>130.0</ele><time>2026-04-25T06:47:24.763Z</time></trkpt><trkpt lat="45.5176127" lon="9.3547038"><ele>130.0</ele><time>2026-04-25T06:47:25.764Z</time></trkpt><trkpt lat="45.5176378" lon="9.3548601"><ele>129.75</ele><time>2026-04-25T06:47:26.764Z</time></trkpt><trkpt lat="45.5176612" lon="9.3550186"><ele>129.5</ele><time>2026-04-25T06:47:27.764Z</time></trkpt><trkpt lat="45.517685" lon="9.355177"><ele>129.25</ele><time>2026-04-25T06:47:28.763Z</time></trkpt><trkpt lat="45.5177101" lon="9.3553367"><ele>129.0</ele><time>2026-04-25T06:47:29.763Z</time></trkpt><trkpt lat="45.5177348" lon="9.3554954"><ele>128.75</ele><time>2026-04-25T06:47:30.764Z</time></trkpt><trkpt lat="45.5177634" lon="9.3556572"><ele>128.5</ele><time>2026-04-25T06:47:31.764Z</time></trkpt><trkpt lat="45.5177853" lon="9.3558222"><ele>128.25</ele><time>2026-04-25T06:47:32.764Z</time></trkpt><trkpt lat="45.5178096" lon="9.355987"><ele>128.0</ele><time>2026-04-25T06:47:33.764Z</time></trkpt><trkpt lat="45.5178344" lon="9.3561526"><ele>128.0</ele><time>2026-04-25T06:47:34.764Z</time></trkpt><trkpt lat="45.5178582" lon="9.3563184"><ele>128.0</ele><time>2026-04-25T06:47:35.764Z</time></trkpt><trkpt lat="45.517883" lon="9.3564856"><ele>128.0</ele><time>2026-04-25T06:47:36.763Z</time></trkpt><trkpt lat="45.5179091" lon="9.3566522"><ele>128.0</ele><time>2026-04-25T06:47:37.764Z</time></trkpt><trkpt lat="45.5179365" lon="9.3568182"><ele>128.25</ele><time>2026-04-25T06:47:38.764Z</time></trkpt><trkpt lat="45.5179644" lon="9.3569834"><ele>128.5</ele><time>2026-04-25T06:47:39.763Z</time></trkpt><trkpt lat="45.5179868" lon="9.3571543"><ele>128.75</ele><time>2026-04-25T06:47:40.763Z</time></trkpt><trkpt lat="45.5180112" lon="9.357323"><ele>129.0</ele><time>2026-04-25T06:47:41.764Z</time></trkpt><trkpt lat="45.5180393" lon="9.3574939"><ele>129.0</ele><time>2026-04-25T06:47:42.763Z</time></trkpt><trkpt lat="45.51807" lon="9.3576636"><ele>129.0</ele><time>2026-04-25T06:47:43.763Z</time></trkpt><trkpt lat="45.5180945" lon="9.3578332"><ele>129.0</ele><time>2026-04-25T06:47:44.763Z</time></trkpt><trkpt lat="45.5181191" lon="9.3580001"><ele>129.0</ele><time>2026-04-25T06:47:45.763Z</time></trkpt><trkpt lat="45.5181434" lon="9.3581666"><ele>129.0</ele><time>2026-04-25T06:47:46.764Z</time></trkpt><trkpt lat="45.518169" lon="9.3583293"><ele>129.0</ele><time>2026-04-25T06:47:47.764Z</time></trkpt><trkpt lat="45.5181921" lon="9.3584932"><ele>129.0</ele><time>2026-04-25T06:47:48.763Z</time></trkpt><trkpt lat="45.5182171" lon="9.3586577"><ele>129.0</ele><time>2026-04-25T06:47:49.764Z</time></trkpt><trkpt lat="45.5182412" lon="9.3588211"><ele>129.0</ele><time>2026-04-25T06:47:50.763Z</time></trkpt><trkpt lat="45.5182673" lon="9.3589837"><ele>129.0</ele><time>2026-04-25T06:47:51.764Z</time></trkpt><trkpt lat="45.5182951" lon="9.3591443"><ele>129.0</ele><time>2026-04-25T06:47:52.763Z</time></trkpt><trkpt lat="45.5183234" lon="9.3593044"><ele>129.0</ele><time>2026-04-25T06:47:53.764Z</time></trkpt><trkpt lat="45.5183512" lon="9.35946"><ele>129.0</ele><time>2026-04-25T06:47:54.763Z</time></trkpt><trkpt lat="45.5183772" lon="9.3596031"><ele>129.0</ele><time>2026-04-25T06:47:55.763Z</time></trkpt><trkpt lat="45.5184017" lon="9.35973"><ele>129.0</ele><time>2026-04-25T06:47:56.764Z</time></trkpt><trkpt lat="45.5184205" lon="9.359828"><ele>129.0</ele><time>2026-04-25T06:47:57.763Z</time></trkpt><trkpt lat="45.5184442" lon="9.3599613"><ele>129.0</ele><time>2026-04-25T06:47:59.763Z</time></trkpt><trkpt lat="45.5184619" lon="9.3601161"><ele>129.0</ele><time>2026-04-25T06:48:13.764Z</time></trkpt><trkpt lat="45.5184724" lon="9.3602282"><ele>129.0</ele><time>2026-04-25T06:48:14.763Z</time></trkpt><trkpt lat="45.5184835" lon="9.360349"><ele>129.0</ele><time>2026-04-25T06:48:15.763Z</time></trkpt><trkpt lat="45.5184986" lon="9.3604827"><ele>129.0</ele><time>2026-04-25T06:48:16.764Z</time></trkpt><trkpt lat="45.5185176" lon="9.360619"><ele>129.0</ele><time>2026-04-25T06:48:17.763Z</time></trkpt><trkpt lat="45.5185391" lon="9.36076"><ele>129.2</ele><time>2026-04-25T06:48:18.764Z</time></trkpt><trkpt lat="45.5185591" lon="9.3609106"><ele>129.4</ele><time>2026-04-25T06:48:19.763Z</time></trkpt><trkpt lat="45.518579" lon="9.3610626"><ele>129.6</ele><time>2026-04-25T06:48:20.763Z</time></trkpt><trkpt lat="45.5186007" lon="9.3612158"><ele>129.8</ele><time>2026-04-25T06:48:21.764Z</time></trkpt><trkpt lat="45.5186254" lon="9.3613711"><ele>130.0</ele><time>2026-04-25T06:48:22.763Z</time></trkpt><trkpt lat="45.5186496" lon="9.3615188"><ele>130.0</ele><time>2026-04-25T06:48:23.764Z</time></trkpt><trkpt lat="45.5186744" lon="9.3616682"><ele>130.0</ele><time>2026-04-25T06:48:24.763Z</time></trkpt><trkpt lat="45.5187015" lon="9.3618139"><ele>130.0</ele><time>2026-04-25T06:48:25.763Z</time></trkpt><trkpt lat="45.5187245" lon="9.3619591"><ele>130.0</ele><time>2026-04-25T06:48:26.763Z</time></trkpt><trkpt lat="45.518748" lon="9.362104"><ele>130.0</ele><time>2026-04-25T06:48:27.763Z</time></trkpt><trkpt lat="45.5187734" lon="9.3622517"><ele>130.8</ele><time>2026-04-25T06:48:28.763Z</time></trkpt><trkpt lat="45.5187985" lon="9.3624015"><ele>131.6</ele><time>2026-04-25T06:48:29.763Z</time></trkpt><trkpt lat="45.5188235" lon="9.362551"><ele>132.4</ele><time>2026-04-25T06:48:30.763Z</time></trkpt><trkpt lat="45.5188446" lon="9.3627017"><ele>133.2</ele><time>2026-04-25T06:48:31.764Z</time></trkpt><trkpt lat="45.518859" lon="9.3628551"><ele>134.0</ele><time>2026-04-25T06:48:32.763Z</time></trkpt><trkpt lat="45.5188733" lon="9.3630056"><ele>134.4</ele><time>2026-04-25T06:48:33.764Z</time></trkpt><trkpt lat="45.5188896" lon="9.3631548"><ele>134.8</ele><time>2026-04-25T06:48:34.763Z</time></trkpt><trkpt lat="45.5189114" lon="9.3633003"><ele>135.2</ele><time>2026-04-25T06:48:35.763Z</time></trkpt><trkpt lat="45.5189498" lon="9.3634432"><ele>135.6</ele><time>2026-04-25T06:48:36.764Z</time></trkpt><trkpt lat="45.5189951" lon="9.3635873"><ele>136.0</ele><time>2026-04-25T06:48:37.764Z</time></trkpt><trkpt lat="45.5190447" lon="9.363738"><ele>135.5</ele><time>2026-04-25T06:48:38.764Z</time></trkpt><trkpt lat="45.5190988" lon="9.3638894"><ele>135.0</ele><time>2026-04-25T06:48:39.764Z</time></trkpt><trkpt lat="45.5191544" lon="9.3640401"><ele>134.5</ele><time>2026-04-25T06:48:40.763Z</time></trkpt><trkpt lat="45.5192136" lon="9.3641886"><ele>134.0</ele><time>2026-04-25T06:48:41.764Z</time></trkpt><trkpt lat="45.5192725" lon="9.3643374"><ele>134.0</ele><time>2026-04-25T06:48:42.764Z</time></trkpt><trkpt lat="45.5193326" lon="9.3644845"><ele>134.0</ele><time>2026-04-25T06:48:43.763Z</time></trkpt><trkpt lat="45.5193932" lon="9.36463"><ele>134.0</ele><time>2026-04-25T06:48:44.764Z</time></trkpt><trkpt lat="45.5194522" lon="9.3647735"><ele>134.0</ele><time>2026-04-25T06:48:45.764Z</time></trkpt><trkpt lat="45.51951" lon="9.3649123"><ele>133.8</ele><time>2026-04-25T06:48:46.763Z</time></trkpt><trkpt lat="45.5195672" lon="9.3650507"><ele>133.60000000000002</ele><time>2026-04-25T06:48:47.763Z</time></trkpt><trkpt lat="45.5196158" lon="9.3651907"><ele>133.4</ele><time>2026-04-25T06:48:48.764Z</time></trkpt><trkpt lat="45.5196606" lon="9.3653204"><ele>133.20000000000002</ele><time>2026-04-25T06:48:49.763Z</time></trkpt><trkpt lat="45.5197009" lon="9.3654391"><ele>133.0</ele><time>2026-04-25T06:48:50.764Z</time></trkpt><trkpt lat="45.5197371" lon="9.3655527"><ele>132.83333333333334</ele><time>2026-04-25T06:48:51.763Z</time></trkpt><trkpt lat="45.5197584" lon="9.3656666"><ele>132.66666666666669</ele><time>2026-04-25T06:48:52.764Z</time></trkpt><trkpt lat="45.5197518" lon="9.3657846"><ele>132.5</ele><time>2026-04-25T06:48:53.764Z</time></trkpt><trkpt lat="45.5197481" lon="9.3658961"><ele>132.33333333333334</ele><time>2026-04-25T06:48:54.763Z</time></trkpt><trkpt lat="45.5197742" lon="9.3659987"><ele>132.16666666666666</ele><time>2026-04-25T06:48:55.763Z</time></trkpt><trkpt lat="45.5198282" lon="9.3660776"><ele>132.0</ele><time>2026-04-25T06:48:56.763Z</time></trkpt><trkpt lat="45.5198971" lon="9.3661453"><ele>132.0</ele><time>2026-04-25T06:48:57.763Z</time></trkpt><trkpt lat="45.5199576" lon="9.3662282"><ele>132.0</ele><time>2026-04-25T06:48:58.764Z</time></trkpt><trkpt lat="45.5200107" lon="9.3663199"><ele>132.0</ele><time>2026-04-25T06:48:59.763Z</time></trkpt><trkpt lat="45.5200628" lon="9.366414"><ele>132.0</ele><time>2026-04-25T06:49:00.764Z</time></trkpt><trkpt lat="45.5201052" lon="9.3665007"><ele>132.0</ele><time>2026-04-25T06:49:01.764Z</time></trkpt><trkpt lat="45.5201366" lon="9.3665794"><ele>132.0</ele><time>2026-04-25T06:49:02.764Z</time></trkpt><trkpt lat="45.5201788" lon="9.3666997"><ele>132.0</ele><time>2026-04-25T06:49:04.763Z</time></trkpt><trkpt lat="45.5202079" lon="9.3667954"><ele>132.0</ele><time>2026-04-25T06:49:17.763Z</time></trkpt><trkpt lat="45.5202644" lon="9.3669496"><ele>132.0</ele><time>2026-04-25T06:49:19.763Z</time></trkpt><trkpt lat="45.5202999" lon="9.3670534"><ele>132.0</ele><time>2026-04-25T06:49:20.764Z</time></trkpt><trkpt lat="45.5203374" lon="9.367167"><ele>132.0</ele><time>2026-04-25T06:49:21.763Z</time></trkpt><trkpt lat="45.5203763" lon="9.3672896"><ele>132.2</ele><time>2026-04-25T06:49:22.764Z</time></trkpt><trkpt lat="45.5204168" lon="9.3674152"><ele>132.39999999999998</ele><time>2026-04-25T06:49:23.763Z</time></trkpt><trkpt lat="45.5204604" lon="9.3675444"><ele>132.60000000000002</ele><time>2026-04-25T06:49:24.763Z</time></trkpt><trkpt lat="45.5205064" lon="9.367678"><ele>132.8</ele><time>2026-04-25T06:49:25.764Z</time></trkpt><trkpt lat="45.5205532" lon="9.3678135"><ele>133.0</ele><time>2026-04-25T06:49:26.763Z</time></trkpt><trkpt lat="45.5206006" lon="9.3679559"><ele>133.0</ele><time>2026-04-25T06:49:27.763Z</time></trkpt><trkpt lat="45.5206474" lon="9.3680985"><ele>133.0</ele><time>2026-04-25T06:49:28.763Z</time></trkpt><trkpt lat="45.5206971" lon="9.3682355"><ele>133.0</ele><time>2026-04-25T06:49:29.763Z</time></trkpt><trkpt lat="45.5207472" lon="9.3683786"><ele>133.0</ele><time>2026-04-25T06:49:30.764Z</time></trkpt><trkpt lat="45.5207968" lon="9.3685194"><ele>133.0</ele><time>2026-04-25T06:49:31.763Z</time></trkpt><trkpt lat="45.5208458" lon="9.3686661"><ele>133.0</ele><time>2026-04-25T06:49:32.764Z</time></trkpt><trkpt lat="45.5208946" lon="9.3688155"><ele>133.0</ele><time>2026-04-25T06:49:33.763Z</time></trkpt><trkpt lat="45.5209415" lon="9.3689628"><ele>133.0</ele><time>2026-04-25T06:49:34.764Z</time></trkpt><trkpt lat="45.5209891" lon="9.3691048"><ele>133.0</ele><time>2026-04-25T06:49:35.764Z</time></trkpt><trkpt lat="45.521037" lon="9.3692417"><ele>133.0</ele><time>2026-04-25T06:49:36.764Z</time></trkpt><trkpt lat="45.5210857" lon="9.3693763"><ele>133.0</ele><time>2026-04-25T06:49:37.763Z</time></trkpt><trkpt lat="45.52113" lon="9.3695138"><ele>133.0</ele><time>2026-04-25T06:49:38.764Z</time></trkpt><trkpt lat="45.5211741" lon="9.3696812"><ele>133.0</ele><time>2026-04-25T06:49:39.764Z</time></trkpt><trkpt lat="45.5212205" lon="9.3698713"><ele>133.0</ele><time>2026-04-25T06:49:40.763Z</time></trkpt><trkpt lat="45.5212699" lon="9.3700437"><ele>133.0</ele><time>2026-04-25T06:49:41.763Z</time></trkpt><trkpt lat="45.52132" lon="9.3702151"><ele>133.0</ele><time>2026-04-25T06:49:42.763Z</time></trkpt><trkpt lat="45.521367" lon="9.3703846"><ele>133.0</ele><time>2026-04-25T06:49:43.764Z</time></trkpt><trkpt lat="45.5214099" lon="9.3705539"><ele>133.0</ele><time>2026-04-25T06:49:44.764Z</time></trkpt><trkpt lat="45.5214517" lon="9.3707233"><ele>132.5</ele><time>2026-04-25T06:49:45.763Z</time></trkpt><trkpt lat="45.5214916" lon="9.3708953"><ele>132.0</ele><time>2026-04-25T06:49:46.763Z</time></trkpt><trkpt lat="45.521529" lon="9.3710721"><ele>131.5</ele><time>2026-04-25T06:49:47.764Z</time></trkpt><trkpt lat="45.5215643" lon="9.3712516"><ele>131.0</ele><time>2026-04-25T06:49:48.763Z</time></trkpt><trkpt lat="45.5215983" lon="9.3714381"><ele>131.25</ele><time>2026-04-25T06:49:49.764Z</time></trkpt><trkpt lat="45.521634" lon="9.3716275"><ele>131.5</ele><time>2026-04-25T06:49:50.763Z</time></trkpt><trkpt lat="45.5216681" lon="9.3718208"><ele>131.75</ele><time>2026-04-25T06:49:51.763Z</time></trkpt><trkpt lat="45.5217024" lon="9.372017"><ele>132.0</ele><time>2026-04-25T06:49:52.763Z</time></trkpt><trkpt lat="45.5217352" lon="9.3722134"><ele>132.0</ele><time>2026-04-25T06:49:53.764Z</time></trkpt><trkpt lat="45.5217665" lon="9.3724067"><ele>132.0</ele><time>2026-04-25T06:49:54.763Z</time></trkpt><trkpt lat="45.5217947" lon="9.3725996"><ele>132.0</ele><time>2026-04-25T06:49:55.763Z</time></trkpt><trkpt lat="45.5218202" lon="9.3727936"><ele>132.0</ele><time>2026-04-25T06:49:56.764Z</time></trkpt><trkpt lat="45.5218465" lon="9.3729861"><ele>132.5</ele><time>2026-04-25T06:49:57.763Z</time></trkpt><trkpt lat="45.5218734" lon="9.3731787"><ele>133.0</ele><time>2026-04-25T06:49:58.764Z</time></trkpt><trkpt lat="45.5218973" lon="9.3733719"><ele>133.5</ele><time>2026-04-25T06:49:59.764Z</time></trkpt><trkpt lat="45.5219235" lon="9.373572"><ele>134.0</ele><time>2026-04-25T06:50:00.764Z</time></trkpt><trkpt lat="45.521948" lon="9.3737727"><ele>133.5</ele><time>2026-04-25T06:50:01.763Z</time></trkpt><trkpt lat="45.5219677" lon="9.3739728"><ele>133.0</ele><time>2026-04-25T06:50:02.763Z</time></trkpt><trkpt lat="45.5219925" lon="9.3741703"><ele>132.5</ele><time>2026-04-25T06:50:03.764Z</time></trkpt><trkpt lat="45.5220174" lon="9.3743698"><ele>132.0</ele><time>2026-04-25T06:50:04.763Z</time></trkpt><trkpt lat="45.5220408" lon="9.3745693"><ele>132.0</ele><time>2026-04-25T06:50:05.764Z</time></trkpt><trkpt lat="45.5220639" lon="9.3747685"><ele>132.0</ele><time>2026-04-25T06:50:06.763Z</time></trkpt><trkpt lat="45.5220895" lon="9.3749671"><ele>132.0</ele><time>2026-04-25T06:50:07.763Z</time></trkpt><trkpt lat="45.522111" lon="9.3751637"><ele>132.0</ele><time>2026-04-25T06:50:08.764Z</time></trkpt><trkpt lat="45.5221326" lon="9.3753622"><ele>132.0</ele><time>2026-04-25T06:50:09.763Z</time></trkpt><trkpt lat="45.5221537" lon="9.3755602"><ele>132.0</ele><time>2026-04-25T06:50:10.764Z</time></trkpt><trkpt lat="45.5221747" lon="9.3757557"><ele>132.0</ele><time>2026-04-25T06:50:11.763Z</time></trkpt><trkpt lat="45.5221969" lon="9.3759474"><ele>132.0</ele><time>2026-04-25T06:50:12.764Z</time></trkpt><trkpt lat="45.5222193" lon="9.3761365"><ele>132.0</ele><time>2026-04-25T06:50:13.763Z</time></trkpt><trkpt lat="45.5222421" lon="9.3763264"><ele>132.0</ele><time>2026-04-25T06:50:14.763Z</time></trkpt><trkpt lat="45.5222633" lon="9.3765144"><ele>132.0</ele><time>2026-04-25T06:50:15.764Z</time></trkpt><trkpt lat="45.5222842" lon="9.3767028"><ele>132.0</ele><time>2026-04-25T06:50:16.764Z</time></trkpt><trkpt lat="45.5223062" lon="9.3768921"><ele>132.0</ele><time>2026-04-25T06:50:17.763Z</time></trkpt><trkpt lat="45.5223293" lon="9.3770815"><ele>132.0</ele><time>2026-04-25T06:50:18.764Z</time></trkpt><trkpt lat="45.5223535" lon="9.3772729"><ele>132.0</ele><time>2026-04-25T06:50:19.763Z</time></trkpt><trkpt lat="45.5223757" lon="9.3774656"><ele>132.0</ele><time>2026-04-25T06:50:20.764Z</time></trkpt><trkpt lat="45.5223975" lon="9.3776612"><ele>131.75</ele><time>2026-04-25T06:50:21.763Z</time></trkpt><trkpt lat="45.522421" lon="9.3778565"><ele>131.5</ele><time>2026-04-25T06:50:22.764Z</time></trkpt><trkpt lat="45.5224442" lon="9.3780517"><ele>131.25</ele><time>2026-04-25T06:50:23.763Z</time></trkpt><trkpt lat="45.5224676" lon="9.3782487"><ele>131.0</ele><time>2026-04-25T06:50:24.763Z</time></trkpt><trkpt lat="45.5224929" lon="9.3784465"><ele>131.0</ele><time>2026-04-25T06:50:25.764Z</time></trkpt><trkpt lat="45.522517" lon="9.3786435"><ele>131.0</ele><time>2026-04-25T06:50:26.763Z</time></trkpt><trkpt lat="45.5225398" lon="9.378837"><ele>131.0</ele><time>2026-04-25T06:50:27.763Z</time></trkpt><trkpt lat="45.5225632" lon="9.3790314"><ele>131.0</ele><time>2026-04-25T06:50:28.763Z</time></trkpt><trkpt lat="45.5225862" lon="9.3792308"><ele>131.5</ele><time>2026-04-25T06:50:29.764Z</time></trkpt><trkpt lat="45.52261" lon="9.3794329"><ele>132.0</ele><time>2026-04-25T06:50:30.763Z</time></trkpt><trkpt lat="45.5226378" lon="9.37964"><ele>132.5</ele><time>2026-04-25T06:50:31.763Z</time></trkpt><trkpt lat="45.5226639" lon="9.3798507"><ele>133.0</ele><time>2026-04-25T06:50:32.763Z</time></trkpt><trkpt lat="45.5226899" lon="9.3800684"><ele>133.33333333333334</ele><time>2026-04-25T06:50:33.763Z</time></trkpt><trkpt lat="45.522716" lon="9.3802914"><ele>133.66666666666666</ele><time>2026-04-25T06:50:34.763Z</time></trkpt><trkpt lat="45.522741" lon="9.3805126"><ele>134.0</ele><time>2026-04-25T06:50:35.764Z</time></trkpt><trkpt lat="45.5227704" lon="9.3807316"><ele>134.33333333333331</ele><time>2026-04-25T06:50:36.763Z</time></trkpt><trkpt lat="45.5227987" lon="9.3809503"><ele>134.66666666666666</ele><time>2026-04-25T06:50:37.763Z</time></trkpt><trkpt lat="45.5228239" lon="9.3811718"><ele>135.0</ele><time>2026-04-25T06:50:38.763Z</time></trkpt><trkpt lat="45.5228495" lon="9.3813907"><ele>135.0</ele><time>2026-04-25T06:50:39.764Z</time></trkpt><trkpt lat="45.5228745" lon="9.3815996"><ele>135.0</ele><time>2026-04-25T06:50:40.764Z</time></trkpt><trkpt lat="45.5228979" lon="9.3817999"><ele>135.0</ele><time>2026-04-25T06:50:41.764Z</time></trkpt><trkpt lat="45.522923" lon="9.3819863"><ele>135.0</ele><time>2026-04-25T06:50:42.764Z</time></trkpt><trkpt lat="45.5229431" lon="9.3821659"><ele>134.75</ele><time>2026-04-25T06:50:43.763Z</time></trkpt><trkpt lat="45.5229661" lon="9.3823394"><ele>134.5</ele><time>2026-04-25T06:50:44.763Z</time></trkpt><trkpt lat="45.5229903" lon="9.3825148"><ele>134.25</ele><time>2026-04-25T06:50:45.763Z</time></trkpt><trkpt lat="45.5230154" lon="9.3826945"><ele>134.0</ele><time>2026-04-25T06:50:46.764Z</time></trkpt><trkpt lat="45.5230407" lon="9.3828776"><ele>134.0</ele><time>2026-04-25T06:50:47.763Z</time></trkpt><trkpt lat="45.5230678" lon="9.3830632"><ele>134.0</ele><time>2026-04-25T06:50:48.763Z</time></trkpt><trkpt lat="45.5230949" lon="9.383252"><ele>134.0</ele><time>2026-04-25T06:50:49.764Z</time></trkpt><trkpt lat="45.5231274" lon="9.3834335"><ele>134.0</ele><time>2026-04-25T06:50:50.763Z</time></trkpt><trkpt lat="45.5231636" lon="9.3836158"><ele>134.0</ele><time>2026-04-25T06:50:51.763Z</time></trkpt><trkpt lat="45.5232061" lon="9.3837965"><ele>134.0</ele><time>2026-04-25T06:50:52.764Z</time></trkpt><trkpt lat="45.5232536" lon="9.3839735"><ele>134.0</ele><time>2026-04-25T06:50:53.763Z</time></trkpt><trkpt lat="45.5233049" lon="9.3841446"><ele>134.0</ele><time>2026-04-25T06:50:54.763Z</time></trkpt><trkpt lat="45.5233549" lon="9.3843115"><ele>134.0</ele><time>2026-04-25T06:50:55.764Z</time></trkpt><trkpt lat="45.5234021" lon="9.3844778"><ele>134.0</ele><time>2026-04-25T06:50:56.764Z</time></trkpt><trkpt lat="45.523451" lon="9.3846418"><ele>134.0</ele><time>2026-04-25T06:50:57.763Z</time></trkpt><trkpt lat="45.5235001" lon="9.3848047"><ele>134.0</ele><time>2026-04-25T06:50:58.764Z</time></trkpt><trkpt lat="45.523549" lon="9.3849671"><ele>134.0</ele><time>2026-04-25T06:50:59.763Z</time></trkpt><trkpt lat="45.5235987" lon="9.3851316"><ele>134.0</ele><time>2026-04-25T06:51:00.763Z</time></trkpt><trkpt lat="45.5236485" lon="9.3853"><ele>134.0</ele><time>2026-04-25T06:51:01.764Z</time></trkpt><trkpt lat="45.5237006" lon="9.3854741"><ele>134.0</ele><time>2026-04-25T06:51:02.763Z</time></trkpt><trkpt lat="45.5237539" lon="9.3856478"><ele>134.0</ele><time>2026-04-25T06:51:03.764Z</time></trkpt><trkpt lat="45.5238076" lon="9.385824"><ele>134.0</ele><time>2026-04-25T06:51:04.764Z</time></trkpt><trkpt lat="45.5238632" lon="9.3860041"><ele>134.0</ele><time>2026-04-25T06:51:05.764Z</time></trkpt><trkpt lat="45.5239189" lon="9.386184"><ele>134.0</ele><time>2026-04-25T06:51:06.764Z</time></trkpt><trkpt lat="45.5239746" lon="9.3863651"><ele>134.0</ele><time>2026-04-25T06:51:07.763Z</time></trkpt><trkpt lat="45.5240315" lon="9.3865471"><ele>134.0</ele><time>2026-04-25T06:51:08.763Z</time></trkpt><trkpt lat="45.5240884" lon="9.3867309"><ele>134.0</ele><time>2026-04-25T06:51:09.763Z</time></trkpt><trkpt lat="45.5241456" lon="9.386923"><ele>134.0</ele><time>2026-04-25T06:51:10.764Z</time></trkpt><trkpt lat="45.524204" lon="9.3871173"><ele>133.75</ele><time>2026-04-25T06:51:11.763Z</time></trkpt><trkpt lat="45.5242647" lon="9.3873154"><ele>133.5</ele><time>2026-04-25T06:51:12.764Z</time></trkpt><trkpt lat="45.5243235" lon="9.3875122"><ele>133.25</ele><time>2026-04-25T06:51:13.764Z</time></trkpt><trkpt lat="45.5243819" lon="9.387706"><ele>133.0</ele><time>2026-04-25T06:51:14.764Z</time></trkpt><trkpt lat="45.5244388" lon="9.3879019"><ele>133.0</ele><time>2026-04-25T06:51:15.764Z</time></trkpt><trkpt lat="45.5244955" lon="9.388101"><ele>133.0</ele><time>2026-04-25T06:51:16.764Z</time></trkpt><trkpt lat="45.5245476" lon="9.3883018"><ele>133.0</ele><time>2026-04-25T06:51:17.764Z</time></trkpt><trkpt lat="45.524599" lon="9.3885092"><ele>133.66666666666669</ele><time>2026-04-25T06:51:18.764Z</time></trkpt><trkpt lat="45.5246442" lon="9.3887208"><ele>134.33333333333334</ele><time>2026-04-25T06:51:19.763Z</time></trkpt><trkpt lat="45.5246812" lon="9.3889366"><ele>135.0</ele><time>2026-04-25T06:51:20.763Z</time></trkpt><trkpt lat="45.5247131" lon="9.3891551"><ele>135.0</ele><time>2026-04-25T06:51:21.763Z</time></trkpt><trkpt lat="45.5247394" lon="9.3893716"><ele>135.0</ele><time>2026-04-25T06:51:22.763Z</time></trkpt><trkpt lat="45.5247567" lon="9.3895913"><ele>135.0</ele><time>2026-04-25T06:51:23.763Z</time></trkpt><trkpt lat="45.5247682" lon="9.389814"><ele>134.33333333333334</ele><time>2026-04-25T06:51:24.764Z</time></trkpt><trkpt lat="45.5247729" lon="9.3900407"><ele>133.66666666666669</ele><time>2026-04-25T06:51:25.764Z</time></trkpt><trkpt lat="45.5247717" lon="9.3902753"><ele>133.0</ele><time>2026-04-25T06:51:26.763Z</time></trkpt><trkpt lat="45.5247634" lon="9.3905044"><ele>133.0</ele><time>2026-04-25T06:51:27.763Z</time></trkpt><trkpt lat="45.524749" lon="9.3907325"><ele>133.0</ele><time>2026-04-25T06:51:28.763Z</time></trkpt><trkpt lat="45.5247213" lon="9.3909637"><ele>133.0</ele><time>2026-04-25T06:51:29.764Z</time></trkpt><trkpt lat="45.5246862" lon="9.3911947"><ele>132.33333333333334</ele><time>2026-04-25T06:51:30.763Z</time></trkpt><trkpt lat="45.5246467" lon="9.391424"><ele>131.66666666666666</ele><time>2026-04-25T06:51:31.763Z</time></trkpt><trkpt lat="45.5245999" lon="9.3916475"><ele>131.0</ele><time>2026-04-25T06:51:32.763Z</time></trkpt><trkpt lat="45.5245482" lon="9.3918685"><ele>131.0</ele><time>2026-04-25T06:51:33.763Z</time></trkpt><trkpt lat="45.5244919" lon="9.3920867"><ele>131.0</ele><time>2026-04-25T06:51:34.763Z</time></trkpt><trkpt lat="45.5244235" lon="9.3922963"><ele>131.0</ele><time>2026-04-25T06:51:35.763Z</time></trkpt><trkpt lat="45.5243506" lon="9.3925025"><ele>130.66666666666666</ele><time>2026-04-25T06:51:36.764Z</time></trkpt><trkpt lat="45.524273" lon="9.3927057"><ele>130.33333333333334</ele><time>2026-04-25T06:51:37.763Z</time></trkpt><trkpt lat="45.5241872" lon="9.3929033"><ele>130.0</ele><time>2026-04-25T06:51:38.764Z</time></trkpt><trkpt lat="45.5240958" lon="9.3930947"><ele>130.0</ele><time>2026-04-25T06:51:39.764Z</time></trkpt><trkpt lat="45.5239987" lon="9.3932821"><ele>130.0</ele><time>2026-04-25T06:51:40.764Z</time></trkpt><trkpt lat="45.5238924" lon="9.3934599"><ele>130.0</ele><time>2026-04-25T06:51:41.764Z</time></trkpt><trkpt lat="45.5237796" lon="9.3936309"><ele>130.0</ele><time>2026-04-25T06:51:42.764Z</time></trkpt><trkpt lat="45.5236619" lon="9.3937987"><ele>130.0</ele><time>2026-04-25T06:51:43.763Z</time></trkpt><trkpt lat="45.5235411" lon="9.3939634"><ele>130.0</ele><time>2026-04-25T06:51:44.764Z</time></trkpt><trkpt lat="45.5234193" lon="9.3941301"><ele>130.33333333333334</ele><time>2026-04-25T06:51:45.764Z</time></trkpt><trkpt lat="45.5232965" lon="9.3943001"><ele>130.66666666666666</ele><time>2026-04-25T06:51:46.764Z</time></trkpt><trkpt lat="45.5231818" lon="9.3944672"><ele>131.0</ele><time>2026-04-25T06:51:47.763Z</time></trkpt><trkpt lat="45.5230697" lon="9.3946281"><ele>131.0</ele><time>2026-04-25T06:51:48.764Z</time></trkpt><trkpt lat="45.5229575" lon="9.3947854"><ele>131.0</ele><time>2026-04-25T06:51:49.764Z</time></trkpt><trkpt lat="45.5228418" lon="9.3949445"><ele>131.0</ele><time>2026-04-25T06:51:50.764Z</time></trkpt><trkpt lat="45.5227238" lon="9.395109"><ele>131.0</ele><time>2026-04-25T06:51:51.763Z</time></trkpt><trkpt lat="45.5226042" lon="9.3952749"><ele>131.0</ele><time>2026-04-25T06:51:52.764Z</time></trkpt><trkpt lat="45.5224866" lon="9.3954399"><ele>131.0</ele><time>2026-04-25T06:51:53.764Z</time></trkpt><trkpt lat="45.52237" lon="9.3956046"><ele>131.0</ele><time>2026-04-25T06:51:54.764Z</time></trkpt><trkpt lat="45.5222517" lon="9.3957714"><ele>131.0</ele><time>2026-04-25T06:51:55.763Z</time></trkpt><trkpt lat="45.5221331" lon="9.3959373"><ele>131.0</ele><time>2026-04-25T06:51:56.763Z</time></trkpt><trkpt lat="45.5220148" lon="9.3961032"><ele>131.0</ele><time>2026-04-25T06:51:57.763Z</time></trkpt><trkpt lat="45.5218954" lon="9.3962703"><ele>131.0</ele><time>2026-04-25T06:51:58.763Z</time></trkpt><trkpt lat="45.5217757" lon="9.3964382"><ele>131.0</ele><time>2026-04-25T06:51:59.763Z</time></trkpt><trkpt lat="45.5216579" lon="9.3966045"><ele>131.0</ele><time>2026-04-25T06:52:00.763Z</time></trkpt><trkpt lat="45.5215406" lon="9.3967717"><ele>131.0</ele><time>2026-04-25T06:52:01.764Z</time></trkpt><trkpt lat="45.5214246" lon="9.3969495"><ele>131.0</ele><time>2026-04-25T06:52:02.763Z</time></trkpt><trkpt lat="45.5213123" lon="9.3971324"><ele>130.33333333333331</ele><time>2026-04-25T06:52:03.763Z</time></trkpt><trkpt lat="45.521209" lon="9.397321"><ele>129.66666666666666</ele><time>2026-04-25T06:52:04.763Z</time></trkpt><trkpt lat="45.5211137" lon="9.3975222"><ele>129.0</ele><time>2026-04-25T06:52:05.764Z</time></trkpt><trkpt lat="45.521026" lon="9.3977379"><ele>129.0</ele><time>2026-04-25T06:52:06.764Z</time></trkpt><trkpt lat="45.5209467" lon="9.3979658"><ele>129.0</ele><time>2026-04-25T06:52:07.763Z</time></trkpt><trkpt lat="45.5208751" lon="9.3982027"><ele>129.0</ele><time>2026-04-25T06:52:08.763Z</time></trkpt><trkpt lat="45.5208115" lon="9.3984448"><ele>129.33333333333334</ele><time>2026-04-25T06:52:09.763Z</time></trkpt><trkpt lat="45.5207552" lon="9.3986859"><ele>129.66666666666669</ele><time>2026-04-25T06:52:10.764Z</time></trkpt><trkpt lat="45.5207056" lon="9.3989385"><ele>130.0</ele><time>2026-04-25T06:52:11.764Z</time></trkpt><trkpt lat="45.5206636" lon="9.3992021"><ele>130.0</ele><time>2026-04-25T06:52:12.763Z</time></trkpt><trkpt lat="45.5206329" lon="9.3994622"><ele>130.0</ele><time>2026-04-25T06:52:13.763Z</time></trkpt><trkpt lat="45.5206028" lon="9.3997371"><ele>130.0</ele><time>2026-04-25T06:52:14.763Z</time></trkpt><trkpt lat="45.5205844" lon="9.4000261"><ele>129.66666666666669</ele><time>2026-04-25T06:52:15.764Z</time></trkpt><trkpt lat="45.5205863" lon="9.4002956"><ele>129.33333333333334</ele><time>2026-04-25T06:52:16.763Z</time></trkpt><trkpt lat="45.5206098" lon="9.4005508"><ele>129.0</ele><time>2026-04-25T06:52:17.764Z</time></trkpt><trkpt lat="45.5206381" lon="9.4008032"><ele>129.0</ele><time>2026-04-25T06:52:18.763Z</time></trkpt><trkpt lat="45.5206727" lon="9.4010507"><ele>129.0</ele><time>2026-04-25T06:52:19.763Z</time></trkpt><trkpt lat="45.5207163" lon="9.4012948"><ele>129.0</ele><time>2026-04-25T06:52:20.764Z</time></trkpt><trkpt lat="45.5207616" lon="9.401536"><ele>129.66666666666666</ele><time>2026-04-25T06:52:21.763Z</time></trkpt><trkpt lat="45.5208081" lon="9.4017754"><ele>130.33333333333331</ele><time>2026-04-25T06:52:22.764Z</time></trkpt><trkpt lat="45.5208573" lon="9.4020118"><ele>131.0</ele><time>2026-04-25T06:52:23.764Z</time></trkpt><trkpt lat="45.5209134" lon="9.4022466"><ele>131.0</ele><time>2026-04-25T06:52:24.763Z</time></trkpt><trkpt lat="45.5209797" lon="9.4024757"><ele>131.0</ele><time>2026-04-25T06:52:25.763Z</time></trkpt><trkpt lat="45.5210679" lon="9.4026897"><ele>131.0</ele><time>2026-04-25T06:52:26.764Z</time></trkpt><trkpt lat="45.5211681" lon="9.4028938"><ele>131.0</ele><time>2026-04-25T06:52:27.763Z</time></trkpt><trkpt lat="45.5212722" lon="9.4030945"><ele>131.0</ele><time>2026-04-25T06:52:28.763Z</time></trkpt><trkpt lat="45.5213812" lon="9.4032948"><ele>131.0</ele><time>2026-04-25T06:52:29.763Z</time></trkpt><trkpt lat="45.5214942" lon="9.4034971"><ele>131.0</ele><time>2026-04-25T06:52:30.764Z</time></trkpt><trkpt lat="45.5216102" lon="9.4037041"><ele>131.0</ele><time>2026-04-25T06:52:31.764Z</time></trkpt><trkpt lat="45.521732" lon="9.403918"><ele>131.0</ele><time>2026-04-25T06:52:32.764Z</time></trkpt><trkpt lat="45.5218577" lon="9.4041386"><ele>130.66666666666666</ele><time>2026-04-25T06:52:33.764Z</time></trkpt><trkpt lat="45.5219833" lon="9.4043672"><ele>130.33333333333334</ele><time>2026-04-25T06:52:34.764Z</time></trkpt><trkpt lat="45.5221116" lon="9.4046053"><ele>130.0</ele><time>2026-04-25T06:52:35.764Z</time></trkpt><trkpt lat="45.5222415" lon="9.4048451"><ele>130.0</ele><time>2026-04-25T06:52:36.764Z</time></trkpt><trkpt lat="45.5223728" lon="9.4050875"><ele>130.0</ele><time>2026-04-25T06:52:37.764Z</time></trkpt><trkpt lat="45.5225074" lon="9.4053263"><ele>130.0</ele><time>2026-04-25T06:52:38.764Z</time></trkpt><trkpt lat="45.522638" lon="9.4055629"><ele>130.66666666666669</ele><time>2026-04-25T06:52:39.763Z</time></trkpt><trkpt lat="45.522763" lon="9.4057939"><ele>131.33333333333334</ele><time>2026-04-25T06:52:40.763Z</time></trkpt><trkpt lat="45.522881" lon="9.4060196"><ele>132.0</ele><time>2026-04-25T06:52:41.763Z</time></trkpt><trkpt lat="45.5229954" lon="9.4062315"><ele>132.66666666666666</ele><time>2026-04-25T06:52:42.764Z</time></trkpt><trkpt lat="45.5231062" lon="9.4064339"><ele>133.33333333333331</ele><time>2026-04-25T06:52:43.764Z</time></trkpt><trkpt lat="45.5232115" lon="9.4066239"><ele>134.0</ele><time>2026-04-25T06:52:44.764Z</time></trkpt><trkpt lat="45.5233156" lon="9.4068063"><ele>134.0</ele><time>2026-04-25T06:52:45.764Z</time></trkpt><trkpt lat="45.5234158" lon="9.4069855"><ele>134.0</ele><time>2026-04-25T06:52:46.763Z</time></trkpt><trkpt lat="45.5235112" lon="9.4071561"><ele>134.0</ele><time>2026-04-25T06:52:47.763Z</time></trkpt><trkpt lat="45.5236077" lon="9.4073277"><ele>133.33333333333331</ele><time>2026-04-25T06:52:48.764Z</time></trkpt><trkpt lat="45.5237041" lon="9.4074984"><ele>132.66666666666666</ele><time>2026-04-25T06:52:49.763Z</time></trkpt><trkpt lat="45.5238005" lon="9.4076691"><ele>132.0</ele><time>2026-04-25T06:52:50.763Z</time></trkpt><trkpt lat="45.5238959" lon="9.407841"><ele>131.33333333333334</ele><time>2026-04-25T06:52:51.764Z</time></trkpt><trkpt lat="45.5239914" lon="9.4080119"><ele>130.66666666666669</ele><time>2026-04-25T06:52:52.764Z</time></trkpt><trkpt lat="45.5240854" lon="9.4081771"><ele>130.0</ele><time>2026-04-25T06:52:53.764Z</time></trkpt><trkpt lat="45.5241808" lon="9.4083502"><ele>130.0</ele><time>2026-04-25T06:52:54.763Z</time></trkpt><trkpt lat="45.524276" lon="9.4085232"><ele>130.0</ele><time>2026-04-25T06:52:55.763Z</time></trkpt><trkpt lat="45.5243716" lon="9.4087022"><ele>130.0</ele><time>2026-04-25T06:52:56.764Z</time></trkpt><trkpt lat="45.5244691" lon="9.4088798"><ele>130.66666666666669</ele><time>2026-04-25T06:52:57.763Z</time></trkpt><trkpt lat="45.524567" lon="9.4090589"><ele>131.33333333333334</ele><time>2026-04-25T06:52:58.763Z</time></trkpt><trkpt lat="45.5246655" lon="9.4092347"><ele>132.0</ele><time>2026-04-25T06:52:59.763Z</time></trkpt><trkpt lat="45.5247642" lon="9.4094123"><ele>132.0</ele><time>2026-04-25T06:53:00.764Z</time></trkpt><trkpt lat="45.5248615" lon="9.4095895"><ele>132.0</ele><time>2026-04-25T06:53:01.764Z</time></trkpt><trkpt lat="45.5249591" lon="9.4097658"><ele>132.0</ele><time>2026-04-25T06:53:02.763Z</time></trkpt><trkpt lat="45.5250568" lon="9.4099451"><ele>131.66666666666666</ele><time>2026-04-25T06:53:03.764Z</time></trkpt><trkpt lat="45.5251557" lon="9.410123"><ele>131.33333333333331</ele><time>2026-04-25T06:53:04.763Z</time></trkpt><trkpt lat="45.5252563" lon="9.410301"><ele>131.0</ele><time>2026-04-25T06:53:05.763Z</time></trkpt><trkpt lat="45.5253541" lon="9.4104789"><ele>131.33333333333331</ele><time>2026-04-25T06:53:06.763Z</time></trkpt><trkpt lat="45.5254518" lon="9.4106545"><ele>131.66666666666666</ele><time>2026-04-25T06:53:07.764Z</time></trkpt><trkpt lat="45.525548" lon="9.4108263"><ele>132.0</ele><time>2026-04-25T06:53:08.764Z</time></trkpt><trkpt lat="45.525644" lon="9.410999"><ele>132.0</ele><time>2026-04-25T06:53:09.763Z</time></trkpt><trkpt lat="45.5257408" lon="9.4111717"><ele>132.0</ele><time>2026-04-25T06:53:10.763Z</time></trkpt><trkpt lat="45.5258353" lon="9.4113402"><ele>132.0</ele><time>2026-04-25T06:53:11.764Z</time></trkpt><trkpt lat="45.5259316" lon="9.4115152"><ele>132.0</ele><time>2026-04-25T06:53:12.763Z</time></trkpt><trkpt lat="45.5260314" lon="9.4116985"><ele>132.0</ele><time>2026-04-25T06:53:13.764Z</time></trkpt><trkpt lat="45.5261355" lon="9.4118911"><ele>132.0</ele><time>2026-04-25T06:53:14.763Z</time></trkpt><trkpt lat="45.526241" lon="9.4120841"><ele>131.33333333333334</ele><time>2026-04-25T06:53:15.764Z</time></trkpt><trkpt lat="45.5263465" lon="9.4122784"><ele>130.66666666666669</ele><time>2026-04-25T06:53:16.764Z</time></trkpt><trkpt lat="45.5264499" lon="9.4124717"><ele>130.0</ele><time>2026-04-25T06:53:17.763Z</time></trkpt><trkpt lat="45.5265536" lon="9.4126639"><ele>130.0</ele><time>2026-04-25T06:53:18.764Z</time></trkpt><trkpt lat="45.5266578" lon="9.4128545"><ele>130.0</ele><time>2026-04-25T06:53:19.764Z</time></trkpt><trkpt lat="45.5267611" lon="9.4130403"><ele>130.0</ele><time>2026-04-25T06:53:20.764Z</time></trkpt><trkpt lat="45.52686" lon="9.4132223"><ele>130.0</ele><time>2026-04-25T06:53:21.763Z</time></trkpt><trkpt lat="45.5269589" lon="9.4134019"><ele>130.0</ele><time>2026-04-25T06:53:22.764Z</time></trkpt><trkpt lat="45.5270559" lon="9.4135783"><ele>130.0</ele><time>2026-04-25T06:53:23.764Z</time></trkpt><trkpt lat="45.5271521" lon="9.4137525"><ele>130.33333333333334</ele><time>2026-04-25T06:53:24.764Z</time></trkpt><trkpt lat="45.5272474" lon="9.4139259"><ele>130.66666666666666</ele><time>2026-04-25T06:53:25.764Z</time></trkpt><trkpt lat="45.5273426" lon="9.4141015"><ele>131.0</ele><time>2026-04-25T06:53:26.764Z</time></trkpt><trkpt lat="45.527436" lon="9.4142766"><ele>131.0</ele><time>2026-04-25T06:53:27.763Z</time></trkpt><trkpt lat="45.52753" lon="9.4144509"><ele>131.0</ele><time>2026-04-25T06:53:28.764Z</time></trkpt><trkpt lat="45.5276221" lon="9.4146236"><ele>131.0</ele><time>2026-04-25T06:53:29.763Z</time></trkpt><trkpt lat="45.5277174" lon="9.4147896"><ele>131.0</ele><time>2026-04-25T06:53:30.763Z</time></trkpt><trkpt lat="45.527811" lon="9.414957"><ele>131.0</ele><time>2026-04-25T06:53:31.764Z</time></trkpt><trkpt lat="45.5279056" lon="9.4151265"><ele>131.0</ele><time>2026-04-25T06:53:32.763Z</time></trkpt><trkpt lat="45.5280029" lon="9.4152972"><ele>131.0</ele><time>2026-04-25T06:53:33.764Z</time></trkpt><trkpt lat="45.5281008" lon="9.4154691"><ele>131.0</ele><time>2026-04-25T06:53:34.764Z</time></trkpt><trkpt lat="45.5281994" lon="9.4156406"><ele>131.0</ele><time>2026-04-25T06:53:35.763Z</time></trkpt><trkpt lat="45.5282992" lon="9.4158115"><ele>131.0</ele><time>2026-04-25T06:53:36.763Z</time></trkpt><trkpt lat="45.5283992" lon="9.4159832"><ele>131.0</ele><time>2026-04-25T06:53:37.763Z</time></trkpt><trkpt lat="45.5285015" lon="9.4161523"><ele>131.0</ele><time>2026-04-25T06:53:38.764Z</time></trkpt><trkpt lat="45.5286048" lon="9.4163232"><ele>131.33333333333331</ele><time>2026-04-25T06:53:39.763Z</time></trkpt><trkpt lat="45.5287092" lon="9.4164948"><ele>131.66666666666666</ele><time>2026-04-25T06:53:40.764Z</time></trkpt><trkpt lat="45.5288163" lon="9.4166658"><ele>132.0</ele><time>2026-04-25T06:53:41.763Z</time></trkpt><trkpt lat="45.5289244" lon="9.4168346"><ele>131.66666666666666</ele><time>2026-04-25T06:53:42.764Z</time></trkpt><trkpt lat="45.5290328" lon="9.4170022"><ele>131.33333333333331</ele><time>2026-04-25T06:53:43.764Z</time></trkpt><trkpt lat="45.5291441" lon="9.4171695"><ele>131.0</ele><time>2026-04-25T06:53:44.763Z</time></trkpt><trkpt lat="45.5292549" lon="9.4173364"><ele>131.0</ele><time>2026-04-25T06:53:45.763Z</time></trkpt><trkpt lat="45.5293657" lon="9.4175023"><ele>131.0</ele><time>2026-04-25T06:53:46.764Z</time></trkpt><trkpt lat="45.5294783" lon="9.417666"><ele>131.0</ele><time>2026-04-25T06:53:47.763Z</time></trkpt><trkpt lat="45.5295927" lon="9.4178299"><ele>130.33333333333331</ele><time>2026-04-25T06:53:48.764Z</time></trkpt><trkpt lat="45.5297044" lon="9.4179934"><ele>129.66666666666666</ele><time>2026-04-25T06:53:49.764Z</time></trkpt><trkpt lat="45.5298143" lon="9.418153"><ele>129.0</ele><time>2026-04-25T06:53:50.764Z</time></trkpt><trkpt lat="45.5299188" lon="9.4182996"><ele>129.0</ele><time>2026-04-25T06:53:51.764Z</time></trkpt><trkpt lat="45.5300235" lon="9.4184431"><ele>129.0</ele><time>2026-04-25T06:53:52.764Z</time></trkpt><trkpt lat="45.5301285" lon="9.4185844"><ele>129.0</ele><time>2026-04-25T06:53:53.764Z</time></trkpt><trkpt lat="45.5302342" lon="9.4187278"><ele>129.0</ele><time>2026-04-25T06:53:54.763Z</time></trkpt><trkpt lat="45.530339" lon="9.4188713"><ele>129.0</ele><time>2026-04-25T06:53:55.763Z</time></trkpt><trkpt lat="45.5304405" lon="9.4190116"><ele>129.0</ele><time>2026-04-25T06:53:56.763Z</time></trkpt><trkpt lat="45.5305412" lon="9.4191493"><ele>129.0</ele><time>2026-04-25T06:53:57.764Z</time></trkpt><trkpt lat="45.5306411" lon="9.4192861"><ele>129.0</ele><time>2026-04-25T06:53:58.764Z</time></trkpt><trkpt lat="45.5307407" lon="9.4194202"><ele>129.0</ele><time>2026-04-25T06:53:59.764Z</time></trkpt><trkpt lat="45.5308381" lon="9.419556"><ele>129.0</ele><time>2026-04-25T06:54:00.763Z</time></trkpt><trkpt lat="45.5309367" lon="9.4196887"><ele>129.0</ele><time>2026-04-25T06:54:01.764Z</time></trkpt><trkpt lat="45.5310385" lon="9.4198248"><ele>129.0</ele><time>2026-04-25T06:54:02.764Z</time></trkpt><trkpt lat="45.531143" lon="9.4199647"><ele>129.25</ele><time>2026-04-25T06:54:03.764Z</time></trkpt><trkpt lat="45.5312509" lon="9.4201074"><ele>129.5</ele><time>2026-04-25T06:54:04.764Z</time></trkpt><trkpt lat="45.5313598" lon="9.420255"><ele>129.75</ele><time>2026-04-25T06:54:05.764Z</time></trkpt><trkpt lat="45.5314696" lon="9.4204036"><ele>130.0</ele><time>2026-04-25T06:54:06.763Z</time></trkpt><trkpt lat="45.5315788" lon="9.4205517"><ele>130.0</ele><time>2026-04-25T06:54:07.764Z</time></trkpt><trkpt lat="45.5316895" lon="9.4207021"><ele>130.0</ele><time>2026-04-25T06:54:08.764Z</time></trkpt><trkpt lat="45.531802" lon="9.4208568"><ele>130.0</ele><time>2026-04-25T06:54:09.764Z</time></trkpt><trkpt lat="45.5319166" lon="9.4210129"><ele>130.0</ele><time>2026-04-25T06:54:10.763Z</time></trkpt><trkpt lat="45.5320319" lon="9.4211677"><ele>130.0</ele><time>2026-04-25T06:54:11.764Z</time></trkpt><trkpt lat="45.5321449" lon="9.4213228"><ele>130.0</ele><time>2026-04-25T06:54:12.763Z</time></trkpt><trkpt lat="45.5322548" lon="9.4214751"><ele>130.0</ele><time>2026-04-25T06:54:13.764Z</time></trkpt><trkpt lat="45.5323618" lon="9.4216219"><ele>130.0</ele><time>2026-04-25T06:54:14.764Z</time></trkpt><trkpt lat="45.5324707" lon="9.4217698"><ele>130.0</ele><time>2026-04-25T06:54:15.764Z</time></trkpt><trkpt lat="45.5325788" lon="9.4219193"><ele>130.0</ele><time>2026-04-25T06:54:16.764Z</time></trkpt><trkpt lat="45.5326874" lon="9.4220682"><ele>130.0</ele><time>2026-04-25T06:54:17.763Z</time></trkpt><trkpt lat="45.5327957" lon="9.422215"><ele>130.0</ele><time>2026-04-25T06:54:18.763Z</time></trkpt><trkpt lat="45.5329051" lon="9.4223621"><ele>130.0</ele><time>2026-04-25T06:54:19.764Z</time></trkpt><trkpt lat="45.5330135" lon="9.4225084"><ele>130.0</ele><time>2026-04-25T06:54:20.763Z</time></trkpt><trkpt lat="45.5331239" lon="9.4226591"><ele>130.0</ele><time>2026-04-25T06:54:21.763Z</time></trkpt><trkpt lat="45.53324" lon="9.422815"><ele>130.0</ele><time>2026-04-25T06:54:22.764Z</time></trkpt><trkpt lat="45.5333591" lon="9.4229761"><ele>130.0</ele><time>2026-04-25T06:54:23.763Z</time></trkpt><trkpt lat="45.5334761" lon="9.4231361"><ele>130.0</ele><time>2026-04-25T06:54:24.764Z</time></trkpt><trkpt lat="45.5335938" lon="9.4232932"><ele>130.0</ele><time>2026-04-25T06:54:25.763Z</time></trkpt><trkpt lat="45.5337113" lon="9.4234498"><ele>130.0</ele><time>2026-04-25T06:54:26.764Z</time></trkpt><trkpt lat="45.5338297" lon="9.423606"><ele>130.0</ele><time>2026-04-25T06:54:27.763Z</time></trkpt><trkpt lat="45.5339466" lon="9.4237624"><ele>130.0</ele><time>2026-04-25T06:54:28.764Z</time></trkpt><trkpt lat="45.5340641" lon="9.4239173"><ele>130.0</ele><time>2026-04-25T06:54:29.763Z</time></trkpt><trkpt lat="45.534187" lon="9.42407"><ele>130.0</ele><time>2026-04-25T06:54:30.764Z</time></trkpt><trkpt lat="45.5343149" lon="9.4242211"><ele>130.0</ele><time>2026-04-25T06:54:31.763Z</time></trkpt><trkpt lat="45.5344486" lon="9.4243716"><ele>130.0</ele><time>2026-04-25T06:54:32.764Z</time></trkpt><trkpt lat="45.5345853" lon="9.4245172"><ele>130.66666666666669</ele><time>2026-04-25T06:54:33.764Z</time></trkpt><trkpt lat="45.5347256" lon="9.4246624"><ele>131.33333333333334</ele><time>2026-04-25T06:54:34.764Z</time></trkpt><trkpt lat="45.5348745" lon="9.4248061"><ele>132.0</ele><time>2026-04-25T06:54:35.764Z</time></trkpt><trkpt lat="45.5350319" lon="9.4249545"><ele>132.0</ele><time>2026-04-25T06:54:36.763Z</time></trkpt><trkpt lat="45.5352009" lon="9.425108"><ele>132.0</ele><time>2026-04-25T06:54:37.763Z</time></trkpt><trkpt lat="45.5353794" lon="9.4252651"><ele>132.0</ele><time>2026-04-25T06:54:38.763Z</time></trkpt><trkpt lat="45.5355592" lon="9.4254175"><ele>132.0</ele><time>2026-04-25T06:54:39.764Z</time></trkpt><trkpt lat="45.535745" lon="9.4255687"><ele>132.0</ele><time>2026-04-25T06:54:40.763Z</time></trkpt><trkpt lat="45.5359344" lon="9.4257219"><ele>132.0</ele><time>2026-04-25T06:54:41.763Z</time></trkpt><trkpt lat="45.5361246" lon="9.4258753"><ele>132.0</ele><time>2026-04-25T06:54:42.763Z</time></trkpt><trkpt lat="45.536312" lon="9.4260286"><ele>132.0</ele><time>2026-04-25T06:54:43.764Z</time></trkpt><trkpt lat="45.5364954" lon="9.4261789"><ele>132.0</ele><time>2026-04-25T06:54:44.763Z</time></trkpt><trkpt lat="45.5366713" lon="9.4263259"><ele>131.66666666666666</ele><time>2026-04-25T06:54:45.763Z</time></trkpt><trkpt lat="45.5368435" lon="9.4264691"><ele>131.33333333333331</ele><time>2026-04-25T06:54:46.764Z</time></trkpt><trkpt lat="45.5370111" lon="9.4266079"><ele>131.0</ele><time>2026-04-25T06:54:47.763Z</time></trkpt><trkpt lat="45.5371742" lon="9.4267453"><ele>131.0</ele><time>2026-04-25T06:54:48.764Z</time></trkpt><trkpt lat="45.5373367" lon="9.4268846"><ele>131.0</ele><time>2026-04-25T06:54:49.763Z</time></trkpt><trkpt lat="45.5374939" lon="9.4270326"><ele>131.0</ele><time>2026-04-25T06:54:50.763Z</time></trkpt><trkpt lat="45.5376462" lon="9.4271916"><ele>131.0</ele><time>2026-04-25T06:54:51.763Z</time></trkpt><trkpt lat="45.5377903" lon="9.4273555"><ele>131.0</ele><time>2026-04-25T06:54:52.763Z</time></trkpt><trkpt lat="45.5379275" lon="9.4275284"><ele>131.0</ele><time>2026-04-25T06:54:53.763Z</time></trkpt><trkpt lat="45.5380668" lon="9.4276965"><ele>131.33333333333331</ele><time>2026-04-25T06:54:54.764Z</time></trkpt><trkpt lat="45.5382042" lon="9.4278638"><ele>131.66666666666666</ele><time>2026-04-25T06:54:55.764Z</time></trkpt><trkpt lat="45.5383363" lon="9.4280281"><ele>132.0</ele><time>2026-04-25T06:54:56.763Z</time></trkpt><trkpt lat="45.5384622" lon="9.4281844"><ele>132.33333333333334</ele><time>2026-04-25T06:54:57.763Z</time></trkpt><trkpt lat="45.5385845" lon="9.4283353"><ele>132.66666666666669</ele><time>2026-04-25T06:54:58.763Z</time></trkpt><trkpt lat="45.5387042" lon="9.4284836"><ele>133.0</ele><time>2026-04-25T06:54:59.764Z</time></trkpt><trkpt lat="45.5388219" lon="9.4286326"><ele>132.4</ele><time>2026-04-25T06:55:00.764Z</time></trkpt><trkpt lat="45.5389315" lon="9.4287746"><ele>131.8</ele><time>2026-04-25T06:55:01.764Z</time></trkpt><trkpt lat="45.5390198" lon="9.4288967"><ele>131.2</ele><time>2026-04-25T06:55:02.763Z</time></trkpt><trkpt lat="45.5390852" lon="9.4289965"><ele>130.6</ele><time>2026-04-25T06:55:03.763Z</time></trkpt><trkpt lat="45.5391342" lon="9.429083"><ele>130.0</ele><time>2026-04-25T06:55:04.764Z</time></trkpt><trkpt lat="45.5391683" lon="9.4291664"><ele>130.0</ele><time>2026-04-25T06:55:05.764Z</time></trkpt><trkpt lat="45.539192" lon="9.4292533"><ele>130.0</ele><time>2026-04-25T06:55:06.763Z</time></trkpt><trkpt lat="45.539208" lon="9.4293451"><ele>130.0</ele><time>2026-04-25T06:55:07.763Z</time></trkpt><trkpt lat="45.5392357" lon="9.4294391"><ele>130.0</ele><time>2026-04-25T06:55:08.763Z</time></trkpt><trkpt lat="45.5392721" lon="9.4295401"><ele>130.0</ele><time>2026-04-25T06:55:09.763Z</time></trkpt><trkpt lat="45.5393149" lon="9.4296476"><ele>130.0</ele><time>2026-04-25T06:55:10.763Z</time></trkpt><trkpt lat="45.5393525" lon="9.4297667"><ele>130.4</ele><time>2026-04-25T06:55:11.764Z</time></trkpt><trkpt lat="45.5393759" lon="9.4298952"><ele>130.8</ele><time>2026-04-25T06:55:12.763Z</time></trkpt><trkpt lat="45.539397" lon="9.4300252"><ele>131.2</ele><time>2026-04-25T06:55:13.764Z</time></trkpt><trkpt lat="45.5394226" lon="9.4301668"><ele>131.6</ele><time>2026-04-25T06:55:14.764Z</time></trkpt><trkpt lat="45.5394572" lon="9.4303133"><ele>132.0</ele><time>2026-04-25T06:55:15.764Z</time></trkpt><trkpt lat="45.5395005" lon="9.4304606"><ele>131.75</ele><time>2026-04-25T06:55:16.763Z</time></trkpt><trkpt lat="45.5395497" lon="9.4306107"><ele>131.5</ele><time>2026-04-25T06:55:17.763Z</time></trkpt><trkpt lat="45.5396051" lon="9.4307649"><ele>131.25</ele><time>2026-04-25T06:55:18.764Z</time></trkpt><trkpt lat="45.5396643" lon="9.4309243"><ele>131.0</ele><time>2026-04-25T06:55:19.764Z</time></trkpt><trkpt lat="45.5397242" lon="9.4310863"><ele>131.0</ele><time>2026-04-25T06:55:20.763Z</time></trkpt><trkpt lat="45.539786" lon="9.4312502"><ele>131.0</ele><time>2026-04-25T06:55:21.763Z</time></trkpt><trkpt lat="45.5398489" lon="9.4314177"><ele>131.0</ele><time>2026-04-25T06:55:22.764Z</time></trkpt><trkpt lat="45.5399151" lon="9.4315873"><ele>131.0</ele><time>2026-04-25T06:55:23.764Z</time></trkpt><trkpt lat="45.5399835" lon="9.4317599"><ele>131.0</ele><time>2026-04-25T06:55:24.764Z</time></trkpt><trkpt lat="45.5400513" lon="9.4319341"><ele>131.0</ele><time>2026-04-25T06:55:25.764Z</time></trkpt><trkpt lat="45.5401177" lon="9.4321069"><ele>131.0</ele><time>2026-04-25T06:55:26.764Z</time></trkpt><trkpt lat="45.5401826" lon="9.4322816"><ele>131.0</ele><time>2026-04-25T06:55:27.764Z</time></trkpt><trkpt lat="45.5402467" lon="9.4324563"><ele>131.0</ele><time>2026-04-25T06:55:28.763Z</time></trkpt><trkpt lat="45.5403088" lon="9.4326312"><ele>131.0</ele><time>2026-04-25T06:55:29.763Z</time></trkpt><trkpt lat="45.5403715" lon="9.4328024"><ele>131.0</ele><time>2026-04-25T06:55:30.763Z</time></trkpt><trkpt lat="45.540435" lon="9.4329768"><ele>131.0</ele><time>2026-04-25T06:55:31.763Z</time></trkpt><trkpt lat="45.5404988" lon="9.4331531"><ele>130.75</ele><time>2026-04-25T06:55:32.764Z</time></trkpt><trkpt lat="45.540565" lon="9.4333285"><ele>130.5</ele><time>2026-04-25T06:55:33.764Z</time></trkpt><trkpt lat="45.5406311" lon="9.4335071"><ele>130.25</ele><time>2026-04-25T06:55:34.764Z</time></trkpt><trkpt lat="45.5406982" lon="9.4336865"><ele>130.0</ele><time>2026-04-25T06:55:35.764Z</time></trkpt><trkpt lat="45.5407668" lon="9.4338711"><ele>130.0</ele><time>2026-04-25T06:55:36.763Z</time></trkpt><trkpt lat="45.5408374" lon="9.4340586"><ele>130.0</ele><time>2026-04-25T06:55:37.764Z</time></trkpt><trkpt lat="45.5409091" lon="9.4342488"><ele>130.0</ele><time>2026-04-25T06:55:38.763Z</time></trkpt><trkpt lat="45.5409783" lon="9.4344384"><ele>130.0</ele><time>2026-04-25T06:55:39.763Z</time></trkpt><trkpt lat="45.5410487" lon="9.4346301"><ele>130.0</ele><time>2026-04-25T06:55:40.763Z</time></trkpt><trkpt lat="45.5411184" lon="9.434825"><ele>130.0</ele><time>2026-04-25T06:55:41.764Z</time></trkpt><trkpt lat="45.5411893" lon="9.4350189"><ele>130.33333333333334</ele><time>2026-04-25T06:55:42.763Z</time></trkpt><trkpt lat="45.5412577" lon="9.4352102"><ele>130.66666666666666</ele><time>2026-04-25T06:55:43.764Z</time></trkpt><trkpt lat="45.5413296" lon="9.4354023"><ele>131.0</ele><time>2026-04-25T06:55:44.763Z</time></trkpt><trkpt lat="45.5414008" lon="9.4355945"><ele>131.5</ele><time>2026-04-25T06:55:45.763Z</time></trkpt><trkpt lat="45.5414707" lon="9.4357838"><ele>132.0</ele><time>2026-04-25T06:55:46.764Z</time></trkpt><trkpt lat="45.5415437" lon="9.4359697"><ele>132.5</ele><time>2026-04-25T06:55:47.764Z</time></trkpt><trkpt lat="45.5416113" lon="9.4361516"><ele>133.0</ele><time>2026-04-25T06:55:48.764Z</time></trkpt><trkpt lat="45.5416787" lon="9.4363333"><ele>133.0</ele><time>2026-04-25T06:55:49.763Z</time></trkpt><trkpt lat="45.5417432" lon="9.4365126"><ele>133.0</ele><time>2026-04-25T06:55:50.764Z</time></trkpt><trkpt lat="45.5418084" lon="9.436689"><ele>133.0</ele><time>2026-04-25T06:55:51.763Z</time></trkpt><trkpt lat="45.5418727" lon="9.4368609"><ele>133.0</ele><time>2026-04-25T06:55:52.763Z</time></trkpt><trkpt lat="45.5419382" lon="9.4370315"><ele>132.75</ele><time>2026-04-25T06:55:53.764Z</time></trkpt><trkpt lat="45.5420003" lon="9.4371919"><ele>132.5</ele><time>2026-04-25T06:55:54.763Z</time></trkpt><trkpt lat="45.5420628" lon="9.4373399"><ele>132.25</ele><time>2026-04-25T06:55:55.764Z</time></trkpt><trkpt lat="45.5421257" lon="9.4374719"><ele>132.0</ele><time>2026-04-25T06:55:56.764Z</time></trkpt><trkpt lat="45.5421898" lon="9.4375932"><ele>132.0</ele><time>2026-04-25T06:55:57.763Z</time></trkpt><trkpt lat="45.5422493" lon="9.4377148"><ele>132.0</ele><time>2026-04-25T06:55:58.763Z</time></trkpt><trkpt lat="45.5423003" lon="9.4378456"><ele>132.0</ele><time>2026-04-25T06:55:59.763Z</time></trkpt><trkpt lat="45.5423382" lon="9.4379809"><ele>132.0</ele><time>2026-04-25T06:56:00.763Z</time></trkpt><trkpt lat="45.5423658" lon="9.4381207"><ele>132.0</ele><time>2026-04-25T06:56:01.763Z</time></trkpt><trkpt lat="45.5423955" lon="9.4382737"><ele>132.25</ele><time>2026-04-25T06:56:02.763Z</time></trkpt><trkpt lat="45.5424222" lon="9.4384321"><ele>132.5</ele><time>2026-04-25T06:56:03.764Z</time></trkpt><trkpt lat="45.5424503" lon="9.4385922"><ele>132.75</ele><time>2026-04-25T06:56:04.763Z</time></trkpt><trkpt lat="45.5424961" lon="9.4387563"><ele>133.0</ele><time>2026-04-25T06:56:05.764Z</time></trkpt><trkpt lat="45.5425498" lon="9.4389191"><ele>133.0</ele><time>2026-04-25T06:56:06.763Z</time></trkpt><trkpt lat="45.5426105" lon="9.4390805"><ele>133.0</ele><time>2026-04-25T06:56:07.763Z</time></trkpt><trkpt lat="45.5426707" lon="9.4392409"><ele>133.0</ele><time>2026-04-25T06:56:08.763Z</time></trkpt><trkpt lat="45.5427297" lon="9.4394004"><ele>133.0</ele><time>2026-04-25T06:56:09.763Z</time></trkpt><trkpt lat="45.5427876" lon="9.4395544"><ele>132.8</ele><time>2026-04-25T06:56:10.763Z</time></trkpt><trkpt lat="45.5428454" lon="9.4397057"><ele>132.60000000000002</ele><time>2026-04-25T06:56:11.764Z</time></trkpt><trkpt lat="45.5428985" lon="9.4398459"><ele>132.39999999999998</ele><time>2026-04-25T06:56:12.764Z</time></trkpt><trkpt lat="45.5429487" lon="9.4399756"><ele>132.2</ele><time>2026-04-25T06:56:13.763Z</time></trkpt><trkpt lat="45.5429966" lon="9.4400983"><ele>132.0</ele><time>2026-04-25T06:56:14.764Z</time></trkpt><trkpt lat="45.5430401" lon="9.4402067"><ele>132.16666666666666</ele><time>2026-04-25T06:56:15.764Z</time></trkpt><trkpt lat="45.5430788" lon="9.440305"><ele>132.33333333333334</ele><time>2026-04-25T06:56:16.763Z</time></trkpt><trkpt lat="45.5431097" lon="9.440401"><ele>132.5</ele><time>2026-04-25T06:56:17.764Z</time></trkpt><trkpt lat="45.5431304" lon="9.4404889"><ele>132.66666666666669</ele><time>2026-04-25T06:56:18.763Z</time></trkpt><trkpt lat="45.5431474" lon="9.4405782"><ele>132.83333333333334</ele><time>2026-04-25T06:56:19.763Z</time></trkpt><trkpt lat="45.5431607" lon="9.4406675"><ele>133.0</ele><time>2026-04-25T06:56:20.764Z</time></trkpt><trkpt lat="45.5432262" lon="9.4408076"><ele>133.0</ele><time>2026-04-25T06:56:22.764Z</time></trkpt><trkpt lat="45.5433286" lon="9.4407896"><ele>133.0</ele><time>2026-04-25T06:56:24.764Z</time></trkpt><trkpt lat="45.5433477" lon="9.4406501"><ele>133.0</ele><time>2026-04-25T06:56:26.763Z</time></trkpt><trkpt lat="45.5433084" lon="9.4405767"><ele>133.0</ele><time>2026-04-25T06:56:27.763Z</time></trkpt><trkpt lat="45.5432522" lon="9.4405124"><ele>133.0</ele><time>2026-04-25T06:56:28.763Z</time></trkpt><trkpt lat="45.543192" lon="9.4404384"><ele>133.0</ele><time>2026-04-25T06:56:29.764Z</time></trkpt><trkpt lat="45.5431401" lon="9.4403405"><ele>133.20000000000002</ele><time>2026-04-25T06:56:30.764Z</time></trkpt><trkpt lat="45.543094" lon="9.4402282"><ele>133.4</ele><time>2026-04-25T06:56:31.764Z</time></trkpt><trkpt lat="45.5430476" lon="9.4401143"><ele>133.60000000000002</ele><time>2026-04-25T06:56:32.764Z</time></trkpt><trkpt lat="45.5430006" lon="9.4399978"><ele>133.8</ele><time>2026-04-25T06:56:33.763Z</time></trkpt><trkpt lat="45.5429519" lon="9.4398777"><ele>134.0</ele><time>2026-04-25T06:56:34.764Z</time></trkpt><trkpt lat="45.542901" lon="9.4397529"><ele>133.8</ele><time>2026-04-25T06:56:35.764Z</time></trkpt><trkpt lat="45.5428493" lon="9.4396272"><ele>133.60000000000002</ele><time>2026-04-25T06:56:36.763Z</time></trkpt><trkpt lat="45.5428017" lon="9.4394947"><ele>133.4</ele><time>2026-04-25T06:56:37.763Z</time></trkpt><trkpt lat="45.54275" lon="9.4393643"><ele>133.20000000000002</ele><time>2026-04-25T06:56:38.764Z</time></trkpt><trkpt lat="45.5426993" lon="9.4392338"><ele>133.0</ele><time>2026-04-25T06:56:39.763Z</time></trkpt><trkpt lat="45.5426491" lon="9.4390979"><ele>133.0</ele><time>2026-04-25T06:56:40.763Z</time></trkpt><trkpt lat="45.5425971" lon="9.4389597"><ele>133.0</ele><time>2026-04-25T06:56:41.764Z</time></trkpt><trkpt lat="45.5425504" lon="9.4388329"><ele>133.0</ele><time>2026-04-25T06:56:42.764Z</time></trkpt><trkpt lat="45.5425177" lon="9.4387064"><ele>133.0</ele><time>2026-04-25T06:56:43.764Z</time></trkpt><trkpt lat="45.5425031" lon="9.4385834"><ele>133.0</ele><time>2026-04-25T06:56:44.764Z</time></trkpt><trkpt lat="45.5425126" lon="9.4384691"><ele>133.0</ele><time>2026-04-25T06:56:45.764Z</time></trkpt><trkpt lat="45.5425474" lon="9.4383737"><ele>133.0</ele><time>2026-04-25T06:56:46.764Z</time></trkpt><trkpt lat="45.5426072" lon="9.4383077"><ele>133.0</ele><time>2026-04-25T06:56:47.763Z</time></trkpt><trkpt lat="45.5426815" lon="9.4382725"><ele>133.0</ele><time>2026-04-25T06:56:48.764Z</time></trkpt><trkpt lat="45.5427688" lon="9.4382666"><ele>133.0</ele><time>2026-04-25T06:56:49.763Z</time></trkpt><trkpt lat="45.5428666" lon="9.4382888"><ele>133.0</ele><time>2026-04-25T06:56:50.764Z</time></trkpt><trkpt lat="45.5429697" lon="9.4383342"><ele>133.0</ele><time>2026-04-25T06:56:51.764Z</time></trkpt><trkpt lat="45.5430781" lon="9.4384002"><ele>133.0</ele><time>2026-04-25T06:56:52.764Z</time></trkpt><trkpt lat="45.5431853" lon="9.4384709"><ele>133.0</ele><time>2026-04-25T06:56:53.763Z</time></trkpt><trkpt lat="45.543296" lon="9.4385421"><ele>133.0</ele><time>2026-04-25T06:56:54.763Z</time></trkpt><trkpt lat="45.5434081" lon="9.4386206"><ele>133.0</ele><time>2026-04-25T06:56:55.764Z</time></trkpt><trkpt lat="45.5435217" lon="9.4386988"><ele>133.0</ele><time>2026-04-25T06:56:56.764Z</time></trkpt><trkpt lat="45.5436379" lon="9.4387805"><ele>133.0</ele><time>2026-04-25T06:56:57.764Z</time></trkpt><trkpt lat="45.5437574" lon="9.4388595"><ele>133.0</ele><time>2026-04-25T06:56:58.764Z</time></trkpt><trkpt lat="45.5438769" lon="9.4389405"><ele>132.75</ele><time>2026-04-25T06:56:59.763Z</time></trkpt><trkpt lat="45.5439969" lon="9.439023"><ele>132.5</ele><time>2026-04-25T06:57:00.763Z</time></trkpt><trkpt lat="45.5441184" lon="9.4391062"><ele>132.25</ele><time>2026-04-25T06:57:01.764Z</time></trkpt><trkpt lat="45.5442402" lon="9.4391902"><ele>132.0</ele><time>2026-04-25T06:57:02.763Z</time></trkpt><trkpt lat="45.5443611" lon="9.439276"><ele>132.0</ele><time>2026-04-25T06:57:03.763Z</time></trkpt><trkpt lat="45.5444822" lon="9.439366"><ele>132.0</ele><time>2026-04-25T06:57:04.763Z</time></trkpt><trkpt lat="45.544604" lon="9.439465"><ele>132.0</ele><time>2026-04-25T06:57:05.764Z</time></trkpt><trkpt lat="45.5447255" lon="9.4395664"><ele>132.0</ele><time>2026-04-25T06:57:06.764Z</time></trkpt><trkpt lat="45.5448448" lon="9.4396755"><ele>131.75</ele><time>2026-04-25T06:57:07.763Z</time></trkpt><trkpt lat="45.544963" lon="9.4397905"><ele>131.5</ele><time>2026-04-25T06:57:08.764Z</time></trkpt><trkpt lat="45.545079" lon="9.4399124"><ele>131.25</ele><time>2026-04-25T06:57:09.764Z</time></trkpt><trkpt lat="45.5451939" lon="9.4400384"><ele>131.0</ele><time>2026-04-25T06:57:10.764Z</time></trkpt><trkpt lat="45.5453053" lon="9.4401724"><ele>131.5</ele><time>2026-04-25T06:57:11.763Z</time></trkpt><trkpt lat="45.5454127" lon="9.4403157"><ele>132.0</ele><time>2026-04-25T06:57:12.763Z</time></trkpt><trkpt lat="45.5455162" lon="9.440467"><ele>132.5</ele><time>2026-04-25T06:57:13.764Z</time></trkpt><trkpt lat="45.5456175" lon="9.4406209"><ele>133.0</ele><time>2026-04-25T06:57:14.763Z</time></trkpt><trkpt lat="45.5457118" lon="9.4407803"><ele>133.0</ele><time>2026-04-25T06:57:15.764Z</time></trkpt><trkpt lat="45.5457976" lon="9.4409386"><ele>133.0</ele><time>2026-04-25T06:57:16.764Z</time></trkpt><trkpt lat="45.5458765" lon="9.4410922"><ele>133.0</ele><time>2026-04-25T06:57:17.764Z</time></trkpt><trkpt lat="45.545948" lon="9.4412421"><ele>133.0</ele><time>2026-04-25T06:57:18.764Z</time></trkpt><trkpt lat="45.5460126" lon="9.441388"><ele>133.0</ele><time>2026-04-25T06:57:19.764Z</time></trkpt><trkpt lat="45.5460685" lon="9.4415285"><ele>133.0</ele><time>2026-04-25T06:57:20.763Z</time></trkpt><trkpt lat="45.5461097" lon="9.4416716"><ele>133.0</ele><time>2026-04-25T06:57:21.763Z</time></trkpt><trkpt lat="45.5461275" lon="9.4418226"><ele>133.0</ele><time>2026-04-25T06:57:22.764Z</time></trkpt><trkpt lat="45.5461348" lon="9.4419743"><ele>133.0</ele><time>2026-04-25T06:57:23.763Z</time></trkpt><trkpt lat="45.5461733" lon="9.4421219"><ele>133.5</ele><time>2026-04-25T06:57:24.763Z</time></trkpt><trkpt lat="45.5462403" lon="9.4422588"><ele>134.0</ele><time>2026-04-25T06:57:25.763Z</time></trkpt><trkpt lat="45.5463111" lon="9.4424024"><ele>134.5</ele><time>2026-04-25T06:57:26.763Z</time></trkpt><trkpt lat="45.5463649" lon="9.4425695"><ele>135.0</ele><time>2026-04-25T06:57:27.763Z</time></trkpt><trkpt lat="45.5464084" lon="9.4427494"><ele>135.0</ele><time>2026-04-25T06:57:28.763Z</time></trkpt><trkpt lat="45.5464436" lon="9.4429342"><ele>135.0</ele><time>2026-04-25T06:57:29.764Z</time></trkpt><trkpt lat="45.5464742" lon="9.443121"><ele>135.0</ele><time>2026-04-25T06:57:30.763Z</time></trkpt><trkpt lat="45.5465057" lon="9.443312"><ele>135.0</ele><time>2026-04-25T06:57:31.763Z</time></trkpt><trkpt lat="45.5465368" lon="9.4435045"><ele>134.75</ele><time>2026-04-25T06:57:32.763Z</time></trkpt><trkpt lat="45.5465675" lon="9.4436996"><ele>134.5</ele><time>2026-04-25T06:57:33.764Z</time></trkpt><trkpt lat="45.5465949" lon="9.4438978"><ele>134.25</ele><time>2026-04-25T06:57:34.764Z</time></trkpt><trkpt lat="45.5466255" lon="9.4440946"><ele>134.0</ele><time>2026-04-25T06:57:35.764Z</time></trkpt><trkpt lat="45.5466567" lon="9.4442909"><ele>134.0</ele><time>2026-04-25T06:57:36.763Z</time></trkpt><trkpt lat="45.5466874" lon="9.4444913"><ele>134.0</ele><time>2026-04-25T06:57:37.763Z</time></trkpt><trkpt lat="45.5467185" lon="9.4446876"><ele>134.0</ele><time>2026-04-25T06:57:38.763Z</time></trkpt><trkpt lat="45.54675" lon="9.4448867"><ele>134.0</ele><time>2026-04-25T06:57:39.764Z</time></trkpt><trkpt lat="45.5467831" lon="9.4450874"><ele>134.25</ele><time>2026-04-25T06:57:40.763Z</time></trkpt><trkpt lat="45.5468153" lon="9.44529"><ele>134.5</ele><time>2026-04-25T06:57:41.763Z</time></trkpt><trkpt lat="45.5468477" lon="9.4454918"><ele>134.75</ele><time>2026-04-25T06:57:42.763Z</time></trkpt><trkpt lat="45.5468797" lon="9.4456953"><ele>135.0</ele><time>2026-04-25T06:57:43.763Z</time></trkpt><trkpt lat="45.5469127" lon="9.4459011"><ele>135.0</ele><time>2026-04-25T06:57:44.764Z</time></trkpt><trkpt lat="45.5469482" lon="9.4461097"><ele>135.0</ele><time>2026-04-25T06:57:45.764Z</time></trkpt><trkpt lat="45.5469798" lon="9.4463213"><ele>135.0</ele><time>2026-04-25T06:57:46.764Z</time></trkpt><trkpt lat="45.5470129" lon="9.4465323"><ele>135.0</ele><time>2026-04-25T06:57:47.763Z</time></trkpt><trkpt lat="45.5470478" lon="9.4467427"><ele>135.0</ele><time>2026-04-25T06:57:48.764Z</time></trkpt><trkpt lat="45.5470827" lon="9.4469563"><ele>135.0</ele><time>2026-04-25T06:57:49.763Z</time></trkpt><trkpt lat="45.5471161" lon="9.4471664"><ele>135.0</ele><time>2026-04-25T06:57:50.763Z</time></trkpt><trkpt lat="45.54715" lon="9.4473781"><ele>135.0</ele><time>2026-04-25T06:57:51.764Z</time></trkpt><trkpt lat="45.5471832" lon="9.4475896"><ele>135.0</ele><time>2026-04-25T06:57:52.763Z</time></trkpt><trkpt lat="45.5472157" lon="9.4477999"><ele>134.33333333333334</ele><time>2026-04-25T06:57:53.763Z</time></trkpt><trkpt lat="45.5472491" lon="9.448016"><ele>133.66666666666669</ele><time>2026-04-25T06:57:54.764Z</time></trkpt><trkpt lat="45.5472839" lon="9.4482367"><ele>133.0</ele><time>2026-04-25T06:57:55.764Z</time></trkpt><trkpt lat="45.5473181" lon="9.4484558"><ele>133.0</ele><time>2026-04-25T06:57:56.764Z</time></trkpt><trkpt lat="45.5473528" lon="9.4486775"><ele>133.0</ele><time>2026-04-25T06:57:57.763Z</time></trkpt><trkpt lat="45.5473859" lon="9.4489008"><ele>133.0</ele><time>2026-04-25T06:57:58.764Z</time></trkpt><trkpt lat="45.5474165" lon="9.4491252"><ele>133.33333333333334</ele><time>2026-04-25T06:57:59.763Z</time></trkpt><trkpt lat="45.5474432" lon="9.4493487"><ele>133.66666666666666</ele><time>2026-04-25T06:58:00.763Z</time></trkpt><trkpt lat="45.5474622" lon="9.4495681"><ele>134.0</ele><time>2026-04-25T06:58:01.763Z</time></trkpt><trkpt lat="45.5474769" lon="9.4497844"><ele>134.25</ele><time>2026-04-25T06:58:02.764Z</time></trkpt><trkpt lat="45.5474872" lon="9.4499973"><ele>134.5</ele><time>2026-04-25T06:58:03.764Z</time></trkpt><trkpt lat="45.5474927" lon="9.4502038"><ele>134.75</ele><time>2026-04-25T06:58:04.763Z</time></trkpt><trkpt lat="45.5474891" lon="9.450399"><ele>135.0</ele><time>2026-04-25T06:58:05.763Z</time></trkpt><trkpt lat="45.5474841" lon="9.4505887"><ele>135.0</ele><time>2026-04-25T06:58:06.763Z</time></trkpt><trkpt lat="45.5474728" lon="9.4507689"><ele>135.0</ele><time>2026-04-25T06:58:07.764Z</time></trkpt><trkpt lat="45.5474544" lon="9.4509342"><ele>135.0</ele><time>2026-04-25T06:58:08.763Z</time></trkpt><trkpt lat="45.5474187" lon="9.4510771"><ele>135.0</ele><time>2026-04-25T06:58:09.764Z</time></trkpt><trkpt lat="45.5473625" lon="9.4512"><ele>135.0</ele><time>2026-04-25T06:58:10.763Z</time></trkpt><trkpt lat="45.5472883" lon="9.4512949"><ele>135.0</ele><time>2026-04-25T06:58:11.764Z</time></trkpt><trkpt lat="45.5472042" lon="9.4513733"><ele>135.0</ele><time>2026-04-25T06:58:12.764Z</time></trkpt><trkpt lat="45.5471188" lon="9.4514608"><ele>135.0</ele><time>2026-04-25T06:58:13.764Z</time></trkpt><trkpt lat="45.547043" lon="9.4515673"><ele>135.0</ele><time>2026-04-25T06:58:14.764Z</time></trkpt><trkpt lat="45.5469771" lon="9.4516893"><ele>134.6</ele><time>2026-04-25T06:58:15.764Z</time></trkpt><trkpt lat="45.5469275" lon="9.4518267"><ele>134.2</ele><time>2026-04-25T06:58:16.763Z</time></trkpt><trkpt lat="45.5469023" lon="9.4519766"><ele>133.8</ele><time>2026-04-25T06:58:17.764Z</time></trkpt><trkpt lat="45.5469043" lon="9.4521363"><ele>133.4</ele><time>2026-04-25T06:58:18.764Z</time></trkpt><trkpt lat="45.5469308" lon="9.4522936"><ele>133.0</ele><time>2026-04-25T06:58:19.764Z</time></trkpt><trkpt lat="45.5469842" lon="9.4524385"><ele>133.0</ele><time>2026-04-25T06:58:20.764Z</time></trkpt><trkpt lat="45.5470642" lon="9.4525564"><ele>133.0</ele><time>2026-04-25T06:58:21.764Z</time></trkpt><trkpt lat="45.5471614" lon="9.4526512"><ele>133.0</ele><time>2026-04-25T06:58:22.763Z</time></trkpt><trkpt lat="45.547267" lon="9.4527334"><ele>133.0</ele><time>2026-04-25T06:58:23.764Z</time></trkpt><trkpt lat="45.5473703" lon="9.4528192"><ele>133.0</ele><time>2026-04-25T06:58:24.764Z</time></trkpt><trkpt lat="45.5474631" lon="9.4529247"><ele>133.0</ele><time>2026-04-25T06:58:25.764Z</time></trkpt><trkpt lat="45.5475367" lon="9.4530525"><ele>133.0</ele><time>2026-04-25T06:58:26.763Z</time></trkpt><trkpt lat="45.547592" lon="9.4531969"><ele>133.0</ele><time>2026-04-25T06:58:27.763Z</time></trkpt><trkpt lat="45.5476448" lon="9.4533496"><ele>133.25</ele><time>2026-04-25T06:58:28.764Z</time></trkpt><trkpt lat="45.5476967" lon="9.4535125"><ele>133.5</ele><time>2026-04-25T06:58:29.764Z</time></trkpt><trkpt lat="45.5477519" lon="9.4536746"><ele>133.75</ele><time>2026-04-25T06:58:30.763Z</time></trkpt><trkpt lat="45.5478134" lon="9.45384"><ele>134.0</ele><time>2026-04-25T06:58:31.764Z</time></trkpt><trkpt lat="45.5478744" lon="9.4540124"><ele>134.25</ele><time>2026-04-25T06:58:32.763Z</time></trkpt><trkpt lat="45.5479376" lon="9.4541851"><ele>134.5</ele><time>2026-04-25T06:58:33.763Z</time></trkpt><trkpt lat="45.5480006" lon="9.4543604"><ele>134.75</ele><time>2026-04-25T06:58:34.763Z</time></trkpt><trkpt lat="45.5480684" lon="9.4545406"><ele>135.0</ele><time>2026-04-25T06:58:35.764Z</time></trkpt><trkpt lat="45.5481366" lon="9.4547204"><ele>135.0</ele><time>2026-04-25T06:58:36.763Z</time></trkpt><trkpt lat="45.5482059" lon="9.4549045"><ele>135.0</ele><time>2026-04-25T06:58:37.763Z</time></trkpt><trkpt lat="45.5482741" lon="9.4550928"><ele>135.0</ele><time>2026-04-25T06:58:38.764Z</time></trkpt><trkpt lat="45.548345" lon="9.4552801"><ele>135.0</ele><time>2026-04-25T06:58:39.764Z</time></trkpt><trkpt lat="45.5484151" lon="9.4554702"><ele>135.33333333333334</ele><time>2026-04-25T06:58:40.763Z</time></trkpt><trkpt lat="45.5484872" lon="9.4556631"><ele>135.66666666666669</ele><time>2026-04-25T06:58:41.763Z</time></trkpt><trkpt lat="45.5485595" lon="9.455857"><ele>136.0</ele><time>2026-04-25T06:58:42.764Z</time></trkpt><trkpt lat="45.5486314" lon="9.4560488"><ele>136.0</ele><time>2026-04-25T06:58:43.763Z</time></trkpt><trkpt lat="45.5487045" lon="9.4562451"><ele>136.0</ele><time>2026-04-25T06:58:44.763Z</time></trkpt><trkpt lat="45.548778" lon="9.45644"><ele>136.0</ele><time>2026-04-25T06:58:45.763Z</time></trkpt><trkpt lat="45.5488515" lon="9.456637"><ele>136.33333333333334</ele><time>2026-04-25T06:58:46.764Z</time></trkpt><trkpt lat="45.5489252" lon="9.4568312"><ele>136.66666666666666</ele><time>2026-04-25T06:58:47.764Z</time></trkpt><trkpt lat="45.5489996" lon="9.4570261"><ele>137.0</ele><time>2026-04-25T06:58:48.764Z</time></trkpt><trkpt lat="45.5490719" lon="9.4572245"><ele>137.33333333333331</ele><time>2026-04-25T06:58:49.763Z</time></trkpt><trkpt lat="45.5491479" lon="9.4574219"><ele>137.66666666666666</ele><time>2026-04-25T06:58:50.764Z</time></trkpt><trkpt lat="45.5492252" lon="9.457624"><ele>138.0</ele><time>2026-04-25T06:58:51.764Z</time></trkpt><trkpt lat="45.549302" lon="9.4578303"><ele>137.0</ele><time>2026-04-25T06:58:52.763Z</time></trkpt><trkpt lat="45.5493793" lon="9.4580435"><ele>136.0</ele><time>2026-04-25T06:58:53.763Z</time></trkpt><trkpt lat="45.5494586" lon="9.4582593"><ele>135.0</ele><time>2026-04-25T06:58:54.764Z</time></trkpt><trkpt lat="45.5495372" lon="9.4584772"><ele>135.0</ele><time>2026-04-25T06:58:55.764Z</time></trkpt><trkpt lat="45.549617" lon="9.4586957"><ele>135.0</ele><time>2026-04-25T06:58:56.764Z</time></trkpt><trkpt lat="45.549698" lon="9.458912"><ele>135.0</ele><time>2026-04-25T06:58:57.763Z</time></trkpt><trkpt lat="45.5497793" lon="9.4591284"><ele>135.0</ele><time>2026-04-25T06:58:58.764Z</time></trkpt><trkpt lat="45.5498621" lon="9.4593474"><ele>135.0</ele><time>2026-04-25T06:58:59.764Z</time></trkpt><trkpt lat="45.549945" lon="9.4595579"><ele>135.0</ele><time>2026-04-25T06:59:00.764Z</time></trkpt><trkpt lat="45.5500234" lon="9.4597671"><ele>135.33333333333334</ele><time>2026-04-25T06:59:01.763Z</time></trkpt><trkpt lat="45.5501026" lon="9.459971"><ele>135.66666666666669</ele><time>2026-04-25T06:59:02.763Z</time></trkpt><trkpt lat="45.5501802" lon="9.4601788"><ele>136.0</ele><time>2026-04-25T06:59:03.763Z</time></trkpt><trkpt lat="45.5502569" lon="9.4603828"><ele>136.0</ele><time>2026-04-25T06:59:04.764Z</time></trkpt><trkpt lat="45.550329" lon="9.4605802"><ele>136.0</ele><time>2026-04-25T06:59:05.764Z</time></trkpt><trkpt lat="45.5504006" lon="9.460779"><ele>136.0</ele><time>2026-04-25T06:59:06.764Z</time></trkpt><trkpt lat="45.5504748" lon="9.4609764"><ele>136.0</ele><time>2026-04-25T06:59:07.763Z</time></trkpt><trkpt lat="45.550548" lon="9.4611735"><ele>136.0</ele><time>2026-04-25T06:59:08.763Z</time></trkpt><trkpt lat="45.5506215" lon="9.4613703"><ele>136.0</ele><time>2026-04-25T06:59:09.763Z</time></trkpt><trkpt lat="45.5506953" lon="9.4615629"><ele>136.0</ele><time>2026-04-25T06:59:10.764Z</time></trkpt><trkpt lat="45.5507673" lon="9.4617597"><ele>136.0</ele><time>2026-04-25T06:59:11.764Z</time></trkpt><trkpt lat="45.5508422" lon="9.4619569"><ele>136.0</ele><time>2026-04-25T06:59:12.763Z</time></trkpt><trkpt lat="45.5509159" lon="9.4621587"><ele>136.66666666666669</ele><time>2026-04-25T06:59:13.764Z</time></trkpt><trkpt lat="45.5509907" lon="9.4623628"><ele>137.33333333333334</ele><time>2026-04-25T06:59:14.764Z</time></trkpt><trkpt lat="45.5510673" lon="9.4625669"><ele>138.0</ele><time>2026-04-25T06:59:15.764Z</time></trkpt><trkpt lat="45.5511438" lon="9.4627738"><ele>138.0</ele><time>2026-04-25T06:59:16.764Z</time></trkpt><trkpt lat="45.5512209" lon="9.462981"><ele>138.0</ele><time>2026-04-25T06:59:17.763Z</time></trkpt><trkpt lat="45.5512986" lon="9.4631889"><ele>138.0</ele><time>2026-04-25T06:59:18.763Z</time></trkpt><trkpt lat="45.5513753" lon="9.4633976"><ele>138.0</ele><time>2026-04-25T06:59:19.764Z</time></trkpt><trkpt lat="45.5514501" lon="9.4636059"><ele>138.0</ele><time>2026-04-25T06:59:20.763Z</time></trkpt><trkpt lat="45.5515272" lon="9.4638121"><ele>138.0</ele><time>2026-04-25T06:59:21.763Z</time></trkpt><trkpt lat="45.5516043" lon="9.4640213"><ele>137.66666666666666</ele><time>2026-04-25T06:59:22.764Z</time></trkpt><trkpt lat="45.5516817" lon="9.4642314"><ele>137.33333333333331</ele><time>2026-04-25T06:59:23.764Z</time></trkpt><trkpt lat="45.5517587" lon="9.4644434"><ele>137.0</ele><time>2026-04-25T06:59:24.763Z</time></trkpt><trkpt lat="45.5518352" lon="9.4646541"><ele>137.0</ele><time>2026-04-25T06:59:25.763Z</time></trkpt><trkpt lat="45.551914" lon="9.4648635"><ele>137.0</ele><time>2026-04-25T06:59:26.764Z</time></trkpt><trkpt lat="45.551991" lon="9.4650759"><ele>137.0</ele><time>2026-04-25T06:59:27.764Z</time></trkpt><trkpt lat="45.552071" lon="9.4652843"><ele>137.66666666666666</ele><time>2026-04-25T06:59:28.763Z</time></trkpt><trkpt lat="45.5521497" lon="9.4654941"><ele>138.33333333333334</ele><time>2026-04-25T06:59:29.764Z</time></trkpt><trkpt lat="45.5522273" lon="9.4657017"><ele>139.0</ele><time>2026-04-25T06:59:30.764Z</time></trkpt><trkpt lat="45.5523056" lon="9.4659054"><ele>139.0</ele><time>2026-04-25T06:59:31.763Z</time></trkpt><trkpt lat="45.5523841" lon="9.4661126"><ele>139.0</ele><time>2026-04-25T06:59:32.764Z</time></trkpt><trkpt lat="45.5524609" lon="9.4663187"><ele>139.0</ele><time>2026-04-25T06:59:33.764Z</time></trkpt><trkpt lat="45.552538" lon="9.4665274"><ele>139.0</ele><time>2026-04-25T06:59:34.763Z</time></trkpt><trkpt lat="45.5526168" lon="9.4667377"><ele>139.0</ele><time>2026-04-25T06:59:35.764Z</time></trkpt><trkpt lat="45.5526967" lon="9.4669465"><ele>139.0</ele><time>2026-04-25T06:59:36.764Z</time></trkpt><trkpt lat="45.5527756" lon="9.4671583"><ele>139.0</ele><time>2026-04-25T06:59:37.764Z</time></trkpt><trkpt lat="45.5528552" lon="9.467371"><ele>139.0</ele><time>2026-04-25T06:59:38.764Z</time></trkpt><trkpt lat="45.5529361" lon="9.4675861"><ele>139.0</ele><time>2026-04-25T06:59:39.763Z</time></trkpt><trkpt lat="45.5530166" lon="9.4677991"><ele>139.66666666666669</ele><time>2026-04-25T06:59:40.764Z</time></trkpt><trkpt lat="45.5531" lon="9.4680155"><ele>140.33333333333334</ele><time>2026-04-25T06:59:41.764Z</time></trkpt><trkpt lat="45.5531835" lon="9.4682324"><ele>141.0</ele><time>2026-04-25T06:59:42.763Z</time></trkpt><trkpt lat="45.5532699" lon="9.4684538"><ele>141.0</ele><time>2026-04-25T06:59:43.764Z</time></trkpt><trkpt lat="45.553355" lon="9.468679"><ele>141.0</ele><time>2026-04-25T06:59:44.763Z</time></trkpt><trkpt lat="45.5534407" lon="9.4689028"><ele>141.0</ele><time>2026-04-25T06:59:45.764Z</time></trkpt><trkpt lat="45.5535291" lon="9.4691272"><ele>140.33333333333334</ele><time>2026-04-25T06:59:46.763Z</time></trkpt><trkpt lat="45.5536175" lon="9.4693541"><ele>139.66666666666669</ele><time>2026-04-25T06:59:47.764Z</time></trkpt><trkpt lat="45.5537067" lon="9.4695796"><ele>139.0</ele><time>2026-04-25T06:59:48.763Z</time></trkpt><trkpt lat="45.5537942" lon="9.4698036"><ele>139.0</ele><time>2026-04-25T06:59:49.763Z</time></trkpt><trkpt lat="45.5538816" lon="9.4700296"><ele>139.0</ele><time>2026-04-25T06:59:50.764Z</time></trkpt><trkpt lat="45.5539686" lon="9.4702527"><ele>139.0</ele><time>2026-04-25T06:59:51.763Z</time></trkpt><trkpt lat="45.5540537" lon="9.4704737"><ele>139.66666666666669</ele><time>2026-04-25T06:59:52.763Z</time></trkpt><trkpt lat="45.5541395" lon="9.470692"><ele>140.33333333333334</ele><time>2026-04-25T06:59:53.764Z</time></trkpt><trkpt lat="45.554223" lon="9.4709055"><ele>141.0</ele><time>2026-04-25T06:59:54.763Z</time></trkpt><trkpt lat="45.5543063" lon="9.4711173"><ele>140.66666666666666</ele><time>2026-04-25T06:59:55.764Z</time></trkpt><trkpt lat="45.5543891" lon="9.4713276"><ele>140.33333333333331</ele><time>2026-04-25T06:59:56.764Z</time></trkpt><trkpt lat="45.5544714" lon="9.4715351"><ele>140.0</ele><time>2026-04-25T06:59:57.764Z</time></trkpt><trkpt lat="45.5545538" lon="9.4717458"><ele>141.0</ele><time>2026-04-25T06:59:58.764Z</time></trkpt><trkpt lat="45.5546338" lon="9.471956"><ele>142.0</ele><time>2026-04-25T06:59:59.764Z</time></trkpt><trkpt lat="45.5547123" lon="9.4721619"><ele>143.0</ele><time>2026-04-25T07:00:00.763Z</time></trkpt><trkpt lat="45.554788" lon="9.4723599"><ele>143.0</ele><time>2026-04-25T07:00:01.764Z</time></trkpt><trkpt lat="45.5548674" lon="9.4725599"><ele>143.0</ele><time>2026-04-25T07:00:02.763Z</time></trkpt><trkpt lat="45.5549434" lon="9.4727602"><ele>143.0</ele><time>2026-04-25T07:00:03.763Z</time></trkpt><trkpt lat="45.5550192" lon="9.4729594"><ele>142.66666666666666</ele><time>2026-04-25T07:00:04.763Z</time></trkpt><trkpt lat="45.5550993" lon="9.4731615"><ele>142.33333333333334</ele><time>2026-04-25T07:00:05.763Z</time></trkpt><trkpt lat="45.5551804" lon="9.4733668"><ele>142.0</ele><time>2026-04-25T07:00:06.763Z</time></trkpt><trkpt lat="45.5552633" lon="9.4735746"><ele>142.0</ele><time>2026-04-25T07:00:07.764Z</time></trkpt><trkpt lat="45.5553447" lon="9.473784"><ele>142.0</ele><time>2026-04-25T07:00:08.764Z</time></trkpt><trkpt lat="45.5554263" lon="9.4739879"><ele>142.0</ele><time>2026-04-25T07:00:09.764Z</time></trkpt><trkpt lat="45.5555048" lon="9.4741894"><ele>142.66666666666669</ele><time>2026-04-25T07:00:10.763Z</time></trkpt><trkpt lat="45.5555826" lon="9.4743894"><ele>143.33333333333334</ele><time>2026-04-25T07:00:11.764Z</time></trkpt><trkpt lat="45.5556591" lon="9.4745861"><ele>144.0</ele><time>2026-04-25T07:00:12.764Z</time></trkpt><trkpt lat="45.5557297" lon="9.474769"><ele>144.25</ele><time>2026-04-25T07:00:13.764Z</time></trkpt><trkpt lat="45.5557954" lon="9.4749389"><ele>144.5</ele><time>2026-04-25T07:00:14.763Z</time></trkpt><trkpt lat="45.5558586" lon="9.4751034"><ele>144.75</ele><time>2026-04-25T07:00:15.763Z</time></trkpt><trkpt lat="45.5559221" lon="9.4752683"><ele>145.0</ele><time>2026-04-25T07:00:16.764Z</time></trkpt><trkpt lat="45.5559856" lon="9.4754337"><ele>144.75</ele><time>2026-04-25T07:00:17.763Z</time></trkpt><trkpt lat="45.5560494" lon="9.4755981"><ele>144.5</ele><time>2026-04-25T07:00:18.764Z</time></trkpt><trkpt lat="45.556116" lon="9.4757653"><ele>144.25</ele><time>2026-04-25T07:00:19.763Z</time></trkpt><trkpt lat="45.5561826" lon="9.4759336"><ele>144.0</ele><time>2026-04-25T07:00:20.763Z</time></trkpt><trkpt lat="45.5562482" lon="9.4761044"><ele>144.25</ele><time>2026-04-25T07:00:21.764Z</time></trkpt><trkpt lat="45.5563136" lon="9.4762788"><ele>144.5</ele><time>2026-04-25T07:00:22.763Z</time></trkpt><trkpt lat="45.5563805" lon="9.4764533"><ele>144.75</ele><time>2026-04-25T07:00:23.763Z</time></trkpt><trkpt lat="45.5564496" lon="9.4766291"><ele>145.0</ele><time>2026-04-25T07:00:24.764Z</time></trkpt><trkpt lat="45.5565193" lon="9.4768071"><ele>145.0</ele><time>2026-04-25T07:00:25.763Z</time></trkpt><trkpt lat="45.5565898" lon="9.4769893"><ele>145.0</ele><time>2026-04-25T07:00:26.764Z</time></trkpt><trkpt lat="45.5566617" lon="9.477174"><ele>145.0</ele><time>2026-04-25T07:00:27.764Z</time></trkpt><trkpt lat="45.5567344" lon="9.4773628"><ele>145.0</ele><time>2026-04-25T07:00:28.763Z</time></trkpt><trkpt lat="45.5568057" lon="9.4775481"><ele>145.0</ele><time>2026-04-25T07:00:29.764Z</time></trkpt><trkpt lat="45.5568786" lon="9.4777363"><ele>145.0</ele><time>2026-04-25T07:00:30.764Z</time></trkpt><trkpt lat="45.556954" lon="9.4779263"><ele>145.0</ele><time>2026-04-25T07:00:31.764Z</time></trkpt><trkpt lat="45.5570297" lon="9.4781173"><ele>145.0</ele><time>2026-04-25T07:00:32.764Z</time></trkpt><trkpt lat="45.5571052" lon="9.4783105"><ele>145.0</ele><time>2026-04-25T07:00:33.763Z</time></trkpt><trkpt lat="45.5571821" lon="9.478506"><ele>145.0</ele><time>2026-04-25T07:00:34.763Z</time></trkpt><trkpt lat="45.5572579" lon="9.4787036"><ele>145.0</ele><time>2026-04-25T07:00:35.763Z</time></trkpt><trkpt lat="45.5573331" lon="9.4789"><ele>145.0</ele><time>2026-04-25T07:00:36.764Z</time></trkpt><trkpt lat="45.5574089" lon="9.4790955"><ele>145.0</ele><time>2026-04-25T07:00:37.763Z</time></trkpt><trkpt lat="45.557482" lon="9.4792874"><ele>145.0</ele><time>2026-04-25T07:00:38.764Z</time></trkpt><trkpt lat="45.5575564" lon="9.4794794"><ele>145.0</ele><time>2026-04-25T07:00:39.764Z</time></trkpt><trkpt lat="45.5576328" lon="9.4796731"><ele>145.0</ele><time>2026-04-25T07:00:40.763Z</time></trkpt><trkpt lat="45.5577079" lon="9.479867"><ele>145.0</ele><time>2026-04-25T07:00:41.764Z</time></trkpt><trkpt lat="45.5577816" lon="9.4800596"><ele>145.0</ele><time>2026-04-25T07:00:42.763Z</time></trkpt><trkpt lat="45.5578576" lon="9.4802545"><ele>145.0</ele><time>2026-04-25T07:00:43.763Z</time></trkpt><trkpt lat="45.5579324" lon="9.4804477"><ele>145.0</ele><time>2026-04-25T07:00:44.763Z</time></trkpt><trkpt lat="45.558007" lon="9.4806411"><ele>145.0</ele><time>2026-04-25T07:00:45.763Z</time></trkpt><trkpt lat="45.5580825" lon="9.4808329"><ele>145.0</ele><time>2026-04-25T07:00:46.764Z</time></trkpt><trkpt lat="45.5581564" lon="9.4810268"><ele>145.0</ele><time>2026-04-25T07:00:47.764Z</time></trkpt><trkpt lat="45.5582328" lon="9.481221"><ele>145.0</ele><time>2026-04-25T07:00:48.764Z</time></trkpt><trkpt lat="45.5583101" lon="9.4814183"><ele>145.0</ele><time>2026-04-25T07:00:49.763Z</time></trkpt><trkpt lat="45.5583873" lon="9.4816177"><ele>145.33333333333334</ele><time>2026-04-25T07:00:50.764Z</time></trkpt><trkpt lat="45.5584624" lon="9.4818172"><ele>145.66666666666666</ele><time>2026-04-25T07:00:51.763Z</time></trkpt><trkpt lat="45.5585397" lon="9.4820186"><ele>146.0</ele><time>2026-04-25T07:00:52.763Z</time></trkpt><trkpt lat="45.5586183" lon="9.4822177"><ele>146.33333333333331</ele><time>2026-04-25T07:00:53.763Z</time></trkpt><trkpt lat="45.5586955" lon="9.4824145"><ele>146.66666666666666</ele><time>2026-04-25T07:00:54.764Z</time></trkpt><trkpt lat="45.5587721" lon="9.4826086"><ele>147.0</ele><time>2026-04-25T07:00:55.763Z</time></trkpt><trkpt lat="45.5588493" lon="9.4828016"><ele>147.33333333333334</ele><time>2026-04-25T07:00:56.763Z</time></trkpt><trkpt lat="45.5589266" lon="9.482995"><ele>147.66666666666669</ele><time>2026-04-25T07:00:57.763Z</time></trkpt><trkpt lat="45.559003" lon="9.4831871"><ele>148.0</ele><time>2026-04-25T07:00:58.763Z</time></trkpt><trkpt lat="45.5590789" lon="9.4833795"><ele>148.0</ele><time>2026-04-25T07:00:59.763Z</time></trkpt><trkpt lat="45.5591545" lon="9.4835712"><ele>148.0</ele><time>2026-04-25T07:01:00.764Z</time></trkpt><trkpt lat="45.5592309" lon="9.4837632"><ele>148.0</ele><time>2026-04-25T07:01:01.763Z</time></trkpt><trkpt lat="45.5593066" lon="9.4839561"><ele>148.33333333333334</ele><time>2026-04-25T07:01:02.763Z</time></trkpt><trkpt lat="45.5593827" lon="9.48415"><ele>148.66666666666666</ele><time>2026-04-25T07:01:03.763Z</time></trkpt><trkpt lat="45.5594584" lon="9.4843444"><ele>149.0</ele><time>2026-04-25T07:01:04.764Z</time></trkpt><trkpt lat="45.5595348" lon="9.4845397"><ele>148.33333333333331</ele><time>2026-04-25T07:01:05.763Z</time></trkpt><trkpt lat="45.559612" lon="9.4847312"><ele>147.66666666666666</ele><time>2026-04-25T07:01:06.764Z</time></trkpt><trkpt lat="45.5596884" lon="9.4849236"><ele>147.0</ele><time>2026-04-25T07:01:07.764Z</time></trkpt><trkpt lat="45.5597647" lon="9.4851179"><ele>147.0</ele><time>2026-04-25T07:01:08.764Z</time></trkpt><trkpt lat="45.5598409" lon="9.4853116"><ele>147.0</ele><time>2026-04-25T07:01:09.764Z</time></trkpt><trkpt lat="45.5599187" lon="9.485506"><ele>147.0</ele><time>2026-04-25T07:01:10.764Z</time></trkpt><trkpt lat="45.5599974" lon="9.4856989"><ele>148.0</ele><time>2026-04-25T07:01:11.763Z</time></trkpt><trkpt lat="45.5600768" lon="9.4858932"><ele>149.0</ele><time>2026-04-25T07:01:12.763Z</time></trkpt><trkpt lat="45.5601563" lon="9.4860866"><ele>150.0</ele><time>2026-04-25T07:01:13.764Z</time></trkpt><trkpt lat="45.5602328" lon="9.4862775"><ele>150.0</ele><time>2026-04-25T07:01:14.764Z</time></trkpt><trkpt lat="45.5603107" lon="9.4864658"><ele>150.0</ele><time>2026-04-25T07:01:15.763Z</time></trkpt><trkpt lat="45.5603855" lon="9.4866528"><ele>150.0</ele><time>2026-04-25T07:01:16.764Z</time></trkpt><trkpt lat="45.5604586" lon="9.4868359"><ele>150.0</ele><time>2026-04-25T07:01:17.764Z</time></trkpt><trkpt lat="45.5605311" lon="9.4870202"><ele>150.0</ele><time>2026-04-25T07:01:18.763Z</time></trkpt><trkpt lat="45.5606017" lon="9.4872009"><ele>150.0</ele><time>2026-04-25T07:01:19.763Z</time></trkpt><trkpt lat="45.5606743" lon="9.487383"><ele>150.0</ele><time>2026-04-25T07:01:20.764Z</time></trkpt><trkpt lat="45.5607461" lon="9.4875646"><ele>150.0</ele><time>2026-04-25T07:01:21.764Z</time></trkpt><trkpt lat="45.5608216" lon="9.4877476"><ele>150.0</ele><time>2026-04-25T07:01:22.763Z</time></trkpt><trkpt lat="45.5608958" lon="9.4879324"><ele>150.0</ele><time>2026-04-25T07:01:23.764Z</time></trkpt><trkpt lat="45.5609661" lon="9.4881178"><ele>150.0</ele><time>2026-04-25T07:01:24.764Z</time></trkpt><trkpt lat="45.5610394" lon="9.4883036"><ele>150.0</ele><time>2026-04-25T07:01:25.764Z</time></trkpt><trkpt lat="45.5611118" lon="9.4884899"><ele>150.0</ele><time>2026-04-25T07:01:26.763Z</time></trkpt><trkpt lat="45.5611824" lon="9.4886764"><ele>150.0</ele><time>2026-04-25T07:01:27.764Z</time></trkpt><trkpt lat="45.5612524" lon="9.4888594"><ele>150.0</ele><time>2026-04-25T07:01:28.763Z</time></trkpt><trkpt lat="45.5613247" lon="9.4890432"><ele>150.25</ele><time>2026-04-25T07:01:29.764Z</time></trkpt><trkpt lat="45.5613928" lon="9.4892278"><ele>150.5</ele><time>2026-04-25T07:01:30.764Z</time></trkpt><trkpt lat="45.5614627" lon="9.4894148"><ele>150.75</ele><time>2026-04-25T07:01:31.764Z</time></trkpt><trkpt lat="45.5615326" lon="9.4896019"><ele>151.0</ele><time>2026-04-25T07:01:32.764Z</time></trkpt><trkpt lat="45.5615995" lon="9.4897774"><ele>151.0</ele><time>2026-04-25T07:01:33.763Z</time></trkpt><trkpt lat="45.5616604" lon="9.4899454"><ele>151.0</ele><time>2026-04-25T07:01:34.763Z</time></trkpt><trkpt lat="45.5617196" lon="9.4901028"><ele>151.0</ele><time>2026-04-25T07:01:35.763Z</time></trkpt><trkpt lat="45.5617741" lon="9.4902475"><ele>151.0</ele><time>2026-04-25T07:01:36.764Z</time></trkpt><trkpt lat="45.5618249" lon="9.4903822"><ele>151.0</ele><time>2026-04-25T07:01:37.763Z</time></trkpt><trkpt lat="45.5618703" lon="9.4905072"><ele>151.0</ele><time>2026-04-25T07:01:38.763Z</time></trkpt><trkpt lat="45.5619156" lon="9.4906311"><ele>151.0</ele><time>2026-04-25T07:01:39.763Z</time></trkpt><trkpt lat="45.5619623" lon="9.4907519"><ele>151.0</ele><time>2026-04-25T07:01:40.763Z</time></trkpt><trkpt lat="45.5620076" lon="9.4908697"><ele>151.0</ele><time>2026-04-25T07:01:41.764Z</time></trkpt><trkpt lat="45.5620489" lon="9.4909867"><ele>151.0</ele><time>2026-04-25T07:01:42.763Z</time></trkpt><trkpt lat="45.5620911" lon="9.4910937"><ele>151.0</ele><time>2026-04-25T07:01:43.763Z</time></trkpt><trkpt lat="45.5621301" lon="9.4911923"><ele>151.0</ele><time>2026-04-25T07:01:44.764Z</time></trkpt><trkpt lat="45.562165" lon="9.4912807"><ele>151.0</ele><time>2026-04-25T07:01:45.763Z</time></trkpt><trkpt lat="45.562197" lon="9.4913586"><ele>151.0</ele><time>2026-04-25T07:01:46.764Z</time></trkpt><trkpt lat="45.5622424" lon="9.4914764"><ele>151.0</ele><time>2026-04-25T07:01:48.764Z</time></trkpt><trkpt lat="45.5622918" lon="9.4915977"><ele>151.4</ele><time>2026-04-25T07:01:51.764Z</time></trkpt><trkpt lat="45.5623509" lon="9.4917578"><ele>151.8</ele><time>2026-04-25T07:01:53.763Z</time></trkpt><trkpt lat="45.5623864" lon="9.4918535"><ele>152.20000000000002</ele><time>2026-04-25T07:01:54.763Z</time></trkpt><trkpt lat="45.5624271" lon="9.4919574"><ele>152.6</ele><time>2026-04-25T07:01:55.763Z</time></trkpt><trkpt lat="45.562472" lon="9.4920714"><ele>153.0</ele><time>2026-04-25T07:01:56.764Z</time></trkpt><trkpt lat="45.5625155" lon="9.492184"><ele>153.0</ele><time>2026-04-25T07:01:57.763Z</time></trkpt><trkpt lat="45.5625594" lon="9.4922966"><ele>153.0</ele><time>2026-04-25T07:01:58.763Z</time></trkpt><trkpt lat="45.5626049" lon="9.4924114"><ele>153.0</ele><time>2026-04-25T07:01:59.763Z</time></trkpt><trkpt lat="45.5626502" lon="9.4925267"><ele>153.0</ele><time>2026-04-25T07:02:00.763Z</time></trkpt><trkpt lat="45.5626976" lon="9.4926443"><ele>153.0</ele><time>2026-04-25T07:02:01.764Z</time></trkpt><trkpt lat="45.5627457" lon="9.4927667"><ele>153.0</ele><time>2026-04-25T07:02:02.763Z</time></trkpt><trkpt lat="45.562797" lon="9.492899"><ele>153.0</ele><time>2026-04-25T07:02:03.764Z</time></trkpt><trkpt lat="45.56285" lon="9.4930346"><ele>153.0</ele><time>2026-04-25T07:02:04.764Z</time></trkpt><trkpt lat="45.5629059" lon="9.4931749"><ele>153.0</ele><time>2026-04-25T07:02:05.763Z</time></trkpt><trkpt lat="45.5629638" lon="9.4933141"><ele>153.0</ele><time>2026-04-25T07:02:06.764Z</time></trkpt><trkpt lat="45.5630174" lon="9.4934501"><ele>153.0</ele><time>2026-04-25T07:02:07.764Z</time></trkpt><trkpt lat="45.5630683" lon="9.4935854"><ele>153.0</ele><time>2026-04-25T07:02:08.764Z</time></trkpt><trkpt lat="45.563123" lon="9.4937196"><ele>153.0</ele><time>2026-04-25T07:02:09.763Z</time></trkpt><trkpt lat="45.5631764" lon="9.4938553"><ele>153.0</ele><time>2026-04-25T07:02:10.763Z</time></trkpt><trkpt lat="45.5632329" lon="9.4939913"><ele>153.0</ele><time>2026-04-25T07:02:11.764Z</time></trkpt><trkpt lat="45.563289" lon="9.4941298"><ele>153.0</ele><time>2026-04-25T07:02:12.764Z</time></trkpt><trkpt lat="45.5633439" lon="9.4942707"><ele>153.0</ele><time>2026-04-25T07:02:13.764Z</time></trkpt><trkpt lat="45.5634" lon="9.4944126"><ele>153.0</ele><time>2026-04-25T07:02:14.763Z</time></trkpt><trkpt lat="45.5634583" lon="9.4945532"><ele>153.0</ele><time>2026-04-25T07:02:15.763Z</time></trkpt><trkpt lat="45.563515" lon="9.4946954"><ele>153.0</ele><time>2026-04-25T07:02:16.764Z</time></trkpt><trkpt lat="45.5635696" lon="9.4948402"><ele>153.0</ele><time>2026-04-25T07:02:17.764Z</time></trkpt><trkpt lat="45.563627" lon="9.4949837"><ele>153.0</ele><time>2026-04-25T07:02:18.764Z</time></trkpt><trkpt lat="45.5636855" lon="9.4951316"><ele>153.0</ele><time>2026-04-25T07:02:19.763Z</time></trkpt><trkpt lat="45.5637468" lon="9.4952809"><ele>153.25</ele><time>2026-04-25T07:02:20.764Z</time></trkpt><trkpt lat="45.5638077" lon="9.4954344"><ele>153.5</ele><time>2026-04-25T07:02:21.763Z</time></trkpt><trkpt lat="45.56387" lon="9.4955919"><ele>153.75</ele><time>2026-04-25T07:02:22.763Z</time></trkpt><trkpt lat="45.5639312" lon="9.4957493"><ele>154.0</ele><time>2026-04-25T07:02:23.764Z</time></trkpt><trkpt lat="45.5639954" lon="9.4959035"><ele>154.0</ele><time>2026-04-25T07:02:24.764Z</time></trkpt><trkpt lat="45.5640545" lon="9.4960542"><ele>154.0</ele><time>2026-04-25T07:02:25.764Z</time></trkpt><trkpt lat="45.5641147" lon="9.4962038"><ele>154.0</ele><time>2026-04-25T07:02:26.764Z</time></trkpt><trkpt lat="45.5641723" lon="9.4963542"><ele>154.0</ele><time>2026-04-25T07:02:27.764Z</time></trkpt><trkpt lat="45.5642329" lon="9.4965061"><ele>154.25</ele><time>2026-04-25T07:02:28.763Z</time></trkpt><trkpt lat="45.5642923" lon="9.4966602"><ele>154.5</ele><time>2026-04-25T07:02:29.764Z</time></trkpt><trkpt lat="45.5643531" lon="9.4968216"><ele>154.75</ele><time>2026-04-25T07:02:30.764Z</time></trkpt><trkpt lat="45.5644145" lon="9.4969861"><ele>155.0</ele><time>2026-04-25T07:02:31.764Z</time></trkpt><trkpt lat="45.5644758" lon="9.4971427"><ele>154.25</ele><time>2026-04-25T07:02:32.764Z</time></trkpt><trkpt lat="45.5645352" lon="9.4972964"><ele>153.5</ele><time>2026-04-25T07:02:33.763Z</time></trkpt><trkpt lat="45.564597" lon="9.4974551"><ele>152.75</ele><time>2026-04-25T07:02:34.764Z</time></trkpt><trkpt lat="45.5646592" lon="9.4976168"><ele>152.0</ele><time>2026-04-25T07:02:35.763Z</time></trkpt><trkpt lat="45.5647238" lon="9.4977862"><ele>152.5</ele><time>2026-04-25T07:02:36.763Z</time></trkpt><trkpt lat="45.5647893" lon="9.4979558"><ele>153.0</ele><time>2026-04-25T07:02:37.764Z</time></trkpt><trkpt lat="45.5648539" lon="9.4981225"><ele>153.5</ele><time>2026-04-25T07:02:38.764Z</time></trkpt><trkpt lat="45.56492" lon="9.4982913"><ele>154.0</ele><time>2026-04-25T07:02:39.763Z</time></trkpt><trkpt lat="45.5649841" lon="9.4984579"><ele>154.0</ele><time>2026-04-25T07:02:40.764Z</time></trkpt><trkpt lat="45.5650473" lon="9.4986203"><ele>154.0</ele><time>2026-04-25T07:02:41.764Z</time></trkpt><trkpt lat="45.5651102" lon="9.4987864"><ele>154.0</ele><time>2026-04-25T07:02:42.763Z</time></trkpt><trkpt lat="45.5651744" lon="9.4989514"><ele>154.0</ele><time>2026-04-25T07:02:43.764Z</time></trkpt><trkpt lat="45.5652373" lon="9.4991144"><ele>154.25</ele><time>2026-04-25T07:02:44.764Z</time></trkpt><trkpt lat="45.5653018" lon="9.4992764"><ele>154.5</ele><time>2026-04-25T07:02:45.764Z</time></trkpt><trkpt lat="45.565365" lon="9.4994377"><ele>154.75</ele><time>2026-04-25T07:02:46.763Z</time></trkpt><trkpt lat="45.5654271" lon="9.4995988"><ele>155.0</ele><time>2026-04-25T07:02:47.763Z</time></trkpt><trkpt lat="45.5654927" lon="9.4997633"><ele>155.25</ele><time>2026-04-25T07:02:48.764Z</time></trkpt><trkpt lat="45.565555" lon="9.4999265"><ele>155.5</ele><time>2026-04-25T07:02:49.764Z</time></trkpt><trkpt lat="45.5656199" lon="9.5000952"><ele>155.75</ele><time>2026-04-25T07:02:50.764Z</time></trkpt><trkpt lat="45.5656881" lon="9.5002668"><ele>156.0</ele><time>2026-04-25T07:02:51.763Z</time></trkpt><trkpt lat="45.5657562" lon="9.5004419"><ele>156.0</ele><time>2026-04-25T07:02:52.764Z</time></trkpt><trkpt lat="45.5658234" lon="9.5006206"><ele>156.0</ele><time>2026-04-25T07:02:53.764Z</time></trkpt><trkpt lat="45.5658922" lon="9.5008004"><ele>156.0</ele><time>2026-04-25T07:02:54.764Z</time></trkpt><trkpt lat="45.5659617" lon="9.5009799"><ele>156.0</ele><time>2026-04-25T07:02:55.764Z</time></trkpt><trkpt lat="45.5660322" lon="9.5011613"><ele>155.5</ele><time>2026-04-25T07:02:56.764Z</time></trkpt><trkpt lat="45.5661001" lon="9.5013403"><ele>155.0</ele><time>2026-04-25T07:02:57.764Z</time></trkpt><trkpt lat="45.5661665" lon="9.5015177"><ele>154.5</ele><time>2026-04-25T07:02:58.763Z</time></trkpt><trkpt lat="45.566234" lon="9.5016942"><ele>154.0</ele><time>2026-04-25T07:02:59.764Z</time></trkpt><trkpt lat="45.5663015" lon="9.5018713"><ele>154.25</ele><time>2026-04-25T07:03:00.764Z</time></trkpt><trkpt lat="45.5663693" lon="9.5020452"><ele>154.5</ele><time>2026-04-25T07:03:01.763Z</time></trkpt><trkpt lat="45.5664349" lon="9.5022186"><ele>154.75</ele><time>2026-04-25T07:03:02.763Z</time></trkpt><trkpt lat="45.5664996" lon="9.5023874"><ele>155.0</ele><time>2026-04-25T07:03:03.764Z</time></trkpt><trkpt lat="45.5665659" lon="9.5025563"><ele>155.0</ele><time>2026-04-25T07:03:04.763Z</time></trkpt><trkpt lat="45.5666319" lon="9.5027266"><ele>155.0</ele><time>2026-04-25T07:03:05.763Z</time></trkpt><trkpt lat="45.5666983" lon="9.5028964"><ele>155.0</ele><time>2026-04-25T07:03:06.763Z</time></trkpt><trkpt lat="45.5667651" lon="9.5030676"><ele>155.0</ele><time>2026-04-25T07:03:07.763Z</time></trkpt><trkpt lat="45.5668321" lon="9.5032416"><ele>155.25</ele><time>2026-04-25T07:03:08.764Z</time></trkpt><trkpt lat="45.5669012" lon="9.5034149"><ele>155.5</ele><time>2026-04-25T07:03:09.764Z</time></trkpt><trkpt lat="45.5669706" lon="9.5035909"><ele>155.75</ele><time>2026-04-25T07:03:10.764Z</time></trkpt><trkpt lat="45.5670416" lon="9.5037696"><ele>156.0</ele><time>2026-04-25T07:03:11.764Z</time></trkpt><trkpt lat="45.5671107" lon="9.5039445"><ele>155.75</ele><time>2026-04-25T07:03:12.763Z</time></trkpt><trkpt lat="45.5671809" lon="9.5041184"><ele>155.5</ele><time>2026-04-25T07:03:13.764Z</time></trkpt><trkpt lat="45.5672491" lon="9.5042922"><ele>155.25</ele><time>2026-04-25T07:03:14.764Z</time></trkpt><trkpt lat="45.5673167" lon="9.5044686"><ele>155.0</ele><time>2026-04-25T07:03:15.763Z</time></trkpt><trkpt lat="45.5673835" lon="9.5046471"><ele>155.0</ele><time>2026-04-25T07:03:16.763Z</time></trkpt><trkpt lat="45.5674549" lon="9.5048311"><ele>155.0</ele><time>2026-04-25T07:03:17.763Z</time></trkpt><trkpt lat="45.567524" lon="9.5050118"><ele>155.0</ele><time>2026-04-25T07:03:18.763Z</time></trkpt><trkpt lat="45.5676066" lon="9.5052263"><ele>154.5</ele><time>2026-04-25T07:03:19.764Z</time></trkpt><trkpt lat="45.5677066" lon="9.5054867"><ele>154.0</ele><time>2026-04-25T07:03:20.764Z</time></trkpt><trkpt lat="45.5678251" lon="9.5057939"><ele>154.5</ele><time>2026-04-25T07:03:21.764Z</time></trkpt><trkpt lat="45.5679563" lon="9.506149"><ele>155.0</ele><time>2026-04-25T07:03:22.763Z</time></trkpt><trkpt lat="45.5680797" lon="9.5064792"><ele>156.0</ele><time>2026-04-25T07:03:23.763Z</time></trkpt><trkpt lat="45.568193" lon="9.5067799"><ele>157.0</ele><time>2026-04-25T07:03:24.763Z</time></trkpt><trkpt lat="45.568299" lon="9.5070542"><ele>157.33333333333334</ele><time>2026-04-25T07:03:25.763Z</time></trkpt><trkpt lat="45.5683957" lon="9.5073104"><ele>157.66666666666666</ele><time>2026-04-25T07:03:26.763Z</time></trkpt><trkpt lat="45.568483" lon="9.5075439"><ele>158.0</ele><time>2026-04-25T07:03:27.763Z</time></trkpt><trkpt lat="45.5685672" lon="9.5077635"><ele>158.0</ele><time>2026-04-25T07:03:28.763Z</time></trkpt><trkpt lat="45.5686451" lon="9.507971"><ele>158.0</ele><time>2026-04-25T07:03:29.764Z</time></trkpt><trkpt lat="45.5687207" lon="9.5081709"><ele>158.0</ele><time>2026-04-25T07:03:30.764Z</time></trkpt><trkpt lat="45.568795" lon="9.5083639"><ele>158.0</ele><time>2026-04-25T07:03:31.764Z</time></trkpt><trkpt lat="45.5688691" lon="9.5085536"><ele>158.0</ele><time>2026-04-25T07:03:32.763Z</time></trkpt><trkpt lat="45.5689407" lon="9.5087383"><ele>158.0</ele><time>2026-04-25T07:03:33.764Z</time></trkpt><trkpt lat="45.5690115" lon="9.5089211"><ele>158.0</ele><time>2026-04-25T07:03:34.764Z</time></trkpt><trkpt lat="45.5690807" lon="9.5091022"><ele>158.0</ele><time>2026-04-25T07:03:35.763Z</time></trkpt><trkpt lat="45.5691504" lon="9.5092835"><ele>158.0</ele><time>2026-04-25T07:03:36.764Z</time></trkpt><trkpt lat="45.569218" lon="9.5094669"><ele>158.0</ele><time>2026-04-25T07:03:37.764Z</time></trkpt><trkpt lat="45.5692862" lon="9.5096471"><ele>158.0</ele><time>2026-04-25T07:03:38.764Z</time></trkpt><trkpt lat="45.5693538" lon="9.5098297"><ele>157.75</ele><time>2026-04-25T07:03:39.764Z</time></trkpt><trkpt lat="45.5694213" lon="9.5100111"><ele>157.5</ele><time>2026-04-25T07:03:40.764Z</time></trkpt><trkpt lat="45.5694923" lon="9.5101956"><ele>157.25</ele><time>2026-04-25T07:03:41.763Z</time></trkpt><trkpt lat="45.5695625" lon="9.5103798"><ele>157.0</ele><time>2026-04-25T07:03:42.764Z</time></trkpt><trkpt lat="45.5696316" lon="9.5105647"><ele>157.0</ele><time>2026-04-25T07:03:43.764Z</time></trkpt><trkpt lat="45.5697028" lon="9.5107482"><ele>157.0</ele><time>2026-04-25T07:03:44.764Z</time></trkpt><trkpt lat="45.5697746" lon="9.5109335"><ele>157.0</ele><time>2026-04-25T07:03:45.764Z</time></trkpt><trkpt lat="45.5698469" lon="9.5111194"><ele>157.0</ele><time>2026-04-25T07:03:46.764Z</time></trkpt><trkpt lat="45.5699186" lon="9.5113078"><ele>156.75</ele><time>2026-04-25T07:03:47.763Z</time></trkpt><trkpt lat="45.569992" lon="9.5114969"><ele>156.5</ele><time>2026-04-25T07:03:48.764Z</time></trkpt><trkpt lat="45.570061" lon="9.5116848"><ele>156.25</ele><time>2026-04-25T07:03:49.764Z</time></trkpt><trkpt lat="45.5701311" lon="9.5118735"><ele>156.0</ele><time>2026-04-25T07:03:50.763Z</time></trkpt><trkpt lat="45.5702002" lon="9.5120618"><ele>156.0</ele><time>2026-04-25T07:03:51.764Z</time></trkpt><trkpt lat="45.5702728" lon="9.5122474"><ele>156.0</ele><time>2026-04-25T07:03:52.763Z</time></trkpt><trkpt lat="45.570344" lon="9.5124324"><ele>156.0</ele><time>2026-04-25T07:03:53.764Z</time></trkpt><trkpt lat="45.570415" lon="9.5126162"><ele>156.0</ele><time>2026-04-25T07:03:54.764Z</time></trkpt><trkpt lat="45.5704854" lon="9.5128033"><ele>156.75</ele><time>2026-04-25T07:03:55.763Z</time></trkpt><trkpt lat="45.5705554" lon="9.5129862"><ele>157.5</ele><time>2026-04-25T07:03:56.764Z</time></trkpt><trkpt lat="45.5706274" lon="9.5131718"><ele>158.25</ele><time>2026-04-25T07:03:57.763Z</time></trkpt><trkpt lat="45.5706999" lon="9.5133569"><ele>159.0</ele><time>2026-04-25T07:03:58.764Z</time></trkpt><trkpt lat="45.5707719" lon="9.5135457"><ele>159.0</ele><time>2026-04-25T07:03:59.763Z</time></trkpt><trkpt lat="45.570843" lon="9.5137337"><ele>159.0</ele><time>2026-04-25T07:04:00.764Z</time></trkpt><trkpt lat="45.5709169" lon="9.5139191"><ele>159.0</ele><time>2026-04-25T07:04:01.763Z</time></trkpt><trkpt lat="45.5709901" lon="9.5141061"><ele>159.0</ele><time>2026-04-25T07:04:02.764Z</time></trkpt><trkpt lat="45.5710636" lon="9.5142911"><ele>159.33333333333334</ele><time>2026-04-25T07:04:03.764Z</time></trkpt><trkpt lat="45.5711395" lon="9.5144771"><ele>159.66666666666669</ele><time>2026-04-25T07:04:04.764Z</time></trkpt><trkpt lat="45.5712171" lon="9.5146667"><ele>160.0</ele><time>2026-04-25T07:04:05.764Z</time></trkpt><trkpt lat="45.5712897" lon="9.5148581"><ele>160.0</ele><time>2026-04-25T07:04:06.763Z</time></trkpt><trkpt lat="45.5713575" lon="9.5150496"><ele>160.0</ele><time>2026-04-25T07:04:07.764Z</time></trkpt><trkpt lat="45.5714222" lon="9.5152277"><ele>160.0</ele><time>2026-04-25T07:04:08.764Z</time></trkpt><trkpt lat="45.5714859" lon="9.5153965"><ele>160.0</ele><time>2026-04-25T07:04:09.763Z</time></trkpt><trkpt lat="45.5715482" lon="9.5155584"><ele>159.5</ele><time>2026-04-25T07:04:10.763Z</time></trkpt><trkpt lat="45.5716093" lon="9.515719"><ele>159.0</ele><time>2026-04-25T07:04:11.763Z</time></trkpt><trkpt lat="45.571669" lon="9.515876"><ele>158.5</ele><time>2026-04-25T07:04:12.763Z</time></trkpt><trkpt lat="45.5717263" lon="9.5160334"><ele>158.0</ele><time>2026-04-25T07:04:13.764Z</time></trkpt><trkpt lat="45.5717821" lon="9.5161871"><ele>158.20000000000002</ele><time>2026-04-25T07:04:14.764Z</time></trkpt><trkpt lat="45.5718339" lon="9.5163338"><ele>158.4</ele><time>2026-04-25T07:04:15.764Z</time></trkpt><trkpt lat="45.5718781" lon="9.5164774"><ele>158.60000000000002</ele><time>2026-04-25T07:04:16.764Z</time></trkpt><trkpt lat="45.5719073" lon="9.5166299"><ele>158.8</ele><time>2026-04-25T07:04:17.764Z</time></trkpt><trkpt lat="45.5719304" lon="9.5167843"><ele>159.0</ele><time>2026-04-25T07:04:18.763Z</time></trkpt><trkpt lat="45.5719803" lon="9.5169272"><ele>159.5</ele><time>2026-04-25T07:04:19.764Z</time></trkpt><trkpt lat="45.5720531" lon="9.5170515"><ele>160.0</ele><time>2026-04-25T07:04:20.764Z</time></trkpt><trkpt lat="45.5721265" lon="9.5171749"><ele>160.5</ele><time>2026-04-25T07:04:21.764Z</time></trkpt><trkpt lat="45.5721919" lon="9.5173083"><ele>161.0</ele><time>2026-04-25T07:04:22.764Z</time></trkpt><trkpt lat="45.5722509" lon="9.5174478"><ele>161.0</ele><time>2026-04-25T07:04:23.764Z</time></trkpt><trkpt lat="45.5723077" lon="9.5175887"><ele>161.0</ele><time>2026-04-25T07:04:24.764Z</time></trkpt><trkpt lat="45.5723645" lon="9.5177302"><ele>161.0</ele><time>2026-04-25T07:04:25.763Z</time></trkpt><trkpt lat="45.5724174" lon="9.5178734"><ele>161.0</ele><time>2026-04-25T07:04:26.763Z</time></trkpt><trkpt lat="45.5724717" lon="9.5180181"><ele>160.75</ele><time>2026-04-25T07:04:27.763Z</time></trkpt><trkpt lat="45.572528" lon="9.5181645"><ele>160.5</ele><time>2026-04-25T07:04:28.763Z</time></trkpt><trkpt lat="45.5725844" lon="9.5183115"><ele>160.25</ele><time>2026-04-25T07:04:29.764Z</time></trkpt><trkpt lat="45.5726405" lon="9.5184589"><ele>160.0</ele><time>2026-04-25T07:04:30.763Z</time></trkpt><trkpt lat="45.5726949" lon="9.5186056"><ele>159.8</ele><time>2026-04-25T07:04:31.764Z</time></trkpt><trkpt lat="45.5727491" lon="9.5187475"><ele>159.6</ele><time>2026-04-25T07:04:32.764Z</time></trkpt><trkpt lat="45.5728034" lon="9.5188886"><ele>159.4</ele><time>2026-04-25T07:04:33.763Z</time></trkpt><trkpt lat="45.572855" lon="9.5190251"><ele>159.2</ele><time>2026-04-25T07:04:34.764Z</time></trkpt><trkpt lat="45.5729031" lon="9.519166"><ele>159.0</ele><time>2026-04-25T07:04:35.763Z</time></trkpt><trkpt lat="45.572947" lon="9.5193066"><ele>159.33333333333334</ele><time>2026-04-25T07:04:36.763Z</time></trkpt><trkpt lat="45.5729847" lon="9.5194416"><ele>159.66666666666666</ele><time>2026-04-25T07:04:37.764Z</time></trkpt><trkpt lat="45.5730174" lon="9.51957"><ele>160.0</ele><time>2026-04-25T07:04:38.764Z</time></trkpt><trkpt lat="45.5730417" lon="9.5196871"><ele>160.33333333333331</ele><time>2026-04-25T07:04:39.764Z</time></trkpt><trkpt lat="45.5730455" lon="9.5197796"><ele>160.66666666666666</ele><time>2026-04-25T07:04:40.764Z</time></trkpt><trkpt lat="45.5730266" lon="9.5198742"><ele>161.0</ele><time>2026-04-25T07:04:42.763Z</time></trkpt><trkpt lat="45.5729827" lon="9.5199785"><ele>161.0</ele><time>2026-04-25T07:04:47.763Z</time></trkpt><trkpt lat="45.5729348" lon="9.5201535"><ele>161.0</ele><time>2026-04-25T07:04:49.764Z</time></trkpt><trkpt lat="45.5729189" lon="9.5202682"><ele>161.0</ele><time>2026-04-25T07:04:50.763Z</time></trkpt><trkpt lat="45.5729229" lon="9.5203912"><ele>161.0</ele><time>2026-04-25T07:04:51.763Z</time></trkpt><trkpt lat="45.5729548" lon="9.5205097"><ele>161.0</ele><time>2026-04-25T07:04:52.764Z</time></trkpt><trkpt lat="45.5730151" lon="9.5206042"><ele>161.0</ele><time>2026-04-25T07:04:53.763Z</time></trkpt><trkpt lat="45.5730968" lon="9.5206607"><ele>161.0</ele><time>2026-04-25T07:04:54.764Z</time></trkpt><trkpt lat="45.573183" lon="9.5206867"><ele>161.0</ele><time>2026-04-25T07:04:55.764Z</time></trkpt><trkpt lat="45.5732575" lon="9.5206934"><ele>161.0</ele><time>2026-04-25T07:04:56.764Z</time></trkpt><trkpt lat="45.5733218" lon="9.5207032"><ele>161.0</ele><time>2026-04-25T07:04:58.763Z</time></trkpt><trkpt lat="45.5734268" lon="9.520746"><ele>161.0</ele><time>2026-04-25T07:05:05.764Z</time></trkpt><trkpt lat="45.5734816" lon="9.5207966"><ele>161.0</ele><time>2026-04-25T07:05:06.763Z</time></trkpt><trkpt lat="45.5735321" lon="9.5208683"><ele>161.0</ele><time>2026-04-25T07:05:07.764Z</time></trkpt><trkpt lat="45.5735788" lon="9.5209632"><ele>161.0</ele><time>2026-04-25T07:05:08.764Z</time></trkpt><trkpt lat="45.5736295" lon="9.5210795"><ele>161.0</ele><time>2026-04-25T07:05:09.763Z</time></trkpt><trkpt lat="45.5736798" lon="9.5212007"><ele>161.0</ele><time>2026-04-25T07:05:10.763Z</time></trkpt><trkpt lat="45.5737308" lon="9.5213259"><ele>161.0</ele><time>2026-04-25T07:05:11.764Z</time></trkpt><trkpt lat="45.5737851" lon="9.5214599"><ele>161.75</ele><time>2026-04-25T07:05:12.764Z</time></trkpt><trkpt lat="45.5738376" lon="9.5216014"><ele>162.5</ele><time>2026-04-25T07:05:13.764Z</time></trkpt><trkpt lat="45.5738914" lon="9.5217497"><ele>163.25</ele><time>2026-04-25T07:05:14.763Z</time></trkpt><trkpt lat="45.5739477" lon="9.5218969"><ele>164.0</ele><time>2026-04-25T07:05:15.764Z</time></trkpt><trkpt lat="45.5740018" lon="9.522047"><ele>163.75</ele><time>2026-04-25T07:05:16.764Z</time></trkpt><trkpt lat="45.5740549" lon="9.5221956"><ele>163.5</ele><time>2026-04-25T07:05:17.763Z</time></trkpt><trkpt lat="45.5741086" lon="9.5223465"><ele>163.25</ele><time>2026-04-25T07:05:18.763Z</time></trkpt><trkpt lat="45.5741613" lon="9.522498"><ele>163.0</ele><time>2026-04-25T07:05:19.764Z</time></trkpt><trkpt lat="45.5742149" lon="9.5226511"><ele>163.0</ele><time>2026-04-25T07:05:20.764Z</time></trkpt><trkpt lat="45.5742701" lon="9.5228059"><ele>163.0</ele><time>2026-04-25T07:05:21.763Z</time></trkpt><trkpt lat="45.5743301" lon="9.5229556"><ele>163.0</ele><time>2026-04-25T07:05:22.764Z</time></trkpt><trkpt lat="45.5743913" lon="9.5231109"><ele>163.0</ele><time>2026-04-25T07:05:23.763Z</time></trkpt><trkpt lat="45.5744526" lon="9.5232693"><ele>163.0</ele><time>2026-04-25T07:05:24.764Z</time></trkpt><trkpt lat="45.5745136" lon="9.5234287"><ele>163.0</ele><time>2026-04-25T07:05:25.763Z</time></trkpt><trkpt lat="45.5745744" lon="9.5235875"><ele>163.0</ele><time>2026-04-25T07:05:26.764Z</time></trkpt><trkpt lat="45.5746337" lon="9.5237466"><ele>163.0</ele><time>2026-04-25T07:05:27.763Z</time></trkpt><trkpt lat="45.5746945" lon="9.5239029"><ele>163.0</ele><time>2026-04-25T07:05:28.764Z</time></trkpt><trkpt lat="45.574754" lon="9.5240584"><ele>163.0</ele><time>2026-04-25T07:05:29.764Z</time></trkpt><trkpt lat="45.5748109" lon="9.5242065"><ele>163.0</ele><time>2026-04-25T07:05:30.763Z</time></trkpt><trkpt lat="45.5748662" lon="9.5243447"><ele>163.0</ele><time>2026-04-25T07:05:31.764Z</time></trkpt><trkpt lat="45.5749166" lon="9.5244734"><ele>162.83333333333334</ele><time>2026-04-25T07:05:32.764Z</time></trkpt><trkpt lat="45.5749618" lon="9.5245949"><ele>162.66666666666669</ele><time>2026-04-25T07:05:33.763Z</time></trkpt><trkpt lat="45.5750051" lon="9.5247084"><ele>162.5</ele><time>2026-04-25T07:05:34.764Z</time></trkpt><trkpt lat="45.5750446" lon="9.52481"><ele>162.33333333333334</ele><time>2026-04-25T07:05:35.764Z</time></trkpt><trkpt lat="45.5750766" lon="9.5248971"><ele>162.16666666666666</ele><time>2026-04-25T07:05:36.764Z</time></trkpt><trkpt lat="45.5751002" lon="9.5249893"><ele>162.0</ele><time>2026-04-25T07:05:37.763Z</time></trkpt><trkpt lat="45.575109" lon="9.5250887"><ele>162.0</ele><time>2026-04-25T07:05:38.764Z</time></trkpt><trkpt lat="45.5751134" lon="9.5251885"><ele>162.0</ele><time>2026-04-25T07:05:39.764Z</time></trkpt><trkpt lat="45.5751311" lon="9.5252841"><ele>162.0</ele><time>2026-04-25T07:05:40.764Z</time></trkpt><trkpt lat="45.5751735" lon="9.5253644"><ele>162.0</ele><time>2026-04-25T07:05:41.764Z</time></trkpt><trkpt lat="45.575235" lon="9.5254352"><ele>162.0</ele><time>2026-04-25T07:05:42.764Z</time></trkpt><trkpt lat="45.5753036" lon="9.5255184"><ele>162.0</ele><time>2026-04-25T07:05:43.764Z</time></trkpt><trkpt lat="45.5753566" lon="9.5256258"><ele>161.6</ele><time>2026-04-25T07:05:44.764Z</time></trkpt><trkpt lat="45.5754011" lon="9.525741"><ele>161.2</ele><time>2026-04-25T07:05:45.763Z</time></trkpt><trkpt lat="45.5754477" lon="9.5258631"><ele>160.8</ele><time>2026-04-25T07:05:46.764Z</time></trkpt><trkpt lat="45.5754954" lon="9.5259912"><ele>160.4</ele><time>2026-04-25T07:05:47.763Z</time></trkpt><trkpt lat="45.5755441" lon="9.5261245"><ele>160.0</ele><time>2026-04-25T07:05:48.763Z</time></trkpt><trkpt lat="45.5755946" lon="9.5262598"><ele>160.0</ele><time>2026-04-25T07:05:49.763Z</time></trkpt><trkpt lat="45.5756449" lon="9.5263912"><ele>160.0</ele><time>2026-04-25T07:05:50.764Z</time></trkpt><trkpt lat="45.5756933" lon="9.5265202"><ele>160.0</ele><time>2026-04-25T07:05:51.764Z</time></trkpt><trkpt lat="45.5757424" lon="9.5266465"><ele>160.0</ele><time>2026-04-25T07:05:52.764Z</time></trkpt><trkpt lat="45.5757914" lon="9.5267742"><ele>160.0</ele><time>2026-04-25T07:05:53.763Z</time></trkpt><trkpt lat="45.5758397" lon="9.5269024"><ele>160.0</ele><time>2026-04-25T07:05:54.764Z</time></trkpt><trkpt lat="45.575889" lon="9.5270316"><ele>160.0</ele><time>2026-04-25T07:05:55.763Z</time></trkpt><trkpt lat="45.5759398" lon="9.5271628"><ele>160.0</ele><time>2026-04-25T07:05:56.763Z</time></trkpt><trkpt lat="45.5759911" lon="9.5272926"><ele>160.0</ele><time>2026-04-25T07:05:57.764Z</time></trkpt><trkpt lat="45.5760419" lon="9.5274217"><ele>160.0</ele><time>2026-04-25T07:05:58.763Z</time></trkpt><trkpt lat="45.5760914" lon="9.5275535"><ele>160.0</ele><time>2026-04-25T07:05:59.764Z</time></trkpt><trkpt lat="45.5761406" lon="9.5276867"><ele>160.0</ele><time>2026-04-25T07:06:00.763Z</time></trkpt><trkpt lat="45.5761912" lon="9.5278214"><ele>160.0</ele><time>2026-04-25T07:06:01.763Z</time></trkpt><trkpt lat="45.5762441" lon="9.5279559"><ele>160.0</ele><time>2026-04-25T07:06:02.764Z</time></trkpt><trkpt lat="45.5762954" lon="9.5280884"><ele>160.0</ele><time>2026-04-25T07:06:03.763Z</time></trkpt><trkpt lat="45.5763475" lon="9.5282201"><ele>160.2</ele><time>2026-04-25T07:06:04.763Z</time></trkpt><trkpt lat="45.5763975" lon="9.5283502"><ele>160.4</ele><time>2026-04-25T07:06:05.764Z</time></trkpt><trkpt lat="45.5764492" lon="9.528476"><ele>160.60000000000002</ele><time>2026-04-25T07:06:06.764Z</time></trkpt><trkpt lat="45.5765009" lon="9.5286023"><ele>160.8</ele><time>2026-04-25T07:06:07.764Z</time></trkpt><trkpt lat="45.5765517" lon="9.5287233"><ele>161.0</ele><time>2026-04-25T07:06:08.764Z</time></trkpt><trkpt lat="45.5765988" lon="9.5288369"><ele>161.16666666666666</ele><time>2026-04-25T07:06:09.763Z</time></trkpt><trkpt lat="45.5766436" lon="9.5289423"><ele>161.33333333333331</ele><time>2026-04-25T07:06:10.764Z</time></trkpt><trkpt lat="45.5766855" lon="9.5290472"><ele>161.5</ele><time>2026-04-25T07:06:11.763Z</time></trkpt><trkpt lat="45.5767169" lon="9.5291606"><ele>161.66666666666666</ele><time>2026-04-25T07:06:12.764Z</time></trkpt><trkpt lat="45.5767235" lon="9.5292783"><ele>161.83333333333334</ele><time>2026-04-25T07:06:13.763Z</time></trkpt><trkpt lat="45.576714" lon="9.5293922"><ele>162.0</ele><time>2026-04-25T07:06:14.764Z</time></trkpt><trkpt lat="45.5766962" lon="9.52951"><ele>162.16666666666666</ele><time>2026-04-25T07:06:15.763Z</time></trkpt><trkpt lat="45.5766787" lon="9.5296284"><ele>162.33333333333334</ele><time>2026-04-25T07:06:16.763Z</time></trkpt><trkpt lat="45.5766976" lon="9.5297384"><ele>162.5</ele><time>2026-04-25T07:06:17.764Z</time></trkpt><trkpt lat="45.5767401" lon="9.5298303"><ele>162.66666666666669</ele><time>2026-04-25T07:06:18.764Z</time></trkpt><trkpt lat="45.576803" lon="9.5299047"><ele>162.83333333333334</ele><time>2026-04-25T07:06:19.764Z</time></trkpt><trkpt lat="45.5768717" lon="9.5299777"><ele>163.0</ele><time>2026-04-25T07:06:20.764Z</time></trkpt><trkpt lat="45.5769424" lon="9.5300545"><ele>163.0</ele><time>2026-04-25T07:06:21.764Z</time></trkpt><trkpt lat="45.5770154" lon="9.5301334"><ele>163.0</ele><time>2026-04-25T07:06:22.764Z</time></trkpt><trkpt lat="45.5770925" lon="9.5302138"><ele>163.0</ele><time>2026-04-25T07:06:23.764Z</time></trkpt><trkpt lat="45.5771721" lon="9.5302973"><ele>163.0</ele><time>2026-04-25T07:06:24.763Z</time></trkpt><trkpt lat="45.577256" lon="9.5303846"><ele>163.0</ele><time>2026-04-25T07:06:25.763Z</time></trkpt><trkpt lat="45.5773439" lon="9.5304774"><ele>162.60000000000002</ele><time>2026-04-25T07:06:26.764Z</time></trkpt><trkpt lat="45.5774337" lon="9.5305718"><ele>162.20000000000002</ele><time>2026-04-25T07:06:27.764Z</time></trkpt><trkpt lat="45.5775229" lon="9.5306648"><ele>161.8</ele><time>2026-04-25T07:06:28.764Z</time></trkpt><trkpt lat="45.577613" lon="9.5307595"><ele>161.4</ele><time>2026-04-25T07:06:29.763Z</time></trkpt><trkpt lat="45.5777042" lon="9.5308547"><ele>161.0</ele><time>2026-04-25T07:06:30.763Z</time></trkpt><trkpt lat="45.5777938" lon="9.5309518"><ele>161.20000000000002</ele><time>2026-04-25T07:06:31.764Z</time></trkpt><trkpt lat="45.5778837" lon="9.5310486"><ele>161.4</ele><time>2026-04-25T07:06:32.764Z</time></trkpt><trkpt lat="45.5779703" lon="9.5311395"><ele>161.6</ele><time>2026-04-25T07:06:33.764Z</time></trkpt><trkpt lat="45.5780566" lon="9.5312291"><ele>161.8</ele><time>2026-04-25T07:06:34.764Z</time></trkpt><trkpt lat="45.5781431" lon="9.531317"><ele>162.0</ele><time>2026-04-25T07:06:35.763Z</time></trkpt><trkpt lat="45.578227" lon="9.5314059"><ele>162.0</ele><time>2026-04-25T07:06:36.764Z</time></trkpt><trkpt lat="45.578309" lon="9.5314961"><ele>162.0</ele><time>2026-04-25T07:06:37.763Z</time></trkpt><trkpt lat="45.5783915" lon="9.5315845"><ele>162.0</ele><time>2026-04-25T07:06:38.764Z</time></trkpt><trkpt lat="45.5784735" lon="9.5316734"><ele>162.0</ele><time>2026-04-25T07:06:39.764Z</time></trkpt><trkpt lat="45.5785535" lon="9.5317589"><ele>162.0</ele><time>2026-04-25T07:06:40.763Z</time></trkpt><trkpt lat="45.5786322" lon="9.5318388"><ele>162.0</ele><time>2026-04-25T07:06:41.764Z</time></trkpt><trkpt lat="45.5786996" lon="9.5319224"><ele>162.0</ele><time>2026-04-25T07:06:42.763Z</time></trkpt><trkpt lat="45.5787487" lon="9.5320212"><ele>162.0</ele><time>2026-04-25T07:06:43.764Z</time></trkpt><trkpt lat="45.5787786" lon="9.5321342"><ele>162.0</ele><time>2026-04-25T07:06:44.763Z</time></trkpt><trkpt lat="45.5787894" lon="9.5322572"><ele>162.0</ele><time>2026-04-25T07:06:45.764Z</time></trkpt><trkpt lat="45.5787962" lon="9.5323861"><ele>162.0</ele><time>2026-04-25T07:06:46.763Z</time></trkpt><trkpt lat="45.5788039" lon="9.5325172"><ele>162.0</ele><time>2026-04-25T07:06:47.763Z</time></trkpt><trkpt lat="45.5788136" lon="9.5326523"><ele>162.0</ele><time>2026-04-25T07:06:48.763Z</time></trkpt><trkpt lat="45.5788254" lon="9.5327868"><ele>162.0</ele><time>2026-04-25T07:06:49.763Z</time></trkpt><trkpt lat="45.5788321" lon="9.5329252"><ele>162.0</ele><time>2026-04-25T07:06:50.764Z</time></trkpt><trkpt lat="45.5788346" lon="9.5330667"><ele>162.0</ele><time>2026-04-25T07:06:51.764Z</time></trkpt><trkpt lat="45.5788275" lon="9.5332057"><ele>161.4</ele><time>2026-04-25T07:06:52.764Z</time></trkpt><trkpt lat="45.5788099" lon="9.5333255"><ele>160.79999999999998</ele><time>2026-04-25T07:06:53.764Z</time></trkpt><trkpt lat="45.5787864" lon="9.5334273"><ele>160.2</ele><time>2026-04-25T07:06:54.764Z</time></trkpt><trkpt lat="45.5787968" lon="9.533598"><ele>159.6</ele><time>2026-04-25T07:06:56.764Z</time></trkpt><trkpt lat="45.578905" lon="9.5337053"><ele>159.0</ele><time>2026-04-25T07:06:58.763Z</time></trkpt><trkpt lat="45.5789829" lon="9.5337336"><ele>157.6</ele><time>2026-04-25T07:06:59.763Z</time></trkpt><trkpt lat="45.5790699" lon="9.5337611"><ele>156.2</ele><time>2026-04-25T07:07:00.763Z</time></trkpt><trkpt lat="45.5791659" lon="9.5337934"><ele>154.79999999999998</ele><time>2026-04-25T07:07:01.763Z</time></trkpt><trkpt lat="45.5792733" lon="9.5338328"><ele>153.4</ele><time>2026-04-25T07:07:02.763Z</time></trkpt><trkpt lat="45.5793866" lon="9.5338676"><ele>152.0</ele><time>2026-04-25T07:07:03.764Z</time></trkpt><trkpt lat="45.579499" lon="9.5338999"><ele>153.4</ele><time>2026-04-25T07:07:04.764Z</time></trkpt><trkpt lat="45.5795974" lon="9.5339438"><ele>154.79999999999998</ele><time>2026-04-25T07:07:05.764Z</time></trkpt><trkpt lat="45.5796634" lon="9.5340439"><ele>156.2</ele><time>2026-04-25T07:07:06.763Z</time></trkpt><trkpt lat="45.5796866" lon="9.5341662"><ele>157.6</ele><time>2026-04-25T07:07:07.763Z</time></trkpt><trkpt lat="45.5796641" lon="9.5342827"><ele>159.0</ele><time>2026-04-25T07:07:08.763Z</time></trkpt><trkpt lat="45.5796203" lon="9.5343741"><ele>159.0</ele><time>2026-04-25T07:07:09.764Z</time></trkpt><trkpt lat="45.5795491" lon="9.5344197"><ele>159.0</ele><time>2026-04-25T07:07:10.763Z</time></trkpt><trkpt lat="45.5794565" lon="9.5344371"><ele>159.0</ele><time>2026-04-25T07:07:11.764Z</time></trkpt><trkpt lat="45.5793446" lon="9.5344526"><ele>159.0</ele><time>2026-04-25T07:07:12.764Z</time></trkpt><trkpt lat="45.5792219" lon="9.5344633"><ele>159.0</ele><time>2026-04-25T07:07:13.764Z</time></trkpt><trkpt lat="45.5790936" lon="9.5344764"><ele>157.25</ele><time>2026-04-25T07:07:14.764Z</time></trkpt><trkpt lat="45.5789606" lon="9.5344893"><ele>155.5</ele><time>2026-04-25T07:07:15.764Z</time></trkpt><trkpt lat="45.5788274" lon="9.5345006"><ele>153.75</ele><time>2026-04-25T07:07:16.764Z</time></trkpt><trkpt lat="45.5786918" lon="9.5345143"><ele>152.0</ele><time>2026-04-25T07:07:17.764Z</time></trkpt><trkpt lat="45.5785632" lon="9.5345249"><ele>151.79999999999998</ele><time>2026-04-25T07:07:18.764Z</time></trkpt><trkpt lat="45.5784417" lon="9.5345234"><ele>151.6</ele><time>2026-04-25T07:07:19.764Z</time></trkpt><trkpt lat="45.5783297" lon="9.5344987"><ele>151.39999999999998</ele><time>2026-04-25T07:07:20.764Z</time></trkpt><trkpt lat="45.5782235" lon="9.5344779"><ele>151.2</ele><time>2026-04-25T07:07:21.763Z</time></trkpt><trkpt lat="45.5781212" lon="9.5345176"><ele>151.0</ele><time>2026-04-25T07:07:22.763Z</time></trkpt><trkpt lat="45.578029" lon="9.5345861"><ele>149.75</ele><time>2026-04-25T07:07:23.764Z</time></trkpt><trkpt lat="45.5779232" lon="9.5346273"><ele>148.5</ele><time>2026-04-25T07:07:24.764Z</time></trkpt><trkpt lat="45.577795" lon="9.534609"><ele>147.25</ele><time>2026-04-25T07:07:25.764Z</time></trkpt><trkpt lat="45.5776707" lon="9.5345682"><ele>146.0</ele><time>2026-04-25T07:07:26.764Z</time></trkpt><trkpt lat="45.5775525" lon="9.5345254"><ele>146.0</ele><time>2026-04-25T07:07:27.764Z</time></trkpt><trkpt lat="45.5774508" lon="9.5344718"><ele>146.0</ele><time>2026-04-25T07:07:28.763Z</time></trkpt><trkpt lat="45.5773634" lon="9.5344241"><ele>146.0</ele><time>2026-04-25T07:07:29.764Z</time></trkpt><trkpt lat="45.5772841" lon="9.534401"><ele>146.0</ele><time>2026-04-25T07:07:30.764Z</time></trkpt><trkpt lat="45.5772077" lon="9.5344159"><ele>146.0</ele><time>2026-04-25T07:07:31.764Z</time></trkpt><trkpt lat="45.5771633" lon="9.5345156"><ele>146.0</ele><time>2026-04-25T07:07:32.764Z</time></trkpt><trkpt lat="45.5771293" lon="9.5346335"><ele>142.5</ele><time>2026-04-25T07:07:33.763Z</time></trkpt><trkpt lat="45.577123" lon="9.5347916"><ele>139.0</ele><time>2026-04-25T07:07:34.763Z</time></trkpt><trkpt lat="45.5771062" lon="9.5349483"><ele>135.5</ele><time>2026-04-25T07:07:35.764Z</time></trkpt><trkpt lat="45.5770909" lon="9.5351093"><ele>132.0</ele><time>2026-04-25T07:07:36.764Z</time></trkpt><trkpt lat="45.5770767" lon="9.5352788"><ele>132.75</ele><time>2026-04-25T07:07:37.764Z</time></trkpt><trkpt lat="45.5770623" lon="9.5354576"><ele>133.5</ele><time>2026-04-25T07:07:38.763Z</time></trkpt><trkpt lat="45.5770505" lon="9.5356398"><ele>134.25</ele><time>2026-04-25T07:07:39.764Z</time></trkpt><trkpt lat="45.5770359" lon="9.5358212"><ele>135.0</ele><time>2026-04-25T07:07:40.763Z</time></trkpt><trkpt lat="45.5770214" lon="9.5359961"><ele>135.0</ele><time>2026-04-25T07:07:41.763Z</time></trkpt><trkpt lat="45.5770065" lon="9.5361637"><ele>135.0</ele><time>2026-04-25T07:07:42.763Z</time></trkpt><trkpt lat="45.5769891" lon="9.5363231"><ele>135.0</ele><time>2026-04-25T07:07:43.763Z</time></trkpt><trkpt lat="45.5769739" lon="9.5364752"><ele>135.0</ele><time>2026-04-25T07:07:44.764Z</time></trkpt><trkpt lat="45.5769611" lon="9.5366204"><ele>135.0</ele><time>2026-04-25T07:07:45.763Z</time></trkpt><trkpt lat="45.5769468" lon="9.5367647"><ele>135.8</ele><time>2026-04-25T07:07:46.764Z</time></trkpt><trkpt lat="45.5769352" lon="9.5369074"><ele>136.6</ele><time>2026-04-25T07:07:47.763Z</time></trkpt><trkpt lat="45.5769224" lon="9.537049"><ele>137.4</ele><time>2026-04-25T07:07:48.764Z</time></trkpt><trkpt lat="45.5769127" lon="9.5371884"><ele>138.2</ele><time>2026-04-25T07:07:49.764Z</time></trkpt><trkpt lat="45.5769054" lon="9.5373266"><ele>139.0</ele><time>2026-04-25T07:07:50.763Z</time></trkpt><trkpt lat="45.576904" lon="9.5374556"><ele>139.0</ele><time>2026-04-25T07:07:51.764Z</time></trkpt><trkpt lat="45.5769033" lon="9.5375777"><ele>139.0</ele><time>2026-04-25T07:07:52.763Z</time></trkpt><trkpt lat="45.5769061" lon="9.537686"><ele>139.0</ele><time>2026-04-25T07:07:53.764Z</time></trkpt><trkpt lat="45.5769068" lon="9.5377951"><ele>139.0</ele><time>2026-04-25T07:07:54.764Z</time></trkpt><trkpt lat="45.5769059" lon="9.5378988"><ele>139.0</ele><time>2026-04-25T07:07:55.763Z</time></trkpt><trkpt lat="45.576904" lon="9.5379983"><ele>139.0</ele><time>2026-04-25T07:07:56.763Z</time></trkpt><trkpt lat="45.5769025" lon="9.5380913"><ele>139.0</ele><time>2026-04-25T07:07:57.764Z</time></trkpt><trkpt lat="45.5769018" lon="9.5381874"><ele>139.0</ele><time>2026-04-25T07:07:58.763Z</time></trkpt><trkpt lat="45.5769022" lon="9.5382979"><ele>139.0</ele><time>2026-04-25T07:08:00.764Z</time></trkpt><trkpt lat="45.5769086" lon="9.5384252"><ele>139.0</ele><time>2026-04-25T07:08:07.764Z</time></trkpt><trkpt lat="45.5768832" lon="9.5385841"><ele>139.0</ele><time>2026-04-25T07:08:09.763Z</time></trkpt><trkpt lat="45.5768396" lon="9.5387381"><ele>139.0</ele><time>2026-04-25T07:08:11.763Z</time></trkpt><trkpt lat="45.576852" lon="9.5388339"><ele>139.0</ele><time>2026-04-25T07:08:12.763Z</time></trkpt><trkpt lat="45.5768761" lon="9.5389276"><ele>139.0</ele><time>2026-04-25T07:08:13.763Z</time></trkpt><trkpt lat="45.5768939" lon="9.5390258"><ele>139.0</ele><time>2026-04-25T07:08:14.764Z</time></trkpt><trkpt lat="45.5769103" lon="9.5391325"><ele>139.0</ele><time>2026-04-25T07:08:15.764Z</time></trkpt><trkpt lat="45.5769251" lon="9.5392449"><ele>139.0</ele><time>2026-04-25T07:08:16.763Z</time></trkpt><trkpt lat="45.5769405" lon="9.5393585"><ele>139.0</ele><time>2026-04-25T07:08:17.763Z</time></trkpt><trkpt lat="45.5769555" lon="9.5394707"><ele>139.16666666666669</ele><time>2026-04-25T07:08:18.764Z</time></trkpt><trkpt lat="45.5769714" lon="9.5395837"><ele>139.33333333333334</ele><time>2026-04-25T07:08:19.764Z</time></trkpt><trkpt lat="45.5769842" lon="9.5396919"><ele>139.5</ele><time>2026-04-25T07:08:20.764Z</time></trkpt><trkpt lat="45.5769993" lon="9.539798"><ele>139.66666666666666</ele><time>2026-04-25T07:08:21.763Z</time></trkpt><trkpt lat="45.577011" lon="9.5399071"><ele>139.83333333333331</ele><time>2026-04-25T07:08:22.764Z</time></trkpt><trkpt lat="45.5770257" lon="9.540018"><ele>140.0</ele><time>2026-04-25T07:08:23.763Z</time></trkpt><trkpt lat="45.57704" lon="9.5401339"><ele>140.0</ele><time>2026-04-25T07:08:24.764Z</time></trkpt><trkpt lat="45.5770571" lon="9.5402496"><ele>140.0</ele><time>2026-04-25T07:08:25.763Z</time></trkpt><trkpt lat="45.5770712" lon="9.5403712"><ele>140.0</ele><time>2026-04-25T07:08:26.763Z</time></trkpt><trkpt lat="45.5770847" lon="9.5404945"><ele>140.0</ele><time>2026-04-25T07:08:27.764Z</time></trkpt><trkpt lat="45.5771019" lon="9.5406162"><ele>140.0</ele><time>2026-04-25T07:08:28.763Z</time></trkpt><trkpt lat="45.5771199" lon="9.5407412"><ele>140.0</ele><time>2026-04-25T07:08:29.763Z</time></trkpt><trkpt lat="45.5771359" lon="9.5408774"><ele>139.8</ele><time>2026-04-25T07:08:30.763Z</time></trkpt><trkpt lat="45.5771517" lon="9.5410237"><ele>139.6</ele><time>2026-04-25T07:08:31.764Z</time></trkpt><trkpt lat="45.5771723" lon="9.541172"><ele>139.4</ele><time>2026-04-25T07:08:32.764Z</time></trkpt><trkpt lat="45.5771923" lon="9.54132"><ele>139.2</ele><time>2026-04-25T07:08:33.764Z</time></trkpt><trkpt lat="45.5772126" lon="9.5414643"><ele>139.0</ele><time>2026-04-25T07:08:34.763Z</time></trkpt><trkpt lat="45.5772319" lon="9.5416044"><ele>139.0</ele><time>2026-04-25T07:08:35.763Z</time></trkpt><trkpt lat="45.5772535" lon="9.5417384"><ele>139.0</ele><time>2026-04-25T07:08:36.763Z</time></trkpt><trkpt lat="45.5772692" lon="9.5418755"><ele>139.0</ele><time>2026-04-25T07:08:37.764Z</time></trkpt><trkpt lat="45.5772896" lon="9.5420175"><ele>139.0</ele><time>2026-04-25T07:08:38.764Z</time></trkpt><trkpt lat="45.5773076" lon="9.54216"><ele>139.0</ele><time>2026-04-25T07:08:39.764Z</time></trkpt><trkpt lat="45.5773279" lon="9.5423039"><ele>139.2</ele><time>2026-04-25T07:08:40.763Z</time></trkpt><trkpt lat="45.5773446" lon="9.5424503"><ele>139.4</ele><time>2026-04-25T07:08:41.763Z</time></trkpt><trkpt lat="45.5773603" lon="9.5425955"><ele>139.6</ele><time>2026-04-25T07:08:42.764Z</time></trkpt><trkpt lat="45.5773794" lon="9.5427417"><ele>139.8</ele><time>2026-04-25T07:08:43.763Z</time></trkpt><trkpt lat="45.5773981" lon="9.5428897"><ele>140.0</ele><time>2026-04-25T07:08:44.764Z</time></trkpt><trkpt lat="45.5774187" lon="9.5430302"><ele>140.0</ele><time>2026-04-25T07:08:45.763Z</time></trkpt><trkpt lat="45.5774369" lon="9.5431598"><ele>140.0</ele><time>2026-04-25T07:08:46.763Z</time></trkpt><trkpt lat="45.5774542" lon="9.5432771"><ele>140.0</ele><time>2026-04-25T07:08:47.763Z</time></trkpt><trkpt lat="45.5774687" lon="9.5433887"><ele>140.0</ele><time>2026-04-25T07:08:48.763Z</time></trkpt><trkpt lat="45.5774855" lon="9.5434937"><ele>140.0</ele><time>2026-04-25T07:08:49.764Z</time></trkpt><trkpt lat="45.5774994" lon="9.5435913"><ele>140.0</ele><time>2026-04-25T07:08:50.763Z</time></trkpt><trkpt lat="45.5775225" lon="9.5437386"><ele>140.0</ele><time>2026-04-25T07:08:52.763Z</time></trkpt><trkpt lat="45.5775469" lon="9.5438473"><ele>140.0</ele><time>2026-04-25T07:08:54.763Z</time></trkpt><trkpt lat="45.5775565" lon="9.5439433"><ele>140.0</ele><time>2026-04-25T07:08:57.764Z</time></trkpt><trkpt lat="45.577562" lon="9.5440381"><ele>140.0</ele><time>2026-04-25T07:09:21.763Z</time></trkpt><trkpt lat="45.5775735" lon="9.5441353"><ele>140.0</ele><time>2026-04-25T07:09:22.764Z</time></trkpt><trkpt lat="45.5775848" lon="9.5442376"><ele>140.0</ele><time>2026-04-25T07:09:23.764Z</time></trkpt><trkpt lat="45.5775985" lon="9.5443538"><ele>140.0</ele><time>2026-04-25T07:09:24.763Z</time></trkpt><trkpt lat="45.5776126" lon="9.5444782"><ele>140.0</ele><time>2026-04-25T07:09:25.763Z</time></trkpt><trkpt lat="45.5776274" lon="9.5446074"><ele>140.0</ele><time>2026-04-25T07:09:26.763Z</time></trkpt><trkpt lat="45.5776437" lon="9.5447386"><ele>140.0</ele><time>2026-04-25T07:09:27.763Z</time></trkpt><trkpt lat="45.5776637" lon="9.544872"><ele>140.0</ele><time>2026-04-25T07:09:28.764Z</time></trkpt><trkpt lat="45.5776831" lon="9.5450069"><ele>140.0</ele><time>2026-04-25T07:09:29.763Z</time></trkpt><trkpt lat="45.5777017" lon="9.5451463"><ele>140.0</ele><time>2026-04-25T07:09:30.764Z</time></trkpt><trkpt lat="45.5777184" lon="9.5452897"><ele>140.0</ele><time>2026-04-25T07:09:31.763Z</time></trkpt><trkpt lat="45.5777364" lon="9.5454369"><ele>140.0</ele><time>2026-04-25T07:09:32.763Z</time></trkpt><trkpt lat="45.5777539" lon="9.5455895"><ele>140.0</ele><time>2026-04-25T07:09:33.764Z</time></trkpt><trkpt lat="45.5777745" lon="9.5457452"><ele>140.0</ele><time>2026-04-25T07:09:34.764Z</time></trkpt><trkpt lat="45.5777938" lon="9.5459005"><ele>140.0</ele><time>2026-04-25T07:09:35.764Z</time></trkpt><trkpt lat="45.5778147" lon="9.5460583"><ele>140.0</ele><time>2026-04-25T07:09:36.764Z</time></trkpt><trkpt lat="45.5778362" lon="9.5462218"><ele>140.0</ele><time>2026-04-25T07:09:37.763Z</time></trkpt><trkpt lat="45.5778575" lon="9.5463885"><ele>140.0</ele><time>2026-04-25T07:09:38.763Z</time></trkpt><trkpt lat="45.5778791" lon="9.5465552"><ele>140.5</ele><time>2026-04-25T07:09:39.763Z</time></trkpt><trkpt lat="45.5779003" lon="9.5467234"><ele>141.0</ele><time>2026-04-25T07:09:40.764Z</time></trkpt><trkpt lat="45.577923" lon="9.5468908"><ele>141.5</ele><time>2026-04-25T07:09:41.764Z</time></trkpt><trkpt lat="45.5779457" lon="9.5470597"><ele>142.0</ele><time>2026-04-25T07:09:42.763Z</time></trkpt><trkpt lat="45.577966" lon="9.54723"><ele>142.0</ele><time>2026-04-25T07:09:43.763Z</time></trkpt><trkpt lat="45.5779883" lon="9.5474004"><ele>142.0</ele><time>2026-04-25T07:09:44.764Z</time></trkpt><trkpt lat="45.578012" lon="9.5475705"><ele>142.0</ele><time>2026-04-25T07:09:45.763Z</time></trkpt><trkpt lat="45.5780365" lon="9.5477426"><ele>142.0</ele><time>2026-04-25T07:09:46.764Z</time></trkpt><trkpt lat="45.5780601" lon="9.5479141"><ele>142.5</ele><time>2026-04-25T07:09:47.764Z</time></trkpt><trkpt lat="45.5780813" lon="9.5480903"><ele>143.0</ele><time>2026-04-25T07:09:48.764Z</time></trkpt><trkpt lat="45.5781026" lon="9.548268"><ele>143.5</ele><time>2026-04-25T07:09:49.764Z</time></trkpt><trkpt lat="45.5781264" lon="9.5484411"><ele>144.0</ele><time>2026-04-25T07:09:50.763Z</time></trkpt><trkpt lat="45.5781502" lon="9.5486161"><ele>143.75</ele><time>2026-04-25T07:09:51.763Z</time></trkpt><trkpt lat="45.5781753" lon="9.5487929"><ele>143.5</ele><time>2026-04-25T07:09:52.764Z</time></trkpt><trkpt lat="45.5781982" lon="9.5489671"><ele>143.25</ele><time>2026-04-25T07:09:53.764Z</time></trkpt><trkpt lat="45.5782206" lon="9.5491416"><ele>143.0</ele><time>2026-04-25T07:09:54.764Z</time></trkpt><trkpt lat="45.5782413" lon="9.5493178"><ele>143.0</ele><time>2026-04-25T07:09:55.764Z</time></trkpt><trkpt lat="45.5782671" lon="9.5494942"><ele>143.0</ele><time>2026-04-25T07:09:56.763Z</time></trkpt><trkpt lat="45.5782911" lon="9.5496687"><ele>143.0</ele><time>2026-04-25T07:09:57.763Z</time></trkpt><trkpt lat="45.5783163" lon="9.5498443"><ele>143.0</ele><time>2026-04-25T07:09:58.764Z</time></trkpt><trkpt lat="45.5783401" lon="9.5500177"><ele>143.0</ele><time>2026-04-25T07:09:59.764Z</time></trkpt><trkpt lat="45.5783659" lon="9.5501892"><ele>143.0</ele><time>2026-04-25T07:10:00.763Z</time></trkpt><trkpt lat="45.5783897" lon="9.5503635"><ele>143.0</ele><time>2026-04-25T07:10:01.763Z</time></trkpt><trkpt lat="45.5784083" lon="9.5505337"><ele>143.0</ele><time>2026-04-25T07:10:02.764Z</time></trkpt><trkpt lat="45.5784269" lon="9.5507073"><ele>143.0</ele><time>2026-04-25T07:10:03.764Z</time></trkpt><trkpt lat="45.5784479" lon="9.550881"><ele>143.0</ele><time>2026-04-25T07:10:04.764Z</time></trkpt><trkpt lat="45.5784706" lon="9.5510591"><ele>143.0</ele><time>2026-04-25T07:10:05.763Z</time></trkpt><trkpt lat="45.578494" lon="9.5512369"><ele>143.0</ele><time>2026-04-25T07:10:06.764Z</time></trkpt><trkpt lat="45.5785153" lon="9.5514154"><ele>143.0</ele><time>2026-04-25T07:10:07.764Z</time></trkpt><trkpt lat="45.5785376" lon="9.5515978"><ele>143.0</ele><time>2026-04-25T07:10:08.763Z</time></trkpt><trkpt lat="45.5785617" lon="9.5517805"><ele>143.0</ele><time>2026-04-25T07:10:09.763Z</time></trkpt><trkpt lat="45.578587" lon="9.5519634"><ele>143.0</ele><time>2026-04-25T07:10:10.764Z</time></trkpt><trkpt lat="45.5786132" lon="9.5521465"><ele>142.75</ele><time>2026-04-25T07:10:11.764Z</time></trkpt><trkpt lat="45.5786379" lon="9.5523286"><ele>142.5</ele><time>2026-04-25T07:10:12.763Z</time></trkpt><trkpt lat="45.5786638" lon="9.5525084"><ele>142.25</ele><time>2026-04-25T07:10:13.764Z</time></trkpt><trkpt lat="45.5786911" lon="9.552691"><ele>142.0</ele><time>2026-04-25T07:10:14.763Z</time></trkpt><trkpt lat="45.5787133" lon="9.5528735"><ele>142.0</ele><time>2026-04-25T07:10:15.763Z</time></trkpt><trkpt lat="45.5787364" lon="9.5530579"><ele>142.0</ele><time>2026-04-25T07:10:16.764Z</time></trkpt><trkpt lat="45.5787609" lon="9.5532411"><ele>142.0</ele><time>2026-04-25T07:10:17.763Z</time></trkpt><trkpt lat="45.5787862" lon="9.5534228"><ele>142.0</ele><time>2026-04-25T07:10:18.763Z</time></trkpt><trkpt lat="45.5788153" lon="9.5536051"><ele>142.25</ele><time>2026-04-25T07:10:19.763Z</time></trkpt><trkpt lat="45.5788462" lon="9.5537847"><ele>142.5</ele><time>2026-04-25T07:10:20.764Z</time></trkpt><trkpt lat="45.5788792" lon="9.5539687"><ele>142.75</ele><time>2026-04-25T07:10:21.763Z</time></trkpt><trkpt lat="45.5789117" lon="9.5541512"><ele>143.0</ele><time>2026-04-25T07:10:22.764Z</time></trkpt><trkpt lat="45.5789467" lon="9.5543344"><ele>143.0</ele><time>2026-04-25T07:10:23.763Z</time></trkpt><trkpt lat="45.5789828" lon="9.5545178"><ele>143.0</ele><time>2026-04-25T07:10:24.763Z</time></trkpt><trkpt lat="45.5790173" lon="9.5546997"><ele>143.0</ele><time>2026-04-25T07:10:25.763Z</time></trkpt><trkpt lat="45.579053" lon="9.5548852"><ele>143.0</ele><time>2026-04-25T07:10:26.764Z</time></trkpt><trkpt lat="45.5790872" lon="9.5550696"><ele>143.75</ele><time>2026-04-25T07:10:27.763Z</time></trkpt><trkpt lat="45.5791241" lon="9.5552515"><ele>144.5</ele><time>2026-04-25T07:10:28.763Z</time></trkpt><trkpt lat="45.5791649" lon="9.5554319"><ele>145.25</ele><time>2026-04-25T07:10:29.763Z</time></trkpt><trkpt lat="45.5792141" lon="9.5556069"><ele>146.0</ele><time>2026-04-25T07:10:30.764Z</time></trkpt><trkpt lat="45.5792729" lon="9.5557777"><ele>146.0</ele><time>2026-04-25T07:10:31.764Z</time></trkpt><trkpt lat="45.5793417" lon="9.5559331"><ele>146.0</ele><time>2026-04-25T07:10:32.764Z</time></trkpt><trkpt lat="45.5794225" lon="9.5560754"><ele>146.0</ele><time>2026-04-25T07:10:33.764Z</time></trkpt><trkpt lat="45.5795144" lon="9.556202"><ele>146.0</ele><time>2026-04-25T07:10:34.764Z</time></trkpt><trkpt lat="45.5796138" lon="9.5563167"><ele>145.5</ele><time>2026-04-25T07:10:35.764Z</time></trkpt><trkpt lat="45.5797217" lon="9.5564225"><ele>145.0</ele><time>2026-04-25T07:10:36.764Z</time></trkpt><trkpt lat="45.579835" lon="9.5565123"><ele>144.5</ele><time>2026-04-25T07:10:37.764Z</time></trkpt><trkpt lat="45.5799551" lon="9.5565874"><ele>144.0</ele><time>2026-04-25T07:10:38.763Z</time></trkpt><trkpt lat="45.5800788" lon="9.5566563"><ele>144.0</ele><time>2026-04-25T07:10:39.763Z</time></trkpt><trkpt lat="45.5802058" lon="9.5567173"><ele>144.0</ele><time>2026-04-25T07:10:40.764Z</time></trkpt><trkpt lat="45.5803339" lon="9.5567789"><ele>144.0</ele><time>2026-04-25T07:10:41.764Z</time></trkpt><trkpt lat="45.5804591" lon="9.5568551"><ele>144.0</ele><time>2026-04-25T07:10:42.763Z</time></trkpt><trkpt lat="45.5805799" lon="9.5569457"><ele>144.0</ele><time>2026-04-25T07:10:43.763Z</time></trkpt><trkpt lat="45.5806956" lon="9.5570528"><ele>144.0</ele><time>2026-04-25T07:10:44.763Z</time></trkpt><trkpt lat="45.5808041" lon="9.5571728"><ele>144.0</ele><time>2026-04-25T07:10:45.764Z</time></trkpt><trkpt lat="45.580906" lon="9.5572988"><ele>144.0</ele><time>2026-04-25T07:10:46.764Z</time></trkpt><trkpt lat="45.5810075" lon="9.5574221"><ele>144.0</ele><time>2026-04-25T07:10:47.763Z</time></trkpt><trkpt lat="45.5811093" lon="9.5575431"><ele>144.0</ele><time>2026-04-25T07:10:48.764Z</time></trkpt><trkpt lat="45.5812115" lon="9.5576665"><ele>144.0</ele><time>2026-04-25T07:10:49.763Z</time></trkpt><trkpt lat="45.5813108" lon="9.5577925"><ele>144.0</ele><time>2026-04-25T07:10:50.763Z</time></trkpt><trkpt lat="45.5814064" lon="9.5579175"><ele>144.0</ele><time>2026-04-25T07:10:51.763Z</time></trkpt><trkpt lat="45.5815018" lon="9.5580385"><ele>144.0</ele><time>2026-04-25T07:10:52.764Z</time></trkpt><trkpt lat="45.5815921" lon="9.5581569"><ele>144.0</ele><time>2026-04-25T07:10:53.763Z</time></trkpt><trkpt lat="45.5816831" lon="9.5582755"><ele>144.0</ele><time>2026-04-25T07:10:54.763Z</time></trkpt><trkpt lat="45.5817749" lon="9.5584011"><ele>144.0</ele><time>2026-04-25T07:10:55.763Z</time></trkpt><trkpt lat="45.5818673" lon="9.5585218"><ele>144.0</ele><time>2026-04-25T07:10:56.763Z</time></trkpt><trkpt lat="45.5819592" lon="9.5586439"><ele>144.0</ele><time>2026-04-25T07:10:57.764Z</time></trkpt><trkpt lat="45.5820493" lon="9.5587641"><ele>144.0</ele><time>2026-04-25T07:10:58.763Z</time></trkpt><trkpt lat="45.5821444" lon="9.5588863"><ele>144.25</ele><time>2026-04-25T07:10:59.763Z</time></trkpt><trkpt lat="45.5822387" lon="9.55901"><ele>144.5</ele><time>2026-04-25T07:11:00.763Z</time></trkpt><trkpt lat="45.5823347" lon="9.5591328"><ele>144.75</ele><time>2026-04-25T07:11:01.763Z</time></trkpt><trkpt lat="45.5824278" lon="9.5592572"><ele>145.0</ele><time>2026-04-25T07:11:02.763Z</time></trkpt><trkpt lat="45.5825223" lon="9.5593819"><ele>145.0</ele><time>2026-04-25T07:11:03.764Z</time></trkpt><trkpt lat="45.5826186" lon="9.5595071"><ele>145.0</ele><time>2026-04-25T07:11:04.764Z</time></trkpt><trkpt lat="45.5827149" lon="9.5596317"><ele>145.0</ele><time>2026-04-25T07:11:05.764Z</time></trkpt><trkpt lat="45.5828093" lon="9.5597593"><ele>145.0</ele><time>2026-04-25T07:11:06.764Z</time></trkpt><trkpt lat="45.5829057" lon="9.5598855"><ele>146.0</ele><time>2026-04-25T07:11:07.763Z</time></trkpt><trkpt lat="45.5830036" lon="9.5600114"><ele>147.0</ele><time>2026-04-25T07:11:08.763Z</time></trkpt><trkpt lat="45.583101" lon="9.5601378"><ele>148.0</ele><time>2026-04-25T07:11:09.764Z</time></trkpt><trkpt lat="45.5831984" lon="9.5602618"><ele>149.0</ele><time>2026-04-25T07:11:10.764Z</time></trkpt><trkpt lat="45.5832962" lon="9.5603851"><ele>149.0</ele><time>2026-04-25T07:11:11.763Z</time></trkpt><trkpt lat="45.583394" lon="9.5605087"><ele>149.0</ele><time>2026-04-25T07:11:12.764Z</time></trkpt><trkpt lat="45.5834919" lon="9.5606338"><ele>149.0</ele><time>2026-04-25T07:11:13.763Z</time></trkpt><trkpt lat="45.5835898" lon="9.5607595"><ele>149.0</ele><time>2026-04-25T07:11:14.763Z</time></trkpt><trkpt lat="45.5836853" lon="9.5608833"><ele>149.0</ele><time>2026-04-25T07:11:15.764Z</time></trkpt><trkpt lat="45.5837801" lon="9.5610078"><ele>149.0</ele><time>2026-04-25T07:11:16.763Z</time></trkpt><trkpt lat="45.5838729" lon="9.5611314"><ele>149.0</ele><time>2026-04-25T07:11:17.764Z</time></trkpt><trkpt lat="45.5839683" lon="9.5612574"><ele>149.0</ele><time>2026-04-25T07:11:18.763Z</time></trkpt><trkpt lat="45.5840652" lon="9.5613836"><ele>149.0</ele><time>2026-04-25T07:11:19.764Z</time></trkpt><trkpt lat="45.5841637" lon="9.5615129"><ele>149.0</ele><time>2026-04-25T07:11:20.763Z</time></trkpt><trkpt lat="45.5842622" lon="9.5616425"><ele>149.0</ele><time>2026-04-25T07:11:21.764Z</time></trkpt><trkpt lat="45.5843622" lon="9.5617698"><ele>149.0</ele><time>2026-04-25T07:11:22.763Z</time></trkpt><trkpt lat="45.5844611" lon="9.561897"><ele>149.0</ele><time>2026-04-25T07:11:23.764Z</time></trkpt><trkpt lat="45.584557" lon="9.5620227"><ele>149.0</ele><time>2026-04-25T07:11:24.764Z</time></trkpt><trkpt lat="45.5846532" lon="9.5621504"><ele>149.0</ele><time>2026-04-25T07:11:25.764Z</time></trkpt><trkpt lat="45.58475" lon="9.5622759"><ele>149.0</ele><time>2026-04-25T07:11:26.764Z</time></trkpt><trkpt lat="45.5848473" lon="9.5624022"><ele>149.0</ele><time>2026-04-25T07:11:27.764Z</time></trkpt><trkpt lat="45.584942" lon="9.5625281"><ele>149.0</ele><time>2026-04-25T07:11:28.763Z</time></trkpt><trkpt lat="45.5850361" lon="9.5626536"><ele>149.0</ele><time>2026-04-25T07:11:29.763Z</time></trkpt><trkpt lat="45.5851295" lon="9.5627765"><ele>149.0</ele><time>2026-04-25T07:11:30.763Z</time></trkpt><trkpt lat="45.5852227" lon="9.5628993"><ele>149.0</ele><time>2026-04-25T07:11:31.763Z</time></trkpt><trkpt lat="45.5853159" lon="9.5630213"><ele>149.0</ele><time>2026-04-25T07:11:32.763Z</time></trkpt><trkpt lat="45.5854098" lon="9.5631444"><ele>149.0</ele><time>2026-04-25T07:11:33.763Z</time></trkpt><trkpt lat="45.5855055" lon="9.5632652"><ele>149.0</ele><time>2026-04-25T07:11:34.764Z</time></trkpt><trkpt lat="45.5856004" lon="9.5633874"><ele>149.0</ele><time>2026-04-25T07:11:35.764Z</time></trkpt><trkpt lat="45.5856955" lon="9.5635089"><ele>149.0</ele><time>2026-04-25T07:11:36.763Z</time></trkpt><trkpt lat="45.5857891" lon="9.5636356"><ele>149.0</ele><time>2026-04-25T07:11:37.763Z</time></trkpt><trkpt lat="45.5858847" lon="9.5637587"><ele>149.0</ele><time>2026-04-25T07:11:38.763Z</time></trkpt><trkpt lat="45.5859806" lon="9.5638863"><ele>149.0</ele><time>2026-04-25T07:11:39.764Z</time></trkpt><trkpt lat="45.5860777" lon="9.5640117"><ele>149.0</ele><time>2026-04-25T07:11:40.764Z</time></trkpt><trkpt lat="45.5861753" lon="9.5641376"><ele>149.0</ele><time>2026-04-25T07:11:41.763Z</time></trkpt><trkpt lat="45.5862717" lon="9.5642647"><ele>149.0</ele><time>2026-04-25T07:11:42.763Z</time></trkpt><trkpt lat="45.5863683" lon="9.564393"><ele>148.75</ele><time>2026-04-25T07:11:43.763Z</time></trkpt><trkpt lat="45.5864649" lon="9.5645216"><ele>148.5</ele><time>2026-04-25T07:11:44.764Z</time></trkpt><trkpt lat="45.5865613" lon="9.5646487"><ele>148.25</ele><time>2026-04-25T07:11:45.764Z</time></trkpt><trkpt lat="45.5866599" lon="9.5647767"><ele>148.0</ele><time>2026-04-25T07:11:46.763Z</time></trkpt><trkpt lat="45.5867566" lon="9.5649017"><ele>148.5</ele><time>2026-04-25T07:11:47.763Z</time></trkpt><trkpt lat="45.5868512" lon="9.5650261"><ele>149.0</ele><time>2026-04-25T07:11:48.764Z</time></trkpt><trkpt lat="45.5869479" lon="9.5651499"><ele>149.5</ele><time>2026-04-25T07:11:49.763Z</time></trkpt><trkpt lat="45.5870442" lon="9.5652755"><ele>150.0</ele><time>2026-04-25T07:11:50.763Z</time></trkpt><trkpt lat="45.5871405" lon="9.5654036"><ele>150.5</ele><time>2026-04-25T07:11:51.764Z</time></trkpt><trkpt lat="45.5872384" lon="9.5655263"><ele>151.0</ele><time>2026-04-25T07:11:52.764Z</time></trkpt><trkpt lat="45.5873358" lon="9.565652"><ele>151.5</ele><time>2026-04-25T07:11:53.763Z</time></trkpt><trkpt lat="45.5874367" lon="9.5657794"><ele>152.0</ele><time>2026-04-25T07:11:54.763Z</time></trkpt><trkpt lat="45.5875375" lon="9.5659104"><ele>152.0</ele><time>2026-04-25T07:11:55.764Z</time></trkpt><trkpt lat="45.5876411" lon="9.566045"><ele>152.0</ele><time>2026-04-25T07:11:56.763Z</time></trkpt><trkpt lat="45.5877478" lon="9.5661852"><ele>152.0</ele><time>2026-04-25T07:11:57.763Z</time></trkpt><trkpt lat="45.5878557" lon="9.5663273"><ele>152.0</ele><time>2026-04-25T07:11:58.764Z</time></trkpt><trkpt lat="45.5879651" lon="9.5664681"><ele>152.25</ele><time>2026-04-25T07:11:59.763Z</time></trkpt><trkpt lat="45.5880757" lon="9.5666101"><ele>152.5</ele><time>2026-04-25T07:12:00.764Z</time></trkpt><trkpt lat="45.5881871" lon="9.5667511"><ele>152.75</ele><time>2026-04-25T07:12:01.764Z</time></trkpt><trkpt lat="45.5882975" lon="9.5668926"><ele>153.0</ele><time>2026-04-25T07:12:02.764Z</time></trkpt><trkpt lat="45.5884046" lon="9.5670345"><ele>153.25</ele><time>2026-04-25T07:12:03.763Z</time></trkpt><trkpt lat="45.5885113" lon="9.5671754"><ele>153.5</ele><time>2026-04-25T07:12:04.763Z</time></trkpt><trkpt lat="45.5886173" lon="9.5673117"><ele>153.75</ele><time>2026-04-25T07:12:05.764Z</time></trkpt><trkpt lat="45.5887232" lon="9.5674492"><ele>154.0</ele><time>2026-04-25T07:12:06.763Z</time></trkpt><trkpt lat="45.5888316" lon="9.567582"><ele>154.0</ele><time>2026-04-25T07:12:07.764Z</time></trkpt><trkpt lat="45.5889369" lon="9.5677175"><ele>154.0</ele><time>2026-04-25T07:12:08.763Z</time></trkpt><trkpt lat="45.5890421" lon="9.5678535"><ele>154.0</ele><time>2026-04-25T07:12:09.764Z</time></trkpt><trkpt lat="45.5891459" lon="9.5679901"><ele>154.0</ele><time>2026-04-25T07:12:10.764Z</time></trkpt><trkpt lat="45.5892474" lon="9.5681246"><ele>154.25</ele><time>2026-04-25T07:12:11.763Z</time></trkpt><trkpt lat="45.5893499" lon="9.568258"><ele>154.5</ele><time>2026-04-25T07:12:12.763Z</time></trkpt><trkpt lat="45.589451" lon="9.5683934"><ele>154.75</ele><time>2026-04-25T07:12:13.764Z</time></trkpt><trkpt lat="45.5895504" lon="9.5685254"><ele>155.0</ele><time>2026-04-25T07:12:14.764Z</time></trkpt><trkpt lat="45.5896491" lon="9.5686554"><ele>155.25</ele><time>2026-04-25T07:12:15.763Z</time></trkpt><trkpt lat="45.5897483" lon="9.5687836"><ele>155.5</ele><time>2026-04-25T07:12:16.764Z</time></trkpt><trkpt lat="45.5898464" lon="9.5689074"><ele>155.75</ele><time>2026-04-25T07:12:17.764Z</time></trkpt><trkpt lat="45.5899453" lon="9.5690342"><ele>156.0</ele><time>2026-04-25T07:12:18.763Z</time></trkpt><trkpt lat="45.5900405" lon="9.5691595"><ele>156.0</ele><time>2026-04-25T07:12:19.763Z</time></trkpt><trkpt lat="45.5901371" lon="9.5692847"><ele>156.0</ele><time>2026-04-25T07:12:20.764Z</time></trkpt><trkpt lat="45.5902342" lon="9.5694107"><ele>156.0</ele><time>2026-04-25T07:12:21.764Z</time></trkpt><trkpt lat="45.5903287" lon="9.5695378"><ele>156.0</ele><time>2026-04-25T07:12:22.764Z</time></trkpt><trkpt lat="45.5904245" lon="9.569664"><ele>156.25</ele><time>2026-04-25T07:12:23.763Z</time></trkpt><trkpt lat="45.5905207" lon="9.5697856"><ele>156.5</ele><time>2026-04-25T07:12:24.764Z</time></trkpt><trkpt lat="45.5906155" lon="9.5699129"><ele>156.75</ele><time>2026-04-25T07:12:25.764Z</time></trkpt><trkpt lat="45.5907103" lon="9.5700394"><ele>157.0</ele><time>2026-04-25T07:12:26.764Z</time></trkpt><trkpt lat="45.5908059" lon="9.5701661"><ele>157.0</ele><time>2026-04-25T07:12:27.764Z</time></trkpt><trkpt lat="45.5909026" lon="9.570292"><ele>157.0</ele><time>2026-04-25T07:12:28.764Z</time></trkpt><trkpt lat="45.5909977" lon="9.5704186"><ele>157.0</ele><time>2026-04-25T07:12:29.763Z</time></trkpt><trkpt lat="45.5910942" lon="9.5705446"><ele>157.0</ele><time>2026-04-25T07:12:30.764Z</time></trkpt><trkpt lat="45.5911936" lon="9.5706747"><ele>157.25</ele><time>2026-04-25T07:12:31.764Z</time></trkpt><trkpt lat="45.5912943" lon="9.5708099"><ele>157.5</ele><time>2026-04-25T07:12:32.763Z</time></trkpt><trkpt lat="45.5913991" lon="9.5709442"><ele>157.75</ele><time>2026-04-25T07:12:33.764Z</time></trkpt><trkpt lat="45.5915063" lon="9.5710816"><ele>158.0</ele><time>2026-04-25T07:12:34.764Z</time></trkpt><trkpt lat="45.5916126" lon="9.5712202"><ele>158.75</ele><time>2026-04-25T07:12:35.764Z</time></trkpt><trkpt lat="45.5917197" lon="9.5713572"><ele>159.5</ele><time>2026-04-25T07:12:36.764Z</time></trkpt><trkpt lat="45.5918243" lon="9.5714943"><ele>160.25</ele><time>2026-04-25T07:12:37.764Z</time></trkpt><trkpt lat="45.5919268" lon="9.5716298"><ele>161.0</ele><time>2026-04-25T07:12:38.764Z</time></trkpt><trkpt lat="45.5920312" lon="9.571767"><ele>161.0</ele><time>2026-04-25T07:12:39.764Z</time></trkpt><trkpt lat="45.5921353" lon="9.5718991"><ele>161.0</ele><time>2026-04-25T07:12:40.764Z</time></trkpt><trkpt lat="45.5922379" lon="9.5720319"><ele>161.0</ele><time>2026-04-25T07:12:41.764Z</time></trkpt><trkpt lat="45.5923416" lon="9.5721669"><ele>161.0</ele><time>2026-04-25T07:12:42.763Z</time></trkpt><trkpt lat="45.5924456" lon="9.5723025"><ele>161.25</ele><time>2026-04-25T07:12:43.763Z</time></trkpt><trkpt lat="45.5925467" lon="9.5724363"><ele>161.5</ele><time>2026-04-25T07:12:44.763Z</time></trkpt><trkpt lat="45.5926475" lon="9.5725641"><ele>161.75</ele><time>2026-04-25T07:12:45.764Z</time></trkpt><trkpt lat="45.5927466" lon="9.5726904"><ele>162.0</ele><time>2026-04-25T07:12:46.763Z</time></trkpt><trkpt lat="45.5928421" lon="9.5728157"><ele>162.25</ele><time>2026-04-25T07:12:47.763Z</time></trkpt><trkpt lat="45.5929338" lon="9.5729423"><ele>162.5</ele><time>2026-04-25T07:12:48.764Z</time></trkpt><trkpt lat="45.5930191" lon="9.5730695"><ele>162.75</ele><time>2026-04-25T07:12:49.763Z</time></trkpt><trkpt lat="45.5931003" lon="9.5731923"><ele>163.0</ele><time>2026-04-25T07:12:50.763Z</time></trkpt><trkpt lat="45.5931748" lon="9.5733087"><ele>163.0</ele><time>2026-04-25T07:12:51.763Z</time></trkpt><trkpt lat="45.5932425" lon="9.5734179"><ele>163.0</ele><time>2026-04-25T07:12:52.764Z</time></trkpt><trkpt lat="45.5932955" lon="9.5735422"><ele>163.0</ele><time>2026-04-25T07:12:53.764Z</time></trkpt><trkpt lat="45.5933353" lon="9.5736843"><ele>163.0</ele><time>2026-04-25T07:12:54.764Z</time></trkpt><trkpt lat="45.5933767" lon="9.5738205"><ele>163.0</ele><time>2026-04-25T07:12:55.763Z</time></trkpt><trkpt lat="45.5934373" lon="9.5739322"><ele>163.16666666666669</ele><time>2026-04-25T07:12:56.763Z</time></trkpt><trkpt lat="45.5935173" lon="9.5739987"><ele>163.33333333333334</ele><time>2026-04-25T07:12:57.763Z</time></trkpt><trkpt lat="45.5936044" lon="9.5740062"><ele>163.5</ele><time>2026-04-25T07:12:58.764Z</time></trkpt><trkpt lat="45.5936825" lon="9.5739575"><ele>163.66666666666666</ele><time>2026-04-25T07:12:59.763Z</time></trkpt><trkpt lat="45.593735" lon="9.5738625"><ele>163.83333333333331</ele><time>2026-04-25T07:13:00.763Z</time></trkpt><trkpt lat="45.5937511" lon="9.57374"><ele>164.0</ele><time>2026-04-25T07:13:01.764Z</time></trkpt><trkpt lat="45.5937294" lon="9.5736151"><ele>163.79999999999998</ele><time>2026-04-25T07:13:02.763Z</time></trkpt><trkpt lat="45.5936676" lon="9.5735135"><ele>163.6</ele><time>2026-04-25T07:13:03.764Z</time></trkpt><trkpt lat="45.5935794" lon="9.5734618"><ele>163.4</ele><time>2026-04-25T07:13:04.764Z</time></trkpt><trkpt lat="45.5934877" lon="9.5734719"><ele>163.2</ele><time>2026-04-25T07:13:05.763Z</time></trkpt><trkpt lat="45.5934132" lon="9.5735463"><ele>163.0</ele><time>2026-04-25T07:13:06.763Z</time></trkpt><trkpt lat="45.5933724" lon="9.5736624"><ele>163.2</ele><time>2026-04-25T07:13:07.764Z</time></trkpt><trkpt lat="45.5933709" lon="9.5737938"><ele>163.4</ele><time>2026-04-25T07:13:08.763Z</time></trkpt><trkpt lat="45.5934163" lon="9.5739144"><ele>163.6</ele><time>2026-04-25T07:13:09.764Z</time></trkpt><trkpt lat="45.5934966" lon="9.5739995"><ele>163.79999999999998</ele><time>2026-04-25T07:13:10.763Z</time></trkpt><trkpt lat="45.5935974" lon="9.5740396"><ele>164.0</ele><time>2026-04-25T07:13:11.764Z</time></trkpt><trkpt lat="45.5937032" lon="9.5740701"><ele>164.25</ele><time>2026-04-25T07:13:12.764Z</time></trkpt><trkpt lat="45.5938079" lon="9.5741351"><ele>164.5</ele><time>2026-04-25T07:13:13.764Z</time></trkpt><trkpt lat="45.5939034" lon="9.5742336"><ele>164.75</ele><time>2026-04-25T07:13:14.764Z</time></trkpt><trkpt lat="45.5939951" lon="9.5743497"><ele>165.0</ele><time>2026-04-25T07:13:15.763Z</time></trkpt><trkpt lat="45.5940862" lon="9.5744642"><ele>165.5</ele><time>2026-04-25T07:13:16.763Z</time></trkpt><trkpt lat="45.5941779" lon="9.5745823"><ele>166.0</ele><time>2026-04-25T07:13:17.763Z</time></trkpt><trkpt lat="45.5942709" lon="9.5747011"><ele>166.5</ele><time>2026-04-25T07:13:18.764Z</time></trkpt><trkpt lat="45.5943653" lon="9.5748201"><ele>167.0</ele><time>2026-04-25T07:13:19.764Z</time></trkpt><trkpt lat="45.5944595" lon="9.5749414"><ele>167.0</ele><time>2026-04-25T07:13:20.764Z</time></trkpt><trkpt lat="45.5945525" lon="9.5750616"><ele>167.0</ele><time>2026-04-25T07:13:21.763Z</time></trkpt><trkpt lat="45.5946455" lon="9.5751778"><ele>167.0</ele><time>2026-04-25T07:13:22.763Z</time></trkpt><trkpt lat="45.5947442" lon="9.57529"><ele>167.0</ele><time>2026-04-25T07:13:23.764Z</time></trkpt><trkpt lat="45.5948505" lon="9.5753934"><ele>167.0</ele><time>2026-04-25T07:13:24.764Z</time></trkpt><trkpt lat="45.5949636" lon="9.5754889"><ele>167.0</ele><time>2026-04-25T07:13:25.764Z</time></trkpt><trkpt lat="45.5950806" lon="9.575582"><ele>167.0</ele><time>2026-04-25T07:13:26.763Z</time></trkpt><trkpt lat="45.5952028" lon="9.575675"><ele>167.0</ele><time>2026-04-25T07:13:27.763Z</time></trkpt><trkpt lat="45.5953253" lon="9.5757651"><ele>167.5</ele><time>2026-04-25T07:13:28.764Z</time></trkpt><trkpt lat="45.5954475" lon="9.575857"><ele>168.0</ele><time>2026-04-25T07:13:29.763Z</time></trkpt><trkpt lat="45.5955698" lon="9.5759481"><ele>168.5</ele><time>2026-04-25T07:13:30.763Z</time></trkpt><trkpt lat="45.5956938" lon="9.5760395"><ele>169.0</ele><time>2026-04-25T07:13:31.763Z</time></trkpt><trkpt lat="45.595818" lon="9.5761309"><ele>169.0</ele><time>2026-04-25T07:13:32.764Z</time></trkpt><trkpt lat="45.5959405" lon="9.5762245"><ele>169.0</ele><time>2026-04-25T07:13:33.764Z</time></trkpt><trkpt lat="45.5960652" lon="9.5763181"><ele>169.0</ele><time>2026-04-25T07:13:34.764Z</time></trkpt><trkpt lat="45.5961878" lon="9.5764088"><ele>169.0</ele><time>2026-04-25T07:13:35.763Z</time></trkpt><trkpt lat="45.5963074" lon="9.5764978"><ele>169.0</ele><time>2026-04-25T07:13:36.763Z</time></trkpt><trkpt lat="45.596426" lon="9.5765868"><ele>169.0</ele><time>2026-04-25T07:13:37.763Z</time></trkpt><trkpt lat="45.596544" lon="9.5766765"><ele>169.0</ele><time>2026-04-25T07:13:38.764Z</time></trkpt><trkpt lat="45.5966587" lon="9.5767642"><ele>169.0</ele><time>2026-04-25T07:13:39.763Z</time></trkpt><trkpt lat="45.5967711" lon="9.5768477"><ele>169.0</ele><time>2026-04-25T07:13:40.763Z</time></trkpt><trkpt lat="45.5968757" lon="9.5769294"><ele>169.0</ele><time>2026-04-25T07:13:41.764Z</time></trkpt><trkpt lat="45.5969784" lon="9.5770025"><ele>169.0</ele><time>2026-04-25T07:13:42.763Z</time></trkpt><trkpt lat="45.597072" lon="9.5770723"><ele>169.0</ele><time>2026-04-25T07:13:43.764Z</time></trkpt><trkpt lat="45.59716" lon="9.5771341"><ele>169.0</ele><time>2026-04-25T07:13:44.763Z</time></trkpt><trkpt lat="45.5972427" lon="9.5771947"><ele>168.6</ele><time>2026-04-25T07:13:45.762Z</time></trkpt><trkpt lat="45.5973228" lon="9.5772534"><ele>168.2</ele><time>2026-04-25T07:13:46.764Z</time></trkpt><trkpt lat="45.5974042" lon="9.577311"><ele>167.79999999999998</ele><time>2026-04-25T07:13:47.763Z</time></trkpt><trkpt lat="45.5974878" lon="9.5773749"><ele>167.39999999999998</ele><time>2026-04-25T07:13:48.763Z</time></trkpt><trkpt lat="45.5975703" lon="9.5774398"><ele>167.0</ele><time>2026-04-25T07:13:49.763Z</time></trkpt><trkpt lat="45.5976541" lon="9.5775014"><ele>167.0</ele><time>2026-04-25T07:13:50.763Z</time></trkpt><trkpt lat="45.5977393" lon="9.577564"><ele>167.0</ele><time>2026-04-25T07:13:51.764Z</time></trkpt><trkpt lat="45.5978221" lon="9.5776247"><ele>167.0</ele><time>2026-04-25T07:13:52.763Z</time></trkpt><trkpt lat="45.5979051" lon="9.5776871"><ele>167.0</ele><time>2026-04-25T07:13:53.764Z</time></trkpt><trkpt lat="45.5979868" lon="9.5777499"><ele>167.0</ele><time>2026-04-25T07:13:54.763Z</time></trkpt><trkpt lat="45.5980722" lon="9.5778062"><ele>167.39999999999998</ele><time>2026-04-25T07:13:55.764Z</time></trkpt><trkpt lat="45.5981559" lon="9.5778684"><ele>167.79999999999998</ele><time>2026-04-25T07:13:56.764Z</time></trkpt><trkpt lat="45.5982413" lon="9.5779351"><ele>168.2</ele><time>2026-04-25T07:13:57.764Z</time></trkpt><trkpt lat="45.5983296" lon="9.5779985"><ele>168.6</ele><time>2026-04-25T07:13:58.764Z</time></trkpt><trkpt lat="45.5984177" lon="9.5780676"><ele>169.0</ele><time>2026-04-25T07:13:59.763Z</time></trkpt><trkpt lat="45.5985072" lon="9.5781362"><ele>169.0</ele><time>2026-04-25T07:14:00.763Z</time></trkpt><trkpt lat="45.5985977" lon="9.5782033"><ele>169.0</ele><time>2026-04-25T07:14:01.763Z</time></trkpt><trkpt lat="45.5986836" lon="9.5782666"><ele>169.0</ele><time>2026-04-25T07:14:02.763Z</time></trkpt><trkpt lat="45.5987625" lon="9.5783252"><ele>169.0</ele><time>2026-04-25T07:14:03.764Z</time></trkpt><trkpt lat="45.5988422" lon="9.578384"><ele>169.0</ele><time>2026-04-25T07:14:04.763Z</time></trkpt><trkpt lat="45.5989253" lon="9.5784387"><ele>169.2</ele><time>2026-04-25T07:14:05.763Z</time></trkpt><trkpt lat="45.5990161" lon="9.5784719"><ele>169.39999999999998</ele><time>2026-04-25T07:14:06.763Z</time></trkpt><trkpt lat="45.5991176" lon="9.5784864"><ele>169.6</ele><time>2026-04-25T07:14:07.763Z</time></trkpt><trkpt lat="45.5992118" lon="9.5785006"><ele>169.8</ele><time>2026-04-25T07:14:08.763Z</time></trkpt><trkpt lat="45.599299" lon="9.5785128"><ele>170.0</ele><time>2026-04-25T07:14:09.763Z</time></trkpt><trkpt lat="45.5993781" lon="9.5785239"><ele>170.0</ele><time>2026-04-25T07:14:10.764Z</time></trkpt><trkpt lat="45.5994489" lon="9.5785476"><ele>170.0</ele><time>2026-04-25T07:14:11.763Z</time></trkpt><trkpt lat="45.5995104" lon="9.5786072"><ele>170.0</ele><time>2026-04-25T07:14:12.764Z</time></trkpt><trkpt lat="45.5995536" lon="9.5787002"><ele>170.0</ele><time>2026-04-25T07:14:13.764Z</time></trkpt><trkpt lat="45.599593" lon="9.5788151"><ele>170.0</ele><time>2026-04-25T07:14:14.763Z</time></trkpt><trkpt lat="45.5996322" lon="9.5789419"><ele>170.0</ele><time>2026-04-25T07:14:15.763Z</time></trkpt><trkpt lat="45.5996711" lon="9.5790712"><ele>170.6</ele><time>2026-04-25T07:14:16.764Z</time></trkpt><trkpt lat="45.5997152" lon="9.5791936"><ele>171.2</ele><time>2026-04-25T07:14:17.764Z</time></trkpt><trkpt lat="45.5997879" lon="9.5792851"><ele>171.8</ele><time>2026-04-25T07:14:18.763Z</time></trkpt><trkpt lat="45.5998806" lon="9.5793468"><ele>172.4</ele><time>2026-04-25T07:14:19.764Z</time></trkpt><trkpt lat="45.5999803" lon="9.5793975"><ele>173.0</ele><time>2026-04-25T07:14:20.763Z</time></trkpt><trkpt lat="45.6000886" lon="9.5794527"><ele>173.0</ele><time>2026-04-25T07:14:21.764Z</time></trkpt><trkpt lat="45.6001983" lon="9.5795085"><ele>173.0</ele><time>2026-04-25T07:14:22.763Z</time></trkpt><trkpt lat="45.6003082" lon="9.5795612"><ele>173.0</ele><time>2026-04-25T07:14:23.763Z</time></trkpt><trkpt lat="45.6004246" lon="9.5796125"><ele>173.0</ele><time>2026-04-25T07:14:24.763Z</time></trkpt><trkpt lat="45.6005439" lon="9.5796611"><ele>172.5</ele><time>2026-04-25T07:14:25.764Z</time></trkpt><trkpt lat="45.6006654" lon="9.579705"><ele>172.0</ele><time>2026-04-25T07:14:26.764Z</time></trkpt><trkpt lat="45.6007854" lon="9.5797398"><ele>171.5</ele><time>2026-04-25T07:14:27.763Z</time></trkpt><trkpt lat="45.6009055" lon="9.5797691"><ele>171.0</ele><time>2026-04-25T07:14:28.764Z</time></trkpt><trkpt lat="45.6010216" lon="9.5797939"><ele>171.0</ele><time>2026-04-25T07:14:29.764Z</time></trkpt><trkpt lat="45.6011375" lon="9.5798178"><ele>171.0</ele><time>2026-04-25T07:14:30.764Z</time></trkpt><trkpt lat="45.6012502" lon="9.5798371"><ele>171.0</ele><time>2026-04-25T07:14:31.764Z</time></trkpt><trkpt lat="45.6013631" lon="9.579858"><ele>171.0</ele><time>2026-04-25T07:14:32.763Z</time></trkpt><trkpt lat="45.601475" lon="9.5798808"><ele>171.0</ele><time>2026-04-25T07:14:33.764Z</time></trkpt><trkpt lat="45.6015915" lon="9.5799001"><ele>171.0</ele><time>2026-04-25T07:14:34.764Z</time></trkpt><trkpt lat="45.6017086" lon="9.5799238"><ele>171.0</ele><time>2026-04-25T07:14:35.764Z</time></trkpt><trkpt lat="45.601828" lon="9.579948"><ele>171.0</ele><time>2026-04-25T07:14:36.764Z</time></trkpt><trkpt lat="45.6019464" lon="9.5799703"><ele>171.0</ele><time>2026-04-25T07:14:37.763Z</time></trkpt><trkpt lat="45.6020639" lon="9.5799937"><ele>171.0</ele><time>2026-04-25T07:14:38.764Z</time></trkpt><trkpt lat="45.6021832" lon="9.5800177"><ele>171.0</ele><time>2026-04-25T07:14:39.763Z</time></trkpt><trkpt lat="45.6023055" lon="9.5800451"><ele>171.0</ele><time>2026-04-25T07:14:40.764Z</time></trkpt><trkpt lat="45.6024249" lon="9.5800728"><ele>171.0</ele><time>2026-04-25T07:14:41.763Z</time></trkpt><trkpt lat="45.6025434" lon="9.5801087"><ele>171.0</ele><time>2026-04-25T07:14:42.764Z</time></trkpt><trkpt lat="45.6026583" lon="9.5801583"><ele>171.0</ele><time>2026-04-25T07:14:43.763Z</time></trkpt><trkpt lat="45.6027731" lon="9.580225"><ele>171.0</ele><time>2026-04-25T07:14:44.764Z</time></trkpt><trkpt lat="45.6028804" lon="9.5803102"><ele>171.5</ele><time>2026-04-25T07:14:45.763Z</time></trkpt><trkpt lat="45.6029862" lon="9.5804078"><ele>172.0</ele><time>2026-04-25T07:14:46.763Z</time></trkpt><trkpt lat="45.6030891" lon="9.5805096"><ele>172.5</ele><time>2026-04-25T07:14:47.764Z</time></trkpt><trkpt lat="45.6031932" lon="9.5806128"><ele>173.0</ele><time>2026-04-25T07:14:48.763Z</time></trkpt><trkpt lat="45.6032971" lon="9.5807159"><ele>173.0</ele><time>2026-04-25T07:14:49.763Z</time></trkpt><trkpt lat="45.603401" lon="9.5808154"><ele>173.0</ele><time>2026-04-25T07:14:50.763Z</time></trkpt><trkpt lat="45.6035037" lon="9.5809154"><ele>173.0</ele><time>2026-04-25T07:14:51.763Z</time></trkpt><trkpt lat="45.6036042" lon="9.5810117"><ele>173.0</ele><time>2026-04-25T07:14:52.764Z</time></trkpt><trkpt lat="45.6037056" lon="9.5811087"><ele>173.25</ele><time>2026-04-25T07:14:53.764Z</time></trkpt><trkpt lat="45.6038062" lon="9.5812029"><ele>173.5</ele><time>2026-04-25T07:14:54.764Z</time></trkpt><trkpt lat="45.6039037" lon="9.581299"><ele>173.75</ele><time>2026-04-25T07:14:55.764Z</time></trkpt><trkpt lat="45.6040036" lon="9.5813958"><ele>174.0</ele><time>2026-04-25T07:14:56.763Z</time></trkpt><trkpt lat="45.6041043" lon="9.5814915"><ele>174.0</ele><time>2026-04-25T07:14:57.764Z</time></trkpt><trkpt lat="45.6042053" lon="9.5815812"><ele>174.0</ele><time>2026-04-25T07:14:58.763Z</time></trkpt><trkpt lat="45.6043085" lon="9.581674"><ele>174.0</ele><time>2026-04-25T07:14:59.763Z</time></trkpt><trkpt lat="45.6044086" lon="9.5817673"><ele>174.0</ele><time>2026-04-25T07:15:00.763Z</time></trkpt><trkpt lat="45.6045085" lon="9.5818614"><ele>173.75</ele><time>2026-04-25T07:15:01.764Z</time></trkpt><trkpt lat="45.6046071" lon="9.5819547"><ele>173.5</ele><time>2026-04-25T07:15:02.764Z</time></trkpt><trkpt lat="45.6047042" lon="9.5820496"><ele>173.25</ele><time>2026-04-25T07:15:03.763Z</time></trkpt><trkpt lat="45.6048012" lon="9.5821463"><ele>173.0</ele><time>2026-04-25T07:15:04.764Z</time></trkpt><trkpt lat="45.6048982" lon="9.5822457"><ele>173.0</ele><time>2026-04-25T07:15:05.763Z</time></trkpt><trkpt lat="45.6049969" lon="9.5823412"><ele>173.0</ele><time>2026-04-25T07:15:06.763Z</time></trkpt><trkpt lat="45.6050974" lon="9.5824382"><ele>173.0</ele><time>2026-04-25T07:15:07.764Z</time></trkpt><trkpt lat="45.6051983" lon="9.5825332"><ele>173.0</ele><time>2026-04-25T07:15:08.763Z</time></trkpt><trkpt lat="45.6052967" lon="9.5826266"><ele>172.75</ele><time>2026-04-25T07:15:09.764Z</time></trkpt><trkpt lat="45.6053948" lon="9.5827205"><ele>172.5</ele><time>2026-04-25T07:15:10.763Z</time></trkpt><trkpt lat="45.6054912" lon="9.5828139"><ele>172.25</ele><time>2026-04-25T07:15:11.764Z</time></trkpt><trkpt lat="45.6055876" lon="9.5829084"><ele>172.0</ele><time>2026-04-25T07:15:12.763Z</time></trkpt><trkpt lat="45.6056818" lon="9.582998"><ele>172.0</ele><time>2026-04-25T07:15:13.763Z</time></trkpt><trkpt lat="45.6057692" lon="9.5830829"><ele>172.0</ele><time>2026-04-25T07:15:14.763Z</time></trkpt><trkpt lat="45.6058537" lon="9.5831665"><ele>172.0</ele><time>2026-04-25T07:15:15.763Z</time></trkpt><trkpt lat="45.6059332" lon="9.5832466"><ele>172.0</ele><time>2026-04-25T07:15:16.763Z</time></trkpt><trkpt lat="45.6060076" lon="9.5833246"><ele>172.0</ele><time>2026-04-25T07:15:17.764Z</time></trkpt><trkpt lat="45.6060806" lon="9.583401"><ele>172.0</ele><time>2026-04-25T07:15:18.763Z</time></trkpt><trkpt lat="45.6061536" lon="9.5834772"><ele>172.0</ele><time>2026-04-25T07:15:19.763Z</time></trkpt><trkpt lat="45.6062255" lon="9.5835512"><ele>172.0</ele><time>2026-04-25T07:15:20.764Z</time></trkpt><trkpt lat="45.6062949" lon="9.5836228"><ele>172.0</ele><time>2026-04-25T07:15:21.763Z</time></trkpt><trkpt lat="45.6063576" lon="9.583693"><ele>172.0</ele><time>2026-04-25T07:15:22.764Z</time></trkpt><trkpt lat="45.6064107" lon="9.5837598"><ele>172.0</ele><time>2026-04-25T07:15:23.763Z</time></trkpt><trkpt lat="45.6064878" lon="9.5839061"><ele>171.6</ele><time>2026-04-25T07:15:25.763Z</time></trkpt><trkpt lat="45.606513" lon="9.5840147"><ele>171.2</ele><time>2026-04-25T07:15:26.764Z</time></trkpt><trkpt lat="45.6065427" lon="9.5841456"><ele>170.8</ele><time>2026-04-25T07:15:27.764Z</time></trkpt><trkpt lat="45.6065824" lon="9.5842699"><ele>170.4</ele><time>2026-04-25T07:15:28.764Z</time></trkpt><trkpt lat="45.6066466" lon="9.5843784"><ele>170.0</ele><time>2026-04-25T07:15:29.763Z</time></trkpt><trkpt lat="45.6067272" lon="9.5844594"><ele>170.0</ele><time>2026-04-25T07:15:30.763Z</time></trkpt><trkpt lat="45.6068207" lon="9.5845119"><ele>170.0</ele><time>2026-04-25T07:15:31.763Z</time></trkpt><trkpt lat="45.606921" lon="9.5845269"><ele>170.0</ele><time>2026-04-25T07:15:32.764Z</time></trkpt><trkpt lat="45.6070243" lon="9.5845194"><ele>170.0</ele><time>2026-04-25T07:15:33.763Z</time></trkpt><trkpt lat="45.6071292" lon="9.5845172"><ele>170.0</ele><time>2026-04-25T07:15:34.763Z</time></trkpt><trkpt lat="45.6072267" lon="9.5845484"><ele>170.8</ele><time>2026-04-25T07:15:35.764Z</time></trkpt><trkpt lat="45.6073196" lon="9.5846092"><ele>171.6</ele><time>2026-04-25T07:15:36.763Z</time></trkpt><trkpt lat="45.607412" lon="9.5846879"><ele>172.39999999999998</ele><time>2026-04-25T07:15:37.764Z</time></trkpt><trkpt lat="45.6075039" lon="9.5847765"><ele>173.2</ele><time>2026-04-25T07:15:38.763Z</time></trkpt><trkpt lat="45.6075948" lon="9.5848683"><ele>174.0</ele><time>2026-04-25T07:15:39.763Z</time></trkpt><trkpt lat="45.6076857" lon="9.5849625"><ele>174.0</ele><time>2026-04-25T07:15:40.764Z</time></trkpt><trkpt lat="45.6077727" lon="9.5850548"><ele>174.0</ele><time>2026-04-25T07:15:41.763Z</time></trkpt><trkpt lat="45.607857" lon="9.58515"><ele>174.0</ele><time>2026-04-25T07:15:42.763Z</time></trkpt><trkpt lat="45.6079412" lon="9.5852464"><ele>174.0</ele><time>2026-04-25T07:15:43.763Z</time></trkpt><trkpt lat="45.6080243" lon="9.5853475"><ele>174.0</ele><time>2026-04-25T07:15:44.764Z</time></trkpt><trkpt lat="45.6081067" lon="9.5854524"><ele>174.5</ele><time>2026-04-25T07:15:45.764Z</time></trkpt><trkpt lat="45.6081877" lon="9.5855614"><ele>175.0</ele><time>2026-04-25T07:15:46.763Z</time></trkpt><trkpt lat="45.6082677" lon="9.5856766"><ele>175.5</ele><time>2026-04-25T07:15:47.764Z</time></trkpt><trkpt lat="45.6083496" lon="9.5857938"><ele>176.0</ele><time>2026-04-25T07:15:48.764Z</time></trkpt><trkpt lat="45.6084316" lon="9.5859098"><ele>176.0</ele><time>2026-04-25T07:15:49.764Z</time></trkpt><trkpt lat="45.6085098" lon="9.5860231"><ele>176.0</ele><time>2026-04-25T07:15:50.763Z</time></trkpt><trkpt lat="45.6085891" lon="9.5861375"><ele>176.0</ele><time>2026-04-25T07:15:51.764Z</time></trkpt><trkpt lat="45.6086676" lon="9.5862537"><ele>176.0</ele><time>2026-04-25T07:15:52.764Z</time></trkpt><trkpt lat="45.6087492" lon="9.5863762"><ele>176.25</ele><time>2026-04-25T07:15:53.763Z</time></trkpt><trkpt lat="45.608835" lon="9.5864995"><ele>176.5</ele><time>2026-04-25T07:15:54.764Z</time></trkpt><trkpt lat="45.608924" lon="9.5866273"><ele>176.75</ele><time>2026-04-25T07:15:55.763Z</time></trkpt><trkpt lat="45.6090136" lon="9.5867561"><ele>177.0</ele><time>2026-04-25T07:15:56.764Z</time></trkpt><trkpt lat="45.6091039" lon="9.5868904"><ele>177.0</ele><time>2026-04-25T07:15:57.763Z</time></trkpt><trkpt lat="45.6091967" lon="9.5870229"><ele>177.0</ele><time>2026-04-25T07:15:58.763Z</time></trkpt><trkpt lat="45.6092917" lon="9.5871587"><ele>177.0</ele><time>2026-04-25T07:15:59.763Z</time></trkpt><trkpt lat="45.6093855" lon="9.5872944"><ele>177.0</ele><time>2026-04-25T07:16:00.763Z</time></trkpt><trkpt lat="45.6094793" lon="9.5874299"><ele>177.0</ele><time>2026-04-25T07:16:01.764Z</time></trkpt><trkpt lat="45.6095727" lon="9.5875604"><ele>177.0</ele><time>2026-04-25T07:16:02.764Z</time></trkpt><trkpt lat="45.6096659" lon="9.5876914"><ele>177.0</ele><time>2026-04-25T07:16:03.763Z</time></trkpt><trkpt lat="45.6097605" lon="9.5878228"><ele>177.0</ele><time>2026-04-25T07:16:04.763Z</time></trkpt><trkpt lat="45.6098553" lon="9.5879564"><ele>177.25</ele><time>2026-04-25T07:16:05.764Z</time></trkpt><trkpt lat="45.6099511" lon="9.5880903"><ele>177.5</ele><time>2026-04-25T07:16:06.764Z</time></trkpt><trkpt lat="45.6100436" lon="9.5882203"><ele>177.75</ele><time>2026-04-25T07:16:07.763Z</time></trkpt><trkpt lat="45.6101323" lon="9.588349"><ele>178.0</ele><time>2026-04-25T07:16:08.764Z</time></trkpt><trkpt lat="45.6102189" lon="9.588474"><ele>178.0</ele><time>2026-04-25T07:16:09.763Z</time></trkpt><trkpt lat="45.6102983" lon="9.588592"><ele>178.0</ele><time>2026-04-25T07:16:10.763Z</time></trkpt><trkpt lat="45.6103719" lon="9.5887067"><ele>178.0</ele><time>2026-04-25T07:16:11.764Z</time></trkpt><trkpt lat="45.6104405" lon="9.5888195"><ele>178.0</ele><time>2026-04-25T07:16:12.763Z</time></trkpt><trkpt lat="45.6105049" lon="9.5889249"><ele>178.0</ele><time>2026-04-25T07:16:13.764Z</time></trkpt><trkpt lat="45.6105608" lon="9.5890254"><ele>177.85714285714283</ele><time>2026-04-25T07:16:14.764Z</time></trkpt><trkpt lat="45.6105999" lon="9.589096"><ele>177.71428571428572</ele><time>2026-04-25T07:16:15.764Z</time></trkpt><trkpt lat="45.6106516" lon="9.5891932"><ele>177.57142857142856</ele><time>2026-04-25T07:16:17.764Z</time></trkpt><trkpt lat="45.6107001" lon="9.5892971"><ele>177.42857142857142</ele><time>2026-04-25T07:16:19.763Z</time></trkpt><trkpt lat="45.6107393" lon="9.589368"><ele>177.28571428571428</ele><time>2026-04-25T07:16:20.764Z</time></trkpt><trkpt lat="45.6107899" lon="9.5894349"><ele>177.14285714285714</ele><time>2026-04-25T07:16:21.764Z</time></trkpt><trkpt lat="45.6108538" lon="9.5894914"><ele>177.0</ele><time>2026-04-25T07:16:22.763Z</time></trkpt><trkpt lat="45.6109256" lon="9.5895495"><ele>177.0</ele><time>2026-04-25T07:16:23.764Z</time></trkpt><trkpt lat="45.611001" lon="9.5896232"><ele>177.0</ele><time>2026-04-25T07:16:24.764Z</time></trkpt><trkpt lat="45.61108" lon="9.5897128"><ele>177.0</ele><time>2026-04-25T07:16:25.763Z</time></trkpt><trkpt lat="45.6111647" lon="9.5898134"><ele>177.0</ele><time>2026-04-25T07:16:26.764Z</time></trkpt><trkpt lat="45.6112525" lon="9.5899284"><ele>177.0</ele><time>2026-04-25T07:16:27.763Z</time></trkpt><trkpt lat="45.6113464" lon="9.5900609"><ele>177.0</ele><time>2026-04-25T07:16:28.763Z</time></trkpt><trkpt lat="45.6114423" lon="9.5902062"><ele>177.0</ele><time>2026-04-25T07:16:29.764Z</time></trkpt><trkpt lat="45.6115356" lon="9.5903538"><ele>177.0</ele><time>2026-04-25T07:16:30.763Z</time></trkpt><trkpt lat="45.6116278" lon="9.5904925"><ele>177.0</ele><time>2026-04-25T07:16:31.763Z</time></trkpt><trkpt lat="45.6117162" lon="9.5906213"><ele>177.0</ele><time>2026-04-25T07:16:32.764Z</time></trkpt><trkpt lat="45.6117999" lon="9.5907422"><ele>177.0</ele><time>2026-04-25T07:16:33.764Z</time></trkpt><trkpt lat="45.6118806" lon="9.5908589"><ele>177.0</ele><time>2026-04-25T07:16:34.763Z</time></trkpt><trkpt lat="45.6119589" lon="9.5909749"><ele>177.0</ele><time>2026-04-25T07:16:35.764Z</time></trkpt><trkpt lat="45.6120387" lon="9.5910945"><ele>176.5</ele><time>2026-04-25T07:16:36.763Z</time></trkpt><trkpt lat="45.6121202" lon="9.5912123"><ele>176.0</ele><time>2026-04-25T07:16:37.764Z</time></trkpt><trkpt lat="45.6122061" lon="9.5913345"><ele>175.5</ele><time>2026-04-25T07:16:38.763Z</time></trkpt><trkpt lat="45.6122909" lon="9.5914587"><ele>175.0</ele><time>2026-04-25T07:16:39.764Z</time></trkpt><trkpt lat="45.6123772" lon="9.5915832"><ele>175.0</ele><time>2026-04-25T07:16:40.764Z</time></trkpt><trkpt lat="45.6124667" lon="9.5917119"><ele>175.0</ele><time>2026-04-25T07:16:41.763Z</time></trkpt><trkpt lat="45.6125581" lon="9.5918418"><ele>175.0</ele><time>2026-04-25T07:16:42.764Z</time></trkpt><trkpt lat="45.6126503" lon="9.5919735"><ele>175.0</ele><time>2026-04-25T07:16:43.763Z</time></trkpt><trkpt lat="45.6127408" lon="9.5921039"><ele>175.75</ele><time>2026-04-25T07:16:44.764Z</time></trkpt><trkpt lat="45.6128309" lon="9.5922356"><ele>176.5</ele><time>2026-04-25T07:16:45.763Z</time></trkpt><trkpt lat="45.6129197" lon="9.5923694"><ele>177.25</ele><time>2026-04-25T07:16:46.763Z</time></trkpt><trkpt lat="45.6130094" lon="9.5925005"><ele>178.0</ele><time>2026-04-25T07:16:47.763Z</time></trkpt><trkpt lat="45.6131002" lon="9.5926312"><ele>178.0</ele><time>2026-04-25T07:16:48.764Z</time></trkpt><trkpt lat="45.6131911" lon="9.5927633"><ele>178.0</ele><time>2026-04-25T07:16:49.763Z</time></trkpt><trkpt lat="45.6132826" lon="9.5928939"><ele>178.0</ele><time>2026-04-25T07:16:50.764Z</time></trkpt><trkpt lat="45.6133739" lon="9.5930259"><ele>178.0</ele><time>2026-04-25T07:16:51.763Z</time></trkpt><trkpt lat="45.6134659" lon="9.5931575"><ele>177.75</ele><time>2026-04-25T07:16:52.764Z</time></trkpt><trkpt lat="45.6135565" lon="9.5932893"><ele>177.5</ele><time>2026-04-25T07:16:53.763Z</time></trkpt><trkpt lat="45.6136467" lon="9.5934186"><ele>177.25</ele><time>2026-04-25T07:16:54.763Z</time></trkpt><trkpt lat="45.6137372" lon="9.5935505"><ele>177.0</ele><time>2026-04-25T07:16:55.763Z</time></trkpt><trkpt lat="45.6138284" lon="9.59368"><ele>177.5</ele><time>2026-04-25T07:16:56.764Z</time></trkpt><trkpt lat="45.6139211" lon="9.5938133"><ele>178.0</ele><time>2026-04-25T07:16:57.764Z</time></trkpt><trkpt lat="45.6140141" lon="9.5939472"><ele>178.5</ele><time>2026-04-25T07:16:58.764Z</time></trkpt><trkpt lat="45.614106" lon="9.5940785"><ele>179.0</ele><time>2026-04-25T07:16:59.763Z</time></trkpt><trkpt lat="45.6141978" lon="9.5942069"><ele>179.0</ele><time>2026-04-25T07:17:00.764Z</time></trkpt><trkpt lat="45.6142908" lon="9.5943312"><ele>179.0</ele><time>2026-04-25T07:17:01.764Z</time></trkpt><trkpt lat="45.6143819" lon="9.5944532"><ele>179.0</ele><time>2026-04-25T07:17:02.763Z</time></trkpt><trkpt lat="45.6144729" lon="9.5945697"><ele>179.0</ele><time>2026-04-25T07:17:03.763Z</time></trkpt><trkpt lat="45.6145645" lon="9.5946828"><ele>180.0</ele><time>2026-04-25T07:17:04.764Z</time></trkpt><trkpt lat="45.6146599" lon="9.5947919"><ele>181.0</ele><time>2026-04-25T07:17:05.763Z</time></trkpt><trkpt lat="45.6147607" lon="9.5948967"><ele>182.0</ele><time>2026-04-25T07:17:06.763Z</time></trkpt><trkpt lat="45.6148638" lon="9.5949949"><ele>183.0</ele><time>2026-04-25T07:17:07.763Z</time></trkpt><trkpt lat="45.6149663" lon="9.5950924"><ele>183.0</ele><time>2026-04-25T07:17:08.764Z</time></trkpt><trkpt lat="45.6150643" lon="9.5951818"><ele>183.0</ele><time>2026-04-25T07:17:09.763Z</time></trkpt><trkpt lat="45.6151574" lon="9.5952633"><ele>183.0</ele><time>2026-04-25T07:17:10.764Z</time></trkpt><trkpt lat="45.6152467" lon="9.5953363"><ele>183.0</ele><time>2026-04-25T07:17:11.763Z</time></trkpt><trkpt lat="45.6153306" lon="9.5954043"><ele>183.0</ele><time>2026-04-25T07:17:12.764Z</time></trkpt><trkpt lat="45.6154087" lon="9.5954694"><ele>182.66666666666666</ele><time>2026-04-25T07:17:13.764Z</time></trkpt><trkpt lat="45.6154849" lon="9.595529"><ele>182.33333333333334</ele><time>2026-04-25T07:17:14.763Z</time></trkpt><trkpt lat="45.6155551" lon="9.5955822"><ele>182.0</ele><time>2026-04-25T07:17:15.764Z</time></trkpt><trkpt lat="45.615624" lon="9.5956336"><ele>181.66666666666669</ele><time>2026-04-25T07:17:16.763Z</time></trkpt><trkpt lat="45.6156841" lon="9.5956824"><ele>181.33333333333334</ele><time>2026-04-25T07:17:17.763Z</time></trkpt><trkpt lat="45.6157875" lon="9.5958009"><ele>181.0</ele><time>2026-04-25T07:17:19.764Z</time></trkpt><trkpt lat="45.6158404" lon="9.5958853"><ele>181.0</ele><time>2026-04-25T07:17:20.763Z</time></trkpt><trkpt lat="45.6158934" lon="9.5959751"><ele>181.0</ele><time>2026-04-25T07:17:21.763Z</time></trkpt><trkpt lat="45.615953" lon="9.5960458"><ele>181.0</ele><time>2026-04-25T07:17:22.764Z</time></trkpt><trkpt lat="45.6160256" lon="9.5960804"><ele>181.0</ele><time>2026-04-25T07:17:23.763Z</time></trkpt><trkpt lat="45.6160953" lon="9.5960752"><ele>181.0</ele><time>2026-04-25T07:17:24.764Z</time></trkpt><trkpt lat="45.6161932" lon="9.5960258"><ele>181.0</ele><time>2026-04-25T07:17:26.763Z</time></trkpt><trkpt lat="45.6163066" lon="9.5959946"><ele>180.83333333333334</ele><time>2026-04-25T07:17:28.763Z</time></trkpt><trkpt lat="45.6163805" lon="9.5959993"><ele>180.66666666666669</ele><time>2026-04-25T07:17:29.763Z</time></trkpt><trkpt lat="45.6164619" lon="9.5960141"><ele>180.5</ele><time>2026-04-25T07:17:30.763Z</time></trkpt><trkpt lat="45.616546" lon="9.5960318"><ele>180.33333333333334</ele><time>2026-04-25T07:17:31.763Z</time></trkpt><trkpt lat="45.6166307" lon="9.5960558"><ele>180.16666666666666</ele><time>2026-04-25T07:17:32.763Z</time></trkpt><trkpt lat="45.6167174" lon="9.5960803"><ele>180.0</ele><time>2026-04-25T07:17:33.763Z</time></trkpt><trkpt lat="45.6168051" lon="9.5961047"><ele>180.0</ele><time>2026-04-25T07:17:34.763Z</time></trkpt><trkpt lat="45.616891" lon="9.5961308"><ele>180.0</ele><time>2026-04-25T07:17:35.763Z</time></trkpt><trkpt lat="45.616977" lon="9.5961585"><ele>180.0</ele><time>2026-04-25T07:17:36.763Z</time></trkpt><trkpt lat="45.6170612" lon="9.5961832"><ele>180.0</ele><time>2026-04-25T07:17:37.764Z</time></trkpt><trkpt lat="45.6171387" lon="9.596204"><ele>180.0</ele><time>2026-04-25T07:17:38.764Z</time></trkpt><trkpt lat="45.6172142" lon="9.5962259"><ele>180.0</ele><time>2026-04-25T07:17:39.763Z</time></trkpt><trkpt lat="45.6172912" lon="9.596247"><ele>180.33333333333334</ele><time>2026-04-25T07:17:40.764Z</time></trkpt><trkpt lat="45.6173716" lon="9.5962696"><ele>180.66666666666666</ele><time>2026-04-25T07:17:41.763Z</time></trkpt><trkpt lat="45.6174539" lon="9.5962937"><ele>181.0</ele><time>2026-04-25T07:17:42.764Z</time></trkpt><trkpt lat="45.6175355" lon="9.5963172"><ele>181.33333333333331</ele><time>2026-04-25T07:17:43.764Z</time></trkpt><trkpt lat="45.6176205" lon="9.5963414"><ele>181.66666666666666</ele><time>2026-04-25T07:17:44.763Z</time></trkpt><trkpt lat="45.6177039" lon="9.59637"><ele>182.0</ele><time>2026-04-25T07:17:45.764Z</time></trkpt><trkpt lat="45.6177859" lon="9.5963975"><ele>182.0</ele><time>2026-04-25T07:17:46.764Z</time></trkpt><trkpt lat="45.6178621" lon="9.5964199"><ele>182.0</ele><time>2026-04-25T07:17:47.763Z</time></trkpt><trkpt lat="45.6179408" lon="9.5964416"><ele>182.0</ele><time>2026-04-25T07:17:48.764Z</time></trkpt><trkpt lat="45.6180144" lon="9.5964617"><ele>182.0</ele><time>2026-04-25T07:17:49.763Z</time></trkpt><trkpt lat="45.6180828" lon="9.5964802"><ele>182.0</ele><time>2026-04-25T07:17:50.763Z</time></trkpt><trkpt lat="45.6181495" lon="9.596501"><ele>182.0</ele><time>2026-04-25T07:17:51.763Z</time></trkpt><trkpt lat="45.6182232" lon="9.5965242"><ele>182.0</ele><time>2026-04-25T07:17:52.763Z</time></trkpt><trkpt lat="45.618299" lon="9.5965527"><ele>182.0</ele><time>2026-04-25T07:17:53.764Z</time></trkpt><trkpt lat="45.6183751" lon="9.5965887"><ele>182.0</ele><time>2026-04-25T07:17:54.763Z</time></trkpt><trkpt lat="45.6184458" lon="9.5966361"><ele>182.0</ele><time>2026-04-25T07:17:55.764Z</time></trkpt><trkpt lat="45.6185104" lon="9.5966918"><ele>182.0</ele><time>2026-04-25T07:17:56.764Z</time></trkpt><trkpt lat="45.6185677" lon="9.5967439"><ele>182.0</ele><time>2026-04-25T07:17:57.764Z</time></trkpt><trkpt lat="45.6186714" lon="9.5967788"><ele>182.0</ele><time>2026-04-25T07:17:59.763Z</time></trkpt><trkpt lat="45.6187911" lon="9.5967438"><ele>182.5</ele><time>2026-04-25T07:18:01.763Z</time></trkpt><trkpt lat="45.6188648" lon="9.5967416"><ele>183.0</ele><time>2026-04-25T07:18:02.764Z</time></trkpt><trkpt lat="45.6189479" lon="9.5967546"><ele>183.5</ele><time>2026-04-25T07:18:03.763Z</time></trkpt><trkpt lat="45.6190357" lon="9.5967711"><ele>184.0</ele><time>2026-04-25T07:18:04.763Z</time></trkpt><trkpt lat="45.6191276" lon="9.5967904"><ele>184.5</ele><time>2026-04-25T07:18:05.764Z</time></trkpt><trkpt lat="45.6192252" lon="9.5968144"><ele>185.0</ele><time>2026-04-25T07:18:06.763Z</time></trkpt><trkpt lat="45.6193266" lon="9.5968382"><ele>185.0</ele><time>2026-04-25T07:18:07.763Z</time></trkpt><trkpt lat="45.6194275" lon="9.5968688"><ele>185.0</ele><time>2026-04-25T07:18:08.764Z</time></trkpt><trkpt lat="45.6195283" lon="9.596898"><ele>185.0</ele><time>2026-04-25T07:18:09.764Z</time></trkpt><trkpt lat="45.6196283" lon="9.5969299"><ele>185.0</ele><time>2026-04-25T07:18:10.764Z</time></trkpt><trkpt lat="45.6197266" lon="9.5969574"><ele>185.0</ele><time>2026-04-25T07:18:11.763Z</time></trkpt><trkpt lat="45.6198255" lon="9.5969836"><ele>184.4</ele><time>2026-04-25T07:18:12.764Z</time></trkpt><trkpt lat="45.6199235" lon="9.5970139"><ele>183.8</ele><time>2026-04-25T07:18:13.763Z</time></trkpt><trkpt lat="45.6200242" lon="9.5970381"><ele>183.2</ele><time>2026-04-25T07:18:14.763Z</time></trkpt><trkpt lat="45.620126" lon="9.5970659"><ele>182.6</ele><time>2026-04-25T07:18:15.764Z</time></trkpt><trkpt lat="45.6202279" lon="9.5970899"><ele>182.0</ele><time>2026-04-25T07:18:16.763Z</time></trkpt><trkpt lat="45.6203268" lon="9.5971146"><ele>182.0</ele><time>2026-04-25T07:18:17.764Z</time></trkpt><trkpt lat="45.6204246" lon="9.5971381"><ele>182.0</ele><time>2026-04-25T07:18:18.763Z</time></trkpt><trkpt lat="45.6205218" lon="9.5971649"><ele>182.0</ele><time>2026-04-25T07:18:19.763Z</time></trkpt><trkpt lat="45.6206247" lon="9.5971913"><ele>182.0</ele><time>2026-04-25T07:18:20.764Z</time></trkpt><trkpt lat="45.6207233" lon="9.5972145"><ele>182.0</ele><time>2026-04-25T07:18:21.764Z</time></trkpt><trkpt lat="45.6207997" lon="9.5972325"><ele>182.0</ele><time>2026-04-25T07:18:22.763Z</time></trkpt><trkpt lat="45.6208802" lon="9.5972537"><ele>182.0</ele><time>2026-04-25T07:18:24.763Z</time></trkpt><trkpt lat="45.6209444" lon="9.5972713"><ele>182.0</ele><time>2026-04-25T07:18:26.763Z</time></trkpt><trkpt lat="45.6210304" lon="9.5972932"><ele>182.0</ele><time>2026-04-25T07:18:28.763Z</time></trkpt><trkpt lat="45.6211287" lon="9.5973242"><ele>182.0</ele><time>2026-04-25T07:18:30.763Z</time></trkpt><trkpt lat="45.6212216" lon="9.597356"><ele>182.0</ele><time>2026-04-25T07:18:32.764Z</time></trkpt><trkpt lat="45.6213042" lon="9.5974066"><ele>182.33333333333331</ele><time>2026-04-25T07:18:34.764Z</time></trkpt><trkpt lat="45.6214049" lon="9.5975208"><ele>182.66666666666666</ele><time>2026-04-25T07:18:36.764Z</time></trkpt><trkpt lat="45.6214582" lon="9.5975712"><ele>183.0</ele><time>2026-04-25T07:18:37.764Z</time></trkpt><trkpt lat="45.6215189" lon="9.5976029"><ele>183.33333333333334</ele><time>2026-04-25T07:18:38.763Z</time></trkpt><trkpt lat="45.6215853" lon="9.5976064"><ele>183.66666666666669</ele><time>2026-04-25T07:18:39.763Z</time></trkpt><trkpt lat="45.6216508" lon="9.5975862"><ele>184.0</ele><time>2026-04-25T07:18:40.764Z</time></trkpt><trkpt lat="45.6217217" lon="9.5975648"><ele>184.0</ele><time>2026-04-25T07:18:41.763Z</time></trkpt><trkpt lat="45.6218059" lon="9.5975549"><ele>184.0</ele><time>2026-04-25T07:18:42.763Z</time></trkpt><trkpt lat="45.621898" lon="9.5975671"><ele>184.0</ele><time>2026-04-25T07:18:43.763Z</time></trkpt><trkpt lat="45.6219937" lon="9.5975915"><ele>184.0</ele><time>2026-04-25T07:18:44.764Z</time></trkpt><trkpt lat="45.6220952" lon="9.5976204"><ele>184.0</ele><time>2026-04-25T07:18:45.764Z</time></trkpt><trkpt lat="45.6221994" lon="9.5976536"><ele>183.5</ele><time>2026-04-25T07:18:46.763Z</time></trkpt><trkpt lat="45.6223089" lon="9.5976847"><ele>183.0</ele><time>2026-04-25T07:18:47.764Z</time></trkpt><trkpt lat="45.6224183" lon="9.5977197"><ele>182.5</ele><time>2026-04-25T07:18:48.764Z</time></trkpt><trkpt lat="45.6225319" lon="9.5977582"><ele>182.0</ele><time>2026-04-25T07:18:49.763Z</time></trkpt><trkpt lat="45.6226457" lon="9.5978006"><ele>182.0</ele><time>2026-04-25T07:18:50.763Z</time></trkpt><trkpt lat="45.6227598" lon="9.5978436"><ele>182.0</ele><time>2026-04-25T07:18:51.763Z</time></trkpt><trkpt lat="45.6228767" lon="9.5978884"><ele>182.0</ele><time>2026-04-25T07:18:52.764Z</time></trkpt><trkpt lat="45.6229934" lon="9.5979371"><ele>182.0</ele><time>2026-04-25T07:18:53.763Z</time></trkpt><trkpt lat="45.6231116" lon="9.5979875"><ele>182.0</ele><time>2026-04-25T07:18:54.763Z</time></trkpt><trkpt lat="45.623228" lon="9.5980441"><ele>182.0</ele><time>2026-04-25T07:18:55.763Z</time></trkpt><trkpt lat="45.6233437" lon="9.5981062"><ele>182.0</ele><time>2026-04-25T07:18:56.764Z</time></trkpt><trkpt lat="45.6234586" lon="9.5981722"><ele>182.0</ele><time>2026-04-25T07:18:57.763Z</time></trkpt><trkpt lat="45.6235755" lon="9.5982428"><ele>182.0</ele><time>2026-04-25T07:18:58.764Z</time></trkpt><trkpt lat="45.6236867" lon="9.5983193"><ele>182.0</ele><time>2026-04-25T07:18:59.764Z</time></trkpt><trkpt lat="45.6237944" lon="9.5983983"><ele>182.0</ele><time>2026-04-25T07:19:00.763Z</time></trkpt><trkpt lat="45.6238958" lon="9.5984749"><ele>182.0</ele><time>2026-04-25T07:19:01.763Z</time></trkpt><trkpt lat="45.6239925" lon="9.5985493"><ele>182.0</ele><time>2026-04-25T07:19:02.763Z</time></trkpt><trkpt lat="45.6240849" lon="9.5986221"><ele>182.0</ele><time>2026-04-25T07:19:03.764Z</time></trkpt><trkpt lat="45.6241703" lon="9.5986911"><ele>182.0</ele><time>2026-04-25T07:19:04.763Z</time></trkpt><trkpt lat="45.6242483" lon="9.5987554"><ele>182.0</ele><time>2026-04-25T07:19:05.764Z</time></trkpt><trkpt lat="45.62432" lon="9.5988169"><ele>182.0</ele><time>2026-04-25T07:19:06.764Z</time></trkpt><trkpt lat="45.6243858" lon="9.5988711"><ele>182.16666666666666</ele><time>2026-04-25T07:19:07.763Z</time></trkpt><trkpt lat="45.6244497" lon="9.5989246"><ele>182.33333333333331</ele><time>2026-04-25T07:19:08.764Z</time></trkpt><trkpt lat="45.6245123" lon="9.598988"><ele>182.5</ele><time>2026-04-25T07:19:09.764Z</time></trkpt><trkpt lat="45.6245677" lon="9.5990685"><ele>182.66666666666666</ele><time>2026-04-25T07:19:10.764Z</time></trkpt><trkpt lat="45.6246203" lon="9.5991559"><ele>182.83333333333334</ele><time>2026-04-25T07:19:11.763Z</time></trkpt><trkpt lat="45.624689" lon="9.5992363"><ele>183.0</ele><time>2026-04-25T07:19:12.764Z</time></trkpt><trkpt lat="45.6247696" lon="9.5992869"><ele>183.0</ele><time>2026-04-25T07:19:13.763Z</time></trkpt><trkpt lat="45.6248564" lon="9.5993176"><ele>183.0</ele><time>2026-04-25T07:19:14.764Z</time></trkpt><trkpt lat="45.6249452" lon="9.5993557"><ele>183.0</ele><time>2026-04-25T07:19:15.763Z</time></trkpt><trkpt lat="45.6250326" lon="9.5994108"><ele>183.0</ele><time>2026-04-25T07:19:16.763Z</time></trkpt><trkpt lat="45.625122" lon="9.5994759"><ele>183.0</ele><time>2026-04-25T07:19:17.764Z</time></trkpt><trkpt lat="45.6252151" lon="9.5995476"><ele>183.25</ele><time>2026-04-25T07:19:18.763Z</time></trkpt><trkpt lat="45.6253103" lon="9.599624"><ele>183.5</ele><time>2026-04-25T07:19:19.763Z</time></trkpt><trkpt lat="45.6254083" lon="9.5997024"><ele>183.75</ele><time>2026-04-25T07:19:20.763Z</time></trkpt><trkpt lat="45.6255075" lon="9.5997815"><ele>184.0</ele><time>2026-04-25T07:19:21.763Z</time></trkpt><trkpt lat="45.6256079" lon="9.5998619"><ele>184.5</ele><time>2026-04-25T07:19:22.764Z</time></trkpt><trkpt lat="45.6257081" lon="9.5999421"><ele>185.0</ele><time>2026-04-25T07:19:23.764Z</time></trkpt><trkpt lat="45.6258075" lon="9.6000232"><ele>185.5</ele><time>2026-04-25T07:19:24.764Z</time></trkpt><trkpt lat="45.6259055" lon="9.6001061"><ele>186.0</ele><time>2026-04-25T07:19:25.764Z</time></trkpt><trkpt lat="45.6260051" lon="9.6001879"><ele>186.0</ele><time>2026-04-25T07:19:26.763Z</time></trkpt><trkpt lat="45.6261039" lon="9.6002684"><ele>186.0</ele><time>2026-04-25T07:19:27.764Z</time></trkpt><trkpt lat="45.6262037" lon="9.600351"><ele>186.0</ele><time>2026-04-25T07:19:28.763Z</time></trkpt><trkpt lat="45.6263032" lon="9.6004338"><ele>186.0</ele><time>2026-04-25T07:19:29.764Z</time></trkpt><trkpt lat="45.626403" lon="9.6005158"><ele>186.0</ele><time>2026-04-25T07:19:30.764Z</time></trkpt><trkpt lat="45.6265017" lon="9.6005944"><ele>186.0</ele><time>2026-04-25T07:19:31.764Z</time></trkpt><trkpt lat="45.6265992" lon="9.6006763"><ele>186.0</ele><time>2026-04-25T07:19:32.763Z</time></trkpt><trkpt lat="45.6266986" lon="9.6007549"><ele>186.0</ele><time>2026-04-25T07:19:33.764Z</time></trkpt><trkpt lat="45.6267966" lon="9.6008326"><ele>186.0</ele><time>2026-04-25T07:19:34.764Z</time></trkpt><trkpt lat="45.6268941" lon="9.6009122"><ele>186.0</ele><time>2026-04-25T07:19:35.763Z</time></trkpt><trkpt lat="45.6269927" lon="9.6009922"><ele>186.0</ele><time>2026-04-25T07:19:36.763Z</time></trkpt><trkpt lat="45.627091" lon="9.6010744"><ele>186.0</ele><time>2026-04-25T07:19:37.763Z</time></trkpt><trkpt lat="45.6271904" lon="9.6011545"><ele>186.5</ele><time>2026-04-25T07:19:38.764Z</time></trkpt><trkpt lat="45.6272878" lon="9.6012379"><ele>187.0</ele><time>2026-04-25T07:19:39.763Z</time></trkpt><trkpt lat="45.6273869" lon="9.601319"><ele>187.5</ele><time>2026-04-25T07:19:40.763Z</time></trkpt><trkpt lat="45.6274856" lon="9.6013994"><ele>188.0</ele><time>2026-04-25T07:19:41.764Z</time></trkpt><trkpt lat="45.6275878" lon="9.601479"><ele>188.0</ele><time>2026-04-25T07:19:42.764Z</time></trkpt><trkpt lat="45.6276922" lon="9.6015652"><ele>188.0</ele><time>2026-04-25T07:19:43.763Z</time></trkpt><trkpt lat="45.6277972" lon="9.6016507"><ele>188.0</ele><time>2026-04-25T07:19:44.763Z</time></trkpt><trkpt lat="45.6279032" lon="9.601738"><ele>188.0</ele><time>2026-04-25T07:19:45.763Z</time></trkpt><trkpt lat="45.6280114" lon="9.6018239"><ele>187.75</ele><time>2026-04-25T07:19:46.764Z</time></trkpt><trkpt lat="45.6281166" lon="9.6019098"><ele>187.5</ele><time>2026-04-25T07:19:47.763Z</time></trkpt><trkpt lat="45.6282216" lon="9.6019936"><ele>187.25</ele><time>2026-04-25T07:19:48.763Z</time></trkpt><trkpt lat="45.62833" lon="9.6020786"><ele>187.0</ele><time>2026-04-25T07:19:49.763Z</time></trkpt><trkpt lat="45.6284368" lon="9.6021651"><ele>186.75</ele><time>2026-04-25T07:19:50.763Z</time></trkpt><trkpt lat="45.6285418" lon="9.6022517"><ele>186.5</ele><time>2026-04-25T07:19:51.764Z</time></trkpt><trkpt lat="45.6286466" lon="9.6023374"><ele>186.25</ele><time>2026-04-25T07:19:52.763Z</time></trkpt><trkpt lat="45.6287497" lon="9.6024235"><ele>186.0</ele><time>2026-04-25T07:19:53.764Z</time></trkpt><trkpt lat="45.6288532" lon="9.602505"><ele>186.0</ele><time>2026-04-25T07:19:54.763Z</time></trkpt><trkpt lat="45.6289528" lon="9.6025867"><ele>186.0</ele><time>2026-04-25T07:19:55.764Z</time></trkpt><trkpt lat="45.6290503" lon="9.6026689"><ele>186.0</ele><time>2026-04-25T07:19:56.764Z</time></trkpt><trkpt lat="45.6291406" lon="9.6027489"><ele>186.0</ele><time>2026-04-25T07:19:57.763Z</time></trkpt><trkpt lat="45.6292227" lon="9.6028223"><ele>186.0</ele><time>2026-04-25T07:19:58.764Z</time></trkpt><trkpt lat="45.6293002" lon="9.6028886"><ele>186.0</ele><time>2026-04-25T07:19:59.763Z</time></trkpt><trkpt lat="45.6293708" lon="9.6029512"><ele>186.0</ele><time>2026-04-25T07:20:00.764Z</time></trkpt><trkpt lat="45.6294338" lon="9.6030169"><ele>186.0</ele><time>2026-04-25T07:20:01.763Z</time></trkpt><trkpt lat="45.629495" lon="9.6030918"><ele>186.0</ele><time>2026-04-25T07:20:02.763Z</time></trkpt><trkpt lat="45.6295456" lon="9.6031855"><ele>186.0</ele><time>2026-04-25T07:20:03.764Z</time></trkpt><trkpt lat="45.6295918" lon="9.6032847"><ele>186.0</ele><time>2026-04-25T07:20:04.763Z</time></trkpt><trkpt lat="45.6296467" lon="9.6033729"><ele>186.0</ele><time>2026-04-25T07:20:05.763Z</time></trkpt><trkpt lat="45.6297099" lon="9.6034391"><ele>186.0</ele><time>2026-04-25T07:20:06.763Z</time></trkpt><trkpt lat="45.6297849" lon="9.6034847"><ele>186.0</ele><time>2026-04-25T07:20:07.763Z</time></trkpt><trkpt lat="45.6298638" lon="9.6035109"><ele>186.0</ele><time>2026-04-25T07:20:08.764Z</time></trkpt><trkpt lat="45.6299472" lon="9.6035301"><ele>186.0</ele><time>2026-04-25T07:20:09.763Z</time></trkpt><trkpt lat="45.6300327" lon="9.6035621"><ele>186.0</ele><time>2026-04-25T07:20:10.764Z</time></trkpt><trkpt lat="45.6301194" lon="9.6036124"><ele>186.0</ele><time>2026-04-25T07:20:11.763Z</time></trkpt><trkpt lat="45.6302137" lon="9.6036692"><ele>186.0</ele><time>2026-04-25T07:20:12.764Z</time></trkpt><trkpt lat="45.6303158" lon="9.6037276"><ele>186.0</ele><time>2026-04-25T07:20:13.764Z</time></trkpt><trkpt lat="45.63042" lon="9.6037915"><ele>186.0</ele><time>2026-04-25T07:20:14.764Z</time></trkpt><trkpt lat="45.6305263" lon="9.6038588"><ele>186.0</ele><time>2026-04-25T07:20:15.763Z</time></trkpt><trkpt lat="45.6306383" lon="9.6039353"><ele>186.5</ele><time>2026-04-25T07:20:16.764Z</time></trkpt><trkpt lat="45.6307516" lon="9.604018"><ele>187.0</ele><time>2026-04-25T07:20:17.764Z</time></trkpt><trkpt lat="45.6308656" lon="9.6041057"><ele>187.5</ele><time>2026-04-25T07:20:18.764Z</time></trkpt><trkpt lat="45.6309786" lon="9.6041968"><ele>188.0</ele><time>2026-04-25T07:20:19.764Z</time></trkpt><trkpt lat="45.6310921" lon="9.6042923"><ele>188.25</ele><time>2026-04-25T07:20:20.764Z</time></trkpt><trkpt lat="45.6312065" lon="9.6043872"><ele>188.5</ele><time>2026-04-25T07:20:21.764Z</time></trkpt><trkpt lat="45.6313217" lon="9.6044801"><ele>188.75</ele><time>2026-04-25T07:20:22.764Z</time></trkpt><trkpt lat="45.6314333" lon="9.6045754"><ele>189.0</ele><time>2026-04-25T07:20:23.763Z</time></trkpt><trkpt lat="45.6315472" lon="9.6046714"><ele>189.0</ele><time>2026-04-25T07:20:24.764Z</time></trkpt><trkpt lat="45.6316579" lon="9.6047649"><ele>189.0</ele><time>2026-04-25T07:20:25.763Z</time></trkpt><trkpt lat="45.6317672" lon="9.6048572"><ele>189.0</ele><time>2026-04-25T07:20:26.763Z</time></trkpt><trkpt lat="45.631877" lon="9.6049501"><ele>189.0</ele><time>2026-04-25T07:20:27.763Z</time></trkpt><trkpt lat="45.6319845" lon="9.6050418"><ele>189.25</ele><time>2026-04-25T07:20:28.764Z</time></trkpt><trkpt lat="45.6320928" lon="9.6051333"><ele>189.5</ele><time>2026-04-25T07:20:29.763Z</time></trkpt><trkpt lat="45.6321999" lon="9.6052255"><ele>189.75</ele><time>2026-04-25T07:20:30.763Z</time></trkpt><trkpt lat="45.6323069" lon="9.6053141"><ele>190.0</ele><time>2026-04-25T07:20:31.763Z</time></trkpt><trkpt lat="45.6324131" lon="9.6053988"><ele>190.0</ele><time>2026-04-25T07:20:32.764Z</time></trkpt><trkpt lat="45.6325184" lon="9.6054832"><ele>190.0</ele><time>2026-04-25T07:20:33.764Z</time></trkpt><trkpt lat="45.6326249" lon="9.6055686"><ele>190.0</ele><time>2026-04-25T07:20:34.763Z</time></trkpt><trkpt lat="45.6327324" lon="9.6056556"><ele>190.0</ele><time>2026-04-25T07:20:35.764Z</time></trkpt><trkpt lat="45.6328377" lon="9.6057423"><ele>190.5</ele><time>2026-04-25T07:20:36.763Z</time></trkpt><trkpt lat="45.6329432" lon="9.6058276"><ele>191.0</ele><time>2026-04-25T07:20:37.763Z</time></trkpt><trkpt lat="45.6330487" lon="9.6059114"><ele>191.5</ele><time>2026-04-25T07:20:38.764Z</time></trkpt><trkpt lat="45.6331551" lon="9.6059996"><ele>192.0</ele><time>2026-04-25T07:20:39.764Z</time></trkpt><trkpt lat="45.633259" lon="9.6060885"><ele>191.5</ele><time>2026-04-25T07:20:40.764Z</time></trkpt><trkpt lat="45.6333629" lon="9.606175"><ele>191.0</ele><time>2026-04-25T07:20:41.764Z</time></trkpt><trkpt lat="45.6334668" lon="9.606266"><ele>190.5</ele><time>2026-04-25T07:20:42.763Z</time></trkpt><trkpt lat="45.6335689" lon="9.606356"><ele>190.0</ele><time>2026-04-25T07:20:43.764Z</time></trkpt><trkpt lat="45.633665" lon="9.6064453"><ele>190.0</ele><time>2026-04-25T07:20:44.764Z</time></trkpt><trkpt lat="45.6337564" lon="9.6065283"><ele>190.0</ele><time>2026-04-25T07:20:45.764Z</time></trkpt><trkpt lat="45.6338359" lon="9.6066085"><ele>190.0</ele><time>2026-04-25T07:20:46.764Z</time></trkpt><trkpt lat="45.633905" lon="9.6066917"><ele>190.0</ele><time>2026-04-25T07:20:47.763Z</time></trkpt><trkpt lat="45.6339603" lon="9.606788"><ele>190.0</ele><time>2026-04-25T07:20:48.764Z</time></trkpt><trkpt lat="45.6340016" lon="9.6069009"><ele>190.0</ele><time>2026-04-25T07:20:49.764Z</time></trkpt><trkpt lat="45.6340415" lon="9.6070187"><ele>190.0</ele><time>2026-04-25T07:20:50.764Z</time></trkpt><trkpt lat="45.6341002" lon="9.6071218"><ele>190.0</ele><time>2026-04-25T07:20:51.764Z</time></trkpt><trkpt lat="45.6341711" lon="9.6071993"><ele>190.0</ele><time>2026-04-25T07:20:52.763Z</time></trkpt><trkpt lat="45.6342467" lon="9.6072477"><ele>190.0</ele><time>2026-04-25T07:20:53.764Z</time></trkpt><trkpt lat="45.6343223" lon="9.6072636"><ele>190.0</ele><time>2026-04-25T07:20:54.764Z</time></trkpt><trkpt lat="45.6343952" lon="9.6072552"><ele>190.0</ele><time>2026-04-25T07:20:55.764Z</time></trkpt><trkpt lat="45.6344707" lon="9.6072374"><ele>190.0</ele><time>2026-04-25T07:20:56.763Z</time></trkpt><trkpt lat="45.6345558" lon="9.6072306"><ele>190.0</ele><time>2026-04-25T07:20:57.764Z</time></trkpt><trkpt lat="45.6346462" lon="9.6072408"><ele>190.0</ele><time>2026-04-25T07:20:58.764Z</time></trkpt><trkpt lat="45.634741" lon="9.6072803"><ele>190.0</ele><time>2026-04-25T07:20:59.763Z</time></trkpt><trkpt lat="45.6348356" lon="9.6073419"><ele>190.0</ele><time>2026-04-25T07:21:00.764Z</time></trkpt><trkpt lat="45.6349278" lon="9.6074163"><ele>190.0</ele><time>2026-04-25T07:21:01.764Z</time></trkpt><trkpt lat="45.635021" lon="9.6074935"><ele>190.0</ele><time>2026-04-25T07:21:02.764Z</time></trkpt><trkpt lat="45.6351153" lon="9.6075706"><ele>190.0</ele><time>2026-04-25T07:21:03.764Z</time></trkpt><trkpt lat="45.6352138" lon="9.6076519"><ele>190.0</ele><time>2026-04-25T07:21:04.764Z</time></trkpt><trkpt lat="45.635318" lon="9.6077375"><ele>190.25</ele><time>2026-04-25T07:21:05.763Z</time></trkpt><trkpt lat="45.6354257" lon="9.6078242"><ele>190.5</ele><time>2026-04-25T07:21:06.764Z</time></trkpt><trkpt lat="45.6355344" lon="9.6079148"><ele>190.75</ele><time>2026-04-25T07:21:07.763Z</time></trkpt><trkpt lat="45.635643" lon="9.608008"><ele>191.0</ele><time>2026-04-25T07:21:08.764Z</time></trkpt><trkpt lat="45.6357517" lon="9.6081007"><ele>191.5</ele><time>2026-04-25T07:21:09.764Z</time></trkpt><trkpt lat="45.635865" lon="9.6081937"><ele>192.0</ele><time>2026-04-25T07:21:10.763Z</time></trkpt><trkpt lat="45.6359792" lon="9.6082866"><ele>192.5</ele><time>2026-04-25T07:21:11.764Z</time></trkpt><trkpt lat="45.636094" lon="9.6083845"><ele>193.0</ele><time>2026-04-25T07:21:12.763Z</time></trkpt><trkpt lat="45.6362121" lon="9.6084783"><ele>193.25</ele><time>2026-04-25T07:21:13.763Z</time></trkpt><trkpt lat="45.6363289" lon="9.608579"><ele>193.5</ele><time>2026-04-25T07:21:14.764Z</time></trkpt><trkpt lat="45.6364472" lon="9.6086785"><ele>193.75</ele><time>2026-04-25T07:21:15.763Z</time></trkpt><trkpt lat="45.6365685" lon="9.6087761"><ele>194.0</ele><time>2026-04-25T07:21:16.764Z</time></trkpt><trkpt lat="45.636686" lon="9.6088699"><ele>194.0</ele><time>2026-04-25T07:21:17.764Z</time></trkpt><trkpt lat="45.636808" lon="9.6089644"><ele>194.0</ele><time>2026-04-25T07:21:18.763Z</time></trkpt><trkpt lat="45.6369296" lon="9.6090617"><ele>194.0</ele><time>2026-04-25T07:21:19.764Z</time></trkpt><trkpt lat="45.6370497" lon="9.6091578"><ele>194.0</ele><time>2026-04-25T07:21:20.763Z</time></trkpt><trkpt lat="45.63717" lon="9.6092584"><ele>194.25</ele><time>2026-04-25T07:21:21.763Z</time></trkpt><trkpt lat="45.637291" lon="9.6093608"><ele>194.5</ele><time>2026-04-25T07:21:22.764Z</time></trkpt><trkpt lat="45.6374104" lon="9.6094681"><ele>194.75</ele><time>2026-04-25T07:21:23.763Z</time></trkpt><trkpt lat="45.6375314" lon="9.6095764"><ele>195.0</ele><time>2026-04-25T07:21:24.763Z</time></trkpt><trkpt lat="45.637652" lon="9.6096837"><ele>195.0</ele><time>2026-04-25T07:21:25.764Z</time></trkpt><trkpt lat="45.6377761" lon="9.6097875"><ele>195.0</ele><time>2026-04-25T07:21:26.764Z</time></trkpt><trkpt lat="45.6378992" lon="9.6098915"><ele>195.0</ele><time>2026-04-25T07:21:27.763Z</time></trkpt><trkpt lat="45.6380217" lon="9.6099929"><ele>195.0</ele><time>2026-04-25T07:21:28.763Z</time></trkpt><trkpt lat="45.6381406" lon="9.6100899"><ele>195.75</ele><time>2026-04-25T07:21:29.763Z</time></trkpt><trkpt lat="45.6382598" lon="9.6101849"><ele>196.5</ele><time>2026-04-25T07:21:30.764Z</time></trkpt><trkpt lat="45.6383775" lon="9.6102806"><ele>197.25</ele><time>2026-04-25T07:21:31.763Z</time></trkpt><trkpt lat="45.6384919" lon="9.6103712"><ele>198.0</ele><time>2026-04-25T07:21:32.763Z</time></trkpt><trkpt lat="45.6386172" lon="9.6104666"><ele>197.75</ele><time>2026-04-25T07:21:33.763Z</time></trkpt><trkpt lat="45.6387338" lon="9.6105713"><ele>197.5</ele><time>2026-04-25T07:21:34.764Z</time></trkpt><trkpt lat="45.6388554" lon="9.6106677"><ele>197.25</ele><time>2026-04-25T07:21:35.763Z</time></trkpt><trkpt lat="45.6389762" lon="9.6107681"><ele>197.0</ele><time>2026-04-25T07:21:36.764Z</time></trkpt><trkpt lat="45.6390927" lon="9.6108666"><ele>197.0</ele><time>2026-04-25T07:21:37.763Z</time></trkpt><trkpt lat="45.6392106" lon="9.6109665"><ele>197.0</ele><time>2026-04-25T07:21:38.764Z</time></trkpt><trkpt lat="45.6393259" lon="9.611059"><ele>197.0</ele><time>2026-04-25T07:21:39.763Z</time></trkpt><trkpt lat="45.6394363" lon="9.6111505"><ele>197.0</ele><time>2026-04-25T07:21:40.764Z</time></trkpt><trkpt lat="45.6395458" lon="9.6112419"><ele>196.39999999999998</ele><time>2026-04-25T07:21:41.764Z</time></trkpt><trkpt lat="45.6396537" lon="9.6113245"><ele>195.79999999999998</ele><time>2026-04-25T07:21:42.764Z</time></trkpt><trkpt lat="45.6397496" lon="9.6114053"><ele>195.2</ele><time>2026-04-25T07:21:43.764Z</time></trkpt><trkpt lat="45.6398378" lon="9.6114837"><ele>194.6</ele><time>2026-04-25T07:21:44.764Z</time></trkpt><trkpt lat="45.6399145" lon="9.6115733"><ele>194.0</ele><time>2026-04-25T07:21:45.764Z</time></trkpt><trkpt lat="45.6399735" lon="9.6116773"><ele>194.0</ele><time>2026-04-25T07:21:46.764Z</time></trkpt><trkpt lat="45.6400228" lon="9.6117775"><ele>194.0</ele><time>2026-04-25T07:21:47.764Z</time></trkpt><trkpt lat="45.6400751" lon="9.6118532"><ele>194.0</ele><time>2026-04-25T07:21:48.764Z</time></trkpt><trkpt lat="45.6401343" lon="9.6119055"><ele>194.0</ele><time>2026-04-25T07:21:49.763Z</time></trkpt><trkpt lat="45.6402061" lon="9.6119246"><ele>194.0</ele><time>2026-04-25T07:21:51.764Z</time></trkpt><trkpt lat="45.6402699" lon="9.6119292"><ele>194.0</ele><time>2026-04-25T07:21:53.764Z</time></trkpt><trkpt lat="45.6403408" lon="9.6119314"><ele>194.0</ele><time>2026-04-25T07:21:55.763Z</time></trkpt><trkpt lat="45.6404156" lon="9.6119467"><ele>194.33333333333334</ele><time>2026-04-25T07:21:57.764Z</time></trkpt><trkpt lat="45.6404904" lon="9.6119894"><ele>194.66666666666669</ele><time>2026-04-25T07:21:59.763Z</time></trkpt><trkpt lat="45.6405732" lon="9.6120514"><ele>195.0</ele><time>2026-04-25T07:22:01.763Z</time></trkpt><trkpt lat="45.6406777" lon="9.6121321"><ele>195.33333333333331</ele><time>2026-04-25T07:22:03.763Z</time></trkpt><trkpt lat="45.640742" lon="9.6121866"><ele>195.66666666666666</ele><time>2026-04-25T07:22:04.764Z</time></trkpt><trkpt lat="45.6408073" lon="9.6122411"><ele>196.0</ele><time>2026-04-25T07:22:05.764Z</time></trkpt><trkpt lat="45.6408737" lon="9.6122983"><ele>195.99999999999997</ele><time>2026-04-25T07:22:06.764Z</time></trkpt><trkpt lat="45.6409423" lon="9.6123549"><ele>196.0</ele><time>2026-04-25T07:22:07.763Z</time></trkpt><trkpt lat="45.6410126" lon="9.6124133"><ele>196.0</ele><time>2026-04-25T07:22:08.763Z</time></trkpt><trkpt lat="45.6410827" lon="9.6124742"><ele>196.0</ele><time>2026-04-25T07:22:09.763Z</time></trkpt><trkpt lat="45.6411564" lon="9.6125379"><ele>195.99999999999997</ele><time>2026-04-25T07:22:10.763Z</time></trkpt><trkpt lat="45.641236" lon="9.6126033"><ele>196.0</ele><time>2026-04-25T07:22:11.763Z</time></trkpt><trkpt lat="45.6413185" lon="9.6126686"><ele>196.16666666666666</ele><time>2026-04-25T07:22:12.763Z</time></trkpt><trkpt lat="45.6414017" lon="9.6127331"><ele>196.33333333333331</ele><time>2026-04-25T07:22:13.764Z</time></trkpt><trkpt lat="45.6414809" lon="9.6127958"><ele>196.5</ele><time>2026-04-25T07:22:14.764Z</time></trkpt><trkpt lat="45.6415563" lon="9.6128564"><ele>196.66666666666669</ele><time>2026-04-25T07:22:15.763Z</time></trkpt><trkpt lat="45.6416276" lon="9.6129137"><ele>196.83333333333334</ele><time>2026-04-25T07:22:16.763Z</time></trkpt><trkpt lat="45.6416993" lon="9.6129723"><ele>197.0</ele><time>2026-04-25T07:22:17.763Z</time></trkpt><trkpt lat="45.6417713" lon="9.6130342"><ele>197.0</ele><time>2026-04-25T07:22:18.763Z</time></trkpt><trkpt lat="45.6418474" lon="9.6130944"><ele>197.0</ele><time>2026-04-25T07:22:19.763Z</time></trkpt><trkpt lat="45.6419268" lon="9.6131569"><ele>197.0</ele><time>2026-04-25T07:22:20.763Z</time></trkpt><trkpt lat="45.6420082" lon="9.6132236"><ele>197.0</ele><time>2026-04-25T07:22:21.763Z</time></trkpt><trkpt lat="45.6420929" lon="9.6132969"><ele>197.0</ele><time>2026-04-25T07:22:22.763Z</time></trkpt><trkpt lat="45.6421838" lon="9.6133735"><ele>197.6</ele><time>2026-04-25T07:22:23.763Z</time></trkpt><trkpt lat="45.6422725" lon="9.61345"><ele>198.2</ele><time>2026-04-25T07:22:24.763Z</time></trkpt><trkpt lat="45.6423633" lon="9.6135209"><ele>198.8</ele><time>2026-04-25T07:22:25.764Z</time></trkpt><trkpt lat="45.6424501" lon="9.6135895"><ele>199.4</ele><time>2026-04-25T07:22:26.763Z</time></trkpt><trkpt lat="45.6425337" lon="9.6136539"><ele>200.0</ele><time>2026-04-25T07:22:27.764Z</time></trkpt><trkpt lat="45.6426144" lon="9.6137178"><ele>200.00000000000003</ele><time>2026-04-25T07:22:28.763Z</time></trkpt><trkpt lat="45.642689" lon="9.6137782"><ele>200.0</ele><time>2026-04-25T07:22:29.764Z</time></trkpt><trkpt lat="45.6427534" lon="9.613831"><ele>200.0</ele><time>2026-04-25T07:22:30.764Z</time></trkpt><trkpt lat="45.6428147" lon="9.6138787"><ele>200.0</ele><time>2026-04-25T07:22:31.763Z</time></trkpt><trkpt lat="45.6428741" lon="9.6139237"><ele>200.00000000000003</ele><time>2026-04-25T07:22:32.763Z</time></trkpt><trkpt lat="45.6429797" lon="9.6140041"><ele>200.0</ele><time>2026-04-25T07:22:34.763Z</time></trkpt><trkpt lat="45.6430692" lon="9.6140834"><ele>200.16666666666669</ele><time>2026-04-25T07:22:36.764Z</time></trkpt><trkpt lat="45.6431696" lon="9.6142012"><ele>200.33333333333334</ele><time>2026-04-25T07:22:38.763Z</time></trkpt><trkpt lat="45.6432299" lon="9.6142744"><ele>200.5</ele><time>2026-04-25T07:22:39.763Z</time></trkpt><trkpt lat="45.6432953" lon="9.6143383"><ele>200.66666666666669</ele><time>2026-04-25T07:22:40.764Z</time></trkpt><trkpt lat="45.6433671" lon="9.6143914"><ele>200.83333333333334</ele><time>2026-04-25T07:22:41.764Z</time></trkpt><trkpt lat="45.6434367" lon="9.6144363"><ele>201.0</ele><time>2026-04-25T07:22:42.763Z</time></trkpt><trkpt lat="45.6435034" lon="9.6144832"><ele>200.83333333333334</ele><time>2026-04-25T07:22:43.764Z</time></trkpt><trkpt lat="45.6435687" lon="9.6145393"><ele>200.66666666666669</ele><time>2026-04-25T07:22:44.764Z</time></trkpt><trkpt lat="45.6436396" lon="9.6145965"><ele>200.5</ele><time>2026-04-25T07:22:45.764Z</time></trkpt><trkpt lat="45.6437127" lon="9.6146563"><ele>200.33333333333334</ele><time>2026-04-25T07:22:46.764Z</time></trkpt><trkpt lat="45.6437845" lon="9.6147184"><ele>200.16666666666669</ele><time>2026-04-25T07:22:47.763Z</time></trkpt><trkpt lat="45.6438578" lon="9.6147856"><ele>200.0</ele><time>2026-04-25T07:22:48.763Z</time></trkpt><trkpt lat="45.6439343" lon="9.6148513"><ele>200.0</ele><time>2026-04-25T07:22:49.763Z</time></trkpt><trkpt lat="45.6440133" lon="9.6149173"><ele>200.0</ele><time>2026-04-25T07:22:50.763Z</time></trkpt><trkpt lat="45.6440964" lon="9.6149817"><ele>200.0</ele><time>2026-04-25T07:22:51.763Z</time></trkpt><trkpt lat="45.6441826" lon="9.6150503"><ele>200.0</ele><time>2026-04-25T07:22:52.763Z</time></trkpt><trkpt lat="45.6442714" lon="9.6151153"><ele>200.0</ele><time>2026-04-25T07:22:53.763Z</time></trkpt><trkpt lat="45.6443569" lon="9.6151849"><ele>200.0</ele><time>2026-04-25T07:22:54.763Z</time></trkpt><trkpt lat="45.6444432" lon="9.6152542"><ele>200.0</ele><time>2026-04-25T07:22:55.763Z</time></trkpt><trkpt lat="45.6445317" lon="9.6153232"><ele>200.0</ele><time>2026-04-25T07:22:56.763Z</time></trkpt><trkpt lat="45.6446184" lon="9.6153874"><ele>200.0</ele><time>2026-04-25T07:22:57.763Z</time></trkpt><trkpt lat="45.6447025" lon="9.6154562"><ele>200.0</ele><time>2026-04-25T07:22:58.763Z</time></trkpt><trkpt lat="45.6447889" lon="9.6155252"><ele>200.2</ele><time>2026-04-25T07:22:59.764Z</time></trkpt><trkpt lat="45.6448738" lon="9.6155924"><ele>200.4</ele><time>2026-04-25T07:23:00.764Z</time></trkpt><trkpt lat="45.6449594" lon="9.6156646"><ele>200.60000000000002</ele><time>2026-04-25T07:23:01.763Z</time></trkpt><trkpt lat="45.645047" lon="9.6157407"><ele>200.8</ele><time>2026-04-25T07:23:02.763Z</time></trkpt><trkpt lat="45.6451366" lon="9.6158131"><ele>201.0</ele><time>2026-04-25T07:23:03.764Z</time></trkpt><trkpt lat="45.6452266" lon="9.6158853"><ele>201.0</ele><time>2026-04-25T07:23:04.763Z</time></trkpt><trkpt lat="45.6453141" lon="9.6159624"><ele>201.0</ele><time>2026-04-25T07:23:05.764Z</time></trkpt><trkpt lat="45.6454049" lon="9.6160378"><ele>201.0</ele><time>2026-04-25T07:23:06.763Z</time></trkpt><trkpt lat="45.6454959" lon="9.6161125"><ele>201.0</ele><time>2026-04-25T07:23:07.764Z</time></trkpt><trkpt lat="45.6455849" lon="9.6161861"><ele>201.0</ele><time>2026-04-25T07:23:08.764Z</time></trkpt><trkpt lat="45.6456731" lon="9.6162586"><ele>201.0</ele><time>2026-04-25T07:23:09.763Z</time></trkpt><trkpt lat="45.6457578" lon="9.6163269"><ele>201.0</ele><time>2026-04-25T07:23:10.764Z</time></trkpt><trkpt lat="45.6458456" lon="9.616395"><ele>201.0</ele><time>2026-04-25T07:23:11.763Z</time></trkpt><trkpt lat="45.6459361" lon="9.6164684"><ele>201.0</ele><time>2026-04-25T07:23:12.763Z</time></trkpt><trkpt lat="45.6460331" lon="9.6165467"><ele>201.0</ele><time>2026-04-25T07:23:13.763Z</time></trkpt><trkpt lat="45.6461321" lon="9.6166282"><ele>201.0</ele><time>2026-04-25T07:23:14.763Z</time></trkpt><trkpt lat="45.6462299" lon="9.6167057"><ele>201.0</ele><time>2026-04-25T07:23:15.763Z</time></trkpt><trkpt lat="45.6463238" lon="9.6167823"><ele>201.0</ele><time>2026-04-25T07:23:16.763Z</time></trkpt><trkpt lat="45.6464173" lon="9.6168555"><ele>201.0</ele><time>2026-04-25T07:23:17.763Z</time></trkpt><trkpt lat="45.6465097" lon="9.6169299"><ele>201.0</ele><time>2026-04-25T07:23:18.763Z</time></trkpt><trkpt lat="45.6466033" lon="9.6170028"><ele>201.4</ele><time>2026-04-25T07:23:19.763Z</time></trkpt><trkpt lat="45.6466884" lon="9.6170802"><ele>201.8</ele><time>2026-04-25T07:23:20.764Z</time></trkpt><trkpt lat="45.6467758" lon="9.6171558"><ele>202.20000000000002</ele><time>2026-04-25T07:23:21.764Z</time></trkpt><trkpt lat="45.6468654" lon="9.6172311"><ele>202.60000000000002</ele><time>2026-04-25T07:23:22.764Z</time></trkpt><trkpt lat="45.6469567" lon="9.6173058"><ele>203.0</ele><time>2026-04-25T07:23:23.763Z</time></trkpt><trkpt lat="45.64705" lon="9.6173863"><ele>203.0</ele><time>2026-04-25T07:23:24.764Z</time></trkpt><trkpt lat="45.6471435" lon="9.6174642"><ele>203.0</ele><time>2026-04-25T07:23:25.763Z</time></trkpt><trkpt lat="45.6472378" lon="9.6175404"><ele>203.0</ele><time>2026-04-25T07:23:26.764Z</time></trkpt><trkpt lat="45.6473305" lon="9.6176158"><ele>203.0</ele><time>2026-04-25T07:23:27.763Z</time></trkpt><trkpt lat="45.6474172" lon="9.6176834"><ele>203.0</ele><time>2026-04-25T07:23:28.763Z</time></trkpt><trkpt lat="45.6474967" lon="9.6177462"><ele>203.00000000000003</ele><time>2026-04-25T07:23:29.763Z</time></trkpt><trkpt lat="45.6475695" lon="9.6178057"><ele>203.0</ele><time>2026-04-25T07:23:30.763Z</time></trkpt><trkpt lat="45.6476388" lon="9.6178615"><ele>203.0</ele><time>2026-04-25T07:23:31.764Z</time></trkpt><trkpt lat="45.6477004" lon="9.617912"><ele>203.0</ele><time>2026-04-25T07:23:32.764Z</time></trkpt><trkpt lat="45.6477976" lon="9.6179908"><ele>203.00000000000003</ele><time>2026-04-25T07:23:34.764Z</time></trkpt><trkpt lat="45.6478836" lon="9.6180637"><ele>203.0</ele><time>2026-04-25T07:23:36.763Z</time></trkpt><trkpt lat="45.6479636" lon="9.6181365"><ele>203.0</ele><time>2026-04-25T07:23:38.763Z</time></trkpt><trkpt lat="45.6480279" lon="9.61822"><ele>203.0</ele><time>2026-04-25T07:23:40.764Z</time></trkpt><trkpt lat="45.6480943" lon="9.6183625"><ele>203.0</ele><time>2026-04-25T07:23:42.763Z</time></trkpt><trkpt lat="45.6481268" lon="9.6184431"><ele>203.0</ele><time>2026-04-25T07:23:43.763Z</time></trkpt><trkpt lat="45.6481875" lon="9.6185841"><ele>203.0</ele><time>2026-04-25T07:23:45.763Z</time></trkpt><trkpt lat="45.648264" lon="9.6186899"><ele>203.0</ele><time>2026-04-25T07:23:47.763Z</time></trkpt><trkpt lat="45.6483236" lon="9.618736"><ele>203.0</ele><time>2026-04-25T07:23:48.763Z</time></trkpt><trkpt lat="45.6483887" lon="9.6187618"><ele>203.0</ele><time>2026-04-25T07:23:49.763Z</time></trkpt><trkpt lat="45.6484553" lon="9.6187759"><ele>203.0</ele><time>2026-04-25T07:23:50.764Z</time></trkpt><trkpt lat="45.6485234" lon="9.6188012"><ele>203.0</ele><time>2026-04-25T07:23:51.764Z</time></trkpt><trkpt lat="45.6486033" lon="9.6188379"><ele>203.0</ele><time>2026-04-25T07:23:52.764Z</time></trkpt><trkpt lat="45.6486864" lon="9.6188903"><ele>203.0</ele><time>2026-04-25T07:23:53.763Z</time></trkpt><trkpt lat="45.6487691" lon="9.6189496"><ele>202.8</ele><time>2026-04-25T07:23:54.764Z</time></trkpt><trkpt lat="45.6488551" lon="9.6190174"><ele>202.60000000000002</ele><time>2026-04-25T07:23:55.764Z</time></trkpt><trkpt lat="45.6489426" lon="9.6190911"><ele>202.39999999999998</ele><time>2026-04-25T07:23:56.763Z</time></trkpt><trkpt lat="45.6490345" lon="9.6191674"><ele>202.2</ele><time>2026-04-25T07:23:57.764Z</time></trkpt><trkpt lat="45.6491296" lon="9.6192541"><ele>202.0</ele><time>2026-04-25T07:23:58.764Z</time></trkpt><trkpt lat="45.6492248" lon="9.6193402"><ele>202.0</ele><time>2026-04-25T07:23:59.764Z</time></trkpt><trkpt lat="45.6493251" lon="9.6194309"><ele>202.0</ele><time>2026-04-25T07:24:00.764Z</time></trkpt><trkpt lat="45.6494293" lon="9.6195252"><ele>202.0</ele><time>2026-04-25T07:24:01.764Z</time></trkpt><trkpt lat="45.6495368" lon="9.6196183"><ele>202.0</ele><time>2026-04-25T07:24:02.764Z</time></trkpt><trkpt lat="45.6496446" lon="9.6197152"><ele>202.0</ele><time>2026-04-25T07:24:03.763Z</time></trkpt><trkpt lat="45.6497517" lon="9.6198142"><ele>202.0</ele><time>2026-04-25T07:24:04.764Z</time></trkpt><trkpt lat="45.6498626" lon="9.6199147"><ele>202.0</ele><time>2026-04-25T07:24:05.763Z</time></trkpt><trkpt lat="45.6499687" lon="9.6200115"><ele>202.0</ele><time>2026-04-25T07:24:06.763Z</time></trkpt><trkpt lat="45.650069" lon="9.6201024"><ele>202.0</ele><time>2026-04-25T07:24:07.763Z</time></trkpt><trkpt lat="45.6501635" lon="9.620189"><ele>202.0</ele><time>2026-04-25T07:24:08.764Z</time></trkpt><trkpt lat="45.6502514" lon="9.6202738"><ele>202.0</ele><time>2026-04-25T07:24:09.764Z</time></trkpt><trkpt lat="45.650336" lon="9.6203521"><ele>202.0</ele><time>2026-04-25T07:24:10.763Z</time></trkpt><trkpt lat="45.6504196" lon="9.6204358"><ele>202.0</ele><time>2026-04-25T07:24:11.764Z</time></trkpt><trkpt lat="45.6505019" lon="9.6205216"><ele>202.49999999999997</ele><time>2026-04-25T07:24:12.764Z</time></trkpt><trkpt lat="45.6505757" lon="9.6206089"><ele>203.0</ele><time>2026-04-25T07:24:13.764Z</time></trkpt><trkpt lat="45.650643" lon="9.6206903"><ele>203.5</ele><time>2026-04-25T07:24:14.764Z</time></trkpt><trkpt lat="45.6506996" lon="9.6207733"><ele>204.0</ele><time>2026-04-25T07:24:15.764Z</time></trkpt><trkpt lat="45.6507516" lon="9.6208561"><ele>204.49999999999997</ele><time>2026-04-25T07:24:16.763Z</time></trkpt><trkpt lat="45.6507985" lon="9.6209444"><ele>205.0</ele><time>2026-04-25T07:24:17.764Z</time></trkpt><trkpt lat="45.6508376" lon="9.6210409"><ele>204.6</ele><time>2026-04-25T07:24:18.764Z</time></trkpt><trkpt lat="45.6508717" lon="9.62115"><ele>204.2</ele><time>2026-04-25T07:24:19.763Z</time></trkpt><trkpt lat="45.6509066" lon="9.6212694"><ele>203.8</ele><time>2026-04-25T07:24:20.763Z</time></trkpt><trkpt lat="45.6509486" lon="9.6213915"><ele>203.4</ele><time>2026-04-25T07:24:21.764Z</time></trkpt><trkpt lat="45.651005" lon="9.621501"><ele>203.0</ele><time>2026-04-25T07:24:22.763Z</time></trkpt><trkpt lat="45.651074" lon="9.6215896"><ele>202.66666666666669</ele><time>2026-04-25T07:24:23.764Z</time></trkpt><trkpt lat="45.6511496" lon="9.6216514"><ele>202.33333333333334</ele><time>2026-04-25T07:24:24.763Z</time></trkpt><trkpt lat="45.6512317" lon="9.6216891"><ele>202.0</ele><time>2026-04-25T07:24:25.763Z</time></trkpt><trkpt lat="45.6513174" lon="9.6217014"><ele>201.66666666666669</ele><time>2026-04-25T07:24:26.764Z</time></trkpt><trkpt lat="45.6514053" lon="9.6217036"><ele>201.33333333333334</ele><time>2026-04-25T07:24:27.764Z</time></trkpt><trkpt lat="45.6514956" lon="9.6216919"><ele>201.0</ele><time>2026-04-25T07:24:28.764Z</time></trkpt><trkpt lat="45.6515938" lon="9.6216833"><ele>201.0</ele><time>2026-04-25T07:24:29.763Z</time></trkpt><trkpt lat="45.6516948" lon="9.6216913"><ele>201.0</ele><time>2026-04-25T07:24:30.764Z</time></trkpt><trkpt lat="45.6517996" lon="9.6217192"><ele>201.0</ele><time>2026-04-25T07:24:31.764Z</time></trkpt><trkpt lat="45.6519011" lon="9.621775"><ele>201.0</ele><time>2026-04-25T07:24:32.763Z</time></trkpt><trkpt lat="45.6519977" lon="9.6218523"><ele>201.0</ele><time>2026-04-25T07:24:33.764Z</time></trkpt><trkpt lat="45.6520921" lon="9.621937"><ele>201.5</ele><time>2026-04-25T07:24:34.763Z</time></trkpt><trkpt lat="45.6521885" lon="9.6220236"><ele>202.0</ele><time>2026-04-25T07:24:35.763Z</time></trkpt><trkpt lat="45.6522831" lon="9.6221105"><ele>202.5</ele><time>2026-04-25T07:24:36.764Z</time></trkpt><trkpt lat="45.6523777" lon="9.622199"><ele>203.0</ele><time>2026-04-25T07:24:37.764Z</time></trkpt><trkpt lat="45.6524736" lon="9.6222884"><ele>203.0</ele><time>2026-04-25T07:24:38.764Z</time></trkpt><trkpt lat="45.6525688" lon="9.6223773"><ele>203.0</ele><time>2026-04-25T07:24:39.764Z</time></trkpt><trkpt lat="45.6526627" lon="9.6224613"><ele>203.0</ele><time>2026-04-25T07:24:40.764Z</time></trkpt><trkpt lat="45.6527559" lon="9.6225461"><ele>203.0</ele><time>2026-04-25T07:24:41.764Z</time></trkpt><trkpt lat="45.652847" lon="9.6226254"><ele>203.0</ele><time>2026-04-25T07:24:42.763Z</time></trkpt><trkpt lat="45.6529313" lon="9.6227006"><ele>203.0</ele><time>2026-04-25T07:24:43.763Z</time></trkpt><trkpt lat="45.6530086" lon="9.6227751"><ele>203.0</ele><time>2026-04-25T07:24:44.764Z</time></trkpt><trkpt lat="45.6530666" lon="9.6228475"><ele>203.0</ele><time>2026-04-25T07:24:45.763Z</time></trkpt><trkpt lat="45.6531312" lon="9.6229398"><ele>203.0</ele><time>2026-04-25T07:24:47.764Z</time></trkpt><trkpt lat="45.6531744" lon="9.6230268"><ele>203.0</ele><time>2026-04-25T07:24:49.764Z</time></trkpt><trkpt lat="45.6532473" lon="9.6231723"><ele>203.00000000000003</ele><time>2026-04-25T07:24:51.764Z</time></trkpt><trkpt lat="45.6533051" lon="9.6232322"><ele>203.0</ele><time>2026-04-25T07:24:52.763Z</time></trkpt><trkpt lat="45.6533734" lon="9.6232767"><ele>203.0</ele><time>2026-04-25T07:24:53.763Z</time></trkpt><trkpt lat="45.6534494" lon="9.6233031"><ele>203.0</ele><time>2026-04-25T07:24:54.763Z</time></trkpt><trkpt lat="45.6535342" lon="9.623319"><ele>203.00000000000003</ele><time>2026-04-25T07:24:55.764Z</time></trkpt><trkpt lat="45.6536253" lon="9.6233534"><ele>203.0</ele><time>2026-04-25T07:24:56.763Z</time></trkpt><trkpt lat="45.6537117" lon="9.6234146"><ele>202.8</ele><time>2026-04-25T07:24:57.764Z</time></trkpt><trkpt lat="45.6537976" lon="9.6234909"><ele>202.60000000000002</ele><time>2026-04-25T07:24:58.764Z</time></trkpt><trkpt lat="45.6538864" lon="9.6235732"><ele>202.39999999999998</ele><time>2026-04-25T07:24:59.764Z</time></trkpt><trkpt lat="45.6539812" lon="9.6236604"><ele>202.2</ele><time>2026-04-25T07:25:00.763Z</time></trkpt><trkpt lat="45.6540741" lon="9.6237472"><ele>202.0</ele><time>2026-04-25T07:25:01.763Z</time></trkpt><trkpt lat="45.6541667" lon="9.6238337"><ele>202.0</ele><time>2026-04-25T07:25:02.763Z</time></trkpt><trkpt lat="45.6542597" lon="9.623921"><ele>202.0</ele><time>2026-04-25T07:25:03.764Z</time></trkpt><trkpt lat="45.654353" lon="9.6240079"><ele>202.0</ele><time>2026-04-25T07:25:04.764Z</time></trkpt><trkpt lat="45.6544461" lon="9.6240926"><ele>202.0</ele><time>2026-04-25T07:25:05.763Z</time></trkpt><trkpt lat="45.6545379" lon="9.6241779"><ele>202.0</ele><time>2026-04-25T07:25:06.763Z</time></trkpt><trkpt lat="45.6546303" lon="9.6242635"><ele>202.2</ele><time>2026-04-25T07:25:07.763Z</time></trkpt><trkpt lat="45.6547226" lon="9.6243482"><ele>202.39999999999998</ele><time>2026-04-25T07:25:08.764Z</time></trkpt><trkpt lat="45.6548136" lon="9.6244337"><ele>202.60000000000002</ele><time>2026-04-25T07:25:09.764Z</time></trkpt><trkpt lat="45.654904" lon="9.6245176"><ele>202.8</ele><time>2026-04-25T07:25:10.764Z</time></trkpt><trkpt lat="45.6549953" lon="9.6246036"><ele>203.0</ele><time>2026-04-25T07:25:11.764Z</time></trkpt><trkpt lat="45.655086" lon="9.62469"><ele>203.0</ele><time>2026-04-25T07:25:12.764Z</time></trkpt><trkpt lat="45.6551765" lon="9.6247739"><ele>203.0</ele><time>2026-04-25T07:25:13.763Z</time></trkpt><trkpt lat="45.6552663" lon="9.6248582"><ele>203.0</ele><time>2026-04-25T07:25:14.763Z</time></trkpt><trkpt lat="45.6553547" lon="9.6249437"><ele>203.0</ele><time>2026-04-25T07:25:15.764Z</time></trkpt><trkpt lat="45.6554405" lon="9.6250317"><ele>203.0</ele><time>2026-04-25T07:25:16.763Z</time></trkpt><trkpt lat="45.6555222" lon="9.6251198"><ele>204.0</ele><time>2026-04-25T07:25:17.764Z</time></trkpt><trkpt lat="45.6555987" lon="9.6252088"><ele>205.0</ele><time>2026-04-25T07:25:18.764Z</time></trkpt><trkpt lat="45.6556701" lon="9.6252958"><ele>206.0</ele><time>2026-04-25T07:25:19.763Z</time></trkpt><trkpt lat="45.6557368" lon="9.6253854"><ele>207.0</ele><time>2026-04-25T07:25:20.763Z</time></trkpt><trkpt lat="45.6558041" lon="9.6254837"><ele>208.0</ele><time>2026-04-25T07:25:21.763Z</time></trkpt><trkpt lat="45.6558678" lon="9.6255838"><ele>208.0</ele><time>2026-04-25T07:25:22.763Z</time></trkpt><trkpt lat="45.6559405" lon="9.6256691"><ele>208.0</ele><time>2026-04-25T07:25:23.764Z</time></trkpt><trkpt lat="45.6560228" lon="9.6257216"><ele>208.0</ele><time>2026-04-25T07:25:24.764Z</time></trkpt><trkpt lat="45.6561117" lon="9.6257502"><ele>208.0</ele><time>2026-04-25T07:25:25.763Z</time></trkpt><trkpt lat="45.6562018" lon="9.6257865"><ele>208.0</ele><time>2026-04-25T07:25:26.764Z</time></trkpt><trkpt lat="45.6562889" lon="9.6258453"><ele>208.0</ele><time>2026-04-25T07:25:27.763Z</time></trkpt><trkpt lat="45.6563716" lon="9.6259169"><ele>208.0</ele><time>2026-04-25T07:25:28.764Z</time></trkpt><trkpt lat="45.6564545" lon="9.6259911"><ele>208.0</ele><time>2026-04-25T07:25:29.764Z</time></trkpt><trkpt lat="45.6565378" lon="9.6260666"><ele>208.0</ele><time>2026-04-25T07:25:30.763Z</time></trkpt><trkpt lat="45.6566217" lon="9.6261448"><ele>208.0</ele><time>2026-04-25T07:25:31.764Z</time></trkpt><trkpt lat="45.6567078" lon="9.6262266"><ele>208.0</ele><time>2026-04-25T07:25:32.763Z</time></trkpt><trkpt lat="45.6567971" lon="9.6263085"><ele>208.0</ele><time>2026-04-25T07:25:33.763Z</time></trkpt><trkpt lat="45.6568865" lon="9.6263903"><ele>208.0</ele><time>2026-04-25T07:25:34.764Z</time></trkpt><trkpt lat="45.6569753" lon="9.6264745"><ele>208.0</ele><time>2026-04-25T07:25:35.763Z</time></trkpt><trkpt lat="45.657065" lon="9.6265573"><ele>208.0</ele><time>2026-04-25T07:25:36.763Z</time></trkpt><trkpt lat="45.657157" lon="9.6266417"><ele>208.0</ele><time>2026-04-25T07:25:37.763Z</time></trkpt><trkpt lat="45.6572494" lon="9.6267284"><ele>208.0</ele><time>2026-04-25T07:25:38.763Z</time></trkpt><trkpt lat="45.6573419" lon="9.6268159"><ele>208.0</ele><time>2026-04-25T07:25:39.764Z</time></trkpt><trkpt lat="45.6574368" lon="9.6269017"><ele>208.0</ele><time>2026-04-25T07:25:40.764Z</time></trkpt><trkpt lat="45.657534" lon="9.6269906"><ele>208.0</ele><time>2026-04-25T07:25:41.763Z</time></trkpt><trkpt lat="45.6576322" lon="9.6270802"><ele>208.0</ele><time>2026-04-25T07:25:42.764Z</time></trkpt><trkpt lat="45.6577304" lon="9.6271737"><ele>208.0</ele><time>2026-04-25T07:25:43.763Z</time></trkpt><trkpt lat="45.65783" lon="9.6272679"><ele>208.0</ele><time>2026-04-25T07:25:44.763Z</time></trkpt><trkpt lat="45.6579305" lon="9.6273598"><ele>208.0</ele><time>2026-04-25T07:25:45.763Z</time></trkpt><trkpt lat="45.6580316" lon="9.6274512"><ele>208.0</ele><time>2026-04-25T07:25:46.763Z</time></trkpt><trkpt lat="45.6581332" lon="9.627545"><ele>208.0</ele><time>2026-04-25T07:25:47.763Z</time></trkpt><trkpt lat="45.6582356" lon="9.6276407"><ele>208.0</ele><time>2026-04-25T07:25:48.763Z</time></trkpt><trkpt lat="45.6583401" lon="9.6277376"><ele>208.0</ele><time>2026-04-25T07:25:49.763Z</time></trkpt><trkpt lat="45.6584479" lon="9.6278373"><ele>208.25</ele><time>2026-04-25T07:25:50.764Z</time></trkpt><trkpt lat="45.6585559" lon="9.6279373"><ele>208.5</ele><time>2026-04-25T07:25:51.764Z</time></trkpt><trkpt lat="45.6586649" lon="9.6280355"><ele>208.75</ele><time>2026-04-25T07:25:52.764Z</time></trkpt><trkpt lat="45.6587743" lon="9.6281343"><ele>209.0</ele><time>2026-04-25T07:25:53.763Z</time></trkpt><trkpt lat="45.6588805" lon="9.6282316"><ele>209.0</ele><time>2026-04-25T07:25:54.764Z</time></trkpt><trkpt lat="45.6589865" lon="9.6283312"><ele>209.0</ele><time>2026-04-25T07:25:55.764Z</time></trkpt><trkpt lat="45.6590925" lon="9.6284376"><ele>209.0</ele><time>2026-04-25T07:25:56.763Z</time></trkpt><trkpt lat="45.6591966" lon="9.62854"><ele>209.0</ele><time>2026-04-25T07:25:57.764Z</time></trkpt><trkpt lat="45.6593002" lon="9.628641"><ele>209.0</ele><time>2026-04-25T07:25:58.764Z</time></trkpt><trkpt lat="45.659407" lon="9.628742"><ele>209.0</ele><time>2026-04-25T07:25:59.763Z</time></trkpt><trkpt lat="45.6595132" lon="9.6288431"><ele>209.0</ele><time>2026-04-25T07:26:00.764Z</time></trkpt><trkpt lat="45.6596191" lon="9.6289453"><ele>209.0</ele><time>2026-04-25T07:26:01.764Z</time></trkpt><trkpt lat="45.6597283" lon="9.6290459"><ele>209.0</ele><time>2026-04-25T07:26:02.764Z</time></trkpt><trkpt lat="45.6598382" lon="9.6291453"><ele>209.0</ele><time>2026-04-25T07:26:03.763Z</time></trkpt><trkpt lat="45.6599462" lon="9.6292455"><ele>209.0</ele><time>2026-04-25T07:26:04.763Z</time></trkpt><trkpt lat="45.6600575" lon="9.6293431"><ele>209.0</ele><time>2026-04-25T07:26:05.764Z</time></trkpt><trkpt lat="45.6601671" lon="9.6294396"><ele>209.25</ele><time>2026-04-25T07:26:06.763Z</time></trkpt><trkpt lat="45.6602763" lon="9.6295357"><ele>209.5</ele><time>2026-04-25T07:26:07.763Z</time></trkpt><trkpt lat="45.6603854" lon="9.6296307"><ele>209.75</ele><time>2026-04-25T07:26:08.763Z</time></trkpt><trkpt lat="45.6604925" lon="9.629725"><ele>210.0</ele><time>2026-04-25T07:26:09.763Z</time></trkpt><trkpt lat="45.6606006" lon="9.6298202"><ele>210.0</ele><time>2026-04-25T07:26:10.763Z</time></trkpt><trkpt lat="45.6607092" lon="9.6299139"><ele>210.0</ele><time>2026-04-25T07:26:11.764Z</time></trkpt><trkpt lat="45.6608183" lon="9.630007"><ele>210.0</ele><time>2026-04-25T07:26:12.763Z</time></trkpt><trkpt lat="45.6609268" lon="9.6301028"><ele>210.0</ele><time>2026-04-25T07:26:13.763Z</time></trkpt><trkpt lat="45.6610335" lon="9.6302033"><ele>210.25</ele><time>2026-04-25T07:26:14.763Z</time></trkpt><trkpt lat="45.6611373" lon="9.6303073"><ele>210.5</ele><time>2026-04-25T07:26:15.764Z</time></trkpt><trkpt lat="45.6612414" lon="9.6304092"><ele>210.75</ele><time>2026-04-25T07:26:16.763Z</time></trkpt><trkpt lat="45.6613465" lon="9.6305073"><ele>211.0</ele><time>2026-04-25T07:26:17.763Z</time></trkpt><trkpt lat="45.6614524" lon="9.6306078"><ele>210.5</ele><time>2026-04-25T07:26:18.763Z</time></trkpt><trkpt lat="45.661557" lon="9.6307063"><ele>210.0</ele><time>2026-04-25T07:26:19.764Z</time></trkpt><trkpt lat="45.6616609" lon="9.6308028"><ele>209.5</ele><time>2026-04-25T07:26:20.764Z</time></trkpt><trkpt lat="45.661763" lon="9.6308974"><ele>209.0</ele><time>2026-04-25T07:26:21.764Z</time></trkpt><trkpt lat="45.661867" lon="9.6309908"><ele>209.0</ele><time>2026-04-25T07:26:22.764Z</time></trkpt><trkpt lat="45.6619697" lon="9.6310837"><ele>209.0</ele><time>2026-04-25T07:26:23.764Z</time></trkpt><trkpt lat="45.6620706" lon="9.6311759"><ele>209.0</ele><time>2026-04-25T07:26:24.763Z</time></trkpt><trkpt lat="45.662174" lon="9.6312633"><ele>209.0</ele><time>2026-04-25T07:26:25.764Z</time></trkpt><trkpt lat="45.6622754" lon="9.631343"><ele>209.0</ele><time>2026-04-25T07:26:26.764Z</time></trkpt><trkpt lat="45.6623763" lon="9.6314142"><ele>209.0</ele><time>2026-04-25T07:26:27.763Z</time></trkpt><trkpt lat="45.6624762" lon="9.6314806"><ele>209.0</ele><time>2026-04-25T07:26:28.763Z</time></trkpt><trkpt lat="45.662577" lon="9.631557"><ele>209.0</ele><time>2026-04-25T07:26:29.764Z</time></trkpt><trkpt lat="45.6626754" lon="9.631646"><ele>209.0</ele><time>2026-04-25T07:26:30.764Z</time></trkpt><trkpt lat="45.6627692" lon="9.6317435"><ele>209.0</ele><time>2026-04-25T07:26:31.764Z</time></trkpt><trkpt lat="45.66286" lon="9.6318435"><ele>209.0</ele><time>2026-04-25T07:26:32.764Z</time></trkpt><trkpt lat="45.6629507" lon="9.6319418"><ele>209.0</ele><time>2026-04-25T07:26:33.763Z</time></trkpt><trkpt lat="45.6630399" lon="9.6320375"><ele>209.39999999999998</ele><time>2026-04-25T07:26:34.764Z</time></trkpt><trkpt lat="45.6631311" lon="9.6321316"><ele>209.8</ele><time>2026-04-25T07:26:35.763Z</time></trkpt><trkpt lat="45.6632246" lon="9.6322215"><ele>210.2</ele><time>2026-04-25T07:26:36.764Z</time></trkpt><trkpt lat="45.6633186" lon="9.6323081"><ele>210.60000000000002</ele><time>2026-04-25T07:26:37.763Z</time></trkpt><trkpt lat="45.6634131" lon="9.6323955"><ele>211.0</ele><time>2026-04-25T07:26:38.763Z</time></trkpt><trkpt lat="45.6635065" lon="9.6324796"><ele>211.0</ele><time>2026-04-25T07:26:39.763Z</time></trkpt><trkpt lat="45.6635989" lon="9.6325648"><ele>211.0</ele><time>2026-04-25T07:26:40.764Z</time></trkpt><trkpt lat="45.6636867" lon="9.6326507"><ele>211.0</ele><time>2026-04-25T07:26:41.763Z</time></trkpt><trkpt lat="45.6637761" lon="9.6327364"><ele>211.0</ele><time>2026-04-25T07:26:42.764Z</time></trkpt><trkpt lat="45.6638659" lon="9.6328232"><ele>211.0</ele><time>2026-04-25T07:26:43.763Z</time></trkpt><trkpt lat="45.6639575" lon="9.632912"><ele>211.25</ele><time>2026-04-25T07:26:44.764Z</time></trkpt><trkpt lat="45.6640494" lon="9.6330015"><ele>211.5</ele><time>2026-04-25T07:26:45.764Z</time></trkpt><trkpt lat="45.664143" lon="9.633094"><ele>211.75</ele><time>2026-04-25T07:26:46.763Z</time></trkpt><trkpt lat="45.6642355" lon="9.6331868"><ele>212.0</ele><time>2026-04-25T07:26:47.764Z</time></trkpt><trkpt lat="45.6643277" lon="9.6332833"><ele>212.0</ele><time>2026-04-25T07:26:48.764Z</time></trkpt><trkpt lat="45.6644191" lon="9.6333804"><ele>212.0</ele><time>2026-04-25T07:26:49.763Z</time></trkpt><trkpt lat="45.6645088" lon="9.633475"><ele>212.0</ele><time>2026-04-25T07:26:50.764Z</time></trkpt><trkpt lat="45.6645983" lon="9.633567"><ele>212.0</ele><time>2026-04-25T07:26:51.763Z</time></trkpt><trkpt lat="45.6646898" lon="9.6336629"><ele>212.0</ele><time>2026-04-25T07:26:52.764Z</time></trkpt><trkpt lat="45.6647813" lon="9.6337616"><ele>211.75</ele><time>2026-04-25T07:26:53.763Z</time></trkpt><trkpt lat="45.6648728" lon="9.6338568"><ele>211.5</ele><time>2026-04-25T07:26:54.764Z</time></trkpt><trkpt lat="45.6649653" lon="9.633956"><ele>211.25</ele><time>2026-04-25T07:26:55.764Z</time></trkpt><trkpt lat="45.6650578" lon="9.6340544"><ele>211.0</ele><time>2026-04-25T07:26:56.764Z</time></trkpt><trkpt lat="45.6651485" lon="9.6341532"><ele>211.0</ele><time>2026-04-25T07:26:57.764Z</time></trkpt><trkpt lat="45.6652394" lon="9.6342487"><ele>211.0</ele><time>2026-04-25T07:26:58.764Z</time></trkpt><trkpt lat="45.6653276" lon="9.6343476"><ele>211.0</ele><time>2026-04-25T07:26:59.763Z</time></trkpt><trkpt lat="45.6654204" lon="9.6344429"><ele>211.0</ele><time>2026-04-25T07:27:00.763Z</time></trkpt><trkpt lat="45.6655122" lon="9.6345417"><ele>211.25</ele><time>2026-04-25T07:27:01.763Z</time></trkpt><trkpt lat="45.6656052" lon="9.6346391"><ele>211.5</ele><time>2026-04-25T07:27:02.764Z</time></trkpt><trkpt lat="45.6657002" lon="9.6347312"><ele>211.75</ele><time>2026-04-25T07:27:03.764Z</time></trkpt><trkpt lat="45.6657929" lon="9.6348246"><ele>212.0</ele><time>2026-04-25T07:27:04.763Z</time></trkpt><trkpt lat="45.6658863" lon="9.6349252"><ele>212.0</ele><time>2026-04-25T07:27:05.763Z</time></trkpt><trkpt lat="45.665982" lon="9.6350249"><ele>212.0</ele><time>2026-04-25T07:27:06.763Z</time></trkpt><trkpt lat="45.666076" lon="9.6351241"><ele>212.0</ele><time>2026-04-25T07:27:07.763Z</time></trkpt><trkpt lat="45.6661695" lon="9.6352213"><ele>212.0</ele><time>2026-04-25T07:27:08.764Z</time></trkpt><trkpt lat="45.66626" lon="9.635317"><ele>212.0</ele><time>2026-04-25T07:27:09.763Z</time></trkpt><trkpt lat="45.6663526" lon="9.635411"><ele>212.0</ele><time>2026-04-25T07:27:10.763Z</time></trkpt><trkpt lat="45.6664387" lon="9.6355013"><ele>212.0</ele><time>2026-04-25T07:27:11.764Z</time></trkpt><trkpt lat="45.6665246" lon="9.6355915"><ele>212.0</ele><time>2026-04-25T07:27:12.764Z</time></trkpt><trkpt lat="45.6666068" lon="9.6356799"><ele>212.0</ele><time>2026-04-25T07:27:13.763Z</time></trkpt><trkpt lat="45.6666914" lon="9.6357684"><ele>212.0</ele><time>2026-04-25T07:27:14.763Z</time></trkpt><trkpt lat="45.6667753" lon="9.6358601"><ele>212.0</ele><time>2026-04-25T07:27:15.764Z</time></trkpt><trkpt lat="45.6668603" lon="9.6359481"><ele>212.0</ele><time>2026-04-25T07:27:16.764Z</time></trkpt><trkpt lat="45.666946" lon="9.6360375"><ele>212.0</ele><time>2026-04-25T07:27:17.764Z</time></trkpt><trkpt lat="45.6670344" lon="9.6361259"><ele>212.0</ele><time>2026-04-25T07:27:18.764Z</time></trkpt><trkpt lat="45.6671209" lon="9.6362145"><ele>212.5</ele><time>2026-04-25T07:27:19.764Z</time></trkpt><trkpt lat="45.6672075" lon="9.6363046"><ele>213.0</ele><time>2026-04-25T07:27:20.763Z</time></trkpt><trkpt lat="45.6672986" lon="9.6364008"><ele>213.5</ele><time>2026-04-25T07:27:21.763Z</time></trkpt><trkpt lat="45.6673919" lon="9.6365023"><ele>214.0</ele><time>2026-04-25T07:27:22.763Z</time></trkpt><trkpt lat="45.6674922" lon="9.6366075"><ele>214.0</ele><time>2026-04-25T07:27:23.763Z</time></trkpt><trkpt lat="45.667595" lon="9.6367119"><ele>214.0</ele><time>2026-04-25T07:27:24.763Z</time></trkpt><trkpt lat="45.6677003" lon="9.6368202"><ele>214.0</ele><time>2026-04-25T07:27:25.764Z</time></trkpt><trkpt lat="45.6678016" lon="9.6369291"><ele>214.0</ele><time>2026-04-25T07:27:26.764Z</time></trkpt><trkpt lat="45.6678965" lon="9.6370307"><ele>214.0</ele><time>2026-04-25T07:27:27.764Z</time></trkpt><trkpt lat="45.667982" lon="9.6371225"><ele>213.99999999999997</ele><time>2026-04-25T07:27:28.763Z</time></trkpt><trkpt lat="45.6680596" lon="9.6372072"><ele>213.99999999999997</ele><time>2026-04-25T07:27:29.764Z</time></trkpt><trkpt lat="45.6681306" lon="9.637283"><ele>214.0</ele><time>2026-04-25T07:27:30.764Z</time></trkpt><trkpt lat="45.6681948" lon="9.6373499"><ele>214.0</ele><time>2026-04-25T07:27:31.763Z</time></trkpt><trkpt lat="45.6682594" lon="9.6374172"><ele>213.99999999999997</ele><time>2026-04-25T07:27:32.763Z</time></trkpt><trkpt lat="45.6683248" lon="9.6374832"><ele>214.0</ele><time>2026-04-25T07:27:33.763Z</time></trkpt><trkpt lat="45.6683882" lon="9.6375538"><ele>214.0</ele><time>2026-04-25T07:27:34.764Z</time></trkpt><trkpt lat="45.6684507" lon="9.6376255"><ele>214.0</ele><time>2026-04-25T07:27:35.763Z</time></trkpt><trkpt lat="45.668513" lon="9.6376975"><ele>213.99999999999997</ele><time>2026-04-25T07:27:36.764Z</time></trkpt><trkpt lat="45.6685777" lon="9.6377643"><ele>214.0</ele><time>2026-04-25T07:27:37.764Z</time></trkpt><trkpt lat="45.6686407" lon="9.6378258"><ele>214.33333333333331</ele><time>2026-04-25T07:27:38.764Z</time></trkpt><trkpt lat="45.6687012" lon="9.6378863"><ele>214.66666666666666</ele><time>2026-04-25T07:27:39.764Z</time></trkpt><trkpt lat="45.6687575" lon="9.6379491"><ele>215.0</ele><time>2026-04-25T07:27:40.764Z</time></trkpt><trkpt lat="45.6688132" lon="9.6380132"><ele>215.33333333333331</ele><time>2026-04-25T07:27:41.763Z</time></trkpt><trkpt lat="45.6688745" lon="9.6380773"><ele>215.66666666666666</ele><time>2026-04-25T07:27:42.764Z</time></trkpt><trkpt lat="45.6689387" lon="9.6381455"><ele>216.0</ele><time>2026-04-25T07:27:43.764Z</time></trkpt><trkpt lat="45.6690089" lon="9.6382158"><ele>216.0</ele><time>2026-04-25T07:27:44.764Z</time></trkpt><trkpt lat="45.6690762" lon="9.6382823"><ele>216.0</ele><time>2026-04-25T07:27:45.763Z</time></trkpt><trkpt lat="45.6691378" lon="9.6383462"><ele>216.0</ele><time>2026-04-25T07:27:46.763Z</time></trkpt><trkpt lat="45.6691977" lon="9.6384101"><ele>216.0</ele><time>2026-04-25T07:27:47.764Z</time></trkpt><trkpt lat="45.6692582" lon="9.6384755"><ele>216.0</ele><time>2026-04-25T07:27:48.763Z</time></trkpt><trkpt lat="45.6693147" lon="9.6385339"><ele>216.0</ele><time>2026-04-25T07:27:49.764Z</time></trkpt><trkpt lat="45.6693695" lon="9.6385955"><ele>216.0</ele><time>2026-04-25T07:27:50.763Z</time></trkpt><trkpt lat="45.6694206" lon="9.6386531"><ele>216.20000000000002</ele><time>2026-04-25T07:27:51.764Z</time></trkpt><trkpt lat="45.6695152" lon="9.6387601"><ele>216.40000000000003</ele><time>2026-04-25T07:27:53.763Z</time></trkpt><trkpt lat="45.669583" lon="9.6388255"><ele>216.6</ele><time>2026-04-25T07:27:55.763Z</time></trkpt><trkpt lat="45.6696368" lon="9.6388852"><ele>216.8</ele><time>2026-04-25T07:27:58.764Z</time></trkpt><trkpt lat="45.6696974" lon="9.6389671"><ele>217.0</ele><time>2026-04-25T07:28:00.763Z</time></trkpt><trkpt lat="45.6697469" lon="9.6391175"><ele>217.0</ele><time>2026-04-25T07:28:02.763Z</time></trkpt><trkpt lat="45.6698056" lon="9.6392637"><ele>217.0</ele><time>2026-04-25T07:28:04.764Z</time></trkpt><trkpt lat="45.6699057" lon="9.6393303"><ele>217.0</ele><time>2026-04-25T07:28:06.764Z</time></trkpt><trkpt lat="45.6700345" lon="9.6393765"><ele>217.0</ele><time>2026-04-25T07:28:08.764Z</time></trkpt><trkpt lat="45.6701027" lon="9.6394274"><ele>217.0</ele><time>2026-04-25T07:28:09.763Z</time></trkpt><trkpt lat="45.6701703" lon="9.6395017"><ele>216.99999999999997</ele><time>2026-04-25T07:28:10.764Z</time></trkpt><trkpt lat="45.6702319" lon="9.6395869"><ele>217.0</ele><time>2026-04-25T07:28:11.763Z</time></trkpt><trkpt lat="45.6702965" lon="9.6396678"><ele>217.0</ele><time>2026-04-25T07:28:12.764Z</time></trkpt><trkpt lat="45.6703648" lon="9.6397476"><ele>217.0</ele><time>2026-04-25T07:28:13.763Z</time></trkpt><trkpt lat="45.6704354" lon="9.6398285"><ele>216.99999999999997</ele><time>2026-04-25T07:28:14.763Z</time></trkpt><trkpt lat="45.67051" lon="9.639917"><ele>217.0</ele><time>2026-04-25T07:28:15.764Z</time></trkpt><trkpt lat="45.6705843" lon="9.6400014"><ele>217.39999999999998</ele><time>2026-04-25T07:28:16.763Z</time></trkpt><trkpt lat="45.6706617" lon="9.6400928"><ele>217.79999999999998</ele><time>2026-04-25T07:28:17.763Z</time></trkpt><trkpt lat="45.6707396" lon="9.6401874"><ele>218.2</ele><time>2026-04-25T07:28:18.764Z</time></trkpt><trkpt lat="45.6708206" lon="9.6402878"><ele>218.6</ele><time>2026-04-25T07:28:19.763Z</time></trkpt><trkpt lat="45.6709015" lon="9.6403825"><ele>219.0</ele><time>2026-04-25T07:28:20.764Z</time></trkpt><trkpt lat="45.6709815" lon="9.6404743"><ele>219.0</ele><time>2026-04-25T07:28:21.764Z</time></trkpt><trkpt lat="45.671056" lon="9.6405652"><ele>218.99999999999997</ele><time>2026-04-25T07:28:22.763Z</time></trkpt><trkpt lat="45.6711343" lon="9.6406588"><ele>218.99999999999997</ele><time>2026-04-25T07:28:23.763Z</time></trkpt><trkpt lat="45.6712167" lon="9.6407563"><ele>219.0</ele><time>2026-04-25T07:28:24.763Z</time></trkpt><trkpt lat="45.6713023" lon="9.6408574"><ele>219.0</ele><time>2026-04-25T07:28:25.764Z</time></trkpt><trkpt lat="45.6713863" lon="9.6409603"><ele>219.0</ele><time>2026-04-25T07:28:26.764Z</time></trkpt><trkpt lat="45.6714724" lon="9.641061"><ele>219.0</ele><time>2026-04-25T07:28:27.763Z</time></trkpt><trkpt lat="45.6715581" lon="9.6411646"><ele>219.0</ele><time>2026-04-25T07:28:28.764Z</time></trkpt><trkpt lat="45.671645" lon="9.6412724"><ele>219.0</ele><time>2026-04-25T07:28:29.764Z</time></trkpt><trkpt lat="45.6717306" lon="9.6413761"><ele>219.25</ele><time>2026-04-25T07:28:30.764Z</time></trkpt><trkpt lat="45.671816" lon="9.6414794"><ele>219.5</ele><time>2026-04-25T07:28:31.764Z</time></trkpt><trkpt lat="45.6719022" lon="9.6415813"><ele>219.75</ele><time>2026-04-25T07:28:32.764Z</time></trkpt><trkpt lat="45.6719908" lon="9.6416839"><ele>220.0</ele><time>2026-04-25T07:28:33.764Z</time></trkpt><trkpt lat="45.6720779" lon="9.6417908"><ele>220.0</ele><time>2026-04-25T07:28:34.764Z</time></trkpt><trkpt lat="45.6721674" lon="9.6419001"><ele>220.0</ele><time>2026-04-25T07:28:35.764Z</time></trkpt><trkpt lat="45.6722568" lon="9.6420095"><ele>220.0</ele><time>2026-04-25T07:28:36.763Z</time></trkpt><trkpt lat="45.6723478" lon="9.6421139"><ele>220.0</ele><time>2026-04-25T07:28:37.763Z</time></trkpt><trkpt lat="45.6724405" lon="9.642219"><ele>220.0</ele><time>2026-04-25T07:28:38.764Z</time></trkpt><trkpt lat="45.6725316" lon="9.6423263"><ele>220.0</ele><time>2026-04-25T07:28:39.763Z</time></trkpt><trkpt lat="45.6726209" lon="9.6424267"><ele>220.0</ele><time>2026-04-25T07:28:40.763Z</time></trkpt><trkpt lat="45.6727112" lon="9.64253"><ele>220.0</ele><time>2026-04-25T07:28:41.764Z</time></trkpt><trkpt lat="45.6727987" lon="9.6426353"><ele>220.4</ele><time>2026-04-25T07:28:42.763Z</time></trkpt><trkpt lat="45.6728875" lon="9.6427383"><ele>220.8</ele><time>2026-04-25T07:28:43.763Z</time></trkpt><trkpt lat="45.6729726" lon="9.6428391"><ele>221.2</ele><time>2026-04-25T07:28:44.763Z</time></trkpt><trkpt lat="45.6730582" lon="9.6429371"><ele>221.6</ele><time>2026-04-25T07:28:45.763Z</time></trkpt><trkpt lat="45.6731428" lon="9.6430361"><ele>222.0</ele><time>2026-04-25T07:28:46.763Z</time></trkpt><trkpt lat="45.6732267" lon="9.6431367"><ele>222.0</ele><time>2026-04-25T07:28:47.764Z</time></trkpt><trkpt lat="45.6733087" lon="9.6432329"><ele>222.0</ele><time>2026-04-25T07:28:48.763Z</time></trkpt><trkpt lat="45.673392" lon="9.6433298"><ele>222.0</ele><time>2026-04-25T07:28:49.763Z</time></trkpt><trkpt lat="45.6734678" lon="9.643422"><ele>222.0</ele><time>2026-04-25T07:28:50.763Z</time></trkpt><trkpt lat="45.6735333" lon="9.643506"><ele>222.0</ele><time>2026-04-25T07:28:52.763Z</time></trkpt><trkpt lat="45.673605" lon="9.6435998"><ele>222.0</ele><time>2026-04-25T07:28:56.764Z</time></trkpt><trkpt lat="45.6736851" lon="9.6436896"><ele>222.0</ele><time>2026-04-25T07:28:58.763Z</time></trkpt><trkpt lat="45.6737643" lon="9.6437742"><ele>222.0</ele><time>2026-04-25T07:29:00.763Z</time></trkpt><trkpt lat="45.6738128" lon="9.6438338"><ele>222.0</ele><time>2026-04-25T07:29:02.763Z</time></trkpt><trkpt lat="45.6738673" lon="9.643901"><ele>222.0</ele><time>2026-04-25T07:29:06.764Z</time></trkpt><trkpt lat="45.6739248" lon="9.643966"><ele>222.0</ele><time>2026-04-25T07:30:05.764Z</time></trkpt><trkpt lat="45.673977" lon="9.6440222"><ele>222.0</ele><time>2026-04-25T07:30:07.764Z</time></trkpt><trkpt lat="45.6740474" lon="9.6441045"><ele>222.0</ele><time>2026-04-25T07:30:09.763Z</time></trkpt><trkpt lat="45.6741429" lon="9.644219"><ele>222.0</ele><time>2026-04-25T07:30:11.763Z</time></trkpt><trkpt lat="45.6741966" lon="9.6442844"><ele>222.0</ele><time>2026-04-25T07:30:12.763Z</time></trkpt><trkpt lat="45.6742586" lon="9.644357"><ele>222.0</ele><time>2026-04-25T07:30:13.764Z</time></trkpt><trkpt lat="45.6743212" lon="9.6444314"><ele>222.0</ele><time>2026-04-25T07:30:14.764Z</time></trkpt><trkpt lat="45.6743853" lon="9.6445064"><ele>222.2</ele><time>2026-04-25T07:30:15.763Z</time></trkpt><trkpt lat="45.6744482" lon="9.6445772"><ele>222.39999999999998</ele><time>2026-04-25T07:30:16.763Z</time></trkpt><trkpt lat="45.6745077" lon="9.6446522"><ele>222.60000000000002</ele><time>2026-04-25T07:30:17.739Z</time></trkpt><trkpt lat="45.6746033" lon="9.6447645"><ele>222.8</ele><time>2026-04-25T07:30:19.741Z</time></trkpt><trkpt lat="45.6746944" lon="9.6448752"><ele>223.0</ele><time>2026-04-25T07:30:21.741Z</time></trkpt><trkpt lat="45.6747805" lon="9.6449671"><ele>223.0</ele><time>2026-04-25T07:30:23.74Z</time></trkpt><trkpt lat="45.6748667" lon="9.645035"><ele>223.0</ele><time>2026-04-25T07:30:25.739Z</time></trkpt><trkpt lat="45.6749572" lon="9.6451126"><ele>223.0</ele><time>2026-04-25T07:30:27.739Z</time></trkpt><trkpt lat="45.67505" lon="9.6451837"><ele>223.0</ele><time>2026-04-25T07:30:29.739Z</time></trkpt><trkpt lat="45.6751429" lon="9.6452683"><ele>223.0</ele><time>2026-04-25T07:30:31.739Z</time></trkpt><trkpt lat="45.6752307" lon="9.6453821"><ele>223.33333333333331</ele><time>2026-04-25T07:30:33.74Z</time></trkpt><trkpt lat="45.6753161" lon="9.6455163"><ele>223.66666666666666</ele><time>2026-04-25T07:30:35.739Z</time></trkpt><trkpt lat="45.6753652" lon="9.6455995"><ele>224.0</ele><time>2026-04-25T07:30:36.74Z</time></trkpt><trkpt lat="45.6754148" lon="9.6456931"><ele>224.33333333333331</ele><time>2026-04-25T07:30:37.74Z</time></trkpt><trkpt lat="45.675466" lon="9.6457851"><ele>224.66666666666666</ele><time>2026-04-25T07:30:38.74Z</time></trkpt><trkpt lat="45.6755152" lon="9.6458704"><ele>225.0</ele><time>2026-04-25T07:30:39.739Z</time></trkpt><trkpt lat="45.6755602" lon="9.6459517"><ele>225.0</ele><time>2026-04-25T07:30:40.74Z</time></trkpt><trkpt lat="45.6756034" lon="9.6460322"><ele>225.0</ele><time>2026-04-25T07:30:41.74Z</time></trkpt><trkpt lat="45.675641" lon="9.646113"><ele>225.0</ele><time>2026-04-25T07:30:42.74Z</time></trkpt><trkpt lat="45.6757272" lon="9.6461381"><ele>225.0</ele><time>2026-04-25T07:30:43.739Z</time></trkpt><trkpt lat="45.6757761" lon="9.6461952"><ele>225.0</ele><time>2026-04-25T07:30:44.739Z</time></trkpt><trkpt lat="45.6758676" lon="9.6463011"><ele>225.0</ele><time>2026-04-25T07:30:46.74Z</time></trkpt><trkpt lat="45.6759542" lon="9.6463996"><ele>225.2</ele><time>2026-04-25T07:30:48.739Z</time></trkpt><trkpt lat="45.6760439" lon="9.6465014"><ele>225.4</ele><time>2026-04-25T07:30:50.74Z</time></trkpt><trkpt lat="45.6761354" lon="9.64661"><ele>225.60000000000002</ele><time>2026-04-25T07:30:52.74Z</time></trkpt><trkpt lat="45.6762214" lon="9.6467148"><ele>225.8</ele><time>2026-04-25T07:30:54.739Z</time></trkpt><trkpt lat="45.6762733" lon="9.646778"><ele>226.0</ele><time>2026-04-25T07:30:56.74Z</time></trkpt><trkpt lat="45.6763378" lon="9.6468576"><ele>226.16666666666666</ele><time>2026-04-25T07:31:31.74Z</time></trkpt><trkpt lat="45.6764008" lon="9.6469278"><ele>226.33333333333331</ele><time>2026-04-25T07:31:33.74Z</time></trkpt><trkpt lat="45.6764665" lon="9.6470071"><ele>226.5</ele><time>2026-04-25T07:31:35.739Z</time></trkpt><trkpt lat="45.6765262" lon="9.6470802"><ele>226.66666666666669</ele><time>2026-04-25T07:31:37.74Z</time></trkpt><trkpt lat="45.6765793" lon="9.6471449"><ele>226.83333333333334</ele><time>2026-04-25T07:31:39.74Z</time></trkpt><trkpt lat="45.6766383" lon="9.6472176"><ele>227.0</ele><time>2026-04-25T07:31:41.739Z</time></trkpt><trkpt lat="45.6766942" lon="9.647282"><ele>226.8</ele><time>2026-04-25T07:31:44.74Z</time></trkpt><trkpt lat="45.6767721" lon="9.6473694"><ele>226.6</ele><time>2026-04-25T07:31:47.739Z</time></trkpt><trkpt lat="45.6768433" lon="9.6474396"><ele>226.40000000000003</ele><time>2026-04-25T07:31:49.74Z</time></trkpt><trkpt lat="45.6769168" lon="9.6475108"><ele>226.20000000000002</ele><time>2026-04-25T07:31:51.739Z</time></trkpt><trkpt lat="45.6769879" lon="9.647595"><ele>226.0</ele><time>2026-04-25T07:31:53.739Z</time></trkpt><trkpt lat="45.6770648" lon="9.6476856"><ele>225.99999999999997</ele><time>2026-04-25T07:31:55.739Z</time></trkpt><trkpt lat="45.6771527" lon="9.64779"><ele>226.0</ele><time>2026-04-25T07:31:57.739Z</time></trkpt><trkpt lat="45.6772046" lon="9.647854"><ele>226.0</ele><time>2026-04-25T07:31:58.739Z</time></trkpt><trkpt lat="45.6772634" lon="9.6479251"><ele>226.0</ele><time>2026-04-25T07:31:59.74Z</time></trkpt><trkpt lat="45.6773242" lon="9.647999"><ele>225.99999999999997</ele><time>2026-04-25T07:32:00.739Z</time></trkpt><trkpt lat="45.6773878" lon="9.6480756"><ele>226.0</ele><time>2026-04-25T07:32:01.74Z</time></trkpt><trkpt lat="45.6774491" lon="9.6481492"><ele>225.83333333333331</ele><time>2026-04-25T07:32:02.739Z</time></trkpt><trkpt lat="45.6775072" lon="9.6482183"><ele>225.66666666666666</ele><time>2026-04-25T07:32:03.74Z</time></trkpt><trkpt lat="45.6775607" lon="9.6482811"><ele>225.5</ele><time>2026-04-25T07:32:04.74Z</time></trkpt><trkpt lat="45.6776413" lon="9.6483814"><ele>225.33333333333331</ele><time>2026-04-25T07:32:06.74Z</time></trkpt><trkpt lat="45.6776912" lon="9.64845"><ele>225.16666666666666</ele><time>2026-04-25T07:32:09.739Z</time></trkpt><trkpt lat="45.6777388" lon="9.6485203"><ele>225.0</ele><time>2026-04-25T07:33:08.74Z</time></trkpt><trkpt lat="45.6777905" lon="9.6485867"><ele>225.4</ele><time>2026-04-25T07:33:09.74Z</time></trkpt><trkpt lat="45.677849" lon="9.6486766"><ele>225.8</ele><time>2026-04-25T07:33:10.739Z</time></trkpt><trkpt lat="45.6779093" lon="9.6487713"><ele>226.2</ele><time>2026-04-25T07:33:11.739Z</time></trkpt><trkpt lat="45.6779775" lon="9.648881"><ele>226.6</ele><time>2026-04-25T07:33:12.739Z</time></trkpt><trkpt lat="45.678053" lon="9.6490026"><ele>227.0</ele><time>2026-04-25T07:33:13.74Z</time></trkpt><trkpt lat="45.6781209" lon="9.6491114"><ele>227.0</ele><time>2026-04-25T07:33:14.74Z</time></trkpt><trkpt lat="45.6781944" lon="9.6492299"><ele>227.0</ele><time>2026-04-25T07:33:15.739Z</time></trkpt><trkpt lat="45.6782699" lon="9.6493506"><ele>227.0</ele><time>2026-04-25T07:33:16.739Z</time></trkpt><trkpt lat="45.6783439" lon="9.6494685"><ele>227.0</ele><time>2026-04-25T07:33:17.74Z</time></trkpt><trkpt lat="45.6784168" lon="9.6495852"><ele>227.0</ele><time>2026-04-25T07:33:18.74Z</time></trkpt><trkpt lat="45.6784862" lon="9.649702"><ele>226.8</ele><time>2026-04-25T07:33:19.74Z</time></trkpt><trkpt lat="45.6785465" lon="9.6498224"><ele>226.6</ele><time>2026-04-25T07:33:20.739Z</time></trkpt><trkpt lat="45.6785943" lon="9.6499488"><ele>226.40000000000003</ele><time>2026-04-25T07:33:21.74Z</time></trkpt><trkpt lat="45.6786408" lon="9.6500797"><ele>226.20000000000002</ele><time>2026-04-25T07:33:22.74Z</time></trkpt><trkpt lat="45.6787017" lon="9.6501972"><ele>226.0</ele><time>2026-04-25T07:33:23.74Z</time></trkpt><trkpt lat="45.6787827" lon="9.6502953"><ele>226.0</ele><time>2026-04-25T07:33:24.74Z</time></trkpt><trkpt lat="45.6788743" lon="9.6503821"><ele>226.00000000000003</ele><time>2026-04-25T07:33:25.739Z</time></trkpt><trkpt lat="45.6789673" lon="9.6504783"><ele>226.00000000000003</ele><time>2026-04-25T07:33:26.74Z</time></trkpt><trkpt lat="45.6790261" lon="9.650559"><ele>226.0</ele><time>2026-04-25T07:33:27.74Z</time></trkpt><trkpt lat="45.6790658" lon="9.6506339"><ele>226.0</ele><time>2026-04-25T07:33:28.739Z</time></trkpt><trkpt lat="45.6791068" lon="9.6507601"><ele>226.0</ele><time>2026-04-25T07:33:30.739Z</time></trkpt><trkpt lat="45.6791358" lon="9.6508661"><ele>226.0</ele><time>2026-04-25T07:33:32.74Z</time></trkpt><trkpt lat="45.6791754" lon="9.6509489"><ele>226.0</ele><time>2026-04-25T07:33:34.74Z</time></trkpt><trkpt lat="45.6792173" lon="9.6510228"><ele>226.0</ele><time>2026-04-25T07:33:36.74Z</time></trkpt><trkpt lat="45.6792636" lon="9.6511042"><ele>226.0</ele><time>2026-04-25T07:33:39.74Z</time></trkpt><trkpt lat="45.6793225" lon="9.6511666"><ele>226.0</ele><time>2026-04-25T07:36:16.739Z</time></trkpt><trkpt lat="45.6793795" lon="9.6512185"><ele>226.0</ele><time>2026-04-25T07:36:18.74Z</time></trkpt><trkpt lat="45.6794623" lon="9.651297"><ele>226.4</ele><time>2026-04-25T07:36:20.74Z</time></trkpt><trkpt lat="45.6795522" lon="9.6514211"><ele>226.8</ele><time>2026-04-25T07:36:22.74Z</time></trkpt><trkpt lat="45.6796393" lon="9.6515658"><ele>227.20000000000002</ele><time>2026-04-25T07:36:24.739Z</time></trkpt><trkpt lat="45.6796882" lon="9.6516477"><ele>227.60000000000002</ele><time>2026-04-25T07:36:25.739Z</time></trkpt><trkpt lat="45.6797352" lon="9.6517257"><ele>228.0</ele><time>2026-04-25T07:36:26.739Z</time></trkpt><trkpt lat="45.6797902" lon="9.6518154"><ele>228.0</ele><time>2026-04-25T07:36:27.74Z</time></trkpt><trkpt lat="45.6798501" lon="9.6519145"><ele>228.0</ele><time>2026-04-25T07:36:28.739Z</time></trkpt><trkpt lat="45.6799154" lon="9.6520236"><ele>228.0</ele><time>2026-04-25T07:36:29.739Z</time></trkpt><trkpt lat="45.6799892" lon="9.6521518"><ele>228.0</ele><time>2026-04-25T07:36:30.739Z</time></trkpt><trkpt lat="45.6800568" lon="9.6522676"><ele>228.0</ele><time>2026-04-25T07:36:31.739Z</time></trkpt><trkpt lat="45.6801316" lon="9.6523926"><ele>227.5</ele><time>2026-04-25T07:36:32.74Z</time></trkpt><trkpt lat="45.6802084" lon="9.6525166"><ele>227.0</ele><time>2026-04-25T07:36:33.739Z</time></trkpt><trkpt lat="45.6802878" lon="9.652639"><ele>226.5</ele><time>2026-04-25T07:36:34.74Z</time></trkpt><trkpt lat="45.6803765" lon="9.6527699"><ele>226.0</ele><time>2026-04-25T07:36:35.739Z</time></trkpt><trkpt lat="45.6804716" lon="9.6529089"><ele>225.75</ele><time>2026-04-25T07:36:36.74Z</time></trkpt><trkpt lat="45.6805672" lon="9.6530458"><ele>225.5</ele><time>2026-04-25T07:36:37.739Z</time></trkpt><trkpt lat="45.6806661" lon="9.6531844"><ele>225.25</ele><time>2026-04-25T07:36:38.739Z</time></trkpt><trkpt lat="45.6807546" lon="9.6533004"><ele>225.0</ele><time>2026-04-25T07:36:39.739Z</time></trkpt><trkpt lat="45.6808489" lon="9.6534135"><ele>225.0</ele><time>2026-04-25T07:36:40.74Z</time></trkpt><trkpt lat="45.6809517" lon="9.6535279"><ele>225.0</ele><time>2026-04-25T07:36:41.739Z</time></trkpt><trkpt lat="45.6810446" lon="9.6536236"><ele>225.0</ele><time>2026-04-25T07:36:42.74Z</time></trkpt><trkpt lat="45.6811436" lon="9.6537227"><ele>225.0</ele><time>2026-04-25T07:36:43.739Z</time></trkpt><trkpt lat="45.6812439" lon="9.6538209"><ele>225.75</ele><time>2026-04-25T07:36:44.74Z</time></trkpt><trkpt lat="45.6813447" lon="9.653915"><ele>226.5</ele><time>2026-04-25T07:36:45.74Z</time></trkpt><trkpt lat="45.6814521" lon="9.6540118"><ele>227.25</ele><time>2026-04-25T07:36:46.739Z</time></trkpt><trkpt lat="45.681547" lon="9.654097"><ele>228.0</ele><time>2026-04-25T07:36:47.74Z</time></trkpt><trkpt lat="45.681647" lon="9.6541869"><ele>228.0</ele><time>2026-04-25T07:36:48.739Z</time></trkpt><trkpt lat="45.6817455" lon="9.6542777"><ele>228.0</ele><time>2026-04-25T07:36:49.739Z</time></trkpt><trkpt lat="45.681844" lon="9.6543674"><ele>228.0</ele><time>2026-04-25T07:36:50.739Z</time></trkpt><trkpt lat="45.6819407" lon="9.6544539"><ele>228.0</ele><time>2026-04-25T07:36:51.74Z</time></trkpt><trkpt lat="45.682038" lon="9.6545416"><ele>228.60000000000002</ele><time>2026-04-25T07:36:52.739Z</time></trkpt><trkpt lat="45.6821327" lon="9.6546275"><ele>229.20000000000002</ele><time>2026-04-25T07:36:53.739Z</time></trkpt><trkpt lat="45.6822281" lon="9.6547151"><ele>229.8</ele><time>2026-04-25T07:36:54.74Z</time></trkpt><trkpt lat="45.6823103" lon="9.6547901"><ele>230.4</ele><time>2026-04-25T07:36:55.74Z</time></trkpt><trkpt lat="45.6823994" lon="9.6548704"><ele>231.0</ele><time>2026-04-25T07:36:56.74Z</time></trkpt><trkpt lat="45.6824934" lon="9.654954"><ele>231.0</ele><time>2026-04-25T07:36:57.739Z</time></trkpt><trkpt lat="45.6825787" lon="9.655028"><ele>231.00000000000003</ele><time>2026-04-25T07:36:58.74Z</time></trkpt><trkpt lat="45.6826726" lon="9.6551088"><ele>231.00000000000003</ele><time>2026-04-25T07:36:59.739Z</time></trkpt><trkpt lat="45.6827671" lon="9.6551902"><ele>231.0</ele><time>2026-04-25T07:37:00.74Z</time></trkpt><trkpt lat="45.6828625" lon="9.6552742"><ele>231.0</ele><time>2026-04-25T07:37:01.74Z</time></trkpt><trkpt lat="45.6829631" lon="9.6553637"><ele>231.4</ele><time>2026-04-25T07:37:02.739Z</time></trkpt><trkpt lat="45.6830534" lon="9.655444"><ele>231.8</ele><time>2026-04-25T07:37:03.739Z</time></trkpt><trkpt lat="45.6831494" lon="9.65553"><ele>232.20000000000002</ele><time>2026-04-25T07:37:04.74Z</time></trkpt><trkpt lat="45.6832455" lon="9.6556153"><ele>232.60000000000002</ele><time>2026-04-25T07:37:05.74Z</time></trkpt><trkpt lat="45.6833425" lon="9.6557016"><ele>233.0</ele><time>2026-04-25T07:37:06.74Z</time></trkpt><trkpt lat="45.6834409" lon="9.65579"><ele>233.0</ele><time>2026-04-25T07:37:07.74Z</time></trkpt><trkpt lat="45.6835366" lon="9.6558746"><ele>233.0</ele><time>2026-04-25T07:37:08.74Z</time></trkpt><trkpt lat="45.6836301" lon="9.6559576"><ele>233.0</ele><time>2026-04-25T07:37:09.739Z</time></trkpt><trkpt lat="45.6837277" lon="9.6560457"><ele>233.0</ele><time>2026-04-25T07:37:10.74Z</time></trkpt><trkpt lat="45.6838139" lon="9.6561233"><ele>233.0</ele><time>2026-04-25T07:37:11.739Z</time></trkpt><trkpt lat="45.6839089" lon="9.6562079"><ele>233.25</ele><time>2026-04-25T07:37:12.739Z</time></trkpt><trkpt lat="45.6840092" lon="9.656297"><ele>233.5</ele><time>2026-04-25T07:37:13.739Z</time></trkpt><trkpt lat="45.6840993" lon="9.6563766"><ele>233.75</ele><time>2026-04-25T07:37:14.74Z</time></trkpt><trkpt lat="45.6841966" lon="9.6564633"><ele>234.0</ele><time>2026-04-25T07:37:15.74Z</time></trkpt><trkpt lat="45.6842936" lon="9.6565503"><ele>234.0</ele><time>2026-04-25T07:37:16.739Z</time></trkpt><trkpt lat="45.6843881" lon="9.6566356"><ele>233.99999999999997</ele><time>2026-04-25T07:37:17.739Z</time></trkpt><trkpt lat="45.6844798" lon="9.6567178"><ele>233.99999999999997</ele><time>2026-04-25T07:37:18.739Z</time></trkpt><trkpt lat="45.6845677" lon="9.6567949"><ele>234.0</ele><time>2026-04-25T07:37:19.739Z</time></trkpt><trkpt lat="45.6846521" lon="9.6568706"><ele>234.0</ele><time>2026-04-25T07:37:20.74Z</time></trkpt><trkpt lat="45.6847301" lon="9.6569463"><ele>234.33333333333334</ele><time>2026-04-25T07:37:21.74Z</time></trkpt><trkpt lat="45.6848007" lon="9.6570246"><ele>234.66666666666669</ele><time>2026-04-25T07:37:22.74Z</time></trkpt><trkpt lat="45.6848624" lon="9.6571133"><ele>235.0</ele><time>2026-04-25T07:37:23.739Z</time></trkpt><trkpt lat="45.684914" lon="9.6572101"><ele>235.33333333333334</ele><time>2026-04-25T07:37:24.739Z</time></trkpt><trkpt lat="45.6849536" lon="9.6573038"><ele>235.66666666666669</ele><time>2026-04-25T07:37:25.739Z</time></trkpt><trkpt lat="45.6849897" lon="9.6574104"><ele>236.0</ele><time>2026-04-25T07:37:26.74Z</time></trkpt><trkpt lat="45.6850175" lon="9.6575182"><ele>236.0</ele><time>2026-04-25T07:37:27.74Z</time></trkpt><trkpt lat="45.6850397" lon="9.6576466"><ele>236.00000000000003</ele><time>2026-04-25T07:37:28.739Z</time></trkpt><trkpt lat="45.6850552" lon="9.6577965"><ele>236.00000000000003</ele><time>2026-04-25T07:37:29.739Z</time></trkpt><trkpt lat="45.6850583" lon="9.6579298"><ele>236.0</ele><time>2026-04-25T07:37:30.739Z</time></trkpt><trkpt lat="45.6850537" lon="9.6580756"><ele>236.0</ele><time>2026-04-25T07:37:31.739Z</time></trkpt><trkpt lat="45.6850458" lon="9.6582235"><ele>236.4</ele><time>2026-04-25T07:37:32.74Z</time></trkpt><trkpt lat="45.6850366" lon="9.6583685"><ele>236.8</ele><time>2026-04-25T07:37:33.739Z</time></trkpt><trkpt lat="45.6850307" lon="9.6585125"><ele>237.20000000000002</ele><time>2026-04-25T07:37:34.74Z</time></trkpt><trkpt lat="45.6850301" lon="9.6586526"><ele>237.60000000000002</ele><time>2026-04-25T07:37:35.739Z</time></trkpt><trkpt lat="45.6850361" lon="9.6587896"><ele>238.0</ele><time>2026-04-25T07:37:36.739Z</time></trkpt><trkpt lat="45.6850459" lon="9.6589216"><ele>237.99999999999997</ele><time>2026-04-25T07:37:37.74Z</time></trkpt><trkpt lat="45.6850584" lon="9.6590418"><ele>238.0</ele><time>2026-04-25T07:37:38.739Z</time></trkpt><trkpt lat="45.6850787" lon="9.6591489"><ele>238.0</ele><time>2026-04-25T07:37:39.74Z</time></trkpt><trkpt lat="45.6851086" lon="9.6592468"><ele>238.0</ele><time>2026-04-25T07:37:40.739Z</time></trkpt><trkpt lat="45.6851449" lon="9.6593466"><ele>237.99999999999997</ele><time>2026-04-25T07:37:41.74Z</time></trkpt><trkpt lat="45.6851839" lon="9.6594592"><ele>238.0</ele><time>2026-04-25T07:37:42.74Z</time></trkpt><trkpt lat="45.6852207" lon="9.6595664"><ele>238.2</ele><time>2026-04-25T07:37:43.74Z</time></trkpt><trkpt lat="45.6852674" lon="9.6596884"><ele>238.4</ele><time>2026-04-25T07:37:44.74Z</time></trkpt><trkpt lat="45.6853271" lon="9.6598216"><ele>238.59999999999997</ele><time>2026-04-25T07:37:45.739Z</time></trkpt><trkpt lat="45.6853908" lon="9.6599453"><ele>238.79999999999998</ele><time>2026-04-25T07:37:46.74Z</time></trkpt><trkpt lat="45.685467" lon="9.6600739"><ele>239.0</ele><time>2026-04-25T07:37:47.74Z</time></trkpt><trkpt lat="45.6855519" lon="9.6602004"><ele>239.25</ele><time>2026-04-25T07:37:48.739Z</time></trkpt><trkpt lat="45.6856438" lon="9.6603207"><ele>239.5</ele><time>2026-04-25T07:37:49.739Z</time></trkpt><trkpt lat="45.6857376" lon="9.660436"><ele>239.75</ele><time>2026-04-25T07:37:50.739Z</time></trkpt><trkpt lat="45.685827" lon="9.6605461"><ele>240.0</ele><time>2026-04-25T07:37:51.74Z</time></trkpt><trkpt lat="45.6859101" lon="9.6606495"><ele>240.0</ele><time>2026-04-25T07:37:52.739Z</time></trkpt><trkpt lat="45.6859839" lon="9.6607455"><ele>240.0</ele><time>2026-04-25T07:37:53.74Z</time></trkpt><trkpt lat="45.6860486" lon="9.6608363"><ele>240.0</ele><time>2026-04-25T07:37:54.74Z</time></trkpt><trkpt lat="45.6861007" lon="9.6609279"><ele>240.0</ele><time>2026-04-25T07:37:55.74Z</time></trkpt><trkpt lat="45.6861457" lon="9.6610253"><ele>240.0</ele><time>2026-04-25T07:37:56.74Z</time></trkpt><trkpt lat="45.6861921" lon="9.6611305"><ele>240.0</ele><time>2026-04-25T07:37:57.74Z</time></trkpt><trkpt lat="45.6862463" lon="9.6612472"><ele>239.83333333333334</ele><time>2026-04-25T07:37:58.739Z</time></trkpt><trkpt lat="45.6862955" lon="9.661347"><ele>239.66666666666669</ele><time>2026-04-25T07:37:59.739Z</time></trkpt><trkpt lat="45.6863436" lon="9.6614466"><ele>239.5</ele><time>2026-04-25T07:38:00.74Z</time></trkpt><trkpt lat="45.6863908" lon="9.6615413"><ele>239.33333333333334</ele><time>2026-04-25T07:38:01.739Z</time></trkpt><trkpt lat="45.6864286" lon="9.6616138"><ele>239.16666666666669</ele><time>2026-04-25T07:38:02.74Z</time></trkpt><trkpt lat="45.6864886" lon="9.6617339"><ele>239.0</ele><time>2026-04-25T07:38:04.74Z</time></trkpt><trkpt lat="45.686528" lon="9.661812"><ele>239.0</ele><time>2026-04-25T07:38:06.74Z</time></trkpt><trkpt lat="45.6865625" lon="9.6618888"><ele>238.99999999999997</ele><time>2026-04-25T07:38:34.739Z</time></trkpt><trkpt lat="45.6866211" lon="9.6619972"><ele>238.99999999999997</ele><time>2026-04-25T07:38:37.739Z</time></trkpt><trkpt lat="45.6866676" lon="9.6620948"><ele>239.0</ele><time>2026-04-25T07:38:39.74Z</time></trkpt><trkpt lat="45.686709" lon="9.6622262"><ele>239.0</ele><time>2026-04-25T07:38:41.74Z</time></trkpt><trkpt lat="45.6867238" lon="9.6623942"><ele>239.28571428571433</ele><time>2026-04-25T07:38:43.74Z</time></trkpt><trkpt lat="45.6867092" lon="9.6624888"><ele>239.57142857142858</ele><time>2026-04-25T07:38:44.74Z</time></trkpt><trkpt lat="45.6866806" lon="9.6625806"><ele>239.8571428571429</ele><time>2026-04-25T07:38:45.74Z</time></trkpt><trkpt lat="45.6866425" lon="9.6626758"><ele>240.14285714285717</ele><time>2026-04-25T07:38:46.739Z</time></trkpt><trkpt lat="45.6866073" lon="9.6627601"><ele>240.42857142857144</ele><time>2026-04-25T07:38:47.74Z</time></trkpt><trkpt lat="45.6865745" lon="9.6628513"><ele>240.71428571428572</ele><time>2026-04-25T07:38:48.739Z</time></trkpt><trkpt lat="45.6865556" lon="9.662949"><ele>241.0</ele><time>2026-04-25T07:38:49.74Z</time></trkpt><trkpt lat="45.6865708" lon="9.6631287"><ele>240.99999999999997</ele><time>2026-04-25T07:38:51.739Z</time></trkpt><trkpt lat="45.6865964" lon="9.6632264"><ele>241.0</ele><time>2026-04-25T07:38:52.74Z</time></trkpt><trkpt lat="45.6866281" lon="9.6633341"><ele>241.0</ele><time>2026-04-25T07:38:53.739Z</time></trkpt><trkpt lat="45.6866673" lon="9.6634626"><ele>241.0</ele><time>2026-04-25T07:38:54.74Z</time></trkpt><trkpt lat="45.6867061" lon="9.6635855"><ele>240.99999999999997</ele><time>2026-04-25T07:38:55.74Z</time></trkpt><trkpt lat="45.6867489" lon="9.663719"><ele>241.0</ele><time>2026-04-25T07:38:56.74Z</time></trkpt><trkpt lat="45.6867925" lon="9.6638547"><ele>241.0</ele><time>2026-04-25T07:38:57.74Z</time></trkpt><trkpt lat="45.6868376" lon="9.6639952"><ele>241.0</ele><time>2026-04-25T07:38:58.74Z</time></trkpt><trkpt lat="45.686882" lon="9.6641421"><ele>241.0</ele><time>2026-04-25T07:38:59.74Z</time></trkpt><trkpt lat="45.6869253" lon="9.6642933"><ele>241.0</ele><time>2026-04-25T07:39:00.74Z</time></trkpt><trkpt lat="45.6869713" lon="9.6644489"><ele>241.0</ele><time>2026-04-25T07:39:01.739Z</time></trkpt><trkpt lat="45.6870242" lon="9.6646175"><ele>241.0</ele><time>2026-04-25T07:39:02.74Z</time></trkpt><trkpt lat="45.6870717" lon="9.6647651"><ele>241.0</ele><time>2026-04-25T07:39:03.74Z</time></trkpt><trkpt lat="45.6871215" lon="9.6649188"><ele>241.0</ele><time>2026-04-25T07:39:04.739Z</time></trkpt><trkpt lat="45.6871711" lon="9.6650709"><ele>240.99999999999997</ele><time>2026-04-25T07:39:05.74Z</time></trkpt><trkpt lat="45.6872111" lon="9.6651943"><ele>241.0</ele><time>2026-04-25T07:39:06.739Z</time></trkpt><trkpt lat="45.68725" lon="9.6653161"><ele>241.0</ele><time>2026-04-25T07:39:07.739Z</time></trkpt><trkpt lat="45.6872853" lon="9.6654265"><ele>241.0</ele><time>2026-04-25T07:39:08.74Z</time></trkpt><trkpt lat="45.6873157" lon="9.665524"><ele>240.99999999999997</ele><time>2026-04-25T07:39:09.739Z</time></trkpt><trkpt lat="45.6873441" lon="9.6656144"><ele>241.0</ele><time>2026-04-25T07:39:10.74Z</time></trkpt><trkpt lat="45.6873872" lon="9.6657513"><ele>241.0</ele><time>2026-04-25T07:39:12.739Z</time></trkpt><trkpt lat="45.6874192" lon="9.6658542"><ele>241.00000000000003</ele><time>2026-04-25T07:39:14.739Z</time></trkpt><trkpt lat="45.6874542" lon="9.6659539"><ele>241.0</ele><time>2026-04-25T07:39:17.74Z</time></trkpt><trkpt lat="45.6874916" lon="9.666066"><ele>241.0</ele><time>2026-04-25T07:39:41.739Z</time></trkpt><trkpt lat="45.6875186" lon="9.6661514"><ele>241.00000000000003</ele><time>2026-04-25T07:39:43.74Z</time></trkpt><trkpt lat="45.6875495" lon="9.666245"><ele>241.0</ele><time>2026-04-25T07:39:45.74Z</time></trkpt><trkpt lat="45.6875776" lon="9.6663309"><ele>241.0</ele><time>2026-04-25T07:39:47.74Z</time></trkpt><trkpt lat="45.6876111" lon="9.6664301"><ele>240.83333333333331</ele><time>2026-04-25T07:39:50.74Z</time></trkpt><trkpt lat="45.6876755" lon="9.6665626"><ele>240.66666666666666</ele><time>2026-04-25T07:39:58.74Z</time></trkpt><trkpt lat="45.6877076" lon="9.6666442"><ele>240.5</ele><time>2026-04-25T07:39:59.739Z</time></trkpt><trkpt lat="45.6877411" lon="9.6667426"><ele>240.33333333333331</ele><time>2026-04-25T07:40:00.74Z</time></trkpt><trkpt lat="45.6877727" lon="9.6668328"><ele>240.16666666666666</ele><time>2026-04-25T07:40:01.74Z</time></trkpt><trkpt lat="45.6878033" lon="9.6669205"><ele>240.0</ele><time>2026-04-25T07:40:02.74Z</time></trkpt><trkpt lat="45.6878422" lon="9.6670381"><ele>240.8</ele><time>2026-04-25T07:40:04.74Z</time></trkpt><trkpt lat="45.6878675" lon="9.6671423"><ele>241.6</ele><time>2026-04-25T07:41:12.74Z</time></trkpt><trkpt lat="45.6879147" lon="9.6672996"><ele>242.39999999999998</ele><time>2026-04-25T07:41:14.739Z</time></trkpt><trkpt lat="45.6879407" lon="9.6674122"><ele>243.2</ele><time>2026-04-25T07:41:15.74Z</time></trkpt><trkpt lat="45.6879679" lon="9.6675443"><ele>244.0</ele><time>2026-04-25T07:41:16.739Z</time></trkpt><trkpt lat="45.688002" lon="9.6676896"><ele>243.0</ele><time>2026-04-25T07:41:17.739Z</time></trkpt><trkpt lat="45.6880458" lon="9.6678542"><ele>242.0</ele><time>2026-04-25T07:41:18.739Z</time></trkpt><trkpt lat="45.6880981" lon="9.6680336"><ele>241.0</ele><time>2026-04-25T07:41:19.74Z</time></trkpt><trkpt lat="45.6881818" lon="9.6682958"><ele>241.0</ele><time>2026-04-25T07:41:20.739Z</time></trkpt><trkpt lat="45.6882599" lon="9.6685535"><ele>241.0</ele><time>2026-04-25T07:41:21.74Z</time></trkpt><trkpt lat="45.6883413" lon="9.6688033"><ele>241.0</ele><time>2026-04-25T07:41:22.739Z</time></trkpt><trkpt lat="45.688405" lon="9.6689883"><ele>241.20000000000002</ele><time>2026-04-25T07:41:23.74Z</time></trkpt><trkpt lat="45.6884584" lon="9.6691397"><ele>241.40000000000003</ele><time>2026-04-25T07:41:24.74Z</time></trkpt><trkpt lat="45.6885103" lon="9.6692834"><ele>241.6</ele><time>2026-04-25T07:41:25.739Z</time></trkpt><trkpt lat="45.6885473" lon="9.669385"><ele>241.8</ele><time>2026-04-25T07:41:26.74Z</time></trkpt><trkpt lat="45.6885906" lon="9.669504"><ele>242.0</ele><time>2026-04-25T07:41:28.739Z</time></trkpt><trkpt lat="45.6886313" lon="9.6696221"><ele>242.66666666666669</ele><time>2026-04-25T07:41:31.74Z</time></trkpt><trkpt lat="45.6886745" lon="9.6697634"><ele>243.33333333333334</ele><time>2026-04-25T07:41:33.739Z</time></trkpt><trkpt lat="45.6887007" lon="9.6698502"><ele>244.0</ele><time>2026-04-25T07:41:34.74Z</time></trkpt><trkpt lat="45.6887279" lon="9.6699373"><ele>244.66666666666669</ele><time>2026-04-25T07:41:35.739Z</time></trkpt><trkpt lat="45.6887644" lon="9.6700464"><ele>245.33333333333334</ele><time>2026-04-25T07:41:36.74Z</time></trkpt><trkpt lat="45.6888005" lon="9.6701482"><ele>246.0</ele><time>2026-04-25T07:41:37.74Z</time></trkpt><trkpt lat="45.6888475" lon="9.6702707"><ele>245.8</ele><time>2026-04-25T07:41:38.739Z</time></trkpt><trkpt lat="45.6888991" lon="9.6703901"><ele>245.60000000000002</ele><time>2026-04-25T07:41:39.74Z</time></trkpt><trkpt lat="45.6889496" lon="9.6705038"><ele>245.4</ele><time>2026-04-25T07:41:40.739Z</time></trkpt><trkpt lat="45.6890113" lon="9.6706357"><ele>245.2</ele><time>2026-04-25T07:41:41.74Z</time></trkpt><trkpt lat="45.6890734" lon="9.6707642"><ele>245.0</ele><time>2026-04-25T07:41:42.739Z</time></trkpt><trkpt lat="45.6891329" lon="9.6708874"><ele>245.0</ele><time>2026-04-25T07:41:43.739Z</time></trkpt><trkpt lat="45.6892" lon="9.6710279"><ele>245.0</ele><time>2026-04-25T07:41:44.739Z</time></trkpt><trkpt lat="45.689262" lon="9.6711568"><ele>245.0</ele><time>2026-04-25T07:41:45.74Z</time></trkpt><trkpt lat="45.6893176" lon="9.6712699"><ele>245.0</ele><time>2026-04-25T07:41:46.739Z</time></trkpt><trkpt lat="45.6893756" lon="9.6713903"><ele>245.0</ele><time>2026-04-25T07:41:47.739Z</time></trkpt><trkpt lat="45.6894211" lon="9.6714906"><ele>245.2</ele><time>2026-04-25T07:41:48.74Z</time></trkpt><trkpt lat="45.6894711" lon="9.671607"><ele>245.4</ele><time>2026-04-25T07:41:49.739Z</time></trkpt><trkpt lat="45.6895218" lon="9.6717187"><ele>245.60000000000002</ele><time>2026-04-25T07:41:50.74Z</time></trkpt><trkpt lat="45.6895742" lon="9.6718264"><ele>245.8</ele><time>2026-04-25T07:41:51.739Z</time></trkpt><trkpt lat="45.6896374" lon="9.6719542"><ele>246.0</ele><time>2026-04-25T07:41:52.739Z</time></trkpt><trkpt lat="45.6896971" lon="9.6720708"><ele>246.5</ele><time>2026-04-25T07:41:53.74Z</time></trkpt><trkpt lat="45.6897667" lon="9.6722094"><ele>247.0</ele><time>2026-04-25T07:41:54.739Z</time></trkpt><trkpt lat="45.6898319" lon="9.6723425"><ele>247.5</ele><time>2026-04-25T07:41:55.74Z</time></trkpt><trkpt lat="45.6898992" lon="9.6724789"><ele>248.0</ele><time>2026-04-25T07:41:56.74Z</time></trkpt><trkpt lat="45.6899699" lon="9.6726203"><ele>248.0</ele><time>2026-04-25T07:41:57.74Z</time></trkpt><trkpt lat="45.6900373" lon="9.6727566"><ele>248.0</ele><time>2026-04-25T07:41:58.74Z</time></trkpt><trkpt lat="45.6901055" lon="9.6728935"><ele>248.0</ele><time>2026-04-25T07:41:59.739Z</time></trkpt><trkpt lat="45.690174" lon="9.6730264"><ele>248.0</ele><time>2026-04-25T07:42:00.74Z</time></trkpt><trkpt lat="45.690241" lon="9.6731551"><ele>248.2</ele><time>2026-04-25T07:42:01.74Z</time></trkpt><trkpt lat="45.6903012" lon="9.6732759"><ele>248.4</ele><time>2026-04-25T07:42:02.739Z</time></trkpt><trkpt lat="45.6903578" lon="9.6733899"><ele>248.59999999999997</ele><time>2026-04-25T07:42:03.739Z</time></trkpt><trkpt lat="45.6904083" lon="9.673491"><ele>248.79999999999998</ele><time>2026-04-25T07:42:04.74Z</time></trkpt><trkpt lat="45.6904651" lon="9.6735975"><ele>249.0</ele><time>2026-04-25T07:42:05.74Z</time></trkpt><trkpt lat="45.6905217" lon="9.6736812"><ele>249.0</ele><time>2026-04-25T07:42:06.74Z</time></trkpt><trkpt lat="45.6905821" lon="9.6737466"><ele>249.0</ele><time>2026-04-25T07:42:07.739Z</time></trkpt><trkpt lat="45.6906473" lon="9.6737994"><ele>249.0</ele><time>2026-04-25T07:42:08.739Z</time></trkpt><trkpt lat="45.6907097" lon="9.6738433"><ele>249.0</ele><time>2026-04-25T07:42:09.74Z</time></trkpt><trkpt lat="45.6907774" lon="9.6738903"><ele>249.0</ele><time>2026-04-25T07:42:10.74Z</time></trkpt><trkpt lat="45.6908804" lon="9.6739598"><ele>249.0</ele><time>2026-04-25T07:42:12.739Z</time></trkpt><trkpt lat="45.6909441" lon="9.6740111"><ele>249.0</ele><time>2026-04-25T07:42:14.74Z</time></trkpt><trkpt lat="45.6909931" lon="9.6740681"><ele>248.99999999999997</ele><time>2026-04-25T07:42:57.74Z</time></trkpt><trkpt lat="45.6910674" lon="9.6742032"><ele>248.99999999999997</ele><time>2026-04-25T07:43:02.739Z</time></trkpt><trkpt lat="45.6911217" lon="9.67435"><ele>249.0</ele><time>2026-04-25T07:43:04.74Z</time></trkpt><trkpt lat="45.6911513" lon="9.6744845"><ele>249.0</ele><time>2026-04-25T07:43:06.739Z</time></trkpt><trkpt lat="45.6911645" lon="9.6746512"><ele>249.0</ele><time>2026-04-25T07:43:08.739Z</time></trkpt><trkpt lat="45.691192" lon="9.6748356"><ele>249.0</ele><time>2026-04-25T07:43:10.74Z</time></trkpt><trkpt lat="45.6912424" lon="9.6749915"><ele>249.0</ele><time>2026-04-25T07:43:12.739Z</time></trkpt><trkpt lat="45.69129" lon="9.6751162"><ele>249.0</ele><time>2026-04-25T07:43:14.74Z</time></trkpt><trkpt lat="45.6913544" lon="9.6752466"><ele>249.0</ele><time>2026-04-25T07:43:16.739Z</time></trkpt><trkpt lat="45.6913971" lon="9.6753191"><ele>249.0</ele><time>2026-04-25T07:43:17.739Z</time></trkpt><trkpt lat="45.6914509" lon="9.6753975"><ele>249.0</ele><time>2026-04-25T07:43:18.739Z</time></trkpt><trkpt lat="45.6915075" lon="9.6754592"><ele>249.0</ele><time>2026-04-25T07:43:19.739Z</time></trkpt><trkpt lat="45.6915735" lon="9.6755206"><ele>249.0</ele><time>2026-04-25T07:43:20.74Z</time></trkpt><trkpt lat="45.6916476" lon="9.6755964"><ele>249.0</ele><time>2026-04-25T07:43:21.739Z</time></trkpt><trkpt lat="45.6917124" lon="9.6756906"><ele>249.0</ele><time>2026-04-25T07:43:22.739Z</time></trkpt><trkpt lat="45.6917789" lon="9.6758269"><ele>249.0</ele><time>2026-04-25T07:43:23.74Z</time></trkpt><trkpt lat="45.6918416" lon="9.6759915"><ele>249.0</ele><time>2026-04-25T07:43:24.739Z</time></trkpt><trkpt lat="45.6919018" lon="9.6761537"><ele>249.0</ele><time>2026-04-25T07:43:25.74Z</time></trkpt><trkpt lat="45.6919608" lon="9.6763113"><ele>249.0</ele><time>2026-04-25T07:43:26.739Z</time></trkpt><trkpt lat="45.6920114" lon="9.6764393"><ele>248.99999999999997</ele><time>2026-04-25T07:43:27.74Z</time></trkpt><trkpt lat="45.6920593" lon="9.6765688"><ele>248.99999999999997</ele><time>2026-04-25T07:43:28.74Z</time></trkpt><trkpt lat="45.6921021" lon="9.676691"><ele>249.0</ele><time>2026-04-25T07:43:29.74Z</time></trkpt><trkpt lat="45.6921403" lon="9.676805"><ele>249.0</ele><time>2026-04-25T07:43:30.739Z</time></trkpt><trkpt lat="45.6921759" lon="9.6769112"><ele>249.0</ele><time>2026-04-25T07:43:31.739Z</time></trkpt><trkpt lat="45.6922081" lon="9.6770103"><ele>249.0</ele><time>2026-04-25T07:43:32.74Z</time></trkpt><trkpt lat="45.6922387" lon="9.6771048"><ele>249.0</ele><time>2026-04-25T07:43:33.74Z</time></trkpt><trkpt lat="45.6922723" lon="9.6772116"><ele>249.0</ele><time>2026-04-25T07:43:34.74Z</time></trkpt><trkpt lat="45.6923038" lon="9.6773116"><ele>249.0</ele><time>2026-04-25T07:43:35.74Z</time></trkpt><trkpt lat="45.6923382" lon="9.6774214"><ele>249.0</ele><time>2026-04-25T07:43:36.74Z</time></trkpt><trkpt lat="45.6923763" lon="9.6775408"><ele>249.0</ele><time>2026-04-25T07:43:37.739Z</time></trkpt><trkpt lat="45.6924107" lon="9.6776458"><ele>249.0</ele><time>2026-04-25T07:43:38.74Z</time></trkpt><trkpt lat="45.692445" lon="9.677752"><ele>249.0</ele><time>2026-04-25T07:43:39.74Z</time></trkpt><trkpt lat="45.6924776" lon="9.6778517"><ele>249.0</ele><time>2026-04-25T07:43:40.739Z</time></trkpt><trkpt lat="45.6925096" lon="9.677949"><ele>249.0</ele><time>2026-04-25T07:43:41.74Z</time></trkpt><trkpt lat="45.6925412" lon="9.6780475"><ele>249.0</ele><time>2026-04-25T07:43:42.74Z</time></trkpt><trkpt lat="45.6925703" lon="9.6781353"><ele>249.14285714285714</ele><time>2026-04-25T07:43:43.74Z</time></trkpt><trkpt lat="45.6926026" lon="9.6782315"><ele>249.28571428571428</ele><time>2026-04-25T07:43:44.739Z</time></trkpt><trkpt lat="45.6926358" lon="9.6783323"><ele>249.42857142857142</ele><time>2026-04-25T07:43:45.739Z</time></trkpt><trkpt lat="45.6926676" lon="9.6784307"><ele>249.57142857142856</ele><time>2026-04-25T07:43:46.74Z</time></trkpt><trkpt lat="45.6926978" lon="9.6785218"><ele>249.71428571428572</ele><time>2026-04-25T07:43:47.739Z</time></trkpt><trkpt lat="45.6927254" lon="9.6786072"><ele>249.85714285714283</ele><time>2026-04-25T07:43:48.739Z</time></trkpt><trkpt lat="45.6927506" lon="9.6786926"><ele>250.0</ele><time>2026-04-25T07:43:49.74Z</time></trkpt><trkpt lat="45.6927823" lon="9.6787978"><ele>250.6</ele><time>2026-04-25T07:43:50.74Z</time></trkpt><trkpt lat="45.6928183" lon="9.6789063"><ele>251.2</ele><time>2026-04-25T07:43:51.739Z</time></trkpt><trkpt lat="45.6928596" lon="9.6790296"><ele>251.8</ele><time>2026-04-25T07:43:52.739Z</time></trkpt><trkpt lat="45.6929031" lon="9.6791589"><ele>252.4</ele><time>2026-04-25T07:43:53.74Z</time></trkpt><trkpt lat="45.6929427" lon="9.6792767"><ele>253.0</ele><time>2026-04-25T07:43:54.74Z</time></trkpt><trkpt lat="45.6929846" lon="9.6794039"><ele>253.2</ele><time>2026-04-25T07:43:55.739Z</time></trkpt><trkpt lat="45.693025" lon="9.6795277"><ele>253.4</ele><time>2026-04-25T07:43:56.739Z</time></trkpt><trkpt lat="45.6930622" lon="9.6796511"><ele>253.59999999999997</ele><time>2026-04-25T07:43:57.739Z</time></trkpt><trkpt lat="45.6930969" lon="9.6797816"><ele>253.79999999999998</ele><time>2026-04-25T07:43:58.739Z</time></trkpt><trkpt lat="45.6931234" lon="9.6798997"><ele>254.0</ele><time>2026-04-25T07:43:59.74Z</time></trkpt><trkpt lat="45.693151" lon="9.6800304"><ele>254.0</ele><time>2026-04-25T07:44:00.739Z</time></trkpt><trkpt lat="45.6931722" lon="9.6801616"><ele>253.99999999999997</ele><time>2026-04-25T07:44:01.739Z</time></trkpt><trkpt lat="45.693187" lon="9.6802923"><ele>253.99999999999997</ele><time>2026-04-25T07:44:02.74Z</time></trkpt><trkpt lat="45.6931978" lon="9.6804195"><ele>254.0</ele><time>2026-04-25T07:44:03.739Z</time></trkpt><trkpt lat="45.693207" lon="9.6805473"><ele>254.0</ele><time>2026-04-25T07:44:04.74Z</time></trkpt><trkpt lat="45.6932146" lon="9.6806729"><ele>254.00000000000003</ele><time>2026-04-25T07:44:05.739Z</time></trkpt><trkpt lat="45.6932222" lon="9.6807944"><ele>254.0</ele><time>2026-04-25T07:44:06.74Z</time></trkpt><trkpt lat="45.6932278" lon="9.6808895"><ele>254.0</ele><time>2026-04-25T07:44:07.739Z</time></trkpt><trkpt lat="45.6932296" lon="9.6809831"><ele>254.0</ele><time>2026-04-25T07:44:08.74Z</time></trkpt><trkpt lat="45.6932311" lon="9.681084"><ele>254.00000000000003</ele><time>2026-04-25T07:44:09.74Z</time></trkpt><trkpt lat="45.6932351" lon="9.6812624"><ele>254.0</ele><time>2026-04-25T07:44:11.739Z</time></trkpt><trkpt lat="45.6933008" lon="9.6813815"><ele>253.79999999999998</ele><time>2026-04-25T07:44:13.74Z</time></trkpt><trkpt lat="45.6934075" lon="9.6813883"><ele>253.59999999999997</ele><time>2026-04-25T07:44:15.739Z</time></trkpt><trkpt lat="45.6934707" lon="9.6814124"><ele>253.4</ele><time>2026-04-25T07:44:16.74Z</time></trkpt><trkpt lat="45.6935454" lon="9.6814767"><ele>253.2</ele><time>2026-04-25T07:44:17.74Z</time></trkpt><trkpt lat="45.6936317" lon="9.6815712"><ele>253.0</ele><time>2026-04-25T07:44:18.739Z</time></trkpt><trkpt lat="45.6937279" lon="9.6816932"><ele>252.75</ele><time>2026-04-25T07:44:19.739Z</time></trkpt><trkpt lat="45.6938215" lon="9.6818154"><ele>252.5</ele><time>2026-04-25T07:44:20.739Z</time></trkpt><trkpt lat="45.6939124" lon="9.681935"><ele>252.25</ele><time>2026-04-25T07:44:21.74Z</time></trkpt><trkpt lat="45.6940051" lon="9.6820567"><ele>252.0</ele><time>2026-04-25T07:44:22.739Z</time></trkpt><trkpt lat="45.6940856" lon="9.6821574"><ele>252.0</ele><time>2026-04-25T07:44:23.74Z</time></trkpt><trkpt lat="45.6941687" lon="9.6822624"><ele>252.0</ele><time>2026-04-25T07:44:24.739Z</time></trkpt><trkpt lat="45.6942588" lon="9.682373"><ele>252.0</ele><time>2026-04-25T07:44:25.739Z</time></trkpt><trkpt lat="45.6943349" lon="9.6824703"><ele>252.0</ele><time>2026-04-25T07:44:26.74Z</time></trkpt><trkpt lat="45.694415" lon="9.6825738"><ele>252.0</ele><time>2026-04-25T07:44:27.74Z</time></trkpt><trkpt lat="45.6945005" lon="9.6826707"><ele>252.25</ele><time>2026-04-25T07:44:28.74Z</time></trkpt><trkpt lat="45.6945928" lon="9.6827603"><ele>252.5</ele><time>2026-04-25T07:44:29.74Z</time></trkpt><trkpt lat="45.6946952" lon="9.6828542"><ele>252.75</ele><time>2026-04-25T07:44:30.739Z</time></trkpt><trkpt lat="45.6947879" lon="9.6829338"><ele>253.0</ele><time>2026-04-25T07:44:31.74Z</time></trkpt><trkpt lat="45.6948874" lon="9.6830204"><ele>253.25</ele><time>2026-04-25T07:44:32.74Z</time></trkpt><trkpt lat="45.6949878" lon="9.6831131"><ele>253.5</ele><time>2026-04-25T07:44:33.739Z</time></trkpt><trkpt lat="45.6950914" lon="9.6832091"><ele>253.75</ele><time>2026-04-25T07:44:34.739Z</time></trkpt><trkpt lat="45.6951901" lon="9.6833043"><ele>254.0</ele><time>2026-04-25T07:44:35.739Z</time></trkpt><trkpt lat="45.6952827" lon="9.6833925"><ele>254.2</ele><time>2026-04-25T07:44:36.739Z</time></trkpt><trkpt lat="45.6953698" lon="9.6834746"><ele>254.39999999999998</ele><time>2026-04-25T07:44:37.739Z</time></trkpt><trkpt lat="45.6954541" lon="9.6835568"><ele>254.6</ele><time>2026-04-25T07:44:38.739Z</time></trkpt><trkpt lat="45.6955248" lon="9.6836265"><ele>254.8</ele><time>2026-04-25T07:44:39.739Z</time></trkpt><trkpt lat="45.6955935" lon="9.6836959"><ele>255.0</ele><time>2026-04-25T07:44:40.739Z</time></trkpt><trkpt lat="45.6956577" lon="9.6837646"><ele>255.4</ele><time>2026-04-25T07:44:41.739Z</time></trkpt><trkpt lat="45.6957293" lon="9.6838433"><ele>255.8</ele><time>2026-04-25T07:44:43.74Z</time></trkpt><trkpt lat="45.6957899" lon="9.6839108"><ele>256.2</ele><time>2026-04-25T07:44:46.739Z</time></trkpt><trkpt lat="45.6957927" lon="9.6840462"><ele>256.6</ele><time>2026-04-25T07:44:51.74Z</time></trkpt><trkpt lat="45.6957496" lon="9.6842045"><ele>257.0</ele><time>2026-04-25T07:44:53.739Z</time></trkpt><trkpt lat="45.6957222" lon="9.6843071"><ele>257.0</ele><time>2026-04-25T07:44:54.74Z</time></trkpt><trkpt lat="45.6956918" lon="9.6844152"><ele>257.0</ele><time>2026-04-25T07:44:55.74Z</time></trkpt><trkpt lat="45.695661" lon="9.6845292"><ele>257.0</ele><time>2026-04-25T07:44:56.739Z</time></trkpt><trkpt lat="45.6956298" lon="9.6846419"><ele>257.0</ele><time>2026-04-25T07:44:57.739Z</time></trkpt><trkpt lat="45.6956049" lon="9.6847308"><ele>257.0</ele><time>2026-04-25T07:44:58.739Z</time></trkpt><trkpt lat="45.6955796" lon="9.6848174"><ele>257.0</ele><time>2026-04-25T07:44:59.74Z</time></trkpt><trkpt lat="45.6955397" lon="9.6849581"><ele>257.0</ele><time>2026-04-25T07:45:01.74Z</time></trkpt><trkpt lat="45.6955007" lon="9.6851076"><ele>257.0</ele><time>2026-04-25T07:45:03.74Z</time></trkpt><trkpt lat="45.6954762" lon="9.6851998"><ele>257.0</ele><time>2026-04-25T07:45:04.739Z</time></trkpt><trkpt lat="45.6954511" lon="9.6852931"><ele>257.0</ele><time>2026-04-25T07:45:05.739Z</time></trkpt><trkpt lat="45.6954263" lon="9.685387"><ele>257.0</ele><time>2026-04-25T07:45:06.74Z</time></trkpt><trkpt lat="45.6954034" lon="9.6854755"><ele>257.0</ele><time>2026-04-25T07:45:07.74Z</time></trkpt><trkpt lat="45.6953646" lon="9.6856268"><ele>257.33333333333337</ele><time>2026-04-25T07:45:09.74Z</time></trkpt><trkpt lat="45.6953421" lon="9.685715"><ele>257.6666666666667</ele><time>2026-04-25T07:45:11.739Z</time></trkpt><trkpt lat="45.695351" lon="9.685808"><ele>258.0</ele><time>2026-04-25T07:45:14.739Z</time></trkpt><trkpt lat="45.6954534" lon="9.6858647"><ele>258.3333333333333</ele><time>2026-04-25T07:45:16.739Z</time></trkpt><trkpt lat="45.6955268" lon="9.6858921"><ele>258.66666666666663</ele><time>2026-04-25T07:45:17.739Z</time></trkpt><trkpt lat="45.6956133" lon="9.6859252"><ele>259.0</ele><time>2026-04-25T07:45:18.739Z</time></trkpt><trkpt lat="45.6956877" lon="9.6859548"><ele>259.0</ele><time>2026-04-25T07:45:19.74Z</time></trkpt><trkpt lat="45.6957674" lon="9.6859875"><ele>259.0</ele><time>2026-04-25T07:45:20.74Z</time></trkpt><trkpt lat="45.6958483" lon="9.6860189"><ele>259.0</ele><time>2026-04-25T07:45:21.74Z</time></trkpt><trkpt lat="45.6959299" lon="9.6860512"><ele>259.0</ele><time>2026-04-25T07:45:22.739Z</time></trkpt><trkpt lat="45.6960168" lon="9.6860848"><ele>259.0</ele><time>2026-04-25T07:45:23.74Z</time></trkpt><trkpt lat="45.6961081" lon="9.6861177"><ele>259.0</ele><time>2026-04-25T07:45:24.74Z</time></trkpt><trkpt lat="45.6962033" lon="9.6861636"><ele>258.59999999999997</ele><time>2026-04-25T07:45:25.739Z</time></trkpt><trkpt lat="45.696313" lon="9.6862047"><ele>258.2</ele><time>2026-04-25T07:45:26.739Z</time></trkpt><trkpt lat="45.6964089" lon="9.686244"><ele>257.79999999999995</ele><time>2026-04-25T07:45:27.74Z</time></trkpt><trkpt lat="45.6965108" lon="9.6862923"><ele>257.4</ele><time>2026-04-25T07:45:28.739Z</time></trkpt><trkpt lat="45.6966305" lon="9.6863497"><ele>257.0</ele><time>2026-04-25T07:45:29.74Z</time></trkpt><trkpt lat="45.6967383" lon="9.6863988"><ele>257.0</ele><time>2026-04-25T07:45:30.74Z</time></trkpt><trkpt lat="45.696853" lon="9.686453"><ele>257.0</ele><time>2026-04-25T07:45:31.74Z</time></trkpt><trkpt lat="45.6969659" lon="9.6865111"><ele>257.0</ele><time>2026-04-25T07:45:32.739Z</time></trkpt><trkpt lat="45.6970757" lon="9.6865701"><ele>257.0</ele><time>2026-04-25T07:45:33.739Z</time></trkpt><trkpt lat="45.6971952" lon="9.686631"><ele>256.75</ele><time>2026-04-25T07:45:34.74Z</time></trkpt><trkpt lat="45.6973039" lon="9.6866874"><ele>256.5</ele><time>2026-04-25T07:45:35.739Z</time></trkpt><trkpt lat="45.6974236" lon="9.6867569"><ele>256.25</ele><time>2026-04-25T07:45:36.74Z</time></trkpt><trkpt lat="45.6975446" lon="9.686831"><ele>256.0</ele><time>2026-04-25T07:45:37.739Z</time></trkpt><trkpt lat="45.6976662" lon="9.6869061"><ele>256.5</ele><time>2026-04-25T07:45:38.739Z</time></trkpt><trkpt lat="45.6977877" lon="9.6869807"><ele>257.0</ele><time>2026-04-25T07:45:39.739Z</time></trkpt><trkpt lat="45.6979091" lon="9.6870538"><ele>257.5</ele><time>2026-04-25T07:45:40.739Z</time></trkpt><trkpt lat="45.698031" lon="9.6871238"><ele>258.0</ele><time>2026-04-25T07:45:41.74Z</time></trkpt><trkpt lat="45.6981575" lon="9.6871923"><ele>258.0</ele><time>2026-04-25T07:45:42.739Z</time></trkpt><trkpt lat="45.698266" lon="9.6872489"><ele>258.0</ele><time>2026-04-25T07:45:43.739Z</time></trkpt><trkpt lat="45.6983747" lon="9.6873055"><ele>258.0</ele><time>2026-04-25T07:45:44.739Z</time></trkpt><trkpt lat="45.6984797" lon="9.6873586"><ele>258.0</ele><time>2026-04-25T07:45:45.739Z</time></trkpt><trkpt lat="45.6985642" lon="9.6874004"><ele>258.0</ele><time>2026-04-25T07:45:46.739Z</time></trkpt><trkpt lat="45.6986459" lon="9.6874402"><ele>258.1428571428571</ele><time>2026-04-25T07:45:47.739Z</time></trkpt><trkpt lat="45.6987191" lon="9.6874769"><ele>258.2857142857143</ele><time>2026-04-25T07:45:48.74Z</time></trkpt><trkpt lat="45.6987844" lon="9.6875099"><ele>258.42857142857144</ele><time>2026-04-25T07:45:49.74Z</time></trkpt><trkpt lat="45.6988436" lon="9.6875416"><ele>258.57142857142856</ele><time>2026-04-25T07:45:50.74Z</time></trkpt><trkpt lat="45.6989163" lon="9.6875855"><ele>258.7142857142857</ele><time>2026-04-25T07:45:52.74Z</time></trkpt><trkpt lat="45.6989988" lon="9.6876322"><ele>258.85714285714283</ele><time>2026-04-25T07:45:54.74Z</time></trkpt><trkpt lat="45.6990634" lon="9.6876627"><ele>259.0</ele><time>2026-04-25T07:45:55.739Z</time></trkpt><trkpt lat="45.6991419" lon="9.6877"><ele>259.0</ele><time>2026-04-25T07:45:56.74Z</time></trkpt><trkpt lat="45.6992316" lon="9.6877432"><ele>259.0</ele><time>2026-04-25T07:45:57.74Z</time></trkpt><trkpt lat="45.6993343" lon="9.6877921"><ele>259.0</ele><time>2026-04-25T07:45:58.74Z</time></trkpt><trkpt lat="45.6994246" lon="9.6878374"><ele>259.0</ele><time>2026-04-25T07:45:59.739Z</time></trkpt><trkpt lat="45.6995225" lon="9.6878885"><ele>259.0</ele><time>2026-04-25T07:46:00.74Z</time></trkpt><trkpt lat="45.6996338" lon="9.6879524"><ele>259.5</ele><time>2026-04-25T07:46:01.74Z</time></trkpt><trkpt lat="45.6997353" lon="9.6880163"><ele>260.0</ele><time>2026-04-25T07:46:02.74Z</time></trkpt><trkpt lat="45.69985" lon="9.6880941"><ele>260.5</ele><time>2026-04-25T07:46:03.74Z</time></trkpt><trkpt lat="45.6999717" lon="9.6881812"><ele>261.0</ele><time>2026-04-25T07:46:04.739Z</time></trkpt><trkpt lat="45.700092" lon="9.688268"><ele>261.0</ele><time>2026-04-25T07:46:05.739Z</time></trkpt><trkpt lat="45.7002188" lon="9.6883593"><ele>261.0</ele><time>2026-04-25T07:46:06.739Z</time></trkpt><trkpt lat="45.7003323" lon="9.6884428"><ele>261.0</ele><time>2026-04-25T07:46:07.739Z</time></trkpt><trkpt lat="45.7004546" lon="9.6885323"><ele>261.0</ele><time>2026-04-25T07:46:08.74Z</time></trkpt><trkpt lat="45.7005756" lon="9.688621"><ele>261.5</ele><time>2026-04-25T07:46:09.739Z</time></trkpt><trkpt lat="45.7006963" lon="9.6887093"><ele>262.0</ele><time>2026-04-25T07:46:10.74Z</time></trkpt><trkpt lat="45.7008176" lon="9.6887991"><ele>262.5</ele><time>2026-04-25T07:46:11.74Z</time></trkpt><trkpt lat="45.700938" lon="9.6888878"><ele>263.0</ele><time>2026-04-25T07:46:12.74Z</time></trkpt><trkpt lat="45.7010565" lon="9.6889745"><ele>262.5</ele><time>2026-04-25T07:46:13.739Z</time></trkpt><trkpt lat="45.7011788" lon="9.689065"><ele>262.0</ele><time>2026-04-25T07:46:14.74Z</time></trkpt><trkpt lat="45.7012825" lon="9.6891423"><ele>261.5</ele><time>2026-04-25T07:46:15.74Z</time></trkpt><trkpt lat="45.7013912" lon="9.689224"><ele>261.0</ele><time>2026-04-25T07:46:16.74Z</time></trkpt><trkpt lat="45.7015037" lon="9.6893093"><ele>261.0</ele><time>2026-04-25T07:46:17.739Z</time></trkpt><trkpt lat="45.7015992" lon="9.689386"><ele>261.0</ele><time>2026-04-25T07:46:18.739Z</time></trkpt><trkpt lat="45.7016981" lon="9.6894748"><ele>261.0</ele><time>2026-04-25T07:46:19.74Z</time></trkpt><trkpt lat="45.7017947" lon="9.6895694"><ele>261.0</ele><time>2026-04-25T07:46:20.739Z</time></trkpt><trkpt lat="45.7018854" lon="9.6896622"><ele>260.3333333333333</ele><time>2026-04-25T07:46:21.74Z</time></trkpt><trkpt lat="45.701974" lon="9.6897564"><ele>259.6666666666667</ele><time>2026-04-25T07:46:22.739Z</time></trkpt><trkpt lat="45.7020488" lon="9.6898364"><ele>259.0</ele><time>2026-04-25T07:46:23.739Z</time></trkpt><trkpt lat="45.7021213" lon="9.6899135"><ele>258.33333333333337</ele><time>2026-04-25T07:46:24.74Z</time></trkpt><trkpt lat="45.702186" lon="9.6899841"><ele>257.6666666666667</ele><time>2026-04-25T07:46:25.74Z</time></trkpt><trkpt lat="45.7022392" lon="9.6900551"><ele>257.0</ele><time>2026-04-25T07:46:26.74Z</time></trkpt><trkpt lat="45.7022787" lon="9.6901306"><ele>257.0</ele><time>2026-04-25T07:46:27.74Z</time></trkpt><trkpt lat="45.702305" lon="9.6902151"><ele>257.0</ele><time>2026-04-25T07:46:28.74Z</time></trkpt><trkpt lat="45.7023216" lon="9.6903096"><ele>257.0</ele><time>2026-04-25T07:46:29.74Z</time></trkpt><trkpt lat="45.7023342" lon="9.6904071"><ele>257.0</ele><time>2026-04-25T07:46:30.739Z</time></trkpt><trkpt lat="45.7023614" lon="9.6906034"><ele>257.0</ele><time>2026-04-25T07:46:32.739Z</time></trkpt><trkpt lat="45.702362" lon="9.6907504"><ele>257.0</ele><time>2026-04-25T07:46:33.74Z</time></trkpt><trkpt lat="45.7023529" lon="9.6908937"><ele>257.75</ele><time>2026-04-25T07:46:34.74Z</time></trkpt><trkpt lat="45.7023526" lon="9.6910602"><ele>258.5</ele><time>2026-04-25T07:46:35.74Z</time></trkpt><trkpt lat="45.702373" lon="9.6912394"><ele>259.25</ele><time>2026-04-25T07:46:36.739Z</time></trkpt><trkpt lat="45.7024096" lon="9.6914137"><ele>260.0</ele><time>2026-04-25T07:46:37.739Z</time></trkpt><trkpt lat="45.70246" lon="9.691611"><ele>260.0</ele><time>2026-04-25T07:46:38.74Z</time></trkpt><trkpt lat="45.7025128" lon="9.691822"><ele>260.0</ele><time>2026-04-25T07:46:39.74Z</time></trkpt><trkpt lat="45.7025694" lon="9.6920984"><ele>260.0</ele><time>2026-04-25T07:46:40.74Z</time></trkpt><trkpt lat="45.7026108" lon="9.6924046"><ele>260.33333333333337</ele><time>2026-04-25T07:46:41.74Z</time></trkpt><trkpt lat="45.7026302" lon="9.6926974"><ele>260.6666666666667</ele><time>2026-04-25T07:46:42.74Z</time></trkpt><trkpt lat="45.7026485" lon="9.6929608"><ele>261.0</ele><time>2026-04-25T07:46:43.74Z</time></trkpt><trkpt lat="45.7026869" lon="9.6931916"><ele>261.3333333333333</ele><time>2026-04-25T07:46:44.739Z</time></trkpt><trkpt lat="45.7027563" lon="9.6933904"><ele>261.66666666666663</ele><time>2026-04-25T07:46:45.74Z</time></trkpt><trkpt lat="45.7028671" lon="9.693566"><ele>262.0</ele><time>2026-04-25T07:46:46.739Z</time></trkpt><trkpt lat="45.7029913" lon="9.6936776"><ele>262.0</ele><time>2026-04-25T07:46:47.739Z</time></trkpt><trkpt lat="45.7031451" lon="9.6937458"><ele>262.0</ele><time>2026-04-25T07:46:48.739Z</time></trkpt><trkpt lat="45.7033285" lon="9.6937687"><ele>262.0</ele><time>2026-04-25T07:46:49.739Z</time></trkpt><trkpt lat="45.7034844" lon="9.6937666"><ele>262.75</ele><time>2026-04-25T07:46:50.74Z</time></trkpt><trkpt lat="45.7036312" lon="9.6937661"><ele>263.5</ele><time>2026-04-25T07:46:51.739Z</time></trkpt><trkpt lat="45.7037556" lon="9.6937912"><ele>264.25</ele><time>2026-04-25T07:46:52.74Z</time></trkpt><trkpt lat="45.7038607" lon="9.6938453"><ele>265.0</ele><time>2026-04-25T07:46:53.739Z</time></trkpt><trkpt lat="45.7039438" lon="9.6939271"><ele>265.0</ele><time>2026-04-25T07:46:54.74Z</time></trkpt><trkpt lat="45.7039914" lon="9.694001"><ele>265.0</ele><time>2026-04-25T07:46:55.74Z</time></trkpt><trkpt lat="45.7040371" lon="9.6941552"><ele>265.0</ele><time>2026-04-25T07:46:57.74Z</time></trkpt><trkpt lat="45.704034" lon="9.6942524"><ele>265.0</ele><time>2026-04-25T07:46:58.739Z</time></trkpt><trkpt lat="45.7040185" lon="9.6943642"><ele>265.0</ele><time>2026-04-25T07:46:59.739Z</time></trkpt><trkpt lat="45.704002" lon="9.6944886"><ele>265.0</ele><time>2026-04-25T07:47:00.74Z</time></trkpt><trkpt lat="45.7039924" lon="9.6946202"><ele>265.0</ele><time>2026-04-25T07:47:01.74Z</time></trkpt><trkpt lat="45.7039957" lon="9.694763"><ele>265.0</ele><time>2026-04-25T07:47:02.739Z</time></trkpt><trkpt lat="45.7040146" lon="9.6948861"><ele>265.0</ele><time>2026-04-25T07:47:03.739Z</time></trkpt><trkpt lat="45.7040541" lon="9.6950097"><ele>265.0</ele><time>2026-04-25T07:47:04.74Z</time></trkpt><trkpt lat="45.7041204" lon="9.6951329"><ele>265.0</ele><time>2026-04-25T07:47:05.739Z</time></trkpt><trkpt lat="45.7041948" lon="9.6952272"><ele>265.2</ele><time>2026-04-25T07:47:06.739Z</time></trkpt><trkpt lat="45.704287" lon="9.6953058"><ele>265.4</ele><time>2026-04-25T07:47:07.74Z</time></trkpt><trkpt lat="45.7043876" lon="9.695359"><ele>265.6</ele><time>2026-04-25T07:47:08.74Z</time></trkpt><trkpt lat="45.70449" lon="9.6953972"><ele>265.8</ele><time>2026-04-25T07:47:09.74Z</time></trkpt><trkpt lat="45.7045924" lon="9.6954438"><ele>266.0</ele><time>2026-04-25T07:47:10.739Z</time></trkpt><trkpt lat="45.7046714" lon="9.6955025"><ele>266.0</ele><time>2026-04-25T07:47:11.739Z</time></trkpt><trkpt lat="45.7047443" lon="9.6955866"><ele>266.0</ele><time>2026-04-25T07:47:12.739Z</time></trkpt><trkpt lat="45.7048037" lon="9.6956849"><ele>266.0</ele><time>2026-04-25T07:47:13.739Z</time></trkpt><trkpt lat="45.7048588" lon="9.6957847"><ele>266.0</ele><time>2026-04-25T07:47:14.74Z</time></trkpt><trkpt lat="45.7049154" lon="9.6958857"><ele>266.0</ele><time>2026-04-25T07:47:15.739Z</time></trkpt><trkpt lat="45.7049761" lon="9.695991"><ele>265.8</ele><time>2026-04-25T07:47:16.739Z</time></trkpt><trkpt lat="45.70504" lon="9.6961026"><ele>265.6</ele><time>2026-04-25T07:47:17.739Z</time></trkpt><trkpt lat="45.7051114" lon="9.6962297"><ele>265.4</ele><time>2026-04-25T07:47:18.739Z</time></trkpt><trkpt lat="45.7051783" lon="9.696345"><ele>265.2</ele><time>2026-04-25T07:47:19.739Z</time></trkpt><trkpt lat="45.7052515" lon="9.6964705"><ele>265.0</ele><time>2026-04-25T07:47:20.739Z</time></trkpt><trkpt lat="45.7053315" lon="9.6966084"><ele>265.0</ele><time>2026-04-25T07:47:21.74Z</time></trkpt><trkpt lat="45.7054035" lon="9.6967327"><ele>265.0</ele><time>2026-04-25T07:47:22.739Z</time></trkpt><trkpt lat="45.7054819" lon="9.6968694"><ele>265.0</ele><time>2026-04-25T07:47:23.74Z</time></trkpt><trkpt lat="45.705561" lon="9.6970075"><ele>265.0</ele><time>2026-04-25T07:47:24.739Z</time></trkpt><trkpt lat="45.7056407" lon="9.6971466"><ele>265.25</ele><time>2026-04-25T07:47:25.74Z</time></trkpt><trkpt lat="45.7057247" lon="9.6972933"><ele>265.5</ele><time>2026-04-25T07:47:26.739Z</time></trkpt><trkpt lat="45.7058002" lon="9.697425"><ele>265.75</ele><time>2026-04-25T07:47:27.74Z</time></trkpt><trkpt lat="45.705881" lon="9.6975692"><ele>266.0</ele><time>2026-04-25T07:47:28.739Z</time></trkpt><trkpt lat="45.7059659" lon="9.6977209"><ele>266.0</ele><time>2026-04-25T07:47:29.74Z</time></trkpt><trkpt lat="45.7060541" lon="9.6978792"><ele>266.0</ele><time>2026-04-25T07:47:30.74Z</time></trkpt><trkpt lat="45.7061467" lon="9.6980473"><ele>266.0</ele><time>2026-04-25T07:47:31.739Z</time></trkpt><trkpt lat="45.7062443" lon="9.6982237"><ele>266.0</ele><time>2026-04-25T07:47:32.74Z</time></trkpt><trkpt lat="45.7063486" lon="9.6984045"><ele>266.6666666666667</ele><time>2026-04-25T07:47:33.74Z</time></trkpt><trkpt lat="45.7064684" lon="9.6986003"><ele>267.3333333333333</ele><time>2026-04-25T07:47:34.739Z</time></trkpt><trkpt lat="45.7065761" lon="9.6987707"><ele>268.0</ele><time>2026-04-25T07:47:35.74Z</time></trkpt><trkpt lat="45.706693" lon="9.6989515"><ele>268.0</ele><time>2026-04-25T07:47:36.739Z</time></trkpt><trkpt lat="45.7068221" lon="9.6991442"><ele>268.0</ele><time>2026-04-25T07:47:37.74Z</time></trkpt><trkpt lat="45.7069402" lon="9.6993127"><ele>268.0</ele><time>2026-04-25T07:47:38.739Z</time></trkpt><trkpt lat="45.7070711" lon="9.6994931"><ele>268.66666666666663</ele><time>2026-04-25T07:47:39.74Z</time></trkpt><trkpt lat="45.7072077" lon="9.69967"><ele>269.3333333333333</ele><time>2026-04-25T07:47:40.74Z</time></trkpt><trkpt lat="45.707349" lon="9.6998443"><ele>270.0</ele><time>2026-04-25T07:47:41.739Z</time></trkpt><trkpt lat="45.7075011" lon="9.7000258"><ele>270.0</ele><time>2026-04-25T07:47:42.74Z</time></trkpt><trkpt lat="45.7076311" lon="9.7001774"><ele>270.0</ele><time>2026-04-25T07:47:43.74Z</time></trkpt><trkpt lat="45.707767" lon="9.7003337"><ele>270.0</ele><time>2026-04-25T07:47:44.739Z</time></trkpt><trkpt lat="45.7079011" lon="9.7004862"><ele>270.3333333333333</ele><time>2026-04-25T07:47:45.74Z</time></trkpt><trkpt lat="45.7080309" lon="9.700633"><ele>270.66666666666663</ele><time>2026-04-25T07:47:46.74Z</time></trkpt><trkpt lat="45.7081545" lon="9.7007732"><ele>271.0</ele><time>2026-04-25T07:47:47.74Z</time></trkpt><trkpt lat="45.7082709" lon="9.7009046"><ele>271.0</ele><time>2026-04-25T07:47:48.739Z</time></trkpt><trkpt lat="45.7083804" lon="9.7010276"><ele>271.0</ele><time>2026-04-25T07:47:49.74Z</time></trkpt><trkpt lat="45.7084892" lon="9.7011499"><ele>271.0</ele><time>2026-04-25T07:47:50.739Z</time></trkpt><trkpt lat="45.7085777" lon="9.7012484"><ele>271.0</ele><time>2026-04-25T07:47:51.739Z</time></trkpt><trkpt lat="45.7086647" lon="9.7013456"><ele>271.0</ele><time>2026-04-25T07:47:52.739Z</time></trkpt><trkpt lat="45.7087477" lon="9.7014389"><ele>271.0</ele><time>2026-04-25T07:47:53.74Z</time></trkpt><trkpt lat="45.7088122" lon="9.7015099"><ele>271.0</ele><time>2026-04-25T07:47:54.74Z</time></trkpt><trkpt lat="45.7088719" lon="9.7015773"><ele>271.0</ele><time>2026-04-25T07:47:55.739Z</time></trkpt><trkpt lat="45.7089231" lon="9.701635"><ele>271.0</ele><time>2026-04-25T07:47:56.74Z</time></trkpt><trkpt lat="45.7090026" lon="9.7017246"><ele>271.0</ele><time>2026-04-25T07:47:58.739Z</time></trkpt><trkpt lat="45.7090528" lon="9.7017819"><ele>271.0</ele><time>2026-04-25T07:48:00.74Z</time></trkpt><trkpt lat="45.7091128" lon="9.7018512"><ele>271.0</ele><time>2026-04-25T07:48:03.74Z</time></trkpt><trkpt lat="45.7091772" lon="9.7019243"><ele>271.0</ele><time>2026-04-25T07:48:05.74Z</time></trkpt><trkpt lat="45.7092282" lon="9.7019816"><ele>271.0</ele><time>2026-04-25T07:48:06.74Z</time></trkpt><trkpt lat="45.7092829" lon="9.7020435"><ele>271.0</ele><time>2026-04-25T07:48:07.74Z</time></trkpt><trkpt lat="45.7093482" lon="9.7021178"><ele>271.0</ele><time>2026-04-25T07:48:08.74Z</time></trkpt><trkpt lat="45.7094199" lon="9.7021995"><ele>271.8</ele><time>2026-04-25T07:48:09.739Z</time></trkpt><trkpt lat="45.7094851" lon="9.7022734"><ele>272.6</ele><time>2026-04-25T07:48:10.74Z</time></trkpt><trkpt lat="45.7095571" lon="9.7023558"><ele>273.4</ele><time>2026-04-25T07:48:11.739Z</time></trkpt><trkpt lat="45.7096331" lon="9.7024417"><ele>274.2</ele><time>2026-04-25T07:48:12.74Z</time></trkpt><trkpt lat="45.7097122" lon="9.7025308"><ele>275.0</ele><time>2026-04-25T07:48:13.739Z</time></trkpt><trkpt lat="45.7097978" lon="9.7026266"><ele>275.0</ele><time>2026-04-25T07:48:14.74Z</time></trkpt><trkpt lat="45.7098695" lon="9.7027079"><ele>275.0</ele><time>2026-04-25T07:48:15.74Z</time></trkpt><trkpt lat="45.709939" lon="9.7027884"><ele>275.0</ele><time>2026-04-25T07:48:16.74Z</time></trkpt><trkpt lat="45.7100026" lon="9.7028621"><ele>275.0</ele><time>2026-04-25T07:48:17.74Z</time></trkpt><trkpt lat="45.7100627" lon="9.7029317"><ele>275.0</ele><time>2026-04-25T07:48:18.739Z</time></trkpt><trkpt lat="45.7101243" lon="9.7030033"><ele>275.0</ele><time>2026-04-25T07:48:19.739Z</time></trkpt><trkpt lat="45.7101837" lon="9.7030733"><ele>274.83333333333337</ele><time>2026-04-25T07:48:20.74Z</time></trkpt><trkpt lat="45.7102383" lon="9.7031394"><ele>274.6666666666667</ele><time>2026-04-25T07:48:21.74Z</time></trkpt><trkpt lat="45.7102926" lon="9.7032053"><ele>274.5</ele><time>2026-04-25T07:48:22.739Z</time></trkpt><trkpt lat="45.7103934" lon="9.7033322"><ele>274.3333333333333</ele><time>2026-04-25T07:48:24.74Z</time></trkpt><trkpt lat="45.7104575" lon="9.7034155"><ele>274.16666666666663</ele><time>2026-04-25T07:48:25.739Z</time></trkpt><trkpt lat="45.7105193" lon="9.7034982"><ele>274.0</ele><time>2026-04-25T07:48:26.74Z</time></trkpt><trkpt lat="45.7105868" lon="9.7035885"><ele>274.0</ele><time>2026-04-25T07:48:27.739Z</time></trkpt><trkpt lat="45.7106549" lon="9.7036795"><ele>274.0</ele><time>2026-04-25T07:48:28.739Z</time></trkpt><trkpt lat="45.7107212" lon="9.7037705"><ele>274.0</ele><time>2026-04-25T07:48:29.739Z</time></trkpt><trkpt lat="45.7107915" lon="9.7038699"><ele>274.0</ele><time>2026-04-25T07:48:30.74Z</time></trkpt><trkpt lat="45.7108547" lon="9.7039599"><ele>274.0</ele><time>2026-04-25T07:48:31.74Z</time></trkpt><trkpt lat="45.7109206" lon="9.7040549"><ele>274.0</ele><time>2026-04-25T07:48:32.74Z</time></trkpt><trkpt lat="45.7109855" lon="9.704149"><ele>274.0</ele><time>2026-04-25T07:48:33.739Z</time></trkpt><trkpt lat="45.7110486" lon="9.7042408"><ele>274.0</ele><time>2026-04-25T07:48:34.739Z</time></trkpt><trkpt lat="45.7111094" lon="9.7043303"><ele>274.0</ele><time>2026-04-25T07:48:35.739Z</time></trkpt><trkpt lat="45.7111667" lon="9.7044181"><ele>274.0</ele><time>2026-04-25T07:48:36.74Z</time></trkpt><trkpt lat="45.7112211" lon="9.7045049"><ele>274.0</ele><time>2026-04-25T07:48:37.739Z</time></trkpt><trkpt lat="45.7112769" lon="9.7045975"><ele>274.66666666666663</ele><time>2026-04-25T07:48:38.74Z</time></trkpt><trkpt lat="45.7113258" lon="9.704683"><ele>275.3333333333333</ele><time>2026-04-25T07:48:39.74Z</time></trkpt><trkpt lat="45.7113785" lon="9.7047765"><ele>276.0</ele><time>2026-04-25T07:48:40.74Z</time></trkpt><trkpt lat="45.7114354" lon="9.7048795"><ele>276.6666666666667</ele><time>2026-04-25T07:48:41.74Z</time></trkpt><trkpt lat="45.7114841" lon="9.7049682"><ele>277.33333333333337</ele><time>2026-04-25T07:48:42.739Z</time></trkpt><trkpt lat="45.7115357" lon="9.7050625"><ele>278.0</ele><time>2026-04-25T07:48:43.74Z</time></trkpt><trkpt lat="45.7115887" lon="9.7051592"><ele>277.2</ele><time>2026-04-25T07:48:44.74Z</time></trkpt><trkpt lat="45.7116447" lon="9.7052594"><ele>276.4</ele><time>2026-04-25T07:48:45.74Z</time></trkpt><trkpt lat="45.7117076" lon="9.7053755"><ele>275.59999999999997</ele><time>2026-04-25T07:48:46.74Z</time></trkpt><trkpt lat="45.7117659" lon="9.7054873"><ele>274.8</ele><time>2026-04-25T07:48:47.74Z</time></trkpt><trkpt lat="45.7118279" lon="9.7056083"><ele>274.0</ele><time>2026-04-25T07:48:48.74Z</time></trkpt><trkpt lat="45.7118893" lon="9.7057288"><ele>274.4</ele><time>2026-04-25T07:48:49.74Z</time></trkpt><trkpt lat="45.711949" lon="9.7058492"><ele>274.79999999999995</ele><time>2026-04-25T07:48:50.739Z</time></trkpt><trkpt lat="45.7120073" lon="9.7059674"><ele>275.20000000000005</ele><time>2026-04-25T07:48:51.74Z</time></trkpt><trkpt lat="45.7120644" lon="9.7060864"><ele>275.6</ele><time>2026-04-25T07:48:52.74Z</time></trkpt><trkpt lat="45.7121194" lon="9.706205"><ele>276.0</ele><time>2026-04-25T07:48:53.74Z</time></trkpt><trkpt lat="45.7121734" lon="9.7063284"><ele>276.0</ele><time>2026-04-25T07:48:54.74Z</time></trkpt><trkpt lat="45.7122192" lon="9.7064303"><ele>276.0</ele><time>2026-04-25T07:48:55.74Z</time></trkpt><trkpt lat="45.7122693" lon="9.7065366"><ele>276.0</ele><time>2026-04-25T07:48:56.74Z</time></trkpt><trkpt lat="45.7123263" lon="9.7066541"><ele>276.0</ele><time>2026-04-25T07:48:57.74Z</time></trkpt><trkpt lat="45.712378" lon="9.7067635"><ele>276.0</ele><time>2026-04-25T07:48:58.739Z</time></trkpt><trkpt lat="45.7124349" lon="9.7068854"><ele>276.40000000000003</ele><time>2026-04-25T07:48:59.739Z</time></trkpt><trkpt lat="45.7124909" lon="9.7070096"><ele>276.8</ele><time>2026-04-25T07:49:00.739Z</time></trkpt><trkpt lat="45.7125508" lon="9.7071391"><ele>277.20000000000005</ele><time>2026-04-25T07:49:01.74Z</time></trkpt><trkpt lat="45.7126187" lon="9.7072798"><ele>277.6</ele><time>2026-04-25T07:49:02.739Z</time></trkpt><trkpt lat="45.7126797" lon="9.7074063"><ele>278.0</ele><time>2026-04-25T07:49:03.739Z</time></trkpt><trkpt lat="45.7127479" lon="9.7075487"><ele>278.0</ele><time>2026-04-25T07:49:04.739Z</time></trkpt><trkpt lat="45.7128202" lon="9.7076998"><ele>278.0</ele><time>2026-04-25T07:49:05.74Z</time></trkpt><trkpt lat="45.712894" lon="9.7078545"><ele>278.0</ele><time>2026-04-25T07:49:06.74Z</time></trkpt><trkpt lat="45.7129662" lon="9.7080054"><ele>278.0</ele><time>2026-04-25T07:49:07.74Z</time></trkpt><trkpt lat="45.7130344" lon="9.7081462"><ele>278.0</ele><time>2026-04-25T07:49:08.74Z</time></trkpt><trkpt lat="45.7130992" lon="9.7082803"><ele>278.0</ele><time>2026-04-25T07:49:09.739Z</time></trkpt><trkpt lat="45.7131683" lon="9.7084237"><ele>278.0</ele><time>2026-04-25T07:49:10.739Z</time></trkpt><trkpt lat="45.71323" lon="9.7085544"><ele>278.0</ele><time>2026-04-25T07:49:11.739Z</time></trkpt><trkpt lat="45.7132965" lon="9.7086982"><ele>277.75</ele><time>2026-04-25T07:49:12.74Z</time></trkpt><trkpt lat="45.7133705" lon="9.7088543"><ele>277.5</ele><time>2026-04-25T07:49:13.74Z</time></trkpt><trkpt lat="45.7134371" lon="9.7089915"><ele>277.25</ele><time>2026-04-25T07:49:14.74Z</time></trkpt><trkpt lat="45.7135085" lon="9.7091371"><ele>277.0</ele><time>2026-04-25T07:49:15.739Z</time></trkpt><trkpt lat="45.7135774" lon="9.7092814"><ele>277.25</ele><time>2026-04-25T07:49:16.74Z</time></trkpt><trkpt lat="45.713645" lon="9.709425"><ele>277.5</ele><time>2026-04-25T07:49:17.74Z</time></trkpt><trkpt lat="45.7137165" lon="9.7095792"><ele>277.75</ele><time>2026-04-25T07:49:18.74Z</time></trkpt><trkpt lat="45.7137814" lon="9.7097211"><ele>278.0</ele><time>2026-04-25T07:49:19.739Z</time></trkpt><trkpt lat="45.7138514" lon="9.7098768"><ele>278.0</ele><time>2026-04-25T07:49:20.739Z</time></trkpt><trkpt lat="45.7139223" lon="9.7100297"><ele>278.0</ele><time>2026-04-25T07:49:21.739Z</time></trkpt><trkpt lat="45.7139932" lon="9.7101824"><ele>278.0</ele><time>2026-04-25T07:49:22.74Z</time></trkpt><trkpt lat="45.7140624" lon="9.7103308"><ele>278.0</ele><time>2026-04-25T07:49:23.739Z</time></trkpt><trkpt lat="45.7141294" lon="9.7104729"><ele>278.0</ele><time>2026-04-25T07:49:24.74Z</time></trkpt><trkpt lat="45.7141953" lon="9.7106122"><ele>278.0</ele><time>2026-04-25T07:49:25.74Z</time></trkpt><trkpt lat="45.7142642" lon="9.7107573"><ele>278.0</ele><time>2026-04-25T07:49:26.739Z</time></trkpt><trkpt lat="45.7143241" lon="9.7108825"><ele>278.0</ele><time>2026-04-25T07:49:27.739Z</time></trkpt><trkpt lat="45.7143877" lon="9.7110137"><ele>278.2</ele><time>2026-04-25T07:49:28.739Z</time></trkpt><trkpt lat="45.7144536" lon="9.7111522"><ele>278.4</ele><time>2026-04-25T07:49:29.739Z</time></trkpt><trkpt lat="45.7145106" lon="9.7112724"><ele>278.59999999999997</ele><time>2026-04-25T07:49:30.739Z</time></trkpt><trkpt lat="45.714572" lon="9.7114027"><ele>278.8</ele><time>2026-04-25T07:49:31.739Z</time></trkpt><trkpt lat="45.7146359" lon="9.7115366"><ele>279.0</ele><time>2026-04-25T07:49:32.739Z</time></trkpt><trkpt lat="45.714702" lon="9.7116755"><ele>279.0</ele><time>2026-04-25T07:49:33.74Z</time></trkpt><trkpt lat="45.7147747" lon="9.7118261"><ele>279.0</ele><time>2026-04-25T07:49:34.739Z</time></trkpt><trkpt lat="45.7148393" lon="9.7119608"><ele>279.0</ele><time>2026-04-25T07:49:35.74Z</time></trkpt><trkpt lat="45.7149089" lon="9.7121069"><ele>279.0</ele><time>2026-04-25T07:49:36.74Z</time></trkpt><trkpt lat="45.7149795" lon="9.7122555"><ele>279.0</ele><time>2026-04-25T07:49:37.739Z</time></trkpt><trkpt lat="45.7150507" lon="9.7124051"><ele>279.0</ele><time>2026-04-25T07:49:38.74Z</time></trkpt><trkpt lat="45.7151234" lon="9.7125578"><ele>279.0</ele><time>2026-04-25T07:49:39.739Z</time></trkpt><trkpt lat="45.7151968" lon="9.7127121"><ele>279.0</ele><time>2026-04-25T07:49:40.739Z</time></trkpt><trkpt lat="45.7152716" lon="9.7128677"><ele>279.0</ele><time>2026-04-25T07:49:41.74Z</time></trkpt><trkpt lat="45.7153529" lon="9.7130378"><ele>279.0</ele><time>2026-04-25T07:49:42.739Z</time></trkpt><trkpt lat="45.7154256" lon="9.713191"><ele>279.0</ele><time>2026-04-25T07:49:43.74Z</time></trkpt><trkpt lat="45.7155057" lon="9.7133584"><ele>279.0</ele><time>2026-04-25T07:49:44.74Z</time></trkpt><trkpt lat="45.715593" lon="9.7135402"><ele>278.5</ele><time>2026-04-25T07:49:45.74Z</time></trkpt><trkpt lat="45.7156726" lon="9.7137008"><ele>278.0</ele><time>2026-04-25T07:49:46.739Z</time></trkpt><trkpt lat="45.7157576" lon="9.7138778"><ele>277.5</ele><time>2026-04-25T07:49:47.74Z</time></trkpt><trkpt lat="45.7158385" lon="9.7140524"><ele>277.0</ele><time>2026-04-25T07:49:48.739Z</time></trkpt><trkpt lat="45.7159211" lon="9.7142243"><ele>277.0</ele><time>2026-04-25T07:49:49.74Z</time></trkpt><trkpt lat="45.7160099" lon="9.7144015"><ele>277.0</ele><time>2026-04-25T07:49:50.74Z</time></trkpt><trkpt lat="45.7160911" lon="9.714563"><ele>277.0</ele><time>2026-04-25T07:49:51.74Z</time></trkpt><trkpt lat="45.7161771" lon="9.7147416"><ele>277.0</ele><time>2026-04-25T07:49:52.74Z</time></trkpt><trkpt lat="45.716253" lon="9.7149133"><ele>277.25</ele><time>2026-04-25T07:49:53.739Z</time></trkpt><trkpt lat="45.7163359" lon="9.7150867"><ele>277.5</ele><time>2026-04-25T07:49:54.739Z</time></trkpt><trkpt lat="45.716419" lon="9.7152592"><ele>277.75</ele><time>2026-04-25T07:49:55.739Z</time></trkpt><trkpt lat="45.716501" lon="9.7154333"><ele>278.0</ele><time>2026-04-25T07:49:56.739Z</time></trkpt><trkpt lat="45.7165834" lon="9.715607"><ele>278.5</ele><time>2026-04-25T07:49:57.739Z</time></trkpt><trkpt lat="45.7166691" lon="9.715789"><ele>279.0</ele><time>2026-04-25T07:49:58.739Z</time></trkpt><trkpt lat="45.7167448" lon="9.7159486"><ele>279.5</ele><time>2026-04-25T07:49:59.739Z</time></trkpt><trkpt lat="45.7168244" lon="9.7161164"><ele>280.0</ele><time>2026-04-25T07:50:00.74Z</time></trkpt><trkpt lat="45.7169094" lon="9.7162953"><ele>280.0</ele><time>2026-04-25T07:50:01.74Z</time></trkpt><trkpt lat="45.7169833" lon="9.7164539"><ele>280.0</ele><time>2026-04-25T07:50:02.74Z</time></trkpt><trkpt lat="45.717062" lon="9.7166215"><ele>280.0</ele><time>2026-04-25T07:50:03.74Z</time></trkpt><trkpt lat="45.7171416" lon="9.7167888"><ele>280.0</ele><time>2026-04-25T07:50:04.74Z</time></trkpt><trkpt lat="45.7172212" lon="9.7169544"><ele>280.5</ele><time>2026-04-25T07:50:05.739Z</time></trkpt><trkpt lat="45.7173057" lon="9.7171285"><ele>281.0</ele><time>2026-04-25T07:50:06.739Z</time></trkpt><trkpt lat="45.7173778" lon="9.7172791"><ele>281.5</ele><time>2026-04-25T07:50:07.74Z</time></trkpt><trkpt lat="45.7174541" lon="9.7174373"><ele>282.0</ele><time>2026-04-25T07:50:08.739Z</time></trkpt><trkpt lat="45.7175298" lon="9.717596"><ele>281.5</ele><time>2026-04-25T07:50:09.74Z</time></trkpt><trkpt lat="45.7176048" lon="9.7177544"><ele>281.0</ele><time>2026-04-25T07:50:10.739Z</time></trkpt><trkpt lat="45.7176795" lon="9.7179114"><ele>280.5</ele><time>2026-04-25T07:50:11.739Z</time></trkpt><trkpt lat="45.7177541" lon="9.7180666"><ele>280.0</ele><time>2026-04-25T07:50:12.739Z</time></trkpt><trkpt lat="45.7178294" lon="9.7182211"><ele>279.75</ele><time>2026-04-25T07:50:13.74Z</time></trkpt><trkpt lat="45.7179113" lon="9.7183868"><ele>279.5</ele><time>2026-04-25T07:50:14.739Z</time></trkpt><trkpt lat="45.7179873" lon="9.7185369"><ele>279.25</ele><time>2026-04-25T07:50:15.74Z</time></trkpt><trkpt lat="45.7180724" lon="9.7186977"><ele>279.0</ele><time>2026-04-25T07:50:16.74Z</time></trkpt><trkpt lat="45.7181662" lon="9.7188709"><ele>279.0</ele><time>2026-04-25T07:50:17.739Z</time></trkpt><trkpt lat="45.7182503" lon="9.7190208"><ele>279.0</ele><time>2026-04-25T07:50:18.74Z</time></trkpt><trkpt lat="45.7183434" lon="9.7191786"><ele>279.0</ele><time>2026-04-25T07:50:19.74Z</time></trkpt><trkpt lat="45.7184387" lon="9.7193367"><ele>279.0</ele><time>2026-04-25T07:50:20.739Z</time></trkpt><trkpt lat="45.7185368" lon="9.7194943"><ele>279.75</ele><time>2026-04-25T07:50:21.74Z</time></trkpt><trkpt lat="45.7186416" lon="9.719661"><ele>280.5</ele><time>2026-04-25T07:50:22.74Z</time></trkpt><trkpt lat="45.7187347" lon="9.7198061"><ele>281.25</ele><time>2026-04-25T07:50:23.74Z</time></trkpt><trkpt lat="45.7188356" lon="9.7199586"><ele>282.0</ele><time>2026-04-25T07:50:24.74Z</time></trkpt><trkpt lat="45.7189357" lon="9.7201105"><ele>281.25</ele><time>2026-04-25T07:50:25.74Z</time></trkpt><trkpt lat="45.7190331" lon="9.7202562"><ele>280.5</ele><time>2026-04-25T07:50:26.74Z</time></trkpt><trkpt lat="45.7191277" lon="9.7203995"><ele>279.75</ele><time>2026-04-25T07:50:27.74Z</time></trkpt><trkpt lat="45.7192218" lon="9.7205424"><ele>279.0</ele><time>2026-04-25T07:50:28.739Z</time></trkpt><trkpt lat="45.7193161" lon="9.7206841"><ele>278.75</ele><time>2026-04-25T07:50:29.739Z</time></trkpt><trkpt lat="45.7194174" lon="9.7208338"><ele>278.5</ele><time>2026-04-25T07:50:30.74Z</time></trkpt><trkpt lat="45.7195074" lon="9.7209666"><ele>278.25</ele><time>2026-04-25T07:50:31.739Z</time></trkpt><trkpt lat="45.7196081" lon="9.7211155"><ele>278.0</ele><time>2026-04-25T07:50:32.74Z</time></trkpt><trkpt lat="45.7197111" lon="9.7212701"><ele>278.0</ele><time>2026-04-25T07:50:33.739Z</time></trkpt><trkpt lat="45.7198123" lon="9.7214203"><ele>278.0</ele><time>2026-04-25T07:50:34.74Z</time></trkpt><trkpt lat="45.7199102" lon="9.7215674"><ele>278.0</ele><time>2026-04-25T07:50:35.74Z</time></trkpt><trkpt lat="45.7200074" lon="9.7217096"><ele>278.0</ele><time>2026-04-25T07:50:36.739Z</time></trkpt><trkpt lat="45.7201043" lon="9.7218504"><ele>277.75</ele><time>2026-04-25T07:50:37.739Z</time></trkpt><trkpt lat="45.7202032" lon="9.7219931"><ele>277.5</ele><time>2026-04-25T07:50:38.739Z</time></trkpt><trkpt lat="45.7203008" lon="9.7221353"><ele>277.25</ele><time>2026-04-25T07:50:39.739Z</time></trkpt><trkpt lat="45.7203975" lon="9.7222765"><ele>277.0</ele><time>2026-04-25T07:50:40.739Z</time></trkpt><trkpt lat="45.7204947" lon="9.7224222"><ele>277.0</ele><time>2026-04-25T07:50:41.74Z</time></trkpt><trkpt lat="45.7205915" lon="9.7225692"><ele>277.0</ele><time>2026-04-25T07:50:42.74Z</time></trkpt><trkpt lat="45.7206901" lon="9.7227166"><ele>277.0</ele><time>2026-04-25T07:50:43.739Z</time></trkpt><trkpt lat="45.7207927" lon="9.7228688"><ele>277.0</ele><time>2026-04-25T07:50:44.74Z</time></trkpt><trkpt lat="45.7208958" lon="9.7230177"><ele>276.25</ele><time>2026-04-25T07:50:45.74Z</time></trkpt><trkpt lat="45.721008" lon="9.7231754"><ele>275.5</ele><time>2026-04-25T07:50:46.74Z</time></trkpt><trkpt lat="45.7211098" lon="9.723313"><ele>274.75</ele><time>2026-04-25T07:50:47.739Z</time></trkpt><trkpt lat="45.7212198" lon="9.7234598"><ele>274.0</ele><time>2026-04-25T07:50:48.74Z</time></trkpt><trkpt lat="45.7213352" lon="9.7236117"><ele>274.0</ele><time>2026-04-25T07:50:49.739Z</time></trkpt><trkpt lat="45.7214494" lon="9.7237621"><ele>274.0</ele><time>2026-04-25T07:50:50.74Z</time></trkpt><trkpt lat="45.7215614" lon="9.7239102"><ele>274.0</ele><time>2026-04-25T07:50:51.74Z</time></trkpt><trkpt lat="45.7216735" lon="9.7240589"><ele>274.0</ele><time>2026-04-25T07:50:52.74Z</time></trkpt><trkpt lat="45.7217859" lon="9.7242073"><ele>274.0</ele><time>2026-04-25T07:50:53.74Z</time></trkpt><trkpt lat="45.721908" lon="9.7243662"><ele>274.0</ele><time>2026-04-25T07:50:54.739Z</time></trkpt><trkpt lat="45.7220194" lon="9.724512"><ele>273.0</ele><time>2026-04-25T07:50:55.739Z</time></trkpt><trkpt lat="45.7221385" lon="9.7246678"><ele>272.0</ele><time>2026-04-25T07:50:56.74Z</time></trkpt><trkpt lat="45.7222557" lon="9.7248205"><ele>271.0</ele><time>2026-04-25T07:50:57.74Z</time></trkpt><trkpt lat="45.7223683" lon="9.7249664"><ele>271.0</ele><time>2026-04-25T07:50:58.739Z</time></trkpt><trkpt lat="45.7224746" lon="9.7251043"><ele>271.0</ele><time>2026-04-25T07:50:59.739Z</time></trkpt><trkpt lat="45.7225819" lon="9.7252418"><ele>271.0</ele><time>2026-04-25T07:51:00.74Z</time></trkpt><trkpt lat="45.7226885" lon="9.7253804"><ele>271.0</ele><time>2026-04-25T07:51:01.74Z</time></trkpt><trkpt lat="45.7228009" lon="9.7255282"><ele>271.0</ele><time>2026-04-25T07:51:02.739Z</time></trkpt><trkpt lat="45.7228999" lon="9.7256599"><ele>271.0</ele><time>2026-04-25T07:51:03.739Z</time></trkpt><trkpt lat="45.723006" lon="9.725801"><ele>271.0</ele><time>2026-04-25T07:51:04.739Z</time></trkpt><trkpt lat="45.7231193" lon="9.725952"><ele>271.0</ele><time>2026-04-25T07:51:05.74Z</time></trkpt><trkpt lat="45.7232205" lon="9.7260866"><ele>271.3333333333333</ele><time>2026-04-25T07:51:06.739Z</time></trkpt><trkpt lat="45.7233311" lon="9.7262326"><ele>271.6666666666667</ele><time>2026-04-25T07:51:07.739Z</time></trkpt><trkpt lat="45.7234424" lon="9.7263802"><ele>272.0</ele><time>2026-04-25T07:51:08.739Z</time></trkpt><trkpt lat="45.7235566" lon="9.7265322"><ele>271.6666666666667</ele><time>2026-04-25T07:51:09.74Z</time></trkpt><trkpt lat="45.7236808" lon="9.7266974"><ele>271.3333333333333</ele><time>2026-04-25T07:51:10.74Z</time></trkpt><trkpt lat="45.7237936" lon="9.7268482"><ele>271.0</ele><time>2026-04-25T07:51:11.74Z</time></trkpt><trkpt lat="45.7239156" lon="9.7270099"><ele>270.3333333333333</ele><time>2026-04-25T07:51:12.74Z</time></trkpt><trkpt lat="45.7240395" lon="9.7271723"><ele>269.6666666666667</ele><time>2026-04-25T07:51:13.739Z</time></trkpt><trkpt lat="45.7241669" lon="9.7273386"><ele>269.0</ele><time>2026-04-25T07:51:14.74Z</time></trkpt><trkpt lat="45.7242934" lon="9.7275065"><ele>269.0</ele><time>2026-04-25T07:51:15.739Z</time></trkpt><trkpt lat="45.7244161" lon="9.7276704"><ele>269.0</ele><time>2026-04-25T07:51:16.74Z</time></trkpt><trkpt lat="45.7245374" lon="9.727832"><ele>269.0</ele><time>2026-04-25T07:51:17.74Z</time></trkpt><trkpt lat="45.724652" lon="9.7279834"><ele>269.5</ele><time>2026-04-25T07:51:18.739Z</time></trkpt><trkpt lat="45.7247588" lon="9.7281234"><ele>270.0</ele><time>2026-04-25T07:51:19.739Z</time></trkpt><trkpt lat="45.7248637" lon="9.7282609"><ele>270.5</ele><time>2026-04-25T07:51:20.739Z</time></trkpt><trkpt lat="45.7249773" lon="9.7284095"><ele>271.0</ele><time>2026-04-25T07:51:21.74Z</time></trkpt><trkpt lat="45.7250819" lon="9.7285502"><ele>271.66666666666663</ele><time>2026-04-25T07:51:22.739Z</time></trkpt><trkpt lat="45.7251965" lon="9.7287039"><ele>272.3333333333333</ele><time>2026-04-25T07:51:23.74Z</time></trkpt><trkpt lat="45.7253134" lon="9.7288629"><ele>273.0</ele><time>2026-04-25T07:51:24.739Z</time></trkpt><trkpt lat="45.7254369" lon="9.7290288"><ele>273.0</ele><time>2026-04-25T07:51:25.74Z</time></trkpt><trkpt lat="45.7255703" lon="9.7292053"><ele>273.0</ele><time>2026-04-25T07:51:26.74Z</time></trkpt><trkpt lat="45.7256839" lon="9.7293558"><ele>273.0</ele><time>2026-04-25T07:51:27.739Z</time></trkpt><trkpt lat="45.7258055" lon="9.7295164"><ele>272.6666666666667</ele><time>2026-04-25T07:51:28.739Z</time></trkpt><trkpt lat="45.7259188" lon="9.729665"><ele>272.33333333333337</ele><time>2026-04-25T07:51:29.739Z</time></trkpt><trkpt lat="45.7260467" lon="9.7298342"><ele>272.0</ele><time>2026-04-25T07:51:30.739Z</time></trkpt><trkpt lat="45.7261697" lon="9.7299958"><ele>271.6666666666667</ele><time>2026-04-25T07:51:31.74Z</time></trkpt><trkpt lat="45.7262897" lon="9.7301526"><ele>271.3333333333333</ele><time>2026-04-25T07:51:32.74Z</time></trkpt><trkpt lat="45.7264053" lon="9.7303038"><ele>271.0</ele><time>2026-04-25T07:51:33.74Z</time></trkpt><trkpt lat="45.7265246" lon="9.7304607"><ele>271.0</ele><time>2026-04-25T07:51:34.739Z</time></trkpt><trkpt lat="45.726647" lon="9.7306239"><ele>271.0</ele><time>2026-04-25T07:51:35.74Z</time></trkpt><trkpt lat="45.7267744" lon="9.7307956"><ele>271.0</ele><time>2026-04-25T07:51:36.74Z</time></trkpt><trkpt lat="45.7269023" lon="9.7309677"><ele>271.3333333333333</ele><time>2026-04-25T07:51:37.739Z</time></trkpt><trkpt lat="45.7270301" lon="9.7311399"><ele>271.6666666666667</ele><time>2026-04-25T07:51:38.74Z</time></trkpt><trkpt lat="45.7271552" lon="9.7313099"><ele>272.0</ele><time>2026-04-25T07:51:39.739Z</time></trkpt><trkpt lat="45.7272738" lon="9.7314728"><ele>272.0</ele><time>2026-04-25T07:51:40.739Z</time></trkpt><trkpt lat="45.7273915" lon="9.7316356"><ele>272.0</ele><time>2026-04-25T07:51:41.74Z</time></trkpt><trkpt lat="45.7275116" lon="9.7318044"><ele>272.0</ele><time>2026-04-25T07:51:42.74Z</time></trkpt><trkpt lat="45.7276278" lon="9.7319696"><ele>273.0</ele><time>2026-04-25T07:51:43.739Z</time></trkpt><trkpt lat="45.7277384" lon="9.7321299"><ele>274.0</ele><time>2026-04-25T07:51:44.74Z</time></trkpt><trkpt lat="45.7278394" lon="9.7322772"><ele>275.0</ele><time>2026-04-25T07:51:45.739Z</time></trkpt><trkpt lat="45.7279649" lon="9.7324583"><ele>275.0</ele><time>2026-04-25T07:51:46.739Z</time></trkpt><trkpt lat="45.7281253" lon="9.7326956"><ele>275.0</ele><time>2026-04-25T07:51:47.74Z</time></trkpt><trkpt lat="45.7283137" lon="9.7329786"><ele>275.0</ele><time>2026-04-25T07:51:48.74Z</time></trkpt><trkpt lat="45.7285231" lon="9.7332949"><ele>275.0</ele><time>2026-04-25T07:51:49.739Z</time></trkpt><trkpt lat="45.7287256" lon="9.7335984"><ele>275.0</ele><time>2026-04-25T07:51:50.739Z</time></trkpt><trkpt lat="45.7289024" lon="9.7338617"><ele>275.0</ele><time>2026-04-25T07:51:51.74Z</time></trkpt><trkpt lat="45.7290666" lon="9.73411"><ele>275.0</ele><time>2026-04-25T07:51:52.739Z</time></trkpt><trkpt lat="45.7292166" lon="9.734335"><ele>275.0</ele><time>2026-04-25T07:51:53.74Z</time></trkpt><trkpt lat="45.7293464" lon="9.734528"><ele>275.0</ele><time>2026-04-25T07:51:54.739Z</time></trkpt><trkpt lat="45.7294866" lon="9.7347353"><ele>275.33333333333337</ele><time>2026-04-25T07:51:55.74Z</time></trkpt><trkpt lat="45.7296065" lon="9.7349116"><ele>275.6666666666667</ele><time>2026-04-25T07:51:56.739Z</time></trkpt><trkpt lat="45.72974" lon="9.7351077"><ele>276.0</ele><time>2026-04-25T07:51:57.74Z</time></trkpt><trkpt lat="45.7298673" lon="9.7352963"><ele>276.0</ele><time>2026-04-25T07:51:58.739Z</time></trkpt><trkpt lat="45.7299876" lon="9.735473"><ele>276.0</ele><time>2026-04-25T07:51:59.74Z</time></trkpt><trkpt lat="45.7301244" lon="9.7356736"><ele>276.0</ele><time>2026-04-25T07:52:00.739Z</time></trkpt><trkpt lat="45.7302459" lon="9.7358518"><ele>276.0</ele><time>2026-04-25T07:52:01.739Z</time></trkpt><trkpt lat="45.7303746" lon="9.7360438"><ele>276.0</ele><time>2026-04-25T07:52:02.74Z</time></trkpt><trkpt lat="45.7305091" lon="9.7362461"><ele>276.0</ele><time>2026-04-25T07:52:03.739Z</time></trkpt><trkpt lat="45.7306288" lon="9.7364277"><ele>277.3333333333333</ele><time>2026-04-25T07:52:04.739Z</time></trkpt><trkpt lat="45.7307556" lon="9.736621"><ele>278.66666666666663</ele><time>2026-04-25T07:52:05.74Z</time></trkpt><trkpt lat="45.7308913" lon="9.7368257"><ele>280.0</ele><time>2026-04-25T07:52:06.739Z</time></trkpt><trkpt lat="45.7310101" lon="9.7370017"><ele>279.66666666666663</ele><time>2026-04-25T07:52:07.739Z</time></trkpt><trkpt lat="45.7311451" lon="9.7371995"><ele>279.3333333333333</ele><time>2026-04-25T07:52:08.74Z</time></trkpt><trkpt lat="45.7312755" lon="9.7373908"><ele>279.0</ele><time>2026-04-25T07:52:09.739Z</time></trkpt><trkpt lat="45.7313983" lon="9.7375697"><ele>280.0</ele><time>2026-04-25T07:52:10.74Z</time></trkpt><trkpt lat="45.7315377" lon="9.7377756"><ele>281.0</ele><time>2026-04-25T07:52:11.74Z</time></trkpt><trkpt lat="45.7316583" lon="9.7379566"><ele>282.0</ele><time>2026-04-25T07:52:12.739Z</time></trkpt><trkpt lat="45.7317849" lon="9.7381507"><ele>280.6666666666667</ele><time>2026-04-25T07:52:13.739Z</time></trkpt><trkpt lat="45.7319177" lon="9.7383535"><ele>279.33333333333337</ele><time>2026-04-25T07:52:14.739Z</time></trkpt><trkpt lat="45.7320373" lon="9.738532"><ele>278.0</ele><time>2026-04-25T07:52:15.74Z</time></trkpt><trkpt lat="45.7321863" lon="9.7387485"><ele>278.0</ele><time>2026-04-25T07:52:16.74Z</time></trkpt><trkpt lat="45.7323467" lon="9.7389913"><ele>278.0</ele><time>2026-04-25T07:52:17.739Z</time></trkpt><trkpt lat="45.732541" lon="9.7392767"><ele>278.5</ele><time>2026-04-25T07:52:18.74Z</time></trkpt><trkpt lat="45.7327733" lon="9.7396347"><ele>279.0</ele><time>2026-04-25T07:52:19.74Z</time></trkpt><trkpt lat="45.7329679" lon="9.7399151"><ele>279.0</ele><time>2026-04-25T07:52:20.739Z</time></trkpt><trkpt lat="45.7331624" lon="9.7402014"><ele>279.0</ele><time>2026-04-25T07:52:21.74Z</time></trkpt><trkpt lat="45.7333509" lon="9.740478"><ele>280.3333333333333</ele><time>2026-04-25T07:52:22.74Z</time></trkpt><trkpt lat="45.7335018" lon="9.7406985"><ele>281.66666666666663</ele><time>2026-04-25T07:52:23.739Z</time></trkpt><trkpt lat="45.7336574" lon="9.7409282"><ele>283.0</ele><time>2026-04-25T07:52:24.74Z</time></trkpt><trkpt lat="45.733789" lon="9.7411253"><ele>283.66666666666663</ele><time>2026-04-25T07:52:25.739Z</time></trkpt><trkpt lat="45.7339066" lon="9.7413029"><ele>284.3333333333333</ele><time>2026-04-25T07:52:26.739Z</time></trkpt><trkpt lat="45.7340297" lon="9.7414887"><ele>285.0</ele><time>2026-04-25T07:52:27.739Z</time></trkpt><trkpt lat="45.7341318" lon="9.7416417"><ele>285.0</ele><time>2026-04-25T07:52:28.739Z</time></trkpt><trkpt lat="45.7342364" lon="9.7417992"><ele>285.0</ele><time>2026-04-25T07:52:29.74Z</time></trkpt><trkpt lat="45.7343367" lon="9.7419654"><ele>285.0</ele><time>2026-04-25T07:52:30.74Z</time></trkpt><trkpt lat="45.7344188" lon="9.74212"><ele>285.0</ele><time>2026-04-25T07:52:31.739Z</time></trkpt><trkpt lat="45.7345035" lon="9.7422933"><ele>285.2</ele><time>2026-04-25T07:52:32.739Z</time></trkpt><trkpt lat="45.7345708" lon="9.7424388"><ele>285.4</ele><time>2026-04-25T07:52:33.74Z</time></trkpt><trkpt lat="45.7346352" lon="9.7425852"><ele>285.6</ele><time>2026-04-25T07:52:34.74Z</time></trkpt><trkpt lat="45.7346938" lon="9.7427267"><ele>285.8</ele><time>2026-04-25T07:52:35.739Z</time></trkpt><trkpt lat="45.7347351" lon="9.7428365"><ele>286.0</ele><time>2026-04-25T07:52:36.74Z</time></trkpt><trkpt lat="45.7347714" lon="9.7429458"><ele>286.0</ele><time>2026-04-25T07:52:37.74Z</time></trkpt><trkpt lat="45.7348008" lon="9.7430541"><ele>286.0</ele><time>2026-04-25T07:52:38.739Z</time></trkpt><trkpt lat="45.7348209" lon="9.7431464"><ele>286.0</ele><time>2026-04-25T07:52:39.739Z</time></trkpt><trkpt lat="45.7348393" lon="9.7432637"><ele>286.0</ele><time>2026-04-25T07:52:40.739Z</time></trkpt><trkpt lat="45.7348568" lon="9.7434057"><ele>286.0</ele><time>2026-04-25T07:52:41.739Z</time></trkpt><trkpt lat="45.7348779" lon="9.7435683"><ele>286.0</ele><time>2026-04-25T07:52:42.74Z</time></trkpt><trkpt lat="45.7349264" lon="9.7437657"><ele>286.0</ele><time>2026-04-25T07:52:43.74Z</time></trkpt><trkpt lat="45.7350036" lon="9.7439426"><ele>286.0</ele><time>2026-04-25T07:52:44.739Z</time></trkpt><trkpt lat="45.735115" lon="9.7441217"><ele>286.0</ele><time>2026-04-25T07:52:45.739Z</time></trkpt><trkpt lat="45.7352441" lon="9.7442772"><ele>286.75</ele><time>2026-04-25T07:52:46.739Z</time></trkpt><trkpt lat="45.7353661" lon="9.7443756"><ele>287.5</ele><time>2026-04-25T07:52:47.739Z</time></trkpt><trkpt lat="45.7355205" lon="9.7444655"><ele>288.25</ele><time>2026-04-25T07:52:48.739Z</time></trkpt><trkpt lat="45.7356427" lon="9.7445508"><ele>289.0</ele><time>2026-04-25T07:52:49.74Z</time></trkpt><trkpt lat="45.735762" lon="9.7446738"><ele>289.25</ele><time>2026-04-25T07:52:50.74Z</time></trkpt><trkpt lat="45.7358762" lon="9.7448089"><ele>289.5</ele><time>2026-04-25T07:52:51.739Z</time></trkpt><trkpt lat="45.7359653" lon="9.7449211"><ele>289.75</ele><time>2026-04-25T07:52:52.74Z</time></trkpt><trkpt lat="45.7360577" lon="9.7450446"><ele>290.0</ele><time>2026-04-25T07:52:53.74Z</time></trkpt><trkpt lat="45.7361363" lon="9.7451622"><ele>291.25</ele><time>2026-04-25T07:52:54.739Z</time></trkpt><trkpt lat="45.7362094" lon="9.745282"><ele>292.5</ele><time>2026-04-25T07:52:55.74Z</time></trkpt><trkpt lat="45.7362807" lon="9.7454063"><ele>293.75</ele><time>2026-04-25T07:52:56.739Z</time></trkpt><trkpt lat="45.7363522" lon="9.745535"><ele>295.0</ele><time>2026-04-25T07:52:57.74Z</time></trkpt><trkpt lat="45.736424" lon="9.7456673"><ele>295.0</ele><time>2026-04-25T07:52:58.74Z</time></trkpt><trkpt lat="45.7364996" lon="9.7458055"><ele>295.0</ele><time>2026-04-25T07:52:59.74Z</time></trkpt><trkpt lat="45.7365718" lon="9.7459377"><ele>295.0</ele><time>2026-04-25T07:53:00.739Z</time></trkpt><trkpt lat="45.7366548" lon="9.7460874"><ele>295.0</ele><time>2026-04-25T07:53:01.739Z</time></trkpt><trkpt lat="45.7367338" lon="9.7462309"><ele>294.25</ele><time>2026-04-25T07:53:02.739Z</time></trkpt><trkpt lat="45.7368112" lon="9.7463703"><ele>293.5</ele><time>2026-04-25T07:53:03.74Z</time></trkpt><trkpt lat="45.7369005" lon="9.7465329"><ele>292.75</ele><time>2026-04-25T07:53:04.739Z</time></trkpt><trkpt lat="45.7369808" lon="9.7466789"><ele>292.0</ele><time>2026-04-25T07:53:05.739Z</time></trkpt><trkpt lat="45.7370736" lon="9.7468481"><ele>292.75</ele><time>2026-04-25T07:53:06.74Z</time></trkpt><trkpt lat="45.7371586" lon="9.7470018"><ele>293.5</ele><time>2026-04-25T07:53:07.74Z</time></trkpt><trkpt lat="45.7372365" lon="9.7471434"><ele>294.25</ele><time>2026-04-25T07:53:08.739Z</time></trkpt><trkpt lat="45.7373259" lon="9.7473062"><ele>295.0</ele><time>2026-04-25T07:53:09.74Z</time></trkpt><trkpt lat="45.7374115" lon="9.7474633"><ele>295.0</ele><time>2026-04-25T07:53:10.739Z</time></trkpt><trkpt lat="45.7374933" lon="9.7476141"><ele>295.0</ele><time>2026-04-25T07:53:11.74Z</time></trkpt><trkpt lat="45.7375881" lon="9.7477866"><ele>295.0</ele><time>2026-04-25T07:53:12.74Z</time></trkpt><trkpt lat="45.7376804" lon="9.7479513"><ele>295.0</ele><time>2026-04-25T07:53:13.74Z</time></trkpt><trkpt lat="45.7377753" lon="9.7481201"><ele>296.3333333333333</ele><time>2026-04-25T07:53:14.739Z</time></trkpt><trkpt lat="45.73787" lon="9.7482883"><ele>297.6666666666667</ele><time>2026-04-25T07:53:15.739Z</time></trkpt><trkpt lat="45.737959" lon="9.7484479"><ele>299.0</ele><time>2026-04-25T07:53:16.739Z</time></trkpt><trkpt lat="45.7380585" lon="9.7486306"><ele>299.0</ele><time>2026-04-25T07:53:17.739Z</time></trkpt><trkpt lat="45.7381526" lon="9.7488053"><ele>299.0</ele><time>2026-04-25T07:53:18.739Z</time></trkpt><trkpt lat="45.7382408" lon="9.7489686"><ele>299.0</ele><time>2026-04-25T07:53:19.74Z</time></trkpt><trkpt lat="45.7383407" lon="9.7491526"><ele>299.0</ele><time>2026-04-25T07:53:20.739Z</time></trkpt><trkpt lat="45.7384262" lon="9.7493071"><ele>299.0</ele><time>2026-04-25T07:53:21.74Z</time></trkpt><trkpt lat="45.7385187" lon="9.7494743"><ele>299.0</ele><time>2026-04-25T07:53:22.739Z</time></trkpt><trkpt lat="45.7386057" lon="9.7496298"><ele>299.0</ele><time>2026-04-25T07:53:23.74Z</time></trkpt><trkpt lat="45.7386879" lon="9.7497748"><ele>299.5</ele><time>2026-04-25T07:53:24.74Z</time></trkpt><trkpt lat="45.7387814" lon="9.7499416"><ele>300.0</ele><time>2026-04-25T07:53:25.739Z</time></trkpt><trkpt lat="45.7388682" lon="9.7500985"><ele>300.5</ele><time>2026-04-25T07:53:26.74Z</time></trkpt><trkpt lat="45.7389498" lon="9.7502455"><ele>301.0</ele><time>2026-04-25T07:53:27.74Z</time></trkpt><trkpt lat="45.7390415" lon="9.7504102"><ele>301.0</ele><time>2026-04-25T07:53:28.739Z</time></trkpt><trkpt lat="45.7391278" lon="9.7505661"><ele>301.0</ele><time>2026-04-25T07:53:29.74Z</time></trkpt><trkpt lat="45.7392153" lon="9.7507242"><ele>301.0</ele><time>2026-04-25T07:53:30.739Z</time></trkpt><trkpt lat="45.7392993" lon="9.7508795"><ele>301.0</ele><time>2026-04-25T07:53:31.739Z</time></trkpt><trkpt lat="45.7393758" lon="9.7510233"><ele>302.25</ele><time>2026-04-25T07:53:32.74Z</time></trkpt><trkpt lat="45.7394612" lon="9.7511862"><ele>303.5</ele><time>2026-04-25T07:53:33.74Z</time></trkpt><trkpt lat="45.7395423" lon="9.7513395"><ele>304.75</ele><time>2026-04-25T07:53:34.74Z</time></trkpt><trkpt lat="45.7396205" lon="9.7514829"><ele>306.0</ele><time>2026-04-25T07:53:35.739Z</time></trkpt><trkpt lat="45.7397083" lon="9.7516431"><ele>306.0</ele><time>2026-04-25T07:53:36.739Z</time></trkpt><trkpt lat="45.7397811" lon="9.7517759"><ele>306.0</ele><time>2026-04-25T07:53:37.739Z</time></trkpt><trkpt lat="45.7398589" lon="9.7519166"><ele>306.0</ele><time>2026-04-25T07:53:38.74Z</time></trkpt><trkpt lat="45.7399262" lon="9.7520407"><ele>306.0</ele><time>2026-04-25T07:53:39.74Z</time></trkpt><trkpt lat="45.7399854" lon="9.7521519"><ele>305.6666666666667</ele><time>2026-04-25T07:53:40.739Z</time></trkpt><trkpt lat="45.7400464" lon="9.7522677"><ele>305.3333333333333</ele><time>2026-04-25T07:53:41.74Z</time></trkpt><trkpt lat="45.7400966" lon="9.7523647"><ele>305.0</ele><time>2026-04-25T07:53:42.74Z</time></trkpt><trkpt lat="45.7401391" lon="9.7524464"><ele>304.66666666666663</ele><time>2026-04-25T07:53:43.74Z</time></trkpt><trkpt lat="45.7401848" lon="9.7525348"><ele>304.3333333333333</ele><time>2026-04-25T07:53:44.74Z</time></trkpt><trkpt lat="45.7402261" lon="9.7526227"><ele>304.0</ele><time>2026-04-25T07:53:45.739Z</time></trkpt><trkpt lat="45.7402679" lon="9.7527084"><ele>304.66666666666663</ele><time>2026-04-25T07:53:46.739Z</time></trkpt><trkpt lat="45.7403155" lon="9.7527883"><ele>305.3333333333333</ele><time>2026-04-25T07:53:47.739Z</time></trkpt><trkpt lat="45.7403613" lon="9.7528544"><ele>306.0</ele><time>2026-04-25T07:53:48.74Z</time></trkpt><trkpt lat="45.740409" lon="9.7529287"><ele>306.6666666666667</ele><time>2026-04-25T07:53:49.739Z</time></trkpt><trkpt lat="45.7404729" lon="9.753063"><ele>307.33333333333337</ele><time>2026-04-25T07:53:51.74Z</time></trkpt><trkpt lat="45.7405064" lon="9.7531748"><ele>308.0</ele><time>2026-04-25T07:53:53.74Z</time></trkpt><trkpt lat="45.7405276" lon="9.7532763"><ele>308.0</ele><time>2026-04-25T07:53:55.74Z</time></trkpt><trkpt lat="45.7405688" lon="9.7534005"><ele>308.0</ele><time>2026-04-25T07:53:57.739Z</time></trkpt><trkpt lat="45.7406075" lon="9.7534791"><ele>308.0</ele><time>2026-04-25T07:53:58.739Z</time></trkpt><trkpt lat="45.7406465" lon="9.7535605"><ele>308.0</ele><time>2026-04-25T07:53:59.739Z</time></trkpt><trkpt lat="45.7406881" lon="9.7536586"><ele>308.0</ele><time>2026-04-25T07:54:00.739Z</time></trkpt><trkpt lat="45.7407317" lon="9.7537715"><ele>308.0</ele><time>2026-04-25T07:54:01.739Z</time></trkpt><trkpt lat="45.7407694" lon="9.7538738"><ele>308.4</ele><time>2026-04-25T07:54:02.739Z</time></trkpt><trkpt lat="45.7408108" lon="9.7539859"><ele>308.8</ele><time>2026-04-25T07:54:03.739Z</time></trkpt><trkpt lat="45.7408525" lon="9.7540998"><ele>309.2</ele><time>2026-04-25T07:54:04.739Z</time></trkpt><trkpt lat="45.7408955" lon="9.7542175"><ele>309.6</ele><time>2026-04-25T07:54:05.739Z</time></trkpt><trkpt lat="45.7409418" lon="9.7543469"><ele>310.0</ele><time>2026-04-25T07:54:06.74Z</time></trkpt><trkpt lat="45.7409825" lon="9.7544645"><ele>310.4</ele><time>2026-04-25T07:54:07.739Z</time></trkpt><trkpt lat="45.7410267" lon="9.7545923"><ele>310.8</ele><time>2026-04-25T07:54:08.739Z</time></trkpt><trkpt lat="45.7410718" lon="9.7547259"><ele>311.2</ele><time>2026-04-25T07:54:09.739Z</time></trkpt><trkpt lat="45.7411191" lon="9.7548636"><ele>311.6</ele><time>2026-04-25T07:54:10.739Z</time></trkpt><trkpt lat="45.7411682" lon="9.7550052"><ele>312.0</ele><time>2026-04-25T07:54:11.74Z</time></trkpt><trkpt lat="45.7412198" lon="9.7551519"><ele>312.25</ele><time>2026-04-25T07:54:12.739Z</time></trkpt><trkpt lat="45.7412727" lon="9.7553014"><ele>312.5</ele><time>2026-04-25T07:54:13.739Z</time></trkpt><trkpt lat="45.7413297" lon="9.7554605"><ele>312.75</ele><time>2026-04-25T07:54:14.739Z</time></trkpt><trkpt lat="45.7413794" lon="9.7556015"><ele>313.0</ele><time>2026-04-25T07:54:15.739Z</time></trkpt><trkpt lat="45.7414323" lon="9.7557525"><ele>313.0</ele><time>2026-04-25T07:54:16.74Z</time></trkpt><trkpt lat="45.7414867" lon="9.7559093"><ele>313.0</ele><time>2026-04-25T07:54:17.74Z</time></trkpt><trkpt lat="45.741532" lon="9.7560404"><ele>313.0</ele><time>2026-04-25T07:54:18.74Z</time></trkpt><trkpt lat="45.7415771" lon="9.7561719"><ele>313.0</ele><time>2026-04-25T07:54:19.739Z</time></trkpt><trkpt lat="45.7416196" lon="9.7562955"><ele>313.0</ele><time>2026-04-25T07:54:20.74Z</time></trkpt><trkpt lat="45.7416613" lon="9.7564185"><ele>313.0</ele><time>2026-04-25T07:54:21.739Z</time></trkpt><trkpt lat="45.741706" lon="9.7565488"><ele>313.0</ele><time>2026-04-25T07:54:22.739Z</time></trkpt><trkpt lat="45.7417459" lon="9.7566632"><ele>313.0</ele><time>2026-04-25T07:54:23.739Z</time></trkpt><trkpt lat="45.741791" lon="9.756788"><ele>313.0</ele><time>2026-04-25T07:54:24.739Z</time></trkpt><trkpt lat="45.7418391" lon="9.756916"><ele>313.0</ele><time>2026-04-25T07:54:25.739Z</time></trkpt><trkpt lat="45.7418892" lon="9.7570457"><ele>313.0</ele><time>2026-04-25T07:54:26.739Z</time></trkpt><trkpt lat="45.741942" lon="9.7571791"><ele>313.0</ele><time>2026-04-25T07:54:27.739Z</time></trkpt><trkpt lat="45.7419945" lon="9.7573159"><ele>313.0</ele><time>2026-04-25T07:54:28.74Z</time></trkpt><trkpt lat="45.7420431" lon="9.7574562"><ele>313.0</ele><time>2026-04-25T07:54:29.739Z</time></trkpt><trkpt lat="45.7420894" lon="9.7576071"><ele>313.0</ele><time>2026-04-25T07:54:30.74Z</time></trkpt><trkpt lat="45.7421278" lon="9.7577423"><ele>313.0</ele><time>2026-04-25T07:54:31.739Z</time></trkpt><trkpt lat="45.7421696" lon="9.7578886"><ele>313.0</ele><time>2026-04-25T07:54:32.739Z</time></trkpt><trkpt lat="45.7422182" lon="9.7580463"><ele>313.0</ele><time>2026-04-25T07:54:33.739Z</time></trkpt><trkpt lat="45.7422656" lon="9.7581821"><ele>313.0</ele><time>2026-04-25T07:54:34.74Z</time></trkpt><trkpt lat="45.7423181" lon="9.758326"><ele>313.0</ele><time>2026-04-25T07:54:35.739Z</time></trkpt><trkpt lat="45.7423694" lon="9.75846"><ele>313.0</ele><time>2026-04-25T07:54:36.739Z</time></trkpt><trkpt lat="45.7424155" lon="9.7585839"><ele>313.0</ele><time>2026-04-25T07:54:37.739Z</time></trkpt><trkpt lat="45.7424595" lon="9.7587019"><ele>313.0</ele><time>2026-04-25T07:54:38.739Z</time></trkpt><trkpt lat="45.7424933" lon="9.7587921"><ele>313.0</ele><time>2026-04-25T07:54:39.74Z</time></trkpt><trkpt lat="45.7425467" lon="9.7589373"><ele>312.8</ele><time>2026-04-25T07:54:41.739Z</time></trkpt><trkpt lat="45.7425871" lon="9.7590499"><ele>312.6</ele><time>2026-04-25T07:54:43.739Z</time></trkpt><trkpt lat="45.7426264" lon="9.7591558"><ele>312.4</ele><time>2026-04-25T07:54:45.74Z</time></trkpt><trkpt lat="45.7426677" lon="9.7592812"><ele>312.2</ele><time>2026-04-25T07:54:47.74Z</time></trkpt><trkpt lat="45.7426929" lon="9.7594436"><ele>312.0</ele><time>2026-04-25T07:54:49.739Z</time></trkpt><trkpt lat="45.7426845" lon="9.7596274"><ele>311.8333333333333</ele><time>2026-04-25T07:54:51.739Z</time></trkpt><trkpt lat="45.7426898" lon="9.7597281"><ele>311.6666666666667</ele><time>2026-04-25T07:54:52.739Z</time></trkpt><trkpt lat="45.742717" lon="9.7598178"><ele>311.5</ele><time>2026-04-25T07:54:53.739Z</time></trkpt><trkpt lat="45.7427686" lon="9.7598864"><ele>311.33333333333337</ele><time>2026-04-25T07:54:54.739Z</time></trkpt><trkpt lat="45.7428762" lon="9.7599135"><ele>311.1666666666667</ele><time>2026-04-25T07:54:56.739Z</time></trkpt><trkpt lat="45.7429922" lon="9.7598575"><ele>311.0</ele><time>2026-04-25T07:54:58.739Z</time></trkpt><trkpt lat="45.7430583" lon="9.7598312"><ele>311.6666666666667</ele><time>2026-04-25T07:54:59.74Z</time></trkpt><trkpt lat="45.7431259" lon="9.7598175"><ele>312.33333333333337</ele><time>2026-04-25T07:55:00.739Z</time></trkpt><trkpt lat="45.7431928" lon="9.7598105"><ele>313.0</ele><time>2026-04-25T07:55:01.739Z</time></trkpt><trkpt lat="45.7432632" lon="9.7598073"><ele>313.6666666666667</ele><time>2026-04-25T07:55:02.74Z</time></trkpt><trkpt lat="45.7433869" lon="9.7597861"><ele>314.3333333333333</ele><time>2026-04-25T07:55:04.739Z</time></trkpt><trkpt lat="45.7434516" lon="9.7597704"><ele>315.0</ele><time>2026-04-25T07:55:05.74Z</time></trkpt><trkpt lat="45.7435433" lon="9.7597457"><ele>315.6666666666667</ele><time>2026-04-25T07:55:07.739Z</time></trkpt><trkpt lat="45.7436234" lon="9.7597227"><ele>316.3333333333333</ele><time>2026-04-25T07:55:09.74Z</time></trkpt><trkpt lat="45.743687" lon="9.759703"><ele>317.0</ele><time>2026-04-25T07:55:11.739Z</time></trkpt><trkpt lat="45.7437708" lon="9.7596951"><ele>317.66666666666663</ele><time>2026-04-25T07:55:14.739Z</time></trkpt><trkpt lat="45.7438359" lon="9.7597547"><ele>318.3333333333333</ele><time>2026-04-25T07:55:16.74Z</time></trkpt><trkpt lat="45.7439" lon="9.7598901"><ele>319.0</ele><time>2026-04-25T07:55:18.739Z</time></trkpt><trkpt lat="45.743959" lon="9.7600546"><ele>319.0</ele><time>2026-04-25T07:55:20.74Z</time></trkpt><trkpt lat="45.7439918" lon="9.7601478"><ele>319.0</ele><time>2026-04-25T07:55:21.739Z</time></trkpt><trkpt lat="45.7440214" lon="9.7602342"><ele>319.0</ele><time>2026-04-25T07:55:22.74Z</time></trkpt><trkpt lat="45.7440534" lon="9.7603312"><ele>319.0</ele><time>2026-04-25T07:55:23.74Z</time></trkpt><trkpt lat="45.7440848" lon="9.7604271"><ele>319.0</ele><time>2026-04-25T07:55:24.74Z</time></trkpt><trkpt lat="45.7441143" lon="9.7605196"><ele>319.0</ele><time>2026-04-25T07:55:25.739Z</time></trkpt><trkpt lat="45.7441421" lon="9.7606137"><ele>319.0</ele><time>2026-04-25T07:55:26.739Z</time></trkpt><trkpt lat="45.7441877" lon="9.7607791"><ele>319.0</ele><time>2026-04-25T07:55:28.74Z</time></trkpt><trkpt lat="45.7442439" lon="9.7609312"><ele>319.0</ele><time>2026-04-25T07:55:30.739Z</time></trkpt><trkpt lat="45.7443104" lon="9.7610728"><ele>319.0</ele><time>2026-04-25T07:55:32.74Z</time></trkpt><trkpt lat="45.7443523" lon="9.761148"><ele>319.0</ele><time>2026-04-25T07:55:33.739Z</time></trkpt><trkpt lat="45.7444046" lon="9.7612312"><ele>319.0</ele><time>2026-04-25T07:55:34.739Z</time></trkpt><trkpt lat="45.7444565" lon="9.7613065"><ele>320.0</ele><time>2026-04-25T07:55:35.739Z</time></trkpt><trkpt lat="45.7445169" lon="9.7613868"><ele>321.0</ele><time>2026-04-25T07:55:36.739Z</time></trkpt><trkpt lat="45.7445852" lon="9.7614675"><ele>322.0</ele><time>2026-04-25T07:55:37.74Z</time></trkpt><trkpt lat="45.7446446" lon="9.7615295"><ele>323.0</ele><time>2026-04-25T07:55:38.74Z</time></trkpt><trkpt lat="45.7447077" lon="9.7615882"><ele>324.0</ele><time>2026-04-25T07:55:39.74Z</time></trkpt><trkpt lat="45.7447681" lon="9.7616388"><ele>325.0</ele><time>2026-04-25T07:55:40.74Z</time></trkpt><trkpt lat="45.7448239" lon="9.7616818"><ele>325.0</ele><time>2026-04-25T07:55:41.74Z</time></trkpt><trkpt lat="45.7449225" lon="9.7617532"><ele>325.0</ele><time>2026-04-25T07:55:43.74Z</time></trkpt><trkpt lat="45.7450153" lon="9.7618186"><ele>325.0</ele><time>2026-04-25T07:55:45.739Z</time></trkpt><trkpt lat="45.7451139" lon="9.7618888"><ele>325.0</ele><time>2026-04-25T07:55:47.739Z</time></trkpt><trkpt lat="45.7452047" lon="9.7619515"><ele>325.0</ele><time>2026-04-25T07:55:49.74Z</time></trkpt><trkpt lat="45.7452986" lon="9.762017"><ele>325.4</ele><time>2026-04-25T07:55:51.74Z</time></trkpt><trkpt lat="45.7453972" lon="9.7620849"><ele>325.8</ele><time>2026-04-25T07:55:53.74Z</time></trkpt><trkpt lat="45.7454907" lon="9.7621551"><ele>326.20000000000005</ele><time>2026-04-25T07:55:55.739Z</time></trkpt><trkpt lat="45.7455841" lon="9.7622257"><ele>326.6</ele><time>2026-04-25T07:55:57.74Z</time></trkpt><trkpt lat="45.7456493" lon="9.7622725"><ele>327.0</ele><time>2026-04-25T07:55:59.74Z</time></trkpt><trkpt lat="45.7457222" lon="9.762325"><ele>327.0</ele><time>2026-04-25T07:56:02.74Z</time></trkpt><trkpt lat="45.7457862" lon="9.7623964"><ele>327.0</ele><time>2026-04-25T07:56:04.739Z</time></trkpt><trkpt lat="45.7458701" lon="9.7624533"><ele>327.0</ele><time>2026-04-25T07:56:06.74Z</time></trkpt><trkpt lat="45.7459171" lon="9.7623821"><ele>327.0</ele><time>2026-04-25T07:56:08.739Z</time></trkpt><trkpt lat="45.7458572" lon="9.7623259"><ele>327.0</ele><time>2026-04-25T07:56:10.739Z</time></trkpt><trkpt lat="45.7457934" lon="9.7623075"><ele>327.0</ele><time>2026-04-25T07:56:11.739Z</time></trkpt><trkpt lat="45.7457233" lon="9.7622745"><ele>327.0</ele><time>2026-04-25T07:56:12.739Z</time></trkpt><trkpt lat="45.7456538" lon="9.7622342"><ele>327.0</ele><time>2026-04-25T07:56:13.74Z</time></trkpt><trkpt lat="45.7455858" lon="9.7621895"><ele>327.0</ele><time>2026-04-25T07:56:14.739Z</time></trkpt><trkpt lat="45.745482" lon="9.7621176"><ele>327.0</ele><time>2026-04-25T07:56:16.74Z</time></trkpt><trkpt lat="45.7454133" lon="9.7620601"><ele>327.0</ele><time>2026-04-25T07:56:18.739Z</time></trkpt><trkpt lat="45.7453608" lon="9.7619629"><ele>327.0</ele><time>2026-04-25T07:56:22.74Z</time></trkpt><trkpt lat="45.7453095" lon="9.7619011"><ele>327.0</ele><time>2026-04-25T07:56:26.74Z</time></trkpt></trkseg><trkseg><trkpt lat="45.7452661" lon="9.7619048"><ele>327.0</ele><time>2026-04-25T08:14:30.759Z</time></trkpt><trkpt lat="45.7453353" lon="9.7620168"><ele>327.0</ele><time>2026-04-25T08:14:33.76Z</time></trkpt><trkpt lat="45.7453916" lon="9.7620601"><ele>327.0</ele><time>2026-04-25T08:14:34.759Z</time></trkpt><trkpt lat="45.7454584" lon="9.7621082"><ele>327.0</ele><time>2026-04-25T08:14:35.759Z</time></trkpt><trkpt lat="45.7455288" lon="9.7621569"><ele>327.0</ele><time>2026-04-25T08:14:36.759Z</time></trkpt><trkpt lat="45.7455968" lon="9.7622042"><ele>327.0</ele><time>2026-04-25T08:14:37.76Z</time></trkpt><trkpt lat="45.7456601" lon="9.7622499"><ele>327.0</ele><time>2026-04-25T08:14:38.759Z</time></trkpt><trkpt lat="45.7457175" lon="9.7622947"><ele>327.0</ele><time>2026-04-25T08:14:39.759Z</time></trkpt><trkpt lat="45.7458091" lon="9.7623887"><ele>327.0</ele><time>2026-04-25T08:14:41.76Z</time></trkpt><trkpt lat="45.7458883" lon="9.7624373"><ele>327.0</ele><time>2026-04-25T08:14:43.76Z</time></trkpt><trkpt lat="45.7459491" lon="9.7623348"><ele>327.0</ele><time>2026-04-25T08:14:45.76Z</time></trkpt><trkpt lat="45.7459856" lon="9.762261"><ele>327.0</ele><time>2026-04-25T08:14:46.759Z</time></trkpt><trkpt lat="45.7460493" lon="9.7622112"><ele>327.0</ele><time>2026-04-25T08:14:47.759Z</time></trkpt><trkpt lat="45.7461153" lon="9.7621587"><ele>327.0</ele><time>2026-04-25T08:14:48.76Z</time></trkpt><trkpt lat="45.7461849" lon="9.7621114"><ele>327.0</ele><time>2026-04-25T08:14:49.759Z</time></trkpt><trkpt lat="45.7462491" lon="9.7620696"><ele>327.0</ele><time>2026-04-25T08:14:50.76Z</time></trkpt><trkpt lat="45.7463513" lon="9.7619889"><ele>327.0</ele><time>2026-04-25T08:14:52.76Z</time></trkpt><trkpt lat="45.7464258" lon="9.7618663"><ele>328.20000000000005</ele><time>2026-04-25T08:14:54.759Z</time></trkpt><trkpt lat="45.7464723" lon="9.7617191"><ele>329.4</ele><time>2026-04-25T08:14:56.759Z</time></trkpt><trkpt lat="45.7465446" lon="9.7616047"><ele>330.6</ele><time>2026-04-25T08:14:58.76Z</time></trkpt><trkpt lat="45.7466571" lon="9.7615808"><ele>331.79999999999995</ele><time>2026-04-25T08:15:00.76Z</time></trkpt><trkpt lat="45.7467231" lon="9.7616054"><ele>333.0</ele><time>2026-04-25T08:15:01.759Z</time></trkpt><trkpt lat="45.7468067" lon="9.7616315"><ele>332.59999999999997</ele><time>2026-04-25T08:15:02.759Z</time></trkpt><trkpt lat="45.7469048" lon="9.7616627"><ele>332.2</ele><time>2026-04-25T08:15:03.76Z</time></trkpt><trkpt lat="45.7470028" lon="9.7616996"><ele>331.8</ele><time>2026-04-25T08:15:04.759Z</time></trkpt><trkpt lat="45.747089" lon="9.7617468"><ele>331.4</ele><time>2026-04-25T08:15:05.76Z</time></trkpt><trkpt lat="45.747163" lon="9.7618089"><ele>331.0</ele><time>2026-04-25T08:15:06.759Z</time></trkpt><trkpt lat="45.7472315" lon="9.7618676"><ele>331.0</ele><time>2026-04-25T08:15:07.759Z</time></trkpt><trkpt lat="45.7473013" lon="9.7619255"><ele>331.0</ele><time>2026-04-25T08:15:08.76Z</time></trkpt><trkpt lat="45.7473712" lon="9.7619776"><ele>331.0</ele><time>2026-04-25T08:15:09.759Z</time></trkpt><trkpt lat="45.7474491" lon="9.7620134"><ele>331.0</ele><time>2026-04-25T08:15:10.759Z</time></trkpt><trkpt lat="45.7475336" lon="9.7620323"><ele>331.0</ele><time>2026-04-25T08:15:11.76Z</time></trkpt><trkpt lat="45.7476234" lon="9.7620263"><ele>331.0</ele><time>2026-04-25T08:15:12.76Z</time></trkpt><trkpt lat="45.7477065" lon="9.7620144"><ele>331.0</ele><time>2026-04-25T08:15:13.76Z</time></trkpt><trkpt lat="45.7477868" lon="9.7619932"><ele>331.0</ele><time>2026-04-25T08:15:14.759Z</time></trkpt><trkpt lat="45.7478668" lon="9.7619688"><ele>331.0</ele><time>2026-04-25T08:15:15.76Z</time></trkpt><trkpt lat="45.7479469" lon="9.7619392"><ele>331.0</ele><time>2026-04-25T08:15:16.76Z</time></trkpt><trkpt lat="45.7480255" lon="9.7619037"><ele>331.0</ele><time>2026-04-25T08:15:17.759Z</time></trkpt><trkpt lat="45.7481001" lon="9.7618576"><ele>331.0</ele><time>2026-04-25T08:15:18.76Z</time></trkpt><trkpt lat="45.7481715" lon="9.7618001"><ele>332.8</ele><time>2026-04-25T08:15:19.76Z</time></trkpt><trkpt lat="45.7482354" lon="9.7617457"><ele>334.6</ele><time>2026-04-25T08:15:20.759Z</time></trkpt><trkpt lat="45.7482945" lon="9.7616954"><ele>336.4</ele><time>2026-04-25T08:15:21.76Z</time></trkpt><trkpt lat="45.7483961" lon="9.7616003"><ele>338.2</ele><time>2026-04-25T08:15:23.76Z</time></trkpt><trkpt lat="45.7484265" lon="9.7614552"><ele>340.0</ele><time>2026-04-25T08:15:25.76Z</time></trkpt><trkpt lat="45.7483565" lon="9.7613286"><ele>340.0</ele><time>2026-04-25T08:15:27.759Z</time></trkpt><trkpt lat="45.7482935" lon="9.761318"><ele>340.0</ele><time>2026-04-25T08:15:28.759Z</time></trkpt><trkpt lat="45.7482232" lon="9.761362"><ele>340.0</ele><time>2026-04-25T08:15:29.76Z</time></trkpt><trkpt lat="45.7481539" lon="9.7614311"><ele>340.0</ele><time>2026-04-25T08:15:30.76Z</time></trkpt><trkpt lat="45.7480869" lon="9.7614933"><ele>340.0</ele><time>2026-04-25T08:15:31.76Z</time></trkpt><trkpt lat="45.7480095" lon="9.7615505"><ele>340.0</ele><time>2026-04-25T08:15:32.759Z</time></trkpt><trkpt lat="45.7479281" lon="9.761591"><ele>340.0</ele><time>2026-04-25T08:15:33.759Z</time></trkpt><trkpt lat="45.7478458" lon="9.7615862"><ele>340.0</ele><time>2026-04-25T08:15:34.759Z</time></trkpt><trkpt lat="45.7477733" lon="9.7615389"><ele>340.0</ele><time>2026-04-25T08:15:35.76Z</time></trkpt><trkpt lat="45.7476903" lon="9.7614657"><ele>340.0</ele><time>2026-04-25T08:15:36.759Z</time></trkpt><trkpt lat="45.7475831" lon="9.7613445"><ele>340.0</ele><time>2026-04-25T08:15:37.76Z</time></trkpt><trkpt lat="45.7474532" lon="9.7612033"><ele>340.3333333333333</ele><time>2026-04-25T08:15:38.76Z</time></trkpt><trkpt lat="45.7472978" lon="9.7610682"><ele>340.6666666666667</ele><time>2026-04-25T08:15:39.76Z</time></trkpt><trkpt lat="45.7471559" lon="9.7609545"><ele>341.0</ele><time>2026-04-25T08:15:40.759Z</time></trkpt><trkpt lat="45.7470151" lon="9.7608297"><ele>344.33333333333337</ele><time>2026-04-25T08:15:41.759Z</time></trkpt><trkpt lat="45.7468603" lon="9.7606566"><ele>347.6666666666667</ele><time>2026-04-25T08:15:42.759Z</time></trkpt><trkpt lat="45.7467127" lon="9.7605253"><ele>351.0</ele><time>2026-04-25T08:15:43.76Z</time></trkpt><trkpt lat="45.7465769" lon="9.7604157"><ele>351.0</ele><time>2026-04-25T08:15:44.759Z</time></trkpt><trkpt lat="45.7464518" lon="9.7603176"><ele>351.0</ele><time>2026-04-25T08:15:45.759Z</time></trkpt><trkpt lat="45.7463253" lon="9.7602177"><ele>351.0</ele><time>2026-04-25T08:15:46.759Z</time></trkpt><trkpt lat="45.7462063" lon="9.7601044"><ele>351.0</ele><time>2026-04-25T08:15:47.759Z</time></trkpt><trkpt lat="45.7461133" lon="9.7599662"><ele>351.0</ele><time>2026-04-25T08:15:48.759Z</time></trkpt><trkpt lat="45.7460439" lon="9.7598159"><ele>351.0</ele><time>2026-04-25T08:15:49.759Z</time></trkpt><trkpt lat="45.7460077" lon="9.759667"><ele>351.0</ele><time>2026-04-25T08:15:50.76Z</time></trkpt><trkpt lat="45.7460043" lon="9.7595042"><ele>351.0</ele><time>2026-04-25T08:15:51.76Z</time></trkpt><trkpt lat="45.7460105" lon="9.7593198"><ele>352.20000000000005</ele><time>2026-04-25T08:15:52.759Z</time></trkpt><trkpt lat="45.7460078" lon="9.7591506"><ele>353.40000000000003</ele><time>2026-04-25T08:15:53.759Z</time></trkpt><trkpt lat="45.7460204" lon="9.7590006"><ele>354.6</ele><time>2026-04-25T08:15:54.76Z</time></trkpt><trkpt lat="45.7460711" lon="9.7588756"><ele>355.8</ele><time>2026-04-25T08:15:55.76Z</time></trkpt><trkpt lat="45.7461495" lon="9.7588125"><ele>357.0</ele><time>2026-04-25T08:15:56.76Z</time></trkpt><trkpt lat="45.7462369" lon="9.7587761"><ele>364.25</ele><time>2026-04-25T08:15:57.76Z</time></trkpt><trkpt lat="45.746331" lon="9.7587357"><ele>371.5</ele><time>2026-04-25T08:15:58.759Z</time></trkpt><trkpt lat="45.7464427" lon="9.7586899"><ele>378.75</ele><time>2026-04-25T08:15:59.759Z</time></trkpt><trkpt lat="45.7465473" lon="9.758631"><ele>386.0</ele><time>2026-04-25T08:16:00.759Z</time></trkpt><trkpt lat="45.7466638" lon="9.7585653"><ele>383.0</ele><time>2026-04-25T08:16:01.76Z</time></trkpt><trkpt lat="45.7468067" lon="9.7585064"><ele>380.0</ele><time>2026-04-25T08:16:02.76Z</time></trkpt><trkpt lat="45.746958" lon="9.7584636"><ele>377.0</ele><time>2026-04-25T08:16:03.76Z</time></trkpt><trkpt lat="45.7471257" lon="9.7584401"><ele>377.0</ele><time>2026-04-25T08:16:04.76Z</time></trkpt><trkpt lat="45.747288" lon="9.7584213"><ele>377.0</ele><time>2026-04-25T08:16:05.759Z</time></trkpt><trkpt lat="45.7474499" lon="9.7584324"><ele>377.0</ele><time>2026-04-25T08:16:06.76Z</time></trkpt><trkpt lat="45.7476175" lon="9.7584827"><ele>379.5</ele><time>2026-04-25T08:16:07.76Z</time></trkpt><trkpt lat="45.7477662" lon="9.7585472"><ele>382.0</ele><time>2026-04-25T08:16:08.76Z</time></trkpt><trkpt lat="45.7478976" lon="9.7586274"><ele>384.5</ele><time>2026-04-25T08:16:09.759Z</time></trkpt><trkpt lat="45.748009" lon="9.7587312"><ele>387.0</ele><time>2026-04-25T08:16:10.76Z</time></trkpt><trkpt lat="45.7481022" lon="9.7588638"><ele>387.0</ele><time>2026-04-25T08:16:11.759Z</time></trkpt><trkpt lat="45.7482007" lon="9.758991"><ele>387.0</ele><time>2026-04-25T08:16:12.759Z</time></trkpt><trkpt lat="45.7483265" lon="9.7590639"><ele>387.0</ele><time>2026-04-25T08:16:13.759Z</time></trkpt><trkpt lat="45.748462" lon="9.7590973"><ele>387.0</ele><time>2026-04-25T08:16:14.759Z</time></trkpt><trkpt lat="45.7486054" lon="9.7591103"><ele>388.5</ele><time>2026-04-25T08:16:15.759Z</time></trkpt><trkpt lat="45.7487497" lon="9.7591201"><ele>390.0</ele><time>2026-04-25T08:16:16.759Z</time></trkpt><trkpt lat="45.7488918" lon="9.759126"><ele>391.5</ele><time>2026-04-25T08:16:17.76Z</time></trkpt><trkpt lat="45.7490365" lon="9.7591362"><ele>393.0</ele><time>2026-04-25T08:16:18.76Z</time></trkpt><trkpt lat="45.7491745" lon="9.7591866"><ele>393.0</ele><time>2026-04-25T08:16:19.759Z</time></trkpt><trkpt lat="45.7492965" lon="9.7592868"><ele>393.0</ele><time>2026-04-25T08:16:20.76Z</time></trkpt><trkpt lat="45.7494121" lon="9.7594079"><ele>393.0</ele><time>2026-04-25T08:16:21.759Z</time></trkpt><trkpt lat="45.7495339" lon="9.7595325"><ele>393.0</ele><time>2026-04-25T08:16:22.759Z</time></trkpt><trkpt lat="45.7496687" lon="9.7596466"><ele>394.0</ele><time>2026-04-25T08:16:23.759Z</time></trkpt><trkpt lat="45.7498112" lon="9.7597474"><ele>395.0</ele><time>2026-04-25T08:16:24.759Z</time></trkpt><trkpt lat="45.7499607" lon="9.7598463"><ele>396.0</ele><time>2026-04-25T08:16:25.76Z</time></trkpt><trkpt lat="45.7501105" lon="9.7599485"><ele>397.66666666666663</ele><time>2026-04-25T08:16:26.76Z</time></trkpt><trkpt lat="45.7502659" lon="9.7600452"><ele>399.3333333333333</ele><time>2026-04-25T08:16:27.759Z</time></trkpt><trkpt lat="45.7504279" lon="9.7601337"><ele>401.0</ele><time>2026-04-25T08:16:28.759Z</time></trkpt><trkpt lat="45.750583" lon="9.760227"><ele>392.3333333333333</ele><time>2026-04-25T08:16:29.759Z</time></trkpt><trkpt lat="45.7507305" lon="9.7603252"><ele>383.66666666666663</ele><time>2026-04-25T08:16:30.759Z</time></trkpt><trkpt lat="45.7508754" lon="9.7604227"><ele>375.0</ele><time>2026-04-25T08:16:31.76Z</time></trkpt><trkpt lat="45.7510202" lon="9.7605074"><ele>379.0</ele><time>2026-04-25T08:16:32.759Z</time></trkpt><trkpt lat="45.7511761" lon="9.7605524"><ele>383.0</ele><time>2026-04-25T08:16:33.759Z</time></trkpt><trkpt lat="45.7513388" lon="9.7605412"><ele>387.0</ele><time>2026-04-25T08:16:34.759Z</time></trkpt><trkpt lat="45.7515035" lon="9.7604946"><ele>387.0</ele><time>2026-04-25T08:16:35.759Z</time></trkpt><trkpt lat="45.7516739" lon="9.760439"><ele>387.0</ele><time>2026-04-25T08:16:36.76Z</time></trkpt><trkpt lat="45.7518317" lon="9.7604009"><ele>387.0</ele><time>2026-04-25T08:16:37.759Z</time></trkpt><trkpt lat="45.7519743" lon="9.7603659"><ele>389.75</ele><time>2026-04-25T08:16:38.76Z</time></trkpt><trkpt lat="45.7521091" lon="9.7603373"><ele>392.5</ele><time>2026-04-25T08:16:39.76Z</time></trkpt><trkpt lat="45.7522395" lon="9.7603242"><ele>395.25</ele><time>2026-04-25T08:16:40.76Z</time></trkpt><trkpt lat="45.7523687" lon="9.7603101"><ele>398.0</ele><time>2026-04-25T08:16:41.76Z</time></trkpt><trkpt lat="45.7524853" lon="9.7602679"><ele>398.0</ele><time>2026-04-25T08:16:42.76Z</time></trkpt><trkpt lat="45.7525888" lon="9.7602066"><ele>398.0</ele><time>2026-04-25T08:16:43.76Z</time></trkpt><trkpt lat="45.7526836" lon="9.76013"><ele>398.0</ele><time>2026-04-25T08:16:44.76Z</time></trkpt><trkpt lat="45.752796" lon="9.7600739"><ele>398.0</ele><time>2026-04-25T08:16:45.76Z</time></trkpt><trkpt lat="45.7529306" lon="9.7600439"><ele>405.0</ele><time>2026-04-25T08:16:46.759Z</time></trkpt><trkpt lat="45.7530695" lon="9.7599575"><ele>412.0</ele><time>2026-04-25T08:16:47.76Z</time></trkpt><trkpt lat="45.7532079" lon="9.7598159"><ele>419.0</ele><time>2026-04-25T08:16:48.76Z</time></trkpt><trkpt lat="45.7533443" lon="9.7596751"><ele>419.0</ele><time>2026-04-25T08:16:49.759Z</time></trkpt><trkpt lat="45.7534784" lon="9.7595795"><ele>419.0</ele><time>2026-04-25T08:16:50.759Z</time></trkpt><trkpt lat="45.753601" lon="9.7595049"><ele>419.0</ele><time>2026-04-25T08:16:51.76Z</time></trkpt><trkpt lat="45.753718" lon="9.7594404"><ele>419.0</ele><time>2026-04-25T08:16:52.759Z</time></trkpt><trkpt lat="45.7538318" lon="9.7594089"><ele>422.0</ele><time>2026-04-25T08:16:53.76Z</time></trkpt><trkpt lat="45.7539688" lon="9.7593905"><ele>425.0</ele><time>2026-04-25T08:16:54.76Z</time></trkpt><trkpt lat="45.7540961" lon="9.7593635"><ele>428.0</ele><time>2026-04-25T08:16:55.759Z</time></trkpt><trkpt lat="45.7541942" lon="9.759305"><ele>431.0</ele><time>2026-04-25T08:16:56.76Z</time></trkpt><trkpt lat="45.7542635" lon="9.7592317"><ele>430.99999999999994</ele><time>2026-04-25T08:16:57.759Z</time></trkpt><trkpt lat="45.7543151" lon="9.7591658"><ele>431.0</ele><time>2026-04-25T08:16:58.759Z</time></trkpt><trkpt lat="45.7543886" lon="9.7590767"><ele>431.0</ele><time>2026-04-25T08:17:00.76Z</time></trkpt><trkpt lat="45.7544605" lon="9.7589525"><ele>431.0</ele><time>2026-04-25T08:17:02.759Z</time></trkpt><trkpt lat="45.7545125" lon="9.758873"><ele>430.99999999999994</ele><time>2026-04-25T08:17:03.76Z</time></trkpt><trkpt lat="45.7545692" lon="9.7587799"><ele>431.0</ele><time>2026-04-25T08:17:04.76Z</time></trkpt><trkpt lat="45.7546282" lon="9.7586685"><ele>431.0</ele><time>2026-04-25T08:17:05.759Z</time></trkpt><trkpt lat="45.7546873" lon="9.7585438"><ele>431.0</ele><time>2026-04-25T08:17:06.759Z</time></trkpt><trkpt lat="45.7547404" lon="9.7584127"><ele>431.0</ele><time>2026-04-25T08:17:07.759Z</time></trkpt><trkpt lat="45.7548002" lon="9.7582669"><ele>431.0</ele><time>2026-04-25T08:17:08.759Z</time></trkpt><trkpt lat="45.7548723" lon="9.7581023"><ele>431.0</ele><time>2026-04-25T08:17:09.759Z</time></trkpt><trkpt lat="45.7549678" lon="9.7579095"><ele>431.0</ele><time>2026-04-25T08:17:10.759Z</time></trkpt><trkpt lat="45.755075" lon="9.7577104"><ele>431.0</ele><time>2026-04-25T08:17:11.76Z</time></trkpt><trkpt lat="45.7551662" lon="9.7575266"><ele>432.75</ele><time>2026-04-25T08:17:12.759Z</time></trkpt><trkpt lat="45.7552547" lon="9.757379"><ele>434.5</ele><time>2026-04-25T08:17:13.76Z</time></trkpt><trkpt lat="45.755359" lon="9.7573077"><ele>436.25</ele><time>2026-04-25T08:17:14.759Z</time></trkpt><trkpt lat="45.7554851" lon="9.7572746"><ele>438.0</ele><time>2026-04-25T08:17:15.759Z</time></trkpt><trkpt lat="45.7556222" lon="9.7572472"><ele>438.0</ele><time>2026-04-25T08:17:16.76Z</time></trkpt><trkpt lat="45.755745" lon="9.757224"><ele>437.99999999999994</ele><time>2026-04-25T08:17:17.76Z</time></trkpt><trkpt lat="45.7558528" lon="9.7571953"><ele>437.99999999999994</ele><time>2026-04-25T08:17:18.759Z</time></trkpt><trkpt lat="45.7559284" lon="9.7571688"><ele>438.0</ele><time>2026-04-25T08:17:19.76Z</time></trkpt><trkpt lat="45.7560062" lon="9.7571339"><ele>438.0</ele><time>2026-04-25T08:17:20.759Z</time></trkpt><trkpt lat="45.7560905" lon="9.7570802"><ele>439.59999999999997</ele><time>2026-04-25T08:17:21.759Z</time></trkpt><trkpt lat="45.7561765" lon="9.7570152"><ele>441.19999999999993</ele><time>2026-04-25T08:17:22.76Z</time></trkpt><trkpt lat="45.7562656" lon="9.7569404"><ele>442.8</ele><time>2026-04-25T08:17:23.759Z</time></trkpt><trkpt lat="45.7563475" lon="9.7568644"><ele>444.4</ele><time>2026-04-25T08:17:24.759Z</time></trkpt><trkpt lat="45.7564133" lon="9.7567824"><ele>446.0</ele><time>2026-04-25T08:17:25.76Z</time></trkpt><trkpt lat="45.7564627" lon="9.7566919"><ele>446.0</ele><time>2026-04-25T08:17:26.759Z</time></trkpt><trkpt lat="45.7565122" lon="9.7565664"><ele>446.0</ele><time>2026-04-25T08:17:27.759Z</time></trkpt><trkpt lat="45.7565729" lon="9.7563813"><ele>446.0</ele><time>2026-04-25T08:17:28.759Z</time></trkpt><trkpt lat="45.7566541" lon="9.7561864"><ele>446.0</ele><time>2026-04-25T08:17:29.76Z</time></trkpt><trkpt lat="45.7567815" lon="9.7559622"><ele>444.0</ele><time>2026-04-25T08:17:30.759Z</time></trkpt><trkpt lat="45.7569064" lon="9.7557564"><ele>442.0</ele><time>2026-04-25T08:17:31.759Z</time></trkpt><trkpt lat="45.7570469" lon="9.7555605"><ele>440.0</ele><time>2026-04-25T08:17:32.76Z</time></trkpt><trkpt lat="45.757185" lon="9.7554048"><ele>440.0</ele><time>2026-04-25T08:17:33.759Z</time></trkpt><trkpt lat="45.7573164" lon="9.7552552"><ele>440.0</ele><time>2026-04-25T08:17:34.76Z</time></trkpt><trkpt lat="45.7574441" lon="9.7551045"><ele>440.0</ele><time>2026-04-25T08:17:35.759Z</time></trkpt><trkpt lat="45.7575729" lon="9.7549696"><ele>439.2</ele><time>2026-04-25T08:17:36.759Z</time></trkpt><trkpt lat="45.7576823" lon="9.7548676"><ele>438.4</ele><time>2026-04-25T08:17:37.76Z</time></trkpt><trkpt lat="45.7577602" lon="9.754781"><ele>437.6</ele><time>2026-04-25T08:17:38.759Z</time></trkpt><trkpt lat="45.7578101" lon="9.7547142"><ele>436.8</ele><time>2026-04-25T08:17:39.759Z</time></trkpt><trkpt lat="45.7578889" lon="9.7546051"><ele>436.0</ele><time>2026-04-25T08:17:41.76Z</time></trkpt><trkpt lat="45.7579435" lon="9.7544807"><ele>436.0</ele><time>2026-04-25T08:17:43.759Z</time></trkpt><trkpt lat="45.7578877" lon="9.7543703"><ele>436.0</ele><time>2026-04-25T08:17:45.759Z</time></trkpt><trkpt lat="45.7577657" lon="9.7544679"><ele>436.0</ele><time>2026-04-25T08:17:47.759Z</time></trkpt><trkpt lat="45.7577047" lon="9.7545361"><ele>436.0</ele><time>2026-04-25T08:17:48.759Z</time></trkpt><trkpt lat="45.7576409" lon="9.7545982"><ele>436.0</ele><time>2026-04-25T08:17:49.759Z</time></trkpt><trkpt lat="45.7575847" lon="9.75465"><ele>440.6666666666667</ele><time>2026-04-25T08:17:50.76Z</time></trkpt><trkpt lat="45.7574976" lon="9.7547323"><ele>445.33333333333337</ele><time>2026-04-25T08:17:52.76Z</time></trkpt><trkpt lat="45.7574295" lon="9.754803"><ele>450.0</ele><time>2026-04-25T08:17:54.76Z</time></trkpt><trkpt lat="45.7573521" lon="9.7548522"><ele>454.66666666666663</ele><time>2026-04-25T08:17:56.759Z</time></trkpt><trkpt lat="45.7573057" lon="9.7547792"><ele>459.3333333333333</ele><time>2026-04-25T08:17:58.76Z</time></trkpt><trkpt lat="45.7573786" lon="9.7546878"><ele>464.0</ele><time>2026-04-25T08:18:00.76Z</time></trkpt><trkpt lat="45.7574479" lon="9.7546588"><ele>463.99999999999994</ele><time>2026-04-25T08:18:01.76Z</time></trkpt><trkpt lat="45.757512" lon="9.7546162"><ele>464.0</ele><time>2026-04-25T08:18:02.759Z</time></trkpt><trkpt lat="45.7575721" lon="9.7545666"><ele>464.0</ele><time>2026-04-25T08:18:03.759Z</time></trkpt><trkpt lat="45.7576698" lon="9.7544541"><ele>464.0</ele><time>2026-04-25T08:18:05.76Z</time></trkpt><trkpt lat="45.7577157" lon="9.7543891"><ele>463.99999999999994</ele><time>2026-04-25T08:18:06.759Z</time></trkpt><trkpt lat="45.7577627" lon="9.7543151"><ele>464.0</ele><time>2026-04-25T08:18:07.759Z</time></trkpt><trkpt lat="45.7578129" lon="9.7542289"><ele>462.99999999999994</ele><time>2026-04-25T08:18:08.759Z</time></trkpt><trkpt lat="45.7578668" lon="9.7541271"><ele>462.0</ele><time>2026-04-25T08:18:09.759Z</time></trkpt><trkpt lat="45.7579216" lon="9.7540195"><ele>461.0</ele><time>2026-04-25T08:18:10.759Z</time></trkpt><trkpt lat="45.7579744" lon="9.7539131"><ele>460.0</ele><time>2026-04-25T08:18:11.76Z</time></trkpt><trkpt lat="45.7580292" lon="9.753811"><ele>458.99999999999994</ele><time>2026-04-25T08:18:12.759Z</time></trkpt><trkpt lat="45.7580783" lon="9.7537203"><ele>458.0</ele><time>2026-04-25T08:18:13.76Z</time></trkpt><trkpt lat="45.7581298" lon="9.7536275"><ele>461.8333333333333</ele><time>2026-04-25T08:18:14.759Z</time></trkpt><trkpt lat="45.7581826" lon="9.7535326"><ele>465.66666666666663</ele><time>2026-04-25T08:18:15.76Z</time></trkpt><trkpt lat="45.7582361" lon="9.7534382"><ele>469.5</ele><time>2026-04-25T08:18:16.759Z</time></trkpt><trkpt lat="45.7582946" lon="9.7533468"><ele>473.33333333333337</ele><time>2026-04-25T08:18:17.76Z</time></trkpt><trkpt lat="45.7583519" lon="9.7532546"><ele>477.1666666666667</ele><time>2026-04-25T08:18:18.76Z</time></trkpt><trkpt lat="45.7584103" lon="9.7531623"><ele>481.0</ele><time>2026-04-25T08:18:19.759Z</time></trkpt><trkpt lat="45.7584675" lon="9.753075"><ele>481.00000000000006</ele><time>2026-04-25T08:18:20.76Z</time></trkpt><trkpt lat="45.758523" lon="9.752987"><ele>481.0</ele><time>2026-04-25T08:18:21.759Z</time></trkpt><trkpt lat="45.7585776" lon="9.7528967"><ele>481.0</ele><time>2026-04-25T08:18:22.76Z</time></trkpt><trkpt lat="45.758633" lon="9.7528102"><ele>481.0</ele><time>2026-04-25T08:18:23.759Z</time></trkpt><trkpt lat="45.758679" lon="9.7527312"><ele>481.00000000000006</ele><time>2026-04-25T08:18:24.76Z</time></trkpt><trkpt lat="45.7587388" lon="9.7525848"><ele>481.0</ele><time>2026-04-25T08:18:26.76Z</time></trkpt><trkpt lat="45.7586723" lon="9.7524635"><ele>480.99999999999994</ele><time>2026-04-25T08:18:28.759Z</time></trkpt><trkpt lat="45.7586114" lon="9.7524892"><ele>481.0</ele><time>2026-04-25T08:18:29.759Z</time></trkpt><trkpt lat="45.7585696" lon="9.7525722"><ele>480.99999999999994</ele><time>2026-04-25T08:18:30.759Z</time></trkpt><trkpt lat="45.7585379" lon="9.7526553"><ele>480.99999999999994</ele><time>2026-04-25T08:18:31.76Z</time></trkpt><trkpt lat="45.7585075" lon="9.7527529"><ele>481.0</ele><time>2026-04-25T08:18:32.759Z</time></trkpt><trkpt lat="45.7584751" lon="9.7528358"><ele>480.99999999999994</ele><time>2026-04-25T08:18:33.76Z</time></trkpt><trkpt lat="45.7584251" lon="9.7529557"><ele>480.99999999999994</ele><time>2026-04-25T08:18:35.76Z</time></trkpt><trkpt lat="45.7583602" lon="9.7530315"><ele>481.00000000000006</ele><time>2026-04-25T08:18:37.76Z</time></trkpt><trkpt lat="45.7583067" lon="9.7529793"><ele>481.0</ele><time>2026-04-25T08:18:39.76Z</time></trkpt><trkpt lat="45.758353" lon="9.7528478"><ele>481.0</ele><time>2026-04-25T08:18:41.76Z</time></trkpt><trkpt lat="45.7584081" lon="9.7527608"><ele>481.0</ele><time>2026-04-25T08:18:42.759Z</time></trkpt><trkpt lat="45.7584598" lon="9.7526562"><ele>481.00000000000006</ele><time>2026-04-25T08:18:43.759Z</time></trkpt><trkpt lat="45.7585093" lon="9.7525432"><ele>481.0</ele><time>2026-04-25T08:18:44.76Z</time></trkpt><trkpt lat="45.7585629" lon="9.7524426"><ele>481.42857142857133</ele><time>2026-04-25T08:18:45.76Z</time></trkpt><trkpt lat="45.7586201" lon="9.7523712"><ele>481.85714285714283</ele><time>2026-04-25T08:18:46.76Z</time></trkpt><trkpt lat="45.7586863" lon="9.7523359"><ele>482.2857142857142</ele><time>2026-04-25T08:18:47.76Z</time></trkpt><trkpt lat="45.7587571" lon="9.7523328"><ele>482.71428571428567</ele><time>2026-04-25T08:18:48.76Z</time></trkpt><trkpt lat="45.758829" lon="9.7523536"><ele>483.1428571428571</ele><time>2026-04-25T08:18:49.76Z</time></trkpt><trkpt lat="45.7589037" lon="9.7523845"><ele>483.57142857142856</ele><time>2026-04-25T08:18:50.759Z</time></trkpt><trkpt lat="45.7589807" lon="9.7524063"><ele>484.0</ele><time>2026-04-25T08:18:51.759Z</time></trkpt><trkpt lat="45.7590594" lon="9.752411"><ele>484.0</ele><time>2026-04-25T08:18:52.76Z</time></trkpt><trkpt lat="45.7591425" lon="9.7523901"><ele>484.0</ele><time>2026-04-25T08:18:53.76Z</time></trkpt><trkpt lat="45.7592315" lon="9.7523431"><ele>484.0</ele><time>2026-04-25T08:18:54.759Z</time></trkpt><trkpt lat="45.7593227" lon="9.7522854"><ele>484.0</ele><time>2026-04-25T08:18:55.759Z</time></trkpt><trkpt lat="45.7594134" lon="9.7522257"><ele>484.0</ele><time>2026-04-25T08:18:56.76Z</time></trkpt><trkpt lat="45.7594996" lon="9.7521645"><ele>486.50000000000006</ele><time>2026-04-25T08:18:57.759Z</time></trkpt><trkpt lat="45.7595733" lon="9.7521137"><ele>489.0</ele><time>2026-04-25T08:18:58.76Z</time></trkpt><trkpt lat="45.7596397" lon="9.7520614"><ele>491.5</ele><time>2026-04-25T08:18:59.759Z</time></trkpt><trkpt lat="45.759702" lon="9.7520081"><ele>494.0</ele><time>2026-04-25T08:19:00.759Z</time></trkpt><trkpt lat="45.759771" lon="9.7519489"><ele>496.50000000000006</ele><time>2026-04-25T08:19:01.76Z</time></trkpt><trkpt lat="45.7598415" lon="9.7518913"><ele>499.0</ele><time>2026-04-25T08:19:02.759Z</time></trkpt><trkpt lat="45.7599091" lon="9.7518382"><ele>499.00000000000006</ele><time>2026-04-25T08:19:03.759Z</time></trkpt><trkpt lat="45.7599698" lon="9.7517928"><ele>499.0</ele><time>2026-04-25T08:19:04.759Z</time></trkpt><trkpt lat="45.7600242" lon="9.7517468"><ele>499.0</ele><time>2026-04-25T08:19:05.76Z</time></trkpt><trkpt lat="45.7600922" lon="9.7516291"><ele>499.0</ele><time>2026-04-25T08:19:07.759Z</time></trkpt><trkpt lat="45.7600105" lon="9.7515286"><ele>499.00000000000006</ele><time>2026-04-25T08:19:09.759Z</time></trkpt><trkpt lat="45.7599388" lon="9.751574"><ele>499.0</ele><time>2026-04-25T08:19:10.759Z</time></trkpt><trkpt lat="45.7598718" lon="9.7516525"><ele>499.00000000000006</ele><time>2026-04-25T08:19:11.759Z</time></trkpt><trkpt lat="45.7598049" lon="9.7517444"><ele>499.0</ele><time>2026-04-25T08:19:12.759Z</time></trkpt><trkpt lat="45.7597389" lon="9.7518096"><ele>499.0</ele><time>2026-04-25T08:19:13.76Z</time></trkpt><trkpt lat="45.7596762" lon="9.7518662"><ele>499.0</ele><time>2026-04-25T08:19:14.759Z</time></trkpt><trkpt lat="45.7596208" lon="9.7519196"><ele>499.00000000000006</ele><time>2026-04-25T08:19:15.76Z</time></trkpt><trkpt lat="45.759566" lon="9.7519658"><ele>499.0</ele><time>2026-04-25T08:19:16.759Z</time></trkpt><trkpt lat="45.7594722" lon="9.7519859"><ele>499.00000000000006</ele><time>2026-04-25T08:19:18.76Z</time></trkpt><trkpt lat="45.7594594" lon="9.7518855"><ele>499.0</ele><time>2026-04-25T08:19:20.76Z</time></trkpt><trkpt lat="45.7595629" lon="9.7518068"><ele>499.0</ele><time>2026-04-25T08:19:22.759Z</time></trkpt><trkpt lat="45.7596234" lon="9.7517596"><ele>499.0</ele><time>2026-04-25T08:19:23.759Z</time></trkpt><trkpt lat="45.7596875" lon="9.7516973"><ele>499.00000000000006</ele><time>2026-04-25T08:19:24.76Z</time></trkpt><trkpt lat="45.7597568" lon="9.7516175"><ele>499.0</ele><time>2026-04-25T08:19:25.76Z</time></trkpt><trkpt lat="45.759825" lon="9.751536"><ele>499.00000000000006</ele><time>2026-04-25T08:19:26.759Z</time></trkpt><trkpt lat="45.7598887" lon="9.7514735"><ele>499.0</ele><time>2026-04-25T08:19:27.759Z</time></trkpt><trkpt lat="45.7599553" lon="9.7514271"><ele>499.0</ele><time>2026-04-25T08:19:28.76Z</time></trkpt><trkpt lat="45.760024" lon="9.7513958"><ele>499.0</ele><time>2026-04-25T08:19:29.76Z</time></trkpt><trkpt lat="45.7600926" lon="9.7513717"><ele>499.00000000000006</ele><time>2026-04-25T08:19:30.759Z</time></trkpt><trkpt lat="45.7601549" lon="9.7513518"><ele>499.0</ele><time>2026-04-25T08:19:31.76Z</time></trkpt><trkpt lat="45.7602732" lon="9.7512792"><ele>498.4</ele><time>2026-04-25T08:19:33.76Z</time></trkpt><trkpt lat="45.7603188" lon="9.7511919"><ele>497.79999999999995</ele><time>2026-04-25T08:19:34.759Z</time></trkpt><trkpt lat="45.760364" lon="9.7510785"><ele>497.20000000000005</ele><time>2026-04-25T08:19:35.759Z</time></trkpt><trkpt lat="45.7604213" lon="9.7509507"><ele>496.6</ele><time>2026-04-25T08:19:36.759Z</time></trkpt><trkpt lat="45.7605028" lon="9.7507915"><ele>496.0</ele><time>2026-04-25T08:19:37.759Z</time></trkpt><trkpt lat="45.7606144" lon="9.7505878"><ele>496.0</ele><time>2026-04-25T08:19:38.759Z</time></trkpt><trkpt lat="45.76076" lon="9.7503369"><ele>496.0</ele><time>2026-04-25T08:19:39.759Z</time></trkpt><trkpt lat="45.7609038" lon="9.7500732"><ele>495.33333333333337</ele><time>2026-04-25T08:19:40.76Z</time></trkpt><trkpt lat="45.7610254" lon="9.7498118"><ele>494.66666666666663</ele><time>2026-04-25T08:19:41.759Z</time></trkpt><trkpt lat="45.7611266" lon="9.7495694"><ele>494.0</ele><time>2026-04-25T08:19:42.759Z</time></trkpt><trkpt lat="45.7612161" lon="9.749348"><ele>501.0</ele><time>2026-04-25T08:19:43.76Z</time></trkpt><trkpt lat="45.7613005" lon="9.749151"><ele>508.0</ele><time>2026-04-25T08:19:44.759Z</time></trkpt><trkpt lat="45.7613894" lon="9.748972"><ele>515.0</ele><time>2026-04-25T08:19:45.76Z</time></trkpt><trkpt lat="45.7614973" lon="9.7488054"><ele>515.0</ele><time>2026-04-25T08:19:46.76Z</time></trkpt><trkpt lat="45.76163" lon="9.7486361"><ele>515.0</ele><time>2026-04-25T08:19:47.759Z</time></trkpt><trkpt lat="45.7617778" lon="9.7484583"><ele>515.0</ele><time>2026-04-25T08:19:48.759Z</time></trkpt><trkpt lat="45.7619202" lon="9.7482735"><ele>515.0</ele><time>2026-04-25T08:19:49.76Z</time></trkpt><trkpt lat="45.7620467" lon="9.7481056"><ele>515.0</ele><time>2026-04-25T08:19:50.759Z</time></trkpt><trkpt lat="45.7621647" lon="9.747944"><ele>515.0</ele><time>2026-04-25T08:19:51.759Z</time></trkpt><trkpt lat="45.7622684" lon="9.7477892"><ele>518.75</ele><time>2026-04-25T08:19:52.76Z</time></trkpt><trkpt lat="45.76237" lon="9.747642"><ele>522.5</ele><time>2026-04-25T08:19:53.759Z</time></trkpt><trkpt lat="45.7624732" lon="9.7474981"><ele>526.25</ele><time>2026-04-25T08:19:54.76Z</time></trkpt><trkpt lat="45.7625787" lon="9.7473619"><ele>530.0</ele><time>2026-04-25T08:19:55.76Z</time></trkpt><trkpt lat="45.762696" lon="9.7472328"><ele>531.0</ele><time>2026-04-25T08:19:56.759Z</time></trkpt><trkpt lat="45.7628107" lon="9.7471266"><ele>532.0</ele><time>2026-04-25T08:19:57.759Z</time></trkpt><trkpt lat="45.7629096" lon="9.7470068"><ele>533.0</ele><time>2026-04-25T08:19:58.759Z</time></trkpt><trkpt lat="45.7629602" lon="9.7468815"><ele>534.0</ele><time>2026-04-25T08:19:59.759Z</time></trkpt><trkpt lat="45.7629921" lon="9.746777"><ele>535.0</ele><time>2026-04-25T08:20:00.759Z</time></trkpt><trkpt lat="45.7630219" lon="9.7466568"><ele>535.0</ele><time>2026-04-25T08:20:02.759Z</time></trkpt><trkpt lat="45.7630609" lon="9.7465244"><ele>535.0</ele><time>2026-04-25T08:20:04.76Z</time></trkpt><trkpt lat="45.7631115" lon="9.746462"><ele>535.0</ele><time>2026-04-25T08:20:05.76Z</time></trkpt><trkpt lat="45.7631908" lon="9.7464249"><ele>535.0</ele><time>2026-04-25T08:20:06.759Z</time></trkpt><trkpt lat="45.7632731" lon="9.7463992"><ele>535.0</ele><time>2026-04-25T08:20:07.759Z</time></trkpt><trkpt lat="45.7633549" lon="9.7463779"><ele>535.0</ele><time>2026-04-25T08:20:08.76Z</time></trkpt><trkpt lat="45.7634398" lon="9.7463636"><ele>535.6666666666667</ele><time>2026-04-25T08:20:09.76Z</time></trkpt><trkpt lat="45.7635312" lon="9.7463687"><ele>536.3333333333334</ele><time>2026-04-25T08:20:10.759Z</time></trkpt><trkpt lat="45.7636262" lon="9.7463869"><ele>537.0</ele><time>2026-04-25T08:20:11.759Z</time></trkpt><trkpt lat="45.7637174" lon="9.7464043"><ele>537.6666666666666</ele><time>2026-04-25T08:20:12.76Z</time></trkpt><trkpt lat="45.7638031" lon="9.7464173"><ele>538.3333333333333</ele><time>2026-04-25T08:20:13.76Z</time></trkpt><trkpt lat="45.7638784" lon="9.7464233"><ele>539.0</ele><time>2026-04-25T08:20:14.759Z</time></trkpt><trkpt lat="45.7639493" lon="9.7464193"><ele>539.0</ele><time>2026-04-25T08:20:15.759Z</time></trkpt><trkpt lat="45.7640208" lon="9.7463949"><ele>539.0</ele><time>2026-04-25T08:20:16.76Z</time></trkpt><trkpt lat="45.7640904" lon="9.7463546"><ele>539.0</ele><time>2026-04-25T08:20:17.76Z</time></trkpt><trkpt lat="45.764161" lon="9.7463097"><ele>539.0</ele><time>2026-04-25T08:20:18.759Z</time></trkpt><trkpt lat="45.7642317" lon="9.7462645"><ele>539.0</ele><time>2026-04-25T08:20:19.76Z</time></trkpt><trkpt lat="45.7643058" lon="9.7462147"><ele>539.0</ele><time>2026-04-25T08:20:20.759Z</time></trkpt><trkpt lat="45.7643817" lon="9.7461616"><ele>538.8</ele><time>2026-04-25T08:20:21.76Z</time></trkpt><trkpt lat="45.7644551" lon="9.7460964"><ele>538.5999999999999</ele><time>2026-04-25T08:20:22.76Z</time></trkpt><trkpt lat="45.7645255" lon="9.74602"><ele>538.4</ele><time>2026-04-25T08:20:23.759Z</time></trkpt><trkpt lat="45.7645842" lon="9.7459203"><ele>538.1999999999999</ele><time>2026-04-25T08:20:24.76Z</time></trkpt><trkpt lat="45.7646284" lon="9.7458076"><ele>538.0</ele><time>2026-04-25T08:20:25.76Z</time></trkpt><trkpt lat="45.7646672" lon="9.7456774"><ele>539.6</ele><time>2026-04-25T08:20:26.759Z</time></trkpt><trkpt lat="45.7647002" lon="9.7455398"><ele>541.1999999999999</ele><time>2026-04-25T08:20:27.76Z</time></trkpt><trkpt lat="45.764735" lon="9.7453992"><ele>542.8</ele><time>2026-04-25T08:20:28.759Z</time></trkpt><trkpt lat="45.7647797" lon="9.7452627"><ele>544.4</ele><time>2026-04-25T08:20:29.759Z</time></trkpt><trkpt lat="45.7648384" lon="9.7451435"><ele>546.0</ele><time>2026-04-25T08:20:30.759Z</time></trkpt><trkpt lat="45.7649055" lon="9.745053"><ele>547.7142857142857</ele><time>2026-04-25T08:20:31.76Z</time></trkpt><trkpt lat="45.764985" lon="9.7450031"><ele>549.4285714285714</ele><time>2026-04-25T08:20:32.76Z</time></trkpt><trkpt lat="45.7650546" lon="9.7449739"><ele>551.1428571428571</ele><time>2026-04-25T08:20:33.759Z</time></trkpt><trkpt lat="45.7651217" lon="9.7449565"><ele>552.8571428571429</ele><time>2026-04-25T08:20:34.759Z</time></trkpt><trkpt lat="45.7651859" lon="9.7449392"><ele>554.5714285714286</ele><time>2026-04-25T08:20:35.759Z</time></trkpt><trkpt lat="45.7652526" lon="9.7449243"><ele>556.2857142857142</ele><time>2026-04-25T08:20:36.759Z</time></trkpt><trkpt lat="45.7653162" lon="9.7449203"><ele>558.0</ele><time>2026-04-25T08:20:37.759Z</time></trkpt><trkpt lat="45.7654408" lon="9.744988"><ele>561.5</ele><time>2026-04-25T08:20:39.759Z</time></trkpt><trkpt lat="45.7654991" lon="9.7450939"><ele>565.0</ele><time>2026-04-25T08:20:40.76Z</time></trkpt><trkpt lat="45.7655504" lon="9.7452464"><ele>568.5</ele><time>2026-04-25T08:20:41.76Z</time></trkpt><trkpt lat="45.7656024" lon="9.7454557"><ele>572.0</ele><time>2026-04-25T08:20:42.76Z</time></trkpt><trkpt lat="45.7656532" lon="9.745697"><ele>572.0</ele><time>2026-04-25T08:20:43.76Z</time></trkpt><trkpt lat="45.7656889" lon="9.745929"><ele>572.0</ele><time>2026-04-25T08:20:44.76Z</time></trkpt><trkpt lat="45.7657214" lon="9.7461705"><ele>572.0</ele><time>2026-04-25T08:20:45.76Z</time></trkpt><trkpt lat="45.7657402" lon="9.7464382"><ele>572.0</ele><time>2026-04-25T08:20:46.759Z</time></trkpt><trkpt lat="45.7657328" lon="9.7467112"><ele>572.0</ele><time>2026-04-25T08:20:47.76Z</time></trkpt><trkpt lat="45.7657174" lon="9.7469517"><ele>572.0</ele><time>2026-04-25T08:20:48.76Z</time></trkpt><trkpt lat="45.7657167" lon="9.7471801"><ele>572.0</ele><time>2026-04-25T08:20:49.759Z</time></trkpt><trkpt lat="45.7657507" lon="9.747415"><ele>572.0</ele><time>2026-04-25T08:20:50.76Z</time></trkpt><trkpt lat="45.7657953" lon="9.7476256"><ele>572.0</ele><time>2026-04-25T08:20:51.76Z</time></trkpt><trkpt lat="45.7658481" lon="9.7478236"><ele>572.3333333333333</ele><time>2026-04-25T08:20:52.759Z</time></trkpt><trkpt lat="45.7658559" lon="9.7480315"><ele>572.6666666666666</ele><time>2026-04-25T08:20:53.759Z</time></trkpt><trkpt lat="45.7658247" lon="9.7482477"><ele>573.0</ele><time>2026-04-25T08:20:54.759Z</time></trkpt><trkpt lat="45.765822" lon="9.7484906"><ele>571.5</ele><time>2026-04-25T08:20:55.76Z</time></trkpt><trkpt lat="45.7658398" lon="9.7487058"><ele>570.0</ele><time>2026-04-25T08:20:56.759Z</time></trkpt><trkpt lat="45.7658498" lon="9.7489037"><ele>568.5</ele><time>2026-04-25T08:20:57.759Z</time></trkpt><trkpt lat="45.7658663" lon="9.7490835"><ele>567.0</ele><time>2026-04-25T08:20:58.759Z</time></trkpt><trkpt lat="45.7658945" lon="9.7492402"><ele>567.0</ele><time>2026-04-25T08:20:59.76Z</time></trkpt><trkpt lat="45.7659454" lon="9.7493619"><ele>567.0</ele><time>2026-04-25T08:21:00.76Z</time></trkpt><trkpt lat="45.7659997" lon="9.7494312"><ele>567.0</ele><time>2026-04-25T08:21:01.759Z</time></trkpt><trkpt lat="45.7660873" lon="9.749394"><ele>567.0</ele><time>2026-04-25T08:21:03.759Z</time></trkpt><trkpt lat="45.7660313" lon="9.7492217"><ele>567.0</ele><time>2026-04-25T08:21:05.759Z</time></trkpt><trkpt lat="45.7659854" lon="9.7491035"><ele>567.0</ele><time>2026-04-25T08:21:06.759Z</time></trkpt><trkpt lat="45.7659618" lon="9.7489847"><ele>567.0</ele><time>2026-04-25T08:21:07.759Z</time></trkpt><trkpt lat="45.7659577" lon="9.7488735"><ele>567.0</ele><time>2026-04-25T08:21:08.759Z</time></trkpt><trkpt lat="45.7659592" lon="9.7487643"><ele>567.0</ele><time>2026-04-25T08:21:09.76Z</time></trkpt><trkpt lat="45.765964" lon="9.7486525"><ele>567.0</ele><time>2026-04-25T08:21:10.759Z</time></trkpt><trkpt lat="45.7659738" lon="9.7485395"><ele>567.0</ele><time>2026-04-25T08:21:11.759Z</time></trkpt><trkpt lat="45.765987" lon="9.7484279"><ele>568.0</ele><time>2026-04-25T08:21:12.759Z</time></trkpt><trkpt lat="45.7660047" lon="9.7483198"><ele>569.0</ele><time>2026-04-25T08:21:13.76Z</time></trkpt><trkpt lat="45.7660271" lon="9.7482065"><ele>570.0</ele><time>2026-04-25T08:21:14.76Z</time></trkpt><trkpt lat="45.7660523" lon="9.7480834"><ele>571.0</ele><time>2026-04-25T08:21:15.759Z</time></trkpt><trkpt lat="45.7660676" lon="9.7479561"><ele>572.0</ele><time>2026-04-25T08:21:16.759Z</time></trkpt><trkpt lat="45.7660647" lon="9.7478258"><ele>573.0</ele><time>2026-04-25T08:21:17.76Z</time></trkpt><trkpt lat="45.7660497" lon="9.7476957"><ele>583.4</ele><time>2026-04-25T08:21:18.759Z</time></trkpt><trkpt lat="45.7660326" lon="9.7475676"><ele>593.8</ele><time>2026-04-25T08:21:19.759Z</time></trkpt><trkpt lat="45.7660286" lon="9.7474413"><ele>604.2</ele><time>2026-04-25T08:21:20.76Z</time></trkpt><trkpt lat="45.7660401" lon="9.7473193"><ele>614.6</ele><time>2026-04-25T08:21:21.76Z</time></trkpt><trkpt lat="45.7660615" lon="9.7471941"><ele>625.0</ele><time>2026-04-25T08:21:22.759Z</time></trkpt><trkpt lat="45.7660908" lon="9.7470608"><ele>625.0</ele><time>2026-04-25T08:21:23.76Z</time></trkpt><trkpt lat="45.7661207" lon="9.7469238"><ele>625.0</ele><time>2026-04-25T08:21:24.759Z</time></trkpt><trkpt lat="45.7661584" lon="9.7467881"><ele>625.0</ele><time>2026-04-25T08:21:25.76Z</time></trkpt><trkpt lat="45.7662068" lon="9.746661"><ele>625.0</ele><time>2026-04-25T08:21:26.759Z</time></trkpt><trkpt lat="45.766261" lon="9.746544"><ele>625.0</ele><time>2026-04-25T08:21:27.759Z</time></trkpt><trkpt lat="45.7662827" lon="9.746407"><ele>624.2</ele><time>2026-04-25T08:21:28.759Z</time></trkpt><trkpt lat="45.7662879" lon="9.746256"><ele>623.4</ele><time>2026-04-25T08:21:29.759Z</time></trkpt><trkpt lat="45.7662895" lon="9.7461086"><ele>622.6</ele><time>2026-04-25T08:21:30.759Z</time></trkpt><trkpt lat="45.7662912" lon="9.7459788"><ele>621.8</ele><time>2026-04-25T08:21:31.759Z</time></trkpt><trkpt lat="45.7662907" lon="9.7458613"><ele>621.0</ele><time>2026-04-25T08:21:32.76Z</time></trkpt><trkpt lat="45.7662895" lon="9.7457595"><ele>620.6666666666666</ele><time>2026-04-25T08:21:33.759Z</time></trkpt><trkpt lat="45.7662916" lon="9.7456556"><ele>620.3333333333334</ele><time>2026-04-25T08:21:34.76Z</time></trkpt><trkpt lat="45.7663003" lon="9.7455501"><ele>620.0</ele><time>2026-04-25T08:21:35.76Z</time></trkpt><trkpt lat="45.7663283" lon="9.745447"><ele>619.6666666666667</ele><time>2026-04-25T08:21:36.759Z</time></trkpt><trkpt lat="45.7663666" lon="9.7453292"><ele>619.3333333333334</ele><time>2026-04-25T08:21:37.76Z</time></trkpt><trkpt lat="45.7663773" lon="9.7452038"><ele>619.0</ele><time>2026-04-25T08:21:38.76Z</time></trkpt><trkpt lat="45.7663656" lon="9.7450755"><ele>618.8333333333334</ele><time>2026-04-25T08:21:39.759Z</time></trkpt><trkpt lat="45.7663334" lon="9.7449636"><ele>618.6666666666667</ele><time>2026-04-25T08:21:40.76Z</time></trkpt><trkpt lat="45.7662956" lon="9.744863"><ele>618.5</ele><time>2026-04-25T08:21:41.76Z</time></trkpt><trkpt lat="45.7662639" lon="9.7447636"><ele>618.3333333333334</ele><time>2026-04-25T08:21:42.76Z</time></trkpt><trkpt lat="45.7662536" lon="9.7446722"><ele>618.1666666666666</ele><time>2026-04-25T08:21:43.76Z</time></trkpt><trkpt lat="45.7662554" lon="9.7445223"><ele>618.0</ele><time>2026-04-25T08:21:45.76Z</time></trkpt><trkpt lat="45.7662988" lon="9.7444349"><ele>618.0</ele><time>2026-04-25T08:21:47.76Z</time></trkpt><trkpt lat="45.7663693" lon="9.7445061"><ele>618.0</ele><time>2026-04-25T08:21:49.759Z</time></trkpt><trkpt lat="45.7663682" lon="9.7447233"><ele>618.0</ele><time>2026-04-25T08:21:51.759Z</time></trkpt><trkpt lat="45.7663919" lon="9.7448448"><ele>618.0</ele><time>2026-04-25T08:21:52.76Z</time></trkpt><trkpt lat="45.766415" lon="9.7449533"><ele>618.0</ele><time>2026-04-25T08:21:53.76Z</time></trkpt><trkpt lat="45.7664446" lon="9.7450575"><ele>618.0</ele><time>2026-04-25T08:21:54.759Z</time></trkpt><trkpt lat="45.7664639" lon="9.7451555"><ele>618.0</ele><time>2026-04-25T08:21:55.76Z</time></trkpt><trkpt lat="45.7664706" lon="9.7452575"><ele>618.0</ele><time>2026-04-25T08:21:56.759Z</time></trkpt><trkpt lat="45.7664598" lon="9.7453607"><ele>618.0</ele><time>2026-04-25T08:21:57.759Z</time></trkpt><trkpt lat="45.7664398" lon="9.7454625"><ele>618.0</ele><time>2026-04-25T08:21:58.76Z</time></trkpt><trkpt lat="45.7664259" lon="9.7455746"><ele>618.0</ele><time>2026-04-25T08:21:59.759Z</time></trkpt><trkpt lat="45.7664398" lon="9.7457049"><ele>618.25</ele><time>2026-04-25T08:22:00.76Z</time></trkpt><trkpt lat="45.76648" lon="9.7458671"><ele>618.5</ele><time>2026-04-25T08:22:01.759Z</time></trkpt><trkpt lat="45.766517" lon="9.7460707"><ele>618.75</ele><time>2026-04-25T08:22:02.759Z</time></trkpt><trkpt lat="45.7665486" lon="9.7462638"><ele>619.0</ele><time>2026-04-25T08:22:03.76Z</time></trkpt><trkpt lat="45.7665771" lon="9.7464363"><ele>619.5</ele><time>2026-04-25T08:22:04.759Z</time></trkpt><trkpt lat="45.7665801" lon="9.7466157"><ele>620.0</ele><time>2026-04-25T08:22:05.759Z</time></trkpt><trkpt lat="45.7665273" lon="9.7467887"><ele>620.5</ele><time>2026-04-25T08:22:06.76Z</time></trkpt><trkpt lat="45.7664725" lon="9.7469764"><ele>621.0</ele><time>2026-04-25T08:22:07.759Z</time></trkpt><trkpt lat="45.7664592" lon="9.7472278"><ele>622.3333333333334</ele><time>2026-04-25T08:22:08.76Z</time></trkpt><trkpt lat="45.7664567" lon="9.7474849"><ele>623.6666666666667</ele><time>2026-04-25T08:22:09.759Z</time></trkpt><trkpt lat="45.766468" lon="9.7477126"><ele>625.0</ele><time>2026-04-25T08:22:10.76Z</time></trkpt><trkpt lat="45.7664833" lon="9.7479241"><ele>626.25</ele><time>2026-04-25T08:22:11.76Z</time></trkpt><trkpt lat="45.7664838" lon="9.7481143"><ele>627.5</ele><time>2026-04-25T08:22:12.759Z</time></trkpt><trkpt lat="45.7664568" lon="9.7482813"><ele>628.75</ele><time>2026-04-25T08:22:13.76Z</time></trkpt><trkpt lat="45.7664222" lon="9.7484375"><ele>630.0</ele><time>2026-04-25T08:22:14.759Z</time></trkpt><trkpt lat="45.766396" lon="9.7485827"><ele>627.0</ele><time>2026-04-25T08:22:15.759Z</time></trkpt><trkpt lat="45.7663838" lon="9.7487224"><ele>624.0</ele><time>2026-04-25T08:22:16.76Z</time></trkpt><trkpt lat="45.7663955" lon="9.7488463"><ele>621.0</ele><time>2026-04-25T08:22:17.759Z</time></trkpt><trkpt lat="45.7664474" lon="9.7489197"><ele>618.0</ele><time>2026-04-25T08:22:18.759Z</time></trkpt><trkpt lat="45.7665416" lon="9.7488478"><ele>615.0</ele><time>2026-04-25T08:22:20.76Z</time></trkpt><trkpt lat="45.7665475" lon="9.7487376"><ele>612.0</ele><time>2026-04-25T08:22:21.76Z</time></trkpt><trkpt lat="45.7665396" lon="9.7485865"><ele>616.5</ele><time>2026-04-25T08:22:22.759Z</time></trkpt><trkpt lat="45.7665586" lon="9.7484132"><ele>621.0</ele><time>2026-04-25T08:22:23.759Z</time></trkpt><trkpt lat="45.7665869" lon="9.7482065"><ele>625.5</ele><time>2026-04-25T08:22:24.76Z</time></trkpt><trkpt lat="45.7665955" lon="9.7479971"><ele>630.0</ele><time>2026-04-25T08:22:25.76Z</time></trkpt><trkpt lat="45.7665909" lon="9.747807"><ele>628.75</ele><time>2026-04-25T08:22:26.759Z</time></trkpt><trkpt lat="45.7665962" lon="9.7476319"><ele>627.5</ele><time>2026-04-25T08:22:27.76Z</time></trkpt><trkpt lat="45.7666518" lon="9.7474341"><ele>626.25</ele><time>2026-04-25T08:22:28.759Z</time></trkpt><trkpt lat="45.7667112" lon="9.7471942"><ele>625.0</ele><time>2026-04-25T08:22:29.76Z</time></trkpt><trkpt lat="45.7667643" lon="9.7469358"><ele>623.6666666666667</ele><time>2026-04-25T08:22:30.759Z</time></trkpt><trkpt lat="45.7668158" lon="9.7466599"><ele>622.3333333333334</ele><time>2026-04-25T08:22:31.76Z</time></trkpt><trkpt lat="45.766867" lon="9.7464066"><ele>621.0</ele><time>2026-04-25T08:22:32.759Z</time></trkpt><trkpt lat="45.7668825" lon="9.7461414"><ele>635.3333333333334</ele><time>2026-04-25T08:22:33.76Z</time></trkpt><trkpt lat="45.7668633" lon="9.7458948"><ele>649.6666666666667</ele><time>2026-04-25T08:22:34.759Z</time></trkpt><trkpt lat="45.7668632" lon="9.7456699"><ele>664.0</ele><time>2026-04-25T08:22:35.76Z</time></trkpt><trkpt lat="45.766909" lon="9.7454781"><ele>664.0</ele><time>2026-04-25T08:22:36.759Z</time></trkpt><trkpt lat="45.7669495" lon="9.7452995"><ele>664.0</ele><time>2026-04-25T08:22:37.76Z</time></trkpt><trkpt lat="45.7669509" lon="9.7451004"><ele>664.0</ele><time>2026-04-25T08:22:38.759Z</time></trkpt><trkpt lat="45.7669289" lon="9.7448985"><ele>664.0</ele><time>2026-04-25T08:22:39.759Z</time></trkpt><trkpt lat="45.7669348" lon="9.7447073"><ele>663.6</ele><time>2026-04-25T08:22:40.76Z</time></trkpt><trkpt lat="45.7669345" lon="9.7445341"><ele>663.2</ele><time>2026-04-25T08:22:41.76Z</time></trkpt><trkpt lat="45.7669259" lon="9.7443898"><ele>662.8000000000001</ele><time>2026-04-25T08:22:42.76Z</time></trkpt><trkpt lat="45.7669164" lon="9.7442871"><ele>662.4000000000001</ele><time>2026-04-25T08:22:43.76Z</time></trkpt><trkpt lat="45.7669655" lon="9.7441541"><ele>662.0</ele><time>2026-04-25T08:22:45.76Z</time></trkpt><trkpt lat="45.7670137" lon="9.7442582"><ele>661.0</ele><time>2026-04-25T08:22:47.76Z</time></trkpt><trkpt lat="45.7670042" lon="9.7443841"><ele>660.0</ele><time>2026-04-25T08:22:48.759Z</time></trkpt><trkpt lat="45.767" lon="9.7445356"><ele>659.0</ele><time>2026-04-25T08:22:49.759Z</time></trkpt><trkpt lat="45.7670022" lon="9.7447046"><ele>658.0</ele><time>2026-04-25T08:22:50.759Z</time></trkpt><trkpt lat="45.7670169" lon="9.7448757"><ele>657.0</ele><time>2026-04-25T08:22:51.759Z</time></trkpt><trkpt lat="45.7670624" lon="9.74504"><ele>657.0</ele><time>2026-04-25T08:22:52.759Z</time></trkpt><trkpt lat="45.7671208" lon="9.7452066"><ele>657.0</ele><time>2026-04-25T08:22:53.76Z</time></trkpt><trkpt lat="45.7671508" lon="9.7454132"><ele>657.0</ele><time>2026-04-25T08:22:54.76Z</time></trkpt><trkpt lat="45.7671688" lon="9.7456614"><ele>659.3333333333334</ele><time>2026-04-25T08:22:55.759Z</time></trkpt><trkpt lat="45.7671872" lon="9.7459298"><ele>661.6666666666667</ele><time>2026-04-25T08:22:56.759Z</time></trkpt><trkpt lat="45.7672103" lon="9.7462178"><ele>664.0</ele><time>2026-04-25T08:22:57.759Z</time></trkpt><trkpt lat="45.7672311" lon="9.7464948"><ele>666.3333333333334</ele><time>2026-04-25T08:22:58.76Z</time></trkpt><trkpt lat="45.767223" lon="9.74678"><ele>668.6666666666666</ele><time>2026-04-25T08:22:59.76Z</time></trkpt><trkpt lat="45.7671752" lon="9.7470606"><ele>671.0</ele><time>2026-04-25T08:23:00.759Z</time></trkpt><trkpt lat="45.7671075" lon="9.7473017"><ele>672.6666666666666</ele><time>2026-04-25T08:23:01.759Z</time></trkpt><trkpt lat="45.767044" lon="9.747534"><ele>674.3333333333334</ele><time>2026-04-25T08:23:02.76Z</time></trkpt><trkpt lat="45.7670047" lon="9.7477632"><ele>676.0</ele><time>2026-04-25T08:23:03.759Z</time></trkpt><trkpt lat="45.766977" lon="9.7479707"><ele>676.0</ele><time>2026-04-25T08:23:04.76Z</time></trkpt><trkpt lat="45.7669583" lon="9.7481394"><ele>676.0</ele><time>2026-04-25T08:23:05.76Z</time></trkpt><trkpt lat="45.7669455" lon="9.7482821"><ele>676.0</ele><time>2026-04-25T08:23:06.758Z</time></trkpt><trkpt lat="45.766943" lon="9.7484067"><ele>676.0</ele><time>2026-04-25T08:23:07.76Z</time></trkpt><trkpt lat="45.7669661" lon="9.7485014"><ele>676.0</ele><time>2026-04-25T08:23:08.759Z</time></trkpt><trkpt lat="45.7670795" lon="9.7485377"><ele>676.0</ele><time>2026-04-25T08:23:10.759Z</time></trkpt><trkpt lat="45.7671231" lon="9.7484531"><ele>676.0</ele><time>2026-04-25T08:23:11.76Z</time></trkpt><trkpt lat="45.7671304" lon="9.7483224"><ele>676.0</ele><time>2026-04-25T08:23:12.76Z</time></trkpt><trkpt lat="45.7671138" lon="9.7481626"><ele>676.0</ele><time>2026-04-25T08:23:13.76Z</time></trkpt><trkpt lat="45.767119" lon="9.7479715"><ele>676.0</ele><time>2026-04-25T08:23:14.76Z</time></trkpt><trkpt lat="45.7671632" lon="9.7477557"><ele>677.3333333333334</ele><time>2026-04-25T08:23:15.759Z</time></trkpt><trkpt lat="45.7672492" lon="9.7475292"><ele>678.6666666666666</ele><time>2026-04-25T08:23:16.76Z</time></trkpt><trkpt lat="45.7673537" lon="9.7473005"><ele>680.0</ele><time>2026-04-25T08:23:17.759Z</time></trkpt><trkpt lat="45.7674283" lon="9.747077"><ele>677.0</ele><time>2026-04-25T08:23:18.759Z</time></trkpt><trkpt lat="45.7674853" lon="9.7468204"><ele>674.0</ele><time>2026-04-25T08:23:19.76Z</time></trkpt><trkpt lat="45.7675276" lon="9.7465313"><ele>671.0</ele><time>2026-04-25T08:23:20.759Z</time></trkpt><trkpt lat="45.7675849" lon="9.7462691"><ele>668.6666666666666</ele><time>2026-04-25T08:23:21.759Z</time></trkpt><trkpt lat="45.767679" lon="9.746014"><ele>666.3333333333334</ele><time>2026-04-25T08:23:22.76Z</time></trkpt><trkpt lat="45.7677736" lon="9.7457938"><ele>664.0</ele><time>2026-04-25T08:23:23.759Z</time></trkpt><trkpt lat="45.7678642" lon="9.7455932"><ele>669.75</ele><time>2026-04-25T08:23:24.76Z</time></trkpt><trkpt lat="45.7679647" lon="9.7454269"><ele>675.5</ele><time>2026-04-25T08:23:25.759Z</time></trkpt><trkpt lat="45.7680778" lon="9.7453172"><ele>681.25</ele><time>2026-04-25T08:23:26.759Z</time></trkpt><trkpt lat="45.7681853" lon="9.7452358"><ele>687.0</ele><time>2026-04-25T08:23:27.759Z</time></trkpt><trkpt lat="45.7682673" lon="9.7451548"><ele>687.0</ele><time>2026-04-25T08:23:28.759Z</time></trkpt><trkpt lat="45.7683045" lon="9.7450441"><ele>687.0</ele><time>2026-04-25T08:23:29.76Z</time></trkpt><trkpt lat="45.7682834" lon="9.7449272"><ele>687.0</ele><time>2026-04-25T08:23:30.759Z</time></trkpt><trkpt lat="45.7682096" lon="9.744817"><ele>687.0</ele><time>2026-04-25T08:23:31.76Z</time></trkpt><trkpt lat="45.7681166" lon="9.7446748"><ele>687.0</ele><time>2026-04-25T08:23:32.76Z</time></trkpt><trkpt lat="45.7680285" lon="9.7445076"><ele>689.5</ele><time>2026-04-25T08:23:33.76Z</time></trkpt><trkpt lat="45.7679485" lon="9.7443182"><ele>692.0</ele><time>2026-04-25T08:23:34.759Z</time></trkpt><trkpt lat="45.7678802" lon="9.7441486"><ele>694.5</ele><time>2026-04-25T08:23:35.76Z</time></trkpt><trkpt lat="45.7678232" lon="9.7439953"><ele>697.0</ele><time>2026-04-25T08:23:36.76Z</time></trkpt><trkpt lat="45.7677868" lon="9.743837"><ele>697.0</ele><time>2026-04-25T08:23:37.76Z</time></trkpt><trkpt lat="45.7677758" lon="9.7436855"><ele>697.0</ele><time>2026-04-25T08:23:38.76Z</time></trkpt><trkpt lat="45.7677875" lon="9.7435947"><ele>697.0</ele><time>2026-04-25T08:23:39.759Z</time></trkpt><trkpt lat="45.7678502" lon="9.7435697"><ele>697.0</ele><time>2026-04-25T08:23:41.76Z</time></trkpt><trkpt lat="45.7678563" lon="9.7437203"><ele>697.0</ele><time>2026-04-25T08:23:43.76Z</time></trkpt><trkpt lat="45.7678551" lon="9.7438368"><ele>697.0</ele><time>2026-04-25T08:23:44.76Z</time></trkpt><trkpt lat="45.7679123" lon="9.7439727"><ele>697.0</ele><time>2026-04-25T08:23:45.759Z</time></trkpt><trkpt lat="45.7680054" lon="9.7441115"><ele>697.0</ele><time>2026-04-25T08:23:46.76Z</time></trkpt><trkpt lat="45.7681235" lon="9.7442604"><ele>697.0</ele><time>2026-04-25T08:23:47.758Z</time></trkpt><trkpt lat="45.7682579" lon="9.7444208"><ele>693.6666666666667</ele><time>2026-04-25T08:23:48.759Z</time></trkpt><trkpt lat="45.7683887" lon="9.7445758"><ele>690.3333333333334</ele><time>2026-04-25T08:23:49.758Z</time></trkpt><trkpt lat="45.7685119" lon="9.7447209"><ele>687.0</ele><time>2026-04-25T08:23:50.759Z</time></trkpt><trkpt lat="45.7686146" lon="9.744869"><ele>693.6</ele><time>2026-04-25T08:23:51.76Z</time></trkpt><trkpt lat="45.7686841" lon="9.745019"><ele>700.2</ele><time>2026-04-25T08:23:52.76Z</time></trkpt><trkpt lat="45.7687224" lon="9.74515"><ele>706.8</ele><time>2026-04-25T08:23:53.76Z</time></trkpt><trkpt lat="45.7687237" lon="9.7452638"><ele>713.4</ele><time>2026-04-25T08:23:54.76Z</time></trkpt><trkpt lat="45.7686965" lon="9.7453634"><ele>720.0</ele><time>2026-04-25T08:23:55.76Z</time></trkpt><trkpt lat="45.7685807" lon="9.7454267"><ele>715.5</ele><time>2026-04-25T08:23:56.76Z</time></trkpt><trkpt lat="45.7684664" lon="9.7455314"><ele>711.0</ele><time>2026-04-25T08:23:57.76Z</time></trkpt><trkpt lat="45.7683488" lon="9.7456624"><ele>706.5</ele><time>2026-04-25T08:23:58.76Z</time></trkpt><trkpt lat="45.7682314" lon="9.7458118"><ele>702.0</ele><time>2026-04-25T08:23:59.76Z</time></trkpt><trkpt lat="45.7681313" lon="9.7459964"><ele>706.6666666666666</ele><time>2026-04-25T08:24:00.759Z</time></trkpt><trkpt lat="45.7680619" lon="9.746211"><ele>711.3333333333333</ele><time>2026-04-25T08:24:01.76Z</time></trkpt><trkpt lat="45.7680351" lon="9.746449"><ele>716.0</ele><time>2026-04-25T08:24:02.759Z</time></trkpt><trkpt lat="45.7680154" lon="9.7466994"><ele>719.0</ele><time>2026-04-25T08:24:03.76Z</time></trkpt><trkpt lat="45.7679945" lon="9.746963"><ele>722.0</ele><time>2026-04-25T08:24:04.76Z</time></trkpt><trkpt lat="45.7679737" lon="9.7471992"><ele>725.0</ele><time>2026-04-25T08:24:05.759Z</time></trkpt><trkpt lat="45.7679421" lon="9.7474162"><ele>725.0</ele><time>2026-04-25T08:24:06.759Z</time></trkpt><trkpt lat="45.7678921" lon="9.7476073"><ele>725.0</ele><time>2026-04-25T08:24:07.759Z</time></trkpt><trkpt lat="45.7678424" lon="9.7477575"><ele>725.0</ele><time>2026-04-25T08:24:08.759Z</time></trkpt><trkpt lat="45.7678043" lon="9.7478779"><ele>725.0</ele><time>2026-04-25T08:24:09.759Z</time></trkpt><trkpt lat="45.7678024" lon="9.7479765"><ele>725.0</ele><time>2026-04-25T08:24:10.76Z</time></trkpt><trkpt lat="45.7678507" lon="9.7480463"><ele>725.0</ele><time>2026-04-25T08:24:11.759Z</time></trkpt><trkpt lat="45.7679404" lon="9.7479771"><ele>725.0</ele><time>2026-04-25T08:24:13.76Z</time></trkpt><trkpt lat="45.7679661" lon="9.747847"><ele>725.0</ele><time>2026-04-25T08:24:14.759Z</time></trkpt><trkpt lat="45.7679981" lon="9.7476704"><ele>725.0</ele><time>2026-04-25T08:24:15.76Z</time></trkpt><trkpt lat="45.7680436" lon="9.7474679"><ele>725.0</ele><time>2026-04-25T08:24:16.759Z</time></trkpt><trkpt lat="45.7680953" lon="9.7472232"><ele>725.0</ele><time>2026-04-25T08:24:17.759Z</time></trkpt><trkpt lat="45.7681483" lon="9.7469639"><ele>725.0</ele><time>2026-04-25T08:24:18.76Z</time></trkpt><trkpt lat="45.7682041" lon="9.7466979"><ele>722.0</ele><time>2026-04-25T08:24:19.759Z</time></trkpt><trkpt lat="45.7682588" lon="9.7464603"><ele>719.0</ele><time>2026-04-25T08:24:20.759Z</time></trkpt><trkpt lat="45.7683355" lon="9.7462692"><ele>716.0</ele><time>2026-04-25T08:24:21.759Z</time></trkpt><trkpt lat="45.7684576" lon="9.7461337"><ele>720.3333333333333</ele><time>2026-04-25T08:24:22.76Z</time></trkpt><trkpt lat="45.7685984" lon="9.746042"><ele>724.6666666666666</ele><time>2026-04-25T08:24:23.76Z</time></trkpt><trkpt lat="45.7687357" lon="9.7459551"><ele>729.0</ele><time>2026-04-25T08:24:24.76Z</time></trkpt><trkpt lat="45.7688779" lon="9.745877"><ele>729.0</ele><time>2026-04-25T08:24:25.76Z</time></trkpt><trkpt lat="45.7690144" lon="9.7458044"><ele>729.0</ele><time>2026-04-25T08:24:26.76Z</time></trkpt><trkpt lat="45.7691321" lon="9.7457136"><ele>729.0</ele><time>2026-04-25T08:24:27.76Z</time></trkpt><trkpt lat="45.7692361" lon="9.7456254"><ele>729.0</ele><time>2026-04-25T08:24:28.76Z</time></trkpt><trkpt lat="45.7693236" lon="9.7455422"><ele>727.2</ele><time>2026-04-25T08:24:29.759Z</time></trkpt><trkpt lat="45.7693904" lon="9.7454492"><ele>725.4000000000001</ele><time>2026-04-25T08:24:30.759Z</time></trkpt><trkpt lat="45.7694091" lon="9.74532"><ele>723.6</ele><time>2026-04-25T08:24:31.759Z</time></trkpt><trkpt lat="45.7693741" lon="9.7451707"><ele>721.8</ele><time>2026-04-25T08:24:32.76Z</time></trkpt><trkpt lat="45.7693294" lon="9.7449879"><ele>720.0</ele><time>2026-04-25T08:24:33.759Z</time></trkpt><trkpt lat="45.7693106" lon="9.7447942"><ele>720.0</ele><time>2026-04-25T08:24:34.759Z</time></trkpt><trkpt lat="45.7693026" lon="9.7446113"><ele>720.0</ele><time>2026-04-25T08:24:35.759Z</time></trkpt><trkpt lat="45.7692793" lon="9.7444495"><ele>720.0</ele><time>2026-04-25T08:24:36.759Z</time></trkpt><trkpt lat="45.7692296" lon="9.7443044"><ele>720.0</ele><time>2026-04-25T08:24:37.759Z</time></trkpt><trkpt lat="45.7691561" lon="9.7441718"><ele>723.0</ele><time>2026-04-25T08:24:38.76Z</time></trkpt><trkpt lat="45.7690738" lon="9.7440594"><ele>726.0</ele><time>2026-04-25T08:24:39.76Z</time></trkpt><trkpt lat="45.7689948" lon="9.7439541"><ele>729.0</ele><time>2026-04-25T08:24:40.759Z</time></trkpt><trkpt lat="45.7689201" lon="9.7438505"><ele>732.0</ele><time>2026-04-25T08:24:41.759Z</time></trkpt><trkpt lat="45.7688531" lon="9.7437465"><ele>735.0</ele><time>2026-04-25T08:24:42.758Z</time></trkpt><trkpt lat="45.7687987" lon="9.7436356"><ele>738.1666666666666</ele><time>2026-04-25T08:24:43.759Z</time></trkpt><trkpt lat="45.7687566" lon="9.7435096"><ele>741.3333333333334</ele><time>2026-04-25T08:24:44.76Z</time></trkpt><trkpt lat="45.768728" lon="9.7433861"><ele>744.5</ele><time>2026-04-25T08:24:45.759Z</time></trkpt><trkpt lat="45.7687086" lon="9.7432735"><ele>747.6666666666667</ele><time>2026-04-25T08:24:46.759Z</time></trkpt><trkpt lat="45.768697" lon="9.7431693"><ele>750.8333333333334</ele><time>2026-04-25T08:24:47.76Z</time></trkpt><trkpt lat="45.7686866" lon="9.7430802"><ele>754.0</ele><time>2026-04-25T08:24:48.759Z</time></trkpt><trkpt lat="45.7686869" lon="9.7429664"><ele>754.0</ele><time>2026-04-25T08:24:50.759Z</time></trkpt><trkpt lat="45.7687626" lon="9.742947"><ele>754.0</ele><time>2026-04-25T08:24:53.759Z</time></trkpt><trkpt lat="45.7687579" lon="9.7430916"><ele>754.0</ele><time>2026-04-25T08:24:55.76Z</time></trkpt><trkpt lat="45.768757" lon="9.7431867"><ele>754.0</ele><time>2026-04-25T08:24:56.759Z</time></trkpt><trkpt lat="45.7687712" lon="9.743284"><ele>754.0</ele><time>2026-04-25T08:24:57.759Z</time></trkpt><trkpt lat="45.7688003" lon="9.7433794"><ele>754.0</ele><time>2026-04-25T08:24:58.759Z</time></trkpt><trkpt lat="45.7688413" lon="9.7434772"><ele>750.2</ele><time>2026-04-25T08:24:59.76Z</time></trkpt><trkpt lat="45.7688962" lon="9.7435746"><ele>746.4000000000001</ele><time>2026-04-25T08:25:00.76Z</time></trkpt><trkpt lat="45.7689657" lon="9.7436645"><ele>742.6</ele><time>2026-04-25T08:25:01.76Z</time></trkpt><trkpt lat="45.7690488" lon="9.7437496"><ele>738.8</ele><time>2026-04-25T08:25:02.759Z</time></trkpt><trkpt lat="45.7691385" lon="9.7438307"><ele>735.0</ele><time>2026-04-25T08:25:03.759Z</time></trkpt><trkpt lat="45.7692265" lon="9.743905"><ele>735.0</ele><time>2026-04-25T08:25:04.76Z</time></trkpt><trkpt lat="45.7693081" lon="9.743978"><ele>735.0</ele><time>2026-04-25T08:25:05.76Z</time></trkpt><trkpt lat="45.7693886" lon="9.744052"><ele>735.0</ele><time>2026-04-25T08:25:06.759Z</time></trkpt><trkpt lat="45.769454" lon="9.7441387"><ele>735.0</ele><time>2026-04-25T08:25:07.758Z</time></trkpt><trkpt lat="45.7695022" lon="9.7442522"><ele>735.0</ele><time>2026-04-25T08:25:08.759Z</time></trkpt><trkpt lat="45.7695316" lon="9.7443847"><ele>739.8</ele><time>2026-04-25T08:25:09.76Z</time></trkpt><trkpt lat="45.7695597" lon="9.7445172"><ele>744.6</ele><time>2026-04-25T08:25:10.759Z</time></trkpt><trkpt lat="45.7695965" lon="9.7446448"><ele>749.4000000000001</ele><time>2026-04-25T08:25:11.76Z</time></trkpt><trkpt lat="45.7696476" lon="9.7447648"><ele>754.2</ele><time>2026-04-25T08:25:12.76Z</time></trkpt><trkpt lat="45.7697131" lon="9.7448736"><ele>759.0</ele><time>2026-04-25T08:25:13.76Z</time></trkpt><trkpt lat="45.7697836" lon="9.7449665"><ele>759.0</ele><time>2026-04-25T08:25:14.759Z</time></trkpt><trkpt lat="45.7698509" lon="9.7450596"><ele>759.0</ele><time>2026-04-25T08:25:15.759Z</time></trkpt><trkpt lat="45.7699075" lon="9.7451683"><ele>759.0</ele><time>2026-04-25T08:25:16.76Z</time></trkpt><trkpt lat="45.7699303" lon="9.7453095"><ele>759.0</ele><time>2026-04-25T08:25:17.76Z</time></trkpt><trkpt lat="45.7699155" lon="9.7454625"><ele>759.0</ele><time>2026-04-25T08:25:18.759Z</time></trkpt><trkpt lat="45.7698884" lon="9.7456072"><ele>757.8000000000001</ele><time>2026-04-25T08:25:19.759Z</time></trkpt><trkpt lat="45.76985" lon="9.7457472"><ele>756.6</ele><time>2026-04-25T08:25:20.759Z</time></trkpt><trkpt lat="45.7697953" lon="9.7458771"><ele>755.4</ele><time>2026-04-25T08:25:21.759Z</time></trkpt><trkpt lat="45.7697229" lon="9.7459931"><ele>754.2</ele><time>2026-04-25T08:25:22.759Z</time></trkpt><trkpt lat="45.7696468" lon="9.746103"><ele>753.0</ele><time>2026-04-25T08:25:23.76Z</time></trkpt><trkpt lat="45.7695687" lon="9.7462106"><ele>751.0</ele><time>2026-04-25T08:25:24.76Z</time></trkpt><trkpt lat="45.7694819" lon="9.7462949"><ele>749.0</ele><time>2026-04-25T08:25:25.76Z</time></trkpt><trkpt lat="45.7693961" lon="9.7463525"><ele>747.0</ele><time>2026-04-25T08:25:26.759Z</time></trkpt><trkpt lat="45.7693162" lon="9.7463939"><ele>745.0</ele><time>2026-04-25T08:25:27.76Z</time></trkpt><trkpt lat="45.7692475" lon="9.746429"><ele>743.0</ele><time>2026-04-25T08:25:28.759Z</time></trkpt><trkpt lat="45.7691916" lon="9.7465642"><ele>743.0</ele><time>2026-04-25T08:25:30.759Z</time></trkpt><trkpt lat="45.7692888" lon="9.7466305"><ele>743.0</ele><time>2026-04-25T08:25:32.759Z</time></trkpt><trkpt lat="45.7693618" lon="9.7465733"><ele>743.0</ele><time>2026-04-25T08:25:33.759Z</time></trkpt><trkpt lat="45.7694609" lon="9.7464586"><ele>743.0</ele><time>2026-04-25T08:25:34.76Z</time></trkpt><trkpt lat="45.7696014" lon="9.7463467"><ele>741.6666666666666</ele><time>2026-04-25T08:25:35.76Z</time></trkpt><trkpt lat="45.7697558" lon="9.7462498"><ele>740.3333333333334</ele><time>2026-04-25T08:25:36.759Z</time></trkpt><trkpt lat="45.7699137" lon="9.746098"><ele>739.0</ele><time>2026-04-25T08:25:37.759Z</time></trkpt><trkpt lat="45.7700508" lon="9.7459093"><ele>742.0</ele><time>2026-04-25T08:25:38.759Z</time></trkpt><trkpt lat="45.7701539" lon="9.7457029"><ele>745.0</ele><time>2026-04-25T08:25:39.76Z</time></trkpt><trkpt lat="45.7702281" lon="9.7454754"><ele>748.0</ele><time>2026-04-25T08:25:40.76Z</time></trkpt><trkpt lat="45.7702863" lon="9.7452662"><ele>750.75</ele><time>2026-04-25T08:25:41.76Z</time></trkpt><trkpt lat="45.7703089" lon="9.7450625"><ele>753.5</ele><time>2026-04-25T08:25:42.759Z</time></trkpt><trkpt lat="45.7702777" lon="9.7448632"><ele>756.25</ele><time>2026-04-25T08:25:43.76Z</time></trkpt><trkpt lat="45.770191" lon="9.7446842"><ele>759.0</ele><time>2026-04-25T08:25:44.76Z</time></trkpt><trkpt lat="45.7701072" lon="9.7444962"><ele>762.5</ele><time>2026-04-25T08:25:45.759Z</time></trkpt><trkpt lat="45.7700914" lon="9.7443021"><ele>766.0</ele><time>2026-04-25T08:25:46.76Z</time></trkpt><trkpt lat="45.7700935" lon="9.7441203"><ele>769.5</ele><time>2026-04-25T08:25:47.759Z</time></trkpt><trkpt lat="45.7700513" lon="9.7439478"><ele>773.0</ele><time>2026-04-25T08:25:48.759Z</time></trkpt><trkpt lat="45.7699565" lon="9.7437947"><ele>773.0</ele><time>2026-04-25T08:25:49.759Z</time></trkpt><trkpt lat="45.7698282" lon="9.7436308"><ele>773.0</ele><time>2026-04-25T08:25:50.759Z</time></trkpt><trkpt lat="45.7696961" lon="9.7434443"><ele>773.0</ele><time>2026-04-25T08:25:51.76Z</time></trkpt><trkpt lat="45.7695826" lon="9.743268"><ele>778.25</ele><time>2026-04-25T08:25:52.759Z</time></trkpt><trkpt lat="45.7694998" lon="9.7430925"><ele>783.5</ele><time>2026-04-25T08:25:53.759Z</time></trkpt><trkpt lat="45.7694656" lon="9.7429039"><ele>788.75</ele><time>2026-04-25T08:25:54.759Z</time></trkpt><trkpt lat="45.7694822" lon="9.7427139"><ele>794.0</ele><time>2026-04-25T08:25:55.759Z</time></trkpt><trkpt lat="45.7695284" lon="9.7425282"><ele>795.25</ele><time>2026-04-25T08:25:56.76Z</time></trkpt><trkpt lat="45.7696002" lon="9.7423555"><ele>796.5</ele><time>2026-04-25T08:25:57.76Z</time></trkpt><trkpt lat="45.7696884" lon="9.7422117"><ele>797.75</ele><time>2026-04-25T08:25:58.759Z</time></trkpt><trkpt lat="45.769778" lon="9.742087"><ele>799.0</ele><time>2026-04-25T08:25:59.759Z</time></trkpt><trkpt lat="45.7698756" lon="9.7419817"><ele>799.0</ele><time>2026-04-25T08:26:00.759Z</time></trkpt><trkpt lat="45.7699939" lon="9.7419034"><ele>799.0</ele><time>2026-04-25T08:26:01.759Z</time></trkpt><trkpt lat="45.7701099" lon="9.7418419"><ele>799.0</ele><time>2026-04-25T08:26:02.76Z</time></trkpt><trkpt lat="45.7702102" lon="9.7417574"><ele>799.0</ele><time>2026-04-25T08:26:03.76Z</time></trkpt><trkpt lat="45.7702604" lon="9.7416076"><ele>802.0</ele><time>2026-04-25T08:26:04.759Z</time></trkpt><trkpt lat="45.770289" lon="9.7414435"><ele>805.0</ele><time>2026-04-25T08:26:05.76Z</time></trkpt><trkpt lat="45.7703538" lon="9.7413093"><ele>808.0</ele><time>2026-04-25T08:26:06.76Z</time></trkpt><trkpt lat="45.7704597" lon="9.7411766"><ele>811.0</ele><time>2026-04-25T08:26:07.759Z</time></trkpt><trkpt lat="45.7705543" lon="9.7410028"><ele>811.0</ele><time>2026-04-25T08:26:08.759Z</time></trkpt><trkpt lat="45.7706237" lon="9.740809"><ele>811.0</ele><time>2026-04-25T08:26:09.76Z</time></trkpt><trkpt lat="45.7706869" lon="9.7406376"><ele>811.0</ele><time>2026-04-25T08:26:10.76Z</time></trkpt><trkpt lat="45.7707441" lon="9.7404887"><ele>811.0</ele><time>2026-04-25T08:26:11.76Z</time></trkpt><trkpt lat="45.7707919" lon="9.740361"><ele>811.0</ele><time>2026-04-25T08:26:12.759Z</time></trkpt><trkpt lat="45.7708223" lon="9.7402731"><ele>811.0</ele><time>2026-04-25T08:26:13.759Z</time></trkpt><trkpt lat="45.7708918" lon="9.7402155"><ele>811.0</ele><time>2026-04-25T08:26:15.759Z</time></trkpt><trkpt lat="45.7709174" lon="9.7403014"><ele>811.0</ele><time>2026-04-25T08:26:17.759Z</time></trkpt><trkpt lat="45.7708268" lon="9.7404784"><ele>811.0</ele><time>2026-04-25T08:26:19.759Z</time></trkpt><trkpt lat="45.7707809" lon="9.7406243"><ele>811.0</ele><time>2026-04-25T08:26:20.76Z</time></trkpt><trkpt lat="45.7707346" lon="9.7408127"><ele>811.0</ele><time>2026-04-25T08:26:21.76Z</time></trkpt><trkpt lat="45.7706767" lon="9.741015"><ele>811.0</ele><time>2026-04-25T08:26:22.759Z</time></trkpt><trkpt lat="45.7706078" lon="9.7412152"><ele>811.0</ele><time>2026-04-25T08:26:23.76Z</time></trkpt><trkpt lat="45.7705301" lon="9.7413819"><ele>816.0</ele><time>2026-04-25T08:26:24.759Z</time></trkpt><trkpt lat="45.7704858" lon="9.7415603"><ele>821.0</ele><time>2026-04-25T08:26:25.759Z</time></trkpt><trkpt lat="45.7704743" lon="9.741761"><ele>826.0</ele><time>2026-04-25T08:26:26.76Z</time></trkpt><trkpt lat="45.7704275" lon="9.7419263"><ele>831.0</ele><time>2026-04-25T08:26:27.759Z</time></trkpt><trkpt lat="45.7703382" lon="9.7420622"><ele>832.75</ele><time>2026-04-25T08:26:28.76Z</time></trkpt><trkpt lat="45.770217" lon="9.7421483"><ele>834.5</ele><time>2026-04-25T08:26:29.76Z</time></trkpt><trkpt lat="45.7700857" lon="9.7422611"><ele>836.25</ele><time>2026-04-25T08:26:30.76Z</time></trkpt><trkpt lat="45.770004" lon="9.7424046"><ele>838.0</ele><time>2026-04-25T08:26:31.76Z</time></trkpt><trkpt lat="45.7699745" lon="9.7425609"><ele>834.0</ele><time>2026-04-25T08:26:32.759Z</time></trkpt><trkpt lat="45.7699941" lon="9.7427205"><ele>830.0</ele><time>2026-04-25T08:26:33.76Z</time></trkpt><trkpt lat="45.7700593" lon="9.7428654"><ele>826.0</ele><time>2026-04-25T08:26:34.76Z</time></trkpt><trkpt lat="45.7701646" lon="9.7430006"><ele>822.0</ele><time>2026-04-25T08:26:35.76Z</time></trkpt><trkpt lat="45.7702703" lon="9.7431215"><ele>822.0</ele><time>2026-04-25T08:26:36.76Z</time></trkpt><trkpt lat="45.7703557" lon="9.7432397"><ele>822.0</ele><time>2026-04-25T08:26:37.759Z</time></trkpt><trkpt lat="45.7704267" lon="9.7433433"><ele>822.0</ele><time>2026-04-25T08:26:38.76Z</time></trkpt><trkpt lat="45.7704843" lon="9.7434299"><ele>822.0</ele><time>2026-04-25T08:26:39.76Z</time></trkpt><trkpt lat="45.7705566" lon="9.7435416"><ele>822.0</ele><time>2026-04-25T08:26:41.759Z</time></trkpt><trkpt lat="45.7706063" lon="9.7436113"><ele>822.0</ele><time>2026-04-25T08:26:43.759Z</time></trkpt><trkpt lat="45.7706827" lon="9.7436128"><ele>822.0</ele><time>2026-04-25T08:26:45.759Z</time></trkpt><trkpt lat="45.7706935" lon="9.7434869"><ele>822.0</ele><time>2026-04-25T08:26:47.759Z</time></trkpt><trkpt lat="45.7705854" lon="9.7433816"><ele>822.0</ele><time>2026-04-25T08:26:49.76Z</time></trkpt><trkpt lat="45.7705186" lon="9.7432816"><ele>822.0</ele><time>2026-04-25T08:26:50.759Z</time></trkpt><trkpt lat="45.7704562" lon="9.7431531"><ele>822.0</ele><time>2026-04-25T08:26:51.76Z</time></trkpt><trkpt lat="45.7703908" lon="9.7430119"><ele>822.0</ele><time>2026-04-25T08:26:52.759Z</time></trkpt><trkpt lat="45.7703302" lon="9.7428836"><ele>822.0</ele><time>2026-04-25T08:26:53.759Z</time></trkpt><trkpt lat="45.7703012" lon="9.7427555"><ele>822.0</ele><time>2026-04-25T08:26:54.76Z</time></trkpt><trkpt lat="45.7703245" lon="9.7426488"><ele>822.0</ele><time>2026-04-25T08:26:55.76Z</time></trkpt><trkpt lat="45.7703926" lon="9.7425851"><ele>826.0</ele><time>2026-04-25T08:26:56.759Z</time></trkpt><trkpt lat="45.7705007" lon="9.7425255"><ele>830.0</ele><time>2026-04-25T08:26:57.759Z</time></trkpt><trkpt lat="45.7706128" lon="9.7424344"><ele>834.0</ele><time>2026-04-25T08:26:58.759Z</time></trkpt><trkpt lat="45.7707115" lon="9.7422945"><ele>838.0</ele><time>2026-04-25T08:26:59.76Z</time></trkpt><trkpt lat="45.7707838" lon="9.7421138"><ele>838.0</ele><time>2026-04-25T08:27:00.76Z</time></trkpt><trkpt lat="45.7708159" lon="9.7419024"><ele>838.0</ele><time>2026-04-25T08:27:01.759Z</time></trkpt><trkpt lat="45.7708349" lon="9.7417025"><ele>838.0</ele><time>2026-04-25T08:27:02.759Z</time></trkpt><trkpt lat="45.7708676" lon="9.7415269"><ele>838.0</ele><time>2026-04-25T08:27:03.759Z</time></trkpt><trkpt lat="45.7709166" lon="9.7413738"><ele>836.5999999999999</ele><time>2026-04-25T08:27:04.759Z</time></trkpt><trkpt lat="45.7709723" lon="9.741244"><ele>835.1999999999999</ele><time>2026-04-25T08:27:05.759Z</time></trkpt><trkpt lat="45.7710308" lon="9.7411235"><ele>833.8</ele><time>2026-04-25T08:27:06.759Z</time></trkpt><trkpt lat="45.771106" lon="9.7409975"><ele>832.4</ele><time>2026-04-25T08:27:07.76Z</time></trkpt><trkpt lat="45.7711819" lon="9.74086"><ele>831.0</ele><time>2026-04-25T08:27:08.76Z</time></trkpt><trkpt lat="45.7712392" lon="9.7407247"><ele>834.8333333333334</ele><time>2026-04-25T08:27:09.76Z</time></trkpt><trkpt lat="45.7713142" lon="9.7406155"><ele>838.6666666666667</ele><time>2026-04-25T08:27:10.76Z</time></trkpt><trkpt lat="45.7713814" lon="9.7405748"><ele>842.5</ele><time>2026-04-25T08:27:11.76Z</time></trkpt><trkpt lat="45.771449" lon="9.7405878"><ele>846.3333333333334</ele><time>2026-04-25T08:27:13.759Z</time></trkpt><trkpt lat="45.7713997" lon="9.7406899"><ele>850.1666666666667</ele><time>2026-04-25T08:27:16.757Z</time></trkpt><trkpt lat="45.7713416" lon="9.740742"><ele>854.0</ele><time>2026-04-25T08:27:17.759Z</time></trkpt><trkpt lat="45.7712834" lon="9.740852"><ele>854.0</ele><time>2026-04-25T08:27:18.76Z</time></trkpt><trkpt lat="45.7712261" lon="9.7409724"><ele>854.0</ele><time>2026-04-25T08:27:19.758Z</time></trkpt><trkpt lat="45.7711586" lon="9.7411132"><ele>854.0</ele><time>2026-04-25T08:27:20.759Z</time></trkpt><trkpt lat="45.7710828" lon="9.7412708"><ele>854.0</ele><time>2026-04-25T08:27:21.759Z</time></trkpt><trkpt lat="45.7710363" lon="9.7414626"><ele>851.3333333333334</ele><time>2026-04-25T08:27:22.759Z</time></trkpt><trkpt lat="45.7710261" lon="9.7416937"><ele>848.6666666666667</ele><time>2026-04-25T08:27:23.76Z</time></trkpt><trkpt lat="45.7710371" lon="9.7419387"><ele>846.0</ele><time>2026-04-25T08:27:24.759Z</time></trkpt><trkpt lat="45.7710405" lon="9.7421508"><ele>846.0</ele><time>2026-04-25T08:27:25.76Z</time></trkpt><trkpt lat="45.7710477" lon="9.7423354"><ele>846.0</ele><time>2026-04-25T08:27:26.759Z</time></trkpt><trkpt lat="45.771081" lon="9.7424786"><ele>846.0</ele><time>2026-04-25T08:27:27.76Z</time></trkpt><trkpt lat="45.7711407" lon="9.7425781"><ele>846.0</ele><time>2026-04-25T08:27:28.76Z</time></trkpt><trkpt lat="45.7712357" lon="9.7426144"><ele>846.0</ele><time>2026-04-25T08:27:29.76Z</time></trkpt><trkpt lat="45.7713604" lon="9.7425991"><ele>846.0</ele><time>2026-04-25T08:27:30.76Z</time></trkpt><trkpt lat="45.7715015" lon="9.7425473"><ele>846.0</ele><time>2026-04-25T08:27:31.759Z</time></trkpt><trkpt lat="45.7716692" lon="9.7424694"><ele>846.0</ele><time>2026-04-25T08:27:32.759Z</time></trkpt><trkpt lat="45.7718552" lon="9.7423703"><ele>846.6666666666667</ele><time>2026-04-25T08:27:33.759Z</time></trkpt><trkpt lat="45.7720563" lon="9.7422678"><ele>847.3333333333334</ele><time>2026-04-25T08:27:34.759Z</time></trkpt><trkpt lat="45.7722498" lon="9.7421875"><ele>848.0</ele><time>2026-04-25T08:27:35.759Z</time></trkpt><trkpt lat="45.7724289" lon="9.7421348"><ele>848.0</ele><time>2026-04-25T08:27:36.759Z</time></trkpt><trkpt lat="45.7726016" lon="9.742127"><ele>848.0</ele><time>2026-04-25T08:27:37.759Z</time></trkpt><trkpt lat="45.7727658" lon="9.7421531"><ele>848.0</ele><time>2026-04-25T08:27:38.759Z</time></trkpt><trkpt lat="45.7729399" lon="9.7421452"><ele>850.0</ele><time>2026-04-25T08:27:39.759Z</time></trkpt><trkpt lat="45.7731233" lon="9.7421044"><ele>852.0</ele><time>2026-04-25T08:27:40.759Z</time></trkpt><trkpt lat="45.7733106" lon="9.7420451"><ele>854.0</ele><time>2026-04-25T08:27:41.76Z</time></trkpt><trkpt lat="45.7734731" lon="9.7420206"><ele>852.3333333333334</ele><time>2026-04-25T08:27:42.759Z</time></trkpt><trkpt lat="45.7736209" lon="9.7420565"><ele>850.6666666666667</ele><time>2026-04-25T08:27:43.759Z</time></trkpt><trkpt lat="45.7737655" lon="9.7420742"><ele>849.0</ele><time>2026-04-25T08:27:44.76Z</time></trkpt><trkpt lat="45.7739171" lon="9.7420143"><ele>849.0</ele><time>2026-04-25T08:27:45.759Z</time></trkpt><trkpt lat="45.7740554" lon="9.7418911"><ele>849.0</ele><time>2026-04-25T08:27:46.759Z</time></trkpt><trkpt lat="45.7741729" lon="9.7417279"><ele>849.0</ele><time>2026-04-25T08:27:47.76Z</time></trkpt><trkpt lat="45.7742737" lon="9.7415733"><ele>853.0</ele><time>2026-04-25T08:27:48.759Z</time></trkpt><trkpt lat="45.7743737" lon="9.7414398"><ele>857.0</ele><time>2026-04-25T08:27:49.76Z</time></trkpt><trkpt lat="45.7744816" lon="9.7413558"><ele>861.0</ele><time>2026-04-25T08:27:50.76Z</time></trkpt><trkpt lat="45.7745982" lon="9.7413351"><ele>865.0</ele><time>2026-04-25T08:27:51.759Z</time></trkpt><trkpt lat="45.7747183" lon="9.7413591"><ele>865.0</ele><time>2026-04-25T08:27:52.759Z</time></trkpt><trkpt lat="45.774848" lon="9.7413484"><ele>865.0</ele><time>2026-04-25T08:27:53.76Z</time></trkpt><trkpt lat="45.7749762" lon="9.741261"><ele>865.0</ele><time>2026-04-25T08:27:54.76Z</time></trkpt><trkpt lat="45.7750832" lon="9.7411137"><ele>865.0</ele><time>2026-04-25T08:27:55.76Z</time></trkpt><trkpt lat="45.7751746" lon="9.7409338"><ele>866.75</ele><time>2026-04-25T08:27:56.76Z</time></trkpt><trkpt lat="45.7752659" lon="9.74076"><ele>868.5</ele><time>2026-04-25T08:27:57.76Z</time></trkpt><trkpt lat="45.7753572" lon="9.7405922"><ele>870.25</ele><time>2026-04-25T08:27:58.759Z</time></trkpt><trkpt lat="45.7754474" lon="9.7404286"><ele>872.0</ele><time>2026-04-25T08:27:59.759Z</time></trkpt><trkpt lat="45.7755661" lon="9.7403101"><ele>872.0</ele><time>2026-04-25T08:28:00.759Z</time></trkpt><trkpt lat="45.7757137" lon="9.7402517"><ele>872.0</ele><time>2026-04-25T08:28:01.76Z</time></trkpt><trkpt lat="45.7758653" lon="9.7401902"><ele>872.0</ele><time>2026-04-25T08:28:02.759Z</time></trkpt><trkpt lat="45.776016" lon="9.7400987"><ele>881.6666666666667</ele><time>2026-04-25T08:28:03.759Z</time></trkpt><trkpt lat="45.7761616" lon="9.7399465"><ele>891.3333333333333</ele><time>2026-04-25T08:28:04.759Z</time></trkpt><trkpt lat="45.7762799" lon="9.7397797"><ele>901.0</ele><time>2026-04-25T08:28:05.76Z</time></trkpt><trkpt lat="45.7763976" lon="9.7396633"><ele>901.0</ele><time>2026-04-25T08:28:06.759Z</time></trkpt><trkpt lat="45.7765284" lon="9.7396131"><ele>901.0</ele><time>2026-04-25T08:28:07.759Z</time></trkpt><trkpt lat="45.7766782" lon="9.7396417"><ele>901.0</ele><time>2026-04-25T08:28:08.759Z</time></trkpt><trkpt lat="45.7768136" lon="9.7396796"><ele>901.0</ele><time>2026-04-25T08:28:09.76Z</time></trkpt><trkpt lat="45.7769399" lon="9.7397226"><ele>907.5</ele><time>2026-04-25T08:28:10.76Z</time></trkpt><trkpt lat="45.7770397" lon="9.7398262"><ele>914.0</ele><time>2026-04-25T08:28:11.759Z</time></trkpt><trkpt lat="45.7771003" lon="9.7399777"><ele>920.5</ele><time>2026-04-25T08:28:12.759Z</time></trkpt><trkpt lat="45.7771057" lon="9.7401622"><ele>927.0</ele><time>2026-04-25T08:28:13.76Z</time></trkpt><trkpt lat="45.7770708" lon="9.7403619"><ele>927.0</ele><time>2026-04-25T08:28:14.76Z</time></trkpt><trkpt lat="45.7770303" lon="9.7405979"><ele>927.0</ele><time>2026-04-25T08:28:15.759Z</time></trkpt><trkpt lat="45.7770014" lon="9.7408523"><ele>927.0</ele><time>2026-04-25T08:28:16.759Z</time></trkpt><trkpt lat="45.7769891" lon="9.7411065"><ele>925.3333333333333</ele><time>2026-04-25T08:28:17.758Z</time></trkpt><trkpt lat="45.7769882" lon="9.7413497"><ele>923.6666666666666</ele><time>2026-04-25T08:28:18.759Z</time></trkpt><trkpt lat="45.7770046" lon="9.7415898"><ele>922.0</ele><time>2026-04-25T08:28:19.759Z</time></trkpt><trkpt lat="45.7770547" lon="9.7418175"><ele>921.0</ele><time>2026-04-25T08:28:20.759Z</time></trkpt><trkpt lat="45.7771302" lon="9.7420349"><ele>920.0</ele><time>2026-04-25T08:28:21.759Z</time></trkpt><trkpt lat="45.7772041" lon="9.7422517"><ele>919.0</ele><time>2026-04-25T08:28:22.76Z</time></trkpt><trkpt lat="45.7772271" lon="9.742486"><ele>919.0</ele><time>2026-04-25T08:28:23.76Z</time></trkpt><trkpt lat="45.777212" lon="9.7426942"><ele>919.0</ele><time>2026-04-25T08:28:24.759Z</time></trkpt><trkpt lat="45.7771902" lon="9.7428857"><ele>919.0</ele><time>2026-04-25T08:28:25.76Z</time></trkpt><trkpt lat="45.777184" lon="9.7430675"><ele>919.0</ele><time>2026-04-25T08:28:26.759Z</time></trkpt><trkpt lat="45.7772207" lon="9.743225"><ele>916.0</ele><time>2026-04-25T08:28:27.76Z</time></trkpt><trkpt lat="45.7773065" lon="9.7433397"><ele>913.0</ele><time>2026-04-25T08:28:28.759Z</time></trkpt><trkpt lat="45.7774071" lon="9.743412"><ele>910.0</ele><time>2026-04-25T08:28:29.76Z</time></trkpt><trkpt lat="45.7775084" lon="9.7434814"><ele>907.0</ele><time>2026-04-25T08:28:30.759Z</time></trkpt><trkpt lat="45.7776057" lon="9.7435509"><ele>908.4000000000001</ele><time>2026-04-25T08:28:31.759Z</time></trkpt><trkpt lat="45.7777023" lon="9.7436071"><ele>909.8000000000001</ele><time>2026-04-25T08:28:32.759Z</time></trkpt><trkpt lat="45.7778016" lon="9.7436461"><ele>911.2</ele><time>2026-04-25T08:28:33.76Z</time></trkpt><trkpt lat="45.7779053" lon="9.7436659"><ele>912.6</ele><time>2026-04-25T08:28:34.76Z</time></trkpt><trkpt lat="45.7780105" lon="9.7436749"><ele>914.0</ele><time>2026-04-25T08:28:35.759Z</time></trkpt><trkpt lat="45.7781172" lon="9.7436785"><ele>914.0</ele><time>2026-04-25T08:28:36.759Z</time></trkpt><trkpt lat="45.7782257" lon="9.7436777"><ele>914.0000000000001</ele><time>2026-04-25T08:28:37.76Z</time></trkpt><trkpt lat="45.7783322" lon="9.7436754"><ele>914.0000000000001</ele><time>2026-04-25T08:28:38.759Z</time></trkpt><trkpt lat="45.7784336" lon="9.7436703"><ele>914.0</ele><time>2026-04-25T08:28:39.76Z</time></trkpt><trkpt lat="45.7785244" lon="9.7436692"><ele>914.0</ele><time>2026-04-25T08:28:40.759Z</time></trkpt><trkpt lat="45.7786063" lon="9.7436824"><ele>915.1428571428573</ele><time>2026-04-25T08:28:41.76Z</time></trkpt><trkpt lat="45.7786796" lon="9.7437165"><ele>916.2857142857143</ele><time>2026-04-25T08:28:42.759Z</time></trkpt><trkpt lat="45.7787497" lon="9.743763"><ele>917.4285714285716</ele><time>2026-04-25T08:28:43.759Z</time></trkpt><trkpt lat="45.7788092" lon="9.7438288"><ele>918.5714285714287</ele><time>2026-04-25T08:28:44.76Z</time></trkpt><trkpt lat="45.7788602" lon="9.7438968"><ele>919.7142857142858</ele><time>2026-04-25T08:28:45.759Z</time></trkpt><trkpt lat="45.7789037" lon="9.7439777"><ele>920.8571428571429</ele><time>2026-04-25T08:28:46.759Z</time></trkpt><trkpt lat="45.7789353" lon="9.7440605"><ele>922.0</ele><time>2026-04-25T08:28:47.759Z</time></trkpt><trkpt lat="45.778965" lon="9.7441539"><ele>921.9999999999999</ele><time>2026-04-25T08:28:48.759Z</time></trkpt><trkpt lat="45.7789891" lon="9.7442543"><ele>922.0</ele><time>2026-04-25T08:28:49.76Z</time></trkpt><trkpt lat="45.7790101" lon="9.7443625"><ele>922.0</ele><time>2026-04-25T08:28:50.759Z</time></trkpt><trkpt lat="45.7790445" lon="9.7444696"><ele>922.0</ele><time>2026-04-25T08:28:51.759Z</time></trkpt><trkpt lat="45.7790932" lon="9.7445655"><ele>921.9999999999999</ele><time>2026-04-25T08:28:52.76Z</time></trkpt><trkpt lat="45.7791433" lon="9.7446615"><ele>922.0</ele><time>2026-04-25T08:28:53.759Z</time></trkpt><trkpt lat="45.7791892" lon="9.7447616"><ele>921.9999999999999</ele><time>2026-04-25T08:28:54.76Z</time></trkpt><trkpt lat="45.7792268" lon="9.7448688"><ele>922.0</ele><time>2026-04-25T08:28:55.759Z</time></trkpt><trkpt lat="45.7792533" lon="9.7449832"><ele>922.0</ele><time>2026-04-25T08:28:56.76Z</time></trkpt><trkpt lat="45.7792763" lon="9.7451029"><ele>922.0</ele><time>2026-04-25T08:28:57.76Z</time></trkpt><trkpt lat="45.779296" lon="9.7452294"><ele>921.9999999999999</ele><time>2026-04-25T08:28:58.759Z</time></trkpt><trkpt lat="45.7793124" lon="9.7453521"><ele>922.0</ele><time>2026-04-25T08:28:59.759Z</time></trkpt><trkpt lat="45.7793287" lon="9.7454756"><ele>921.6666666666666</ele><time>2026-04-25T08:29:00.759Z</time></trkpt><trkpt lat="45.7793455" lon="9.7456001"><ele>921.3333333333333</ele><time>2026-04-25T08:29:01.759Z</time></trkpt><trkpt lat="45.779362" lon="9.7457254"><ele>921.0</ele><time>2026-04-25T08:29:02.758Z</time></trkpt><trkpt lat="45.7793753" lon="9.7458481"><ele>920.6666666666667</ele><time>2026-04-25T08:29:03.759Z</time></trkpt><trkpt lat="45.7793859" lon="9.7459665"><ele>920.3333333333334</ele><time>2026-04-25T08:29:04.759Z</time></trkpt><trkpt lat="45.7793882" lon="9.7460796"><ele>920.0</ele><time>2026-04-25T08:29:05.759Z</time></trkpt><trkpt lat="45.7793869" lon="9.7461877"><ele>920.2</ele><time>2026-04-25T08:29:06.76Z</time></trkpt><trkpt lat="45.7793716" lon="9.746282"><ele>920.4</ele><time>2026-04-25T08:29:07.759Z</time></trkpt><trkpt lat="45.7793456" lon="9.7464217"><ele>920.5999999999999</ele><time>2026-04-25T08:29:09.76Z</time></trkpt><trkpt lat="45.7793569" lon="9.7465652"><ele>920.8</ele><time>2026-04-25T08:34:24.751Z</time></trkpt><trkpt lat="45.7793964" lon="9.7467275"><ele>921.0</ele><time>2026-04-25T08:34:26.75Z</time></trkpt><trkpt lat="45.7794298" lon="9.7468181"><ele>924.3333333333334</ele><time>2026-04-25T08:34:27.751Z</time></trkpt><trkpt lat="45.7794701" lon="9.7469113"><ele>927.6666666666667</ele><time>2026-04-25T08:34:28.75Z</time></trkpt><trkpt lat="45.7795143" lon="9.7470102"><ele>931.0</ele><time>2026-04-25T08:34:29.751Z</time></trkpt><trkpt lat="45.7795574" lon="9.7471134"><ele>934.3333333333334</ele><time>2026-04-25T08:34:30.75Z</time></trkpt><trkpt lat="45.7795991" lon="9.7472216"><ele>937.6666666666667</ele><time>2026-04-25T08:34:31.751Z</time></trkpt><trkpt lat="45.7796362" lon="9.7473278"><ele>941.0</ele><time>2026-04-25T08:34:32.75Z</time></trkpt><trkpt lat="45.7796659" lon="9.7474272"><ele>941.0000000000001</ele><time>2026-04-25T08:34:33.751Z</time></trkpt><trkpt lat="45.7796822" lon="9.7475216"><ele>941.0</ele><time>2026-04-25T08:34:34.751Z</time></trkpt><trkpt lat="45.7796861" lon="9.7476214"><ele>941.0</ele><time>2026-04-25T08:34:35.75Z</time></trkpt><trkpt lat="45.7796687" lon="9.7477284"><ele>941.0</ele><time>2026-04-25T08:34:36.75Z</time></trkpt><trkpt lat="45.7796346" lon="9.7478355"><ele>941.0000000000001</ele><time>2026-04-25T08:34:37.751Z</time></trkpt><trkpt lat="45.7795944" lon="9.7479479"><ele>941.0</ele><time>2026-04-25T08:34:38.75Z</time></trkpt><trkpt lat="45.779553" lon="9.7480693"><ele>941.0</ele><time>2026-04-25T08:34:39.751Z</time></trkpt><trkpt lat="45.7795204" lon="9.7481974"><ele>940.9999999999999</ele><time>2026-04-25T08:34:40.75Z</time></trkpt><trkpt lat="45.7795013" lon="9.7483359"><ele>940.9999999999999</ele><time>2026-04-25T08:34:41.75Z</time></trkpt><trkpt lat="45.7795076" lon="9.7484736"><ele>941.0</ele><time>2026-04-25T08:34:42.751Z</time></trkpt><trkpt lat="45.7795379" lon="9.7486055"><ele>941.0</ele><time>2026-04-25T08:34:43.75Z</time></trkpt><trkpt lat="45.7796001" lon="9.7487198"><ele>941.0</ele><time>2026-04-25T08:34:44.751Z</time></trkpt><trkpt lat="45.7796696" lon="9.7488305"><ele>940.9999999999999</ele><time>2026-04-25T08:34:45.75Z</time></trkpt><trkpt lat="45.7797452" lon="9.7489438"><ele>940.9999999999999</ele><time>2026-04-25T08:34:46.751Z</time></trkpt><trkpt lat="45.7798233" lon="9.7490619"><ele>941.0</ele><time>2026-04-25T08:34:47.751Z</time></trkpt><trkpt lat="45.7799044" lon="9.7491852"><ele>941.0</ele><time>2026-04-25T08:34:48.751Z</time></trkpt><trkpt lat="45.7799841" lon="9.7493089"><ele>941.0</ele><time>2026-04-25T08:34:49.751Z</time></trkpt><trkpt lat="45.7800619" lon="9.7494273"><ele>940.9999999999999</ele><time>2026-04-25T08:34:50.75Z</time></trkpt><trkpt lat="45.7801359" lon="9.7495444"><ele>940.9999999999999</ele><time>2026-04-25T08:34:51.751Z</time></trkpt><trkpt lat="45.7802111" lon="9.7496588"><ele>941.0</ele><time>2026-04-25T08:34:52.751Z</time></trkpt><trkpt lat="45.7802848" lon="9.7497835"><ele>941.0</ele><time>2026-04-25T08:34:53.75Z</time></trkpt><trkpt lat="45.7803573" lon="9.7499029"><ele>941.1999999999999</ele><time>2026-04-25T08:34:54.75Z</time></trkpt><trkpt lat="45.780427" lon="9.7500273"><ele>941.3999999999999</ele><time>2026-04-25T08:34:55.751Z</time></trkpt><trkpt lat="45.7804956" lon="9.7501486"><ele>941.6</ele><time>2026-04-25T08:34:56.75Z</time></trkpt><trkpt lat="45.7805626" lon="9.7502638"><ele>941.8</ele><time>2026-04-25T08:34:57.75Z</time></trkpt><trkpt lat="45.7806251" lon="9.750368"><ele>942.0</ele><time>2026-04-25T08:34:58.751Z</time></trkpt><trkpt lat="45.7806763" lon="9.7504652"><ele>942.0000000000001</ele><time>2026-04-25T08:34:59.75Z</time></trkpt><trkpt lat="45.7807184" lon="9.7505468"><ele>942.0</ele><time>2026-04-25T08:35:00.751Z</time></trkpt><trkpt lat="45.7807809" lon="9.7506764"><ele>942.0000000000001</ele><time>2026-04-25T08:35:02.751Z</time></trkpt><trkpt lat="45.7808157" lon="9.7507609"><ele>942.0000000000001</ele><time>2026-04-25T08:35:05.75Z</time></trkpt><trkpt lat="45.7808531" lon="9.7508426"><ele>942.0</ele><time>2026-04-25T08:35:10.75Z</time></trkpt><trkpt lat="45.7809177" lon="9.7508746"><ele>942.0000000000001</ele><time>2026-04-25T08:35:13.751Z</time></trkpt><trkpt lat="45.7809678" lon="9.7508181"><ele>942.0000000000001</ele><time>2026-04-25T08:35:15.751Z</time></trkpt><trkpt lat="45.7810533" lon="9.7507143"><ele>942.1666666666666</ele><time>2026-04-25T08:35:17.75Z</time></trkpt><trkpt lat="45.7811098" lon="9.7506454"><ele>942.3333333333333</ele><time>2026-04-25T08:35:18.75Z</time></trkpt><trkpt lat="45.7811723" lon="9.7505733"><ele>942.5</ele><time>2026-04-25T08:35:19.75Z</time></trkpt><trkpt lat="45.781235" lon="9.7505017"><ele>942.6666666666666</ele><time>2026-04-25T08:35:20.75Z</time></trkpt><trkpt lat="45.7812964" lon="9.7504348"><ele>942.8333333333333</ele><time>2026-04-25T08:35:21.751Z</time></trkpt><trkpt lat="45.7813534" lon="9.7503707"><ele>943.0</ele><time>2026-04-25T08:35:22.75Z</time></trkpt><trkpt lat="45.7814058" lon="9.7503019"><ele>942.9999999999999</ele><time>2026-04-25T08:35:23.751Z</time></trkpt><trkpt lat="45.7814513" lon="9.7502228"><ele>943.0</ele><time>2026-04-25T08:35:24.75Z</time></trkpt><trkpt lat="45.7814937" lon="9.750124"><ele>943.0</ele><time>2026-04-25T08:35:25.75Z</time></trkpt><trkpt lat="45.7815337" lon="9.750014"><ele>943.0</ele><time>2026-04-25T08:35:26.75Z</time></trkpt><trkpt lat="45.7815786" lon="9.7499093"><ele>942.9999999999999</ele><time>2026-04-25T08:35:27.751Z</time></trkpt><trkpt lat="45.781624" lon="9.7498315"><ele>943.0</ele><time>2026-04-25T08:35:28.75Z</time></trkpt><trkpt lat="45.7817047" lon="9.7497284"><ele>943.5999999999999</ele><time>2026-04-25T08:35:30.751Z</time></trkpt><trkpt lat="45.7817742" lon="9.7496753"><ele>944.1999999999999</ele><time>2026-04-25T08:35:32.751Z</time></trkpt><trkpt lat="45.7818613" lon="9.7496567"><ele>944.8</ele><time>2026-04-25T08:35:35.75Z</time></trkpt><trkpt lat="45.7819478" lon="9.7496499"><ele>945.4</ele><time>2026-04-25T08:35:37.75Z</time></trkpt><trkpt lat="45.7820539" lon="9.7496724"><ele>946.0</ele><time>2026-04-25T08:35:39.75Z</time></trkpt><trkpt lat="45.782141" lon="9.7497225"><ele>946.1666666666666</ele><time>2026-04-25T08:35:41.75Z</time></trkpt><trkpt lat="45.7822153" lon="9.7497695"><ele>946.3333333333333</ele><time>2026-04-25T08:35:43.75Z</time></trkpt><trkpt lat="45.782316" lon="9.7497677"><ele>946.5</ele><time>2026-04-25T08:35:45.75Z</time></trkpt><trkpt lat="45.7823815" lon="9.7497506"><ele>946.6666666666667</ele><time>2026-04-25T08:35:46.75Z</time></trkpt><trkpt lat="45.7824566" lon="9.7497244"><ele>946.8333333333334</ele><time>2026-04-25T08:35:47.751Z</time></trkpt><trkpt lat="45.7825328" lon="9.7496955"><ele>947.0</ele><time>2026-04-25T08:35:48.75Z</time></trkpt><trkpt lat="45.7826072" lon="9.7496711"><ele>946.2</ele><time>2026-04-25T08:35:49.75Z</time></trkpt><trkpt lat="45.7826866" lon="9.7496472"><ele>945.4000000000001</ele><time>2026-04-25T08:35:50.75Z</time></trkpt><trkpt lat="45.7827677" lon="9.7496249"><ele>944.5999999999999</ele><time>2026-04-25T08:35:51.75Z</time></trkpt><trkpt lat="45.782844" lon="9.7496018"><ele>943.8</ele><time>2026-04-25T08:35:52.751Z</time></trkpt><trkpt lat="45.7829551" lon="9.7495628"><ele>943.0</ele><time>2026-04-25T08:35:54.75Z</time></trkpt><trkpt lat="45.7830576" lon="9.7495076"><ele>942.9999999999999</ele><time>2026-04-25T08:35:56.75Z</time></trkpt><trkpt lat="45.7831129" lon="9.7494531"><ele>943.0</ele><time>2026-04-25T08:35:57.75Z</time></trkpt><trkpt lat="45.7831743" lon="9.7493836"><ele>943.0</ele><time>2026-04-25T08:35:58.75Z</time></trkpt><trkpt lat="45.7832385" lon="9.7493122"><ele>943.0</ele><time>2026-04-25T08:35:59.751Z</time></trkpt><trkpt lat="45.7833067" lon="9.7492528"><ele>942.9999999999999</ele><time>2026-04-25T08:36:00.75Z</time></trkpt><trkpt lat="45.7833903" lon="9.7492261"><ele>943.0</ele><time>2026-04-25T08:36:01.751Z</time></trkpt><trkpt lat="45.7834879" lon="9.7492349"><ele>941.5999999999999</ele><time>2026-04-25T08:36:02.75Z</time></trkpt><trkpt lat="45.7835879" lon="9.749263"><ele>940.1999999999999</ele><time>2026-04-25T08:36:03.751Z</time></trkpt><trkpt lat="45.7836958" lon="9.7492971"><ele>938.8</ele><time>2026-04-25T08:36:04.751Z</time></trkpt><trkpt lat="45.7837917" lon="9.7493261"><ele>937.4</ele><time>2026-04-25T08:36:05.75Z</time></trkpt><trkpt lat="45.7838651" lon="9.7493479"><ele>936.0</ele><time>2026-04-25T08:36:06.751Z</time></trkpt><trkpt lat="45.783933" lon="9.7493764"><ele>936.0</ele><time>2026-04-25T08:36:07.75Z</time></trkpt><trkpt lat="45.7840108" lon="9.7494155"><ele>935.9999999999999</ele><time>2026-04-25T08:36:08.751Z</time></trkpt><trkpt lat="45.7840891" lon="9.7494706"><ele>935.9999999999999</ele><time>2026-04-25T08:36:09.75Z</time></trkpt><trkpt lat="45.7841733" lon="9.7495358"><ele>936.0</ele><time>2026-04-25T08:36:10.75Z</time></trkpt><trkpt lat="45.7842629" lon="9.7496066"><ele>936.0</ele><time>2026-04-25T08:36:11.75Z</time></trkpt><trkpt lat="45.7843546" lon="9.7496736"><ele>935.3333333333334</ele><time>2026-04-25T08:36:12.751Z</time></trkpt><trkpt lat="45.7844486" lon="9.7497395"><ele>934.6666666666667</ele><time>2026-04-25T08:36:13.751Z</time></trkpt><trkpt lat="45.7845341" lon="9.749796"><ele>934.0</ele><time>2026-04-25T08:36:14.751Z</time></trkpt><trkpt lat="45.7846068" lon="9.7498472"><ele>933.3333333333334</ele><time>2026-04-25T08:36:15.75Z</time></trkpt><trkpt lat="45.784673" lon="9.7498966"><ele>932.6666666666667</ele><time>2026-04-25T08:36:16.75Z</time></trkpt><trkpt lat="45.7847274" lon="9.7499621"><ele>932.0</ele><time>2026-04-25T08:36:17.75Z</time></trkpt><trkpt lat="45.7847591" lon="9.7500532"><ele>932.0000000000001</ele><time>2026-04-25T08:36:18.751Z</time></trkpt><trkpt lat="45.7847563" lon="9.750153"><ele>932.0</ele><time>2026-04-25T08:36:19.75Z</time></trkpt><trkpt lat="45.7847355" lon="9.7502538"><ele>932.0</ele><time>2026-04-25T08:36:20.75Z</time></trkpt><trkpt lat="45.7847037" lon="9.7503615"><ele>932.0</ele><time>2026-04-25T08:36:21.751Z</time></trkpt><trkpt lat="45.7847001" lon="9.7504883"><ele>932.0000000000001</ele><time>2026-04-25T08:36:22.75Z</time></trkpt><trkpt lat="45.7847201" lon="9.7506109"><ele>932.0</ele><time>2026-04-25T08:36:23.75Z</time></trkpt><trkpt lat="45.7847356" lon="9.7507253"><ele>933.6</ele><time>2026-04-25T08:36:24.751Z</time></trkpt><trkpt lat="45.7847513" lon="9.7508403"><ele>935.2</ele><time>2026-04-25T08:36:25.751Z</time></trkpt><trkpt lat="45.7847648" lon="9.7509694"><ele>936.8</ele><time>2026-04-25T08:36:26.75Z</time></trkpt><trkpt lat="45.7847692" lon="9.7511104"><ele>938.4</ele><time>2026-04-25T08:36:27.75Z</time></trkpt><trkpt lat="45.7847674" lon="9.7512638"><ele>940.0</ele><time>2026-04-25T08:36:28.75Z</time></trkpt><trkpt lat="45.7847589" lon="9.7514192"><ele>942.0</ele><time>2026-04-25T08:36:29.751Z</time></trkpt><trkpt lat="45.7847471" lon="9.7515765"><ele>944.0</ele><time>2026-04-25T08:36:30.751Z</time></trkpt><trkpt lat="45.784734" lon="9.7517354"><ele>946.0</ele><time>2026-04-25T08:36:31.75Z</time></trkpt><trkpt lat="45.7847297" lon="9.7519005"><ele>948.0</ele><time>2026-04-25T08:36:32.751Z</time></trkpt><trkpt lat="45.7847283" lon="9.7520707"><ele>949.5</ele><time>2026-04-25T08:36:33.75Z</time></trkpt><trkpt lat="45.7847313" lon="9.7522426"><ele>951.0</ele><time>2026-04-25T08:36:34.75Z</time></trkpt><trkpt lat="45.7847231" lon="9.7524145"><ele>952.5</ele><time>2026-04-25T08:36:35.751Z</time></trkpt><trkpt lat="45.7847117" lon="9.7525934"><ele>954.0</ele><time>2026-04-25T08:36:36.75Z</time></trkpt><trkpt lat="45.7847071" lon="9.7527614"><ele>956.2</ele><time>2026-04-25T08:36:37.751Z</time></trkpt><trkpt lat="45.7847198" lon="9.7529057"><ele>958.4000000000001</ele><time>2026-04-25T08:36:38.75Z</time></trkpt><trkpt lat="45.7847497" lon="9.7530376"><ele>960.6</ele><time>2026-04-25T08:36:39.751Z</time></trkpt><trkpt lat="45.7848094" lon="9.753145"><ele>962.8</ele><time>2026-04-25T08:36:40.751Z</time></trkpt><trkpt lat="45.784886" lon="9.753232"><ele>965.0</ele><time>2026-04-25T08:36:41.75Z</time></trkpt><trkpt lat="45.784974" lon="9.7533162"><ele>965.0000000000001</ele><time>2026-04-25T08:36:42.751Z</time></trkpt><trkpt lat="45.7850542" lon="9.753405"><ele>965.0</ele><time>2026-04-25T08:36:43.751Z</time></trkpt><trkpt lat="45.7851103" lon="9.7535081"><ele>965.0</ele><time>2026-04-25T08:36:44.751Z</time></trkpt><trkpt lat="45.7851365" lon="9.7536397"><ele>965.0</ele><time>2026-04-25T08:36:45.75Z</time></trkpt><trkpt lat="45.7851457" lon="9.7537538"><ele>965.0000000000001</ele><time>2026-04-25T08:36:46.75Z</time></trkpt><trkpt lat="45.7851539" lon="9.7538512"><ele>965.0</ele><time>2026-04-25T08:36:47.75Z</time></trkpt><trkpt lat="45.7851832" lon="9.7540064"><ele>965.8333333333334</ele><time>2026-04-25T08:36:49.75Z</time></trkpt><trkpt lat="45.7853027" lon="9.7540618"><ele>966.6666666666667</ele><time>2026-04-25T08:36:51.751Z</time></trkpt><trkpt lat="45.7853724" lon="9.7540711"><ele>967.5</ele><time>2026-04-25T08:36:52.75Z</time></trkpt><trkpt lat="45.7854459" lon="9.7540904"><ele>968.3333333333333</ele><time>2026-04-25T08:36:54.75Z</time></trkpt><trkpt lat="45.7855069" lon="9.7541361"><ele>969.1666666666666</ele><time>2026-04-25T08:36:58.75Z</time></trkpt><trkpt lat="45.7855699" lon="9.7541428"><ele>970.0</ele><time>2026-04-25T08:37:05.75Z</time></trkpt><trkpt lat="45.7855126" lon="9.7540805"><ele>970.0</ele><time>2026-04-25T08:37:13.75Z</time></trkpt><trkpt lat="45.7853993" lon="9.7540731"><ele>970.0</ele><time>2026-04-25T08:37:15.75Z</time></trkpt><trkpt lat="45.7852786" lon="9.7540575"><ele>970.0</ele><time>2026-04-25T08:37:17.751Z</time></trkpt><trkpt lat="45.7851932" lon="9.7539815"><ele>970.0</ele><time>2026-04-25T08:37:19.75Z</time></trkpt><trkpt lat="45.7851653" lon="9.7538379"><ele>970.0</ele><time>2026-04-25T08:37:21.75Z</time></trkpt><trkpt lat="45.7851572" lon="9.7537373"><ele>969.9999999999999</ele><time>2026-04-25T08:37:22.751Z</time></trkpt><trkpt lat="45.7851492" lon="9.7536244"><ele>970.0</ele><time>2026-04-25T08:37:23.75Z</time></trkpt><trkpt lat="45.7851289" lon="9.7535165"><ele>970.0</ele><time>2026-04-25T08:37:24.75Z</time></trkpt><trkpt lat="45.7850873" lon="9.7534182"><ele>970.0</ele><time>2026-04-25T08:37:25.75Z</time></trkpt><trkpt lat="45.7850221" lon="9.7533355"><ele>969.9999999999999</ele><time>2026-04-25T08:37:26.751Z</time></trkpt><trkpt lat="45.7849485" lon="9.7532668"><ele>970.0</ele><time>2026-04-25T08:37:27.75Z</time></trkpt><trkpt lat="45.7848788" lon="9.7531958"><ele>969.0</ele><time>2026-04-25T08:37:28.751Z</time></trkpt><trkpt lat="45.7848165" lon="9.7531124"><ele>968.0</ele><time>2026-04-25T08:37:29.751Z</time></trkpt><trkpt lat="45.7847644" lon="9.7530074"><ele>967.0</ele><time>2026-04-25T08:37:30.75Z</time></trkpt><trkpt lat="45.7847325" lon="9.7528784"><ele>966.0</ele><time>2026-04-25T08:37:31.75Z</time></trkpt><trkpt lat="45.7847278" lon="9.752736"><ele>965.0</ele><time>2026-04-25T08:37:32.751Z</time></trkpt><trkpt lat="45.7847371" lon="9.7525873"><ele>962.8</ele><time>2026-04-25T08:37:33.75Z</time></trkpt><trkpt lat="45.7847474" lon="9.7524361"><ele>960.6</ele><time>2026-04-25T08:37:34.751Z</time></trkpt><trkpt lat="45.7847497" lon="9.7522888"><ele>958.4000000000001</ele><time>2026-04-25T08:37:35.75Z</time></trkpt><trkpt lat="45.7847481" lon="9.7521449"><ele>956.2</ele><time>2026-04-25T08:37:36.751Z</time></trkpt><trkpt lat="45.7847451" lon="9.7520024"><ele>954.0</ele><time>2026-04-25T08:37:37.75Z</time></trkpt><trkpt lat="45.7847485" lon="9.7518583"><ele>952.8000000000001</ele><time>2026-04-25T08:37:38.751Z</time></trkpt><trkpt lat="45.7847546" lon="9.751717"><ele>951.6000000000001</ele><time>2026-04-25T08:37:39.751Z</time></trkpt><trkpt lat="45.7847646" lon="9.7515751"><ele>950.4</ele><time>2026-04-25T08:37:40.75Z</time></trkpt><trkpt lat="45.7847762" lon="9.7514262"><ele>949.2</ele><time>2026-04-25T08:37:41.751Z</time></trkpt><trkpt lat="45.7847823" lon="9.7512782"><ele>948.0</ele><time>2026-04-25T08:37:42.751Z</time></trkpt><trkpt lat="45.7847813" lon="9.7511285"><ele>946.4</ele><time>2026-04-25T08:37:43.75Z</time></trkpt><trkpt lat="45.7847779" lon="9.750982"><ele>944.8</ele><time>2026-04-25T08:37:44.75Z</time></trkpt><trkpt lat="45.784766" lon="9.7508294"><ele>943.2</ele><time>2026-04-25T08:37:45.75Z</time></trkpt><trkpt lat="45.7847467" lon="9.7506838"><ele>941.6</ele><time>2026-04-25T08:37:46.751Z</time></trkpt><trkpt lat="45.7847273" lon="9.7505429"><ele>940.0</ele><time>2026-04-25T08:37:47.751Z</time></trkpt><trkpt lat="45.784728" lon="9.7504078"><ele>939.9999999999999</ele><time>2026-04-25T08:37:48.751Z</time></trkpt><trkpt lat="45.7847589" lon="9.750282"><ele>940.0</ele><time>2026-04-25T08:37:49.751Z</time></trkpt><trkpt lat="45.7848044" lon="9.7501914"><ele>940.0</ele><time>2026-04-25T08:37:50.751Z</time></trkpt><trkpt lat="45.7848524" lon="9.7500805"><ele>940.0</ele><time>2026-04-25T08:37:52.75Z</time></trkpt><trkpt lat="45.7848231" lon="9.7499571"><ele>939.9999999999999</ele><time>2026-04-25T08:37:54.751Z</time></trkpt><trkpt lat="45.7847633" lon="9.7499079"><ele>940.0</ele><time>2026-04-25T08:37:55.75Z</time></trkpt><trkpt lat="45.7846804" lon="9.7498531"><ele>939.2</ele><time>2026-04-25T08:37:56.751Z</time></trkpt><trkpt lat="45.7845959" lon="9.7497905"><ele>938.4</ele><time>2026-04-25T08:37:57.75Z</time></trkpt><trkpt lat="45.7845003" lon="9.7497248"><ele>937.5999999999999</ele><time>2026-04-25T08:37:58.75Z</time></trkpt><trkpt lat="45.7844012" lon="9.7496545"><ele>936.8</ele><time>2026-04-25T08:37:59.751Z</time></trkpt><trkpt lat="45.7842973" lon="9.7495753"><ele>936.0</ele><time>2026-04-25T08:38:00.75Z</time></trkpt><trkpt lat="45.7841755" lon="9.7494781"><ele>936.0</ele><time>2026-04-25T08:38:01.751Z</time></trkpt><trkpt lat="45.7840505" lon="9.7493961"><ele>936.0</ele><time>2026-04-25T08:38:02.751Z</time></trkpt><trkpt lat="45.7839248" lon="9.7493399"><ele>936.0</ele><time>2026-04-25T08:38:03.75Z</time></trkpt><trkpt lat="45.7837986" lon="9.7492981"><ele>936.0</ele><time>2026-04-25T08:38:04.751Z</time></trkpt><trkpt lat="45.7836738" lon="9.749263"><ele>936.25</ele><time>2026-04-25T08:38:05.751Z</time></trkpt><trkpt lat="45.783556" lon="9.7492223"><ele>936.5</ele><time>2026-04-25T08:38:06.751Z</time></trkpt><trkpt lat="45.7834475" lon="9.7491938"><ele>936.75</ele><time>2026-04-25T08:38:07.75Z</time></trkpt><trkpt lat="45.7833402" lon="9.7492042"><ele>937.0</ele><time>2026-04-25T08:38:08.751Z</time></trkpt><trkpt lat="45.7832349" lon="9.7492758"><ele>938.5</ele><time>2026-04-25T08:38:09.751Z</time></trkpt><trkpt lat="45.7831311" lon="9.7493921"><ele>940.0</ele><time>2026-04-25T08:38:10.751Z</time></trkpt><trkpt lat="45.783018" lon="9.7495018"><ele>941.5</ele><time>2026-04-25T08:38:11.751Z</time></trkpt><trkpt lat="45.7828799" lon="9.7495569"><ele>943.0</ele><time>2026-04-25T08:38:12.751Z</time></trkpt><trkpt lat="45.7827329" lon="9.749601"><ele>944.0</ele><time>2026-04-25T08:38:13.75Z</time></trkpt><trkpt lat="45.7825855" lon="9.7496471"><ele>945.0</ele><time>2026-04-25T08:38:14.75Z</time></trkpt><trkpt lat="45.7824555" lon="9.749687"><ele>946.0</ele><time>2026-04-25T08:38:15.751Z</time></trkpt><trkpt lat="45.7823366" lon="9.749718"><ele>947.0</ele><time>2026-04-25T08:38:16.75Z</time></trkpt><trkpt lat="45.782224" lon="9.7497159"><ele>947.0</ele><time>2026-04-25T08:38:17.751Z</time></trkpt><trkpt lat="45.7821169" lon="9.7496686"><ele>947.0</ele><time>2026-04-25T08:38:18.751Z</time></trkpt><trkpt lat="45.7820098" lon="9.749628"><ele>947.0</ele><time>2026-04-25T08:38:19.751Z</time></trkpt><trkpt lat="45.7818924" lon="9.7496257"><ele>947.0</ele><time>2026-04-25T08:38:20.75Z</time></trkpt><trkpt lat="45.7817829" lon="9.7496509"><ele>946.75</ele><time>2026-04-25T08:38:21.75Z</time></trkpt><trkpt lat="45.7816836" lon="9.7497202"><ele>946.5</ele><time>2026-04-25T08:38:22.75Z</time></trkpt><trkpt lat="45.7815997" lon="9.7498179"><ele>946.25</ele><time>2026-04-25T08:38:23.75Z</time></trkpt><trkpt lat="45.7815336" lon="9.7499495"><ele>946.0</ele><time>2026-04-25T08:38:24.75Z</time></trkpt><trkpt lat="45.7814814" lon="9.7501033"><ele>945.25</ele><time>2026-04-25T08:38:25.75Z</time></trkpt><trkpt lat="45.7814083" lon="9.7502427"><ele>944.5</ele><time>2026-04-25T08:38:26.751Z</time></trkpt><trkpt lat="45.7813096" lon="9.7503639"><ele>943.75</ele><time>2026-04-25T08:38:27.751Z</time></trkpt><trkpt lat="45.7812102" lon="9.7504831"><ele>943.0</ele><time>2026-04-25T08:38:28.75Z</time></trkpt><trkpt lat="45.781128" lon="9.7505752"><ele>942.9999999999999</ele><time>2026-04-25T08:38:29.751Z</time></trkpt><trkpt lat="45.7810559" lon="9.7506518"><ele>943.0</ele><time>2026-04-25T08:38:30.751Z</time></trkpt><trkpt lat="45.7809971" lon="9.7507082"><ele>943.0</ele><time>2026-04-25T08:38:31.75Z</time></trkpt><trkpt lat="45.7809361" lon="9.7507485"><ele>943.0</ele><time>2026-04-25T08:38:33.751Z</time></trkpt><trkpt lat="45.780869" lon="9.7507368"><ele>942.9999999999999</ele><time>2026-04-25T08:38:36.751Z</time></trkpt><trkpt lat="45.7808079" lon="9.7506464"><ele>943.0</ele><time>2026-04-25T08:38:38.751Z</time></trkpt><trkpt lat="45.7807483" lon="9.7505378"><ele>942.75</ele><time>2026-04-25T08:38:40.751Z</time></trkpt><trkpt lat="45.7806381" lon="9.7503822"><ele>942.5</ele><time>2026-04-25T08:38:42.75Z</time></trkpt><trkpt lat="45.7805706" lon="9.7502675"><ele>942.25</ele><time>2026-04-25T08:38:43.751Z</time></trkpt><trkpt lat="45.7805042" lon="9.7501412"><ele>942.0</ele><time>2026-04-25T08:38:44.751Z</time></trkpt><trkpt lat="45.7804343" lon="9.7500113"><ele>941.75</ele><time>2026-04-25T08:38:45.751Z</time></trkpt><trkpt lat="45.7803618" lon="9.7498828"><ele>941.5</ele><time>2026-04-25T08:38:46.75Z</time></trkpt><trkpt lat="45.7802894" lon="9.7497577"><ele>941.25</ele><time>2026-04-25T08:38:47.75Z</time></trkpt><trkpt lat="45.7802153" lon="9.7496384"><ele>941.0</ele><time>2026-04-25T08:38:48.751Z</time></trkpt><trkpt lat="45.7801404" lon="9.7495176"><ele>941.0</ele><time>2026-04-25T08:38:49.751Z</time></trkpt><trkpt lat="45.7800661" lon="9.7493937"><ele>941.0</ele><time>2026-04-25T08:38:50.751Z</time></trkpt><trkpt lat="45.7799901" lon="9.7492721"><ele>941.0</ele><time>2026-04-25T08:38:51.751Z</time></trkpt><trkpt lat="45.7799138" lon="9.7491487"><ele>941.0</ele><time>2026-04-25T08:38:52.75Z</time></trkpt><trkpt lat="45.7798345" lon="9.7490232"><ele>941.0</ele><time>2026-04-25T08:38:53.751Z</time></trkpt><trkpt lat="45.7797521" lon="9.7488956"><ele>941.0</ele><time>2026-04-25T08:38:54.75Z</time></trkpt><trkpt lat="45.7796719" lon="9.748769"><ele>941.0</ele><time>2026-04-25T08:38:55.75Z</time></trkpt><trkpt lat="45.7796014" lon="9.7486502"><ele>941.0</ele><time>2026-04-25T08:38:56.751Z</time></trkpt><trkpt lat="45.7795438" lon="9.7485287"><ele>941.5999999999999</ele><time>2026-04-25T08:38:57.751Z</time></trkpt><trkpt lat="45.7795259" lon="9.7483871"><ele>942.1999999999999</ele><time>2026-04-25T08:38:58.75Z</time></trkpt><trkpt lat="45.7795324" lon="9.7482491"><ele>942.8000000000001</ele><time>2026-04-25T08:38:59.751Z</time></trkpt><trkpt lat="45.7795642" lon="9.7481139"><ele>943.4000000000001</ele><time>2026-04-25T08:39:00.751Z</time></trkpt><trkpt lat="45.7796046" lon="9.7479864"><ele>944.0</ele><time>2026-04-25T08:39:01.751Z</time></trkpt><trkpt lat="45.7796491" lon="9.7478641"><ele>944.0</ele><time>2026-04-25T08:39:02.75Z</time></trkpt><trkpt lat="45.7796885" lon="9.7477368"><ele>944.0000000000001</ele><time>2026-04-25T08:39:03.75Z</time></trkpt><trkpt lat="45.779703" lon="9.7476009"><ele>944.0000000000001</ele><time>2026-04-25T08:39:04.75Z</time></trkpt><trkpt lat="45.7796913" lon="9.7474695"><ele>944.0</ele><time>2026-04-25T08:39:05.751Z</time></trkpt><trkpt lat="45.7796662" lon="9.7473436"><ele>944.0</ele><time>2026-04-25T08:39:06.75Z</time></trkpt><trkpt lat="45.7796317" lon="9.747225"><ele>943.5000000000001</ele><time>2026-04-25T08:39:07.751Z</time></trkpt><trkpt lat="45.7795868" lon="9.7471124"><ele>943.0</ele><time>2026-04-25T08:39:08.75Z</time></trkpt><trkpt lat="45.7795377" lon="9.7470049"><ele>942.5</ele><time>2026-04-25T08:39:09.751Z</time></trkpt><trkpt lat="45.7794874" lon="9.7468977"><ele>942.0</ele><time>2026-04-25T08:39:10.75Z</time></trkpt><trkpt lat="45.7794461" lon="9.7467927"><ele>941.5000000000001</ele><time>2026-04-25T08:39:11.75Z</time></trkpt><trkpt lat="45.7794166" lon="9.7466885"><ele>941.0</ele><time>2026-04-25T08:39:12.751Z</time></trkpt><trkpt lat="45.7794002" lon="9.746582"><ele>940.5000000000001</ele><time>2026-04-25T08:39:13.751Z</time></trkpt><trkpt lat="45.7793942" lon="9.7464747"><ele>940.0</ele><time>2026-04-25T08:39:14.751Z</time></trkpt><trkpt lat="45.7793991" lon="9.7463675"><ele>939.5</ele><time>2026-04-25T08:39:15.751Z</time></trkpt><trkpt lat="45.7794117" lon="9.7462595"><ele>939.0</ele><time>2026-04-25T08:39:16.75Z</time></trkpt><trkpt lat="45.7794189" lon="9.7461502"><ele>938.5000000000001</ele><time>2026-04-25T08:39:17.75Z</time></trkpt><trkpt lat="45.7794173" lon="9.7460342"><ele>938.0</ele><time>2026-04-25T08:39:18.751Z</time></trkpt><trkpt lat="45.7794074" lon="9.7459203"><ele>936.2</ele><time>2026-04-25T08:39:19.751Z</time></trkpt><trkpt lat="45.7793954" lon="9.745794"><ele>934.4</ele><time>2026-04-25T08:39:20.75Z</time></trkpt><trkpt lat="45.7793803" lon="9.7456663"><ele>932.6000000000001</ele><time>2026-04-25T08:39:21.75Z</time></trkpt><trkpt lat="45.7793681" lon="9.7455373"><ele>930.8000000000001</ele><time>2026-04-25T08:39:22.751Z</time></trkpt><trkpt lat="45.7793561" lon="9.7454076"><ele>929.0</ele><time>2026-04-25T08:39:23.75Z</time></trkpt><trkpt lat="45.779342" lon="9.7452824"><ele>927.8333333333334</ele><time>2026-04-25T08:39:24.751Z</time></trkpt><trkpt lat="45.7793275" lon="9.7451678"><ele>926.6666666666667</ele><time>2026-04-25T08:39:25.75Z</time></trkpt><trkpt lat="45.7793112" lon="9.74506"><ele>925.5</ele><time>2026-04-25T08:39:26.751Z</time></trkpt><trkpt lat="45.7792883" lon="9.7449534"><ele>924.3333333333333</ele><time>2026-04-25T08:39:27.75Z</time></trkpt><trkpt lat="45.7792584" lon="9.7448535"><ele>923.1666666666666</ele><time>2026-04-25T08:39:28.75Z</time></trkpt><trkpt lat="45.7792231" lon="9.7447579"><ele>922.0</ele><time>2026-04-25T08:39:29.751Z</time></trkpt><trkpt lat="45.7791815" lon="9.7446623"><ele>922.0</ele><time>2026-04-25T08:39:30.75Z</time></trkpt><trkpt lat="45.7791354" lon="9.7445727"><ele>922.0</ele><time>2026-04-25T08:39:31.75Z</time></trkpt><trkpt lat="45.7790976" lon="9.7444961"><ele>922.0</ele><time>2026-04-25T08:39:32.751Z</time></trkpt><trkpt lat="45.7790494" lon="9.7443622"><ele>922.0</ele><time>2026-04-25T08:39:34.75Z</time></trkpt><trkpt lat="45.7790442" lon="9.7442242"><ele>922.0</ele><time>2026-04-25T08:39:36.751Z</time></trkpt><trkpt lat="45.7791174" lon="9.7440986"><ele>921.9999999999999</ele><time>2026-04-25T08:39:38.75Z</time></trkpt><trkpt lat="45.7791697" lon="9.7440482"><ele>922.0</ele><time>2026-04-25T08:39:39.75Z</time></trkpt><trkpt lat="45.7792327" lon="9.7440308"><ele>922.0</ele><time>2026-04-25T08:39:40.751Z</time></trkpt><trkpt lat="45.7792994" lon="9.7440501"><ele>922.0</ele><time>2026-04-25T08:39:41.751Z</time></trkpt><trkpt lat="45.7793744" lon="9.7440919"><ele>921.9999999999999</ele><time>2026-04-25T08:39:42.75Z</time></trkpt><trkpt lat="45.7794643" lon="9.7441527"><ele>922.0</ele><time>2026-04-25T08:39:43.75Z</time></trkpt><trkpt lat="45.7795564" lon="9.744227"><ele>921.8</ele><time>2026-04-25T08:39:44.751Z</time></trkpt><trkpt lat="45.7796461" lon="9.7443079"><ele>921.6</ele><time>2026-04-25T08:39:45.751Z</time></trkpt><trkpt lat="45.7797342" lon="9.7443775"><ele>921.3999999999999</ele><time>2026-04-25T08:39:46.751Z</time></trkpt><trkpt lat="45.7798214" lon="9.7444323"><ele>921.1999999999999</ele><time>2026-04-25T08:39:47.75Z</time></trkpt><trkpt lat="45.7799104" lon="9.7444654"><ele>921.0</ele><time>2026-04-25T08:39:48.75Z</time></trkpt><trkpt lat="45.7800012" lon="9.744476"><ele>921.5999999999999</ele><time>2026-04-25T08:39:49.751Z</time></trkpt><trkpt lat="45.7800975" lon="9.7444787"><ele>922.1999999999999</ele><time>2026-04-25T08:39:50.751Z</time></trkpt><trkpt lat="45.7801955" lon="9.7444814"><ele>922.8000000000001</ele><time>2026-04-25T08:39:51.75Z</time></trkpt><trkpt lat="45.7802931" lon="9.7444875"><ele>923.4000000000001</ele><time>2026-04-25T08:39:52.751Z</time></trkpt><trkpt lat="45.7803911" lon="9.7445037"><ele>924.0</ele><time>2026-04-25T08:39:53.751Z</time></trkpt><trkpt lat="45.7804932" lon="9.7445324"><ele>925.4000000000001</ele><time>2026-04-25T08:39:54.75Z</time></trkpt><trkpt lat="45.7805953" lon="9.7445769"><ele>926.8000000000001</ele><time>2026-04-25T08:39:55.75Z</time></trkpt><trkpt lat="45.7806991" lon="9.7446278"><ele>928.1999999999999</ele><time>2026-04-25T08:39:56.75Z</time></trkpt><trkpt lat="45.7808043" lon="9.7446774"><ele>929.5999999999999</ele><time>2026-04-25T08:39:57.751Z</time></trkpt><trkpt lat="45.7809061" lon="9.744725"><ele>931.0</ele><time>2026-04-25T08:39:58.75Z</time></trkpt><trkpt lat="45.7810093" lon="9.7447696"><ele>929.4</ele><time>2026-04-25T08:39:59.751Z</time></trkpt><trkpt lat="45.7811118" lon="9.7448155"><ele>927.8</ele><time>2026-04-25T08:40:00.75Z</time></trkpt><trkpt lat="45.781213" lon="9.7448633"><ele>926.1999999999999</ele><time>2026-04-25T08:40:01.751Z</time></trkpt><trkpt lat="45.7813138" lon="9.7449135"><ele>924.5999999999999</ele><time>2026-04-25T08:40:02.751Z</time></trkpt><trkpt lat="45.781413" lon="9.7449689"><ele>923.0</ele><time>2026-04-25T08:40:03.751Z</time></trkpt><trkpt lat="45.7815098" lon="9.7450327"><ele>923.0</ele><time>2026-04-25T08:40:04.751Z</time></trkpt><trkpt lat="45.7816029" lon="9.7451014"><ele>923.0</ele><time>2026-04-25T08:40:05.751Z</time></trkpt><trkpt lat="45.7816928" lon="9.745178"><ele>923.0</ele><time>2026-04-25T08:40:06.75Z</time></trkpt><trkpt lat="45.7817811" lon="9.7452641"><ele>923.0</ele><time>2026-04-25T08:40:07.75Z</time></trkpt><trkpt lat="45.7818667" lon="9.7453649"><ele>923.0</ele><time>2026-04-25T08:40:08.75Z</time></trkpt><trkpt lat="45.781953" lon="9.745475"><ele>921.75</ele><time>2026-04-25T08:40:09.75Z</time></trkpt><trkpt lat="45.7820438" lon="9.7455804"><ele>920.5</ele><time>2026-04-25T08:40:10.75Z</time></trkpt><trkpt lat="45.7821406" lon="9.7456684"><ele>919.25</ele><time>2026-04-25T08:40:11.751Z</time></trkpt><trkpt lat="45.7822447" lon="9.7457397"><ele>918.0</ele><time>2026-04-25T08:40:12.751Z</time></trkpt><trkpt lat="45.7823528" lon="9.7458052"><ele>918.0</ele><time>2026-04-25T08:40:13.75Z</time></trkpt><trkpt lat="45.7824563" lon="9.7458651"><ele>918.0</ele><time>2026-04-25T08:40:14.75Z</time></trkpt><trkpt lat="45.7825599" lon="9.7459235"><ele>918.0</ele><time>2026-04-25T08:40:15.75Z</time></trkpt><trkpt lat="45.782666" lon="9.7459804"><ele>918.0</ele><time>2026-04-25T08:40:16.75Z</time></trkpt><trkpt lat="45.7827716" lon="9.7460369"><ele>918.0</ele><time>2026-04-25T08:40:17.75Z</time></trkpt><trkpt lat="45.7828754" lon="9.746098"><ele>917.5</ele><time>2026-04-25T08:40:18.75Z</time></trkpt><trkpt lat="45.7829848" lon="9.7461775"><ele>917.0</ele><time>2026-04-25T08:40:19.75Z</time></trkpt><trkpt lat="45.7830952" lon="9.7462775"><ele>916.5</ele><time>2026-04-25T08:40:20.751Z</time></trkpt><trkpt lat="45.7832106" lon="9.7463903"><ele>916.0</ele><time>2026-04-25T08:40:21.75Z</time></trkpt><trkpt lat="45.7833205" lon="9.7465025"><ele>916.0</ele><time>2026-04-25T08:40:22.75Z</time></trkpt><trkpt lat="45.7834292" lon="9.7466142"><ele>916.0</ele><time>2026-04-25T08:40:23.75Z</time></trkpt><trkpt lat="45.7835376" lon="9.7467273"><ele>916.0</ele><time>2026-04-25T08:40:24.751Z</time></trkpt><trkpt lat="45.7836459" lon="9.7468361"><ele>916.0</ele><time>2026-04-25T08:40:25.751Z</time></trkpt><trkpt lat="45.7837528" lon="9.7469475"><ele>917.0</ele><time>2026-04-25T08:40:26.75Z</time></trkpt><trkpt lat="45.7838616" lon="9.7470641"><ele>918.0</ele><time>2026-04-25T08:40:27.751Z</time></trkpt><trkpt lat="45.7839687" lon="9.7471743"><ele>919.0</ele><time>2026-04-25T08:40:28.751Z</time></trkpt><trkpt lat="45.7840747" lon="9.7472816"><ele>920.0</ele><time>2026-04-25T08:40:29.75Z</time></trkpt><trkpt lat="45.7841797" lon="9.7473851"><ele>920.0</ele><time>2026-04-25T08:40:30.751Z</time></trkpt><trkpt lat="45.7842848" lon="9.7474907"><ele>920.0</ele><time>2026-04-25T08:40:31.75Z</time></trkpt><trkpt lat="45.7843925" lon="9.7475939"><ele>920.0</ele><time>2026-04-25T08:40:32.75Z</time></trkpt><trkpt lat="45.7844957" lon="9.7476958"><ele>920.0</ele><time>2026-04-25T08:40:33.751Z</time></trkpt><trkpt lat="45.7845985" lon="9.7477949"><ele>918.75</ele><time>2026-04-25T08:40:34.751Z</time></trkpt><trkpt lat="45.7846985" lon="9.7478963"><ele>917.5</ele><time>2026-04-25T08:40:35.75Z</time></trkpt><trkpt lat="45.7847892" lon="9.7480139"><ele>916.25</ele><time>2026-04-25T08:40:36.751Z</time></trkpt><trkpt lat="45.784875" lon="9.7481402"><ele>915.0</ele><time>2026-04-25T08:40:37.75Z</time></trkpt><trkpt lat="45.784956" lon="9.7482667"><ele>915.0</ele><time>2026-04-25T08:40:38.75Z</time></trkpt><trkpt lat="45.7850367" lon="9.7483913"><ele>915.0</ele><time>2026-04-25T08:40:39.751Z</time></trkpt><trkpt lat="45.7851126" lon="9.7485125"><ele>915.0</ele><time>2026-04-25T08:40:40.75Z</time></trkpt><trkpt lat="45.7851931" lon="9.7486254"><ele>915.0</ele><time>2026-04-25T08:40:41.75Z</time></trkpt><trkpt lat="45.7852756" lon="9.7487377"><ele>914.0</ele><time>2026-04-25T08:40:42.751Z</time></trkpt><trkpt lat="45.7853601" lon="9.7488336"><ele>913.0</ele><time>2026-04-25T08:40:43.751Z</time></trkpt><trkpt lat="45.7854488" lon="9.7489186"><ele>912.0</ele><time>2026-04-25T08:40:44.751Z</time></trkpt><trkpt lat="45.7855424" lon="9.7490117"><ele>911.0</ele><time>2026-04-25T08:40:45.751Z</time></trkpt><trkpt lat="45.7856435" lon="9.7491055"><ele>910.0</ele><time>2026-04-25T08:40:46.75Z</time></trkpt><trkpt lat="45.7857447" lon="9.7492071"><ele>910.0</ele><time>2026-04-25T08:40:47.75Z</time></trkpt><trkpt lat="45.7858486" lon="9.7493116"><ele>910.0</ele><time>2026-04-25T08:40:48.75Z</time></trkpt><trkpt lat="45.7859484" lon="9.7494187"><ele>910.0</ele><time>2026-04-25T08:40:49.751Z</time></trkpt><trkpt lat="45.7860478" lon="9.749533"><ele>910.0</ele><time>2026-04-25T08:40:50.75Z</time></trkpt><trkpt lat="45.7861491" lon="9.7496445"><ele>910.75</ele><time>2026-04-25T08:40:51.75Z</time></trkpt><trkpt lat="45.7862495" lon="9.7497533"><ele>911.5</ele><time>2026-04-25T08:40:52.751Z</time></trkpt><trkpt lat="45.7863471" lon="9.7498627"><ele>912.25</ele><time>2026-04-25T08:40:53.751Z</time></trkpt><trkpt lat="45.7864429" lon="9.7499665"><ele>913.0</ele><time>2026-04-25T08:40:54.75Z</time></trkpt><trkpt lat="45.7865348" lon="9.7500635"><ele>913.0</ele><time>2026-04-25T08:40:55.75Z</time></trkpt><trkpt lat="45.7866268" lon="9.7501502"><ele>913.0</ele><time>2026-04-25T08:40:56.75Z</time></trkpt><trkpt lat="45.7867243" lon="9.7502308"><ele>913.0</ele><time>2026-04-25T08:40:57.75Z</time></trkpt><trkpt lat="45.7868239" lon="9.7503014"><ele>913.0</ele><time>2026-04-25T08:40:58.751Z</time></trkpt><trkpt lat="45.786927" lon="9.7503681"><ele>913.0</ele><time>2026-04-25T08:40:59.75Z</time></trkpt><trkpt lat="45.7870345" lon="9.7504354"><ele>914.0</ele><time>2026-04-25T08:41:00.75Z</time></trkpt><trkpt lat="45.7871421" lon="9.7505045"><ele>915.0</ele><time>2026-04-25T08:41:01.751Z</time></trkpt><trkpt lat="45.7872517" lon="9.750573"><ele>916.0</ele><time>2026-04-25T08:41:02.751Z</time></trkpt><trkpt lat="45.7873603" lon="9.7506419"><ele>917.0</ele><time>2026-04-25T08:41:03.75Z</time></trkpt><trkpt lat="45.7874708" lon="9.7507134"><ele>917.0</ele><time>2026-04-25T08:41:04.751Z</time></trkpt><trkpt lat="45.7875798" lon="9.7507935"><ele>917.0</ele><time>2026-04-25T08:41:05.75Z</time></trkpt><trkpt lat="45.7876831" lon="9.7508931"><ele>917.0</ele><time>2026-04-25T08:41:06.751Z</time></trkpt><trkpt lat="45.7877796" lon="9.7510089"><ele>917.0</ele><time>2026-04-25T08:41:07.751Z</time></trkpt><trkpt lat="45.7878763" lon="9.7511255"><ele>917.5</ele><time>2026-04-25T08:41:08.751Z</time></trkpt><trkpt lat="45.787983" lon="9.7512222"><ele>918.0</ele><time>2026-04-25T08:41:09.75Z</time></trkpt><trkpt lat="45.7881008" lon="9.751285"><ele>918.5</ele><time>2026-04-25T08:41:10.75Z</time></trkpt><trkpt lat="45.7882228" lon="9.7513061"><ele>919.0</ele><time>2026-04-25T08:41:11.751Z</time></trkpt><trkpt lat="45.7883369" lon="9.7512982"><ele>919.0</ele><time>2026-04-25T08:41:12.75Z</time></trkpt><trkpt lat="45.7884479" lon="9.7513261"><ele>919.0000000000001</ele><time>2026-04-25T08:41:13.751Z</time></trkpt><trkpt lat="45.7885383" lon="9.75142"><ele>919.0000000000001</ele><time>2026-04-25T08:41:14.751Z</time></trkpt><trkpt lat="45.788593" lon="9.7515516"><ele>919.0</ele><time>2026-04-25T08:41:15.75Z</time></trkpt><trkpt lat="45.7886108" lon="9.751708"><ele>919.0</ele><time>2026-04-25T08:41:16.751Z</time></trkpt><trkpt lat="45.7886104" lon="9.7518702"><ele>916.8000000000001</ele><time>2026-04-25T08:41:17.75Z</time></trkpt><trkpt lat="45.7886185" lon="9.7520346"><ele>914.6000000000001</ele><time>2026-04-25T08:41:18.751Z</time></trkpt><trkpt lat="45.7886364" lon="9.7521867"><ele>912.4</ele><time>2026-04-25T08:41:19.75Z</time></trkpt><trkpt lat="45.7886602" lon="9.7523236"><ele>910.2</ele><time>2026-04-25T08:41:20.751Z</time></trkpt><trkpt lat="45.7886864" lon="9.7524439"><ele>908.0</ele><time>2026-04-25T08:41:21.75Z</time></trkpt><trkpt lat="45.788712" lon="9.7525472"><ele>908.0000000000001</ele><time>2026-04-25T08:41:22.751Z</time></trkpt><trkpt lat="45.7887553" lon="9.7526864"><ele>908.0</ele><time>2026-04-25T08:41:24.751Z</time></trkpt><trkpt lat="45.7887818" lon="9.7527805"><ele>908.0</ele><time>2026-04-25T08:41:26.75Z</time></trkpt><trkpt lat="45.7888268" lon="9.7529018"><ele>908.0</ele><time>2026-04-25T08:42:09.75Z</time></trkpt><trkpt lat="45.7888721" lon="9.7530004"><ele>908.0000000000001</ele><time>2026-04-25T08:42:10.75Z</time></trkpt><trkpt lat="45.7889168" lon="9.7531025"><ele>908.0</ele><time>2026-04-25T08:42:11.75Z</time></trkpt><trkpt lat="45.7889568" lon="9.7532244"><ele>909.4</ele><time>2026-04-25T08:42:12.751Z</time></trkpt><trkpt lat="45.7889764" lon="9.7533618"><ele>910.8</ele><time>2026-04-25T08:42:13.75Z</time></trkpt><trkpt lat="45.7889804" lon="9.7534993"><ele>912.2</ele><time>2026-04-25T08:42:14.75Z</time></trkpt><trkpt lat="45.7889643" lon="9.753646"><ele>913.6</ele><time>2026-04-25T08:42:15.751Z</time></trkpt><trkpt lat="45.7889418" lon="9.7537903"><ele>915.0</ele><time>2026-04-25T08:42:16.751Z</time></trkpt><trkpt lat="45.7889208" lon="9.7539328"><ele>915.0</ele><time>2026-04-25T08:42:17.751Z</time></trkpt><trkpt lat="45.7888994" lon="9.7540743"><ele>915.0</ele><time>2026-04-25T08:42:18.75Z</time></trkpt><trkpt lat="45.7888787" lon="9.7542118"><ele>915.0</ele><time>2026-04-25T08:42:19.75Z</time></trkpt><trkpt lat="45.7888659" lon="9.754337"><ele>915.0</ele><time>2026-04-25T08:42:20.751Z</time></trkpt><trkpt lat="45.7888611" lon="9.7544551"><ele>915.0</ele><time>2026-04-25T08:42:21.751Z</time></trkpt><trkpt lat="45.7888649" lon="9.7545799"><ele>915.5</ele><time>2026-04-25T08:42:22.75Z</time></trkpt><trkpt lat="45.7888815" lon="9.7547019"><ele>916.0</ele><time>2026-04-25T08:42:23.751Z</time></trkpt><trkpt lat="45.7889002" lon="9.7548073"><ele>916.5</ele><time>2026-04-25T08:42:24.75Z</time></trkpt><trkpt lat="45.7889181" lon="9.7549048"><ele>917.0</ele><time>2026-04-25T08:42:25.751Z</time></trkpt><trkpt lat="45.7889369" lon="9.7550544"><ele>917.5</ele><time>2026-04-25T08:42:27.751Z</time></trkpt><trkpt lat="45.7889577" lon="9.7551456"><ele>918.0</ele><time>2026-04-25T08:42:29.751Z</time></trkpt><trkpt lat="45.7890585" lon="9.7551707"><ele>918.0</ele><time>2026-04-25T08:42:31.751Z</time></trkpt><trkpt lat="45.7891358" lon="9.7551416"><ele>918.0</ele><time>2026-04-25T08:42:32.75Z</time></trkpt><trkpt lat="45.7892251" lon="9.7551068"><ele>918.0</ele><time>2026-04-25T08:42:33.75Z</time></trkpt><trkpt lat="45.7893212" lon="9.7550704"><ele>918.0</ele><time>2026-04-25T08:42:34.751Z</time></trkpt><trkpt lat="45.7894285" lon="9.7550308"><ele>918.0</ele><time>2026-04-25T08:42:35.751Z</time></trkpt><trkpt lat="45.7895402" lon="9.7549853"><ele>918.25</ele><time>2026-04-25T08:42:36.751Z</time></trkpt><trkpt lat="45.7896568" lon="9.7549416"><ele>918.5</ele><time>2026-04-25T08:42:37.751Z</time></trkpt><trkpt lat="45.7897738" lon="9.7548971"><ele>918.75</ele><time>2026-04-25T08:42:38.75Z</time></trkpt><trkpt lat="45.7898961" lon="9.7548514"><ele>919.0</ele><time>2026-04-25T08:42:39.751Z</time></trkpt><trkpt lat="45.7900183" lon="9.7548069"><ele>919.0</ele><time>2026-04-25T08:42:40.751Z</time></trkpt><trkpt lat="45.790139" lon="9.7547615"><ele>919.0</ele><time>2026-04-25T08:42:41.75Z</time></trkpt><trkpt lat="45.7902595" lon="9.7547055"><ele>919.0</ele><time>2026-04-25T08:42:42.75Z</time></trkpt><trkpt lat="45.7903749" lon="9.7546394"><ele>919.0</ele><time>2026-04-25T08:42:43.75Z</time></trkpt><trkpt lat="45.7904909" lon="9.7545707"><ele>920.2</ele><time>2026-04-25T08:42:44.75Z</time></trkpt><trkpt lat="45.7906057" lon="9.7544998"><ele>921.4000000000001</ele><time>2026-04-25T08:42:45.751Z</time></trkpt><trkpt lat="45.7907195" lon="9.7544293"><ele>922.6</ele><time>2026-04-25T08:42:46.75Z</time></trkpt><trkpt lat="45.7908208" lon="9.7543619"><ele>923.8</ele><time>2026-04-25T08:42:47.75Z</time></trkpt><trkpt lat="45.7908981" lon="9.7543056"><ele>925.0</ele><time>2026-04-25T08:42:48.751Z</time></trkpt><trkpt lat="45.7909889" lon="9.7542422"><ele>922.6</ele><time>2026-04-25T08:42:50.75Z</time></trkpt><trkpt lat="45.7910497" lon="9.754163"><ele>920.2</ele><time>2026-04-25T08:42:53.75Z</time></trkpt><trkpt lat="45.7911434" lon="9.7540162"><ele>917.8</ele><time>2026-04-25T08:42:55.751Z</time></trkpt><trkpt lat="45.7912051" lon="9.7539056"><ele>915.4</ele><time>2026-04-25T08:42:56.75Z</time></trkpt><trkpt lat="45.7912781" lon="9.7537762"><ele>913.0</ele><time>2026-04-25T08:42:57.751Z</time></trkpt><trkpt lat="45.7913573" lon="9.7536361"><ele>912.5</ele><time>2026-04-25T08:42:58.75Z</time></trkpt><trkpt lat="45.791436" lon="9.7534903"><ele>912.0</ele><time>2026-04-25T08:42:59.75Z</time></trkpt><trkpt lat="45.7915199" lon="9.7533491"><ele>911.5</ele><time>2026-04-25T08:43:00.75Z</time></trkpt><trkpt lat="45.7916213" lon="9.7532306"><ele>911.0</ele><time>2026-04-25T08:43:01.751Z</time></trkpt><trkpt lat="45.791738" lon="9.7531402"><ele>909.25</ele><time>2026-04-25T08:43:02.75Z</time></trkpt><trkpt lat="45.7918634" lon="9.7530824"><ele>907.5</ele><time>2026-04-25T08:43:03.75Z</time></trkpt><trkpt lat="45.7919947" lon="9.7530733"><ele>905.75</ele><time>2026-04-25T08:43:04.751Z</time></trkpt><trkpt lat="45.7921238" lon="9.753097"><ele>904.0</ele><time>2026-04-25T08:43:05.75Z</time></trkpt><trkpt lat="45.7922441" lon="9.7531636"><ele>904.0</ele><time>2026-04-25T08:43:06.751Z</time></trkpt><trkpt lat="45.7923403" lon="9.7532772"><ele>904.0</ele><time>2026-04-25T08:43:07.751Z</time></trkpt><trkpt lat="45.7923971" lon="9.7534288"><ele>904.0</ele><time>2026-04-25T08:43:08.75Z</time></trkpt><trkpt lat="45.7924107" lon="9.753596"><ele>904.0</ele><time>2026-04-25T08:43:09.75Z</time></trkpt><trkpt lat="45.7923834" lon="9.7537666"><ele>902.75</ele><time>2026-04-25T08:43:10.75Z</time></trkpt><trkpt lat="45.7923344" lon="9.7539393"><ele>901.5</ele><time>2026-04-25T08:43:11.751Z</time></trkpt><trkpt lat="45.7922699" lon="9.7541111"><ele>900.25</ele><time>2026-04-25T08:43:12.75Z</time></trkpt><trkpt lat="45.7922041" lon="9.7542834"><ele>899.0</ele><time>2026-04-25T08:43:13.75Z</time></trkpt><trkpt lat="45.7921547" lon="9.7544704"><ele>898.0</ele><time>2026-04-25T08:43:14.75Z</time></trkpt><trkpt lat="45.7921308" lon="9.7546698"><ele>897.0</ele><time>2026-04-25T08:43:15.751Z</time></trkpt><trkpt lat="45.7921466" lon="9.7548616"><ele>896.0</ele><time>2026-04-25T08:43:16.751Z</time></trkpt><trkpt lat="45.7921869" lon="9.7550449"><ele>895.0</ele><time>2026-04-25T08:43:17.751Z</time></trkpt><trkpt lat="45.7922344" lon="9.7552164"><ele>896.6</ele><time>2026-04-25T08:43:18.75Z</time></trkpt><trkpt lat="45.792291" lon="9.7553677"><ele>898.2</ele><time>2026-04-25T08:43:19.751Z</time></trkpt><trkpt lat="45.7923547" lon="9.7554955"><ele>899.8</ele><time>2026-04-25T08:43:20.751Z</time></trkpt><trkpt lat="45.7924344" lon="9.7555822"><ele>901.4</ele><time>2026-04-25T08:43:21.751Z</time></trkpt><trkpt lat="45.7925334" lon="9.7556168"><ele>903.0</ele><time>2026-04-25T08:43:22.75Z</time></trkpt><trkpt lat="45.7926425" lon="9.7555906"><ele>900.5</ele><time>2026-04-25T08:43:23.75Z</time></trkpt><trkpt lat="45.792754" lon="9.7555377"><ele>898.0</ele><time>2026-04-25T08:43:24.75Z</time></trkpt><trkpt lat="45.7928665" lon="9.7554822"><ele>895.5</ele><time>2026-04-25T08:43:25.75Z</time></trkpt><trkpt lat="45.7929863" lon="9.7554402"><ele>893.0</ele><time>2026-04-25T08:43:26.751Z</time></trkpt><trkpt lat="45.7931167" lon="9.7554104"><ele>893.0</ele><time>2026-04-25T08:43:27.75Z</time></trkpt><trkpt lat="45.7932569" lon="9.7553969"><ele>893.0</ele><time>2026-04-25T08:43:28.75Z</time></trkpt><trkpt lat="45.7933999" lon="9.7553987"><ele>893.0</ele><time>2026-04-25T08:43:29.75Z</time></trkpt><trkpt lat="45.793546" lon="9.7554053"><ele>893.0</ele><time>2026-04-25T08:43:30.75Z</time></trkpt><trkpt lat="45.7936935" lon="9.7554145"><ele>891.5</ele><time>2026-04-25T08:43:31.751Z</time></trkpt><trkpt lat="45.7938367" lon="9.7554239"><ele>890.0</ele><time>2026-04-25T08:43:32.751Z</time></trkpt><trkpt lat="45.7939798" lon="9.7554322"><ele>888.5</ele><time>2026-04-25T08:43:33.75Z</time></trkpt><trkpt lat="45.7941224" lon="9.7554445"><ele>887.0</ele><time>2026-04-25T08:43:34.751Z</time></trkpt><trkpt lat="45.794259" lon="9.7554696"><ele>886.0</ele><time>2026-04-25T08:43:35.751Z</time></trkpt><trkpt lat="45.7943932" lon="9.7555118"><ele>885.0</ele><time>2026-04-25T08:43:36.751Z</time></trkpt><trkpt lat="45.7945203" lon="9.7555656"><ele>884.0</ele><time>2026-04-25T08:43:37.75Z</time></trkpt><trkpt lat="45.7946439" lon="9.7556311"><ele>883.0</ele><time>2026-04-25T08:43:38.751Z</time></trkpt><trkpt lat="45.7947644" lon="9.7557032"><ele>883.0</ele><time>2026-04-25T08:43:39.751Z</time></trkpt><trkpt lat="45.794887" lon="9.7557772"><ele>883.0</ele><time>2026-04-25T08:43:40.751Z</time></trkpt><trkpt lat="45.7950114" lon="9.7558484"><ele>883.0</ele><time>2026-04-25T08:43:41.751Z</time></trkpt><trkpt lat="45.7951364" lon="9.7559232"><ele>883.0</ele><time>2026-04-25T08:43:42.75Z</time></trkpt><trkpt lat="45.7952553" lon="9.7559976"><ele>881.75</ele><time>2026-04-25T08:43:43.75Z</time></trkpt><trkpt lat="45.7953678" lon="9.7560839"><ele>880.5</ele><time>2026-04-25T08:43:44.75Z</time></trkpt><trkpt lat="45.7954796" lon="9.7561851"><ele>879.25</ele><time>2026-04-25T08:43:45.75Z</time></trkpt><trkpt lat="45.7955851" lon="9.7563025"><ele>878.0</ele><time>2026-04-25T08:43:46.75Z</time></trkpt><trkpt lat="45.7956866" lon="9.7564322"><ele>878.0</ele><time>2026-04-25T08:43:47.751Z</time></trkpt><trkpt lat="45.7957882" lon="9.7565647"><ele>878.0</ele><time>2026-04-25T08:43:48.75Z</time></trkpt><trkpt lat="45.7958908" lon="9.756698"><ele>878.0</ele><time>2026-04-25T08:43:49.751Z</time></trkpt><trkpt lat="45.7959928" lon="9.7568351"><ele>878.0</ele><time>2026-04-25T08:43:50.751Z</time></trkpt><trkpt lat="45.7960936" lon="9.7569612"><ele>875.5999999999999</ele><time>2026-04-25T08:43:51.751Z</time></trkpt><trkpt lat="45.7961817" lon="9.7570738"><ele>873.1999999999999</ele><time>2026-04-25T08:43:52.75Z</time></trkpt><trkpt lat="45.7962565" lon="9.7571602"><ele>870.8</ele><time>2026-04-25T08:43:53.751Z</time></trkpt><trkpt lat="45.7963255" lon="9.7572291"><ele>868.4</ele><time>2026-04-25T08:43:54.75Z</time></trkpt><trkpt lat="45.7964008" lon="9.7572453"><ele>866.0</ele><time>2026-04-25T08:43:55.75Z</time></trkpt><trkpt lat="45.7964677" lon="9.7571784"><ele>866.0</ele><time>2026-04-25T08:43:56.751Z</time></trkpt><trkpt lat="45.7964966" lon="9.757066"><ele>865.9999999999999</ele><time>2026-04-25T08:43:57.751Z</time></trkpt><trkpt lat="45.7964788" lon="9.7569369"><ele>865.9999999999999</ele><time>2026-04-25T08:43:58.751Z</time></trkpt><trkpt lat="45.7964332" lon="9.7568008"><ele>866.0</ele><time>2026-04-25T08:43:59.75Z</time></trkpt><trkpt lat="45.7963803" lon="9.7566557"><ele>866.0</ele><time>2026-04-25T08:44:00.75Z</time></trkpt><trkpt lat="45.7963159" lon="9.7564864"><ele>863.6666666666667</ele><time>2026-04-25T08:44:01.751Z</time></trkpt><trkpt lat="45.7962422" lon="9.7562979"><ele>861.3333333333333</ele><time>2026-04-25T08:44:02.751Z</time></trkpt><trkpt lat="45.79617" lon="9.7561077"><ele>859.0</ele><time>2026-04-25T08:44:03.75Z</time></trkpt><trkpt lat="45.7960976" lon="9.7559134"><ele>855.3333333333333</ele><time>2026-04-25T08:44:04.751Z</time></trkpt><trkpt lat="45.7960187" lon="9.7557013"><ele>851.6666666666667</ele><time>2026-04-25T08:44:05.75Z</time></trkpt><trkpt lat="45.7959274" lon="9.755487"><ele>848.0</ele><time>2026-04-25T08:44:06.751Z</time></trkpt><trkpt lat="45.7958175" lon="9.7552755"><ele>851.3333333333334</ele><time>2026-04-25T08:44:07.75Z</time></trkpt><trkpt lat="45.7956942" lon="9.7550791"><ele>854.6666666666667</ele><time>2026-04-25T08:44:08.75Z</time></trkpt><trkpt lat="45.7955672" lon="9.7548937"><ele>858.0</ele><time>2026-04-25T08:44:09.75Z</time></trkpt><trkpt lat="45.7954531" lon="9.7546966"><ele>858.0</ele><time>2026-04-25T08:44:10.75Z</time></trkpt><trkpt lat="45.7953589" lon="9.7544926"><ele>858.0</ele><time>2026-04-25T08:44:11.75Z</time></trkpt><trkpt lat="45.7952881" lon="9.7542844"><ele>858.0</ele><time>2026-04-25T08:44:12.75Z</time></trkpt><trkpt lat="45.7952255" lon="9.7540838"><ele>857.5</ele><time>2026-04-25T08:44:13.75Z</time></trkpt><trkpt lat="45.795169" lon="9.7539027"><ele>857.0</ele><time>2026-04-25T08:44:14.751Z</time></trkpt><trkpt lat="45.7951124" lon="9.7537438"><ele>856.5</ele><time>2026-04-25T08:44:15.75Z</time></trkpt><trkpt lat="45.7950516" lon="9.7536144"><ele>856.0</ele><time>2026-04-25T08:44:16.751Z</time></trkpt><trkpt lat="45.7949689" lon="9.7535016"><ele>856.0</ele><time>2026-04-25T08:44:17.75Z</time></trkpt><trkpt lat="45.7948563" lon="9.7533842"><ele>856.0</ele><time>2026-04-25T08:44:18.75Z</time></trkpt><trkpt lat="45.7947257" lon="9.7532472"><ele>856.0</ele><time>2026-04-25T08:44:19.751Z</time></trkpt><trkpt lat="45.7946032" lon="9.7530919"><ele>856.0</ele><time>2026-04-25T08:44:20.751Z</time></trkpt><trkpt lat="45.7944943" lon="9.7529088"><ele>856.0</ele><time>2026-04-25T08:44:21.75Z</time></trkpt><trkpt lat="45.794398" lon="9.7527195"><ele>856.0</ele><time>2026-04-25T08:44:22.751Z</time></trkpt><trkpt lat="45.794304" lon="9.7525201"><ele>855.0</ele><time>2026-04-25T08:44:23.75Z</time></trkpt><trkpt lat="45.7942159" lon="9.7523133"><ele>854.0</ele><time>2026-04-25T08:44:24.75Z</time></trkpt><trkpt lat="45.7941332" lon="9.7520991"><ele>853.0</ele><time>2026-04-25T08:44:25.75Z</time></trkpt><trkpt lat="45.7940554" lon="9.7518717"><ele>850.3333333333333</ele><time>2026-04-25T08:44:26.751Z</time></trkpt><trkpt lat="45.7939772" lon="9.7516416"><ele>847.6666666666667</ele><time>2026-04-25T08:44:27.75Z</time></trkpt><trkpt lat="45.7939005" lon="9.7514168"><ele>845.0</ele><time>2026-04-25T08:44:28.751Z</time></trkpt><trkpt lat="45.7938216" lon="9.7511957"><ele>842.0</ele><time>2026-04-25T08:44:29.75Z</time></trkpt><trkpt lat="45.793737" lon="9.7509856"><ele>839.0</ele><time>2026-04-25T08:44:30.75Z</time></trkpt><trkpt lat="45.7936478" lon="9.7507849"><ele>836.0</ele><time>2026-04-25T08:44:31.75Z</time></trkpt><trkpt lat="45.7935604" lon="9.7505888"><ele>838.6666666666667</ele><time>2026-04-25T08:44:32.751Z</time></trkpt><trkpt lat="45.7934788" lon="9.750395"><ele>841.3333333333333</ele><time>2026-04-25T08:44:33.751Z</time></trkpt><trkpt lat="45.7934032" lon="9.7502063"><ele>844.0</ele><time>2026-04-25T08:44:34.75Z</time></trkpt><trkpt lat="45.793327" lon="9.7500237"><ele>844.0</ele><time>2026-04-25T08:44:35.751Z</time></trkpt><trkpt lat="45.7932336" lon="9.7498649"><ele>844.0</ele><time>2026-04-25T08:44:36.75Z</time></trkpt><trkpt lat="45.7931257" lon="9.7497385"><ele>844.0</ele><time>2026-04-25T08:44:37.75Z</time></trkpt><trkpt lat="45.7930115" lon="9.749632"><ele>844.0</ele><time>2026-04-25T08:44:38.75Z</time></trkpt><trkpt lat="45.7928913" lon="9.7495518"><ele>844.0</ele><time>2026-04-25T08:44:39.75Z</time></trkpt><trkpt lat="45.7927714" lon="9.7495156"><ele>844.0</ele><time>2026-04-25T08:44:40.751Z</time></trkpt><trkpt lat="45.7926672" lon="9.7495215"><ele>844.0</ele><time>2026-04-25T08:44:41.751Z</time></trkpt><trkpt lat="45.7925727" lon="9.7495486"><ele>844.0</ele><time>2026-04-25T08:44:42.751Z</time></trkpt><trkpt lat="45.7924977" lon="9.7495673"><ele>844.0</ele><time>2026-04-25T08:44:43.751Z</time></trkpt><trkpt lat="45.7924274" lon="9.7495635"><ele>846.2</ele><time>2026-04-25T08:44:44.751Z</time></trkpt><trkpt lat="45.7923736" lon="9.7494421"><ele>848.4000000000001</ele><time>2026-04-25T08:44:46.751Z</time></trkpt><trkpt lat="45.7924945" lon="9.7493623"><ele>850.6</ele><time>2026-04-25T08:44:48.751Z</time></trkpt><trkpt lat="45.7925811" lon="9.7493546"><ele>852.8</ele><time>2026-04-25T08:44:49.75Z</time></trkpt><trkpt lat="45.7926982" lon="9.7493454"><ele>855.0</ele><time>2026-04-25T08:44:50.751Z</time></trkpt><trkpt lat="45.7928379" lon="9.7493442"><ele>851.3333333333333</ele><time>2026-04-25T08:44:51.75Z</time></trkpt><trkpt lat="45.792989" lon="9.749348"><ele>847.6666666666666</ele><time>2026-04-25T08:44:52.75Z</time></trkpt><trkpt lat="45.793154" lon="9.7493737"><ele>844.0</ele><time>2026-04-25T08:44:53.751Z</time></trkpt><trkpt lat="45.7933083" lon="9.74942"><ele>844.0</ele><time>2026-04-25T08:44:54.75Z</time></trkpt><trkpt lat="45.7934529" lon="9.7494915"><ele>844.0</ele><time>2026-04-25T08:44:55.75Z</time></trkpt><trkpt lat="45.7935881" lon="9.7495859"><ele>844.0</ele><time>2026-04-25T08:44:56.75Z</time></trkpt><trkpt lat="45.7937219" lon="9.7497149"><ele>841.3333333333333</ele><time>2026-04-25T08:44:57.75Z</time></trkpt><trkpt lat="45.7938563" lon="9.7498704"><ele>838.6666666666667</ele><time>2026-04-25T08:44:58.751Z</time></trkpt><trkpt lat="45.7939803" lon="9.7500583"><ele>836.0</ele><time>2026-04-25T08:44:59.75Z</time></trkpt><trkpt lat="45.7940743" lon="9.7502637"><ele>836.0</ele><time>2026-04-25T08:45:00.75Z</time></trkpt><trkpt lat="45.7941719" lon="9.7504698"><ele>836.0</ele><time>2026-04-25T08:45:01.75Z</time></trkpt><trkpt lat="45.7942677" lon="9.7506582"><ele>836.0</ele><time>2026-04-25T08:45:02.75Z</time></trkpt><trkpt lat="45.7943766" lon="9.7508342"><ele>831.6666666666667</ele><time>2026-04-25T08:45:03.75Z</time></trkpt><trkpt lat="45.7945104" lon="9.7509762"><ele>827.3333333333333</ele><time>2026-04-25T08:45:04.751Z</time></trkpt><trkpt lat="45.7946462" lon="9.7510894"><ele>823.0</ele><time>2026-04-25T08:45:05.751Z</time></trkpt><trkpt lat="45.7947756" lon="9.7511972"><ele>823.0</ele><time>2026-04-25T08:45:06.751Z</time></trkpt><trkpt lat="45.7949001" lon="9.7512856"><ele>823.0</ele><time>2026-04-25T08:45:07.75Z</time></trkpt><trkpt lat="45.7950384" lon="9.751318"><ele>823.0</ele><time>2026-04-25T08:45:08.751Z</time></trkpt><trkpt lat="45.7951912" lon="9.7513098"><ele>823.0</ele><time>2026-04-25T08:45:09.751Z</time></trkpt><trkpt lat="45.7953442" lon="9.7512976"><ele>822.25</ele><time>2026-04-25T08:45:10.75Z</time></trkpt><trkpt lat="45.7954948" lon="9.7513"><ele>821.5</ele><time>2026-04-25T08:45:11.751Z</time></trkpt><trkpt lat="45.7956399" lon="9.7513283"><ele>820.75</ele><time>2026-04-25T08:45:12.751Z</time></trkpt><trkpt lat="45.7957772" lon="9.7513756"><ele>820.0</ele><time>2026-04-25T08:45:13.751Z</time></trkpt><trkpt lat="45.7959053" lon="9.7514479"><ele>817.0</ele><time>2026-04-25T08:45:14.751Z</time></trkpt><trkpt lat="45.7960257" lon="9.7515397"><ele>814.0</ele><time>2026-04-25T08:45:15.75Z</time></trkpt><trkpt lat="45.7961349" lon="9.7516535"><ele>811.0</ele><time>2026-04-25T08:45:16.751Z</time></trkpt><trkpt lat="45.7962349" lon="9.7517956"><ele>808.0</ele><time>2026-04-25T08:45:17.75Z</time></trkpt><trkpt lat="45.7963302" lon="9.7519663"><ele>808.0</ele><time>2026-04-25T08:45:18.75Z</time></trkpt><trkpt lat="45.7964252" lon="9.7521626"><ele>808.0</ele><time>2026-04-25T08:45:19.75Z</time></trkpt><trkpt lat="45.7965296" lon="9.7523831"><ele>808.0</ele><time>2026-04-25T08:45:20.751Z</time></trkpt><trkpt lat="45.7966446" lon="9.7526292"><ele>811.3333333333333</ele><time>2026-04-25T08:45:21.751Z</time></trkpt><trkpt lat="45.7967611" lon="9.7528897"><ele>814.6666666666667</ele><time>2026-04-25T08:45:22.751Z</time></trkpt><trkpt lat="45.7968739" lon="9.7531509"><ele>818.0</ele><time>2026-04-25T08:45:23.75Z</time></trkpt><trkpt lat="45.7969782" lon="9.7534094"><ele>810.3333333333334</ele><time>2026-04-25T08:45:24.751Z</time></trkpt><trkpt lat="45.797077" lon="9.7536572"><ele>802.6666666666667</ele><time>2026-04-25T08:45:25.75Z</time></trkpt><trkpt lat="45.7971719" lon="9.7538903"><ele>795.0</ele><time>2026-04-25T08:45:26.75Z</time></trkpt><trkpt lat="45.7972504" lon="9.7540909"><ele>795.0</ele><time>2026-04-25T08:45:27.75Z</time></trkpt><trkpt lat="45.7973056" lon="9.7542749"><ele>795.0</ele><time>2026-04-25T08:45:28.75Z</time></trkpt><trkpt lat="45.7973335" lon="9.7544499"><ele>795.0</ele><time>2026-04-25T08:45:29.75Z</time></trkpt><trkpt lat="45.7973504" lon="9.7545953"><ele>795.0</ele><time>2026-04-25T08:45:30.75Z</time></trkpt><trkpt lat="45.797382" lon="9.7547061"><ele>795.0</ele><time>2026-04-25T08:45:31.75Z</time></trkpt><trkpt lat="45.797442" lon="9.7547744"><ele>795.0</ele><time>2026-04-25T08:45:32.751Z</time></trkpt><trkpt lat="45.7975089" lon="9.7547624"><ele>795.0</ele><time>2026-04-25T08:45:33.751Z</time></trkpt><trkpt lat="45.7975516" lon="9.7546787"><ele>795.0</ele><time>2026-04-25T08:45:34.751Z</time></trkpt><trkpt lat="45.7975531" lon="9.7545562"><ele>795.0</ele><time>2026-04-25T08:45:35.75Z</time></trkpt><trkpt lat="45.7975214" lon="9.7544013"><ele>795.0</ele><time>2026-04-25T08:45:36.75Z</time></trkpt><trkpt lat="45.7974796" lon="9.7541997"><ele>795.0</ele><time>2026-04-25T08:45:37.751Z</time></trkpt><trkpt lat="45.7974414" lon="9.7539581"><ele>795.0</ele><time>2026-04-25T08:45:38.75Z</time></trkpt><trkpt lat="45.7974035" lon="9.7536733"><ele>795.0</ele><time>2026-04-25T08:45:39.751Z</time></trkpt><trkpt lat="45.7973694" lon="9.7533907"><ele>793.3333333333333</ele><time>2026-04-25T08:45:40.751Z</time></trkpt><trkpt lat="45.7973374" lon="9.7531185"><ele>791.6666666666666</ele><time>2026-04-25T08:45:41.75Z</time></trkpt><trkpt lat="45.797303" lon="9.7528645"><ele>790.0</ele><time>2026-04-25T08:45:42.751Z</time></trkpt><trkpt lat="45.7972502" lon="9.7526182"><ele>785.0</ele><time>2026-04-25T08:45:43.75Z</time></trkpt><trkpt lat="45.7971708" lon="9.7523905"><ele>780.0</ele><time>2026-04-25T08:45:44.75Z</time></trkpt><trkpt lat="45.7970849" lon="9.7521751"><ele>775.0</ele><time>2026-04-25T08:45:45.751Z</time></trkpt><trkpt lat="45.7970199" lon="9.7519358"><ele>770.6666666666666</ele><time>2026-04-25T08:45:46.75Z</time></trkpt><trkpt lat="45.796984" lon="9.7516794"><ele>766.3333333333333</ele><time>2026-04-25T08:45:47.751Z</time></trkpt><trkpt lat="45.7969681" lon="9.7514246"><ele>762.0</ele><time>2026-04-25T08:45:48.751Z</time></trkpt><trkpt lat="45.7969435" lon="9.7511748"><ele>757.6666666666666</ele><time>2026-04-25T08:45:49.751Z</time></trkpt><trkpt lat="45.7968955" lon="9.7509437"><ele>753.3333333333333</ele><time>2026-04-25T08:45:50.751Z</time></trkpt><trkpt lat="45.7968359" lon="9.7507352"><ele>749.0</ele><time>2026-04-25T08:45:51.751Z</time></trkpt><trkpt lat="45.7967481" lon="9.7505554"><ele>753.6666666666666</ele><time>2026-04-25T08:45:52.751Z</time></trkpt><trkpt lat="45.7966441" lon="9.7503887"><ele>758.3333333333334</ele><time>2026-04-25T08:45:53.75Z</time></trkpt><trkpt lat="45.7965501" lon="9.7501956"><ele>763.0</ele><time>2026-04-25T08:45:54.751Z</time></trkpt><trkpt lat="45.7964707" lon="9.7499958"><ele>763.0</ele><time>2026-04-25T08:45:55.75Z</time></trkpt><trkpt lat="45.7963973" lon="9.7498064"><ele>763.0</ele><time>2026-04-25T08:45:56.75Z</time></trkpt><trkpt lat="45.7963105" lon="9.7496298"><ele>763.0</ele><time>2026-04-25T08:45:57.751Z</time></trkpt><trkpt lat="45.7961995" lon="9.7494565"><ele>763.75</ele><time>2026-04-25T08:45:58.75Z</time></trkpt><trkpt lat="45.7960729" lon="9.7493221"><ele>764.5</ele><time>2026-04-25T08:45:59.751Z</time></trkpt><trkpt lat="45.7959577" lon="9.7492417"><ele>765.25</ele><time>2026-04-25T08:46:00.75Z</time></trkpt><trkpt lat="45.7958568" lon="9.7492079"><ele>766.0</ele><time>2026-04-25T08:46:01.75Z</time></trkpt><trkpt lat="45.7957677" lon="9.7491957"><ele>766.0</ele><time>2026-04-25T08:46:02.751Z</time></trkpt><trkpt lat="45.7956976" lon="9.7491821"><ele>766.0</ele><time>2026-04-25T08:46:03.751Z</time></trkpt><trkpt lat="45.7956215" lon="9.7490828"><ele>766.0</ele><time>2026-04-25T08:46:05.75Z</time></trkpt><trkpt lat="45.7957191" lon="9.748971"><ele>766.0</ele><time>2026-04-25T08:46:07.75Z</time></trkpt><trkpt lat="45.7958166" lon="9.7489919"><ele>766.0</ele><time>2026-04-25T08:46:08.75Z</time></trkpt><trkpt lat="45.7959446" lon="9.7490472"><ele>765.0</ele><time>2026-04-25T08:46:09.75Z</time></trkpt><trkpt lat="45.79609" lon="9.7491262"><ele>764.0</ele><time>2026-04-25T08:46:10.751Z</time></trkpt><trkpt lat="45.7962446" lon="9.7492558"><ele>763.0</ele><time>2026-04-25T08:46:11.75Z</time></trkpt><trkpt lat="45.7963903" lon="9.7494293"><ele>763.0</ele><time>2026-04-25T08:46:12.751Z</time></trkpt><trkpt lat="45.796536" lon="9.749632"><ele>763.0</ele><time>2026-04-25T08:46:13.75Z</time></trkpt><trkpt lat="45.7966785" lon="9.7498281"><ele>763.0</ele><time>2026-04-25T08:46:14.751Z</time></trkpt><trkpt lat="45.7968206" lon="9.7500244"><ele>758.3333333333334</ele><time>2026-04-25T08:46:15.75Z</time></trkpt><trkpt lat="45.7969618" lon="9.7502146"><ele>753.6666666666666</ele><time>2026-04-25T08:46:16.75Z</time></trkpt><trkpt lat="45.7971016" lon="9.7504028"><ele>749.0</ele><time>2026-04-25T08:46:17.75Z</time></trkpt><trkpt lat="45.7972311" lon="9.7505823"><ele>749.0</ele><time>2026-04-25T08:46:18.75Z</time></trkpt><trkpt lat="45.7973361" lon="9.7507617"><ele>749.0</ele><time>2026-04-25T08:46:19.75Z</time></trkpt><trkpt lat="45.7974112" lon="9.7509704"><ele>749.0</ele><time>2026-04-25T08:46:20.751Z</time></trkpt><trkpt lat="45.797451" lon="9.7512013"><ele>753.3333333333333</ele><time>2026-04-25T08:46:21.75Z</time></trkpt><trkpt lat="45.7974873" lon="9.751426"><ele>757.6666666666666</ele><time>2026-04-25T08:46:22.75Z</time></trkpt><trkpt lat="45.797573" lon="9.7516182"><ele>762.0</ele><time>2026-04-25T08:46:23.751Z</time></trkpt><trkpt lat="45.7976914" lon="9.751787"><ele>751.0</ele><time>2026-04-25T08:46:24.751Z</time></trkpt><trkpt lat="45.797791" lon="9.7519797"><ele>740.0</ele><time>2026-04-25T08:46:25.75Z</time></trkpt><trkpt lat="45.7978556" lon="9.752205"><ele>729.0</ele><time>2026-04-25T08:46:26.751Z</time></trkpt><trkpt lat="45.7979087" lon="9.7524558"><ele>729.0</ele><time>2026-04-25T08:46:27.75Z</time></trkpt><trkpt lat="45.7979546" lon="9.7526902"><ele>729.0</ele><time>2026-04-25T08:46:28.751Z</time></trkpt><trkpt lat="45.7979956" lon="9.7529023"><ele>729.0</ele><time>2026-04-25T08:46:29.75Z</time></trkpt><trkpt lat="45.7980277" lon="9.7531039"><ele>731.75</ele><time>2026-04-25T08:46:30.751Z</time></trkpt><trkpt lat="45.7980503" lon="9.7532912"><ele>734.5</ele><time>2026-04-25T08:46:31.751Z</time></trkpt><trkpt lat="45.7980866" lon="9.7534563"><ele>737.25</ele><time>2026-04-25T08:46:32.751Z</time></trkpt><trkpt lat="45.7981608" lon="9.7535857"><ele>740.0</ele><time>2026-04-25T08:46:33.751Z</time></trkpt><trkpt lat="45.7982735" lon="9.7536552"><ele>739.3333333333333</ele><time>2026-04-25T08:46:34.75Z</time></trkpt><trkpt lat="45.7984215" lon="9.7536896"><ele>738.6666666666666</ele><time>2026-04-25T08:46:35.75Z</time></trkpt><trkpt lat="45.7985752" lon="9.7537415"><ele>738.0</ele><time>2026-04-25T08:46:36.751Z</time></trkpt><trkpt lat="45.7987186" lon="9.7538147"><ele>738.0</ele><time>2026-04-25T08:46:37.75Z</time></trkpt><trkpt lat="45.7988485" lon="9.7538729"><ele>738.0</ele><time>2026-04-25T08:46:38.751Z</time></trkpt><trkpt lat="45.7989657" lon="9.7539335"><ele>738.0</ele><time>2026-04-25T08:46:39.75Z</time></trkpt><trkpt lat="45.799076" lon="9.7540322"><ele>738.0</ele><time>2026-04-25T08:46:40.751Z</time></trkpt><trkpt lat="45.7991784" lon="9.7541735"><ele>738.0</ele><time>2026-04-25T08:46:41.75Z</time></trkpt><trkpt lat="45.7992714" lon="9.7543031"><ele>738.0</ele><time>2026-04-25T08:46:42.75Z</time></trkpt><trkpt lat="45.79933" lon="9.7544773"><ele>738.0</ele><time>2026-04-25T08:46:43.751Z</time></trkpt><trkpt lat="45.799355" lon="9.7546941"><ele>738.0</ele><time>2026-04-25T08:46:44.751Z</time></trkpt><trkpt lat="45.799366" lon="9.754938"><ele>731.6666666666666</ele><time>2026-04-25T08:46:45.751Z</time></trkpt><trkpt lat="45.7993744" lon="9.7551907"><ele>725.3333333333333</ele><time>2026-04-25T08:46:46.751Z</time></trkpt><trkpt lat="45.7993738" lon="9.7554613"><ele>719.0</ele><time>2026-04-25T08:46:47.75Z</time></trkpt><trkpt lat="45.799357" lon="9.7557356"><ele>724.6666666666666</ele><time>2026-04-25T08:46:48.751Z</time></trkpt><trkpt lat="45.7993304" lon="9.7559984"><ele>730.3333333333334</ele><time>2026-04-25T08:46:49.75Z</time></trkpt><trkpt lat="45.7993043" lon="9.7562502"><ele>736.0</ele><time>2026-04-25T08:46:50.751Z</time></trkpt><trkpt lat="45.7992879" lon="9.7565036"><ele>736.0</ele><time>2026-04-25T08:46:51.751Z</time></trkpt><trkpt lat="45.7992754" lon="9.7567583"><ele>736.0</ele><time>2026-04-25T08:46:52.751Z</time></trkpt><trkpt lat="45.799259" lon="9.7570083"><ele>736.0</ele><time>2026-04-25T08:46:53.75Z</time></trkpt><trkpt lat="45.7992403" lon="9.7572469"><ele>734.25</ele><time>2026-04-25T08:46:54.75Z</time></trkpt><trkpt lat="45.7992174" lon="9.7574683"><ele>732.5</ele><time>2026-04-25T08:46:55.751Z</time></trkpt><trkpt lat="45.7991781" lon="9.7576739"><ele>730.75</ele><time>2026-04-25T08:46:56.75Z</time></trkpt><trkpt lat="45.7991285" lon="9.7578623"><ele>729.0</ele><time>2026-04-25T08:46:57.751Z</time></trkpt><trkpt lat="45.7990777" lon="9.7580384"><ele>728.75</ele><time>2026-04-25T08:46:58.75Z</time></trkpt><trkpt lat="45.7990226" lon="9.758209"><ele>728.5</ele><time>2026-04-25T08:46:59.751Z</time></trkpt><trkpt lat="45.7989641" lon="9.7583812"><ele>728.25</ele><time>2026-04-25T08:47:00.75Z</time></trkpt><trkpt lat="45.7989008" lon="9.7585493"><ele>728.0</ele><time>2026-04-25T08:47:01.751Z</time></trkpt><trkpt lat="45.7988435" lon="9.7587056"><ele>728.4</ele><time>2026-04-25T08:47:02.751Z</time></trkpt><trkpt lat="45.7987923" lon="9.7588557"><ele>728.8</ele><time>2026-04-25T08:47:03.75Z</time></trkpt><trkpt lat="45.7987862" lon="9.7590051"><ele>729.2</ele><time>2026-04-25T08:47:04.75Z</time></trkpt><trkpt lat="45.7988308" lon="9.7591421"><ele>729.6</ele><time>2026-04-25T08:47:05.751Z</time></trkpt><trkpt lat="45.798905" lon="9.7592449"><ele>730.0</ele><time>2026-04-25T08:47:06.751Z</time></trkpt><trkpt lat="45.7989924" lon="9.759309"><ele>730.0</ele><time>2026-04-25T08:47:07.75Z</time></trkpt><trkpt lat="45.7990977" lon="9.759308"><ele>730.0</ele><time>2026-04-25T08:47:08.751Z</time></trkpt><trkpt lat="45.7992023" lon="9.7592434"><ele>730.0</ele><time>2026-04-25T08:47:09.751Z</time></trkpt><trkpt lat="45.7993153" lon="9.7591612"><ele>730.0</ele><time>2026-04-25T08:47:10.75Z</time></trkpt><trkpt lat="45.7994686" lon="9.7590553"><ele>733.3333333333334</ele><time>2026-04-25T08:47:11.75Z</time></trkpt><trkpt lat="45.7996493" lon="9.7589458"><ele>736.6666666666666</ele><time>2026-04-25T08:47:12.75Z</time></trkpt><trkpt lat="45.7998634" lon="9.7588051"><ele>740.0</ele><time>2026-04-25T08:47:13.75Z</time></trkpt><trkpt lat="45.8000884" lon="9.7586379"><ele>737.5</ele><time>2026-04-25T08:47:14.751Z</time></trkpt><trkpt lat="45.8003152" lon="9.7584385"><ele>735.0</ele><time>2026-04-25T08:47:15.751Z</time></trkpt><trkpt lat="45.8005212" lon="9.7582225"><ele>735.0</ele><time>2026-04-25T08:47:16.75Z</time></trkpt><trkpt lat="45.800715" lon="9.757987"><ele>735.0</ele><time>2026-04-25T08:47:17.75Z</time></trkpt><trkpt lat="45.8008981" lon="9.7577256"><ele>735.5</ele><time>2026-04-25T08:47:18.751Z</time></trkpt><trkpt lat="45.801058" lon="9.757437"><ele>736.0</ele><time>2026-04-25T08:47:19.751Z</time></trkpt><trkpt lat="45.8012035" lon="9.7571319"><ele>728.0</ele><time>2026-04-25T08:47:20.751Z</time></trkpt><trkpt lat="45.8013379" lon="9.7568339"><ele>720.0</ele><time>2026-04-25T08:47:21.75Z</time></trkpt><trkpt lat="45.8014626" lon="9.756543"><ele>720.0</ele><time>2026-04-25T08:47:22.75Z</time></trkpt><trkpt lat="45.8015792" lon="9.7562626"><ele>720.0</ele><time>2026-04-25T08:47:23.75Z</time></trkpt><trkpt lat="45.8016855" lon="9.7559875"><ele>720.0</ele><time>2026-04-25T08:47:24.75Z</time></trkpt><trkpt lat="45.8017768" lon="9.7557153"><ele>719.3333333333334</ele><time>2026-04-25T08:47:25.75Z</time></trkpt><trkpt lat="45.8018449" lon="9.7554419"><ele>718.6666666666667</ele><time>2026-04-25T08:47:26.751Z</time></trkpt><trkpt lat="45.8019026" lon="9.7551786"><ele>718.0</ele><time>2026-04-25T08:47:27.751Z</time></trkpt><trkpt lat="45.801953" lon="9.7549291"><ele>718.0</ele><time>2026-04-25T08:47:28.75Z</time></trkpt><trkpt lat="45.8019986" lon="9.7546899"><ele>718.0</ele><time>2026-04-25T08:47:29.751Z</time></trkpt><trkpt lat="45.8020239" lon="9.7544579"><ele>718.0</ele><time>2026-04-25T08:47:30.751Z</time></trkpt><trkpt lat="45.8020162" lon="9.7542301"><ele>715.6666666666667</ele><time>2026-04-25T08:47:31.75Z</time></trkpt><trkpt lat="45.8019931" lon="9.7540058"><ele>713.3333333333334</ele><time>2026-04-25T08:47:32.751Z</time></trkpt><trkpt lat="45.801973" lon="9.7537883"><ele>711.0</ele><time>2026-04-25T08:47:33.75Z</time></trkpt><trkpt lat="45.8019688" lon="9.7535729"><ele>710.5</ele><time>2026-04-25T08:47:34.75Z</time></trkpt><trkpt lat="45.8019662" lon="9.7533602"><ele>710.0</ele><time>2026-04-25T08:47:35.751Z</time></trkpt><trkpt lat="45.8019648" lon="9.7531512"><ele>709.5</ele><time>2026-04-25T08:47:36.75Z</time></trkpt><trkpt lat="45.8019631" lon="9.7529415"><ele>709.0</ele><time>2026-04-25T08:47:37.75Z</time></trkpt><trkpt lat="45.8019609" lon="9.7527362"><ele>709.25</ele><time>2026-04-25T08:47:38.75Z</time></trkpt><trkpt lat="45.8019605" lon="9.752532"><ele>709.5</ele><time>2026-04-25T08:47:39.751Z</time></trkpt><trkpt lat="45.801961" lon="9.7523314"><ele>709.75</ele><time>2026-04-25T08:47:40.75Z</time></trkpt><trkpt lat="45.8019616" lon="9.752132"><ele>710.0</ele><time>2026-04-25T08:47:41.75Z</time></trkpt><trkpt lat="45.8019607" lon="9.7519368"><ele>709.25</ele><time>2026-04-25T08:47:42.751Z</time></trkpt><trkpt lat="45.8019532" lon="9.7517458"><ele>708.5</ele><time>2026-04-25T08:47:43.75Z</time></trkpt><trkpt lat="45.8019332" lon="9.7515586"><ele>707.75</ele><time>2026-04-25T08:47:44.751Z</time></trkpt><trkpt lat="45.8018946" lon="9.7513784"><ele>707.0</ele><time>2026-04-25T08:47:45.751Z</time></trkpt><trkpt lat="45.8018317" lon="9.7512151"><ele>701.5</ele><time>2026-04-25T08:47:46.751Z</time></trkpt><trkpt lat="45.8017554" lon="9.7510657"><ele>696.0</ele><time>2026-04-25T08:47:47.751Z</time></trkpt><trkpt lat="45.8016671" lon="9.7509334"><ele>690.5</ele><time>2026-04-25T08:47:48.75Z</time></trkpt><trkpt lat="45.8015643" lon="9.7508279"><ele>685.0</ele><time>2026-04-25T08:47:49.75Z</time></trkpt><trkpt lat="45.8014442" lon="9.7507625"><ele>684.25</ele><time>2026-04-25T08:47:50.75Z</time></trkpt><trkpt lat="45.8013048" lon="9.7507453"><ele>683.5</ele><time>2026-04-25T08:47:51.751Z</time></trkpt><trkpt lat="45.8011588" lon="9.7507547"><ele>682.75</ele><time>2026-04-25T08:47:52.75Z</time></trkpt><trkpt lat="45.8010125" lon="9.7507723"><ele>682.0</ele><time>2026-04-25T08:47:53.75Z</time></trkpt><trkpt lat="45.8008722" lon="9.750786"><ele>679.25</ele><time>2026-04-25T08:47:54.751Z</time></trkpt><trkpt lat="45.800731" lon="9.7507885"><ele>676.5</ele><time>2026-04-25T08:47:55.75Z</time></trkpt><trkpt lat="45.8005929" lon="9.7507867"><ele>673.75</ele><time>2026-04-25T08:47:56.75Z</time></trkpt><trkpt lat="45.8004596" lon="9.7507508"><ele>671.0</ele><time>2026-04-25T08:47:57.75Z</time></trkpt><trkpt lat="45.8003486" lon="9.7506459"><ele>671.0</ele><time>2026-04-25T08:47:58.751Z</time></trkpt><trkpt lat="45.8002766" lon="9.7504993"><ele>671.0</ele><time>2026-04-25T08:47:59.75Z</time></trkpt><trkpt lat="45.8002481" lon="9.7503269"><ele>671.0</ele><time>2026-04-25T08:48:00.75Z</time></trkpt><trkpt lat="45.8002463" lon="9.7501464"><ele>671.0</ele><time>2026-04-25T08:48:01.75Z</time></trkpt><trkpt lat="45.8002588" lon="9.7499647"><ele>670.4</ele><time>2026-04-25T08:48:02.751Z</time></trkpt><trkpt lat="45.8002733" lon="9.7497872"><ele>669.8</ele><time>2026-04-25T08:48:03.751Z</time></trkpt><trkpt lat="45.8002869" lon="9.7496379"><ele>669.1999999999999</ele><time>2026-04-25T08:48:04.751Z</time></trkpt><trkpt lat="45.800301" lon="9.7495189"><ele>668.5999999999999</ele><time>2026-04-25T08:48:05.75Z</time></trkpt><trkpt lat="45.8003117" lon="9.7494287"><ele>668.0</ele><time>2026-04-25T08:48:06.751Z</time></trkpt><trkpt lat="45.8003257" lon="9.7493108"><ele>667.0</ele><time>2026-04-25T08:48:08.75Z</time></trkpt><trkpt lat="45.8003363" lon="9.7492203"><ele>666.0</ele><time>2026-04-25T08:48:13.75Z</time></trkpt><trkpt lat="45.8003489" lon="9.749106"><ele>665.0</ele><time>2026-04-25T08:48:16.75Z</time></trkpt><trkpt lat="45.8003693" lon="9.7489257"><ele>664.0</ele><time>2026-04-25T08:48:18.75Z</time></trkpt><trkpt lat="45.8003814" lon="9.748804"><ele>663.0</ele><time>2026-04-25T08:48:19.75Z</time></trkpt><trkpt lat="45.8003935" lon="9.7486648"><ele>660.5</ele><time>2026-04-25T08:48:20.75Z</time></trkpt><trkpt lat="45.800404" lon="9.7485128"><ele>658.0</ele><time>2026-04-25T08:48:21.75Z</time></trkpt><trkpt lat="45.8004188" lon="9.7483561"><ele>655.5</ele><time>2026-04-25T08:48:22.75Z</time></trkpt><trkpt lat="45.8004381" lon="9.7481935"><ele>653.0</ele><time>2026-04-25T08:48:23.75Z</time></trkpt><trkpt lat="45.8004662" lon="9.7480256"><ele>653.0</ele><time>2026-04-25T08:48:24.751Z</time></trkpt><trkpt lat="45.800506" lon="9.7478611"><ele>653.0</ele><time>2026-04-25T08:48:25.75Z</time></trkpt><trkpt lat="45.8005736" lon="9.7477095"><ele>653.0</ele><time>2026-04-25T08:48:26.751Z</time></trkpt><trkpt lat="45.8006716" lon="9.7475858"><ele>653.0</ele><time>2026-04-25T08:48:27.75Z</time></trkpt><trkpt lat="45.800787" lon="9.7474825"><ele>652.0</ele><time>2026-04-25T08:48:28.75Z</time></trkpt><trkpt lat="45.8009016" lon="9.7473825"><ele>651.0</ele><time>2026-04-25T08:48:29.751Z</time></trkpt><trkpt lat="45.8010043" lon="9.747264"><ele>650.0</ele><time>2026-04-25T08:48:30.75Z</time></trkpt><trkpt lat="45.8010889" lon="9.7471187"><ele>649.0</ele><time>2026-04-25T08:48:31.751Z</time></trkpt><trkpt lat="45.8011478" lon="9.746951"><ele>648.0</ele><time>2026-04-25T08:48:32.75Z</time></trkpt><trkpt lat="45.8011712" lon="9.7467786"><ele>647.0</ele><time>2026-04-25T08:48:33.75Z</time></trkpt><trkpt lat="45.8011545" lon="9.7466161"><ele>646.0</ele><time>2026-04-25T08:48:34.751Z</time></trkpt><trkpt lat="45.8010839" lon="9.7464928"><ele>645.0</ele><time>2026-04-25T08:48:35.75Z</time></trkpt><trkpt lat="45.8009777" lon="9.7464208"><ele>645.0</ele><time>2026-04-25T08:48:36.75Z</time></trkpt><trkpt lat="45.8008435" lon="9.7463708"><ele>645.0</ele><time>2026-04-25T08:48:37.75Z</time></trkpt><trkpt lat="45.8006932" lon="9.7463398"><ele>645.0</ele><time>2026-04-25T08:48:38.75Z</time></trkpt><trkpt lat="45.8005384" lon="9.7463219"><ele>645.0</ele><time>2026-04-25T08:48:39.75Z</time></trkpt><trkpt lat="45.800386" lon="9.7463126"><ele>645.0</ele><time>2026-04-25T08:48:40.751Z</time></trkpt><trkpt lat="45.800237" lon="9.7463107"><ele>645.0</ele><time>2026-04-25T08:48:41.751Z</time></trkpt><trkpt lat="45.8000875" lon="9.7463283"><ele>645.0</ele><time>2026-04-25T08:48:42.75Z</time></trkpt><trkpt lat="45.799945" lon="9.7463702"><ele>645.0</ele><time>2026-04-25T08:48:43.75Z</time></trkpt><trkpt lat="45.7998108" lon="9.7464293"><ele>643.8</ele><time>2026-04-25T08:48:44.75Z</time></trkpt><trkpt lat="45.7996936" lon="9.7464953"><ele>642.6</ele><time>2026-04-25T08:48:45.751Z</time></trkpt><trkpt lat="45.7995856" lon="9.7465577"><ele>641.4</ele><time>2026-04-25T08:48:46.75Z</time></trkpt><trkpt lat="45.7994851" lon="9.7466069"><ele>640.2</ele><time>2026-04-25T08:48:47.75Z</time></trkpt><trkpt lat="45.7993892" lon="9.7466058"><ele>639.0</ele><time>2026-04-25T08:48:48.751Z</time></trkpt><trkpt lat="45.7993009" lon="9.7465242"><ele>634.75</ele><time>2026-04-25T08:48:49.75Z</time></trkpt><trkpt lat="45.7992276" lon="9.7463877"><ele>630.5</ele><time>2026-04-25T08:48:50.751Z</time></trkpt><trkpt lat="45.7991778" lon="9.7462138"><ele>626.25</ele><time>2026-04-25T08:48:51.751Z</time></trkpt><trkpt lat="45.7991644" lon="9.7460326"><ele>622.0</ele><time>2026-04-25T08:48:52.751Z</time></trkpt><trkpt lat="45.7991743" lon="9.7458902"><ele>622.0</ele><time>2026-04-25T08:48:53.75Z</time></trkpt><trkpt lat="45.7992128" lon="9.745766"><ele>622.0</ele><time>2026-04-25T08:48:54.75Z</time></trkpt><trkpt lat="45.7992858" lon="9.7457029"><ele>622.0</ele><time>2026-04-25T08:48:55.751Z</time></trkpt><trkpt lat="45.7993753" lon="9.7457102"><ele>622.0</ele><time>2026-04-25T08:48:56.75Z</time></trkpt><trkpt lat="45.7994757" lon="9.7457582"><ele>622.0</ele><time>2026-04-25T08:48:57.751Z</time></trkpt><trkpt lat="45.7995857" lon="9.7458132"><ele>622.0</ele><time>2026-04-25T08:48:58.751Z</time></trkpt><trkpt lat="45.7996911" lon="9.7458474"><ele>622.0</ele><time>2026-04-25T08:48:59.75Z</time></trkpt><trkpt lat="45.7997824" lon="9.7458391"><ele>622.0</ele><time>2026-04-25T08:49:00.75Z</time></trkpt><trkpt lat="45.7998496" lon="9.7457727"><ele>622.0</ele><time>2026-04-25T08:49:01.75Z</time></trkpt><trkpt lat="45.7998657" lon="9.7456626"><ele>622.0</ele><time>2026-04-25T08:49:02.75Z</time></trkpt><trkpt lat="45.7998243" lon="9.7455639"><ele>622.0</ele><time>2026-04-25T08:49:03.751Z</time></trkpt><trkpt lat="45.7997339" lon="9.7454913"><ele>622.0</ele><time>2026-04-25T08:49:04.75Z</time></trkpt><trkpt lat="45.7995902" lon="9.7454081"><ele>622.0</ele><time>2026-04-25T08:49:05.75Z</time></trkpt><trkpt lat="45.7994349" lon="9.7453304"><ele>622.0</ele><time>2026-04-25T08:49:06.751Z</time></trkpt><trkpt lat="45.7992933" lon="9.7452573"><ele>620.8000000000001</ele><time>2026-04-25T08:49:07.75Z</time></trkpt><trkpt lat="45.7991676" lon="9.7451835"><ele>619.6</ele><time>2026-04-25T08:49:08.751Z</time></trkpt><trkpt lat="45.7990611" lon="9.7451449"><ele>618.4000000000001</ele><time>2026-04-25T08:49:09.751Z</time></trkpt><trkpt lat="45.7989623" lon="9.7451613"><ele>617.2</ele><time>2026-04-25T08:49:10.751Z</time></trkpt><trkpt lat="45.7988798" lon="9.7452521"><ele>616.0</ele><time>2026-04-25T08:49:11.75Z</time></trkpt><trkpt lat="45.7988268" lon="9.745397"><ele>616.0</ele><time>2026-04-25T08:49:12.75Z</time></trkpt><trkpt lat="45.7987969" lon="9.7455759"><ele>616.0</ele><time>2026-04-25T08:49:13.75Z</time></trkpt><trkpt lat="45.7987685" lon="9.7457296"><ele>616.0</ele><time>2026-04-25T08:49:14.751Z</time></trkpt><trkpt lat="45.7987358" lon="9.7458392"><ele>616.0</ele><time>2026-04-25T08:49:15.75Z</time></trkpt><trkpt lat="45.7986856" lon="9.74591"><ele>616.0</ele><time>2026-04-25T08:49:16.75Z</time></trkpt><trkpt lat="45.7986197" lon="9.7459253"><ele>616.0</ele><time>2026-04-25T08:49:17.751Z</time></trkpt><trkpt lat="45.7985502" lon="9.745869"><ele>616.0</ele><time>2026-04-25T08:49:18.75Z</time></trkpt><trkpt lat="45.7985144" lon="9.7457416"><ele>616.0</ele><time>2026-04-25T08:49:19.75Z</time></trkpt><trkpt lat="45.7985332" lon="9.7455788"><ele>616.0</ele><time>2026-04-25T08:49:20.75Z</time></trkpt><trkpt lat="45.7985872" lon="9.7453829"><ele>616.0</ele><time>2026-04-25T08:49:21.751Z</time></trkpt><trkpt lat="45.7986301" lon="9.7451555"><ele>611.0</ele><time>2026-04-25T08:49:22.75Z</time></trkpt><trkpt lat="45.7986392" lon="9.7448973"><ele>606.0</ele><time>2026-04-25T08:49:23.75Z</time></trkpt><trkpt lat="45.7986172" lon="9.7446573"><ele>601.0</ele><time>2026-04-25T08:49:24.75Z</time></trkpt><trkpt lat="45.7986091" lon="9.7444219"><ele>597.25</ele><time>2026-04-25T08:49:25.751Z</time></trkpt><trkpt lat="45.7986367" lon="9.7442079"><ele>593.5</ele><time>2026-04-25T08:49:26.75Z</time></trkpt><trkpt lat="45.7987085" lon="9.744022"><ele>589.75</ele><time>2026-04-25T08:49:27.75Z</time></trkpt><trkpt lat="45.7987929" lon="9.7438999"><ele>586.0</ele><time>2026-04-25T08:49:28.75Z</time></trkpt><trkpt lat="45.798864" lon="9.743875"><ele>586.0</ele><time>2026-04-25T08:49:29.75Z</time></trkpt><trkpt lat="45.7989438" lon="9.7438978"><ele>586.0</ele><time>2026-04-25T08:49:30.75Z</time></trkpt><trkpt lat="45.799028" lon="9.7439877"><ele>586.0</ele><time>2026-04-25T08:49:31.75Z</time></trkpt><trkpt lat="45.799115" lon="9.7441047"><ele>586.0</ele><time>2026-04-25T08:49:32.751Z</time></trkpt><trkpt lat="45.7992267" lon="9.7442115"><ele>586.0</ele><time>2026-04-25T08:49:33.751Z</time></trkpt><trkpt lat="45.7993664" lon="9.7442821"><ele>585.0</ele><time>2026-04-25T08:49:34.751Z</time></trkpt><trkpt lat="45.7995229" lon="9.7443188"><ele>584.0</ele><time>2026-04-25T08:49:35.751Z</time></trkpt><trkpt lat="45.7996884" lon="9.7443434"><ele>583.0</ele><time>2026-04-25T08:49:36.75Z</time></trkpt><trkpt lat="45.799862" lon="9.7443684"><ele>587.0</ele><time>2026-04-25T08:49:37.75Z</time></trkpt><trkpt lat="45.8000352" lon="9.7443946"><ele>591.0</ele><time>2026-04-25T08:49:38.75Z</time></trkpt><trkpt lat="45.8002078" lon="9.7444281"><ele>595.0</ele><time>2026-04-25T08:49:39.75Z</time></trkpt><trkpt lat="45.8003789" lon="9.7444381"><ele>595.0</ele><time>2026-04-25T08:49:40.75Z</time></trkpt><trkpt lat="45.8005427" lon="9.744401"><ele>595.0</ele><time>2026-04-25T08:49:41.75Z</time></trkpt><trkpt lat="45.8006903" lon="9.7443035"><ele>595.0</ele><time>2026-04-25T08:49:42.751Z</time></trkpt><trkpt lat="45.8008414" lon="9.7442228"><ele>589.3333333333334</ele><time>2026-04-25T08:49:43.75Z</time></trkpt><trkpt lat="45.8009989" lon="9.7441801"><ele>583.6666666666666</ele><time>2026-04-25T08:49:44.751Z</time></trkpt><trkpt lat="45.8011497" lon="9.7442015"><ele>578.0</ele><time>2026-04-25T08:49:45.751Z</time></trkpt><trkpt lat="45.8013043" lon="9.7442733"><ele>576.3333333333333</ele><time>2026-04-25T08:49:46.75Z</time></trkpt><trkpt lat="45.801461" lon="9.7443618"><ele>574.6666666666666</ele><time>2026-04-25T08:49:47.751Z</time></trkpt><trkpt lat="45.8016179" lon="9.7444187"><ele>573.0</ele><time>2026-04-25T08:49:48.751Z</time></trkpt><trkpt lat="45.8017791" lon="9.7444331"><ele>579.0</ele><time>2026-04-25T08:49:49.751Z</time></trkpt><trkpt lat="45.801943" lon="9.744415"><ele>585.0</ele><time>2026-04-25T08:49:50.751Z</time></trkpt><trkpt lat="45.8021073" lon="9.7443986"><ele>591.0</ele><time>2026-04-25T08:49:51.751Z</time></trkpt><trkpt lat="45.802271" lon="9.7443878"><ele>585.6666666666666</ele><time>2026-04-25T08:49:52.751Z</time></trkpt><trkpt lat="45.8024335" lon="9.744376"><ele>580.3333333333333</ele><time>2026-04-25T08:49:53.751Z</time></trkpt><trkpt lat="45.8025959" lon="9.7443712"><ele>575.0</ele><time>2026-04-25T08:49:54.751Z</time></trkpt><trkpt lat="45.8027493" lon="9.744359"><ele>575.0</ele><time>2026-04-25T08:49:55.75Z</time></trkpt><trkpt lat="45.80289" lon="9.7443187"><ele>575.0</ele><time>2026-04-25T08:49:56.751Z</time></trkpt><trkpt lat="45.8030141" lon="9.7442427"><ele>575.0</ele><time>2026-04-25T08:49:57.75Z</time></trkpt><trkpt lat="45.8031317" lon="9.7441774"><ele>575.0</ele><time>2026-04-25T08:49:58.751Z</time></trkpt><trkpt lat="45.8032539" lon="9.7441814"><ele>575.0</ele><time>2026-04-25T08:49:59.75Z</time></trkpt><trkpt lat="45.8033805" lon="9.7442023"><ele>575.0</ele><time>2026-04-25T08:50:00.751Z</time></trkpt><trkpt lat="45.8035004" lon="9.7441711"><ele>575.0</ele><time>2026-04-25T08:50:01.75Z</time></trkpt><trkpt lat="45.8035984" lon="9.7440799"><ele>575.0</ele><time>2026-04-25T08:50:02.75Z</time></trkpt><trkpt lat="45.8036638" lon="9.7439297"><ele>572.75</ele><time>2026-04-25T08:50:03.751Z</time></trkpt><trkpt lat="45.803715" lon="9.74375"><ele>570.5</ele><time>2026-04-25T08:50:04.75Z</time></trkpt><trkpt lat="45.8037789" lon="9.7435977"><ele>568.25</ele><time>2026-04-25T08:50:05.75Z</time></trkpt><trkpt lat="45.8038605" lon="9.7434798"><ele>566.0</ele><time>2026-04-25T08:50:06.751Z</time></trkpt><trkpt lat="45.8039557" lon="9.7434152"><ele>566.0</ele><time>2026-04-25T08:50:07.751Z</time></trkpt><trkpt lat="45.8040655" lon="9.7434378"><ele>566.0</ele><time>2026-04-25T08:50:08.751Z</time></trkpt><trkpt lat="45.8041676" lon="9.7435315"><ele>566.0</ele><time>2026-04-25T08:50:09.751Z</time></trkpt><trkpt lat="45.8042665" lon="9.7436482"><ele>566.0</ele><time>2026-04-25T08:50:10.75Z</time></trkpt><trkpt lat="45.8043547" lon="9.7438046"><ele>569.75</ele><time>2026-04-25T08:50:11.751Z</time></trkpt><trkpt lat="45.8044028" lon="9.7440132"><ele>573.5</ele><time>2026-04-25T08:50:12.751Z</time></trkpt><trkpt lat="45.8044286" lon="9.7442194"><ele>577.25</ele><time>2026-04-25T08:50:13.75Z</time></trkpt><trkpt lat="45.8044492" lon="9.7444246"><ele>581.0</ele><time>2026-04-25T08:50:14.75Z</time></trkpt><trkpt lat="45.8044559" lon="9.7446193"><ele>581.0</ele><time>2026-04-25T08:50:15.75Z</time></trkpt><trkpt lat="45.8044585" lon="9.7447937"><ele>581.0</ele><time>2026-04-25T08:50:16.75Z</time></trkpt><trkpt lat="45.8044826" lon="9.7449589"><ele>581.0</ele><time>2026-04-25T08:50:17.751Z</time></trkpt><trkpt lat="45.8045395" lon="9.745115"><ele>581.0</ele><time>2026-04-25T08:50:18.751Z</time></trkpt><trkpt lat="45.8046124" lon="9.7452597"><ele>578.0</ele><time>2026-04-25T08:50:19.75Z</time></trkpt><trkpt lat="45.804677" lon="9.7454065"><ele>575.0</ele><time>2026-04-25T08:50:20.75Z</time></trkpt><trkpt lat="45.8047183" lon="9.7455633"><ele>572.0</ele><time>2026-04-25T08:50:21.751Z</time></trkpt><trkpt lat="45.8047448" lon="9.7457141"><ele>569.0</ele><time>2026-04-25T08:50:22.751Z</time></trkpt><trkpt lat="45.804767" lon="9.7458472"><ele>566.0</ele><time>2026-04-25T08:50:23.751Z</time></trkpt><trkpt lat="45.8047975" lon="9.7459617"><ele>565.4</ele><time>2026-04-25T08:50:24.751Z</time></trkpt><trkpt lat="45.8048357" lon="9.7460638"><ele>564.8</ele><time>2026-04-25T08:50:25.751Z</time></trkpt><trkpt lat="45.8048931" lon="9.7461466"><ele>564.1999999999999</ele><time>2026-04-25T08:50:26.75Z</time></trkpt><trkpt lat="45.8049867" lon="9.7462037"><ele>563.6</ele><time>2026-04-25T08:50:27.75Z</time></trkpt><trkpt lat="45.8051225" lon="9.7462428"><ele>563.0</ele><time>2026-04-25T08:50:28.751Z</time></trkpt><trkpt lat="45.8052587" lon="9.7462821"><ele>561.5</ele><time>2026-04-25T08:50:29.751Z</time></trkpt><trkpt lat="45.8053929" lon="9.7463234"><ele>560.0</ele><time>2026-04-25T08:50:30.75Z</time></trkpt><trkpt lat="45.8055096" lon="9.7463811"><ele>558.5</ele><time>2026-04-25T08:50:31.75Z</time></trkpt><trkpt lat="45.8055857" lon="9.7464757"><ele>557.0</ele><time>2026-04-25T08:50:32.75Z</time></trkpt><trkpt lat="45.8056241" lon="9.7466081"><ele>557.0</ele><time>2026-04-25T08:50:33.751Z</time></trkpt><trkpt lat="45.8056474" lon="9.7467468"><ele>557.0</ele><time>2026-04-25T08:50:34.75Z</time></trkpt><trkpt lat="45.8057122" lon="9.7468689"><ele>557.0</ele><time>2026-04-25T08:50:35.75Z</time></trkpt><trkpt lat="45.8058159" lon="9.7469425"><ele>557.0</ele><time>2026-04-25T08:50:36.75Z</time></trkpt><trkpt lat="45.8059426" lon="9.7469704"><ele>561.3333333333333</ele><time>2026-04-25T08:50:37.751Z</time></trkpt><trkpt lat="45.806101" lon="9.7469545"><ele>565.6666666666666</ele><time>2026-04-25T08:50:38.75Z</time></trkpt><trkpt lat="45.8062797" lon="9.7469318"><ele>570.0</ele><time>2026-04-25T08:50:39.75Z</time></trkpt><trkpt lat="45.8064509" lon="9.746923"><ele>570.0</ele><time>2026-04-25T08:50:40.75Z</time></trkpt><trkpt lat="45.8066215" lon="9.7469429"><ele>570.0</ele><time>2026-04-25T08:50:41.751Z</time></trkpt><trkpt lat="45.8067858" lon="9.7470028"><ele>570.0</ele><time>2026-04-25T08:50:42.75Z</time></trkpt><trkpt lat="45.8069483" lon="9.7470017"><ele>567.0</ele><time>2026-04-25T08:50:43.75Z</time></trkpt><trkpt lat="45.8071168" lon="9.7469399"><ele>564.0</ele><time>2026-04-25T08:50:44.751Z</time></trkpt><trkpt lat="45.8072719" lon="9.7468671"><ele>561.0</ele><time>2026-04-25T08:50:45.75Z</time></trkpt><trkpt lat="45.8074216" lon="9.7468125"><ele>559.0</ele><time>2026-04-25T08:50:46.75Z</time></trkpt><trkpt lat="45.8075683" lon="9.7468348"><ele>557.0</ele><time>2026-04-25T08:50:47.751Z</time></trkpt><trkpt lat="45.8077076" lon="9.7469258"><ele>555.0</ele><time>2026-04-25T08:50:48.751Z</time></trkpt><trkpt lat="45.8078425" lon="9.7470398"><ele>555.0</ele><time>2026-04-25T08:50:49.751Z</time></trkpt><trkpt lat="45.8079727" lon="9.7471485"><ele>555.0</ele><time>2026-04-25T08:50:50.751Z</time></trkpt><trkpt lat="45.8081135" lon="9.7472128"><ele>555.0</ele><time>2026-04-25T08:50:51.75Z</time></trkpt><trkpt lat="45.8082674" lon="9.747191"><ele>555.0</ele><time>2026-04-25T08:50:52.75Z</time></trkpt><trkpt lat="45.8084258" lon="9.7471323"><ele>555.0</ele><time>2026-04-25T08:50:53.751Z</time></trkpt><trkpt lat="45.808607" lon="9.7470958"><ele>555.0</ele><time>2026-04-25T08:50:54.75Z</time></trkpt><trkpt lat="45.8088142" lon="9.7470861"><ele>554.5</ele><time>2026-04-25T08:50:55.75Z</time></trkpt><trkpt lat="45.8090367" lon="9.7470561"><ele>554.0</ele><time>2026-04-25T08:50:56.75Z</time></trkpt><trkpt lat="45.8092716" lon="9.7470068"><ele>555.5</ele><time>2026-04-25T08:50:57.751Z</time></trkpt><trkpt lat="45.809508" lon="9.7469422"><ele>557.0</ele><time>2026-04-25T08:50:58.751Z</time></trkpt><trkpt lat="45.8097308" lon="9.7468873"><ele>550.0</ele><time>2026-04-25T08:50:59.75Z</time></trkpt><trkpt lat="45.8099274" lon="9.7468649"><ele>543.0</ele><time>2026-04-25T08:51:00.75Z</time></trkpt><trkpt lat="45.810107" lon="9.7468038"><ele>536.0</ele><time>2026-04-25T08:51:01.75Z</time></trkpt><trkpt lat="45.8102781" lon="9.7467289"><ele>534.0</ele><time>2026-04-25T08:51:02.75Z</time></trkpt><trkpt lat="45.8104657" lon="9.7467015"><ele>532.0</ele><time>2026-04-25T08:51:03.751Z</time></trkpt><trkpt lat="45.8106722" lon="9.7467014"><ele>530.0</ele><time>2026-04-25T08:51:04.751Z</time></trkpt><trkpt lat="45.8108946" lon="9.7466729"><ele>528.0</ele><time>2026-04-25T08:51:05.751Z</time></trkpt><trkpt lat="45.8111372" lon="9.7466121"><ele>526.0</ele><time>2026-04-25T08:51:06.75Z</time></trkpt><trkpt lat="45.8113727" lon="9.7465514"><ele>526.0</ele><time>2026-04-25T08:51:07.75Z</time></trkpt><trkpt lat="45.8115902" lon="9.746483"><ele>526.0</ele><time>2026-04-25T08:51:08.75Z</time></trkpt><trkpt lat="45.8117972" lon="9.7464037"><ele>526.0</ele><time>2026-04-25T08:51:09.751Z</time></trkpt><trkpt lat="45.8119981" lon="9.7463368"><ele>528.3333333333334</ele><time>2026-04-25T08:51:10.751Z</time></trkpt><trkpt lat="45.8121915" lon="9.7463023"><ele>530.6666666666666</ele><time>2026-04-25T08:51:11.751Z</time></trkpt><trkpt lat="45.8123715" lon="9.7462511"><ele>533.0</ele><time>2026-04-25T08:51:12.751Z</time></trkpt><trkpt lat="45.8125341" lon="9.7461472"><ele>528.0</ele><time>2026-04-25T08:51:13.75Z</time></trkpt><trkpt lat="45.8126819" lon="9.7460226"><ele>523.0</ele><time>2026-04-25T08:51:14.75Z</time></trkpt><trkpt lat="45.8128386" lon="9.7459481"><ele>518.0</ele><time>2026-04-25T08:51:15.75Z</time></trkpt><trkpt lat="45.8129883" lon="9.7458998"><ele>518.0</ele><time>2026-04-25T08:51:16.751Z</time></trkpt><trkpt lat="45.8131236" lon="9.7458479"><ele>518.0</ele><time>2026-04-25T08:51:17.751Z</time></trkpt><trkpt lat="45.813236" lon="9.7457925"><ele>518.0</ele><time>2026-04-25T08:51:18.75Z</time></trkpt><trkpt lat="45.8133239" lon="9.745691"><ele>518.0</ele><time>2026-04-25T08:51:19.75Z</time></trkpt><trkpt lat="45.8133673" lon="9.7455522"><ele>518.0</ele><time>2026-04-25T08:51:20.751Z</time></trkpt><trkpt lat="45.8133626" lon="9.7453916"><ele>518.0</ele><time>2026-04-25T08:51:21.75Z</time></trkpt><trkpt lat="45.8133451" lon="9.7452338"><ele>518.0</ele><time>2026-04-25T08:51:22.75Z</time></trkpt><trkpt lat="45.8133836" lon="9.7450752"><ele>518.0</ele><time>2026-04-25T08:51:23.75Z</time></trkpt><trkpt lat="45.8134748" lon="9.7449341"><ele>516.25</ele><time>2026-04-25T08:51:24.751Z</time></trkpt><trkpt lat="45.8135917" lon="9.744793"><ele>514.5</ele><time>2026-04-25T08:51:25.75Z</time></trkpt><trkpt lat="45.8137011" lon="9.7446573"><ele>512.75</ele><time>2026-04-25T08:51:26.75Z</time></trkpt><trkpt lat="45.8138092" lon="9.7445299"><ele>511.0</ele><time>2026-04-25T08:51:27.751Z</time></trkpt><trkpt lat="45.8139104" lon="9.7444102"><ele>509.6</ele><time>2026-04-25T08:51:28.75Z</time></trkpt><trkpt lat="45.814" lon="9.7442925"><ele>508.20000000000005</ele><time>2026-04-25T08:51:29.751Z</time></trkpt><trkpt lat="45.8140655" lon="9.7441579"><ele>506.79999999999995</ele><time>2026-04-25T08:51:30.751Z</time></trkpt><trkpt lat="45.814102" lon="9.7440105"><ele>505.4</ele><time>2026-04-25T08:51:31.751Z</time></trkpt><trkpt lat="45.81412" lon="9.743867"><ele>504.0</ele><time>2026-04-25T08:51:32.75Z</time></trkpt><trkpt lat="45.814139" lon="9.7437289"><ele>504.0</ele><time>2026-04-25T08:51:33.75Z</time></trkpt><trkpt lat="45.8141809" lon="9.7436018"><ele>504.0</ele><time>2026-04-25T08:51:34.75Z</time></trkpt><trkpt lat="45.8142563" lon="9.7434885"><ele>504.0</ele><time>2026-04-25T08:51:35.751Z</time></trkpt><trkpt lat="45.8143597" lon="9.7433808"><ele>504.0</ele><time>2026-04-25T08:51:36.751Z</time></trkpt><trkpt lat="45.8144946" lon="9.743266"><ele>503.33333333333337</ele><time>2026-04-25T08:51:37.75Z</time></trkpt><trkpt lat="45.8146531" lon="9.7431599"><ele>502.6666666666667</ele><time>2026-04-25T08:51:38.75Z</time></trkpt><trkpt lat="45.8148259" lon="9.7430513"><ele>502.0</ele><time>2026-04-25T08:51:39.751Z</time></trkpt><trkpt lat="45.8149898" lon="9.7429314"><ele>502.0</ele><time>2026-04-25T08:51:40.751Z</time></trkpt><trkpt lat="45.8151397" lon="9.7427983"><ele>502.0</ele><time>2026-04-25T08:51:41.75Z</time></trkpt><trkpt lat="45.8152792" lon="9.7426666"><ele>502.0</ele><time>2026-04-25T08:51:42.75Z</time></trkpt><trkpt lat="45.8154108" lon="9.7425492"><ele>502.5</ele><time>2026-04-25T08:51:43.75Z</time></trkpt><trkpt lat="45.815534" lon="9.7424534"><ele>503.0</ele><time>2026-04-25T08:51:44.751Z</time></trkpt><trkpt lat="45.8156384" lon="9.7423358"><ele>503.5</ele><time>2026-04-25T08:51:45.751Z</time></trkpt><trkpt lat="45.8157059" lon="9.7421603"><ele>504.0</ele><time>2026-04-25T08:51:46.75Z</time></trkpt><trkpt lat="45.8157478" lon="9.7419414"><ele>499.33333333333337</ele><time>2026-04-25T08:51:47.751Z</time></trkpt><trkpt lat="45.8157745" lon="9.7417142"><ele>494.6666666666667</ele><time>2026-04-25T08:51:48.75Z</time></trkpt><trkpt lat="45.8157876" lon="9.7414958"><ele>490.0</ele><time>2026-04-25T08:51:49.75Z</time></trkpt><trkpt lat="45.8157856" lon="9.7412852"><ele>490.0</ele><time>2026-04-25T08:51:50.75Z</time></trkpt><trkpt lat="45.8157695" lon="9.7410865"><ele>490.0</ele><time>2026-04-25T08:51:51.75Z</time></trkpt><trkpt lat="45.8157546" lon="9.7408965"><ele>490.0</ele><time>2026-04-25T08:51:52.75Z</time></trkpt><trkpt lat="45.8157608" lon="9.7407062"><ele>490.0</ele><time>2026-04-25T08:51:53.75Z</time></trkpt><trkpt lat="45.8157918" lon="9.7405166"><ele>489.25</ele><time>2026-04-25T08:51:54.75Z</time></trkpt><trkpt lat="45.8158632" lon="9.740342"><ele>488.5</ele><time>2026-04-25T08:51:55.75Z</time></trkpt><trkpt lat="45.815974" lon="9.7402006"><ele>487.75</ele><time>2026-04-25T08:51:56.751Z</time></trkpt><trkpt lat="45.8161064" lon="9.7400994"><ele>487.0</ele><time>2026-04-25T08:51:57.751Z</time></trkpt><trkpt lat="45.8162571" lon="9.7400493"><ele>486.6666666666667</ele><time>2026-04-25T08:51:58.75Z</time></trkpt><trkpt lat="45.8164151" lon="9.7400298"><ele>486.33333333333337</ele><time>2026-04-25T08:51:59.75Z</time></trkpt><trkpt lat="45.8165813" lon="9.7399984"><ele>486.0</ele><time>2026-04-25T08:52:00.751Z</time></trkpt><trkpt lat="45.8167389" lon="9.7399454"><ele>488.66666666666663</ele><time>2026-04-25T08:52:01.751Z</time></trkpt><trkpt lat="45.8168835" lon="9.739863"><ele>491.3333333333333</ele><time>2026-04-25T08:52:02.75Z</time></trkpt><trkpt lat="45.8170101" lon="9.7397298"><ele>494.0</ele><time>2026-04-25T08:52:03.751Z</time></trkpt><trkpt lat="45.8171131" lon="9.7395448"><ele>489.3333333333333</ele><time>2026-04-25T08:52:04.75Z</time></trkpt><trkpt lat="45.8172005" lon="9.7393281"><ele>484.66666666666663</ele><time>2026-04-25T08:52:05.75Z</time></trkpt><trkpt lat="45.8172849" lon="9.7391009"><ele>480.0</ele><time>2026-04-25T08:52:06.751Z</time></trkpt><trkpt lat="45.817369" lon="9.7388703"><ele>480.0</ele><time>2026-04-25T08:52:07.75Z</time></trkpt><trkpt lat="45.817452" lon="9.7386373"><ele>480.0</ele><time>2026-04-25T08:52:08.75Z</time></trkpt><trkpt lat="45.8175391" lon="9.738402"><ele>480.0</ele><time>2026-04-25T08:52:09.75Z</time></trkpt><trkpt lat="45.817627" lon="9.7381704"><ele>485.33333333333337</ele><time>2026-04-25T08:52:10.75Z</time></trkpt><trkpt lat="45.8177189" lon="9.7379334"><ele>490.6666666666667</ele><time>2026-04-25T08:52:11.751Z</time></trkpt><trkpt lat="45.8178151" lon="9.7376876"><ele>496.0</ele><time>2026-04-25T08:52:12.751Z</time></trkpt><trkpt lat="45.8179151" lon="9.737421"><ele>496.0</ele><time>2026-04-25T08:52:13.751Z</time></trkpt><trkpt lat="45.8180097" lon="9.7371307"><ele>496.0</ele><time>2026-04-25T08:52:14.751Z</time></trkpt><trkpt lat="45.8181023" lon="9.7368275"><ele>493.33333333333337</ele><time>2026-04-25T08:52:15.75Z</time></trkpt><trkpt lat="45.8181883" lon="9.7365291"><ele>490.66666666666663</ele><time>2026-04-25T08:52:16.751Z</time></trkpt><trkpt lat="45.8182684" lon="9.7362471"><ele>488.0</ele><time>2026-04-25T08:52:17.75Z</time></trkpt><trkpt lat="45.8183541" lon="9.7359886"><ele>487.3333333333333</ele><time>2026-04-25T08:52:18.751Z</time></trkpt><trkpt lat="45.8184639" lon="9.7357541"><ele>486.66666666666663</ele><time>2026-04-25T08:52:19.751Z</time></trkpt><trkpt lat="45.8185987" lon="9.7355382"><ele>486.0</ele><time>2026-04-25T08:52:20.75Z</time></trkpt><trkpt lat="45.8187504" lon="9.7353373"><ele>487.33333333333337</ele><time>2026-04-25T08:52:21.751Z</time></trkpt><trkpt lat="45.8189147" lon="9.7351527"><ele>488.6666666666667</ele><time>2026-04-25T08:52:22.751Z</time></trkpt><trkpt lat="45.8190884" lon="9.7349882"><ele>490.0</ele><time>2026-04-25T08:52:23.751Z</time></trkpt><trkpt lat="45.8192722" lon="9.734855"><ele>489.33333333333337</ele><time>2026-04-25T08:52:24.751Z</time></trkpt><trkpt lat="45.8194614" lon="9.7347796"><ele>488.66666666666663</ele><time>2026-04-25T08:52:25.751Z</time></trkpt><trkpt lat="45.8196362" lon="9.7347569"><ele>488.0</ele><time>2026-04-25T08:52:26.751Z</time></trkpt><trkpt lat="45.8197835" lon="9.73475"><ele>488.0</ele><time>2026-04-25T08:52:27.751Z</time></trkpt><trkpt lat="45.8199268" lon="9.7347075"><ele>488.0</ele><time>2026-04-25T08:52:28.751Z</time></trkpt><trkpt lat="45.8200512" lon="9.7346098"><ele>488.0</ele><time>2026-04-25T08:52:29.751Z</time></trkpt><trkpt lat="45.8201454" lon="9.7344522"><ele>488.0</ele><time>2026-04-25T08:52:30.751Z</time></trkpt><trkpt lat="45.820226" lon="9.7342439"><ele>487.66666666666663</ele><time>2026-04-25T08:52:31.751Z</time></trkpt><trkpt lat="45.8202952" lon="9.7340247"><ele>487.33333333333337</ele><time>2026-04-25T08:52:32.75Z</time></trkpt><trkpt lat="45.820348" lon="9.7337909"><ele>487.0</ele><time>2026-04-25T08:52:33.75Z</time></trkpt><trkpt lat="45.8203698" lon="9.7335202"><ele>481.0</ele><time>2026-04-25T08:52:34.75Z</time></trkpt><trkpt lat="45.8203749" lon="9.7332054"><ele>475.0</ele><time>2026-04-25T08:52:35.751Z</time></trkpt><trkpt lat="45.8203783" lon="9.7328714"><ele>475.0</ele><time>2026-04-25T08:52:36.75Z</time></trkpt><trkpt lat="45.8203894" lon="9.7325506"><ele>475.0</ele><time>2026-04-25T08:52:37.75Z</time></trkpt><trkpt lat="45.8204117" lon="9.7322428"><ele>475.0</ele><time>2026-04-25T08:52:38.751Z</time></trkpt><trkpt lat="45.8204396" lon="9.7319391"><ele>473.0</ele><time>2026-04-25T08:52:39.751Z</time></trkpt><trkpt lat="45.8204733" lon="9.7316424"><ele>471.0</ele><time>2026-04-25T08:52:40.751Z</time></trkpt><trkpt lat="45.8205072" lon="9.7313437"><ele>469.0</ele><time>2026-04-25T08:52:41.751Z</time></trkpt><trkpt lat="45.8205421" lon="9.7310499"><ele>468.6666666666667</ele><time>2026-04-25T08:52:42.751Z</time></trkpt><trkpt lat="45.8205756" lon="9.7307696"><ele>468.33333333333337</ele><time>2026-04-25T08:52:43.75Z</time></trkpt><trkpt lat="45.8206029" lon="9.7305032"><ele>468.0</ele><time>2026-04-25T08:52:44.75Z</time></trkpt><trkpt lat="45.8206244" lon="9.7302454"><ele>467.33333333333337</ele><time>2026-04-25T08:52:45.751Z</time></trkpt><trkpt lat="45.8206336" lon="9.7299921"><ele>466.6666666666667</ele><time>2026-04-25T08:52:46.751Z</time></trkpt><trkpt lat="45.8206382" lon="9.7297231"><ele>466.0</ele><time>2026-04-25T08:52:47.751Z</time></trkpt><trkpt lat="45.8206541" lon="9.7294129"><ele>466.0</ele><time>2026-04-25T08:52:48.75Z</time></trkpt><trkpt lat="45.8206828" lon="9.7291112"><ele>466.0</ele><time>2026-04-25T08:52:49.75Z</time></trkpt><trkpt lat="45.8207161" lon="9.7288189"><ele>466.0</ele><time>2026-04-25T08:52:50.75Z</time></trkpt><trkpt lat="45.8207512" lon="9.7285365"><ele>466.0</ele><time>2026-04-25T08:52:51.751Z</time></trkpt><trkpt lat="45.8207855" lon="9.7282509"><ele>466.0</ele><time>2026-04-25T08:52:52.75Z</time></trkpt><trkpt lat="45.820797" lon="9.7279529"><ele>466.0</ele><time>2026-04-25T08:52:53.75Z</time></trkpt><trkpt lat="45.8207834" lon="9.7276365"><ele>464.5</ele><time>2026-04-25T08:52:54.75Z</time></trkpt><trkpt lat="45.8207491" lon="9.7273162"><ele>463.0</ele><time>2026-04-25T08:52:55.751Z</time></trkpt><trkpt lat="45.8207222" lon="9.7269917"><ele>460.6666666666667</ele><time>2026-04-25T08:52:56.75Z</time></trkpt><trkpt lat="45.820717" lon="9.7266712"><ele>458.33333333333337</ele><time>2026-04-25T08:52:57.751Z</time></trkpt><trkpt lat="45.8207269" lon="9.7263568"><ele>456.0</ele><time>2026-04-25T08:52:58.75Z</time></trkpt><trkpt lat="45.8207553" lon="9.7260523"><ele>456.0</ele><time>2026-04-25T08:52:59.751Z</time></trkpt><trkpt lat="45.8208159" lon="9.7257536"><ele>456.0</ele><time>2026-04-25T08:53:00.75Z</time></trkpt><trkpt lat="45.8208876" lon="9.7254801"><ele>456.0</ele><time>2026-04-25T08:53:01.751Z</time></trkpt><trkpt lat="45.8209318" lon="9.7251967"><ele>457.0</ele><time>2026-04-25T08:53:02.751Z</time></trkpt><trkpt lat="45.8209465" lon="9.7249019"><ele>458.0</ele><time>2026-04-25T08:53:03.751Z</time></trkpt><trkpt lat="45.8209636" lon="9.7246161"><ele>459.0</ele><time>2026-04-25T08:53:04.75Z</time></trkpt><trkpt lat="45.8209955" lon="9.7243421"><ele>459.0</ele><time>2026-04-25T08:53:05.751Z</time></trkpt><trkpt lat="45.821033" lon="9.7240795"><ele>459.0</ele><time>2026-04-25T08:53:06.75Z</time></trkpt><trkpt lat="45.821093" lon="9.7238344"><ele>459.0</ele><time>2026-04-25T08:53:07.75Z</time></trkpt><trkpt lat="45.8211865" lon="9.7236171"><ele>456.0</ele><time>2026-04-25T08:53:08.75Z</time></trkpt><trkpt lat="45.8213192" lon="9.7234334"><ele>453.0</ele><time>2026-04-25T08:53:09.751Z</time></trkpt><trkpt lat="45.821473" lon="9.7232658"><ele>450.0</ele><time>2026-04-25T08:53:10.75Z</time></trkpt><trkpt lat="45.8216324" lon="9.7230964"><ele>450.0</ele><time>2026-04-25T08:53:11.751Z</time></trkpt><trkpt lat="45.8218005" lon="9.7229386"><ele>450.0</ele><time>2026-04-25T08:53:12.751Z</time></trkpt><trkpt lat="45.8219791" lon="9.7227825"><ele>450.0</ele><time>2026-04-25T08:53:13.751Z</time></trkpt><trkpt lat="45.8221454" lon="9.7226067"><ele>448.0</ele><time>2026-04-25T08:53:14.75Z</time></trkpt><trkpt lat="45.822287" lon="9.7224047"><ele>446.0</ele><time>2026-04-25T08:53:15.751Z</time></trkpt><trkpt lat="45.8224043" lon="9.7221929"><ele>444.0</ele><time>2026-04-25T08:53:16.75Z</time></trkpt><trkpt lat="45.8225067" lon="9.721984"><ele>445.66666666666663</ele><time>2026-04-25T08:53:17.751Z</time></trkpt><trkpt lat="45.8225905" lon="9.7217649"><ele>447.3333333333333</ele><time>2026-04-25T08:53:18.75Z</time></trkpt><trkpt lat="45.8226353" lon="9.721512"><ele>449.0</ele><time>2026-04-25T08:53:19.75Z</time></trkpt><trkpt lat="45.8226565" lon="9.721246"><ele>444.3333333333333</ele><time>2026-04-25T08:53:20.751Z</time></trkpt><trkpt lat="45.8226776" lon="9.720992"><ele>439.66666666666663</ele><time>2026-04-25T08:53:21.751Z</time></trkpt><trkpt lat="45.8227174" lon="9.720771"><ele>435.0</ele><time>2026-04-25T08:53:22.75Z</time></trkpt><trkpt lat="45.8227665" lon="9.720566"><ele>435.0</ele><time>2026-04-25T08:53:23.75Z</time></trkpt><trkpt lat="45.8228193" lon="9.7203757"><ele>435.0</ele><time>2026-04-25T08:53:24.751Z</time></trkpt><trkpt lat="45.8228746" lon="9.7201844"><ele>435.0</ele><time>2026-04-25T08:53:25.751Z</time></trkpt><trkpt lat="45.8229359" lon="9.7199961"><ele>435.0</ele><time>2026-04-25T08:53:26.751Z</time></trkpt><trkpt lat="45.8230031" lon="9.7198236"><ele>435.4</ele><time>2026-04-25T08:53:27.751Z</time></trkpt><trkpt lat="45.8230796" lon="9.7196798"><ele>435.8</ele><time>2026-04-25T08:53:28.751Z</time></trkpt><trkpt lat="45.8231519" lon="9.7195793"><ele>436.20000000000005</ele><time>2026-04-25T08:53:29.751Z</time></trkpt><trkpt lat="45.8232146" lon="9.719511"><ele>436.6</ele><time>2026-04-25T08:53:30.75Z</time></trkpt><trkpt lat="45.8232748" lon="9.7194692"><ele>437.0</ele><time>2026-04-25T08:53:31.75Z</time></trkpt><trkpt lat="45.8233718" lon="9.7195077"><ele>437.0</ele><time>2026-04-25T08:53:33.751Z</time></trkpt><trkpt lat="45.8234073" lon="9.7195887"><ele>437.00000000000006</ele><time>2026-04-25T08:53:34.75Z</time></trkpt><trkpt lat="45.8234372" lon="9.7197083"><ele>437.00000000000006</ele><time>2026-04-25T08:53:35.75Z</time></trkpt><trkpt lat="45.8234654" lon="9.7198492"><ele>437.0</ele><time>2026-04-25T08:53:36.751Z</time></trkpt><trkpt lat="45.8234985" lon="9.7199771"><ele>437.0</ele><time>2026-04-25T08:53:37.75Z</time></trkpt><trkpt lat="45.8235446" lon="9.7201049"><ele>438.6</ele><time>2026-04-25T08:53:38.751Z</time></trkpt><trkpt lat="45.8236071" lon="9.7202193"><ele>440.20000000000005</ele><time>2026-04-25T08:53:39.75Z</time></trkpt><trkpt lat="45.8236953" lon="9.720318"><ele>441.8</ele><time>2026-04-25T08:53:40.751Z</time></trkpt><trkpt lat="45.8237923" lon="9.7204036"><ele>443.4</ele><time>2026-04-25T08:53:41.75Z</time></trkpt><trkpt lat="45.8238897" lon="9.7204915"><ele>445.0</ele><time>2026-04-25T08:53:42.751Z</time></trkpt><trkpt lat="45.8239863" lon="9.7205761"><ele>445.0</ele><time>2026-04-25T08:53:43.751Z</time></trkpt><trkpt lat="45.8240786" lon="9.7206528"><ele>445.0</ele><time>2026-04-25T08:53:44.75Z</time></trkpt><trkpt lat="45.8241729" lon="9.7207343"><ele>445.0</ele><time>2026-04-25T08:53:45.75Z</time></trkpt><trkpt lat="45.8242709" lon="9.7208223"><ele>445.0</ele><time>2026-04-25T08:53:46.75Z</time></trkpt><trkpt lat="45.8243764" lon="9.7209122"><ele>446.0</ele><time>2026-04-25T08:53:47.75Z</time></trkpt><trkpt lat="45.8244904" lon="9.721"><ele>447.0</ele><time>2026-04-25T08:53:48.751Z</time></trkpt><trkpt lat="45.8246136" lon="9.7210873"><ele>448.0</ele><time>2026-04-25T08:53:49.75Z</time></trkpt><trkpt lat="45.8247442" lon="9.721164"><ele>449.0</ele><time>2026-04-25T08:53:50.751Z</time></trkpt><trkpt lat="45.8248775" lon="9.7212334"><ele>449.0</ele><time>2026-04-25T08:53:51.75Z</time></trkpt><trkpt lat="45.8250006" lon="9.7213008"><ele>449.0</ele><time>2026-04-25T08:53:52.751Z</time></trkpt><trkpt lat="45.8251119" lon="9.7213627"><ele>449.0</ele><time>2026-04-25T08:53:53.751Z</time></trkpt><trkpt lat="45.8252113" lon="9.7214252"><ele>449.0</ele><time>2026-04-25T08:53:54.75Z</time></trkpt><trkpt lat="45.8252981" lon="9.7214962"><ele>448.66666666666663</ele><time>2026-04-25T08:53:55.751Z</time></trkpt><trkpt lat="45.825371" lon="9.7215808"><ele>448.3333333333333</ele><time>2026-04-25T08:53:56.751Z</time></trkpt><trkpt lat="45.8254327" lon="9.7216684"><ele>448.0</ele><time>2026-04-25T08:53:57.75Z</time></trkpt><trkpt lat="45.8254795" lon="9.721748"><ele>447.66666666666663</ele><time>2026-04-25T08:53:58.751Z</time></trkpt><trkpt lat="45.8255439" lon="9.7218579"><ele>447.3333333333333</ele><time>2026-04-25T08:54:00.75Z</time></trkpt><trkpt lat="45.8255885" lon="9.7219334"><ele>447.0</ele><time>2026-04-25T08:54:02.75Z</time></trkpt><trkpt lat="45.8256408" lon="9.7220173"><ele>447.0</ele><time>2026-04-25T08:54:05.75Z</time></trkpt><trkpt lat="45.8256832" lon="9.7220892"><ele>447.00000000000006</ele><time>2026-04-25T08:54:11.751Z</time></trkpt><trkpt lat="45.8257514" lon="9.722192"><ele>447.00000000000006</ele><time>2026-04-25T08:54:13.75Z</time></trkpt><trkpt lat="45.8258091" lon="9.7222618"><ele>447.0</ele><time>2026-04-25T08:54:14.751Z</time></trkpt><trkpt lat="45.8258901" lon="9.7223381"><ele>447.0</ele><time>2026-04-25T08:54:15.751Z</time></trkpt><trkpt lat="45.826008" lon="9.7224163"><ele>454.66666666666663</ele><time>2026-04-25T08:54:16.75Z</time></trkpt><trkpt lat="45.8261504" lon="9.7224787"><ele>462.3333333333333</ele><time>2026-04-25T08:54:17.75Z</time></trkpt><trkpt lat="45.8263186" lon="9.7225603"><ele>470.0</ele><time>2026-04-25T08:54:18.75Z</time></trkpt><trkpt lat="45.8264579" lon="9.7226595"><ele>469.25</ele><time>2026-04-25T08:54:19.75Z</time></trkpt><trkpt lat="45.8265917" lon="9.7227339"><ele>468.5</ele><time>2026-04-25T08:54:20.751Z</time></trkpt><trkpt lat="45.8267165" lon="9.7227907"><ele>467.75</ele><time>2026-04-25T08:54:21.75Z</time></trkpt><trkpt lat="45.8268306" lon="9.7228486"><ele>467.0</ele><time>2026-04-25T08:54:22.751Z</time></trkpt><trkpt lat="45.8269416" lon="9.722904"><ele>467.0</ele><time>2026-04-25T08:54:23.751Z</time></trkpt><trkpt lat="45.8270457" lon="9.7229548"><ele>467.0</ele><time>2026-04-25T08:54:24.751Z</time></trkpt><trkpt lat="45.8271517" lon="9.7230124"><ele>467.0</ele><time>2026-04-25T08:54:25.751Z</time></trkpt><trkpt lat="45.8272771" lon="9.723087"><ele>467.0</ele><time>2026-04-25T08:54:26.751Z</time></trkpt><trkpt lat="45.8274352" lon="9.7231892"><ele>467.0</ele><time>2026-04-25T08:54:27.75Z</time></trkpt><trkpt lat="45.8275973" lon="9.7233214"><ele>467.0</ele><time>2026-04-25T08:54:28.75Z</time></trkpt><trkpt lat="45.827744" lon="9.7234533"><ele>467.0</ele><time>2026-04-25T08:54:29.75Z</time></trkpt><trkpt lat="45.8278791" lon="9.7235714"><ele>467.75</ele><time>2026-04-25T08:54:30.751Z</time></trkpt><trkpt lat="45.8280006" lon="9.7236757"><ele>468.5</ele><time>2026-04-25T08:54:31.751Z</time></trkpt><trkpt lat="45.8281143" lon="9.7237751"><ele>469.25</ele><time>2026-04-25T08:54:32.75Z</time></trkpt><trkpt lat="45.8282207" lon="9.7238733"><ele>470.0</ele><time>2026-04-25T08:54:33.751Z</time></trkpt><trkpt lat="45.8283151" lon="9.7239567"><ele>470.0</ele><time>2026-04-25T08:54:34.751Z</time></trkpt><trkpt lat="45.8283959" lon="9.7240333"><ele>470.0</ele><time>2026-04-25T08:54:35.75Z</time></trkpt><trkpt lat="45.828465" lon="9.7241115"><ele>470.0</ele><time>2026-04-25T08:54:36.751Z</time></trkpt><trkpt lat="45.8285171" lon="9.7242147"><ele>470.0</ele><time>2026-04-25T08:54:37.751Z</time></trkpt><trkpt lat="45.8285515" lon="9.7243611"><ele>470.0</ele><time>2026-04-25T08:54:38.751Z</time></trkpt><trkpt lat="45.8285929" lon="9.7245391"><ele>472.75</ele><time>2026-04-25T08:54:39.75Z</time></trkpt><trkpt lat="45.8286608" lon="9.7246828"><ele>475.5</ele><time>2026-04-25T08:54:40.751Z</time></trkpt><trkpt lat="45.8287529" lon="9.7248042"><ele>478.25</ele><time>2026-04-25T08:54:41.75Z</time></trkpt><trkpt lat="45.8288664" lon="9.7248873"><ele>481.0</ele><time>2026-04-25T08:54:42.75Z</time></trkpt><trkpt lat="45.8289948" lon="9.7249249"><ele>481.0</ele><time>2026-04-25T08:54:43.751Z</time></trkpt><trkpt lat="45.8291168" lon="9.7249375"><ele>481.0</ele><time>2026-04-25T08:54:44.75Z</time></trkpt><trkpt lat="45.8292321" lon="9.7249268"><ele>481.0</ele><time>2026-04-25T08:54:45.75Z</time></trkpt><trkpt lat="45.8293435" lon="9.7248538"><ele>481.0</ele><time>2026-04-25T08:54:46.751Z</time></trkpt><trkpt lat="45.8294443" lon="9.7247215"><ele>479.6666666666667</ele><time>2026-04-25T08:54:47.751Z</time></trkpt><trkpt lat="45.8295404" lon="9.7245459"><ele>478.33333333333337</ele><time>2026-04-25T08:54:48.75Z</time></trkpt><trkpt lat="45.8296413" lon="9.7243578"><ele>477.0</ele><time>2026-04-25T08:54:49.751Z</time></trkpt><trkpt lat="45.8297292" lon="9.7241909"><ele>477.0</ele><time>2026-04-25T08:54:50.75Z</time></trkpt><trkpt lat="45.829814" lon="9.7240488"><ele>477.00000000000006</ele><time>2026-04-25T08:54:51.75Z</time></trkpt><trkpt lat="45.8298996" lon="9.7239576"><ele>477.00000000000006</ele><time>2026-04-25T08:54:52.75Z</time></trkpt><trkpt lat="45.8299874" lon="9.7239257"><ele>477.0</ele><time>2026-04-25T08:54:53.75Z</time></trkpt><trkpt lat="45.8300682" lon="9.7239734"><ele>477.0</ele><time>2026-04-25T08:54:54.751Z</time></trkpt><trkpt lat="45.8301512" lon="9.7240764"><ele>476.5</ele><time>2026-04-25T08:54:55.751Z</time></trkpt><trkpt lat="45.8302512" lon="9.7241997"><ele>476.0</ele><time>2026-04-25T08:54:56.751Z</time></trkpt><trkpt lat="45.8303661" lon="9.7243317"><ele>475.5</ele><time>2026-04-25T08:54:57.751Z</time></trkpt><trkpt lat="45.830482" lon="9.7244287"><ele>475.0</ele><time>2026-04-25T08:54:58.75Z</time></trkpt><trkpt lat="45.8306121" lon="9.7244678"><ele>475.0</ele><time>2026-04-25T08:54:59.75Z</time></trkpt><trkpt lat="45.8307427" lon="9.7244304"><ele>475.0</ele><time>2026-04-25T08:55:00.751Z</time></trkpt><trkpt lat="45.83086" lon="9.7243477"><ele>475.0</ele><time>2026-04-25T08:55:01.751Z</time></trkpt><trkpt lat="45.8309678" lon="9.7242766"><ele>475.0</ele><time>2026-04-25T08:55:02.751Z</time></trkpt><trkpt lat="45.8310681" lon="9.724228"><ele>476.2</ele><time>2026-04-25T08:55:03.75Z</time></trkpt><trkpt lat="45.8311676" lon="9.7242359"><ele>477.4</ele><time>2026-04-25T08:55:04.751Z</time></trkpt><trkpt lat="45.8312554" lon="9.7242984"><ele>478.6</ele><time>2026-04-25T08:55:05.75Z</time></trkpt><trkpt lat="45.8313223" lon="9.7244186"><ele>479.8</ele><time>2026-04-25T08:55:06.75Z</time></trkpt><trkpt lat="45.8313809" lon="9.7245747"><ele>481.0</ele><time>2026-04-25T08:55:07.75Z</time></trkpt><trkpt lat="45.8314735" lon="9.7247134"><ele>483.25</ele><time>2026-04-25T08:55:08.751Z</time></trkpt><trkpt lat="45.8315725" lon="9.7248511"><ele>485.5</ele><time>2026-04-25T08:55:09.75Z</time></trkpt><trkpt lat="45.8316294" lon="9.7250108"><ele>487.75</ele><time>2026-04-25T08:55:10.751Z</time></trkpt><trkpt lat="45.8316622" lon="9.7251606"><ele>490.0</ele><time>2026-04-25T08:55:11.751Z</time></trkpt><trkpt lat="45.8316777" lon="9.7253048"><ele>492.25</ele><time>2026-04-25T08:55:12.751Z</time></trkpt><trkpt lat="45.8317661" lon="9.7254256"><ele>494.5</ele><time>2026-04-25T08:55:13.751Z</time></trkpt><trkpt lat="45.8318742" lon="9.7255129"><ele>496.75</ele><time>2026-04-25T08:55:14.751Z</time></trkpt><trkpt lat="45.8319593" lon="9.7256119"><ele>499.0</ele><time>2026-04-25T08:55:15.751Z</time></trkpt><trkpt lat="45.8320033" lon="9.7257587"><ele>499.0</ele><time>2026-04-25T08:55:16.75Z</time></trkpt><trkpt lat="45.8320051" lon="9.7259269"><ele>499.0</ele><time>2026-04-25T08:55:17.751Z</time></trkpt><trkpt lat="45.8319777" lon="9.7261124"><ele>499.0</ele><time>2026-04-25T08:55:18.75Z</time></trkpt><trkpt lat="45.8319766" lon="9.7262699"><ele>499.0</ele><time>2026-04-25T08:55:19.751Z</time></trkpt><trkpt lat="45.8320142" lon="9.7263935"><ele>501.79999999999995</ele><time>2026-04-25T08:55:20.75Z</time></trkpt><trkpt lat="45.83209" lon="9.7264744"><ele>504.59999999999997</ele><time>2026-04-25T08:55:21.75Z</time></trkpt><trkpt lat="45.8321845" lon="9.7264842"><ele>507.4</ele><time>2026-04-25T08:55:22.751Z</time></trkpt><trkpt lat="45.8322706" lon="9.726415"><ele>510.2</ele><time>2026-04-25T08:55:23.75Z</time></trkpt><trkpt lat="45.8323565" lon="9.7262961"><ele>513.0</ele><time>2026-04-25T08:55:24.751Z</time></trkpt><trkpt lat="45.8324576" lon="9.7262433"><ele>513.0</ele><time>2026-04-25T08:55:25.751Z</time></trkpt><trkpt lat="45.8325655" lon="9.7262532"><ele>513.0</ele><time>2026-04-25T08:55:26.75Z</time></trkpt><trkpt lat="45.8326615" lon="9.7262263"><ele>513.0</ele><time>2026-04-25T08:55:27.751Z</time></trkpt><trkpt lat="45.8327366" lon="9.7261318"><ele>513.0</ele><time>2026-04-25T08:55:28.75Z</time></trkpt><trkpt lat="45.8327661" lon="9.725991"><ele>513.0</ele><time>2026-04-25T08:55:29.75Z</time></trkpt><trkpt lat="45.8327446" lon="9.7258316"><ele>512.5</ele><time>2026-04-25T08:55:30.75Z</time></trkpt><trkpt lat="45.8327259" lon="9.7256549"><ele>512.0</ele><time>2026-04-25T08:55:31.75Z</time></trkpt><trkpt lat="45.8327702" lon="9.7254978"><ele>511.5</ele><time>2026-04-25T08:55:32.751Z</time></trkpt><trkpt lat="45.832856" lon="9.7253726"><ele>511.0</ele><time>2026-04-25T08:55:33.75Z</time></trkpt><trkpt lat="45.8329585" lon="9.725249"><ele>511.0</ele><time>2026-04-25T08:55:34.75Z</time></trkpt><trkpt lat="45.833064" lon="9.7251662"><ele>511.0</ele><time>2026-04-25T08:55:35.751Z</time></trkpt><trkpt lat="45.8331742" lon="9.7251609"><ele>511.0</ele><time>2026-04-25T08:55:36.75Z</time></trkpt><trkpt lat="45.8332609" lon="9.725228"><ele>511.0</ele><time>2026-04-25T08:55:37.75Z</time></trkpt><trkpt lat="45.8333141" lon="9.7253441"><ele>511.0</ele><time>2026-04-25T08:55:38.75Z</time></trkpt><trkpt lat="45.8333375" lon="9.7254948"><ele>511.0</ele><time>2026-04-25T08:55:39.75Z</time></trkpt><trkpt lat="45.8333889" lon="9.7256227"><ele>511.0</ele><time>2026-04-25T08:55:40.751Z</time></trkpt><trkpt lat="45.8334744" lon="9.7257226"><ele>511.0</ele><time>2026-04-25T08:55:41.75Z</time></trkpt><trkpt lat="45.8335679" lon="9.7258509"><ele>511.0</ele><time>2026-04-25T08:55:42.75Z</time></trkpt><trkpt lat="45.8336218" lon="9.7260249"><ele>515.5</ele><time>2026-04-25T08:55:43.751Z</time></trkpt><trkpt lat="45.8336494" lon="9.7262011"><ele>520.0</ele><time>2026-04-25T08:55:44.75Z</time></trkpt><trkpt lat="45.8336926" lon="9.7263601"><ele>524.5</ele><time>2026-04-25T08:55:45.75Z</time></trkpt><trkpt lat="45.8337791" lon="9.7264919"><ele>529.0</ele><time>2026-04-25T08:55:46.75Z</time></trkpt><trkpt lat="45.83391" lon="9.7265952"><ele>529.0</ele><time>2026-04-25T08:55:47.75Z</time></trkpt><trkpt lat="45.8340533" lon="9.7266945"><ele>529.0</ele><time>2026-04-25T08:55:48.75Z</time></trkpt><trkpt lat="45.8341867" lon="9.7267873"><ele>529.0</ele><time>2026-04-25T08:55:49.751Z</time></trkpt><trkpt lat="45.83431" lon="9.7269039"><ele>531.5</ele><time>2026-04-25T08:55:50.75Z</time></trkpt><trkpt lat="45.8344023" lon="9.7270516"><ele>534.0</ele><time>2026-04-25T08:55:51.75Z</time></trkpt><trkpt lat="45.8344739" lon="9.7271974"><ele>536.5</ele><time>2026-04-25T08:55:52.75Z</time></trkpt><trkpt lat="45.8345111" lon="9.7273477"><ele>539.0</ele><time>2026-04-25T08:55:53.751Z</time></trkpt><trkpt lat="45.8345771" lon="9.7274475"><ele>539.0</ele><time>2026-04-25T08:55:54.75Z</time></trkpt><trkpt lat="45.8346659" lon="9.7274815"><ele>539.0</ele><time>2026-04-25T08:55:55.751Z</time></trkpt><trkpt lat="45.8347771" lon="9.7274486"><ele>539.0</ele><time>2026-04-25T08:55:56.75Z</time></trkpt><trkpt lat="45.8349115" lon="9.727389"><ele>539.0</ele><time>2026-04-25T08:55:57.751Z</time></trkpt><trkpt lat="45.8350647" lon="9.7273619"><ele>540.6666666666666</ele><time>2026-04-25T08:55:58.751Z</time></trkpt><trkpt lat="45.8352225" lon="9.7273581"><ele>542.3333333333334</ele><time>2026-04-25T08:55:59.75Z</time></trkpt><trkpt lat="45.8353835" lon="9.727384"><ele>544.0</ele><time>2026-04-25T08:56:00.75Z</time></trkpt><trkpt lat="45.8355457" lon="9.7274329"><ele>544.0</ele><time>2026-04-25T08:56:01.751Z</time></trkpt><trkpt lat="45.8357211" lon="9.7274595"><ele>544.0</ele><time>2026-04-25T08:56:02.75Z</time></trkpt><trkpt lat="45.8359115" lon="9.7274504"><ele>544.0</ele><time>2026-04-25T08:56:03.75Z</time></trkpt><trkpt lat="45.8361034" lon="9.7274371"><ele>544.3333333333334</ele><time>2026-04-25T08:56:04.751Z</time></trkpt><trkpt lat="45.8362901" lon="9.7274401"><ele>544.6666666666666</ele><time>2026-04-25T08:56:05.751Z</time></trkpt><trkpt lat="45.8364649" lon="9.7274405"><ele>545.0</ele><time>2026-04-25T08:56:06.75Z</time></trkpt><trkpt lat="45.8366343" lon="9.7274251"><ele>547.6666666666666</ele><time>2026-04-25T08:56:07.751Z</time></trkpt><trkpt lat="45.8368051" lon="9.7274481"><ele>550.3333333333334</ele><time>2026-04-25T08:56:08.75Z</time></trkpt><trkpt lat="45.8369887" lon="9.7275176"><ele>553.0</ele><time>2026-04-25T08:56:09.751Z</time></trkpt><trkpt lat="45.837184" lon="9.7275752"><ele>553.0</ele><time>2026-04-25T08:56:10.751Z</time></trkpt><trkpt lat="45.8373772" lon="9.7275883"><ele>553.0</ele><time>2026-04-25T08:56:11.75Z</time></trkpt><trkpt lat="45.8375574" lon="9.7275905"><ele>553.0</ele><time>2026-04-25T08:56:12.751Z</time></trkpt><trkpt lat="45.8377317" lon="9.7276484"><ele>559.3333333333334</ele><time>2026-04-25T08:56:13.751Z</time></trkpt><trkpt lat="45.8378978" lon="9.7277391"><ele>565.6666666666666</ele><time>2026-04-25T08:56:14.75Z</time></trkpt><trkpt lat="45.8380653" lon="9.7278158"><ele>572.0</ele><time>2026-04-25T08:56:15.751Z</time></trkpt><trkpt lat="45.8382286" lon="9.7278572"><ele>572.0</ele><time>2026-04-25T08:56:16.751Z</time></trkpt><trkpt lat="45.838378" lon="9.7278799"><ele>572.0</ele><time>2026-04-25T08:56:17.75Z</time></trkpt><trkpt lat="45.8385144" lon="9.7278975"><ele>572.0</ele><time>2026-04-25T08:56:18.751Z</time></trkpt><trkpt lat="45.8386518" lon="9.7279596"><ele>572.0</ele><time>2026-04-25T08:56:19.751Z</time></trkpt><trkpt lat="45.838798" lon="9.7280601"><ele>568.0</ele><time>2026-04-25T08:56:20.75Z</time></trkpt><trkpt lat="45.8389526" lon="9.7281644"><ele>564.0</ele><time>2026-04-25T08:56:21.75Z</time></trkpt><trkpt lat="45.8391154" lon="9.7282747"><ele>560.0</ele><time>2026-04-25T08:56:22.75Z</time></trkpt><trkpt lat="45.8392837" lon="9.7283855"><ele>555.6666666666666</ele><time>2026-04-25T08:56:23.751Z</time></trkpt><trkpt lat="45.8394596" lon="9.7284937"><ele>551.3333333333334</ele><time>2026-04-25T08:56:24.75Z</time></trkpt><trkpt lat="45.8396384" lon="9.7285987"><ele>547.0</ele><time>2026-04-25T08:56:25.75Z</time></trkpt><trkpt lat="45.8398114" lon="9.7286948"><ele>554.0</ele><time>2026-04-25T08:56:26.751Z</time></trkpt><trkpt lat="45.8399689" lon="9.7287791"><ele>561.0</ele><time>2026-04-25T08:56:27.75Z</time></trkpt><trkpt lat="45.8401099" lon="9.7288647"><ele>568.0</ele><time>2026-04-25T08:56:28.751Z</time></trkpt><trkpt lat="45.8402274" lon="9.7289788"><ele>568.0</ele><time>2026-04-25T08:56:29.75Z</time></trkpt><trkpt lat="45.8403253" lon="9.7291304"><ele>568.0</ele><time>2026-04-25T08:56:30.75Z</time></trkpt><trkpt lat="45.8404175" lon="9.7293088"><ele>568.0</ele><time>2026-04-25T08:56:31.751Z</time></trkpt><trkpt lat="45.8405169" lon="9.7294874"><ele>580.0</ele><time>2026-04-25T08:56:32.75Z</time></trkpt><trkpt lat="45.8406212" lon="9.7296616"><ele>592.0</ele><time>2026-04-25T08:56:33.75Z</time></trkpt><trkpt lat="45.8407324" lon="9.7298247"><ele>604.0</ele><time>2026-04-25T08:56:34.75Z</time></trkpt><trkpt lat="45.8408457" lon="9.7299596"><ele>604.0</ele><time>2026-04-25T08:56:35.75Z</time></trkpt><trkpt lat="45.8409489" lon="9.7300889"><ele>604.0</ele><time>2026-04-25T08:56:36.751Z</time></trkpt><trkpt lat="45.8410541" lon="9.7301812"><ele>604.0</ele><time>2026-04-25T08:56:37.75Z</time></trkpt><trkpt lat="45.8411535" lon="9.7302428"><ele>604.0</ele><time>2026-04-25T08:56:38.751Z</time></trkpt><trkpt lat="45.8412425" lon="9.7302736"><ele>603.6666666666667</ele><time>2026-04-25T08:56:39.75Z</time></trkpt><trkpt lat="45.8413223" lon="9.7302933"><ele>603.3333333333334</ele><time>2026-04-25T08:56:40.751Z</time></trkpt><trkpt lat="45.8413947" lon="9.7302778"><ele>603.0</ele><time>2026-04-25T08:56:41.751Z</time></trkpt><trkpt lat="45.8414581" lon="9.730217"><ele>602.6666666666666</ele><time>2026-04-25T08:56:42.75Z</time></trkpt><trkpt lat="45.8414977" lon="9.7301121"><ele>602.3333333333333</ele><time>2026-04-25T08:56:43.75Z</time></trkpt><trkpt lat="45.8415071" lon="9.7299831"><ele>602.0</ele><time>2026-04-25T08:56:44.751Z</time></trkpt><trkpt lat="45.8414759" lon="9.729855"><ele>602.0</ele><time>2026-04-25T08:56:45.751Z</time></trkpt><trkpt lat="45.841403" lon="9.7297516"><ele>602.0</ele><time>2026-04-25T08:56:46.751Z</time></trkpt><trkpt lat="45.8413054" lon="9.7296526"><ele>602.0</ele><time>2026-04-25T08:56:47.751Z</time></trkpt><trkpt lat="45.8412313" lon="9.729514"><ele>602.0</ele><time>2026-04-25T08:56:48.75Z</time></trkpt><trkpt lat="45.8411743" lon="9.7294018"><ele>602.0</ele><time>2026-04-25T08:56:49.75Z</time></trkpt><trkpt lat="45.8411427" lon="9.7293104"><ele>602.0</ele><time>2026-04-25T08:56:50.75Z</time></trkpt><trkpt lat="45.8411533" lon="9.7291927"><ele>602.0</ele><time>2026-04-25T08:56:52.751Z</time></trkpt><trkpt lat="45.8412234" lon="9.7292326"><ele>602.0</ele><time>2026-04-25T08:56:54.75Z</time></trkpt><trkpt lat="45.8412582" lon="9.7294384"><ele>602.0</ele><time>2026-04-25T08:56:56.75Z</time></trkpt><trkpt lat="45.841318" lon="9.7295542"><ele>602.0</ele><time>2026-04-25T08:56:57.751Z</time></trkpt><trkpt lat="45.8413806" lon="9.7296384"><ele>602.0</ele><time>2026-04-25T08:56:58.75Z</time></trkpt><trkpt lat="45.8414424" lon="9.7297127"><ele>602.0</ele><time>2026-04-25T08:56:59.75Z</time></trkpt><trkpt lat="45.8415313" lon="9.7297878"><ele>602.0</ele><time>2026-04-25T08:57:00.75Z</time></trkpt><trkpt lat="45.8416446" lon="9.7298661"><ele>602.0</ele><time>2026-04-25T08:57:01.75Z</time></trkpt><trkpt lat="45.8417687" lon="9.7299643"><ele>611.0</ele><time>2026-04-25T08:57:02.751Z</time></trkpt><trkpt lat="45.8418923" lon="9.7300828"><ele>620.0</ele><time>2026-04-25T08:57:03.751Z</time></trkpt><trkpt lat="45.8420401" lon="9.7301746"><ele>629.0</ele><time>2026-04-25T08:57:04.751Z</time></trkpt><trkpt lat="45.8422123" lon="9.7302253"><ele>630.0</ele><time>2026-04-25T08:57:05.75Z</time></trkpt><trkpt lat="45.8423808" lon="9.7302647"><ele>631.0</ele><time>2026-04-25T08:57:06.751Z</time></trkpt><trkpt lat="45.8425245" lon="9.7303684"><ele>632.0</ele><time>2026-04-25T08:57:07.75Z</time></trkpt><trkpt lat="45.8426813" lon="9.7304479"><ele>633.0</ele><time>2026-04-25T08:57:08.75Z</time></trkpt><trkpt lat="45.8428268" lon="9.7304767"><ele>634.0</ele><time>2026-04-25T08:57:09.751Z</time></trkpt><trkpt lat="45.8429611" lon="9.7304984"><ele>635.0</ele><time>2026-04-25T08:57:10.75Z</time></trkpt><trkpt lat="45.8430927" lon="9.730481"><ele>636.0</ele><time>2026-04-25T08:57:11.75Z</time></trkpt><trkpt lat="45.8432143" lon="9.7303966"><ele>636.0</ele><time>2026-04-25T08:57:12.75Z</time></trkpt><trkpt lat="45.8433113" lon="9.7302478"><ele>636.0</ele><time>2026-04-25T08:57:13.75Z</time></trkpt><trkpt lat="45.8434112" lon="9.7300477"><ele>636.0</ele><time>2026-04-25T08:57:14.751Z</time></trkpt><trkpt lat="45.8435336" lon="9.7298725"><ele>631.0</ele><time>2026-04-25T08:57:15.75Z</time></trkpt><trkpt lat="45.8436947" lon="9.7297194"><ele>626.0</ele><time>2026-04-25T08:57:16.75Z</time></trkpt><trkpt lat="45.8438366" lon="9.7295982"><ele>621.0</ele><time>2026-04-25T08:57:17.75Z</time></trkpt><trkpt lat="45.8439762" lon="9.7294985"><ele>621.0</ele><time>2026-04-25T08:57:18.75Z</time></trkpt><trkpt lat="45.8441138" lon="9.7294289"><ele>621.0</ele><time>2026-04-25T08:57:19.751Z</time></trkpt><trkpt lat="45.8442499" lon="9.7293743"><ele>621.0</ele><time>2026-04-25T08:57:20.751Z</time></trkpt><trkpt lat="45.8443786" lon="9.72935"><ele>621.0</ele><time>2026-04-25T08:57:21.75Z</time></trkpt><trkpt lat="45.8444956" lon="9.7293574"><ele>621.0</ele><time>2026-04-25T08:57:22.751Z</time></trkpt><trkpt lat="45.8445968" lon="9.7294299"><ele>621.0</ele><time>2026-04-25T08:57:23.75Z</time></trkpt><trkpt lat="45.844688" lon="9.7295281"><ele>621.0</ele><time>2026-04-25T08:57:24.751Z</time></trkpt><trkpt lat="45.8447783" lon="9.7295964"><ele>621.0</ele><time>2026-04-25T08:57:25.751Z</time></trkpt><trkpt lat="45.8448885" lon="9.7296279"><ele>621.0</ele><time>2026-04-25T08:57:26.75Z</time></trkpt><trkpt lat="45.8450301" lon="9.7296236"><ele>618.3333333333334</ele><time>2026-04-25T08:57:27.75Z</time></trkpt><trkpt lat="45.8451908" lon="9.7296157"><ele>615.6666666666667</ele><time>2026-04-25T08:57:28.751Z</time></trkpt><trkpt lat="45.8453526" lon="9.7296175"><ele>613.0</ele><time>2026-04-25T08:57:29.75Z</time></trkpt><trkpt lat="45.8455178" lon="9.7296219"><ele>613.0</ele><time>2026-04-25T08:57:30.751Z</time></trkpt><trkpt lat="45.8456765" lon="9.7296235"><ele>613.0</ele><time>2026-04-25T08:57:31.75Z</time></trkpt><trkpt lat="45.8458235" lon="9.7296256"><ele>613.0</ele><time>2026-04-25T08:57:32.751Z</time></trkpt><trkpt lat="45.8459589" lon="9.7296322"><ele>613.0</ele><time>2026-04-25T08:57:33.751Z</time></trkpt><trkpt lat="45.8460842" lon="9.7296286"><ele>613.1999999999999</ele><time>2026-04-25T08:57:34.751Z</time></trkpt><trkpt lat="45.846195" lon="9.7295866"><ele>613.4</ele><time>2026-04-25T08:57:35.751Z</time></trkpt><trkpt lat="45.8462885" lon="9.7295096"><ele>613.5999999999999</ele><time>2026-04-25T08:57:36.75Z</time></trkpt><trkpt lat="45.8463676" lon="9.7294171"><ele>613.8</ele><time>2026-04-25T08:57:37.751Z</time></trkpt><trkpt lat="45.8464368" lon="9.7293044"><ele>614.0</ele><time>2026-04-25T08:57:38.75Z</time></trkpt><trkpt lat="45.8464933" lon="9.729165"><ele>614.0</ele><time>2026-04-25T08:57:39.75Z</time></trkpt><trkpt lat="45.8465433" lon="9.7290129"><ele>614.0</ele><time>2026-04-25T08:57:40.751Z</time></trkpt><trkpt lat="45.8465964" lon="9.7288683"><ele>614.0</ele><time>2026-04-25T08:57:41.751Z</time></trkpt><trkpt lat="45.8466484" lon="9.7287381"><ele>614.0</ele><time>2026-04-25T08:57:42.75Z</time></trkpt><trkpt lat="45.8466969" lon="9.7286259"><ele>614.0</ele><time>2026-04-25T08:57:43.751Z</time></trkpt><trkpt lat="45.8467546" lon="9.7285478"><ele>615.5</ele><time>2026-04-25T08:57:44.75Z</time></trkpt><trkpt lat="45.8468324" lon="9.7285242"><ele>617.0</ele><time>2026-04-25T08:57:45.75Z</time></trkpt><trkpt lat="45.8469324" lon="9.7285558"><ele>618.5</ele><time>2026-04-25T08:57:46.751Z</time></trkpt><trkpt lat="45.8470483" lon="9.7286294"><ele>620.0</ele><time>2026-04-25T08:57:47.75Z</time></trkpt><trkpt lat="45.8471824" lon="9.7287081"><ele>620.0</ele><time>2026-04-25T08:57:48.751Z</time></trkpt><trkpt lat="45.847344" lon="9.7288002"><ele>620.0</ele><time>2026-04-25T08:57:49.751Z</time></trkpt><trkpt lat="45.8475125" lon="9.7288992"><ele>620.0</ele><time>2026-04-25T08:57:50.751Z</time></trkpt><trkpt lat="45.8476943" lon="9.728979"><ele>621.6666666666666</ele><time>2026-04-25T08:57:51.751Z</time></trkpt><trkpt lat="45.8478742" lon="9.7290342"><ele>623.3333333333334</ele><time>2026-04-25T08:57:52.751Z</time></trkpt><trkpt lat="45.8480396" lon="9.7290816"><ele>625.0</ele><time>2026-04-25T08:57:53.75Z</time></trkpt><trkpt lat="45.8481915" lon="9.7291262"><ele>625.0</ele><time>2026-04-25T08:57:54.75Z</time></trkpt><trkpt lat="45.8483346" lon="9.7291685"><ele>625.0</ele><time>2026-04-25T08:57:55.75Z</time></trkpt><trkpt lat="45.8484767" lon="9.7292059"><ele>625.0</ele><time>2026-04-25T08:57:56.751Z</time></trkpt><trkpt lat="45.848617" lon="9.7292377"><ele>625.0</ele><time>2026-04-25T08:57:57.75Z</time></trkpt><trkpt lat="45.8487605" lon="9.7292539"><ele>626.75</ele><time>2026-04-25T08:57:58.751Z</time></trkpt><trkpt lat="45.8489015" lon="9.7292302"><ele>628.5</ele><time>2026-04-25T08:57:59.751Z</time></trkpt><trkpt lat="45.8490417" lon="9.729174"><ele>630.25</ele><time>2026-04-25T08:58:00.751Z</time></trkpt><trkpt lat="45.8491762" lon="9.7290791"><ele>632.0</ele><time>2026-04-25T08:58:01.751Z</time></trkpt><trkpt lat="45.8493074" lon="9.7289363"><ele>637.6666666666666</ele><time>2026-04-25T08:58:02.75Z</time></trkpt><trkpt lat="45.8494509" lon="9.7287501"><ele>643.3333333333334</ele><time>2026-04-25T08:58:03.751Z</time></trkpt><trkpt lat="45.8495973" lon="9.7285317"><ele>649.0</ele><time>2026-04-25T08:58:04.751Z</time></trkpt><trkpt lat="45.8497369" lon="9.7283119"><ele>649.0</ele><time>2026-04-25T08:58:05.751Z</time></trkpt><trkpt lat="45.849875" lon="9.7280945"><ele>649.0</ele><time>2026-04-25T08:58:06.75Z</time></trkpt><trkpt lat="45.8499977" lon="9.727895"><ele>649.0</ele><time>2026-04-25T08:58:07.751Z</time></trkpt><trkpt lat="45.8501184" lon="9.7277052"><ele>650.3333333333334</ele><time>2026-04-25T08:58:08.751Z</time></trkpt><trkpt lat="45.8502525" lon="9.72752"><ele>651.6666666666666</ele><time>2026-04-25T08:58:09.75Z</time></trkpt><trkpt lat="45.8504115" lon="9.72736"><ele>653.0</ele><time>2026-04-25T08:58:10.751Z</time></trkpt><trkpt lat="45.8505943" lon="9.7272511"><ele>653.0</ele><time>2026-04-25T08:58:11.75Z</time></trkpt><trkpt lat="45.8507938" lon="9.7271861"><ele>653.0</ele><time>2026-04-25T08:58:12.751Z</time></trkpt><trkpt lat="45.8510004" lon="9.7271587"><ele>653.0</ele><time>2026-04-25T08:58:13.751Z</time></trkpt><trkpt lat="45.8511918" lon="9.7271384"><ele>654.6666666666666</ele><time>2026-04-25T08:58:14.75Z</time></trkpt><trkpt lat="45.8513788" lon="9.7271286"><ele>656.3333333333334</ele><time>2026-04-25T08:58:15.75Z</time></trkpt><trkpt lat="45.8515665" lon="9.7271546"><ele>658.0</ele><time>2026-04-25T08:58:16.751Z</time></trkpt><trkpt lat="45.851746" lon="9.7271391"><ele>660.3333333333334</ele><time>2026-04-25T08:58:17.75Z</time></trkpt><trkpt lat="45.8519181" lon="9.7271176"><ele>662.6666666666666</ele><time>2026-04-25T08:58:18.75Z</time></trkpt><trkpt lat="45.8520834" lon="9.727157"><ele>665.0</ele><time>2026-04-25T08:58:19.75Z</time></trkpt><trkpt lat="45.8522454" lon="9.7272684"><ele>665.0</ele><time>2026-04-25T08:58:20.751Z</time></trkpt><trkpt lat="45.8524007" lon="9.7274287"><ele>665.0</ele><time>2026-04-25T08:58:21.75Z</time></trkpt><trkpt lat="45.8525483" lon="9.7276168"><ele>665.0</ele><time>2026-04-25T08:58:22.751Z</time></trkpt><trkpt lat="45.8526851" lon="9.7277865"><ele>667.3333333333333</ele><time>2026-04-25T08:58:23.751Z</time></trkpt><trkpt lat="45.8528193" lon="9.7279462"><ele>669.6666666666666</ele><time>2026-04-25T08:58:24.75Z</time></trkpt><trkpt lat="45.8529714" lon="9.7280769"><ele>672.0</ele><time>2026-04-25T08:58:25.751Z</time></trkpt><trkpt lat="45.8531373" lon="9.7281679"><ele>672.0</ele><time>2026-04-25T08:58:26.75Z</time></trkpt><trkpt lat="45.8532999" lon="9.7282161"><ele>672.0</ele><time>2026-04-25T08:58:27.751Z</time></trkpt><trkpt lat="45.8534502" lon="9.7282469"><ele>672.0</ele><time>2026-04-25T08:58:28.751Z</time></trkpt><trkpt lat="45.8535793" lon="9.7283049"><ele>674.25</ele><time>2026-04-25T08:58:29.751Z</time></trkpt><trkpt lat="45.8536847" lon="9.7284265"><ele>676.5</ele><time>2026-04-25T08:58:30.75Z</time></trkpt><trkpt lat="45.8537457" lon="9.7285988"><ele>678.75</ele><time>2026-04-25T08:58:31.75Z</time></trkpt><trkpt lat="45.853766" lon="9.7287967"><ele>681.0</ele><time>2026-04-25T08:58:32.751Z</time></trkpt><trkpt lat="45.8537873" lon="9.72898"><ele>681.0</ele><time>2026-04-25T08:58:33.75Z</time></trkpt><trkpt lat="45.8538567" lon="9.7291265"><ele>681.0</ele><time>2026-04-25T08:58:34.75Z</time></trkpt><trkpt lat="45.8539653" lon="9.7292369"><ele>681.0</ele><time>2026-04-25T08:58:35.751Z</time></trkpt><trkpt lat="45.8541058" lon="9.7293375"><ele>681.0</ele><time>2026-04-25T08:58:36.751Z</time></trkpt><trkpt lat="45.8542578" lon="9.7294542"><ele>683.0</ele><time>2026-04-25T08:58:37.751Z</time></trkpt><trkpt lat="45.8544097" lon="9.7295823"><ele>685.0</ele><time>2026-04-25T08:58:38.75Z</time></trkpt><trkpt lat="45.8545633" lon="9.7297166"><ele>687.0</ele><time>2026-04-25T08:58:39.751Z</time></trkpt><trkpt lat="45.8547016" lon="9.7299017"><ele>687.0</ele><time>2026-04-25T08:58:40.75Z</time></trkpt><trkpt lat="45.8548305" lon="9.730122"><ele>687.0</ele><time>2026-04-25T08:58:41.75Z</time></trkpt><trkpt lat="45.8549832" lon="9.7303207"><ele>687.0</ele><time>2026-04-25T08:58:42.75Z</time></trkpt><trkpt lat="45.8551692" lon="9.7304954"><ele>687.6666666666666</ele><time>2026-04-25T08:58:43.75Z</time></trkpt><trkpt lat="45.8553656" lon="9.730656"><ele>688.3333333333333</ele><time>2026-04-25T08:58:44.751Z</time></trkpt><trkpt lat="45.8555494" lon="9.7308148"><ele>689.0</ele><time>2026-04-25T08:58:45.751Z</time></trkpt><trkpt lat="45.8557168" lon="9.7309608"><ele>694.3333333333333</ele><time>2026-04-25T08:58:46.75Z</time></trkpt><trkpt lat="45.8558783" lon="9.731093"><ele>699.6666666666666</ele><time>2026-04-25T08:58:47.751Z</time></trkpt><trkpt lat="45.8560465" lon="9.7311964"><ele>705.0</ele><time>2026-04-25T08:58:48.751Z</time></trkpt><trkpt lat="45.8562203" lon="9.7312618"><ele>706.5</ele><time>2026-04-25T08:58:49.75Z</time></trkpt><trkpt lat="45.8563788" lon="9.7312933"><ele>708.0</ele><time>2026-04-25T08:58:50.75Z</time></trkpt><trkpt lat="45.8565223" lon="9.7313125"><ele>709.5</ele><time>2026-04-25T08:58:51.751Z</time></trkpt><trkpt lat="45.8566512" lon="9.7312907"><ele>711.0</ele><time>2026-04-25T08:58:52.751Z</time></trkpt><trkpt lat="45.8567656" lon="9.7311884"><ele>706.75</ele><time>2026-04-25T08:58:53.751Z</time></trkpt><trkpt lat="45.856855" lon="9.7310388"><ele>702.5</ele><time>2026-04-25T08:58:54.75Z</time></trkpt><trkpt lat="45.8569313" lon="9.7308945"><ele>698.25</ele><time>2026-04-25T08:58:55.751Z</time></trkpt><trkpt lat="45.8570116" lon="9.7307842"><ele>694.0</ele><time>2026-04-25T08:58:56.751Z</time></trkpt><trkpt lat="45.8571101" lon="9.7307312"><ele>694.0</ele><time>2026-04-25T08:58:57.751Z</time></trkpt><trkpt lat="45.8572321" lon="9.7307311"><ele>694.0</ele><time>2026-04-25T08:58:58.751Z</time></trkpt><trkpt lat="45.8573813" lon="9.7307385"><ele>694.0</ele><time>2026-04-25T08:58:59.751Z</time></trkpt><trkpt lat="45.8575313" lon="9.7307502"><ele>694.0</ele><time>2026-04-25T08:59:00.75Z</time></trkpt><trkpt lat="45.8576727" lon="9.730764"><ele>696.0</ele><time>2026-04-25T08:59:01.751Z</time></trkpt><trkpt lat="45.8578144" lon="9.7307849"><ele>698.0</ele><time>2026-04-25T08:59:02.751Z</time></trkpt><trkpt lat="45.8579502" lon="9.7308202"><ele>700.0</ele><time>2026-04-25T08:59:03.751Z</time></trkpt><trkpt lat="45.8580776" lon="9.7308516"><ele>702.0</ele><time>2026-04-25T08:59:04.75Z</time></trkpt><trkpt lat="45.8582045" lon="9.7308748"><ele>702.0</ele><time>2026-04-25T08:59:05.751Z</time></trkpt><trkpt lat="45.8583349" lon="9.730888"><ele>702.0</ele><time>2026-04-25T08:59:06.751Z</time></trkpt><trkpt lat="45.8584703" lon="9.7308737"><ele>702.0</ele><time>2026-04-25T08:59:07.751Z</time></trkpt><trkpt lat="45.8586246" lon="9.7308036"><ele>702.0</ele><time>2026-04-25T08:59:08.751Z</time></trkpt><trkpt lat="45.8587889" lon="9.7306872"><ele>703.6666666666666</ele><time>2026-04-25T08:59:09.75Z</time></trkpt><trkpt lat="45.8589494" lon="9.7305538"><ele>705.3333333333333</ele><time>2026-04-25T08:59:10.751Z</time></trkpt><trkpt lat="45.8591417" lon="9.7304797"><ele>707.0</ele><time>2026-04-25T08:59:11.751Z</time></trkpt><trkpt lat="45.859349" lon="9.7304224"><ele>706.0</ele><time>2026-04-25T08:59:12.751Z</time></trkpt><trkpt lat="45.8595415" lon="9.7303208"><ele>705.0</ele><time>2026-04-25T08:59:13.751Z</time></trkpt><trkpt lat="45.8597268" lon="9.730208"><ele>704.0</ele><time>2026-04-25T08:59:14.751Z</time></trkpt><trkpt lat="45.8599024" lon="9.7300986"><ele>704.0</ele><time>2026-04-25T08:59:15.75Z</time></trkpt><trkpt lat="45.8600627" lon="9.7299921"><ele>704.0</ele><time>2026-04-25T08:59:16.75Z</time></trkpt><trkpt lat="45.8602074" lon="9.7298905"><ele>704.0</ele><time>2026-04-25T08:59:17.751Z</time></trkpt><trkpt lat="45.86034" lon="9.7297974"><ele>705.75</ele><time>2026-04-25T08:59:18.75Z</time></trkpt><trkpt lat="45.8604636" lon="9.7297122"><ele>707.5</ele><time>2026-04-25T08:59:19.751Z</time></trkpt><trkpt lat="45.8605725" lon="9.7296281"><ele>709.25</ele><time>2026-04-25T08:59:20.751Z</time></trkpt><trkpt lat="45.860666" lon="9.7295172"><ele>711.0</ele><time>2026-04-25T08:59:21.75Z</time></trkpt><trkpt lat="45.8607331" lon="9.7293791"><ele>711.0</ele><time>2026-04-25T08:59:22.75Z</time></trkpt><trkpt lat="45.8607849" lon="9.7292313"><ele>711.0</ele><time>2026-04-25T08:59:23.751Z</time></trkpt><trkpt lat="45.8608377" lon="9.7290909"><ele>711.0</ele><time>2026-04-25T08:59:24.75Z</time></trkpt><trkpt lat="45.860893" lon="9.7289694"><ele>711.0</ele><time>2026-04-25T08:59:25.751Z</time></trkpt><trkpt lat="45.860956" lon="9.7288713"><ele>711.0</ele><time>2026-04-25T08:59:26.751Z</time></trkpt><trkpt lat="45.8610342" lon="9.728804"><ele>714.5</ele><time>2026-04-25T08:59:27.75Z</time></trkpt><trkpt lat="45.8611356" lon="9.7287746"><ele>718.0</ele><time>2026-04-25T08:59:28.751Z</time></trkpt><trkpt lat="45.86125" lon="9.7287894"><ele>721.5</ele><time>2026-04-25T08:59:29.751Z</time></trkpt><trkpt lat="45.8613653" lon="9.7288185"><ele>725.0</ele><time>2026-04-25T08:59:30.75Z</time></trkpt><trkpt lat="45.861485" lon="9.7288434"><ele>725.0</ele><time>2026-04-25T08:59:31.75Z</time></trkpt><trkpt lat="45.8616104" lon="9.7288713"><ele>725.0</ele><time>2026-04-25T08:59:32.75Z</time></trkpt><trkpt lat="45.8617357" lon="9.7288988"><ele>725.0</ele><time>2026-04-25T08:59:33.75Z</time></trkpt><trkpt lat="45.8618532" lon="9.7289157"><ele>725.0</ele><time>2026-04-25T08:59:34.751Z</time></trkpt><trkpt lat="45.861967" lon="9.728911"><ele>727.0</ele><time>2026-04-25T08:59:35.751Z</time></trkpt><trkpt lat="45.8620876" lon="9.7288702"><ele>729.0</ele><time>2026-04-25T08:59:36.751Z</time></trkpt><trkpt lat="45.8622086" lon="9.7287913"><ele>731.0</ele><time>2026-04-25T08:59:37.75Z</time></trkpt><trkpt lat="45.862322" lon="9.7287165"><ele>733.0</ele><time>2026-04-25T08:59:38.75Z</time></trkpt><trkpt lat="45.862429" lon="9.7286473"><ele>733.0</ele><time>2026-04-25T08:59:39.75Z</time></trkpt><trkpt lat="45.8625205" lon="9.7285815"><ele>733.0</ele><time>2026-04-25T08:59:40.751Z</time></trkpt><trkpt lat="45.8626046" lon="9.7285183"><ele>733.0</ele><time>2026-04-25T08:59:41.75Z</time></trkpt><trkpt lat="45.8626874" lon="9.7284534"><ele>733.0</ele><time>2026-04-25T08:59:42.75Z</time></trkpt><trkpt lat="45.8627767" lon="9.7283861"><ele>733.0</ele><time>2026-04-25T08:59:43.75Z</time></trkpt><trkpt lat="45.862876" lon="9.7283314"><ele>732.8</ele><time>2026-04-25T08:59:44.751Z</time></trkpt><trkpt lat="45.8629801" lon="9.7282928"><ele>732.5999999999999</ele><time>2026-04-25T08:59:45.75Z</time></trkpt><trkpt lat="45.8630913" lon="9.7282765"><ele>732.4000000000001</ele><time>2026-04-25T08:59:46.75Z</time></trkpt><trkpt lat="45.8632059" lon="9.7282993"><ele>732.2</ele><time>2026-04-25T08:59:47.751Z</time></trkpt><trkpt lat="45.8633158" lon="9.7283429"><ele>732.0</ele><time>2026-04-25T08:59:48.751Z</time></trkpt><trkpt lat="45.8634279" lon="9.7283954"><ele>733.25</ele><time>2026-04-25T08:59:49.75Z</time></trkpt><trkpt lat="45.863545" lon="9.7284368"><ele>734.5</ele><time>2026-04-25T08:59:50.751Z</time></trkpt><trkpt lat="45.8636577" lon="9.7284627"><ele>735.75</ele><time>2026-04-25T08:59:51.75Z</time></trkpt><trkpt lat="45.8637674" lon="9.7284701"><ele>737.0</ele><time>2026-04-25T08:59:52.751Z</time></trkpt><trkpt lat="45.8638815" lon="9.7284653"><ele>737.0</ele><time>2026-04-25T08:59:53.751Z</time></trkpt><trkpt lat="45.863992" lon="9.7284602"><ele>737.0</ele><time>2026-04-25T08:59:54.75Z</time></trkpt><trkpt lat="45.8641017" lon="9.728459"><ele>737.0</ele><time>2026-04-25T08:59:55.75Z</time></trkpt><trkpt lat="45.8642051" lon="9.7284598"><ele>737.0</ele><time>2026-04-25T08:59:56.751Z</time></trkpt><trkpt lat="45.864307" lon="9.7284631"><ele>737.0</ele><time>2026-04-25T08:59:57.75Z</time></trkpt><trkpt lat="45.8644016" lon="9.7284762"><ele>737.6666666666666</ele><time>2026-04-25T08:59:58.75Z</time></trkpt><trkpt lat="45.8644859" lon="9.7285023"><ele>738.3333333333333</ele><time>2026-04-25T08:59:59.75Z</time></trkpt><trkpt lat="45.864561" lon="9.7285457"><ele>739.0</ele><time>2026-04-25T09:00:00.75Z</time></trkpt><trkpt lat="45.8646244" lon="9.7286149"><ele>739.6666666666666</ele><time>2026-04-25T09:00:01.751Z</time></trkpt><trkpt lat="45.8646587" lon="9.728715"><ele>740.3333333333334</ele><time>2026-04-25T09:00:02.75Z</time></trkpt><trkpt lat="45.8646526" lon="9.7288276"><ele>741.0</ele><time>2026-04-25T09:00:03.75Z</time></trkpt><trkpt lat="45.86461" lon="9.7289295"><ele>742.1999999999999</ele><time>2026-04-25T09:00:04.75Z</time></trkpt><trkpt lat="45.8645455" lon="9.7290063"><ele>743.4</ele><time>2026-04-25T09:00:05.751Z</time></trkpt><trkpt lat="45.8644738" lon="9.7290694"><ele>744.6</ele><time>2026-04-25T09:00:06.75Z</time></trkpt><trkpt lat="45.8643962" lon="9.729128"><ele>745.8</ele><time>2026-04-25T09:00:07.751Z</time></trkpt><trkpt lat="45.8643022" lon="9.7292083"><ele>747.0</ele><time>2026-04-25T09:00:08.75Z</time></trkpt><trkpt lat="45.8641782" lon="9.7292997"><ele>747.0</ele><time>2026-04-25T09:00:09.751Z</time></trkpt><trkpt lat="45.864045" lon="9.7293823"><ele>747.0</ele><time>2026-04-25T09:00:10.75Z</time></trkpt><trkpt lat="45.8639263" lon="9.7294624"><ele>747.0</ele><time>2026-04-25T09:00:11.751Z</time></trkpt><trkpt lat="45.8638161" lon="9.7295428"><ele>747.0</ele><time>2026-04-25T09:00:12.751Z</time></trkpt><trkpt lat="45.8637077" lon="9.7296174"><ele>749.5</ele><time>2026-04-25T09:00:13.751Z</time></trkpt><trkpt lat="45.8636054" lon="9.7296884"><ele>752.0</ele><time>2026-04-25T09:00:14.751Z</time></trkpt><trkpt lat="45.8635028" lon="9.7297619"><ele>754.5</ele><time>2026-04-25T09:00:15.751Z</time></trkpt><trkpt lat="45.8633984" lon="9.7298378"><ele>757.0</ele><time>2026-04-25T09:00:16.75Z</time></trkpt><trkpt lat="45.8632933" lon="9.7299116"><ele>757.0</ele><time>2026-04-25T09:00:17.75Z</time></trkpt><trkpt lat="45.8631883" lon="9.7299881"><ele>757.0</ele><time>2026-04-25T09:00:18.751Z</time></trkpt><trkpt lat="45.8630798" lon="9.7300677"><ele>757.0</ele><time>2026-04-25T09:00:19.75Z</time></trkpt><trkpt lat="45.8629709" lon="9.7301506"><ele>757.0</ele><time>2026-04-25T09:00:20.75Z</time></trkpt><trkpt lat="45.8628622" lon="9.7302296"><ele>758.75</ele><time>2026-04-25T09:00:21.751Z</time></trkpt><trkpt lat="45.862752" lon="9.7303097"><ele>760.5</ele><time>2026-04-25T09:00:22.75Z</time></trkpt><trkpt lat="45.8626405" lon="9.7303906"><ele>762.25</ele><time>2026-04-25T09:00:23.75Z</time></trkpt><trkpt lat="45.8625342" lon="9.7304669"><ele>764.0</ele><time>2026-04-25T09:00:24.751Z</time></trkpt><trkpt lat="45.8624336" lon="9.7305375"><ele>764.0</ele><time>2026-04-25T09:00:25.75Z</time></trkpt><trkpt lat="45.8623427" lon="9.7306027"><ele>764.0</ele><time>2026-04-25T09:00:26.751Z</time></trkpt><trkpt lat="45.8622582" lon="9.7306636"><ele>764.0</ele><time>2026-04-25T09:00:27.751Z</time></trkpt><trkpt lat="45.8621755" lon="9.7307204"><ele>764.0</ele><time>2026-04-25T09:00:28.75Z</time></trkpt><trkpt lat="45.8621031" lon="9.7307746"><ele>764.0</ele><time>2026-04-25T09:00:29.751Z</time></trkpt><trkpt lat="45.8620457" lon="9.7308479"><ele>764.0</ele><time>2026-04-25T09:00:30.751Z</time></trkpt><trkpt lat="45.8620203" lon="9.7309515"><ele>769.0</ele><time>2026-04-25T09:00:31.75Z</time></trkpt><trkpt lat="45.8620415" lon="9.731059"><ele>774.0</ele><time>2026-04-25T09:00:32.751Z</time></trkpt><trkpt lat="45.8620971" lon="9.7311347"><ele>779.0</ele><time>2026-04-25T09:00:33.751Z</time></trkpt><trkpt lat="45.8621782" lon="9.7311669"><ele>784.0</ele><time>2026-04-25T09:00:34.75Z</time></trkpt><trkpt lat="45.8622855" lon="9.7311477"><ele>789.0</ele><time>2026-04-25T09:00:35.75Z</time></trkpt><trkpt lat="45.8624355" lon="9.7310805"><ele>785.3333333333333</ele><time>2026-04-25T09:00:36.751Z</time></trkpt><trkpt lat="45.8626282" lon="9.7310093"><ele>781.6666666666666</ele><time>2026-04-25T09:00:37.75Z</time></trkpt><trkpt lat="45.8628375" lon="9.730929"><ele>778.0</ele><time>2026-04-25T09:00:38.75Z</time></trkpt><trkpt lat="45.8630431" lon="9.7308389"><ele>778.0</ele><time>2026-04-25T09:00:39.751Z</time></trkpt><trkpt lat="45.8632268" lon="9.7307603"><ele>778.0</ele><time>2026-04-25T09:00:40.75Z</time></trkpt><trkpt lat="45.8633997" lon="9.7306928"><ele>778.0</ele><time>2026-04-25T09:00:41.751Z</time></trkpt><trkpt lat="45.8635579" lon="9.7306267"><ele>780.5</ele><time>2026-04-25T09:00:42.75Z</time></trkpt><trkpt lat="45.8637099" lon="9.7305874"><ele>783.0</ele><time>2026-04-25T09:00:43.75Z</time></trkpt><trkpt lat="45.8638561" lon="9.7306024"><ele>785.5</ele><time>2026-04-25T09:00:44.75Z</time></trkpt><trkpt lat="45.8639924" lon="9.730657"><ele>788.0</ele><time>2026-04-25T09:00:45.75Z</time></trkpt><trkpt lat="45.8641295" lon="9.7306999"><ele>788.0</ele><time>2026-04-25T09:00:46.75Z</time></trkpt><trkpt lat="45.8642757" lon="9.7307112"><ele>788.0</ele><time>2026-04-25T09:00:47.75Z</time></trkpt><trkpt lat="45.8644222" lon="9.7307088"><ele>788.0</ele><time>2026-04-25T09:00:48.75Z</time></trkpt><trkpt lat="45.8645544" lon="9.7306935"><ele>788.0</ele><time>2026-04-25T09:00:49.75Z</time></trkpt><trkpt lat="45.8646816" lon="9.7306712"><ele>788.5</ele><time>2026-04-25T09:00:50.751Z</time></trkpt><trkpt lat="45.8648076" lon="9.7306505"><ele>789.0</ele><time>2026-04-25T09:00:51.75Z</time></trkpt><trkpt lat="45.8649365" lon="9.7306278"><ele>789.5</ele><time>2026-04-25T09:00:52.751Z</time></trkpt><trkpt lat="45.8650712" lon="9.7305997"><ele>790.0</ele><time>2026-04-25T09:00:53.751Z</time></trkpt><trkpt lat="45.8652117" lon="9.7305578"><ele>792.0</ele><time>2026-04-25T09:00:54.751Z</time></trkpt><trkpt lat="45.8653547" lon="9.7305081"><ele>794.0</ele><time>2026-04-25T09:00:55.751Z</time></trkpt><trkpt lat="45.8654997" lon="9.7304518"><ele>796.0</ele><time>2026-04-25T09:00:56.751Z</time></trkpt><trkpt lat="45.8656462" lon="9.7303974"><ele>798.0</ele><time>2026-04-25T09:00:57.751Z</time></trkpt><trkpt lat="45.8657901" lon="9.7303389"><ele>798.0</ele><time>2026-04-25T09:00:58.751Z</time></trkpt><trkpt lat="45.865933" lon="9.7302813"><ele>798.0</ele><time>2026-04-25T09:00:59.75Z</time></trkpt><trkpt lat="45.8660723" lon="9.730224"><ele>798.0</ele><time>2026-04-25T09:01:00.75Z</time></trkpt><trkpt lat="45.8662083" lon="9.7301692"><ele>798.0</ele><time>2026-04-25T09:01:01.751Z</time></trkpt><trkpt lat="45.8663381" lon="9.7301182"><ele>795.0</ele><time>2026-04-25T09:01:02.751Z</time></trkpt><trkpt lat="45.8664612" lon="9.7300657"><ele>792.0</ele><time>2026-04-25T09:01:03.751Z</time></trkpt><trkpt lat="45.8665831" lon="9.7300267"><ele>789.0</ele><time>2026-04-25T09:01:04.751Z</time></trkpt><trkpt lat="45.8667048" lon="9.7300091"><ele>786.0</ele><time>2026-04-25T09:01:05.751Z</time></trkpt><trkpt lat="45.8668256" lon="9.7300202"><ele>785.25</ele><time>2026-04-25T09:01:06.75Z</time></trkpt><trkpt lat="45.8669445" lon="9.7300646"><ele>784.5</ele><time>2026-04-25T09:01:07.75Z</time></trkpt><trkpt lat="45.8670616" lon="9.7301495"><ele>783.75</ele><time>2026-04-25T09:01:08.751Z</time></trkpt><trkpt lat="45.867175" lon="9.7302539"><ele>783.0</ele><time>2026-04-25T09:01:09.751Z</time></trkpt><trkpt lat="45.8672917" lon="9.7303566"><ele>787.75</ele><time>2026-04-25T09:01:10.751Z</time></trkpt><trkpt lat="45.8674107" lon="9.7304472"><ele>792.5</ele><time>2026-04-25T09:01:11.751Z</time></trkpt><trkpt lat="45.867542" lon="9.7305042"><ele>797.25</ele><time>2026-04-25T09:01:12.75Z</time></trkpt><trkpt lat="45.8676875" lon="9.7305178"><ele>802.0</ele><time>2026-04-25T09:01:13.75Z</time></trkpt><trkpt lat="45.8678373" lon="9.7305091"><ele>802.0</ele><time>2026-04-25T09:01:14.75Z</time></trkpt><trkpt lat="45.8679806" lon="9.7304944"><ele>802.0</ele><time>2026-04-25T09:01:15.75Z</time></trkpt><trkpt lat="45.8681166" lon="9.7304811"><ele>802.0</ele><time>2026-04-25T09:01:16.75Z</time></trkpt><trkpt lat="45.8682455" lon="9.7304764"><ele>802.0</ele><time>2026-04-25T09:01:17.751Z</time></trkpt><trkpt lat="45.8683676" lon="9.7305038"><ele>802.3333333333333</ele><time>2026-04-25T09:01:18.751Z</time></trkpt><trkpt lat="45.8684999" lon="9.7305663"><ele>802.6666666666667</ele><time>2026-04-25T09:01:19.75Z</time></trkpt><trkpt lat="45.8686491" lon="9.7306517"><ele>803.0</ele><time>2026-04-25T09:01:20.75Z</time></trkpt><trkpt lat="45.8688054" lon="9.7307514"><ele>803.0</ele><time>2026-04-25T09:01:21.75Z</time></trkpt><trkpt lat="45.8689585" lon="9.7308486"><ele>803.0</ele><time>2026-04-25T09:01:22.75Z</time></trkpt><trkpt lat="45.8691006" lon="9.7309391"><ele>803.0</ele><time>2026-04-25T09:01:23.751Z</time></trkpt><trkpt lat="45.8692404" lon="9.7310304"><ele>806.0</ele><time>2026-04-25T09:01:24.751Z</time></trkpt><trkpt lat="45.8693764" lon="9.7311234"><ele>809.0</ele><time>2026-04-25T09:01:25.751Z</time></trkpt><trkpt lat="45.8695115" lon="9.7312152"><ele>812.0</ele><time>2026-04-25T09:01:26.75Z</time></trkpt><trkpt lat="45.8696393" lon="9.7313034"><ele>815.0</ele><time>2026-04-25T09:01:27.75Z</time></trkpt><trkpt lat="45.8697637" lon="9.7313881"><ele>815.0</ele><time>2026-04-25T09:01:28.751Z</time></trkpt><trkpt lat="45.8698862" lon="9.7314597"><ele>815.0</ele><time>2026-04-25T09:01:29.751Z</time></trkpt><trkpt lat="45.8700123" lon="9.7314992"><ele>815.0</ele><time>2026-04-25T09:01:30.751Z</time></trkpt><trkpt lat="45.8701401" lon="9.7314993"><ele>815.0</ele><time>2026-04-25T09:01:31.75Z</time></trkpt><trkpt lat="45.8702623" lon="9.7314347"><ele>816.75</ele><time>2026-04-25T09:01:32.75Z</time></trkpt><trkpt lat="45.8703778" lon="9.7313566"><ele>818.5</ele><time>2026-04-25T09:01:33.75Z</time></trkpt><trkpt lat="45.8704902" lon="9.7312844"><ele>820.25</ele><time>2026-04-25T09:01:34.75Z</time></trkpt><trkpt lat="45.8706009" lon="9.7312203"><ele>822.0</ele><time>2026-04-25T09:01:35.751Z</time></trkpt><trkpt lat="45.8707115" lon="9.7311691"><ele>822.0</ele><time>2026-04-25T09:01:36.75Z</time></trkpt><trkpt lat="45.8708212" lon="9.731129"><ele>822.0</ele><time>2026-04-25T09:01:37.751Z</time></trkpt><trkpt lat="45.8709352" lon="9.7310993"><ele>822.0</ele><time>2026-04-25T09:01:38.751Z</time></trkpt><trkpt lat="45.8710494" lon="9.7310688"><ele>822.0</ele><time>2026-04-25T09:01:39.75Z</time></trkpt><trkpt lat="45.8711645" lon="9.731032"><ele>821.25</ele><time>2026-04-25T09:01:40.75Z</time></trkpt><trkpt lat="45.8712798" lon="9.730985"><ele>820.5</ele><time>2026-04-25T09:01:41.751Z</time></trkpt><trkpt lat="45.8713951" lon="9.7309322"><ele>819.75</ele><time>2026-04-25T09:01:42.75Z</time></trkpt><trkpt lat="45.8715157" lon="9.7308767"><ele>819.0</ele><time>2026-04-25T09:01:43.75Z</time></trkpt><trkpt lat="45.8716416" lon="9.7308271"><ele>819.0</ele><time>2026-04-25T09:01:44.751Z</time></trkpt><trkpt lat="45.8717711" lon="9.7307878"><ele>819.0</ele><time>2026-04-25T09:01:45.75Z</time></trkpt><trkpt lat="45.8718942" lon="9.730769"><ele>819.0</ele><time>2026-04-25T09:01:46.75Z</time></trkpt><trkpt lat="45.8720066" lon="9.7307853"><ele>819.0</ele><time>2026-04-25T09:01:47.751Z</time></trkpt><trkpt lat="45.8721075" lon="9.7308336"><ele>820.5</ele><time>2026-04-25T09:01:48.75Z</time></trkpt><trkpt lat="45.872193" lon="9.7309004"><ele>822.0</ele><time>2026-04-25T09:01:49.75Z</time></trkpt><trkpt lat="45.8722703" lon="9.7309557"><ele>823.5</ele><time>2026-04-25T09:01:50.75Z</time></trkpt><trkpt lat="45.8723562" lon="9.7309915"><ele>825.0</ele><time>2026-04-25T09:01:51.75Z</time></trkpt><trkpt lat="45.8724378" lon="9.7309988"><ele>826.5</ele><time>2026-04-25T09:01:52.751Z</time></trkpt><trkpt lat="45.8725301" lon="9.7309992"><ele>828.0</ele><time>2026-04-25T09:01:53.75Z</time></trkpt><trkpt lat="45.8726429" lon="9.7310064"><ele>828.0</ele><time>2026-04-25T09:01:54.75Z</time></trkpt><trkpt lat="45.8727633" lon="9.7309986"><ele>828.0</ele><time>2026-04-25T09:01:55.751Z</time></trkpt><trkpt lat="45.8728737" lon="9.7309854"><ele>828.0</ele><time>2026-04-25T09:01:56.75Z</time></trkpt><trkpt lat="45.8729889" lon="9.7309664"><ele>828.0</ele><time>2026-04-25T09:01:57.75Z</time></trkpt><trkpt lat="45.8731023" lon="9.7309343"><ele>828.0</ele><time>2026-04-25T09:01:58.75Z</time></trkpt><trkpt lat="45.8732152" lon="9.7308985"><ele>828.0</ele><time>2026-04-25T09:01:59.751Z</time></trkpt><trkpt lat="45.8733293" lon="9.7308634"><ele>828.0</ele><time>2026-04-25T09:02:00.751Z</time></trkpt><trkpt lat="45.8734445" lon="9.7308264"><ele>828.0</ele><time>2026-04-25T09:02:01.751Z</time></trkpt><trkpt lat="45.8735619" lon="9.7307918"><ele>829.25</ele><time>2026-04-25T09:02:02.75Z</time></trkpt><trkpt lat="45.8736771" lon="9.7307576"><ele>830.5</ele><time>2026-04-25T09:02:03.75Z</time></trkpt><trkpt lat="45.8737924" lon="9.7307253"><ele>831.75</ele><time>2026-04-25T09:02:04.751Z</time></trkpt><trkpt lat="45.8739065" lon="9.7306924"><ele>833.0</ele><time>2026-04-25T09:02:05.751Z</time></trkpt><trkpt lat="45.8740179" lon="9.7306569"><ele>833.0</ele><time>2026-04-25T09:02:06.751Z</time></trkpt><trkpt lat="45.8741298" lon="9.7306207"><ele>833.0</ele><time>2026-04-25T09:02:07.75Z</time></trkpt><trkpt lat="45.8742411" lon="9.7305858"><ele>833.0</ele><time>2026-04-25T09:02:08.751Z</time></trkpt><trkpt lat="45.874352" lon="9.7305517"><ele>833.0</ele><time>2026-04-25T09:02:09.75Z</time></trkpt><trkpt lat="45.8744666" lon="9.7305164"><ele>833.5</ele><time>2026-04-25T09:02:10.751Z</time></trkpt><trkpt lat="45.8745796" lon="9.73048"><ele>834.0</ele><time>2026-04-25T09:02:11.751Z</time></trkpt><trkpt lat="45.8746939" lon="9.7304417"><ele>834.5</ele><time>2026-04-25T09:02:12.751Z</time></trkpt><trkpt lat="45.8748108" lon="9.7304013"><ele>835.0</ele><time>2026-04-25T09:02:13.75Z</time></trkpt><trkpt lat="45.8749284" lon="9.7303626"><ele>835.0</ele><time>2026-04-25T09:02:14.75Z</time></trkpt><trkpt lat="45.8750477" lon="9.7303207"><ele>835.0</ele><time>2026-04-25T09:02:15.75Z</time></trkpt><trkpt lat="45.8751648" lon="9.7302819"><ele>835.0</ele><time>2026-04-25T09:02:16.75Z</time></trkpt><trkpt lat="45.8752799" lon="9.7302449"><ele>835.0</ele><time>2026-04-25T09:02:17.751Z</time></trkpt><trkpt lat="45.8753998" lon="9.7302136"><ele>833.0</ele><time>2026-04-25T09:02:18.75Z</time></trkpt><trkpt lat="45.875522" lon="9.7301844"><ele>831.0</ele><time>2026-04-25T09:02:19.751Z</time></trkpt><trkpt lat="45.8756454" lon="9.7301526"><ele>829.0</ele><time>2026-04-25T09:02:20.751Z</time></trkpt><trkpt lat="45.8757776" lon="9.7301219"><ele>827.0</ele><time>2026-04-25T09:02:21.751Z</time></trkpt><trkpt lat="45.8759189" lon="9.7300877"><ele>826.75</ele><time>2026-04-25T09:02:22.751Z</time></trkpt><trkpt lat="45.8760587" lon="9.7300633"><ele>826.5</ele><time>2026-04-25T09:02:23.75Z</time></trkpt><trkpt lat="45.876184" lon="9.7300602"><ele>826.25</ele><time>2026-04-25T09:02:24.751Z</time></trkpt><trkpt lat="45.8763028" lon="9.7301047"><ele>826.0</ele><time>2026-04-25T09:02:25.751Z</time></trkpt><trkpt lat="45.8764164" lon="9.730203"><ele>829.3333333333333</ele><time>2026-04-25T09:02:26.751Z</time></trkpt><trkpt lat="45.8765355" lon="9.7303579"><ele>832.6666666666667</ele><time>2026-04-25T09:02:27.751Z</time></trkpt><trkpt lat="45.876659" lon="9.7305369"><ele>836.0</ele><time>2026-04-25T09:02:28.751Z</time></trkpt><trkpt lat="45.8767664" lon="9.7306939"><ele>836.0</ele><time>2026-04-25T09:02:29.751Z</time></trkpt><trkpt lat="45.8768481" lon="9.7308738"><ele>836.0</ele><time>2026-04-25T09:02:30.75Z</time></trkpt><trkpt lat="45.8769015" lon="9.7310706"><ele>836.0</ele><time>2026-04-25T09:02:31.751Z</time></trkpt><trkpt lat="45.8769455" lon="9.7312604"><ele>836.0</ele><time>2026-04-25T09:02:32.751Z</time></trkpt><trkpt lat="45.8769817" lon="9.7314465"><ele>836.75</ele><time>2026-04-25T09:02:33.751Z</time></trkpt><trkpt lat="45.8770056" lon="9.7316292"><ele>837.5</ele><time>2026-04-25T09:02:34.751Z</time></trkpt><trkpt lat="45.8770245" lon="9.7318103"><ele>838.25</ele><time>2026-04-25T09:02:35.751Z</time></trkpt><trkpt lat="45.8770448" lon="9.7319825"><ele>839.0</ele><time>2026-04-25T09:02:36.751Z</time></trkpt><trkpt lat="45.877066" lon="9.7321425"><ele>840.6</ele><time>2026-04-25T09:02:37.75Z</time></trkpt><trkpt lat="45.877089" lon="9.7322984"><ele>842.2</ele><time>2026-04-25T09:02:38.751Z</time></trkpt><trkpt lat="45.8771167" lon="9.7324458"><ele>843.8000000000001</ele><time>2026-04-25T09:02:39.75Z</time></trkpt><trkpt lat="45.8771457" lon="9.7325864"><ele>845.4000000000001</ele><time>2026-04-25T09:02:40.75Z</time></trkpt><trkpt lat="45.877173" lon="9.7327251"><ele>847.0</ele><time>2026-04-25T09:02:41.75Z</time></trkpt><trkpt lat="45.8772027" lon="9.7328631"><ele>848.6</ele><time>2026-04-25T09:02:42.75Z</time></trkpt><trkpt lat="45.8772356" lon="9.733002"><ele>850.2</ele><time>2026-04-25T09:02:43.75Z</time></trkpt><trkpt lat="45.8772677" lon="9.7331388"><ele>851.8</ele><time>2026-04-25T09:02:44.75Z</time></trkpt><trkpt lat="45.8772925" lon="9.7332622"><ele>853.4</ele><time>2026-04-25T09:02:45.75Z</time></trkpt><trkpt lat="45.8773164" lon="9.7333844"><ele>855.0</ele><time>2026-04-25T09:02:46.75Z</time></trkpt><trkpt lat="45.8773463" lon="9.7335184"><ele>856.0</ele><time>2026-04-25T09:02:47.75Z</time></trkpt><trkpt lat="45.8773776" lon="9.7336528"><ele>857.0</ele><time>2026-04-25T09:02:48.751Z</time></trkpt><trkpt lat="45.8774111" lon="9.7337861"><ele>858.0</ele><time>2026-04-25T09:02:49.751Z</time></trkpt><trkpt lat="45.8774527" lon="9.7339188"><ele>859.0</ele><time>2026-04-25T09:02:50.751Z</time></trkpt><trkpt lat="45.8775039" lon="9.7340464"><ele>860.0</ele><time>2026-04-25T09:02:51.751Z</time></trkpt><trkpt lat="45.8775704" lon="9.734153"><ele>861.2</ele><time>2026-04-25T09:02:52.75Z</time></trkpt><trkpt lat="45.8776492" lon="9.7342313"><ele>862.4</ele><time>2026-04-25T09:02:53.75Z</time></trkpt><trkpt lat="45.8777411" lon="9.7342738"><ele>863.5999999999999</ele><time>2026-04-25T09:02:54.75Z</time></trkpt><trkpt lat="45.87784" lon="9.734281"><ele>864.8</ele><time>2026-04-25T09:02:55.75Z</time></trkpt><trkpt lat="45.877942" lon="9.7342498"><ele>866.0</ele><time>2026-04-25T09:02:56.75Z</time></trkpt><trkpt lat="45.8780338" lon="9.7341854"><ele>866.0</ele><time>2026-04-25T09:02:57.75Z</time></trkpt><trkpt lat="45.878115" lon="9.7341067"><ele>865.9999999999999</ele><time>2026-04-25T09:02:58.751Z</time></trkpt><trkpt lat="45.8781884" lon="9.7340285"><ele>865.9999999999999</ele><time>2026-04-25T09:02:59.75Z</time></trkpt><trkpt lat="45.878261" lon="9.7339536"><ele>866.0</ele><time>2026-04-25T09:03:00.75Z</time></trkpt><trkpt lat="45.8783317" lon="9.7338752"><ele>866.0</ele><time>2026-04-25T09:03:01.75Z</time></trkpt><trkpt lat="45.878402" lon="9.7338031"><ele>866.0</ele><time>2026-04-25T09:03:02.75Z</time></trkpt><trkpt lat="45.8784856" lon="9.7337143"><ele>866.0</ele><time>2026-04-25T09:03:03.75Z</time></trkpt><trkpt lat="45.8785813" lon="9.7336135"><ele>866.0</ele><time>2026-04-25T09:03:04.75Z</time></trkpt><trkpt lat="45.8786759" lon="9.7335212"><ele>866.0</ele><time>2026-04-25T09:03:05.75Z</time></trkpt><trkpt lat="45.8787691" lon="9.7334301"><ele>866.0000000000001</ele><time>2026-04-25T09:03:06.751Z</time></trkpt><trkpt lat="45.8788588" lon="9.7333531"><ele>866.0</ele><time>2026-04-25T09:03:07.751Z</time></trkpt><trkpt lat="45.8789397" lon="9.7333024"><ele>866.0</ele><time>2026-04-25T09:03:08.75Z</time></trkpt><trkpt lat="45.8790135" lon="9.7333172"><ele>866.0</ele><time>2026-04-25T09:03:09.751Z</time></trkpt><trkpt lat="45.8790606" lon="9.7334071"><ele>866.0000000000001</ele><time>2026-04-25T09:03:10.75Z</time></trkpt><trkpt lat="45.8790631" lon="9.7335083"><ele>866.0</ele><time>2026-04-25T09:03:11.751Z</time></trkpt><trkpt lat="45.8790216" lon="9.7336156"><ele>869.25</ele><time>2026-04-25T09:03:12.751Z</time></trkpt><trkpt lat="45.8789442" lon="9.7337238"><ele>872.5</ele><time>2026-04-25T09:03:13.75Z</time></trkpt><trkpt lat="45.8788388" lon="9.7338745"><ele>875.75</ele><time>2026-04-25T09:03:14.75Z</time></trkpt><trkpt lat="45.8787235" lon="9.734035"><ele>879.0</ele><time>2026-04-25T09:03:15.75Z</time></trkpt><trkpt lat="45.8786074" lon="9.7342175"><ele>878.25</ele><time>2026-04-25T09:03:16.751Z</time></trkpt><trkpt lat="45.8785243" lon="9.7344048"><ele>877.5</ele><time>2026-04-25T09:03:17.751Z</time></trkpt><trkpt lat="45.8784583" lon="9.7345837"><ele>876.75</ele><time>2026-04-25T09:03:18.75Z</time></trkpt><trkpt lat="45.8784214" lon="9.7347554"><ele>876.0</ele><time>2026-04-25T09:03:19.75Z</time></trkpt><trkpt lat="45.878419" lon="9.7349277"><ele>879.1999999999999</ele><time>2026-04-25T09:03:20.751Z</time></trkpt><trkpt lat="45.878439" lon="9.7350783"><ele>882.3999999999999</ele><time>2026-04-25T09:03:21.751Z</time></trkpt><trkpt lat="45.8784687" lon="9.735209"><ele>885.6</ele><time>2026-04-25T09:03:22.751Z</time></trkpt><trkpt lat="45.8785359" lon="9.7353164"><ele>888.8</ele><time>2026-04-25T09:03:23.751Z</time></trkpt><trkpt lat="45.8786415" lon="9.7353859"><ele>892.0</ele><time>2026-04-25T09:03:24.75Z</time></trkpt><trkpt lat="45.8787539" lon="9.7354374"><ele>893.0</ele><time>2026-04-25T09:03:25.75Z</time></trkpt><trkpt lat="45.8788483" lon="9.7354877"><ele>894.0</ele><time>2026-04-25T09:03:26.75Z</time></trkpt><trkpt lat="45.8789395" lon="9.735533"><ele>895.0</ele><time>2026-04-25T09:03:27.75Z</time></trkpt><trkpt lat="45.8790496" lon="9.7355198"><ele>896.0</ele><time>2026-04-25T09:03:28.75Z</time></trkpt><trkpt lat="45.8791905" lon="9.7354539"><ele>899.25</ele><time>2026-04-25T09:03:29.75Z</time></trkpt><trkpt lat="45.8793378" lon="9.7353983"><ele>902.5</ele><time>2026-04-25T09:03:30.751Z</time></trkpt><trkpt lat="45.8794844" lon="9.7353428"><ele>905.75</ele><time>2026-04-25T09:03:31.751Z</time></trkpt><trkpt lat="45.8796203" lon="9.7352773"><ele>909.0</ele><time>2026-04-25T09:03:32.75Z</time></trkpt><trkpt lat="45.8797414" lon="9.7351754"><ele>909.0</ele><time>2026-04-25T09:03:33.75Z</time></trkpt><trkpt lat="45.8798444" lon="9.7350367"><ele>909.0</ele><time>2026-04-25T09:03:34.751Z</time></trkpt><trkpt lat="45.8799315" lon="9.734893"><ele>909.0</ele><time>2026-04-25T09:03:35.751Z</time></trkpt><trkpt lat="45.8799875" lon="9.7347376"><ele>909.0</ele><time>2026-04-25T09:03:36.75Z</time></trkpt><trkpt lat="45.8799988" lon="9.7345613"><ele>907.5</ele><time>2026-04-25T09:03:37.751Z</time></trkpt><trkpt lat="45.8799698" lon="9.7343831"><ele>906.0</ele><time>2026-04-25T09:03:38.751Z</time></trkpt><trkpt lat="45.8799436" lon="9.7342025"><ele>904.5</ele><time>2026-04-25T09:03:39.751Z</time></trkpt><trkpt lat="45.8799366" lon="9.7340235"><ele>903.0</ele><time>2026-04-25T09:03:40.751Z</time></trkpt><trkpt lat="45.8799694" lon="9.7338675"><ele>903.0</ele><time>2026-04-25T09:03:41.75Z</time></trkpt><trkpt lat="45.8800371" lon="9.7337377"><ele>903.0</ele><time>2026-04-25T09:03:42.751Z</time></trkpt><trkpt lat="45.8801395" lon="9.7336518"><ele>903.0</ele><time>2026-04-25T09:03:43.75Z</time></trkpt><trkpt lat="45.8802613" lon="9.733572"><ele>903.0</ele><time>2026-04-25T09:03:44.75Z</time></trkpt><trkpt lat="45.8803662" lon="9.7334756"><ele>910.0</ele><time>2026-04-25T09:03:45.75Z</time></trkpt><trkpt lat="45.8804515" lon="9.7333407"><ele>917.0</ele><time>2026-04-25T09:03:46.751Z</time></trkpt><trkpt lat="45.880512" lon="9.7331512"><ele>924.0</ele><time>2026-04-25T09:03:47.75Z</time></trkpt><trkpt lat="45.8805651" lon="9.7329455"><ele>931.0</ele><time>2026-04-25T09:03:48.75Z</time></trkpt><trkpt lat="45.880621" lon="9.7327571"><ele>928.5</ele><time>2026-04-25T09:03:49.751Z</time></trkpt><trkpt lat="45.8806519" lon="9.732559"><ele>926.0</ele><time>2026-04-25T09:03:50.75Z</time></trkpt><trkpt lat="45.8806544" lon="9.7323526"><ele>923.5</ele><time>2026-04-25T09:03:51.75Z</time></trkpt><trkpt lat="45.8806496" lon="9.7321592"><ele>921.0</ele><time>2026-04-25T09:03:52.751Z</time></trkpt><trkpt lat="45.8806469" lon="9.7319864"><ele>921.1999999999999</ele><time>2026-04-25T09:03:53.75Z</time></trkpt><trkpt lat="45.8806598" lon="9.7318324"><ele>921.3999999999999</ele><time>2026-04-25T09:03:54.751Z</time></trkpt><trkpt lat="45.8806963" lon="9.7316989"><ele>921.6</ele><time>2026-04-25T09:03:55.75Z</time></trkpt><trkpt lat="45.8807529" lon="9.7315771"><ele>921.8</ele><time>2026-04-25T09:03:56.751Z</time></trkpt><trkpt lat="45.8808099" lon="9.731459"><ele>922.0</ele><time>2026-04-25T09:03:57.751Z</time></trkpt><trkpt lat="45.8808677" lon="9.7313403"><ele>921.9999999999999</ele><time>2026-04-25T09:03:58.751Z</time></trkpt><trkpt lat="45.8809276" lon="9.7312209"><ele>922.0</ele><time>2026-04-25T09:03:59.75Z</time></trkpt><trkpt lat="45.8809764" lon="9.7311181"><ele>922.0</ele><time>2026-04-25T09:04:00.75Z</time></trkpt><trkpt lat="45.8810243" lon="9.7310293"><ele>922.0</ele><time>2026-04-25T09:04:01.751Z</time></trkpt><trkpt lat="45.8810756" lon="9.7309608"><ele>921.9999999999999</ele><time>2026-04-25T09:04:02.75Z</time></trkpt><trkpt lat="45.8811359" lon="9.7308923"><ele>922.0</ele><time>2026-04-25T09:04:03.751Z</time></trkpt><trkpt lat="45.8812016" lon="9.7308199"><ele>924.3333333333333</ele><time>2026-04-25T09:04:04.751Z</time></trkpt><trkpt lat="45.8812658" lon="9.7307479"><ele>926.6666666666666</ele><time>2026-04-25T09:04:05.75Z</time></trkpt><trkpt lat="45.8813262" lon="9.7306777"><ele>929.0</ele><time>2026-04-25T09:04:06.751Z</time></trkpt><trkpt lat="45.8813895" lon="9.7305978"><ele>931.3333333333333</ele><time>2026-04-25T09:04:07.75Z</time></trkpt><trkpt lat="45.8814529" lon="9.7305166"><ele>933.6666666666666</ele><time>2026-04-25T09:04:08.751Z</time></trkpt><trkpt lat="45.8815057" lon="9.7304435"><ele>936.0</ele><time>2026-04-25T09:04:09.75Z</time></trkpt><trkpt lat="45.881587" lon="9.7303318"><ele>936.0</ele><time>2026-04-25T09:04:11.751Z</time></trkpt><trkpt lat="45.8816694" lon="9.7302925"><ele>936.0</ele><time>2026-04-25T09:04:13.75Z</time></trkpt><trkpt lat="45.8817222" lon="9.7304065"><ele>936.0</ele><time>2026-04-25T09:04:15.751Z</time></trkpt><trkpt lat="45.8816879" lon="9.7304865"><ele>936.0</ele><time>2026-04-25T09:04:16.75Z</time></trkpt><trkpt lat="45.8816274" lon="9.7305454"><ele>936.0</ele><time>2026-04-25T09:04:17.75Z</time></trkpt><trkpt lat="45.8815497" lon="9.7305968"><ele>936.0</ele><time>2026-04-25T09:04:18.751Z</time></trkpt><trkpt lat="45.8814751" lon="9.7306846"><ele>936.0</ele><time>2026-04-25T09:04:19.75Z</time></trkpt><trkpt lat="45.8814061" lon="9.7307731"><ele>936.0</ele><time>2026-04-25T09:04:20.75Z</time></trkpt><trkpt lat="45.8813454" lon="9.7308515"><ele>936.0</ele><time>2026-04-25T09:04:21.75Z</time></trkpt><trkpt lat="45.8812884" lon="9.7309288"><ele>936.0</ele><time>2026-04-25T09:04:22.751Z</time></trkpt><trkpt lat="45.881237" lon="9.7310051"><ele>936.0</ele><time>2026-04-25T09:04:23.75Z</time></trkpt><trkpt lat="45.8811623" lon="9.7311437"><ele>936.0</ele><time>2026-04-25T09:04:25.751Z</time></trkpt><trkpt lat="45.8811159" lon="9.7312852"><ele>939.25</ele><time>2026-04-25T09:04:27.751Z</time></trkpt><trkpt lat="45.8811273" lon="9.7314953"><ele>942.5</ele><time>2026-04-25T09:04:29.751Z</time></trkpt><trkpt lat="45.8811597" lon="9.7316677"><ele>945.75</ele><time>2026-04-25T09:04:30.751Z</time></trkpt><trkpt lat="45.8811924" lon="9.7318627"><ele>949.0</ele><time>2026-04-25T09:04:31.75Z</time></trkpt><trkpt lat="45.8812078" lon="9.7320848"><ele>952.0</ele><time>2026-04-25T09:04:32.75Z</time></trkpt><trkpt lat="45.8811855" lon="9.7323426"><ele>955.0</ele><time>2026-04-25T09:04:33.751Z</time></trkpt><trkpt lat="45.8811556" lon="9.7326528"><ele>958.0</ele><time>2026-04-25T09:04:34.75Z</time></trkpt><trkpt lat="45.8811303" lon="9.7330086"><ele>966.5</ele><time>2026-04-25T09:04:35.75Z</time></trkpt><trkpt lat="45.8811113" lon="9.7333518"><ele>975.0</ele><time>2026-04-25T09:04:36.751Z</time></trkpt><trkpt lat="45.8810836" lon="9.7337331"><ele>980.0</ele><time>2026-04-25T09:04:37.751Z</time></trkpt><trkpt lat="45.8810499" lon="9.7341274"><ele>985.0</ele><time>2026-04-25T09:04:38.751Z</time></trkpt><trkpt lat="45.8810223" lon="9.7344785"><ele>988.0</ele><time>2026-04-25T09:04:39.751Z</time></trkpt><trkpt lat="45.8809921" lon="9.7348249"><ele>991.0</ele><time>2026-04-25T09:04:40.751Z</time></trkpt><trkpt lat="45.8809454" lon="9.7351395"><ele>984.3333333333333</ele><time>2026-04-25T09:04:41.75Z</time></trkpt><trkpt lat="45.880889" lon="9.7354082"><ele>977.6666666666667</ele><time>2026-04-25T09:04:42.75Z</time></trkpt><trkpt lat="45.8808255" lon="9.7356213"><ele>971.0</ele><time>2026-04-25T09:04:43.751Z</time></trkpt><trkpt lat="45.8807385" lon="9.7357957"><ele>971.0</ele><time>2026-04-25T09:04:44.75Z</time></trkpt><trkpt lat="45.8806361" lon="9.7359208"><ele>971.0</ele><time>2026-04-25T09:04:45.751Z</time></trkpt><trkpt lat="45.8805343" lon="9.7360282"><ele>971.0</ele><time>2026-04-25T09:04:46.751Z</time></trkpt><trkpt lat="45.8804491" lon="9.7361676"><ele>971.0</ele><time>2026-04-25T09:04:47.751Z</time></trkpt><trkpt lat="45.8803966" lon="9.7363272"><ele>974.5</ele><time>2026-04-25T09:04:48.751Z</time></trkpt><trkpt lat="45.880374" lon="9.7364956"><ele>978.0</ele><time>2026-04-25T09:04:49.751Z</time></trkpt><trkpt lat="45.8804005" lon="9.7366915"><ele>981.5</ele><time>2026-04-25T09:04:50.75Z</time></trkpt><trkpt lat="45.8804574" lon="9.7368826"><ele>985.0</ele><time>2026-04-25T09:04:51.75Z</time></trkpt><trkpt lat="45.8804963" lon="9.7370666"><ele>985.0</ele><time>2026-04-25T09:04:52.75Z</time></trkpt><trkpt lat="45.8805151" lon="9.7372362"><ele>985.0</ele><time>2026-04-25T09:04:53.75Z</time></trkpt><trkpt lat="45.8805691" lon="9.7373776"><ele>985.0</ele><time>2026-04-25T09:04:54.75Z</time></trkpt><trkpt lat="45.8806621" lon="9.7375209"><ele>985.0</ele><time>2026-04-25T09:04:55.75Z</time></trkpt><trkpt lat="45.8807886" lon="9.7376695"><ele>987.0</ele><time>2026-04-25T09:04:56.75Z</time></trkpt><trkpt lat="45.8809284" lon="9.7378355"><ele>989.0</ele><time>2026-04-25T09:04:57.75Z</time></trkpt><trkpt lat="45.8810895" lon="9.7379869"><ele>991.0</ele><time>2026-04-25T09:04:58.75Z</time></trkpt><trkpt lat="45.8812823" lon="9.7381214"><ele>991.0</ele><time>2026-04-25T09:04:59.751Z</time></trkpt><trkpt lat="45.8814841" lon="9.7382425"><ele>991.0</ele><time>2026-04-25T09:05:00.75Z</time></trkpt><trkpt lat="45.8816795" lon="9.7383476"><ele>991.0</ele><time>2026-04-25T09:05:01.751Z</time></trkpt><trkpt lat="45.8818714" lon="9.7384427"><ele>990.6666666666666</ele><time>2026-04-25T09:05:02.75Z</time></trkpt><trkpt lat="45.8820584" lon="9.7385271"><ele>990.3333333333333</ele><time>2026-04-25T09:05:03.75Z</time></trkpt><trkpt lat="45.8822397" lon="9.7386074"><ele>990.0</ele><time>2026-04-25T09:05:04.75Z</time></trkpt><trkpt lat="45.882415" lon="9.7386951"><ele>990.0</ele><time>2026-04-25T09:05:05.751Z</time></trkpt><trkpt lat="45.8825866" lon="9.7388011"><ele>990.0</ele><time>2026-04-25T09:05:06.751Z</time></trkpt><trkpt lat="45.8827475" lon="9.7389281"><ele>990.0</ele><time>2026-04-25T09:05:07.751Z</time></trkpt><trkpt lat="45.8828977" lon="9.7390598"><ele>992.6666666666667</ele><time>2026-04-25T09:05:08.75Z</time></trkpt><trkpt lat="45.8830333" lon="9.7391827"><ele>995.3333333333334</ele><time>2026-04-25T09:05:09.751Z</time></trkpt><trkpt lat="45.8831584" lon="9.7393145"><ele>998.0</ele><time>2026-04-25T09:05:10.751Z</time></trkpt><trkpt lat="45.8832624" lon="9.7394737"><ele>998.0</ele><time>2026-04-25T09:05:11.751Z</time></trkpt><trkpt lat="45.8833439" lon="9.7396585"><ele>998.0</ele><time>2026-04-25T09:05:12.75Z</time></trkpt><trkpt lat="45.8834141" lon="9.7398532"><ele>998.0</ele><time>2026-04-25T09:05:13.751Z</time></trkpt><trkpt lat="45.8834685" lon="9.7400172"><ele>998.0</ele><time>2026-04-25T09:05:14.751Z</time></trkpt><trkpt lat="45.8835161" lon="9.7401626"><ele>1001.2</ele><time>2026-04-25T09:05:15.75Z</time></trkpt><trkpt lat="45.8835581" lon="9.7402931"><ele>1004.4</ele><time>2026-04-25T09:05:16.751Z</time></trkpt><trkpt lat="45.8836003" lon="9.7404122"><ele>1007.6000000000001</ele><time>2026-04-25T09:05:17.75Z</time></trkpt><trkpt lat="45.8836458" lon="9.7405311"><ele>1010.8000000000001</ele><time>2026-04-25T09:05:18.75Z</time></trkpt><trkpt lat="45.8836953" lon="9.74065"><ele>1014.0</ele><time>2026-04-25T09:05:19.751Z</time></trkpt><trkpt lat="45.8837607" lon="9.7407642"><ele>1014.0</ele><time>2026-04-25T09:05:20.751Z</time></trkpt><trkpt lat="45.8838354" lon="9.7408674"><ele>1014.0000000000001</ele><time>2026-04-25T09:05:21.75Z</time></trkpt><trkpt lat="45.8839205" lon="9.740964"><ele>1014.0000000000001</ele><time>2026-04-25T09:05:22.751Z</time></trkpt><trkpt lat="45.8840083" lon="9.7410611"><ele>1014.0</ele><time>2026-04-25T09:05:23.75Z</time></trkpt><trkpt lat="45.8841017" lon="9.7411599"><ele>1014.0</ele><time>2026-04-25T09:05:24.751Z</time></trkpt><trkpt lat="45.8841968" lon="9.7412649"><ele>1015.5</ele><time>2026-04-25T09:05:25.75Z</time></trkpt><trkpt lat="45.8842937" lon="9.7413724"><ele>1017.0</ele><time>2026-04-25T09:05:26.751Z</time></trkpt><trkpt lat="45.8843899" lon="9.7414847"><ele>1018.5</ele><time>2026-04-25T09:05:27.75Z</time></trkpt><trkpt lat="45.8844708" lon="9.7416122"><ele>1020.0</ele><time>2026-04-25T09:05:28.751Z</time></trkpt><trkpt lat="45.8845155" lon="9.7417688"><ele>1019.5</ele><time>2026-04-25T09:05:29.751Z</time></trkpt><trkpt lat="45.8845336" lon="9.7419262"><ele>1019.0</ele><time>2026-04-25T09:05:30.75Z</time></trkpt><trkpt lat="45.884511" lon="9.7420816"><ele>1018.5</ele><time>2026-04-25T09:05:31.75Z</time></trkpt><trkpt lat="45.8844486" lon="9.742226"><ele>1018.0</ele><time>2026-04-25T09:05:32.751Z</time></trkpt><trkpt lat="45.8843685" lon="9.7423657"><ele>1018.0</ele><time>2026-04-25T09:05:33.751Z</time></trkpt><trkpt lat="45.8842864" lon="9.7425124"><ele>1018.0</ele><time>2026-04-25T09:05:34.751Z</time></trkpt><trkpt lat="45.8842006" lon="9.7426601"><ele>1018.0</ele><time>2026-04-25T09:05:35.75Z</time></trkpt><trkpt lat="45.8841327" lon="9.7428115"><ele>1018.0</ele><time>2026-04-25T09:05:36.75Z</time></trkpt><trkpt lat="45.884082" lon="9.7429805"><ele>1019.25</ele><time>2026-04-25T09:05:37.751Z</time></trkpt><trkpt lat="45.8840527" lon="9.7431619"><ele>1020.5</ele><time>2026-04-25T09:05:38.75Z</time></trkpt><trkpt lat="45.8840449" lon="9.743346"><ele>1021.75</ele><time>2026-04-25T09:05:39.75Z</time></trkpt><trkpt lat="45.8840575" lon="9.743528"><ele>1023.0</ele><time>2026-04-25T09:05:40.75Z</time></trkpt><trkpt lat="45.8840776" lon="9.7437148"><ele>1024.5</ele><time>2026-04-25T09:05:41.751Z</time></trkpt><trkpt lat="45.8840997" lon="9.7439071"><ele>1026.0</ele><time>2026-04-25T09:05:42.75Z</time></trkpt><trkpt lat="45.8841229" lon="9.7441051"><ele>1027.5</ele><time>2026-04-25T09:05:43.751Z</time></trkpt><trkpt lat="45.8841486" lon="9.7443048"><ele>1029.0</ele><time>2026-04-25T09:05:44.751Z</time></trkpt><trkpt lat="45.8841753" lon="9.7445058"><ele>1029.75</ele><time>2026-04-25T09:05:45.751Z</time></trkpt><trkpt lat="45.8841998" lon="9.7447103"><ele>1030.5</ele><time>2026-04-25T09:05:46.75Z</time></trkpt><trkpt lat="45.8842231" lon="9.7449182"><ele>1031.25</ele><time>2026-04-25T09:05:47.751Z</time></trkpt><trkpt lat="45.8842333" lon="9.7451218"><ele>1032.0</ele><time>2026-04-25T09:05:48.751Z</time></trkpt><trkpt lat="45.884217" lon="9.74532"><ele>1033.0</ele><time>2026-04-25T09:05:49.751Z</time></trkpt><trkpt lat="45.8841795" lon="9.7455155"><ele>1034.0</ele><time>2026-04-25T09:05:50.75Z</time></trkpt><trkpt lat="45.8841365" lon="9.7456968"><ele>1035.0</ele><time>2026-04-25T09:05:51.75Z</time></trkpt><trkpt lat="45.8840899" lon="9.7458636"><ele>1036.0</ele><time>2026-04-25T09:05:52.751Z</time></trkpt><trkpt lat="45.8840206" lon="9.7460016"><ele>1037.25</ele><time>2026-04-25T09:05:53.751Z</time></trkpt><trkpt lat="45.8839205" lon="9.7461149"><ele>1038.5</ele><time>2026-04-25T09:05:54.751Z</time></trkpt><trkpt lat="45.8838105" lon="9.746226"><ele>1039.75</ele><time>2026-04-25T09:05:55.75Z</time></trkpt><trkpt lat="45.8836981" lon="9.7463369"><ele>1041.0</ele><time>2026-04-25T09:05:56.751Z</time></trkpt><trkpt lat="45.8835928" lon="9.7464583"><ele>1041.0</ele><time>2026-04-25T09:05:57.75Z</time></trkpt><trkpt lat="45.8835094" lon="9.7466076"><ele>1041.0</ele><time>2026-04-25T09:05:58.75Z</time></trkpt><trkpt lat="45.8834571" lon="9.7467852"><ele>1041.0</ele><time>2026-04-25T09:05:59.751Z</time></trkpt><trkpt lat="45.8834224" lon="9.7469682"><ele>1041.0</ele><time>2026-04-25T09:06:00.75Z</time></trkpt><trkpt lat="45.8833796" lon="9.7471405"><ele>1039.75</ele><time>2026-04-25T09:06:01.75Z</time></trkpt><trkpt lat="45.8833242" lon="9.7473079"><ele>1038.5</ele><time>2026-04-25T09:06:02.75Z</time></trkpt><trkpt lat="45.8832455" lon="9.7474609"><ele>1037.25</ele><time>2026-04-25T09:06:03.75Z</time></trkpt><trkpt lat="45.8831638" lon="9.7476091"><ele>1036.0</ele><time>2026-04-25T09:06:04.751Z</time></trkpt><trkpt lat="45.8831017" lon="9.7477903"><ele>1032.5</ele><time>2026-04-25T09:06:05.75Z</time></trkpt><trkpt lat="45.8830605" lon="9.7479859"><ele>1029.0</ele><time>2026-04-25T09:06:06.75Z</time></trkpt><trkpt lat="45.8830291" lon="9.7481803"><ele>1025.5</ele><time>2026-04-25T09:06:07.751Z</time></trkpt><trkpt lat="45.8829859" lon="9.7483742"><ele>1022.0</ele><time>2026-04-25T09:06:08.75Z</time></trkpt><trkpt lat="45.8829265" lon="9.7485711"><ele>1020.3333333333334</ele><time>2026-04-25T09:06:09.751Z</time></trkpt><trkpt lat="45.8828491" lon="9.7487705"><ele>1018.6666666666667</ele><time>2026-04-25T09:06:10.75Z</time></trkpt><trkpt lat="45.8827562" lon="9.7489475"><ele>1017.0</ele><time>2026-04-25T09:06:11.751Z</time></trkpt><trkpt lat="45.8826594" lon="9.749104"><ele>1023.5</ele><time>2026-04-25T09:06:12.75Z</time></trkpt><trkpt lat="45.8825768" lon="9.7492473"><ele>1030.0</ele><time>2026-04-25T09:06:13.751Z</time></trkpt><trkpt lat="45.8825133" lon="9.7493844"><ele>1036.5</ele><time>2026-04-25T09:06:14.751Z</time></trkpt><trkpt lat="45.8824978" lon="9.7495404"><ele>1043.0</ele><time>2026-04-25T09:06:15.75Z</time></trkpt><trkpt lat="45.8825274" lon="9.7497006"><ele>1043.0</ele><time>2026-04-25T09:06:16.75Z</time></trkpt><trkpt lat="45.882577" lon="9.7498678"><ele>1043.0</ele><time>2026-04-25T09:06:17.751Z</time></trkpt><trkpt lat="45.8826259" lon="9.7500417"><ele>1043.0</ele><time>2026-04-25T09:06:18.75Z</time></trkpt><trkpt lat="45.8826646" lon="9.7502214"><ele>1043.0</ele><time>2026-04-25T09:06:19.751Z</time></trkpt><trkpt lat="45.8826995" lon="9.7504055"><ele>1041.25</ele><time>2026-04-25T09:06:20.751Z</time></trkpt><trkpt lat="45.8827398" lon="9.7505772"><ele>1039.5</ele><time>2026-04-25T09:06:21.75Z</time></trkpt><trkpt lat="45.8827877" lon="9.7507313"><ele>1037.75</ele><time>2026-04-25T09:06:22.751Z</time></trkpt><trkpt lat="45.8828691" lon="9.7508593"><ele>1036.0</ele><time>2026-04-25T09:06:23.75Z</time></trkpt><trkpt lat="45.8829895" lon="9.7509406"><ele>1036.0</ele><time>2026-04-25T09:06:24.75Z</time></trkpt><trkpt lat="45.8831276" lon="9.7510132"><ele>1036.0</ele><time>2026-04-25T09:06:25.75Z</time></trkpt><trkpt lat="45.8832703" lon="9.7510941"><ele>1036.0</ele><time>2026-04-25T09:06:26.75Z</time></trkpt><trkpt lat="45.8834075" lon="9.7511703"><ele>1036.0</ele><time>2026-04-25T09:06:27.751Z</time></trkpt><trkpt lat="45.8835416" lon="9.7512409"><ele>1035.0</ele><time>2026-04-25T09:06:28.751Z</time></trkpt><trkpt lat="45.8836704" lon="9.7513098"><ele>1034.0</ele><time>2026-04-25T09:06:29.751Z</time></trkpt><trkpt lat="45.8837864" lon="9.7513656"><ele>1033.0</ele><time>2026-04-25T09:06:30.75Z</time></trkpt><trkpt lat="45.883883" lon="9.7514181"><ele>1032.0</ele><time>2026-04-25T09:06:31.751Z</time></trkpt><trkpt lat="45.8839528" lon="9.7514856"><ele>1031.0</ele><time>2026-04-25T09:06:32.751Z</time></trkpt><trkpt lat="45.8839734" lon="9.7515847"><ele>1031.0</ele><time>2026-04-25T09:06:33.751Z</time></trkpt><trkpt lat="45.8839567" lon="9.7516961"><ele>1031.0</ele><time>2026-04-25T09:06:34.75Z</time></trkpt><trkpt lat="45.8839106" lon="9.751816"><ele>1031.0</ele><time>2026-04-25T09:06:35.751Z</time></trkpt><trkpt lat="45.8838671" lon="9.7519646"><ele>1031.0</ele><time>2026-04-25T09:06:36.75Z</time></trkpt><trkpt lat="45.8838171" lon="9.752132"><ele>1031.0</ele><time>2026-04-25T09:06:37.751Z</time></trkpt><trkpt lat="45.883763" lon="9.7523047"><ele>1031.75</ele><time>2026-04-25T09:06:38.75Z</time></trkpt><trkpt lat="45.8837122" lon="9.7524662"><ele>1032.5</ele><time>2026-04-25T09:06:39.751Z</time></trkpt><trkpt lat="45.8836917" lon="9.7526305"><ele>1033.25</ele><time>2026-04-25T09:06:40.75Z</time></trkpt><trkpt lat="45.8837235" lon="9.7527774"><ele>1034.0</ele><time>2026-04-25T09:06:41.75Z</time></trkpt><trkpt lat="45.8837955" lon="9.752889"><ele>1036.25</ele><time>2026-04-25T09:06:42.75Z</time></trkpt><trkpt lat="45.8838966" lon="9.7529983"><ele>1038.5</ele><time>2026-04-25T09:06:43.75Z</time></trkpt><trkpt lat="45.8840099" lon="9.7531233"><ele>1040.75</ele><time>2026-04-25T09:06:44.75Z</time></trkpt><trkpt lat="45.8841254" lon="9.7532616"><ele>1043.0</ele><time>2026-04-25T09:06:45.751Z</time></trkpt><trkpt lat="45.884228" lon="9.7534194"><ele>1040.0</ele><time>2026-04-25T09:06:46.75Z</time></trkpt><trkpt lat="45.8843197" lon="9.7535908"><ele>1037.0</ele><time>2026-04-25T09:06:47.75Z</time></trkpt><trkpt lat="45.8843959" lon="9.753784"><ele>1034.0</ele><time>2026-04-25T09:06:48.751Z</time></trkpt><trkpt lat="45.8844421" lon="9.7539835"><ele>1034.0</ele><time>2026-04-25T09:06:49.751Z</time></trkpt><trkpt lat="45.8844788" lon="9.7541772"><ele>1034.0</ele><time>2026-04-25T09:06:50.75Z</time></trkpt><trkpt lat="45.8845305" lon="9.7543314"><ele>1034.0</ele><time>2026-04-25T09:06:51.751Z</time></trkpt><trkpt lat="45.8846225" lon="9.7544418"><ele>1034.0</ele><time>2026-04-25T09:06:52.751Z</time></trkpt><trkpt lat="45.8847445" lon="9.7545297"><ele>1032.6666666666667</ele><time>2026-04-25T09:06:53.751Z</time></trkpt><trkpt lat="45.8848945" lon="9.7545777"><ele>1031.3333333333333</ele><time>2026-04-25T09:06:54.75Z</time></trkpt><trkpt lat="45.8850468" lon="9.7546731"><ele>1030.0</ele><time>2026-04-25T09:06:55.751Z</time></trkpt><trkpt lat="45.8851856" lon="9.7547717"><ele>1030.0</ele><time>2026-04-25T09:06:56.75Z</time></trkpt><trkpt lat="45.885307" lon="9.7549039"><ele>1030.0</ele><time>2026-04-25T09:06:57.75Z</time></trkpt><trkpt lat="45.8854389" lon="9.7550283"><ele>1030.0</ele><time>2026-04-25T09:06:58.75Z</time></trkpt><trkpt lat="45.8855793" lon="9.7551191"><ele>1030.0</ele><time>2026-04-25T09:06:59.75Z</time></trkpt><trkpt lat="45.8857175" lon="9.7551995"><ele>1030.0</ele><time>2026-04-25T09:07:00.751Z</time></trkpt><trkpt lat="45.8858147" lon="9.7553254"><ele>1030.0</ele><time>2026-04-25T09:07:01.75Z</time></trkpt><trkpt lat="45.8858779" lon="9.7554805"><ele>1030.0</ele><time>2026-04-25T09:07:02.751Z</time></trkpt><trkpt lat="45.8859147" lon="9.7556398"><ele>1032.75</ele><time>2026-04-25T09:07:03.751Z</time></trkpt><trkpt lat="45.88585" lon="9.7558365"><ele>1035.5</ele><time>2026-04-25T09:07:04.751Z</time></trkpt><trkpt lat="45.8858104" lon="9.7560172"><ele>1038.25</ele><time>2026-04-25T09:07:05.75Z</time></trkpt><trkpt lat="45.8857669" lon="9.7561763"><ele>1041.0</ele><time>2026-04-25T09:07:06.75Z</time></trkpt><trkpt lat="45.8857109" lon="9.7563325"><ele>1041.6</ele><time>2026-04-25T09:07:07.75Z</time></trkpt><trkpt lat="45.8856702" lon="9.7564831"><ele>1042.1999999999998</ele><time>2026-04-25T09:07:08.75Z</time></trkpt><trkpt lat="45.885686" lon="9.7566223"><ele>1042.8000000000002</ele><time>2026-04-25T09:07:09.75Z</time></trkpt><trkpt lat="45.8857473" lon="9.7567091"><ele>1043.4</ele><time>2026-04-25T09:07:10.751Z</time></trkpt><trkpt lat="45.8858356" lon="9.7567239"><ele>1044.0</ele><time>2026-04-25T09:07:11.75Z</time></trkpt><trkpt lat="45.8859359" lon="9.7566761"><ele>1044.0</ele><time>2026-04-25T09:07:12.75Z</time></trkpt><trkpt lat="45.8860507" lon="9.7566173"><ele>1044.0</ele><time>2026-04-25T09:07:13.75Z</time></trkpt><trkpt lat="45.8861948" lon="9.7565467"><ele>1044.0</ele><time>2026-04-25T09:07:14.751Z</time></trkpt><trkpt lat="45.8863688" lon="9.7564693"><ele>1044.0</ele><time>2026-04-25T09:07:15.75Z</time></trkpt><trkpt lat="45.8865539" lon="9.7563921"><ele>1044.0</ele><time>2026-04-25T09:07:16.751Z</time></trkpt><trkpt lat="45.8867428" lon="9.7563166"><ele>1044.0</ele><time>2026-04-25T09:07:17.751Z</time></trkpt><trkpt lat="45.8869196" lon="9.7562447"><ele>1041.75</ele><time>2026-04-25T09:07:18.751Z</time></trkpt><trkpt lat="45.8870784" lon="9.7561728"><ele>1039.5</ele><time>2026-04-25T09:07:19.751Z</time></trkpt><trkpt lat="45.8872097" lon="9.7561367"><ele>1037.25</ele><time>2026-04-25T09:07:20.751Z</time></trkpt><trkpt lat="45.8873237" lon="9.7561655"><ele>1035.0</ele><time>2026-04-25T09:07:21.75Z</time></trkpt><trkpt lat="45.887414" lon="9.7562695"><ele>1035.0</ele><time>2026-04-25T09:07:22.75Z</time></trkpt><trkpt lat="45.8874456" lon="9.756402"><ele>1035.0</ele><time>2026-04-25T09:07:23.75Z</time></trkpt><trkpt lat="45.8874351" lon="9.7565508"><ele>1035.0</ele><time>2026-04-25T09:07:24.751Z</time></trkpt><trkpt lat="45.8874193" lon="9.75672"><ele>1035.0</ele><time>2026-04-25T09:07:25.75Z</time></trkpt><trkpt lat="45.8874288" lon="9.7569112"><ele>1036.5</ele><time>2026-04-25T09:07:26.75Z</time></trkpt><trkpt lat="45.8874536" lon="9.75711"><ele>1038.0</ele><time>2026-04-25T09:07:27.751Z</time></trkpt><trkpt lat="45.8874889" lon="9.7573081"><ele>1039.5</ele><time>2026-04-25T09:07:28.75Z</time></trkpt><trkpt lat="45.8875371" lon="9.7574979"><ele>1041.0</ele><time>2026-04-25T09:07:29.75Z</time></trkpt><trkpt lat="45.8875975" lon="9.7576752"><ele>1041.0</ele><time>2026-04-25T09:07:30.75Z</time></trkpt><trkpt lat="45.887678" lon="9.7578249"><ele>1041.0</ele><time>2026-04-25T09:07:31.751Z</time></trkpt><trkpt lat="45.8877779" lon="9.7579456"><ele>1041.0</ele><time>2026-04-25T09:07:32.751Z</time></trkpt><trkpt lat="45.8878891" lon="9.7580444"><ele>1041.0</ele><time>2026-04-25T09:07:33.75Z</time></trkpt><trkpt lat="45.8879979" lon="9.7581301"><ele>1041.0</ele><time>2026-04-25T09:07:34.751Z</time></trkpt><trkpt lat="45.8881003" lon="9.7582048"><ele>1041.0</ele><time>2026-04-25T09:07:35.751Z</time></trkpt><trkpt lat="45.8882017" lon="9.7582531"><ele>1041.0</ele><time>2026-04-25T09:07:36.75Z</time></trkpt><trkpt lat="45.8882956" lon="9.7582774"><ele>1041.0</ele><time>2026-04-25T09:07:37.751Z</time></trkpt><trkpt lat="45.8883812" lon="9.7583071"><ele>1041.0</ele><time>2026-04-25T09:07:38.751Z</time></trkpt><trkpt lat="45.8884459" lon="9.7583678"><ele>1040.6666666666667</ele><time>2026-04-25T09:07:39.751Z</time></trkpt><trkpt lat="45.8884976" lon="9.7584479"><ele>1040.3333333333333</ele><time>2026-04-25T09:07:40.75Z</time></trkpt><trkpt lat="45.8885506" lon="9.7585274"><ele>1040.0</ele><time>2026-04-25T09:07:41.75Z</time></trkpt><trkpt lat="45.8886083" lon="9.758604"><ele>1039.6666666666665</ele><time>2026-04-25T09:07:42.75Z</time></trkpt><trkpt lat="45.888665" lon="9.7586779"><ele>1039.3333333333333</ele><time>2026-04-25T09:07:43.751Z</time></trkpt><trkpt lat="45.8887273" lon="9.7587604"><ele>1039.0</ele><time>2026-04-25T09:07:44.751Z</time></trkpt><trkpt lat="45.8887894" lon="9.7588497"><ele>1039.0</ele><time>2026-04-25T09:07:45.75Z</time></trkpt><trkpt lat="45.8888524" lon="9.7589306"><ele>1039.0</ele><time>2026-04-25T09:07:46.75Z</time></trkpt><trkpt lat="45.8889249" lon="9.7589911"><ele>1039.0</ele><time>2026-04-25T09:07:47.75Z</time></trkpt><trkpt lat="45.8890064" lon="9.7590302"><ele>1039.0</ele><time>2026-04-25T09:07:48.751Z</time></trkpt><trkpt lat="45.8890945" lon="9.7590452"><ele>1039.0</ele><time>2026-04-25T09:07:49.75Z</time></trkpt><trkpt lat="45.8891854" lon="9.7590353"><ele>1039.0</ele><time>2026-04-25T09:07:50.751Z</time></trkpt><trkpt lat="45.8892784" lon="9.7590073"><ele>1033.2</ele><time>2026-04-25T09:07:51.751Z</time></trkpt><trkpt lat="45.8893729" lon="9.7589783"><ele>1027.4</ele><time>2026-04-25T09:07:52.751Z</time></trkpt><trkpt lat="45.8894681" lon="9.758965"><ele>1021.6</ele><time>2026-04-25T09:07:53.751Z</time></trkpt><trkpt lat="45.8895592" lon="9.7589804"><ele>1015.8</ele><time>2026-04-25T09:07:54.751Z</time></trkpt><trkpt lat="45.8896433" lon="9.7590422"><ele>1010.0</ele><time>2026-04-25T09:07:55.751Z</time></trkpt><trkpt lat="45.8897018" lon="9.7591502"><ele>1010.0000000000001</ele><time>2026-04-25T09:07:56.75Z</time></trkpt><trkpt lat="45.8897222" lon="9.7592777"><ele>1010.0</ele><time>2026-04-25T09:07:57.751Z</time></trkpt><trkpt lat="45.8897075" lon="9.759405"><ele>1010.0</ele><time>2026-04-25T09:07:58.751Z</time></trkpt><trkpt lat="45.8896609" lon="9.759516"><ele>1010.0</ele><time>2026-04-25T09:07:59.75Z</time></trkpt><trkpt lat="45.8896086" lon="9.7596126"><ele>1010.0000000000001</ele><time>2026-04-25T09:08:00.75Z</time></trkpt><trkpt lat="45.889556" lon="9.7597071"><ele>1010.0</ele><time>2026-04-25T09:08:01.75Z</time></trkpt><trkpt lat="45.8895164" lon="9.7598191"><ele>1010.5000000000001</ele><time>2026-04-25T09:08:02.75Z</time></trkpt><trkpt lat="45.8894882" lon="9.7599403"><ele>1011.0</ele><time>2026-04-25T09:08:03.751Z</time></trkpt><trkpt lat="45.8894658" lon="9.7600656"><ele>1011.5</ele><time>2026-04-25T09:08:04.751Z</time></trkpt><trkpt lat="45.8894465" lon="9.7601926"><ele>1012.0</ele><time>2026-04-25T09:08:05.75Z</time></trkpt><trkpt lat="45.8894275" lon="9.7603165"><ele>1012.5000000000001</ele><time>2026-04-25T09:08:06.75Z</time></trkpt><trkpt lat="45.8894171" lon="9.7604423"><ele>1013.0</ele><time>2026-04-25T09:08:07.75Z</time></trkpt><trkpt lat="45.889432" lon="9.7605614"><ele>1014.5</ele><time>2026-04-25T09:08:08.751Z</time></trkpt><trkpt lat="45.8894772" lon="9.7606748"><ele>1016.0</ele><time>2026-04-25T09:08:09.75Z</time></trkpt><trkpt lat="45.8895686" lon="9.7608076"><ele>1017.5</ele><time>2026-04-25T09:08:10.75Z</time></trkpt><trkpt lat="45.8897157" lon="9.760966"><ele>1019.0</ele><time>2026-04-25T09:08:11.751Z</time></trkpt><trkpt lat="45.88988" lon="9.7611367"><ele>1016.6666666666667</ele><time>2026-04-25T09:08:12.751Z</time></trkpt><trkpt lat="45.8900363" lon="9.7612984"><ele>1014.3333333333333</ele><time>2026-04-25T09:08:13.751Z</time></trkpt><trkpt lat="45.8901734" lon="9.7614566"><ele>1012.0</ele><time>2026-04-25T09:08:14.75Z</time></trkpt><trkpt lat="45.8902921" lon="9.7616124"><ele>1012.0</ele><time>2026-04-25T09:08:15.751Z</time></trkpt><trkpt lat="45.8903976" lon="9.7617624"><ele>1012.0</ele><time>2026-04-25T09:08:16.75Z</time></trkpt><trkpt lat="45.8904926" lon="9.7619104"><ele>1012.0</ele><time>2026-04-25T09:08:17.75Z</time></trkpt><trkpt lat="45.8905677" lon="9.7620642"><ele>1012.0</ele><time>2026-04-25T09:08:18.751Z</time></trkpt><trkpt lat="45.8906291" lon="9.7622182"><ele>1015.75</ele><time>2026-04-25T09:08:19.751Z</time></trkpt><trkpt lat="45.8906955" lon="9.7623698"><ele>1019.5</ele><time>2026-04-25T09:08:20.75Z</time></trkpt><trkpt lat="45.8907553" lon="9.7625264"><ele>1023.25</ele><time>2026-04-25T09:08:21.751Z</time></trkpt><trkpt lat="45.8907994" lon="9.7626925"><ele>1027.0</ele><time>2026-04-25T09:08:22.751Z</time></trkpt><trkpt lat="45.8908338" lon="9.762854"><ele>1029.0</ele><time>2026-04-25T09:08:23.75Z</time></trkpt><trkpt lat="45.8908761" lon="9.7630039"><ele>1031.0</ele><time>2026-04-25T09:08:24.751Z</time></trkpt><trkpt lat="45.8909311" lon="9.7631327"><ele>1033.0</ele><time>2026-04-25T09:08:25.751Z</time></trkpt><trkpt lat="45.8909897" lon="9.7632511"><ele>1035.0</ele><time>2026-04-25T09:08:26.75Z</time></trkpt><trkpt lat="45.8910457" lon="9.7633712"><ele>1037.0</ele><time>2026-04-25T09:08:27.75Z</time></trkpt><trkpt lat="45.8910937" lon="9.7634935"><ele>1029.0</ele><time>2026-04-25T09:08:28.75Z</time></trkpt><trkpt lat="45.8911342" lon="9.7636208"><ele>1021.0</ele><time>2026-04-25T09:08:29.751Z</time></trkpt><trkpt lat="45.8911663" lon="9.7637482"><ele>1013.0</ele><time>2026-04-25T09:08:30.751Z</time></trkpt><trkpt lat="45.8911887" lon="9.7638664"><ele>1005.0</ele><time>2026-04-25T09:08:31.751Z</time></trkpt><trkpt lat="45.8912052" lon="9.7639868"><ele>997.0</ele><time>2026-04-25T09:08:32.751Z</time></trkpt><trkpt lat="45.8912203" lon="9.7641125"><ele>997.0</ele><time>2026-04-25T09:08:33.75Z</time></trkpt><trkpt lat="45.8912344" lon="9.7642487"><ele>997.0</ele><time>2026-04-25T09:08:34.75Z</time></trkpt><trkpt lat="45.8912532" lon="9.7644155"><ele>997.0</ele><time>2026-04-25T09:08:35.751Z</time></trkpt><trkpt lat="45.8912654" lon="9.764597"><ele>997.0</ele><time>2026-04-25T09:08:36.75Z</time></trkpt><trkpt lat="45.8912727" lon="9.7647677"><ele>998.4000000000001</ele><time>2026-04-25T09:08:37.75Z</time></trkpt><trkpt lat="45.8912813" lon="9.7649277"><ele>999.8000000000001</ele><time>2026-04-25T09:08:38.751Z</time></trkpt><trkpt lat="45.8912938" lon="9.7650767"><ele>1001.2</ele><time>2026-04-25T09:08:39.751Z</time></trkpt><trkpt lat="45.891305" lon="9.765215"><ele>1002.6</ele><time>2026-04-25T09:08:40.751Z</time></trkpt><trkpt lat="45.8913153" lon="9.7653542"><ele>1004.0</ele><time>2026-04-25T09:08:41.75Z</time></trkpt><trkpt lat="45.8913237" lon="9.7654958"><ele>1005.4000000000001</ele><time>2026-04-25T09:08:42.75Z</time></trkpt><trkpt lat="45.8913265" lon="9.7656365"><ele>1006.8000000000001</ele><time>2026-04-25T09:08:43.75Z</time></trkpt><trkpt lat="45.8913112" lon="9.7657708"><ele>1008.1999999999999</ele><time>2026-04-25T09:08:44.75Z</time></trkpt><trkpt lat="45.8912771" lon="9.7658972"><ele>1009.5999999999999</ele><time>2026-04-25T09:08:45.75Z</time></trkpt><trkpt lat="45.8912257" lon="9.7660078"><ele>1011.0</ele><time>2026-04-25T09:08:46.75Z</time></trkpt><trkpt lat="45.89117" lon="9.7661077"><ele>1011.6666666666666</ele><time>2026-04-25T09:08:47.75Z</time></trkpt><trkpt lat="45.8911154" lon="9.7662039"><ele>1012.3333333333333</ele><time>2026-04-25T09:08:48.751Z</time></trkpt><trkpt lat="45.8910601" lon="9.7662939"><ele>1013.0</ele><time>2026-04-25T09:08:49.75Z</time></trkpt><trkpt lat="45.8910118" lon="9.7663824"><ele>1013.6666666666666</ele><time>2026-04-25T09:08:50.751Z</time></trkpt><trkpt lat="45.8909807" lon="9.7664812"><ele>1014.3333333333333</ele><time>2026-04-25T09:08:51.751Z</time></trkpt><trkpt lat="45.8909765" lon="9.7665799"><ele>1015.0</ele><time>2026-04-25T09:08:52.751Z</time></trkpt><trkpt lat="45.8909981" lon="9.7666693"><ele>1014.9999999999999</ele><time>2026-04-25T09:08:53.751Z</time></trkpt><trkpt lat="45.8910453" lon="9.7667485"><ele>1015.0</ele><time>2026-04-25T09:08:54.75Z</time></trkpt><trkpt lat="45.8911137" lon="9.7668152"><ele>1015.0</ele><time>2026-04-25T09:08:55.751Z</time></trkpt><trkpt lat="45.8911911" lon="9.7668689"><ele>1015.0</ele><time>2026-04-25T09:08:56.75Z</time></trkpt><trkpt lat="45.8912759" lon="9.7669185"><ele>1014.9999999999999</ele><time>2026-04-25T09:08:57.75Z</time></trkpt><trkpt lat="45.8913563" lon="9.7669635"><ele>1015.0</ele><time>2026-04-25T09:08:58.751Z</time></trkpt><trkpt lat="45.8914283" lon="9.7670068"><ele>1015.0</ele><time>2026-04-25T09:08:59.751Z</time></trkpt><trkpt lat="45.8914943" lon="9.7670485"><ele>1015.0</ele><time>2026-04-25T09:09:00.751Z</time></trkpt><trkpt lat="45.8915524" lon="9.7671021"><ele>1015.0</ele><time>2026-04-25T09:09:01.75Z</time></trkpt><trkpt lat="45.891609" lon="9.7672472"><ele>1015.0</ele><time>2026-04-25T09:09:03.75Z</time></trkpt><trkpt lat="45.8915503" lon="9.7673834"><ele>1015.0</ele><time>2026-04-25T09:09:05.75Z</time></trkpt><trkpt lat="45.8914463" lon="9.7674586"><ele>1014.9999999999999</ele><time>2026-04-25T09:09:07.751Z</time></trkpt><trkpt lat="45.891386" lon="9.7674943"><ele>1015.0</ele><time>2026-04-25T09:09:08.751Z</time></trkpt><trkpt lat="45.8913195" lon="9.7675312"><ele>1015.0</ele><time>2026-04-25T09:09:09.75Z</time></trkpt><trkpt lat="45.8912513" lon="9.7675756"><ele>1015.0</ele><time>2026-04-25T09:09:10.75Z</time></trkpt><trkpt lat="45.8911897" lon="9.7676274"><ele>1014.9999999999999</ele><time>2026-04-25T09:09:11.75Z</time></trkpt><trkpt lat="45.8911022" lon="9.7677034"><ele>1015.0</ele><time>2026-04-25T09:09:13.751Z</time></trkpt><trkpt lat="45.8910508" lon="9.7677737"><ele>1014.6</ele><time>2026-04-25T09:09:15.75Z</time></trkpt><trkpt lat="45.8910088" lon="9.7678677"><ele>1014.2</ele><time>2026-04-25T09:09:17.75Z</time></trkpt><trkpt lat="45.8910044" lon="9.7680157"><ele>1013.8</ele><time>2026-04-25T09:09:19.751Z</time></trkpt><trkpt lat="45.8910624" lon="9.7681677"><ele>1013.4</ele><time>2026-04-25T09:09:21.751Z</time></trkpt><trkpt lat="45.8911366" lon="9.7682821"><ele>1013.0</ele><time>2026-04-25T09:09:23.751Z</time></trkpt><trkpt lat="45.8911903" lon="9.7683789"><ele>1013.0</ele><time>2026-04-25T09:09:25.75Z</time></trkpt><trkpt lat="45.8912169" lon="9.7685242"><ele>1013.0</ele><time>2026-04-25T09:09:27.751Z</time></trkpt><trkpt lat="45.8911877" lon="9.7686903"><ele>1013.0</ele><time>2026-04-25T09:09:29.751Z</time></trkpt><trkpt lat="45.891125" lon="9.7688275"><ele>1013.0</ele><time>2026-04-25T09:09:31.75Z</time></trkpt><trkpt lat="45.8910319" lon="9.7689066"><ele>1013.0</ele><time>2026-04-25T09:09:33.75Z</time></trkpt><trkpt lat="45.8909187" lon="9.7689499"><ele>1014.5999999999999</ele><time>2026-04-25T09:09:35.75Z</time></trkpt><trkpt lat="45.8908232" lon="9.7689577"><ele>1016.1999999999999</ele><time>2026-04-25T09:09:37.75Z</time></trkpt><trkpt lat="45.890733" lon="9.7689764"><ele>1017.8</ele><time>2026-04-25T09:09:39.751Z</time></trkpt><trkpt lat="45.8906587" lon="9.7689872"><ele>1019.4</ele><time>2026-04-25T09:09:41.751Z</time></trkpt><trkpt lat="45.890568" lon="9.7690272"><ele>1021.0</ele><time>2026-04-25T09:09:43.751Z</time></trkpt><trkpt lat="45.8905014" lon="9.7691293"><ele>1020.9999999999999</ele><time>2026-04-25T09:09:45.75Z</time></trkpt><trkpt lat="45.8904837" lon="9.7692735"><ele>1021.0</ele><time>2026-04-25T09:09:47.75Z</time></trkpt><trkpt lat="45.8905279" lon="9.7694385"><ele>1021.0</ele><time>2026-04-25T09:09:49.75Z</time></trkpt><trkpt lat="45.8905599" lon="9.7695213"><ele>1021.0</ele><time>2026-04-25T09:09:50.751Z</time></trkpt><trkpt lat="45.8905892" lon="9.7696102"><ele>1020.9999999999999</ele><time>2026-04-25T09:09:51.75Z</time></trkpt><trkpt lat="45.8906192" lon="9.7696952"><ele>1021.0</ele><time>2026-04-25T09:09:52.751Z</time></trkpt><trkpt lat="45.8906504" lon="9.7697752"><ele>1020.8571428571429</ele><time>2026-04-25T09:09:53.75Z</time></trkpt><trkpt lat="45.8906893" lon="9.7698592"><ele>1020.7142857142858</ele><time>2026-04-25T09:09:54.751Z</time></trkpt><trkpt lat="45.8907306" lon="9.7699332"><ele>1020.5714285714287</ele><time>2026-04-25T09:09:55.75Z</time></trkpt><trkpt lat="45.8907722" lon="9.770006"><ele>1020.4285714285714</ele><time>2026-04-25T09:09:56.75Z</time></trkpt><trkpt lat="45.8908354" lon="9.7701387"><ele>1020.2857142857144</ele><time>2026-04-25T09:09:58.75Z</time></trkpt><trkpt lat="45.8908421" lon="9.7702323"><ele>1020.1428571428572</ele><time>2026-04-25T09:09:59.75Z</time></trkpt><trkpt lat="45.8908321" lon="9.7703305"><ele>1020.0</ele><time>2026-04-25T09:10:00.751Z</time></trkpt><trkpt lat="45.8908032" lon="9.7704171"><ele>1018.6666666666666</ele><time>2026-04-25T09:10:01.75Z</time></trkpt><trkpt lat="45.8907567" lon="9.7704815"><ele>1017.3333333333333</ele><time>2026-04-25T09:10:02.751Z</time></trkpt><trkpt lat="45.8906914" lon="9.7705257"><ele>1016.0</ele><time>2026-04-25T09:10:03.75Z</time></trkpt><trkpt lat="45.8906076" lon="9.7705646"><ele>1014.6666666666666</ele><time>2026-04-25T09:10:04.75Z</time></trkpt><trkpt lat="45.890526" lon="9.7706016"><ele>1013.3333333333333</ele><time>2026-04-25T09:10:05.751Z</time></trkpt><trkpt lat="45.8904511" lon="9.7706368"><ele>1012.0</ele><time>2026-04-25T09:10:06.751Z</time></trkpt><trkpt lat="45.8903828" lon="9.7706678"><ele>1012.0</ele><time>2026-04-25T09:10:07.751Z</time></trkpt><trkpt lat="45.8902661" lon="9.7707166"><ele>1012.0</ele><time>2026-04-25T09:10:09.751Z</time></trkpt><trkpt lat="45.8901576" lon="9.77077"><ele>1012.0</ele><time>2026-04-25T09:10:11.75Z</time></trkpt><trkpt lat="45.890061" lon="9.7708274"><ele>1012.0</ele><time>2026-04-25T09:10:13.75Z</time></trkpt><trkpt lat="45.8899868" lon="9.7709702"><ele>1014.6</ele><time>2026-04-25T09:10:15.75Z</time></trkpt><trkpt lat="45.8899568" lon="9.7710819"><ele>1017.2</ele><time>2026-04-25T09:10:16.75Z</time></trkpt><trkpt lat="45.8899388" lon="9.7712055"><ele>1019.8</ele><time>2026-04-25T09:10:17.751Z</time></trkpt><trkpt lat="45.8899186" lon="9.7713491"><ele>1022.4</ele><time>2026-04-25T09:10:18.751Z</time></trkpt><trkpt lat="45.8898912" lon="9.7715159"><ele>1025.0</ele><time>2026-04-25T09:10:19.751Z</time></trkpt><trkpt lat="45.8898541" lon="9.7716842"><ele>1025.0</ele><time>2026-04-25T09:10:20.751Z</time></trkpt><trkpt lat="45.8898116" lon="9.7718517"><ele>1025.0</ele><time>2026-04-25T09:10:21.751Z</time></trkpt><trkpt lat="45.8897758" lon="9.7720162"><ele>1025.0</ele><time>2026-04-25T09:10:22.751Z</time></trkpt><trkpt lat="45.8897434" lon="9.7721776"><ele>1025.0</ele><time>2026-04-25T09:10:23.751Z</time></trkpt><trkpt lat="45.8897187" lon="9.7723323"><ele>1024.6</ele><time>2026-04-25T09:10:24.75Z</time></trkpt><trkpt lat="45.8897022" lon="9.7724879"><ele>1024.2</ele><time>2026-04-25T09:10:25.751Z</time></trkpt><trkpt lat="45.8897094" lon="9.7726433"><ele>1023.8</ele><time>2026-04-25T09:10:26.751Z</time></trkpt><trkpt lat="45.8897365" lon="9.7727945"><ele>1023.4</ele><time>2026-04-25T09:10:27.751Z</time></trkpt><trkpt lat="45.889772" lon="9.7729304"><ele>1023.0</ele><time>2026-04-25T09:10:28.751Z</time></trkpt><trkpt lat="45.889817" lon="9.7730597"><ele>1024.6</ele><time>2026-04-25T09:10:29.751Z</time></trkpt><trkpt lat="45.8898727" lon="9.7731744"><ele>1026.1999999999998</ele><time>2026-04-25T09:10:30.75Z</time></trkpt><trkpt lat="45.8899472" lon="9.7732629"><ele>1027.8</ele><time>2026-04-25T09:10:31.75Z</time></trkpt><trkpt lat="45.8900349" lon="9.7733422"><ele>1029.3999999999999</ele><time>2026-04-25T09:10:32.751Z</time></trkpt><trkpt lat="45.8901183" lon="9.7734281"><ele>1031.0</ele><time>2026-04-25T09:10:33.751Z</time></trkpt><trkpt lat="45.8901914" lon="9.7735006"><ele>1030.6666666666667</ele><time>2026-04-25T09:10:34.75Z</time></trkpt><trkpt lat="45.8902578" lon="9.7735649"><ele>1030.3333333333335</ele><time>2026-04-25T09:10:35.75Z</time></trkpt><trkpt lat="45.8903059" lon="9.7736373"><ele>1030.0</ele><time>2026-04-25T09:10:36.751Z</time></trkpt><trkpt lat="45.8902919" lon="9.773809"><ele>1029.6666666666667</ele><time>2026-04-25T09:10:38.75Z</time></trkpt><trkpt lat="45.8902298" lon="9.7738595"><ele>1029.3333333333333</ele><time>2026-04-25T09:10:39.75Z</time></trkpt><trkpt lat="45.8901388" lon="9.7738762"><ele>1029.0</ele><time>2026-04-25T09:10:40.751Z</time></trkpt><trkpt lat="45.89006" lon="9.7738987"><ele>1029.0</ele><time>2026-04-25T09:10:41.75Z</time></trkpt><trkpt lat="45.8899808" lon="9.773924"><ele>1029.0</ele><time>2026-04-25T09:10:42.75Z</time></trkpt><trkpt lat="45.8899004" lon="9.7739488"><ele>1029.0</ele><time>2026-04-25T09:10:43.75Z</time></trkpt><trkpt lat="45.889821" lon="9.7739865"><ele>1029.0</ele><time>2026-04-25T09:10:44.751Z</time></trkpt><trkpt lat="45.8897545" lon="9.7740584"><ele>1029.0</ele><time>2026-04-25T09:10:45.75Z</time></trkpt><trkpt lat="45.8897064" lon="9.7741503"><ele>1029.0</ele><time>2026-04-25T09:10:46.751Z</time></trkpt><trkpt lat="45.8896764" lon="9.7742546"><ele>1028.5</ele><time>2026-04-25T09:10:47.751Z</time></trkpt><trkpt lat="45.8896535" lon="9.7743757"><ele>1028.0</ele><time>2026-04-25T09:10:48.751Z</time></trkpt><trkpt lat="45.8896339" lon="9.7745014"><ele>1027.5</ele><time>2026-04-25T09:10:49.75Z</time></trkpt><trkpt lat="45.8896195" lon="9.7746267"><ele>1027.0</ele><time>2026-04-25T09:10:50.751Z</time></trkpt><trkpt lat="45.889617" lon="9.7747532"><ele>1026.5</ele><time>2026-04-25T09:10:51.75Z</time></trkpt><trkpt lat="45.8896332" lon="9.7748782"><ele>1026.0</ele><time>2026-04-25T09:10:52.75Z</time></trkpt><trkpt lat="45.8896762" lon="9.7749956"><ele>1026.0</ele><time>2026-04-25T09:10:53.75Z</time></trkpt><trkpt lat="45.8897405" lon="9.7750939"><ele>1026.0</ele><time>2026-04-25T09:10:54.75Z</time></trkpt><trkpt lat="45.8898146" lon="9.7751757"><ele>1026.0</ele><time>2026-04-25T09:10:55.751Z</time></trkpt><trkpt lat="45.8898896" lon="9.7752561"><ele>1026.0</ele><time>2026-04-25T09:10:56.75Z</time></trkpt><trkpt lat="45.8899608" lon="9.7753441"><ele>1026.0</ele><time>2026-04-25T09:10:57.75Z</time></trkpt><trkpt lat="45.8900196" lon="9.775444"><ele>1022.8</ele><time>2026-04-25T09:10:58.75Z</time></trkpt><trkpt lat="45.8900597" lon="9.7755578"><ele>1019.5999999999999</ele><time>2026-04-25T09:10:59.751Z</time></trkpt><trkpt lat="45.8900873" lon="9.7756761"><ele>1016.4</ele><time>2026-04-25T09:11:00.751Z</time></trkpt><trkpt lat="45.8901169" lon="9.775803"><ele>1013.2</ele><time>2026-04-25T09:11:01.751Z</time></trkpt><trkpt lat="45.8901819" lon="9.7759079"><ele>1010.0</ele><time>2026-04-25T09:11:02.751Z</time></trkpt><trkpt lat="45.890266" lon="9.776001"><ele>1014.8</ele><time>2026-04-25T09:11:03.751Z</time></trkpt><trkpt lat="45.8903491" lon="9.7760887"><ele>1019.6</ele><time>2026-04-25T09:11:04.751Z</time></trkpt><trkpt lat="45.8904353" lon="9.77617"><ele>1024.4</ele><time>2026-04-25T09:11:05.75Z</time></trkpt><trkpt lat="45.8905148" lon="9.7762501"><ele>1029.2</ele><time>2026-04-25T09:11:06.75Z</time></trkpt><trkpt lat="45.8905788" lon="9.776353"><ele>1034.0</ele><time>2026-04-25T09:11:07.75Z</time></trkpt><trkpt lat="45.89063" lon="9.776478"><ele>1034.0</ele><time>2026-04-25T09:11:08.75Z</time></trkpt><trkpt lat="45.890673" lon="9.7766027"><ele>1034.0</ele><time>2026-04-25T09:11:09.751Z</time></trkpt><trkpt lat="45.8907155" lon="9.7767402"><ele>1034.0</ele><time>2026-04-25T09:11:10.751Z</time></trkpt><trkpt lat="45.8907569" lon="9.7768789"><ele>1034.0</ele><time>2026-04-25T09:11:11.751Z</time></trkpt><trkpt lat="45.8907999" lon="9.7770182"><ele>1034.0</ele><time>2026-04-25T09:11:12.751Z</time></trkpt><trkpt lat="45.890831" lon="9.7771472"><ele>1034.8333333333335</ele><time>2026-04-25T09:11:13.751Z</time></trkpt><trkpt lat="45.8908454" lon="9.7772699"><ele>1035.6666666666667</ele><time>2026-04-25T09:11:14.751Z</time></trkpt><trkpt lat="45.8908475" lon="9.7773841"><ele>1036.5</ele><time>2026-04-25T09:11:15.75Z</time></trkpt><trkpt lat="45.890842" lon="9.7775032"><ele>1037.3333333333333</ele><time>2026-04-25T09:11:16.751Z</time></trkpt><trkpt lat="45.8908679" lon="9.7776116"><ele>1038.1666666666665</ele><time>2026-04-25T09:11:17.751Z</time></trkpt><trkpt lat="45.8909321" lon="9.7776964"><ele>1039.0</ele><time>2026-04-25T09:11:18.75Z</time></trkpt><trkpt lat="45.8910528" lon="9.7777737"><ele>1039.0</ele><time>2026-04-25T09:11:19.75Z</time></trkpt><trkpt lat="45.8911974" lon="9.7778695"><ele>1039.0</ele><time>2026-04-25T09:11:20.751Z</time></trkpt><trkpt lat="45.8913179" lon="9.7779559"><ele>1039.0</ele><time>2026-04-25T09:11:21.751Z</time></trkpt><trkpt lat="45.8914354" lon="9.7780263"><ele>1039.0</ele><time>2026-04-25T09:11:22.75Z</time></trkpt><trkpt lat="45.8915361" lon="9.7780955"><ele>1039.0</ele><time>2026-04-25T09:11:23.751Z</time></trkpt><trkpt lat="45.8916152" lon="9.7781878"><ele>1039.0</ele><time>2026-04-25T09:11:24.751Z</time></trkpt><trkpt lat="45.8916879" lon="9.7782993"><ele>1039.0</ele><time>2026-04-25T09:11:25.751Z</time></trkpt><trkpt lat="45.891762" lon="9.7784085"><ele>1039.0</ele><time>2026-04-25T09:11:26.75Z</time></trkpt><trkpt lat="45.8918252" lon="9.7785135"><ele>1039.0</ele><time>2026-04-25T09:11:27.75Z</time></trkpt><trkpt lat="45.8918865" lon="9.7786138"><ele>1036.1666666666665</ele><time>2026-04-25T09:11:28.75Z</time></trkpt><trkpt lat="45.8919422" lon="9.778714"><ele>1033.3333333333333</ele><time>2026-04-25T09:11:29.751Z</time></trkpt><trkpt lat="45.8919827" lon="9.7788137"><ele>1030.5</ele><time>2026-04-25T09:11:30.75Z</time></trkpt><trkpt lat="45.8919962" lon="9.7789097"><ele>1027.6666666666667</ele><time>2026-04-25T09:11:31.751Z</time></trkpt><trkpt lat="45.8919797" lon="9.7790096"><ele>1024.8333333333335</ele><time>2026-04-25T09:11:32.751Z</time></trkpt><trkpt lat="45.8919407" lon="9.7790961"><ele>1022.0</ele><time>2026-04-25T09:11:33.751Z</time></trkpt><trkpt lat="45.8918766" lon="9.7791709"><ele>1022.0</ele><time>2026-04-25T09:11:34.751Z</time></trkpt><trkpt lat="45.8918015" lon="9.7792466"><ele>1022.0</ele><time>2026-04-25T09:11:35.75Z</time></trkpt><trkpt lat="45.8917196" lon="9.7793242"><ele>1022.0</ele><time>2026-04-25T09:11:36.75Z</time></trkpt><trkpt lat="45.891632" lon="9.779397"><ele>1022.0</ele><time>2026-04-25T09:11:37.75Z</time></trkpt><trkpt lat="45.8915289" lon="9.7794516"><ele>1022.0</ele><time>2026-04-25T09:11:38.751Z</time></trkpt><trkpt lat="45.8914074" lon="9.7794872"><ele>1022.25</ele><time>2026-04-25T09:11:39.751Z</time></trkpt><trkpt lat="45.8912753" lon="9.7795064"><ele>1022.5</ele><time>2026-04-25T09:11:40.75Z</time></trkpt><trkpt lat="45.8911418" lon="9.7795302"><ele>1022.75</ele><time>2026-04-25T09:11:41.751Z</time></trkpt><trkpt lat="45.8910166" lon="9.7795759"><ele>1023.0</ele><time>2026-04-25T09:11:42.751Z</time></trkpt><trkpt lat="45.8908982" lon="9.7796256"><ele>1025.0</ele><time>2026-04-25T09:11:43.751Z</time></trkpt><trkpt lat="45.8907788" lon="9.7796646"><ele>1027.0</ele><time>2026-04-25T09:11:44.751Z</time></trkpt><trkpt lat="45.8906595" lon="9.7796944"><ele>1029.0</ele><time>2026-04-25T09:11:45.751Z</time></trkpt><trkpt lat="45.8905408" lon="9.7797012"><ele>1031.0</ele><time>2026-04-25T09:11:46.75Z</time></trkpt><trkpt lat="45.8904046" lon="9.7796892"><ele>1031.0</ele><time>2026-04-25T09:11:47.751Z</time></trkpt><trkpt lat="45.8902254" lon="9.779673"><ele>1031.0</ele><time>2026-04-25T09:11:48.751Z</time></trkpt><trkpt lat="45.890007" lon="9.7796474"><ele>1031.0</ele><time>2026-04-25T09:11:49.75Z</time></trkpt><trkpt lat="45.8897717" lon="9.7796073"><ele>1035.0</ele><time>2026-04-25T09:11:50.751Z</time></trkpt><trkpt lat="45.8895653" lon="9.7795646"><ele>1039.0</ele><time>2026-04-25T09:11:51.751Z</time></trkpt><trkpt lat="45.8893682" lon="9.7795449"><ele>1043.0</ele><time>2026-04-25T09:11:52.751Z</time></trkpt><trkpt lat="45.8891839" lon="9.7795481"><ele>1047.0</ele><time>2026-04-25T09:11:53.751Z</time></trkpt><trkpt lat="45.8890109" lon="9.7795819"><ele>1051.0</ele><time>2026-04-25T09:11:54.75Z</time></trkpt><trkpt lat="45.8888456" lon="9.7796421"><ele>1055.0</ele><time>2026-04-25T09:11:55.75Z</time></trkpt><trkpt lat="45.888698" lon="9.7797101"><ele>1055.0</ele><time>2026-04-25T09:11:56.75Z</time></trkpt><trkpt lat="45.8885734" lon="9.77978"><ele>1055.0</ele><time>2026-04-25T09:11:57.75Z</time></trkpt><trkpt lat="45.8884821" lon="9.7798566"><ele>1055.0</ele><time>2026-04-25T09:11:58.75Z</time></trkpt><trkpt lat="45.8884314" lon="9.7799655"><ele>1055.0</ele><time>2026-04-25T09:11:59.75Z</time></trkpt><trkpt lat="45.8884281" lon="9.7800904"><ele>1055.0</ele><time>2026-04-25T09:12:00.751Z</time></trkpt><trkpt lat="45.8884771" lon="9.7802017"><ele>1055.75</ele><time>2026-04-25T09:12:01.751Z</time></trkpt><trkpt lat="45.8885705" lon="9.7802719"><ele>1056.5</ele><time>2026-04-25T09:12:02.751Z</time></trkpt><trkpt lat="45.8887014" lon="9.7803164"><ele>1057.25</ele><time>2026-04-25T09:12:03.751Z</time></trkpt><trkpt lat="45.8888337" lon="9.7803899"><ele>1058.0</ele><time>2026-04-25T09:12:04.75Z</time></trkpt><trkpt lat="45.8889317" lon="9.7805307"><ele>1058.0</ele><time>2026-04-25T09:12:05.751Z</time></trkpt><trkpt lat="45.8890026" lon="9.7807239"><ele>1058.0</ele><time>2026-04-25T09:12:06.751Z</time></trkpt><trkpt lat="45.8890664" lon="9.7809648"><ele>1058.0</ele><time>2026-04-25T09:12:07.75Z</time></trkpt><trkpt lat="45.8891315" lon="9.7811917"><ele>1058.0</ele><time>2026-04-25T09:12:08.751Z</time></trkpt><trkpt lat="45.8891682" lon="9.7814019"><ele>1058.0</ele><time>2026-04-25T09:12:09.751Z</time></trkpt><trkpt lat="45.8891553" lon="9.7816009"><ele>1058.0</ele><time>2026-04-25T09:12:10.751Z</time></trkpt><trkpt lat="45.8890862" lon="9.7817934"><ele>1058.0</ele><time>2026-04-25T09:12:11.75Z</time></trkpt><trkpt lat="45.8890099" lon="9.7819772"><ele>1054.25</ele><time>2026-04-25T09:12:12.751Z</time></trkpt><trkpt lat="45.8889603" lon="9.782161"><ele>1050.5</ele><time>2026-04-25T09:12:13.75Z</time></trkpt><trkpt lat="45.8888754" lon="9.7822924"><ele>1046.75</ele><time>2026-04-25T09:12:14.75Z</time></trkpt><trkpt lat="45.8887623" lon="9.7823376"><ele>1043.0</ele><time>2026-04-25T09:12:15.75Z</time></trkpt><trkpt lat="45.8886605" lon="9.7823046"><ele>1043.0</ele><time>2026-04-25T09:12:16.75Z</time></trkpt><trkpt lat="45.8885588" lon="9.7822107"><ele>1043.0</ele><time>2026-04-25T09:12:17.75Z</time></trkpt><trkpt lat="45.8884604" lon="9.7821545"><ele>1043.0</ele><time>2026-04-25T09:12:18.751Z</time></trkpt><trkpt lat="45.8883777" lon="9.782161"><ele>1043.0</ele><time>2026-04-25T09:12:19.751Z</time></trkpt><trkpt lat="45.8883113" lon="9.7822274"><ele>1043.0</ele><time>2026-04-25T09:12:20.75Z</time></trkpt><trkpt lat="45.8882784" lon="9.782361"><ele>1044.5</ele><time>2026-04-25T09:12:21.751Z</time></trkpt><trkpt lat="45.8882649" lon="9.7825555"><ele>1046.0</ele><time>2026-04-25T09:12:22.75Z</time></trkpt><trkpt lat="45.8882591" lon="9.7827638"><ele>1047.5</ele><time>2026-04-25T09:12:23.751Z</time></trkpt><trkpt lat="45.8882477" lon="9.7829794"><ele>1049.0</ele><time>2026-04-25T09:12:24.75Z</time></trkpt><trkpt lat="45.8882321" lon="9.7831592"><ele>1049.0</ele><time>2026-04-25T09:12:25.75Z</time></trkpt><trkpt lat="45.8881782" lon="9.7833054"><ele>1049.0</ele><time>2026-04-25T09:12:26.75Z</time></trkpt><trkpt lat="45.8880846" lon="9.7833919"><ele>1049.0</ele><time>2026-04-25T09:12:27.751Z</time></trkpt><trkpt lat="45.8879725" lon="9.7834178"><ele>1049.0</ele><time>2026-04-25T09:12:28.75Z</time></trkpt><trkpt lat="45.8878318" lon="9.7834223"><ele>1049.0</ele><time>2026-04-25T09:12:29.751Z</time></trkpt><trkpt lat="45.8876839" lon="9.7834294"><ele>1049.0</ele><time>2026-04-25T09:12:30.751Z</time></trkpt><trkpt lat="45.8875319" lon="9.7834442"><ele>1049.0</ele><time>2026-04-25T09:12:31.75Z</time></trkpt><trkpt lat="45.8873864" lon="9.7834629"><ele>1049.0</ele><time>2026-04-25T09:12:32.751Z</time></trkpt><trkpt lat="45.8872459" lon="9.7834799"><ele>1050.4</ele><time>2026-04-25T09:12:33.75Z</time></trkpt><trkpt lat="45.887118" lon="9.7834918"><ele>1051.8000000000002</ele><time>2026-04-25T09:12:34.75Z</time></trkpt><trkpt lat="45.8870097" lon="9.7835063"><ele>1053.1999999999998</ele><time>2026-04-25T09:12:35.751Z</time></trkpt><trkpt lat="45.8869248" lon="9.7835361"><ele>1054.6</ele><time>2026-04-25T09:12:36.751Z</time></trkpt><trkpt lat="45.8868669" lon="9.7836085"><ele>1056.0</ele><time>2026-04-25T09:12:37.751Z</time></trkpt><trkpt lat="45.8868554" lon="9.7837161"><ele>1056.0</ele><time>2026-04-25T09:12:38.751Z</time></trkpt><trkpt lat="45.8868955" lon="9.7838312"><ele>1056.0</ele><time>2026-04-25T09:12:39.75Z</time></trkpt><trkpt lat="45.8869771" lon="9.7839638"><ele>1056.0</ele><time>2026-04-25T09:12:40.751Z</time></trkpt><trkpt lat="45.8870633" lon="9.7840951"><ele>1056.0</ele><time>2026-04-25T09:12:41.75Z</time></trkpt><trkpt lat="45.8871099" lon="9.7842481"><ele>1056.25</ele><time>2026-04-25T09:12:42.751Z</time></trkpt><trkpt lat="45.8871136" lon="9.7844007"><ele>1056.5</ele><time>2026-04-25T09:12:43.75Z</time></trkpt><trkpt lat="45.8870646" lon="9.7845336"><ele>1056.75</ele><time>2026-04-25T09:12:44.75Z</time></trkpt><trkpt lat="45.8869852" lon="9.7846672"><ele>1057.0</ele><time>2026-04-25T09:12:45.75Z</time></trkpt><trkpt lat="45.8868821" lon="9.784787"><ele>1057.0</ele><time>2026-04-25T09:12:46.751Z</time></trkpt><trkpt lat="45.8867734" lon="9.7849082"><ele>1057.0</ele><time>2026-04-25T09:12:47.751Z</time></trkpt><trkpt lat="45.8866854" lon="9.7850279"><ele>1057.0</ele><time>2026-04-25T09:12:48.749Z</time></trkpt><trkpt lat="45.886633" lon="9.7851757"><ele>1057.0</ele><time>2026-04-25T09:12:49.751Z</time></trkpt><trkpt lat="45.8866374" lon="9.7853344"><ele>1062.5</ele><time>2026-04-25T09:12:50.751Z</time></trkpt><trkpt lat="45.8866896" lon="9.7854814"><ele>1068.0</ele><time>2026-04-25T09:12:51.751Z</time></trkpt><trkpt lat="45.8867546" lon="9.7856325"><ele>1073.5</ele><time>2026-04-25T09:12:52.751Z</time></trkpt><trkpt lat="45.8867982" lon="9.7857826"><ele>1079.0</ele><time>2026-04-25T09:12:53.751Z</time></trkpt><trkpt lat="45.8868524" lon="9.7859155"><ele>1079.2</ele><time>2026-04-25T09:12:54.75Z</time></trkpt><trkpt lat="45.8869451" lon="9.7859992"><ele>1079.4</ele><time>2026-04-25T09:12:55.75Z</time></trkpt><trkpt lat="45.8870517" lon="9.7859996"><ele>1079.6</ele><time>2026-04-25T09:12:56.751Z</time></trkpt><trkpt lat="45.8871464" lon="9.78593"><ele>1079.8</ele><time>2026-04-25T09:12:57.751Z</time></trkpt><trkpt lat="45.8872343" lon="9.7858007"><ele>1080.0</ele><time>2026-04-25T09:12:58.751Z</time></trkpt><trkpt lat="45.8873253" lon="9.7856817"><ele>1080.0</ele><time>2026-04-25T09:12:59.75Z</time></trkpt><trkpt lat="45.8874213" lon="9.7856217"><ele>1080.0</ele><time>2026-04-25T09:13:00.751Z</time></trkpt><trkpt lat="45.8875416" lon="9.7856171"><ele>1080.0</ele><time>2026-04-25T09:13:01.751Z</time></trkpt><trkpt lat="45.887695" lon="9.7856051"><ele>1080.0</ele><time>2026-04-25T09:13:02.75Z</time></trkpt><trkpt lat="45.8878696" lon="9.7855791"><ele>1079.3333333333333</ele><time>2026-04-25T09:13:03.751Z</time></trkpt><trkpt lat="45.8880376" lon="9.7855327"><ele>1078.6666666666665</ele><time>2026-04-25T09:13:04.75Z</time></trkpt><trkpt lat="45.8881909" lon="9.7854967"><ele>1078.0</ele><time>2026-04-25T09:13:05.75Z</time></trkpt><trkpt lat="45.8883485" lon="9.7854831"><ele>1075.0</ele><time>2026-04-25T09:13:06.75Z</time></trkpt><trkpt lat="45.888517" lon="9.7855285"><ele>1072.0</ele><time>2026-04-25T09:13:07.751Z</time></trkpt><trkpt lat="45.8887023" lon="9.7855975"><ele>1069.0</ele><time>2026-04-25T09:13:08.75Z</time></trkpt><trkpt lat="45.8888806" lon="9.7856547"><ele>1069.0</ele><time>2026-04-25T09:13:09.751Z</time></trkpt><trkpt lat="45.8890452" lon="9.785711"><ele>1069.0</ele><time>2026-04-25T09:13:10.751Z</time></trkpt><trkpt lat="45.8891976" lon="9.7857623"><ele>1069.0</ele><time>2026-04-25T09:13:11.75Z</time></trkpt><trkpt lat="45.889324" lon="9.785814"><ele>1067.8</ele><time>2026-04-25T09:13:12.751Z</time></trkpt><trkpt lat="45.8894221" lon="9.7858868"><ele>1066.6000000000001</ele><time>2026-04-25T09:13:13.751Z</time></trkpt><trkpt lat="45.8894795" lon="9.7860047"><ele>1065.4</ele><time>2026-04-25T09:13:14.75Z</time></trkpt><trkpt lat="45.8894821" lon="9.7861468"><ele>1064.2</ele><time>2026-04-25T09:13:15.751Z</time></trkpt><trkpt lat="45.8894614" lon="9.7863214"><ele>1063.0</ele><time>2026-04-25T09:13:16.751Z</time></trkpt><trkpt lat="45.8894382" lon="9.7865279"><ele>1063.0</ele><time>2026-04-25T09:13:17.751Z</time></trkpt><trkpt lat="45.8894059" lon="9.7867301"><ele>1063.0</ele><time>2026-04-25T09:13:18.75Z</time></trkpt><trkpt lat="45.88936" lon="9.7869099"><ele>1063.0</ele><time>2026-04-25T09:13:19.75Z</time></trkpt><trkpt lat="45.8893174" lon="9.7870735"><ele>1063.0</ele><time>2026-04-25T09:13:20.751Z</time></trkpt><trkpt lat="45.8893238" lon="9.7872321"><ele>1071.75</ele><time>2026-04-25T09:13:21.75Z</time></trkpt><trkpt lat="45.8893773" lon="9.7873683"><ele>1080.5</ele><time>2026-04-25T09:13:22.751Z</time></trkpt><trkpt lat="45.889475" lon="9.7874494"><ele>1089.25</ele><time>2026-04-25T09:13:23.75Z</time></trkpt><trkpt lat="45.8896003" lon="9.7874589"><ele>1098.0</ele><time>2026-04-25T09:13:24.75Z</time></trkpt><trkpt lat="45.8897546" lon="9.7874264"><ele>1098.0</ele><time>2026-04-25T09:13:25.751Z</time></trkpt><trkpt lat="45.8899149" lon="9.7873387"><ele>1098.0</ele><time>2026-04-25T09:13:26.751Z</time></trkpt><trkpt lat="45.8900827" lon="9.7871984"><ele>1098.0</ele><time>2026-04-25T09:13:27.751Z</time></trkpt><trkpt lat="45.8902569" lon="9.7870519"><ele>1101.6666666666667</ele><time>2026-04-25T09:13:28.751Z</time></trkpt><trkpt lat="45.8904229" lon="9.7869088"><ele>1105.3333333333335</ele><time>2026-04-25T09:13:29.751Z</time></trkpt><trkpt lat="45.8905669" lon="9.7867638"><ele>1109.0</ele><time>2026-04-25T09:13:30.75Z</time></trkpt><trkpt lat="45.8906903" lon="9.7866314"><ele>1101.0</ele><time>2026-04-25T09:13:31.75Z</time></trkpt><trkpt lat="45.8907993" lon="9.786552"><ele>1093.0</ele><time>2026-04-25T09:13:32.75Z</time></trkpt><trkpt lat="45.8909119" lon="9.7865472"><ele>1085.0</ele><time>2026-04-25T09:13:33.75Z</time></trkpt><trkpt lat="45.8910384" lon="9.7865829"><ele>1077.0</ele><time>2026-04-25T09:13:34.75Z</time></trkpt><trkpt lat="45.8911681" lon="9.7865914"><ele>1076.4</ele><time>2026-04-25T09:13:35.751Z</time></trkpt><trkpt lat="45.8912839" lon="9.7865924"><ele>1075.8000000000002</ele><time>2026-04-25T09:13:36.751Z</time></trkpt><trkpt lat="45.8913899" lon="9.7865848"><ele>1075.2</ele><time>2026-04-25T09:13:37.751Z</time></trkpt><trkpt lat="45.8914865" lon="9.7865772"><ele>1074.6000000000001</ele><time>2026-04-25T09:13:38.75Z</time></trkpt><trkpt lat="45.8915653" lon="9.7865757"><ele>1074.0</ele><time>2026-04-25T09:13:39.75Z</time></trkpt><trkpt lat="45.8916335" lon="9.7865791"><ele>1073.9999999999998</ele><time>2026-04-25T09:13:40.751Z</time></trkpt><trkpt lat="45.891696" lon="9.7866001"><ele>1074.0</ele><time>2026-04-25T09:13:41.751Z</time></trkpt><trkpt lat="45.8917525" lon="9.7866435"><ele>1074.0</ele><time>2026-04-25T09:13:42.75Z</time></trkpt><trkpt lat="45.8918037" lon="9.7867059"><ele>1074.0</ele><time>2026-04-25T09:13:43.75Z</time></trkpt><trkpt lat="45.8918465" lon="9.7867946"><ele>1074.0</ele><time>2026-04-25T09:13:44.751Z</time></trkpt><trkpt lat="45.89189" lon="9.7868906"><ele>1073.9999999999998</ele><time>2026-04-25T09:13:45.751Z</time></trkpt><trkpt lat="45.8919369" lon="9.7869916"><ele>1074.0</ele><time>2026-04-25T09:13:46.751Z</time></trkpt><trkpt lat="45.8919927" lon="9.7870875"><ele>1076.0</ele><time>2026-04-25T09:13:47.75Z</time></trkpt><trkpt lat="45.8920695" lon="9.7871442"><ele>1078.0</ele><time>2026-04-25T09:13:48.75Z</time></trkpt><trkpt lat="45.8921582" lon="9.7871466"><ele>1080.0</ele><time>2026-04-25T09:13:49.751Z</time></trkpt><trkpt lat="45.8922468" lon="9.7871203"><ele>1082.0</ele><time>2026-04-25T09:13:50.751Z</time></trkpt><trkpt lat="45.8923279" lon="9.7870889"><ele>1084.0</ele><time>2026-04-25T09:13:51.75Z</time></trkpt><trkpt lat="45.8924046" lon="9.7870553"><ele>1086.0</ele><time>2026-04-25T09:13:52.751Z</time></trkpt><trkpt lat="45.8924778" lon="9.7870249"><ele>1086.0</ele><time>2026-04-25T09:13:53.751Z</time></trkpt><trkpt lat="45.8925482" lon="9.7870028"><ele>1086.0</ele><time>2026-04-25T09:13:54.75Z</time></trkpt><trkpt lat="45.8926152" lon="9.7870073"><ele>1086.0</ele><time>2026-04-25T09:13:55.751Z</time></trkpt><trkpt lat="45.8926741" lon="9.7870494"><ele>1086.0</ele><time>2026-04-25T09:13:56.75Z</time></trkpt><trkpt lat="45.8927137" lon="9.7871337"><ele>1086.0</ele><time>2026-04-25T09:13:57.751Z</time></trkpt><trkpt lat="45.8927274" lon="9.7872515"><ele>1086.0</ele><time>2026-04-25T09:13:58.751Z</time></trkpt><trkpt lat="45.8927219" lon="9.7873799"><ele>1086.0</ele><time>2026-04-25T09:13:59.75Z</time></trkpt><trkpt lat="45.8926983" lon="9.7875091"><ele>1086.6</ele><time>2026-04-25T09:14:00.751Z</time></trkpt><trkpt lat="45.8926633" lon="9.7876351"><ele>1087.1999999999998</ele><time>2026-04-25T09:14:01.751Z</time></trkpt><trkpt lat="45.8926203" lon="9.7877641"><ele>1087.8000000000002</ele><time>2026-04-25T09:14:02.751Z</time></trkpt><trkpt lat="45.8925793" lon="9.7879035"><ele>1088.4</ele><time>2026-04-25T09:14:03.75Z</time></trkpt><trkpt lat="45.8925511" lon="9.7880456"><ele>1089.0</ele><time>2026-04-25T09:14:04.75Z</time></trkpt><trkpt lat="45.8925425" lon="9.7881752"><ele>1089.0</ele><time>2026-04-25T09:14:05.75Z</time></trkpt><trkpt lat="45.8925372" lon="9.7882968"><ele>1089.0</ele><time>2026-04-25T09:14:06.751Z</time></trkpt><trkpt lat="45.8925174" lon="9.7884075"><ele>1089.0</ele><time>2026-04-25T09:14:07.751Z</time></trkpt><trkpt lat="45.892483" lon="9.7885061"><ele>1089.0</ele><time>2026-04-25T09:14:08.751Z</time></trkpt><trkpt lat="45.8924398" lon="9.7885954"><ele>1089.0</ele><time>2026-04-25T09:14:09.75Z</time></trkpt><trkpt lat="45.8923957" lon="9.7886864"><ele>1089.0</ele><time>2026-04-25T09:14:10.75Z</time></trkpt><trkpt lat="45.8923502" lon="9.7887776"><ele>1089.5</ele><time>2026-04-25T09:14:11.751Z</time></trkpt><trkpt lat="45.8923011" lon="9.788871"><ele>1090.0</ele><time>2026-04-25T09:14:12.75Z</time></trkpt><trkpt lat="45.8922476" lon="9.7889669"><ele>1090.5</ele><time>2026-04-25T09:14:13.751Z</time></trkpt><trkpt lat="45.8921907" lon="9.7890665"><ele>1091.0</ele><time>2026-04-25T09:14:14.75Z</time></trkpt><trkpt lat="45.8921333" lon="9.7891607"><ele>1091.5</ele><time>2026-04-25T09:14:15.751Z</time></trkpt><trkpt lat="45.8920699" lon="9.7892471"><ele>1092.0</ele><time>2026-04-25T09:14:16.751Z</time></trkpt><trkpt lat="45.8920015" lon="9.7893234"><ele>1093.0</ele><time>2026-04-25T09:14:17.751Z</time></trkpt><trkpt lat="45.8919355" lon="9.789388"><ele>1094.0</ele><time>2026-04-25T09:14:18.75Z</time></trkpt><trkpt lat="45.8918726" lon="9.7894564"><ele>1095.0</ele><time>2026-04-25T09:14:19.75Z</time></trkpt><trkpt lat="45.8918126" lon="9.7895235"><ele>1096.0</ele><time>2026-04-25T09:14:20.751Z</time></trkpt><trkpt lat="45.891749" lon="9.7895867"><ele>1097.0</ele><time>2026-04-25T09:14:21.751Z</time></trkpt><trkpt lat="45.8916857" lon="9.7896512"><ele>1098.0</ele><time>2026-04-25T09:14:22.75Z</time></trkpt><trkpt lat="45.8916339" lon="9.7897251"><ele>1098.0</ele><time>2026-04-25T09:14:23.751Z</time></trkpt><trkpt lat="45.891606" lon="9.7898144"><ele>1098.0</ele><time>2026-04-25T09:14:24.751Z</time></trkpt><trkpt lat="45.8916412" lon="9.7899801"><ele>1098.0</ele><time>2026-04-25T09:14:26.75Z</time></trkpt><trkpt lat="45.8917101" lon="9.7900352"><ele>1098.0</ele><time>2026-04-25T09:14:27.75Z</time></trkpt><trkpt lat="45.8917968" lon="9.7900591"><ele>1098.0</ele><time>2026-04-25T09:14:28.751Z</time></trkpt><trkpt lat="45.8918864" lon="9.7900728"><ele>1098.0</ele><time>2026-04-25T09:14:29.75Z</time></trkpt><trkpt lat="45.8919726" lon="9.7900742"><ele>1098.0</ele><time>2026-04-25T09:14:30.75Z</time></trkpt><trkpt lat="45.8920498" lon="9.7900913"><ele>1098.0</ele><time>2026-04-25T09:14:31.75Z</time></trkpt><trkpt lat="45.8921128" lon="9.7901388"><ele>1098.0</ele><time>2026-04-25T09:14:32.75Z</time></trkpt><trkpt lat="45.8921548" lon="9.7902166"><ele>1098.0</ele><time>2026-04-25T09:14:33.75Z</time></trkpt><trkpt lat="45.892141" lon="9.7903793"><ele>1098.0</ele><time>2026-04-25T09:14:35.75Z</time></trkpt><trkpt lat="45.8920873" lon="9.7904421"><ele>1098.0</ele><time>2026-04-25T09:14:36.75Z</time></trkpt><trkpt lat="45.8920128" lon="9.7905289"><ele>1096.75</ele><time>2026-04-25T09:14:37.75Z</time></trkpt><trkpt lat="45.8919228" lon="9.7906402"><ele>1095.5</ele><time>2026-04-25T09:14:38.75Z</time></trkpt><trkpt lat="45.8918165" lon="9.7907679"><ele>1094.25</ele><time>2026-04-25T09:14:39.75Z</time></trkpt><trkpt lat="45.8916958" lon="9.7909192"><ele>1093.0</ele><time>2026-04-25T09:14:40.751Z</time></trkpt><trkpt lat="45.8915686" lon="9.7910677"><ele>1098.3333333333333</ele><time>2026-04-25T09:14:41.751Z</time></trkpt><trkpt lat="45.8914338" lon="9.791222"><ele>1103.6666666666667</ele><time>2026-04-25T09:14:42.75Z</time></trkpt><trkpt lat="45.891286" lon="9.7913939"><ele>1109.0</ele><time>2026-04-25T09:14:43.75Z</time></trkpt><trkpt lat="45.8911094" lon="9.791573"><ele>1115.6666666666667</ele><time>2026-04-25T09:14:44.75Z</time></trkpt><trkpt lat="45.8909228" lon="9.7917412"><ele>1122.3333333333333</ele><time>2026-04-25T09:14:45.751Z</time></trkpt><trkpt lat="45.8907491" lon="9.7918892"><ele>1129.0</ele><time>2026-04-25T09:14:46.751Z</time></trkpt><trkpt lat="45.8905819" lon="9.7920284"><ele>1129.0</ele><time>2026-04-25T09:14:47.75Z</time></trkpt><trkpt lat="45.8904226" lon="9.7921658"><ele>1129.0</ele><time>2026-04-25T09:14:48.751Z</time></trkpt><trkpt lat="45.8902725" lon="9.7922915"><ele>1129.0</ele><time>2026-04-25T09:14:49.751Z</time></trkpt><trkpt lat="45.890137" lon="9.7924131"><ele>1135.25</ele><time>2026-04-25T09:14:50.75Z</time></trkpt><trkpt lat="45.8900069" lon="9.792528"><ele>1141.5</ele><time>2026-04-25T09:14:51.751Z</time></trkpt><trkpt lat="45.8898863" lon="9.7926304"><ele>1147.75</ele><time>2026-04-25T09:14:52.751Z</time></trkpt><trkpt lat="45.8897858" lon="9.7927624"><ele>1154.0</ele><time>2026-04-25T09:14:53.751Z</time></trkpt><trkpt lat="45.8897183" lon="9.7929571"><ele>1154.0</ele><time>2026-04-25T09:14:54.751Z</time></trkpt><trkpt lat="45.8896406" lon="9.7931017"><ele>1154.0</ele><time>2026-04-25T09:14:55.751Z</time></trkpt><trkpt lat="45.8895357" lon="9.7932107"><ele>1154.0</ele><time>2026-04-25T09:14:56.75Z</time></trkpt><trkpt lat="45.8894287" lon="9.7932735"><ele>1154.0</ele><time>2026-04-25T09:14:57.75Z</time></trkpt><trkpt lat="45.8893583" lon="9.7933647"><ele>1154.0</ele><time>2026-04-25T09:14:58.75Z</time></trkpt><trkpt lat="45.8893347" lon="9.7934955"><ele>1154.0</ele><time>2026-04-25T09:14:59.75Z</time></trkpt><trkpt lat="45.8893496" lon="9.793636"><ele>1154.0</ele><time>2026-04-25T09:15:00.751Z</time></trkpt><trkpt lat="45.889391" lon="9.7937697"><ele>1154.0</ele><time>2026-04-25T09:15:01.75Z</time></trkpt><trkpt lat="45.8894576" lon="9.793868"><ele>1154.0</ele><time>2026-04-25T09:15:02.751Z</time></trkpt><trkpt lat="45.8895479" lon="9.793899"><ele>1158.75</ele><time>2026-04-25T09:15:03.751Z</time></trkpt><trkpt lat="45.8896469" lon="9.793858"><ele>1163.5</ele><time>2026-04-25T09:15:04.75Z</time></trkpt><trkpt lat="45.8897704" lon="9.7937688"><ele>1168.25</ele><time>2026-04-25T09:15:05.75Z</time></trkpt><trkpt lat="45.889898" lon="9.7936933"><ele>1173.0</ele><time>2026-04-25T09:15:06.75Z</time></trkpt><trkpt lat="45.8900284" lon="9.7936324"><ele>1167.2</ele><time>2026-04-25T09:15:07.751Z</time></trkpt><trkpt lat="45.8901505" lon="9.7936063"><ele>1161.4</ele><time>2026-04-25T09:15:08.751Z</time></trkpt><trkpt lat="45.8902544" lon="9.7936188"><ele>1155.6000000000001</ele><time>2026-04-25T09:15:09.751Z</time></trkpt><trkpt lat="45.8903387" lon="9.7936857"><ele>1149.8</ele><time>2026-04-25T09:15:10.75Z</time></trkpt><trkpt lat="45.8904139" lon="9.7938024"><ele>1144.0</ele><time>2026-04-25T09:15:11.75Z</time></trkpt><trkpt lat="45.8904542" lon="9.793957"><ele>1144.0</ele><time>2026-04-25T09:15:12.751Z</time></trkpt><trkpt lat="45.8904547" lon="9.7941265"><ele>1144.0</ele><time>2026-04-25T09:15:13.75Z</time></trkpt><trkpt lat="45.8904193" lon="9.7942967"><ele>1144.0</ele><time>2026-04-25T09:15:14.75Z</time></trkpt><trkpt lat="45.8903425" lon="9.7944767"><ele>1144.0</ele><time>2026-04-25T09:15:15.75Z</time></trkpt><trkpt lat="45.890287" lon="9.7946464"><ele>1149.0</ele><time>2026-04-25T09:15:16.751Z</time></trkpt><trkpt lat="45.8902766" lon="9.794847"><ele>1154.0</ele><time>2026-04-25T09:15:17.751Z</time></trkpt><trkpt lat="45.8902937" lon="9.7950754"><ele>1159.0</ele><time>2026-04-25T09:15:18.75Z</time></trkpt><trkpt lat="45.8903157" lon="9.795273"><ele>1164.0</ele><time>2026-04-25T09:15:19.751Z</time></trkpt><trkpt lat="45.8903363" lon="9.7954587"><ele>1167.0</ele><time>2026-04-25T09:15:20.751Z</time></trkpt><trkpt lat="45.8903557" lon="9.7956288"><ele>1170.0</ele><time>2026-04-25T09:15:21.751Z</time></trkpt><trkpt lat="45.8903793" lon="9.795773"><ele>1173.0</ele><time>2026-04-25T09:15:22.751Z</time></trkpt><trkpt lat="45.890437" lon="9.795878"><ele>1176.0</ele><time>2026-04-25T09:15:23.751Z</time></trkpt><trkpt lat="45.8905252" lon="9.7959169"><ele>1179.0</ele><time>2026-04-25T09:15:24.751Z</time></trkpt><trkpt lat="45.890618" lon="9.7958805"><ele>1179.0</ele><time>2026-04-25T09:15:25.75Z</time></trkpt><trkpt lat="45.8907247" lon="9.7958375"><ele>1179.0</ele><time>2026-04-25T09:15:26.751Z</time></trkpt><trkpt lat="45.8908374" lon="9.7958553"><ele>1179.0</ele><time>2026-04-25T09:15:27.75Z</time></trkpt><trkpt lat="45.8909645" lon="9.795909"><ele>1179.0</ele><time>2026-04-25T09:15:28.75Z</time></trkpt><trkpt lat="45.891095" lon="9.7959186"><ele>1184.0</ele><time>2026-04-25T09:15:29.75Z</time></trkpt><trkpt lat="45.8912111" lon="9.7958208"><ele>1189.0</ele><time>2026-04-25T09:15:30.751Z</time></trkpt><trkpt lat="45.8912915" lon="9.7957051"><ele>1194.0</ele><time>2026-04-25T09:15:31.751Z</time></trkpt><trkpt lat="45.8913452" lon="9.7955418"><ele>1199.0</ele><time>2026-04-25T09:15:32.751Z</time></trkpt><trkpt lat="45.8913909" lon="9.7953448"><ele>1198.25</ele><time>2026-04-25T09:15:33.751Z</time></trkpt><trkpt lat="45.8914395" lon="9.795167"><ele>1197.5</ele><time>2026-04-25T09:15:34.75Z</time></trkpt><trkpt lat="45.8915272" lon="9.7950109"><ele>1196.75</ele><time>2026-04-25T09:15:35.751Z</time></trkpt><trkpt lat="45.8916377" lon="9.7948857"><ele>1196.0</ele><time>2026-04-25T09:15:36.75Z</time></trkpt><trkpt lat="45.8917661" lon="9.7947786"><ele>1196.0</ele><time>2026-04-25T09:15:37.751Z</time></trkpt><trkpt lat="45.8919116" lon="9.794688"><ele>1196.0</ele><time>2026-04-25T09:15:38.75Z</time></trkpt><trkpt lat="45.8920633" lon="9.7946113"><ele>1196.0</ele><time>2026-04-25T09:15:39.75Z</time></trkpt><trkpt lat="45.8922226" lon="9.7945736"><ele>1196.0</ele><time>2026-04-25T09:15:40.751Z</time></trkpt><trkpt lat="45.8923871" lon="9.794575"><ele>1196.0</ele><time>2026-04-25T09:15:41.751Z</time></trkpt><trkpt lat="45.8925538" lon="9.794592"><ele>1196.0</ele><time>2026-04-25T09:15:42.75Z</time></trkpt><trkpt lat="45.8927226" lon="9.7946086"><ele>1195.6666666666667</ele><time>2026-04-25T09:15:43.75Z</time></trkpt><trkpt lat="45.8928943" lon="9.7946337"><ele>1195.3333333333333</ele><time>2026-04-25T09:15:44.75Z</time></trkpt><trkpt lat="45.8930632" lon="9.7946785"><ele>1195.0</ele><time>2026-04-25T09:15:45.75Z</time></trkpt><trkpt lat="45.8932189" lon="9.7947349"><ele>1195.0</ele><time>2026-04-25T09:15:46.75Z</time></trkpt><trkpt lat="45.8933546" lon="9.7947901"><ele>1195.0</ele><time>2026-04-25T09:15:47.75Z</time></trkpt><trkpt lat="45.8934543" lon="9.7948467"><ele>1195.0</ele><time>2026-04-25T09:15:48.75Z</time></trkpt><trkpt lat="45.8935096" lon="9.7949391"><ele>1195.0</ele><time>2026-04-25T09:15:49.75Z</time></trkpt><trkpt lat="45.8935057" lon="9.7950463"><ele>1195.0</ele><time>2026-04-25T09:15:50.75Z</time></trkpt><trkpt lat="45.8934504" lon="9.7951259"><ele>1195.0</ele><time>2026-04-25T09:15:51.75Z</time></trkpt><trkpt lat="45.8933685" lon="9.7951337"><ele>1195.0</ele><time>2026-04-25T09:15:52.75Z</time></trkpt><trkpt lat="45.893276" lon="9.7951165"><ele>1195.0</ele><time>2026-04-25T09:15:53.75Z</time></trkpt><trkpt lat="45.8931562" lon="9.7951177"><ele>1195.0</ele><time>2026-04-25T09:15:54.75Z</time></trkpt><trkpt lat="45.8930275" lon="9.79514"><ele>1195.0</ele><time>2026-04-25T09:15:55.75Z</time></trkpt><trkpt lat="45.8928881" lon="9.7951959"><ele>1200.3333333333333</ele><time>2026-04-25T09:15:56.75Z</time></trkpt><trkpt lat="45.8927443" lon="9.7952678"><ele>1205.6666666666667</ele><time>2026-04-25T09:15:57.751Z</time></trkpt><trkpt lat="45.8926012" lon="9.7953515"><ele>1211.0</ele><time>2026-04-25T09:15:58.75Z</time></trkpt><trkpt lat="45.8924606" lon="9.7954336"><ele>1211.25</ele><time>2026-04-25T09:15:59.751Z</time></trkpt><trkpt lat="45.8923219" lon="9.7955168"><ele>1211.5</ele><time>2026-04-25T09:16:00.751Z</time></trkpt><trkpt lat="45.8921947" lon="9.7956224"><ele>1211.75</ele><time>2026-04-25T09:16:01.75Z</time></trkpt><trkpt lat="45.8920851" lon="9.7957668"><ele>1212.0</ele><time>2026-04-25T09:16:02.751Z</time></trkpt><trkpt lat="45.8919997" lon="9.7959372"><ele>1215.6666666666667</ele><time>2026-04-25T09:16:03.75Z</time></trkpt><trkpt lat="45.8919402" lon="9.7961393"><ele>1219.3333333333335</ele><time>2026-04-25T09:16:04.751Z</time></trkpt><trkpt lat="45.8919002" lon="9.796363"><ele>1223.0</ele><time>2026-04-25T09:16:05.75Z</time></trkpt><trkpt lat="45.8918659" lon="9.7965814"><ele>1223.0</ele><time>2026-04-25T09:16:06.75Z</time></trkpt><trkpt lat="45.89182" lon="9.796773"><ele>1223.0</ele><time>2026-04-25T09:16:07.75Z</time></trkpt><trkpt lat="45.8917445" lon="9.7969339"><ele>1223.0</ele><time>2026-04-25T09:16:08.75Z</time></trkpt><trkpt lat="45.8916321" lon="9.7970559"><ele>1223.0</ele><time>2026-04-25T09:16:09.751Z</time></trkpt><trkpt lat="45.8914904" lon="9.7971699"><ele>1224.6666666666667</ele><time>2026-04-25T09:16:10.751Z</time></trkpt><trkpt lat="45.8913302" lon="9.7973094"><ele>1226.3333333333333</ele><time>2026-04-25T09:16:11.751Z</time></trkpt><trkpt lat="45.8911409" lon="9.7974651"><ele>1228.0</ele><time>2026-04-25T09:16:12.751Z</time></trkpt><trkpt lat="45.890956" lon="9.7976161"><ele>1232.3333333333333</ele><time>2026-04-25T09:16:13.751Z</time></trkpt><trkpt lat="45.8907797" lon="9.7977603"><ele>1236.6666666666667</ele><time>2026-04-25T09:16:14.75Z</time></trkpt><trkpt lat="45.890616" lon="9.7978946"><ele>1241.0</ele><time>2026-04-25T09:16:15.751Z</time></trkpt><trkpt lat="45.8904648" lon="9.7980161"><ele>1241.0</ele><time>2026-04-25T09:16:16.751Z</time></trkpt><trkpt lat="45.8903198" lon="9.7980947"><ele>1241.0</ele><time>2026-04-25T09:16:17.751Z</time></trkpt><trkpt lat="45.8901778" lon="9.7981013"><ele>1241.0</ele><time>2026-04-25T09:16:18.75Z</time></trkpt><trkpt lat="45.8900435" lon="9.7980489"><ele>1241.0</ele><time>2026-04-25T09:16:19.75Z</time></trkpt><trkpt lat="45.889895" lon="9.7979844"><ele>1238.6666666666667</ele><time>2026-04-25T09:16:20.751Z</time></trkpt><trkpt lat="45.8897367" lon="9.7978765"><ele>1236.3333333333333</ele><time>2026-04-25T09:16:21.75Z</time></trkpt><trkpt lat="45.8895959" lon="9.797704"><ele>1234.0</ele><time>2026-04-25T09:16:22.75Z</time></trkpt><trkpt lat="45.8894735" lon="9.797487"><ele>1234.6666666666665</ele><time>2026-04-25T09:16:23.751Z</time></trkpt><trkpt lat="45.8893595" lon="9.7972522"><ele>1235.3333333333333</ele><time>2026-04-25T09:16:24.75Z</time></trkpt><trkpt lat="45.8892576" lon="9.7970411"><ele>1236.0</ele><time>2026-04-25T09:16:25.751Z</time></trkpt><trkpt lat="45.8891718" lon="9.7968576"><ele>1232.75</ele><time>2026-04-25T09:16:26.751Z</time></trkpt><trkpt lat="45.8890727" lon="9.7967251"><ele>1229.5</ele><time>2026-04-25T09:16:27.751Z</time></trkpt><trkpt lat="45.8889439" lon="9.7966522"><ele>1226.25</ele><time>2026-04-25T09:16:28.751Z</time></trkpt><trkpt lat="45.8888197" lon="9.7966549"><ele>1223.0</ele><time>2026-04-25T09:16:29.75Z</time></trkpt><trkpt lat="45.8887144" lon="9.7967278"><ele>1226.25</ele><time>2026-04-25T09:16:30.75Z</time></trkpt><trkpt lat="45.8886115" lon="9.7968679"><ele>1229.5</ele><time>2026-04-25T09:16:31.751Z</time></trkpt><trkpt lat="45.8885156" lon="9.7970318"><ele>1232.75</ele><time>2026-04-25T09:16:32.751Z</time></trkpt><trkpt lat="45.8884214" lon="9.7971563"><ele>1236.0</ele><time>2026-04-25T09:16:33.751Z</time></trkpt><trkpt lat="45.8883056" lon="9.7972123"><ele>1240.25</ele><time>2026-04-25T09:16:34.751Z</time></trkpt><trkpt lat="45.888189" lon="9.7971803"><ele>1244.5</ele><time>2026-04-25T09:16:35.751Z</time></trkpt><trkpt lat="45.8880715" lon="9.7971079"><ele>1248.75</ele><time>2026-04-25T09:16:36.75Z</time></trkpt><trkpt lat="45.8879256" lon="9.7970836"><ele>1253.0</ele><time>2026-04-25T09:16:37.75Z</time></trkpt><trkpt lat="45.887798" lon="9.7970676"><ele>1253.0</ele><time>2026-04-25T09:16:38.751Z</time></trkpt><trkpt lat="45.887688" lon="9.7970163"><ele>1253.0</ele><time>2026-04-25T09:16:39.751Z</time></trkpt><trkpt lat="45.8876164" lon="9.796909"><ele>1253.0</ele><time>2026-04-25T09:16:40.751Z</time></trkpt><trkpt lat="45.887569" lon="9.7967617"><ele>1253.0</ele><time>2026-04-25T09:16:41.75Z</time></trkpt><trkpt lat="45.8875427" lon="9.7965561"><ele>1252.6</ele><time>2026-04-25T09:16:42.75Z</time></trkpt><trkpt lat="45.887505" lon="9.7963786"><ele>1252.1999999999998</ele><time>2026-04-25T09:16:43.751Z</time></trkpt><trkpt lat="45.887472" lon="9.7962511"><ele>1251.8</ele><time>2026-04-25T09:16:44.751Z</time></trkpt><trkpt lat="45.8874192" lon="9.7961777"><ele>1251.3999999999999</ele><time>2026-04-25T09:16:45.75Z</time></trkpt><trkpt lat="45.8873144" lon="9.7961882"><ele>1251.0</ele><time>2026-04-25T09:16:47.751Z</time></trkpt><trkpt lat="45.8872714" lon="9.796288"><ele>1251.0</ele><time>2026-04-25T09:16:49.75Z</time></trkpt><trkpt lat="45.8872629" lon="9.7964387"><ele>1251.0</ele><time>2026-04-25T09:16:51.751Z</time></trkpt><trkpt lat="45.8872614" lon="9.7965446"><ele>1251.0</ele><time>2026-04-25T09:16:52.75Z</time></trkpt><trkpt lat="45.8872526" lon="9.796667"><ele>1251.0</ele><time>2026-04-25T09:16:53.751Z</time></trkpt><trkpt lat="45.887245" lon="9.7967889"><ele>1251.0</ele><time>2026-04-25T09:16:54.751Z</time></trkpt><trkpt lat="45.8872373" lon="9.7969172"><ele>1251.0</ele><time>2026-04-25T09:16:55.751Z</time></trkpt><trkpt lat="45.8872274" lon="9.7970418"><ele>1252.5</ele><time>2026-04-25T09:16:56.75Z</time></trkpt><trkpt lat="45.8872166" lon="9.797151"><ele>1254.0</ele><time>2026-04-25T09:16:57.75Z</time></trkpt><trkpt lat="45.887208" lon="9.7972447"><ele>1255.5</ele><time>2026-04-25T09:16:58.751Z</time></trkpt><trkpt lat="45.8871947" lon="9.7973907"><ele>1257.0</ele><time>2026-04-25T09:17:00.751Z</time></trkpt><trkpt lat="45.8871748" lon="9.7975212"><ele>1258.5</ele><time>2026-04-25T09:17:02.751Z</time></trkpt><trkpt lat="45.887155" lon="9.7976193"><ele>1260.0</ele><time>2026-04-25T09:17:04.75Z</time></trkpt><trkpt lat="45.8871347" lon="9.7977321"><ele>1268.0</ele><time>2026-04-25T09:17:06.75Z</time></trkpt><trkpt lat="45.8871737" lon="9.7978323"><ele>1268.0</ele><time>2026-04-25T09:17:09.751Z</time></trkpt><trkpt lat="45.8872471" lon="9.7978847"><ele>1268.0</ele><time>2026-04-25T09:17:13.751Z</time></trkpt><trkpt lat="45.8873316" lon="9.7979344"><ele>1268.0</ele><time>2026-04-25T09:17:15.75Z</time></trkpt><trkpt lat="45.8873534" lon="9.7980633"><ele>1268.0</ele><time>2026-04-25T09:17:17.751Z</time></trkpt></trkseg><trkseg><trkpt lat="45.6936529" lon="9.6699492"><ele>252.0</ele><time>2026-04-25T11:35:50.724Z</time></trkpt><trkpt lat="45.6936933" lon="9.6700213"><ele>252.0</ele><time>2026-04-25T11:35:53.724Z</time></trkpt><trkpt lat="45.6936989" lon="9.6699204"><ele>252.0</ele><time>2026-04-25T11:35:58.725Z</time></trkpt><trkpt lat="45.6936675" lon="9.6698245"><ele>252.0</ele><time>2026-04-25T11:36:02.724Z</time></trkpt><trkpt lat="45.6936683" lon="9.6697221"><ele>252.0</ele><time>2026-04-25T11:36:17.724Z</time></trkpt><trkpt lat="45.6937257" lon="9.6696577"><ele>252.0</ele><time>2026-04-25T11:36:24.725Z</time></trkpt><trkpt lat="45.6937152" lon="9.6695282"><ele>252.0</ele><time>2026-04-25T11:36:26.725Z</time></trkpt><trkpt lat="45.6936562" lon="9.6693612"><ele>252.0</ele><time>2026-04-25T11:36:28.724Z</time></trkpt><trkpt lat="45.6936222" lon="9.6692637"><ele>252.0</ele><time>2026-04-25T11:36:29.725Z</time></trkpt><trkpt lat="45.6935912" lon="9.6691666"><ele>252.0</ele><time>2026-04-25T11:36:30.724Z</time></trkpt><trkpt lat="45.6935599" lon="9.6690682"><ele>252.0</ele><time>2026-04-25T11:36:31.725Z</time></trkpt><trkpt lat="45.6935277" lon="9.6689662"><ele>252.0</ele><time>2026-04-25T11:36:32.725Z</time></trkpt><trkpt lat="45.6934911" lon="9.6688578"><ele>252.0</ele><time>2026-04-25T11:36:33.725Z</time></trkpt><trkpt lat="45.6934528" lon="9.6687424"><ele>251.83333333333334</ele><time>2026-04-25T11:36:34.724Z</time></trkpt><trkpt lat="45.6934127" lon="9.6686225"><ele>251.66666666666669</ele><time>2026-04-25T11:36:35.725Z</time></trkpt><trkpt lat="45.6933739" lon="9.6685074"><ele>251.5</ele><time>2026-04-25T11:36:36.725Z</time></trkpt><trkpt lat="45.6933341" lon="9.6683944"><ele>251.33333333333334</ele><time>2026-04-25T11:36:37.724Z</time></trkpt><trkpt lat="45.6932945" lon="9.6682878"><ele>251.16666666666669</ele><time>2026-04-25T11:36:38.724Z</time></trkpt><trkpt lat="45.6932555" lon="9.6681846"><ele>251.0</ele><time>2026-04-25T11:36:39.725Z</time></trkpt><trkpt lat="45.693222" lon="9.6680896"><ele>251.60000000000002</ele><time>2026-04-25T11:36:40.725Z</time></trkpt><trkpt lat="45.6931765" lon="9.6679587"><ele>252.20000000000002</ele><time>2026-04-25T11:36:42.725Z</time></trkpt><trkpt lat="45.6931439" lon="9.6678665"><ele>252.79999999999998</ele><time>2026-04-25T11:36:46.724Z</time></trkpt><trkpt lat="45.6930889" lon="9.6677422"><ele>253.39999999999998</ele><time>2026-04-25T11:37:06.724Z</time></trkpt><trkpt lat="45.69304" lon="9.6676041"><ele>254.0</ele><time>2026-04-25T11:37:08.724Z</time></trkpt><trkpt lat="45.6929899" lon="9.6674739"><ele>254.39999999999998</ele><time>2026-04-25T11:37:10.725Z</time></trkpt><trkpt lat="45.6929269" lon="9.6673464"><ele>254.79999999999998</ele><time>2026-04-25T11:37:12.724Z</time></trkpt><trkpt lat="45.6928447" lon="9.6672434"><ele>255.20000000000002</ele><time>2026-04-25T11:37:14.725Z</time></trkpt><trkpt lat="45.6927476" lon="9.6671861"><ele>255.60000000000002</ele><time>2026-04-25T11:37:16.725Z</time></trkpt><trkpt lat="45.6926388" lon="9.6671805"><ele>256.0</ele><time>2026-04-25T11:37:18.724Z</time></trkpt><trkpt lat="45.6925146" lon="9.667194"><ele>255.0</ele><time>2026-04-25T11:37:20.724Z</time></trkpt><trkpt lat="45.6924466" lon="9.6671982"><ele>254.00000000000003</ele><time>2026-04-25T11:37:21.725Z</time></trkpt><trkpt lat="45.6923772" lon="9.6671982"><ele>253.00000000000003</ele><time>2026-04-25T11:37:22.724Z</time></trkpt><trkpt lat="45.6922981" lon="9.6671929"><ele>252.0</ele><time>2026-04-25T11:37:23.724Z</time></trkpt><trkpt lat="45.6921765" lon="9.6671474"><ele>251.0</ele><time>2026-04-25T11:37:25.725Z</time></trkpt><trkpt lat="45.6920596" lon="9.6670873"><ele>251.0</ele><time>2026-04-25T11:37:27.724Z</time></trkpt><trkpt lat="45.692" lon="9.6670514"><ele>251.00000000000003</ele><time>2026-04-25T11:37:28.725Z</time></trkpt><trkpt lat="45.6918995" lon="9.6669706"><ele>251.00000000000003</ele><time>2026-04-25T11:37:30.725Z</time></trkpt><trkpt lat="45.6917974" lon="9.6668852"><ele>251.0</ele><time>2026-04-25T11:37:32.724Z</time></trkpt><trkpt lat="45.6916931" lon="9.6668058"><ele>251.0</ele><time>2026-04-25T11:37:34.725Z</time></trkpt><trkpt lat="45.6916107" lon="9.6667429"><ele>250.8</ele><time>2026-04-25T11:37:36.724Z</time></trkpt><trkpt lat="45.6915424" lon="9.6666854"><ele>250.60000000000002</ele><time>2026-04-25T11:37:39.725Z</time></trkpt><trkpt lat="45.6914483" lon="9.6666141"><ele>250.4</ele><time>2026-04-25T11:37:59.725Z</time></trkpt><trkpt lat="45.6913629" lon="9.6665419"><ele>250.2</ele><time>2026-04-25T11:38:00.724Z</time></trkpt><trkpt lat="45.691251" lon="9.6664538"><ele>250.0</ele><time>2026-04-25T11:38:01.724Z</time></trkpt><trkpt lat="45.6911062" lon="9.6663517"><ele>250.0</ele><time>2026-04-25T11:38:02.724Z</time></trkpt><trkpt lat="45.690951" lon="9.6662468"><ele>250.0</ele><time>2026-04-25T11:38:03.724Z</time></trkpt><trkpt lat="45.6908098" lon="9.6661471"><ele>250.0</ele><time>2026-04-25T11:38:04.725Z</time></trkpt><trkpt lat="45.6906737" lon="9.6660579"><ele>250.0</ele><time>2026-04-25T11:38:05.725Z</time></trkpt><trkpt lat="45.69054" lon="9.6659709"><ele>250.0</ele><time>2026-04-25T11:38:06.724Z</time></trkpt><trkpt lat="45.6904136" lon="9.6658831"><ele>250.0</ele><time>2026-04-25T11:38:07.724Z</time></trkpt><trkpt lat="45.6902925" lon="9.665801"><ele>250.0</ele><time>2026-04-25T11:38:08.724Z</time></trkpt><trkpt lat="45.6901793" lon="9.6657238"><ele>249.75</ele><time>2026-04-25T11:38:09.725Z</time></trkpt><trkpt lat="45.6900711" lon="9.6656504"><ele>249.5</ele><time>2026-04-25T11:38:10.724Z</time></trkpt><trkpt lat="45.6899673" lon="9.6655788"><ele>249.25</ele><time>2026-04-25T11:38:11.724Z</time></trkpt><trkpt lat="45.6898677" lon="9.665508"><ele>249.0</ele><time>2026-04-25T11:38:12.724Z</time></trkpt><trkpt lat="45.6897724" lon="9.6654422"><ele>249.0</ele><time>2026-04-25T11:38:13.725Z</time></trkpt><trkpt lat="45.6896802" lon="9.6653776"><ele>248.99999999999997</ele><time>2026-04-25T11:38:14.724Z</time></trkpt><trkpt lat="45.6895893" lon="9.6653152"><ele>248.99999999999997</ele><time>2026-04-25T11:38:15.725Z</time></trkpt><trkpt lat="45.6894978" lon="9.6652513"><ele>249.0</ele><time>2026-04-25T11:38:16.725Z</time></trkpt><trkpt lat="45.6894005" lon="9.6651823"><ele>249.0</ele><time>2026-04-25T11:38:17.724Z</time></trkpt><trkpt lat="45.6893045" lon="9.6651176"><ele>248.79999999999998</ele><time>2026-04-25T11:38:18.724Z</time></trkpt><trkpt lat="45.689212" lon="9.6650532"><ele>248.59999999999997</ele><time>2026-04-25T11:38:19.725Z</time></trkpt><trkpt lat="45.6891223" lon="9.6649877"><ele>248.4</ele><time>2026-04-25T11:38:20.724Z</time></trkpt><trkpt lat="45.6890331" lon="9.6649254"><ele>248.2</ele><time>2026-04-25T11:38:21.725Z</time></trkpt><trkpt lat="45.6889459" lon="9.6648647"><ele>248.0</ele><time>2026-04-25T11:38:22.725Z</time></trkpt><trkpt lat="45.6888627" lon="9.6648024"><ele>248.00000000000003</ele><time>2026-04-25T11:38:23.724Z</time></trkpt><trkpt lat="45.6887887" lon="9.6647537"><ele>248.0</ele><time>2026-04-25T11:38:24.725Z</time></trkpt><trkpt lat="45.6887163" lon="9.664705"><ele>248.0</ele><time>2026-04-25T11:38:25.724Z</time></trkpt><trkpt lat="45.6886512" lon="9.6646392"><ele>248.0</ele><time>2026-04-25T11:38:26.724Z</time></trkpt><trkpt lat="45.6885972" lon="9.6645457"><ele>248.00000000000003</ele><time>2026-04-25T11:38:27.724Z</time></trkpt><trkpt lat="45.6885549" lon="9.6644373"><ele>248.0</ele><time>2026-04-25T11:38:28.724Z</time></trkpt><trkpt lat="45.6885245" lon="9.664332"><ele>247.2</ele><time>2026-04-25T11:38:29.724Z</time></trkpt><trkpt lat="45.688496" lon="9.664227"><ele>246.4</ele><time>2026-04-25T11:38:30.725Z</time></trkpt><trkpt lat="45.6884605" lon="9.6641107"><ele>245.59999999999997</ele><time>2026-04-25T11:38:31.724Z</time></trkpt><trkpt lat="45.6884237" lon="9.6639789"><ele>244.79999999999998</ele><time>2026-04-25T11:38:32.725Z</time></trkpt><trkpt lat="45.6883956" lon="9.66385"><ele>244.0</ele><time>2026-04-25T11:38:33.725Z</time></trkpt><trkpt lat="45.6883733" lon="9.6637155"><ele>244.2</ele><time>2026-04-25T11:38:34.724Z</time></trkpt><trkpt lat="45.6883621" lon="9.6635707"><ele>244.39999999999998</ele><time>2026-04-25T11:38:35.725Z</time></trkpt><trkpt lat="45.6883635" lon="9.6634326"><ele>244.6</ele><time>2026-04-25T11:38:36.724Z</time></trkpt><trkpt lat="45.6883672" lon="9.6632967"><ele>244.8</ele><time>2026-04-25T11:38:37.724Z</time></trkpt><trkpt lat="45.6883763" lon="9.6631625"><ele>245.0</ele><time>2026-04-25T11:38:38.725Z</time></trkpt><trkpt lat="45.68839" lon="9.6630275"><ele>245.0</ele><time>2026-04-25T11:38:39.725Z</time></trkpt><trkpt lat="45.6884085" lon="9.6628924"><ele>245.0</ele><time>2026-04-25T11:38:40.724Z</time></trkpt><trkpt lat="45.6884283" lon="9.6627571"><ele>245.0</ele><time>2026-04-25T11:38:41.725Z</time></trkpt><trkpt lat="45.6884546" lon="9.6626227"><ele>245.0</ele><time>2026-04-25T11:38:42.725Z</time></trkpt><trkpt lat="45.6884901" lon="9.6624937"><ele>245.0</ele><time>2026-04-25T11:38:43.724Z</time></trkpt><trkpt lat="45.6885442" lon="9.6623774"><ele>244.8</ele><time>2026-04-25T11:38:44.725Z</time></trkpt><trkpt lat="45.6886011" lon="9.6622665"><ele>244.6</ele><time>2026-04-25T11:38:45.725Z</time></trkpt><trkpt lat="45.6886603" lon="9.6621588"><ele>244.39999999999998</ele><time>2026-04-25T11:38:46.724Z</time></trkpt><trkpt lat="45.6887205" lon="9.6620534"><ele>244.2</ele><time>2026-04-25T11:38:47.724Z</time></trkpt><trkpt lat="45.6887864" lon="9.6619498"><ele>244.0</ele><time>2026-04-25T11:38:48.724Z</time></trkpt><trkpt lat="45.6888555" lon="9.6618461"><ele>244.0</ele><time>2026-04-25T11:38:49.724Z</time></trkpt><trkpt lat="45.688925" lon="9.6617449"><ele>243.99999999999997</ele><time>2026-04-25T11:38:50.725Z</time></trkpt><trkpt lat="45.6889935" lon="9.6616454"><ele>243.99999999999997</ele><time>2026-04-25T11:38:51.724Z</time></trkpt><trkpt lat="45.6890629" lon="9.6615489"><ele>244.0</ele><time>2026-04-25T11:38:52.724Z</time></trkpt><trkpt lat="45.6891329" lon="9.6614585"><ele>244.0</ele><time>2026-04-25T11:38:53.724Z</time></trkpt><trkpt lat="45.6892063" lon="9.6613747"><ele>244.0</ele><time>2026-04-25T11:38:54.724Z</time></trkpt><trkpt lat="45.6892852" lon="9.6612905"><ele>243.99999999999997</ele><time>2026-04-25T11:38:55.724Z</time></trkpt><trkpt lat="45.6893716" lon="9.6612066"><ele>243.99999999999997</ele><time>2026-04-25T11:38:56.724Z</time></trkpt><trkpt lat="45.6894641" lon="9.6611217"><ele>244.0</ele><time>2026-04-25T11:38:57.724Z</time></trkpt><trkpt lat="45.6895599" lon="9.6610357"><ele>244.0</ele><time>2026-04-25T11:38:58.724Z</time></trkpt><trkpt lat="45.6896595" lon="9.660955"><ele>244.25</ele><time>2026-04-25T11:38:59.724Z</time></trkpt><trkpt lat="45.6897608" lon="9.6608764"><ele>244.5</ele><time>2026-04-25T11:39:00.725Z</time></trkpt><trkpt lat="45.689863" lon="9.6607982"><ele>244.75</ele><time>2026-04-25T11:39:01.725Z</time></trkpt><trkpt lat="45.6899732" lon="9.6607141"><ele>245.0</ele><time>2026-04-25T11:39:02.725Z</time></trkpt><trkpt lat="45.6900923" lon="9.6606263"><ele>245.0</ele><time>2026-04-25T11:39:03.724Z</time></trkpt><trkpt lat="45.6902151" lon="9.6605342"><ele>245.0</ele><time>2026-04-25T11:39:04.724Z</time></trkpt><trkpt lat="45.6903431" lon="9.6604409"><ele>245.0</ele><time>2026-04-25T11:39:05.724Z</time></trkpt><trkpt lat="45.6904734" lon="9.6603442"><ele>245.0</ele><time>2026-04-25T11:39:06.724Z</time></trkpt><trkpt lat="45.6906037" lon="9.6602483"><ele>245.25</ele><time>2026-04-25T11:39:07.724Z</time></trkpt><trkpt lat="45.6907274" lon="9.6601562"><ele>245.5</ele><time>2026-04-25T11:39:08.724Z</time></trkpt><trkpt lat="45.6908468" lon="9.6600626"><ele>245.75</ele><time>2026-04-25T11:39:09.724Z</time></trkpt><trkpt lat="45.6909681" lon="9.6599717"><ele>246.0</ele><time>2026-04-25T11:39:10.724Z</time></trkpt><trkpt lat="45.6910923" lon="9.6598823"><ele>246.0</ele><time>2026-04-25T11:39:11.725Z</time></trkpt><trkpt lat="45.6912189" lon="9.659796"><ele>246.0</ele><time>2026-04-25T11:39:12.725Z</time></trkpt><trkpt lat="45.6913461" lon="9.6597147"><ele>246.0</ele><time>2026-04-25T11:39:13.724Z</time></trkpt><trkpt lat="45.6914694" lon="9.6596343"><ele>246.0</ele><time>2026-04-25T11:39:14.725Z</time></trkpt><trkpt lat="45.691591" lon="9.6595535"><ele>246.0</ele><time>2026-04-25T11:39:15.725Z</time></trkpt><trkpt lat="45.6917076" lon="9.6594675"><ele>246.0</ele><time>2026-04-25T11:39:16.724Z</time></trkpt><trkpt lat="45.6918199" lon="9.659387"><ele>246.0</ele><time>2026-04-25T11:39:17.725Z</time></trkpt><trkpt lat="45.69192" lon="9.6593242"><ele>246.0</ele><time>2026-04-25T11:39:18.724Z</time></trkpt><trkpt lat="45.6920088" lon="9.659265"><ele>245.66666666666666</ele><time>2026-04-25T11:39:19.724Z</time></trkpt><trkpt lat="45.6920824" lon="9.6592133"><ele>245.33333333333331</ele><time>2026-04-25T11:39:20.725Z</time></trkpt><trkpt lat="45.6921427" lon="9.6591693"><ele>245.0</ele><time>2026-04-25T11:39:21.725Z</time></trkpt><trkpt lat="45.6922046" lon="9.6591176"><ele>244.66666666666666</ele><time>2026-04-25T11:39:22.724Z</time></trkpt><trkpt lat="45.6922704" lon="9.6590613"><ele>244.33333333333331</ele><time>2026-04-25T11:39:23.724Z</time></trkpt><trkpt lat="45.6923426" lon="9.6590089"><ele>244.0</ele><time>2026-04-25T11:39:24.725Z</time></trkpt><trkpt lat="45.6924138" lon="9.6589597"><ele>243.99999999999997</ele><time>2026-04-25T11:39:25.724Z</time></trkpt><trkpt lat="45.6924814" lon="9.6589094"><ele>244.0</ele><time>2026-04-25T11:39:26.724Z</time></trkpt><trkpt lat="45.6925419" lon="9.6588646"><ele>243.99999999999997</ele><time>2026-04-25T11:39:27.724Z</time></trkpt><trkpt lat="45.6926017" lon="9.6588192"><ele>243.99999999999997</ele><time>2026-04-25T11:39:28.724Z</time></trkpt><trkpt lat="45.6926643" lon="9.6587654"><ele>244.0</ele><time>2026-04-25T11:39:29.724Z</time></trkpt><trkpt lat="45.6927227" lon="9.6586925"><ele>243.99999999999997</ele><time>2026-04-25T11:39:30.725Z</time></trkpt><trkpt lat="45.6927591" lon="9.6585874"><ele>243.99999999999997</ele><time>2026-04-25T11:39:31.724Z</time></trkpt><trkpt lat="45.6927811" lon="9.6584719"><ele>244.39999999999998</ele><time>2026-04-25T11:39:32.725Z</time></trkpt><trkpt lat="45.6927905" lon="9.6583493"><ele>244.79999999999998</ele><time>2026-04-25T11:39:33.724Z</time></trkpt><trkpt lat="45.6928008" lon="9.6582188"><ele>245.20000000000002</ele><time>2026-04-25T11:39:34.724Z</time></trkpt><trkpt lat="45.6928153" lon="9.6580852"><ele>245.60000000000002</ele><time>2026-04-25T11:39:35.724Z</time></trkpt><trkpt lat="45.6928278" lon="9.6579556"><ele>246.0</ele><time>2026-04-25T11:39:36.725Z</time></trkpt><trkpt lat="45.6928423" lon="9.6578327"><ele>245.5</ele><time>2026-04-25T11:39:37.725Z</time></trkpt><trkpt lat="45.6928561" lon="9.6577201"><ele>245.0</ele><time>2026-04-25T11:39:38.725Z</time></trkpt><trkpt lat="45.6928692" lon="9.6576273"><ele>244.5</ele><time>2026-04-25T11:39:39.724Z</time></trkpt><trkpt lat="45.6928804" lon="9.6575193"><ele>244.0</ele><time>2026-04-25T11:39:41.724Z</time></trkpt><trkpt lat="45.692838" lon="9.6574242"><ele>243.5</ele><time>2026-04-25T11:39:44.724Z</time></trkpt><trkpt lat="45.6927334" lon="9.6574336"><ele>243.0</ele><time>2026-04-25T11:39:46.725Z</time></trkpt><trkpt lat="45.6926639" lon="9.657422"><ele>242.66666666666666</ele><time>2026-04-25T11:39:47.725Z</time></trkpt><trkpt lat="45.6925955" lon="9.6574039"><ele>242.33333333333331</ele><time>2026-04-25T11:39:48.725Z</time></trkpt><trkpt lat="45.6925154" lon="9.6573848"><ele>242.0</ele><time>2026-04-25T11:39:49.724Z</time></trkpt><trkpt lat="45.6924283" lon="9.6573642"><ele>241.66666666666666</ele><time>2026-04-25T11:39:50.724Z</time></trkpt><trkpt lat="45.6923393" lon="9.657347"><ele>241.33333333333331</ele><time>2026-04-25T11:39:51.725Z</time></trkpt><trkpt lat="45.6922474" lon="9.6573306"><ele>241.0</ele><time>2026-04-25T11:39:52.724Z</time></trkpt><trkpt lat="45.692155" lon="9.6573125"><ele>241.0</ele><time>2026-04-25T11:39:53.724Z</time></trkpt><trkpt lat="45.6920611" lon="9.6572975"><ele>241.00000000000003</ele><time>2026-04-25T11:39:54.724Z</time></trkpt><trkpt lat="45.6919683" lon="9.6572768"><ele>241.00000000000003</ele><time>2026-04-25T11:39:55.725Z</time></trkpt><trkpt lat="45.6918748" lon="9.6572591"><ele>241.0</ele><time>2026-04-25T11:39:56.725Z</time></trkpt><trkpt lat="45.6917822" lon="9.6572438"><ele>241.0</ele><time>2026-04-25T11:39:57.724Z</time></trkpt><trkpt lat="45.6916868" lon="9.6572266"><ele>241.20000000000002</ele><time>2026-04-25T11:39:58.725Z</time></trkpt><trkpt lat="45.6915917" lon="9.657206"><ele>241.40000000000003</ele><time>2026-04-25T11:39:59.725Z</time></trkpt><trkpt lat="45.6914983" lon="9.6571876"><ele>241.6</ele><time>2026-04-25T11:40:00.725Z</time></trkpt><trkpt lat="45.6914042" lon="9.6571686"><ele>241.8</ele><time>2026-04-25T11:40:01.725Z</time></trkpt><trkpt lat="45.6913104" lon="9.6571482"><ele>242.0</ele><time>2026-04-25T11:40:02.724Z</time></trkpt><trkpt lat="45.6912226" lon="9.6571265"><ele>242.00000000000003</ele><time>2026-04-25T11:40:03.724Z</time></trkpt><trkpt lat="45.6911449" lon="9.6571019"><ele>242.0</ele><time>2026-04-25T11:40:04.725Z</time></trkpt><trkpt lat="45.6910757" lon="9.6570699"><ele>242.0</ele><time>2026-04-25T11:40:05.724Z</time></trkpt><trkpt lat="45.6910139" lon="9.6570248"><ele>242.0</ele><time>2026-04-25T11:40:06.724Z</time></trkpt><trkpt lat="45.6909417" lon="9.6569894"><ele>242.00000000000003</ele><time>2026-04-25T11:40:07.725Z</time></trkpt><trkpt lat="45.6908632" lon="9.6569864"><ele>242.0</ele><time>2026-04-25T11:40:08.724Z</time></trkpt><trkpt lat="45.6907795" lon="9.6570033"><ele>241.66666666666669</ele><time>2026-04-25T11:40:09.724Z</time></trkpt><trkpt lat="45.6906951" lon="9.6570107"><ele>241.33333333333334</ele><time>2026-04-25T11:40:10.725Z</time></trkpt><trkpt lat="45.6906097" lon="9.6569984"><ele>241.0</ele><time>2026-04-25T11:40:11.724Z</time></trkpt><trkpt lat="45.6905243" lon="9.6569831"><ele>240.66666666666669</ele><time>2026-04-25T11:40:12.725Z</time></trkpt><trkpt lat="45.6904433" lon="9.656968"><ele>240.33333333333334</ele><time>2026-04-25T11:40:13.724Z</time></trkpt><trkpt lat="45.6903625" lon="9.6569481"><ele>240.0</ele><time>2026-04-25T11:40:14.724Z</time></trkpt><trkpt lat="45.6902864" lon="9.6569005"><ele>239.6</ele><time>2026-04-25T11:40:15.725Z</time></trkpt><trkpt lat="45.6902163" lon="9.6568238"><ele>239.2</ele><time>2026-04-25T11:40:16.724Z</time></trkpt><trkpt lat="45.6901475" lon="9.6567292"><ele>238.8</ele><time>2026-04-25T11:40:17.725Z</time></trkpt><trkpt lat="45.6900792" lon="9.6566304"><ele>238.4</ele><time>2026-04-25T11:40:18.724Z</time></trkpt><trkpt lat="45.6900077" lon="9.6565259"><ele>238.0</ele><time>2026-04-25T11:40:19.724Z</time></trkpt><trkpt lat="45.6899372" lon="9.6564217"><ele>237.99999999999997</ele><time>2026-04-25T11:40:20.725Z</time></trkpt><trkpt lat="45.6898644" lon="9.656321"><ele>238.0</ele><time>2026-04-25T11:40:21.725Z</time></trkpt><trkpt lat="45.6897896" lon="9.6562305"><ele>238.0</ele><time>2026-04-25T11:40:22.725Z</time></trkpt><trkpt lat="45.6897148" lon="9.656163"><ele>238.0</ele><time>2026-04-25T11:40:23.724Z</time></trkpt><trkpt lat="45.6896429" lon="9.6561114"><ele>237.99999999999997</ele><time>2026-04-25T11:40:24.725Z</time></trkpt><trkpt lat="45.6895694" lon="9.6560763"><ele>238.0</ele><time>2026-04-25T11:40:25.724Z</time></trkpt><trkpt lat="45.6894936" lon="9.656057"><ele>237.57142857142856</ele><time>2026-04-25T11:40:26.724Z</time></trkpt><trkpt lat="45.6894193" lon="9.6560435"><ele>237.14285714285714</ele><time>2026-04-25T11:40:27.725Z</time></trkpt><trkpt lat="45.6893486" lon="9.6560313"><ele>236.71428571428572</ele><time>2026-04-25T11:40:28.724Z</time></trkpt><trkpt lat="45.6892839" lon="9.6559942"><ele>236.28571428571428</ele><time>2026-04-25T11:40:29.725Z</time></trkpt><trkpt lat="45.6892319" lon="9.6558927"><ele>235.85714285714283</ele><time>2026-04-25T11:40:31.725Z</time></trkpt><trkpt lat="45.6892161" lon="9.6558043"><ele>235.42857142857142</ele><time>2026-04-25T11:41:02.724Z</time></trkpt><trkpt lat="45.6892113" lon="9.6557002"><ele>235.0</ele><time>2026-04-25T11:41:03.724Z</time></trkpt><trkpt lat="45.6892028" lon="9.6555746"><ele>235.0</ele><time>2026-04-25T11:41:04.724Z</time></trkpt><trkpt lat="45.6891941" lon="9.6554181"><ele>235.0</ele><time>2026-04-25T11:41:05.724Z</time></trkpt><trkpt lat="45.6891857" lon="9.655243"><ele>235.0</ele><time>2026-04-25T11:41:06.724Z</time></trkpt><trkpt lat="45.6891768" lon="9.6550488"><ele>235.0</ele><time>2026-04-25T11:41:07.725Z</time></trkpt><trkpt lat="45.6891678" lon="9.6548373"><ele>235.66666666666666</ele><time>2026-04-25T11:41:08.725Z</time></trkpt><trkpt lat="45.6891603" lon="9.6546092"><ele>236.33333333333331</ele><time>2026-04-25T11:41:09.724Z</time></trkpt><trkpt lat="45.6891533" lon="9.6543528"><ele>237.0</ele><time>2026-04-25T11:41:10.724Z</time></trkpt><trkpt lat="45.6891503" lon="9.6540595"><ele>237.0</ele><time>2026-04-25T11:41:11.725Z</time></trkpt><trkpt lat="45.6891526" lon="9.6537446"><ele>237.0</ele><time>2026-04-25T11:41:12.724Z</time></trkpt><trkpt lat="45.6891527" lon="9.6533853"><ele>236.0</ele><time>2026-04-25T11:41:13.705Z</time></trkpt><trkpt lat="45.6891515" lon="9.6530625"><ele>235.0</ele><time>2026-04-25T11:41:14.707Z</time></trkpt><trkpt lat="45.6891558" lon="9.6527277"><ele>235.0</ele><time>2026-04-25T11:41:15.706Z</time></trkpt><trkpt lat="45.6891575" lon="9.6524036"><ele>235.0</ele><time>2026-04-25T11:41:16.706Z</time></trkpt><trkpt lat="45.6891599" lon="9.6520908"><ele>235.0</ele><time>2026-04-25T11:41:17.705Z</time></trkpt><trkpt lat="45.6891617" lon="9.651784"><ele>234.33333333333331</ele><time>2026-04-25T11:41:18.708Z</time></trkpt><trkpt lat="45.689164" lon="9.6514783"><ele>233.66666666666669</ele><time>2026-04-25T11:41:19.707Z</time></trkpt><trkpt lat="45.6891674" lon="9.6511779"><ele>233.0</ele><time>2026-04-25T11:41:20.707Z</time></trkpt><trkpt lat="45.6891691" lon="9.6508833"><ele>232.33333333333334</ele><time>2026-04-25T11:41:21.708Z</time></trkpt><trkpt lat="45.6891728" lon="9.6505926"><ele>231.66666666666669</ele><time>2026-04-25T11:41:22.707Z</time></trkpt><trkpt lat="45.6891741" lon="9.6503084"><ele>231.0</ele><time>2026-04-25T11:41:23.708Z</time></trkpt><trkpt lat="45.689176" lon="9.6500306"><ele>230.33333333333331</ele><time>2026-04-25T11:41:24.708Z</time></trkpt><trkpt lat="45.6891777" lon="9.649759"><ele>229.66666666666666</ele><time>2026-04-25T11:41:25.707Z</time></trkpt><trkpt lat="45.6891793" lon="9.6494994"><ele>229.0</ele><time>2026-04-25T11:41:26.707Z</time></trkpt><trkpt lat="45.6891806" lon="9.6492493"><ele>229.0</ele><time>2026-04-25T11:41:27.708Z</time></trkpt><trkpt lat="45.6891813" lon="9.6490079"><ele>229.0</ele><time>2026-04-25T11:41:28.707Z</time></trkpt><trkpt lat="45.6891829" lon="9.6487574"><ele>229.0</ele><time>2026-04-25T11:41:29.708Z</time></trkpt><trkpt lat="45.6891843" lon="9.6485336"><ele>229.66666666666666</ele><time>2026-04-25T11:41:30.707Z</time></trkpt><trkpt lat="45.6891857" lon="9.6482879"><ele>230.33333333333331</ele><time>2026-04-25T11:41:31.707Z</time></trkpt><trkpt lat="45.6891873" lon="9.6480374"><ele>231.0</ele><time>2026-04-25T11:41:32.707Z</time></trkpt><trkpt lat="45.6891876" lon="9.6477837"><ele>231.66666666666669</ele><time>2026-04-25T11:41:33.708Z</time></trkpt><trkpt lat="45.6891842" lon="9.6475289"><ele>232.33333333333334</ele><time>2026-04-25T11:41:34.708Z</time></trkpt><trkpt lat="45.6891784" lon="9.6472721"><ele>233.0</ele><time>2026-04-25T11:41:35.708Z</time></trkpt><trkpt lat="45.6891747" lon="9.6470135"><ele>232.66666666666669</ele><time>2026-04-25T11:41:36.708Z</time></trkpt><trkpt lat="45.6891733" lon="9.6467539"><ele>232.33333333333331</ele><time>2026-04-25T11:41:37.708Z</time></trkpt><trkpt lat="45.6891749" lon="9.6464956"><ele>232.0</ele><time>2026-04-25T11:41:38.708Z</time></trkpt><trkpt lat="45.6891786" lon="9.6462414"><ele>231.0</ele><time>2026-04-25T11:41:39.707Z</time></trkpt><trkpt lat="45.6891831" lon="9.645988"><ele>230.0</ele><time>2026-04-25T11:41:40.708Z</time></trkpt><trkpt lat="45.6891899" lon="9.6457332"><ele>229.0</ele><time>2026-04-25T11:41:41.708Z</time></trkpt><trkpt lat="45.6891985" lon="9.6454778"><ele>229.33333333333331</ele><time>2026-04-25T11:41:42.707Z</time></trkpt><trkpt lat="45.6892073" lon="9.6452168"><ele>229.66666666666669</ele><time>2026-04-25T11:41:43.708Z</time></trkpt><trkpt lat="45.6892119" lon="9.6449561"><ele>230.0</ele><time>2026-04-25T11:41:44.708Z</time></trkpt><trkpt lat="45.6892125" lon="9.6446721"><ele>230.33333333333334</ele><time>2026-04-25T11:41:45.708Z</time></trkpt><trkpt lat="45.6892103" lon="9.644411"><ele>230.66666666666669</ele><time>2026-04-25T11:41:46.708Z</time></trkpt><trkpt lat="45.6892065" lon="9.6441157"><ele>231.0</ele><time>2026-04-25T11:41:47.707Z</time></trkpt><trkpt lat="45.6892046" lon="9.6438154"><ele>231.33333333333331</ele><time>2026-04-25T11:41:48.707Z</time></trkpt><trkpt lat="45.6892048" lon="9.6435101"><ele>231.66666666666666</ele><time>2026-04-25T11:41:49.708Z</time></trkpt><trkpt lat="45.6892083" lon="9.6431993"><ele>232.0</ele><time>2026-04-25T11:41:50.708Z</time></trkpt><trkpt lat="45.6892175" lon="9.6428685"><ele>232.5</ele><time>2026-04-25T11:41:51.707Z</time></trkpt><trkpt lat="45.6892292" lon="9.6425272"><ele>233.0</ele><time>2026-04-25T11:41:52.708Z</time></trkpt><trkpt lat="45.6892385" lon="9.6421879"><ele>233.5</ele><time>2026-04-25T11:41:53.708Z</time></trkpt><trkpt lat="45.6892443" lon="9.6418538"><ele>234.0</ele><time>2026-04-25T11:41:54.708Z</time></trkpt><trkpt lat="45.6892475" lon="9.6415289"><ele>234.0</ele><time>2026-04-25T11:41:55.707Z</time></trkpt><trkpt lat="45.6892502" lon="9.6412126"><ele>234.0</ele><time>2026-04-25T11:41:56.707Z</time></trkpt><trkpt lat="45.689253" lon="9.6409035"><ele>234.0</ele><time>2026-04-25T11:41:57.708Z</time></trkpt><trkpt lat="45.6892576" lon="9.6405976"><ele>233.0</ele><time>2026-04-25T11:41:58.708Z</time></trkpt><trkpt lat="45.6892657" lon="9.6402928"><ele>232.0</ele><time>2026-04-25T11:41:59.708Z</time></trkpt><trkpt lat="45.6892799" lon="9.6399849"><ele>231.0</ele><time>2026-04-25T11:42:00.708Z</time></trkpt><trkpt lat="45.6893025" lon="9.63965"><ele>231.0</ele><time>2026-04-25T11:42:01.708Z</time></trkpt><trkpt lat="45.6893289" lon="9.6393515"><ele>231.0</ele><time>2026-04-25T11:42:02.707Z</time></trkpt><trkpt lat="45.6893618" lon="9.6390316"><ele>231.0</ele><time>2026-04-25T11:42:03.708Z</time></trkpt><trkpt lat="45.689399" lon="9.6387127"><ele>230.5</ele><time>2026-04-25T11:42:04.708Z</time></trkpt><trkpt lat="45.6894393" lon="9.6383952"><ele>230.0</ele><time>2026-04-25T11:42:05.708Z</time></trkpt><trkpt lat="45.6894825" lon="9.6380787"><ele>230.66666666666669</ele><time>2026-04-25T11:42:06.707Z</time></trkpt><trkpt lat="45.6895264" lon="9.6377654"><ele>231.33333333333331</ele><time>2026-04-25T11:42:07.707Z</time></trkpt><trkpt lat="45.6895697" lon="9.6374573"><ele>232.0</ele><time>2026-04-25T11:42:08.707Z</time></trkpt><trkpt lat="45.689612" lon="9.6371546"><ele>232.66666666666666</ele><time>2026-04-25T11:42:09.707Z</time></trkpt><trkpt lat="45.6896531" lon="9.6368593"><ele>233.33333333333331</ele><time>2026-04-25T11:42:10.708Z</time></trkpt><trkpt lat="45.6896929" lon="9.6365678"><ele>234.0</ele><time>2026-04-25T11:42:11.707Z</time></trkpt><trkpt lat="45.6897327" lon="9.6362865"><ele>235.0</ele><time>2026-04-25T11:42:12.708Z</time></trkpt><trkpt lat="45.6897723" lon="9.6360072"><ele>236.0</ele><time>2026-04-25T11:42:13.708Z</time></trkpt><trkpt lat="45.6898122" lon="9.6357308"><ele>237.0</ele><time>2026-04-25T11:42:14.708Z</time></trkpt><trkpt lat="45.6898522" lon="9.6354521"><ele>237.33333333333331</ele><time>2026-04-25T11:42:15.707Z</time></trkpt><trkpt lat="45.6898923" lon="9.6351764"><ele>237.66666666666666</ele><time>2026-04-25T11:42:16.707Z</time></trkpt><trkpt lat="45.6899334" lon="9.6348911"><ele>238.0</ele><time>2026-04-25T11:42:17.707Z</time></trkpt><trkpt lat="45.6899699" lon="9.6346435"><ele>239.0</ele><time>2026-04-25T11:42:18.708Z</time></trkpt><trkpt lat="45.6900076" lon="9.6343831"><ele>240.0</ele><time>2026-04-25T11:42:19.708Z</time></trkpt><trkpt lat="45.6900441" lon="9.6341294"><ele>241.0</ele><time>2026-04-25T11:42:20.707Z</time></trkpt><trkpt lat="45.6900795" lon="9.6338829"><ele>241.33333333333331</ele><time>2026-04-25T11:42:21.707Z</time></trkpt><trkpt lat="45.6901147" lon="9.6336374"><ele>241.66666666666669</ele><time>2026-04-25T11:42:22.707Z</time></trkpt><trkpt lat="45.6901504" lon="9.6333938"><ele>242.0</ele><time>2026-04-25T11:42:23.707Z</time></trkpt><trkpt lat="45.6901853" lon="9.633157"><ele>242.0</ele><time>2026-04-25T11:42:24.707Z</time></trkpt><trkpt lat="45.69022" lon="9.6329304"><ele>242.0</ele><time>2026-04-25T11:42:25.707Z</time></trkpt><trkpt lat="45.6902548" lon="9.6327085"><ele>242.0</ele><time>2026-04-25T11:42:26.707Z</time></trkpt><trkpt lat="45.6902891" lon="9.6324895"><ele>241.33333333333334</ele><time>2026-04-25T11:42:27.708Z</time></trkpt><trkpt lat="45.6903201" lon="9.6322756"><ele>240.66666666666669</ele><time>2026-04-25T11:42:28.707Z</time></trkpt><trkpt lat="45.6903472" lon="9.6320634"><ele>240.0</ele><time>2026-04-25T11:42:29.707Z</time></trkpt><trkpt lat="45.6903697" lon="9.6318461"><ele>239.75</ele><time>2026-04-25T11:42:30.708Z</time></trkpt><trkpt lat="45.6903833" lon="9.6316355"><ele>239.5</ele><time>2026-04-25T11:42:31.708Z</time></trkpt><trkpt lat="45.6903899" lon="9.6314373"><ele>239.25</ele><time>2026-04-25T11:42:32.708Z</time></trkpt><trkpt lat="45.6903939" lon="9.6312522"><ele>239.0</ele><time>2026-04-25T11:42:33.708Z</time></trkpt><trkpt lat="45.6903957" lon="9.6311189"><ele>239.00000000000003</ele><time>2026-04-25T11:42:34.708Z</time></trkpt><trkpt lat="45.6904008" lon="9.6309972"><ele>239.0</ele><time>2026-04-25T11:42:35.708Z</time></trkpt><trkpt lat="45.6904186" lon="9.6308875"><ele>239.0</ele><time>2026-04-25T11:42:36.707Z</time></trkpt><trkpt lat="45.690453" lon="9.6307896"><ele>239.0</ele><time>2026-04-25T11:42:37.707Z</time></trkpt><trkpt lat="45.6905055" lon="9.6306868"><ele>239.00000000000003</ele><time>2026-04-25T11:42:38.708Z</time></trkpt><trkpt lat="45.6905574" lon="9.6305688"><ele>239.0</ele><time>2026-04-25T11:42:39.707Z</time></trkpt><trkpt lat="45.6905893" lon="9.6304447"><ele>238.6</ele><time>2026-04-25T11:42:40.707Z</time></trkpt><trkpt lat="45.6905922" lon="9.6303078"><ele>238.2</ele><time>2026-04-25T11:42:41.707Z</time></trkpt><trkpt lat="45.6905593" lon="9.6301744"><ele>237.79999999999998</ele><time>2026-04-25T11:42:42.707Z</time></trkpt><trkpt lat="45.6904902" lon="9.6300663"><ele>237.39999999999998</ele><time>2026-04-25T11:42:43.707Z</time></trkpt><trkpt lat="45.6903955" lon="9.6300047"><ele>237.0</ele><time>2026-04-25T11:42:44.708Z</time></trkpt><trkpt lat="45.6902863" lon="9.6299937"><ele>236.5</ele><time>2026-04-25T11:42:45.707Z</time></trkpt><trkpt lat="45.6901768" lon="9.6300388"><ele>236.0</ele><time>2026-04-25T11:42:46.708Z</time></trkpt><trkpt lat="45.6900818" lon="9.6301417"><ele>235.5</ele><time>2026-04-25T11:42:47.707Z</time></trkpt><trkpt lat="45.6900104" lon="9.6302905"><ele>235.0</ele><time>2026-04-25T11:42:48.708Z</time></trkpt><trkpt lat="45.6899355" lon="9.6304603"><ele>236.25</ele><time>2026-04-25T11:42:49.707Z</time></trkpt><trkpt lat="45.6898477" lon="9.6305752"><ele>237.5</ele><time>2026-04-25T11:42:50.707Z</time></trkpt><trkpt lat="45.6897352" lon="9.6306375"><ele>238.75</ele><time>2026-04-25T11:42:51.707Z</time></trkpt><trkpt lat="45.6895996" lon="9.6306716"><ele>240.0</ele><time>2026-04-25T11:42:52.707Z</time></trkpt><trkpt lat="45.6894536" lon="9.63069"><ele>238.33333333333331</ele><time>2026-04-25T11:42:53.707Z</time></trkpt><trkpt lat="45.6892874" lon="9.6306976"><ele>236.66666666666666</ele><time>2026-04-25T11:42:54.708Z</time></trkpt><trkpt lat="45.6890952" lon="9.6306881"><ele>235.0</ele><time>2026-04-25T11:42:55.707Z</time></trkpt><trkpt lat="45.6889076" lon="9.6306647"><ele>235.0</ele><time>2026-04-25T11:42:56.707Z</time></trkpt><trkpt lat="45.6887263" lon="9.6306357"><ele>235.0</ele><time>2026-04-25T11:42:57.708Z</time></trkpt><trkpt lat="45.6885472" lon="9.6306035"><ele>235.0</ele><time>2026-04-25T11:42:58.708Z</time></trkpt><trkpt lat="45.6883701" lon="9.6305723"><ele>233.66666666666666</ele><time>2026-04-25T11:42:59.708Z</time></trkpt><trkpt lat="45.6881947" lon="9.6305415"><ele>232.33333333333331</ele><time>2026-04-25T11:43:00.707Z</time></trkpt><trkpt lat="45.688027" lon="9.6305028"><ele>231.0</ele><time>2026-04-25T11:43:01.708Z</time></trkpt><trkpt lat="45.6878616" lon="9.6304365"><ele>230.66666666666669</ele><time>2026-04-25T11:43:02.707Z</time></trkpt><trkpt lat="45.6876997" lon="9.6303328"><ele>230.33333333333334</ele><time>2026-04-25T11:43:03.707Z</time></trkpt><trkpt lat="45.6875572" lon="9.6302096"><ele>230.0</ele><time>2026-04-25T11:43:04.707Z</time></trkpt><trkpt lat="45.6874077" lon="9.6300863"><ele>229.66666666666669</ele><time>2026-04-25T11:43:05.708Z</time></trkpt><trkpt lat="45.6872604" lon="9.630001"><ele>229.33333333333331</ele><time>2026-04-25T11:43:06.707Z</time></trkpt><trkpt lat="45.6870922" lon="9.6299529"><ele>229.0</ele><time>2026-04-25T11:43:07.708Z</time></trkpt><trkpt lat="45.6869282" lon="9.6299564"><ele>228.66666666666666</ele><time>2026-04-25T11:43:08.708Z</time></trkpt><trkpt lat="45.6867655" lon="9.6300021"><ele>228.33333333333331</ele><time>2026-04-25T11:43:09.707Z</time></trkpt><trkpt lat="45.6866077" lon="9.6300857"><ele>228.0</ele><time>2026-04-25T11:43:10.708Z</time></trkpt><trkpt lat="45.6864616" lon="9.6301826"><ele>228.0</ele><time>2026-04-25T11:43:11.707Z</time></trkpt><trkpt lat="45.6863197" lon="9.6302614"><ele>228.0</ele><time>2026-04-25T11:43:12.707Z</time></trkpt><trkpt lat="45.6861794" lon="9.6303054"><ele>228.0</ele><time>2026-04-25T11:43:13.708Z</time></trkpt><trkpt lat="45.6860348" lon="9.6303107"><ele>228.0</ele><time>2026-04-25T11:43:14.708Z</time></trkpt><trkpt lat="45.6858932" lon="9.6302945"><ele>227.5</ele><time>2026-04-25T11:43:15.708Z</time></trkpt><trkpt lat="45.68575" lon="9.6302746"><ele>227.0</ele><time>2026-04-25T11:43:16.707Z</time></trkpt><trkpt lat="45.6856064" lon="9.6302548"><ele>226.5</ele><time>2026-04-25T11:43:17.707Z</time></trkpt><trkpt lat="45.6854598" lon="9.6302271"><ele>226.0</ele><time>2026-04-25T11:43:18.708Z</time></trkpt><trkpt lat="45.6853078" lon="9.6301923"><ele>225.66666666666666</ele><time>2026-04-25T11:43:19.707Z</time></trkpt><trkpt lat="45.6851482" lon="9.6301546"><ele>225.33333333333331</ele><time>2026-04-25T11:43:20.708Z</time></trkpt><trkpt lat="45.6849722" lon="9.6301153"><ele>225.0</ele><time>2026-04-25T11:43:21.708Z</time></trkpt><trkpt lat="45.6848145" lon="9.6300798"><ele>225.0</ele><time>2026-04-25T11:43:22.707Z</time></trkpt><trkpt lat="45.6846449" lon="9.6300381"><ele>225.0</ele><time>2026-04-25T11:43:23.708Z</time></trkpt><trkpt lat="45.6844767" lon="9.629988"><ele>225.0</ele><time>2026-04-25T11:43:24.707Z</time></trkpt><trkpt lat="45.6843115" lon="9.6299324"><ele>225.33333333333331</ele><time>2026-04-25T11:43:25.708Z</time></trkpt><trkpt lat="45.6841482" lon="9.6298711"><ele>225.66666666666666</ele><time>2026-04-25T11:43:26.708Z</time></trkpt><trkpt lat="45.6839864" lon="9.6298053"><ele>226.0</ele><time>2026-04-25T11:43:27.707Z</time></trkpt><trkpt lat="45.6838265" lon="9.6297365"><ele>226.0</ele><time>2026-04-25T11:43:28.707Z</time></trkpt><trkpt lat="45.6836709" lon="9.6296542"><ele>226.0</ele><time>2026-04-25T11:43:29.707Z</time></trkpt><trkpt lat="45.6835238" lon="9.6295465"><ele>226.0</ele><time>2026-04-25T11:43:30.707Z</time></trkpt><trkpt lat="45.6833867" lon="9.6294057"><ele>226.0</ele><time>2026-04-25T11:43:31.707Z</time></trkpt><trkpt lat="45.6832597" lon="9.6292322"><ele>226.0</ele><time>2026-04-25T11:43:32.708Z</time></trkpt><trkpt lat="45.6831477" lon="9.629028"><ele>226.0</ele><time>2026-04-25T11:43:33.707Z</time></trkpt><trkpt lat="45.6830566" lon="9.6287981"><ele>225.66666666666666</ele><time>2026-04-25T11:43:34.708Z</time></trkpt><trkpt lat="45.6829918" lon="9.6285467"><ele>225.33333333333331</ele><time>2026-04-25T11:43:35.707Z</time></trkpt><trkpt lat="45.6829494" lon="9.6282814"><ele>225.0</ele><time>2026-04-25T11:43:36.707Z</time></trkpt><trkpt lat="45.6829154" lon="9.6279918"><ele>224.66666666666669</ele><time>2026-04-25T11:43:37.707Z</time></trkpt><trkpt lat="45.6828869" lon="9.6277332"><ele>224.33333333333334</ele><time>2026-04-25T11:43:38.707Z</time></trkpt><trkpt lat="45.6828564" lon="9.6274517"><ele>224.0</ele><time>2026-04-25T11:43:39.707Z</time></trkpt><trkpt lat="45.6828251" lon="9.6271633"><ele>224.0</ele><time>2026-04-25T11:43:40.708Z</time></trkpt><trkpt lat="45.6827934" lon="9.6268657"><ele>224.0</ele><time>2026-04-25T11:43:41.708Z</time></trkpt><trkpt lat="45.68276" lon="9.6265649"><ele>224.0</ele><time>2026-04-25T11:43:42.708Z</time></trkpt><trkpt lat="45.6827224" lon="9.6262615"><ele>224.33333333333334</ele><time>2026-04-25T11:43:43.708Z</time></trkpt><trkpt lat="45.6826818" lon="9.6259614"><ele>224.66666666666669</ele><time>2026-04-25T11:43:44.707Z</time></trkpt><trkpt lat="45.6826417" lon="9.6256636"><ele>225.0</ele><time>2026-04-25T11:43:45.707Z</time></trkpt><trkpt lat="45.6826034" lon="9.6253596"><ele>226.0</ele><time>2026-04-25T11:43:46.707Z</time></trkpt><trkpt lat="45.6825676" lon="9.6250551"><ele>227.0</ele><time>2026-04-25T11:43:47.708Z</time></trkpt><trkpt lat="45.682533" lon="9.6247504"><ele>228.0</ele><time>2026-04-25T11:43:48.707Z</time></trkpt><trkpt lat="45.6824996" lon="9.6244458"><ele>228.0</ele><time>2026-04-25T11:43:49.707Z</time></trkpt><trkpt lat="45.6824664" lon="9.6241416"><ele>228.0</ele><time>2026-04-25T11:43:50.708Z</time></trkpt><trkpt lat="45.6824332" lon="9.6238378"><ele>228.0</ele><time>2026-04-25T11:43:51.707Z</time></trkpt><trkpt lat="45.6824" lon="9.6235309"><ele>228.0</ele><time>2026-04-25T11:43:52.708Z</time></trkpt><trkpt lat="45.6823675" lon="9.623227"><ele>228.0</ele><time>2026-04-25T11:43:53.708Z</time></trkpt><trkpt lat="45.6823356" lon="9.6229258"><ele>228.0</ele><time>2026-04-25T11:43:54.708Z</time></trkpt><trkpt lat="45.6823034" lon="9.6226183"><ele>228.0</ele><time>2026-04-25T11:43:55.707Z</time></trkpt><trkpt lat="45.6822707" lon="9.6223101"><ele>228.0</ele><time>2026-04-25T11:43:56.707Z</time></trkpt><trkpt lat="45.6822369" lon="9.6220001"><ele>228.0</ele><time>2026-04-25T11:43:57.708Z</time></trkpt><trkpt lat="45.6822022" lon="9.6216888"><ele>228.0</ele><time>2026-04-25T11:43:58.708Z</time></trkpt><trkpt lat="45.6821662" lon="9.6213766"><ele>228.0</ele><time>2026-04-25T11:43:59.708Z</time></trkpt><trkpt lat="45.6821282" lon="9.6210631"><ele>228.0</ele><time>2026-04-25T11:44:00.708Z</time></trkpt><trkpt lat="45.68209" lon="9.6207651"><ele>228.0</ele><time>2026-04-25T11:44:01.708Z</time></trkpt><trkpt lat="45.6820443" lon="9.6204315"><ele>228.0</ele><time>2026-04-25T11:44:02.707Z</time></trkpt><trkpt lat="45.6819985" lon="9.6201225"><ele>228.0</ele><time>2026-04-25T11:44:03.708Z</time></trkpt><trkpt lat="45.6819487" lon="9.6198105"><ele>228.0</ele><time>2026-04-25T11:44:04.707Z</time></trkpt><trkpt lat="45.6818949" lon="9.6194995"><ele>228.0</ele><time>2026-04-25T11:44:05.708Z</time></trkpt><trkpt lat="45.6818363" lon="9.619189"><ele>229.0</ele><time>2026-04-25T11:44:06.707Z</time></trkpt><trkpt lat="45.6817737" lon="9.6188781"><ele>230.0</ele><time>2026-04-25T11:44:07.708Z</time></trkpt><trkpt lat="45.6817075" lon="9.6185663"><ele>230.0</ele><time>2026-04-25T11:44:08.707Z</time></trkpt><trkpt lat="45.681636" lon="9.6182504"><ele>230.0</ele><time>2026-04-25T11:44:09.707Z</time></trkpt><trkpt lat="45.6815609" lon="9.6179372"><ele>230.0</ele><time>2026-04-25T11:44:10.708Z</time></trkpt><trkpt lat="45.6814818" lon="9.6176293"><ele>230.0</ele><time>2026-04-25T11:44:11.707Z</time></trkpt><trkpt lat="45.681398" lon="9.6173197"><ele>230.0</ele><time>2026-04-25T11:44:12.707Z</time></trkpt><trkpt lat="45.6813098" lon="9.6170175"><ele>230.0</ele><time>2026-04-25T11:44:13.707Z</time></trkpt><trkpt lat="45.681217" lon="9.6167176"><ele>230.0</ele><time>2026-04-25T11:44:14.708Z</time></trkpt><trkpt lat="45.6811209" lon="9.6164201"><ele>230.0</ele><time>2026-04-25T11:44:15.708Z</time></trkpt><trkpt lat="45.6810206" lon="9.6161217"><ele>230.0</ele><time>2026-04-25T11:44:16.708Z</time></trkpt><trkpt lat="45.6809187" lon="9.6158325"><ele>230.0</ele><time>2026-04-25T11:44:17.708Z</time></trkpt><trkpt lat="45.6808114" lon="9.6155376"><ele>230.5</ele><time>2026-04-25T11:44:18.707Z</time></trkpt><trkpt lat="45.680701" lon="9.6152457"><ele>231.0</ele><time>2026-04-25T11:44:19.708Z</time></trkpt><trkpt lat="45.6805882" lon="9.6149537"><ele>231.0</ele><time>2026-04-25T11:44:20.707Z</time></trkpt><trkpt lat="45.6804727" lon="9.6146551"><ele>231.0</ele><time>2026-04-25T11:44:21.708Z</time></trkpt><trkpt lat="45.6803623" lon="9.6143664"><ele>229.5</ele><time>2026-04-25T11:44:22.708Z</time></trkpt><trkpt lat="45.6802501" lon="9.6140743"><ele>228.0</ele><time>2026-04-25T11:44:23.708Z</time></trkpt><trkpt lat="45.6801377" lon="9.6137842"><ele>228.5</ele><time>2026-04-25T11:44:24.707Z</time></trkpt><trkpt lat="45.6800186" lon="9.6134789"><ele>229.0</ele><time>2026-04-25T11:44:25.707Z</time></trkpt><trkpt lat="45.6799134" lon="9.6132083"><ele>229.0</ele><time>2026-04-25T11:44:26.707Z</time></trkpt><trkpt lat="45.6798021" lon="9.612922"><ele>229.0</ele><time>2026-04-25T11:44:27.708Z</time></trkpt><trkpt lat="45.6796993" lon="9.6126523"><ele>229.0</ele><time>2026-04-25T11:44:28.707Z</time></trkpt><trkpt lat="45.6795829" lon="9.6123491"><ele>228.5</ele><time>2026-04-25T11:44:29.708Z</time></trkpt><trkpt lat="45.6794719" lon="9.6120593"><ele>228.0</ele><time>2026-04-25T11:44:30.708Z</time></trkpt><trkpt lat="45.6793598" lon="9.6117692"><ele>227.5</ele><time>2026-04-25T11:44:31.708Z</time></trkpt><trkpt lat="45.6792468" lon="9.6114768"><ele>227.0</ele><time>2026-04-25T11:44:32.707Z</time></trkpt><trkpt lat="45.6791351" lon="9.6111836"><ele>227.5</ele><time>2026-04-25T11:44:33.708Z</time></trkpt><trkpt lat="45.6790258" lon="9.6108907"><ele>228.0</ele><time>2026-04-25T11:44:34.708Z</time></trkpt><trkpt lat="45.678916" lon="9.6105821"><ele>228.5</ele><time>2026-04-25T11:44:35.707Z</time></trkpt><trkpt lat="45.6788137" lon="9.6102787"><ele>229.0</ele><time>2026-04-25T11:44:36.708Z</time></trkpt><trkpt lat="45.6787183" lon="9.6099728"><ele>229.0</ele><time>2026-04-25T11:44:37.707Z</time></trkpt><trkpt lat="45.6786322" lon="9.6096631"><ele>229.0</ele><time>2026-04-25T11:44:38.707Z</time></trkpt><trkpt lat="45.6785532" lon="9.6093407"><ele>228.5</ele><time>2026-04-25T11:44:39.708Z</time></trkpt><trkpt lat="45.6784797" lon="9.6090255"><ele>228.0</ele><time>2026-04-25T11:44:40.707Z</time></trkpt><trkpt lat="45.6784089" lon="9.6087018"><ele>228.0</ele><time>2026-04-25T11:44:41.708Z</time></trkpt><trkpt lat="45.6783444" lon="9.6083813"><ele>228.0</ele><time>2026-04-25T11:44:42.707Z</time></trkpt><trkpt lat="45.678289" lon="9.60805"><ele>228.0</ele><time>2026-04-25T11:44:43.707Z</time></trkpt><trkpt lat="45.6782344" lon="9.6077456"><ele>228.0</ele><time>2026-04-25T11:44:44.708Z</time></trkpt><trkpt lat="45.6781857" lon="9.6073873"><ele>228.0</ele><time>2026-04-25T11:44:45.708Z</time></trkpt><trkpt lat="45.6781435" lon="9.6070581"><ele>228.0</ele><time>2026-04-25T11:44:46.707Z</time></trkpt><trkpt lat="45.6781068" lon="9.6067245"><ele>228.0</ele><time>2026-04-25T11:44:47.707Z</time></trkpt><trkpt lat="45.6780759" lon="9.6063897"><ele>228.0</ele><time>2026-04-25T11:44:48.708Z</time></trkpt><trkpt lat="45.6780537" lon="9.6060749"><ele>227.5</ele><time>2026-04-25T11:44:49.707Z</time></trkpt><trkpt lat="45.6780326" lon="9.605728"><ele>227.0</ele><time>2026-04-25T11:44:50.707Z</time></trkpt><trkpt lat="45.6780192" lon="9.6053966"><ele>227.0</ele><time>2026-04-25T11:44:51.707Z</time></trkpt><trkpt lat="45.6780098" lon="9.6050691"><ele>227.0</ele><time>2026-04-25T11:44:52.707Z</time></trkpt><trkpt lat="45.6780015" lon="9.6047427"><ele>226.5</ele><time>2026-04-25T11:44:53.707Z</time></trkpt><trkpt lat="45.6779928" lon="9.6044208"><ele>226.0</ele><time>2026-04-25T11:44:54.708Z</time></trkpt><trkpt lat="45.6779825" lon="9.6040961"><ele>226.0</ele><time>2026-04-25T11:44:55.707Z</time></trkpt><trkpt lat="45.6779716" lon="9.6037684"><ele>226.0</ele><time>2026-04-25T11:44:56.707Z</time></trkpt><trkpt lat="45.6779597" lon="9.6034269"><ele>226.66666666666666</ele><time>2026-04-25T11:44:57.707Z</time></trkpt><trkpt lat="45.677949" lon="9.6031196"><ele>227.33333333333331</ele><time>2026-04-25T11:44:58.707Z</time></trkpt><trkpt lat="45.677938" lon="9.6027939"><ele>228.0</ele><time>2026-04-25T11:44:59.707Z</time></trkpt><trkpt lat="45.6779253" lon="9.6024866"><ele>228.0</ele><time>2026-04-25T11:45:00.707Z</time></trkpt><trkpt lat="45.6779045" lon="9.6021343"><ele>228.0</ele><time>2026-04-25T11:45:01.707Z</time></trkpt><trkpt lat="45.6778811" lon="9.6018034"><ele>227.5</ele><time>2026-04-25T11:45:02.708Z</time></trkpt><trkpt lat="45.6778626" lon="9.6014689"><ele>227.0</ele><time>2026-04-25T11:45:03.707Z</time></trkpt><trkpt lat="45.6778493" lon="9.6011273"><ele>228.0</ele><time>2026-04-25T11:45:04.708Z</time></trkpt><trkpt lat="45.6778398" lon="9.6008099"><ele>229.0</ele><time>2026-04-25T11:45:05.707Z</time></trkpt><trkpt lat="45.6778339" lon="9.6004462"><ele>227.5</ele><time>2026-04-25T11:45:06.707Z</time></trkpt><trkpt lat="45.677834" lon="9.6001065"><ele>226.0</ele><time>2026-04-25T11:45:07.707Z</time></trkpt><trkpt lat="45.6778265" lon="9.5997675"><ele>224.5</ele><time>2026-04-25T11:45:08.708Z</time></trkpt><trkpt lat="45.6778171" lon="9.5994303"><ele>223.0</ele><time>2026-04-25T11:45:09.707Z</time></trkpt><trkpt lat="45.6778084" lon="9.5990965"><ele>223.0</ele><time>2026-04-25T11:45:10.707Z</time></trkpt><trkpt lat="45.6777987" lon="9.5987677"><ele>223.0</ele><time>2026-04-25T11:45:11.707Z</time></trkpt><trkpt lat="45.6777877" lon="9.5984392"><ele>222.5</ele><time>2026-04-25T11:45:12.707Z</time></trkpt><trkpt lat="45.6777772" lon="9.5981084"><ele>222.0</ele><time>2026-04-25T11:45:13.708Z</time></trkpt><trkpt lat="45.6777663" lon="9.5977847"><ele>222.0</ele><time>2026-04-25T11:45:14.707Z</time></trkpt><trkpt lat="45.677755" lon="9.597452"><ele>222.0</ele><time>2026-04-25T11:45:15.708Z</time></trkpt><trkpt lat="45.6777451" lon="9.597143"><ele>222.0</ele><time>2026-04-25T11:45:16.708Z</time></trkpt><trkpt lat="45.677733" lon="9.5967889"><ele>217.0</ele><time>2026-04-25T11:45:17.708Z</time></trkpt><trkpt lat="45.6777181" lon="9.5964571"><ele>212.0</ele><time>2026-04-25T11:45:18.708Z</time></trkpt><trkpt lat="45.6776997" lon="9.596126"><ele>210.33333333333334</ele><time>2026-04-25T11:45:19.707Z</time></trkpt><trkpt lat="45.6776769" lon="9.5957986"><ele>208.66666666666669</ele><time>2026-04-25T11:45:20.708Z</time></trkpt><trkpt lat="45.6776492" lon="9.5954871"><ele>207.0</ele><time>2026-04-25T11:45:21.708Z</time></trkpt><trkpt lat="45.677613" lon="9.595142"><ele>206.5</ele><time>2026-04-25T11:45:22.707Z</time></trkpt><trkpt lat="45.6775746" lon="9.5948145"><ele>206.0</ele><time>2026-04-25T11:45:23.707Z</time></trkpt><trkpt lat="45.6775303" lon="9.5944915"><ele>205.5</ele><time>2026-04-25T11:45:24.708Z</time></trkpt><trkpt lat="45.6774789" lon="9.5941692"><ele>205.0</ele><time>2026-04-25T11:45:25.707Z</time></trkpt><trkpt lat="45.6774194" lon="9.5938467"><ele>202.5</ele><time>2026-04-25T11:45:26.708Z</time></trkpt><trkpt lat="45.6773527" lon="9.5935271"><ele>200.0</ele><time>2026-04-25T11:45:27.708Z</time></trkpt><trkpt lat="45.6772806" lon="9.5932077"><ele>200.0</ele><time>2026-04-25T11:45:28.708Z</time></trkpt><trkpt lat="45.6771996" lon="9.592873"><ele>200.0</ele><time>2026-04-25T11:45:29.707Z</time></trkpt><trkpt lat="45.6771214" lon="9.5925783"><ele>198.0</ele><time>2026-04-25T11:45:30.707Z</time></trkpt><trkpt lat="45.6770345" lon="9.5922686"><ele>196.0</ele><time>2026-04-25T11:45:31.708Z</time></trkpt><trkpt lat="45.6769503" lon="9.5919816"><ele>196.5</ele><time>2026-04-25T11:45:32.707Z</time></trkpt><trkpt lat="45.6768507" lon="9.5916588"><ele>197.0</ele><time>2026-04-25T11:45:33.707Z</time></trkpt><trkpt lat="45.6767536" lon="9.5913586"><ele>197.5</ele><time>2026-04-25T11:45:34.708Z</time></trkpt><trkpt lat="45.6766556" lon="9.5910614"><ele>198.0</ele><time>2026-04-25T11:45:35.708Z</time></trkpt><trkpt lat="45.6765573" lon="9.5907635"><ele>198.0</ele><time>2026-04-25T11:45:36.707Z</time></trkpt><trkpt lat="45.6764609" lon="9.5904702"><ele>198.0</ele><time>2026-04-25T11:45:37.708Z</time></trkpt><trkpt lat="45.6763609" lon="9.5901729"><ele>197.5</ele><time>2026-04-25T11:45:38.707Z</time></trkpt><trkpt lat="45.6762574" lon="9.589886"><ele>197.0</ele><time>2026-04-25T11:45:39.707Z</time></trkpt><trkpt lat="45.6761542" lon="9.5896004"><ele>196.0</ele><time>2026-04-25T11:45:40.707Z</time></trkpt><trkpt lat="45.6760536" lon="9.5893135"><ele>195.0</ele><time>2026-04-25T11:45:41.707Z</time></trkpt><trkpt lat="45.6759547" lon="9.5890241"><ele>194.0</ele><time>2026-04-25T11:45:42.707Z</time></trkpt><trkpt lat="45.6758564" lon="9.5887313"><ele>192.5</ele><time>2026-04-25T11:45:43.708Z</time></trkpt><trkpt lat="45.675758" lon="9.588436"><ele>191.0</ele><time>2026-04-25T11:45:44.707Z</time></trkpt><trkpt lat="45.6756597" lon="9.5881369"><ele>190.0</ele><time>2026-04-25T11:45:45.707Z</time></trkpt><trkpt lat="45.6755633" lon="9.5878341"><ele>189.0</ele><time>2026-04-25T11:45:46.707Z</time></trkpt><trkpt lat="45.6754695" lon="9.5875285"><ele>189.0</ele><time>2026-04-25T11:45:47.708Z</time></trkpt><trkpt lat="45.6753823" lon="9.5872421"><ele>189.0</ele><time>2026-04-25T11:45:48.707Z</time></trkpt><trkpt lat="45.6752828" lon="9.5869206"><ele>188.5</ele><time>2026-04-25T11:45:49.708Z</time></trkpt><trkpt lat="45.6751883" lon="9.5866233"><ele>188.0</ele><time>2026-04-25T11:45:50.707Z</time></trkpt><trkpt lat="45.675093" lon="9.5863316"><ele>189.33333333333331</ele><time>2026-04-25T11:45:51.707Z</time></trkpt><trkpt lat="45.6749955" lon="9.5860436"><ele>190.66666666666666</ele><time>2026-04-25T11:45:52.707Z</time></trkpt><trkpt lat="45.6749053" lon="9.585774"><ele>192.0</ele><time>2026-04-25T11:45:53.707Z</time></trkpt><trkpt lat="45.6748049" lon="9.5854669"><ele>192.0</ele><time>2026-04-25T11:45:54.707Z</time></trkpt><trkpt lat="45.6747097" lon="9.5851788"><ele>192.0</ele><time>2026-04-25T11:45:55.708Z</time></trkpt><trkpt lat="45.6746135" lon="9.5848919"><ele>192.0</ele><time>2026-04-25T11:45:56.708Z</time></trkpt><trkpt lat="45.6745183" lon="9.5846036"><ele>192.0</ele><time>2026-04-25T11:45:57.708Z</time></trkpt><trkpt lat="45.6744237" lon="9.5843141"><ele>192.0</ele><time>2026-04-25T11:45:58.707Z</time></trkpt><trkpt lat="45.674329" lon="9.5840233"><ele>192.0</ele><time>2026-04-25T11:45:59.708Z</time></trkpt><trkpt lat="45.6742332" lon="9.5837307"><ele>193.5</ele><time>2026-04-25T11:46:00.708Z</time></trkpt><trkpt lat="45.6741369" lon="9.5834369"><ele>195.0</ele><time>2026-04-25T11:46:01.707Z</time></trkpt><trkpt lat="45.6740406" lon="9.5831409"><ele>195.0</ele><time>2026-04-25T11:46:02.707Z</time></trkpt><trkpt lat="45.6739443" lon="9.5828464"><ele>195.0</ele><time>2026-04-25T11:46:03.708Z</time></trkpt><trkpt lat="45.6738567" lon="9.5825718"><ele>195.0</ele><time>2026-04-25T11:46:04.708Z</time></trkpt><trkpt lat="45.6737651" lon="9.5822575"><ele>194.33333333333331</ele><time>2026-04-25T11:46:05.707Z</time></trkpt><trkpt lat="45.6736912" lon="9.5819579"><ele>193.66666666666666</ele><time>2026-04-25T11:46:06.707Z</time></trkpt><trkpt lat="45.6736308" lon="9.5816583"><ele>193.0</ele><time>2026-04-25T11:46:07.708Z</time></trkpt><trkpt lat="45.6735824" lon="9.5813627"><ele>193.33333333333331</ele><time>2026-04-25T11:46:08.707Z</time></trkpt><trkpt lat="45.6735469" lon="9.5810898"><ele>193.66666666666669</ele><time>2026-04-25T11:46:09.707Z</time></trkpt><trkpt lat="45.6735193" lon="9.5807788"><ele>194.0</ele><time>2026-04-25T11:46:10.707Z</time></trkpt><trkpt lat="45.6735049" lon="9.5804839"><ele>194.0</ele><time>2026-04-25T11:46:11.707Z</time></trkpt><trkpt lat="45.6735004" lon="9.5801846"><ele>194.0</ele><time>2026-04-25T11:46:12.708Z</time></trkpt><trkpt lat="45.6735068" lon="9.5798867"><ele>194.0</ele><time>2026-04-25T11:46:13.708Z</time></trkpt><trkpt lat="45.6735235" lon="9.5795905"><ele>193.66666666666669</ele><time>2026-04-25T11:46:14.708Z</time></trkpt><trkpt lat="45.673552" lon="9.5792971"><ele>193.33333333333331</ele><time>2026-04-25T11:46:15.707Z</time></trkpt><trkpt lat="45.6735933" lon="9.579005"><ele>193.0</ele><time>2026-04-25T11:46:16.708Z</time></trkpt><trkpt lat="45.6736426" lon="9.5787232"><ele>193.0</ele><time>2026-04-25T11:46:17.707Z</time></trkpt><trkpt lat="45.6736989" lon="9.5784425"><ele>193.0</ele><time>2026-04-25T11:46:18.708Z</time></trkpt><trkpt lat="45.673767" lon="9.5781671"><ele>193.0</ele><time>2026-04-25T11:46:19.708Z</time></trkpt><trkpt lat="45.673839" lon="9.5779134"><ele>193.33333333333331</ele><time>2026-04-25T11:46:20.708Z</time></trkpt><trkpt lat="45.6739299" lon="9.5776317"><ele>193.66666666666669</ele><time>2026-04-25T11:46:21.707Z</time></trkpt><trkpt lat="45.6740257" lon="9.5773748"><ele>194.0</ele><time>2026-04-25T11:46:22.708Z</time></trkpt><trkpt lat="45.6741316" lon="9.5771265"><ele>196.66666666666669</ele><time>2026-04-25T11:46:23.707Z</time></trkpt><trkpt lat="45.6742462" lon="9.5768879"><ele>199.33333333333331</ele><time>2026-04-25T11:46:24.708Z</time></trkpt><trkpt lat="45.6743614" lon="9.5766733"><ele>202.0</ele><time>2026-04-25T11:46:25.708Z</time></trkpt><trkpt lat="45.6745018" lon="9.5764384"><ele>204.33333333333331</ele><time>2026-04-25T11:46:26.707Z</time></trkpt><trkpt lat="45.6746395" lon="9.5762271"><ele>206.66666666666669</ele><time>2026-04-25T11:46:27.708Z</time></trkpt><trkpt lat="45.6747852" lon="9.5760223"><ele>209.0</ele><time>2026-04-25T11:46:28.708Z</time></trkpt><trkpt lat="45.6749342" lon="9.5758311"><ele>209.66666666666669</ele><time>2026-04-25T11:46:29.708Z</time></trkpt><trkpt lat="45.6750892" lon="9.5756494"><ele>210.33333333333331</ele><time>2026-04-25T11:46:30.708Z</time></trkpt><trkpt lat="45.6752497" lon="9.5754809"><ele>211.0</ele><time>2026-04-25T11:46:31.707Z</time></trkpt><trkpt lat="45.6754097" lon="9.5753318"><ele>213.5</ele><time>2026-04-25T11:46:32.707Z</time></trkpt><trkpt lat="45.6755904" lon="9.575182"><ele>216.0</ele><time>2026-04-25T11:46:33.707Z</time></trkpt><trkpt lat="45.6758087" lon="9.5750264"><ele>216.0</ele><time>2026-04-25T11:46:34.708Z</time></trkpt><trkpt lat="45.6760453" lon="9.5748835"><ele>216.0</ele><time>2026-04-25T11:46:35.708Z</time></trkpt><trkpt lat="45.6762899" lon="9.5747649"><ele>217.5</ele><time>2026-04-25T11:46:36.708Z</time></trkpt><trkpt lat="45.67658" lon="9.57465"><ele>219.0</ele><time>2026-04-25T11:46:37.708Z</time></trkpt><trkpt lat="45.67686" lon="9.5745626"><ele>220.0</ele><time>2026-04-25T11:46:38.708Z</time></trkpt><trkpt lat="45.6771432" lon="9.5744823"><ele>221.0</ele><time>2026-04-25T11:46:39.708Z</time></trkpt><trkpt lat="45.6774268" lon="9.5744059"><ele>221.0</ele><time>2026-04-25T11:46:40.708Z</time></trkpt><trkpt lat="45.6776837" lon="9.5743345"><ele>221.0</ele><time>2026-04-25T11:46:41.707Z</time></trkpt><trkpt lat="45.6779657" lon="9.5742539"><ele>221.5</ele><time>2026-04-25T11:46:42.708Z</time></trkpt><trkpt lat="45.6782243" lon="9.5741793"><ele>222.0</ele><time>2026-04-25T11:46:43.707Z</time></trkpt><trkpt lat="45.6784745" lon="9.5741092"><ele>223.0</ele><time>2026-04-25T11:46:44.708Z</time></trkpt><trkpt lat="45.6787191" lon="9.5740412"><ele>224.0</ele><time>2026-04-25T11:46:45.708Z</time></trkpt><trkpt lat="45.6789594" lon="9.5739707"><ele>224.0</ele><time>2026-04-25T11:46:46.707Z</time></trkpt><trkpt lat="45.6791975" lon="9.573898"><ele>224.0</ele><time>2026-04-25T11:46:47.708Z</time></trkpt><trkpt lat="45.6794344" lon="9.5738262"><ele>224.5</ele><time>2026-04-25T11:46:48.707Z</time></trkpt><trkpt lat="45.6796712" lon="9.573756"><ele>225.0</ele><time>2026-04-25T11:46:49.707Z</time></trkpt><trkpt lat="45.6799093" lon="9.5736854"><ele>225.0</ele><time>2026-04-25T11:46:50.707Z</time></trkpt><trkpt lat="45.6801486" lon="9.5736149"><ele>225.0</ele><time>2026-04-25T11:46:51.708Z</time></trkpt><trkpt lat="45.6803737" lon="9.5735489"><ele>225.5</ele><time>2026-04-25T11:46:52.708Z</time></trkpt><trkpt lat="45.6806291" lon="9.5734748"><ele>226.0</ele><time>2026-04-25T11:46:53.708Z</time></trkpt><trkpt lat="45.6835338" lon="9.5725118"><ele>226.5</ele><time>2026-04-25T11:47:09.704Z</time></trkpt><trkpt lat="45.683651" lon="9.5724407"><ele>227.0</ele><time>2026-04-25T11:47:10.703Z</time></trkpt><trkpt lat="45.6837803" lon="9.5723699"><ele>227.5</ele><time>2026-04-25T11:47:11.706Z</time></trkpt><trkpt lat="45.6839032" lon="9.5722907"><ele>228.0</ele><time>2026-04-25T11:47:12.704Z</time></trkpt><trkpt lat="45.6840152" lon="9.5721992"><ele>228.0</ele><time>2026-04-25T11:47:13.704Z</time></trkpt><trkpt lat="45.6841319" lon="9.5720771"><ele>228.0</ele><time>2026-04-25T11:47:14.706Z</time></trkpt><trkpt lat="45.6842323" lon="9.5719574"><ele>228.0</ele><time>2026-04-25T11:47:15.706Z</time></trkpt><trkpt lat="45.6843246" lon="9.5718324"><ele>228.0</ele><time>2026-04-25T11:47:16.706Z</time></trkpt><trkpt lat="45.6844115" lon="9.5717093"><ele>228.2</ele><time>2026-04-25T11:47:17.705Z</time></trkpt><trkpt lat="45.6844971" lon="9.5715891"><ele>228.4</ele><time>2026-04-25T11:47:18.705Z</time></trkpt><trkpt lat="45.6845771" lon="9.5714787"><ele>228.59999999999997</ele><time>2026-04-25T11:47:19.706Z</time></trkpt><trkpt lat="45.6846489" lon="9.5713829"><ele>228.79999999999998</ele><time>2026-04-25T11:47:20.705Z</time></trkpt><trkpt lat="45.6847118" lon="9.571301"><ele>229.0</ele><time>2026-04-25T11:47:21.706Z</time></trkpt><trkpt lat="45.6847685" lon="9.5712368"><ele>228.79999999999998</ele><time>2026-04-25T11:47:22.706Z</time></trkpt><trkpt lat="45.6848607" lon="9.5711412"><ele>228.59999999999997</ele><time>2026-04-25T11:47:24.705Z</time></trkpt><trkpt lat="45.684971" lon="9.5710482"><ele>228.4</ele><time>2026-04-25T11:47:26.706Z</time></trkpt><trkpt lat="45.6850385" lon="9.5709926"><ele>228.2</ele><time>2026-04-25T11:47:27.705Z</time></trkpt><trkpt lat="45.6851034" lon="9.5709184"><ele>228.0</ele><time>2026-04-25T11:47:28.706Z</time></trkpt><trkpt lat="45.6851415" lon="9.57082"><ele>228.0</ele><time>2026-04-25T11:47:29.706Z</time></trkpt><trkpt lat="45.6851428" lon="9.570685"><ele>228.0</ele><time>2026-04-25T11:47:30.705Z</time></trkpt><trkpt lat="45.6851032" lon="9.5705636"><ele>228.0</ele><time>2026-04-25T11:47:31.706Z</time></trkpt><trkpt lat="45.6850305" lon="9.5704643"><ele>228.0</ele><time>2026-04-25T11:47:32.705Z</time></trkpt><trkpt lat="45.6849392" lon="9.5703866"><ele>228.0</ele><time>2026-04-25T11:47:33.706Z</time></trkpt><trkpt lat="45.6848345" lon="9.5703287"><ele>228.0</ele><time>2026-04-25T11:47:34.706Z</time></trkpt><trkpt lat="45.6847215" lon="9.5702943"><ele>228.0</ele><time>2026-04-25T11:47:35.706Z</time></trkpt><trkpt lat="45.6846032" lon="9.5702777"><ele>228.0</ele><time>2026-04-25T11:47:36.705Z</time></trkpt><trkpt lat="45.684483" lon="9.5702661"><ele>228.0</ele><time>2026-04-25T11:47:37.706Z</time></trkpt><trkpt lat="45.6843664" lon="9.5702461"><ele>228.0</ele><time>2026-04-25T11:47:38.706Z</time></trkpt><trkpt lat="45.6842539" lon="9.5702083"><ele>228.0</ele><time>2026-04-25T11:47:39.705Z</time></trkpt><trkpt lat="45.684151" lon="9.5701582"><ele>228.0</ele><time>2026-04-25T11:47:40.705Z</time></trkpt><trkpt lat="45.6840324" lon="9.5700893"><ele>228.0</ele><time>2026-04-25T11:47:41.705Z</time></trkpt><trkpt lat="45.68392" lon="9.5700163"><ele>228.0</ele><time>2026-04-25T11:47:42.706Z</time></trkpt><trkpt lat="45.6838076" lon="9.5699417"><ele>228.0</ele><time>2026-04-25T11:47:43.705Z</time></trkpt><trkpt lat="45.6836961" lon="9.5698675"><ele>228.0</ele><time>2026-04-25T11:47:44.705Z</time></trkpt><trkpt lat="45.6835923" lon="9.5697989"><ele>228.0</ele><time>2026-04-25T11:47:45.705Z</time></trkpt><trkpt lat="45.6834759" lon="9.5697225"><ele>227.8</ele><time>2026-04-25T11:47:46.706Z</time></trkpt><trkpt lat="45.6833692" lon="9.5696524"><ele>227.60000000000002</ele><time>2026-04-25T11:47:47.706Z</time></trkpt><trkpt lat="45.6832707" lon="9.5695882"><ele>227.39999999999998</ele><time>2026-04-25T11:47:48.705Z</time></trkpt><trkpt lat="45.6831646" lon="9.5695185"><ele>227.2</ele><time>2026-04-25T11:47:49.706Z</time></trkpt><trkpt lat="45.6830702" lon="9.5694551"><ele>227.0</ele><time>2026-04-25T11:47:50.705Z</time></trkpt><trkpt lat="45.6829802" lon="9.5693949"><ele>227.00000000000003</ele><time>2026-04-25T11:47:51.706Z</time></trkpt><trkpt lat="45.6828979" lon="9.5693403"><ele>227.0</ele><time>2026-04-25T11:47:52.705Z</time></trkpt><trkpt lat="45.6828206" lon="9.5692888"><ele>227.0</ele><time>2026-04-25T11:47:53.705Z</time></trkpt><trkpt lat="45.6827466" lon="9.5692377"><ele>227.0</ele><time>2026-04-25T11:47:54.706Z</time></trkpt><trkpt lat="45.682681" lon="9.5691903"><ele>227.00000000000003</ele><time>2026-04-25T11:47:55.705Z</time></trkpt><trkpt lat="45.6825943" lon="9.569119"><ele>227.0</ele><time>2026-04-25T11:47:57.705Z</time></trkpt><trkpt lat="45.6825425" lon="9.5690536"><ele>227.0</ele><time>2026-04-25T11:47:59.705Z</time></trkpt><trkpt lat="45.6824838" lon="9.5689372"><ele>227.0</ele><time>2026-04-25T11:48:01.705Z</time></trkpt><trkpt lat="45.6824128" lon="9.56879"><ele>227.0</ele><time>2026-04-25T11:48:03.706Z</time></trkpt><trkpt lat="45.6823084" lon="9.5686921"><ele>227.0</ele><time>2026-04-25T11:48:05.706Z</time></trkpt><trkpt lat="45.6822456" lon="9.5686724"><ele>227.0</ele><time>2026-04-25T11:48:06.706Z</time></trkpt><trkpt lat="45.682175" lon="9.5686706"><ele>227.00000000000003</ele><time>2026-04-25T11:48:07.705Z</time></trkpt><trkpt lat="45.6821012" lon="9.5686757"><ele>227.0</ele><time>2026-04-25T11:48:08.705Z</time></trkpt><trkpt lat="45.6820205" lon="9.5686768"><ele>227.0</ele><time>2026-04-25T11:48:09.705Z</time></trkpt><trkpt lat="45.6819473" lon="9.5686643"><ele>227.0</ele><time>2026-04-25T11:48:10.705Z</time></trkpt><trkpt lat="45.6818663" lon="9.5686328"><ele>227.00000000000003</ele><time>2026-04-25T11:48:11.705Z</time></trkpt><trkpt lat="45.6817852" lon="9.5685888"><ele>227.0</ele><time>2026-04-25T11:48:12.706Z</time></trkpt><trkpt lat="45.681703" lon="9.568539"><ele>227.0</ele><time>2026-04-25T11:48:13.705Z</time></trkpt><trkpt lat="45.681621" lon="9.5684868"><ele>227.0</ele><time>2026-04-25T11:48:14.706Z</time></trkpt><trkpt lat="45.6815379" lon="9.5684327"><ele>227.0</ele><time>2026-04-25T11:48:15.705Z</time></trkpt><trkpt lat="45.6814541" lon="9.5683775"><ele>227.0</ele><time>2026-04-25T11:48:16.705Z</time></trkpt><trkpt lat="45.6813688" lon="9.5683208"><ele>227.0</ele><time>2026-04-25T11:48:17.706Z</time></trkpt><trkpt lat="45.6812825" lon="9.568264"><ele>227.0</ele><time>2026-04-25T11:48:18.705Z</time></trkpt><trkpt lat="45.6811942" lon="9.5682061"><ele>227.0</ele><time>2026-04-25T11:48:19.705Z</time></trkpt><trkpt lat="45.6811063" lon="9.5681474"><ele>227.0</ele><time>2026-04-25T11:48:20.706Z</time></trkpt><trkpt lat="45.6810172" lon="9.5680875"><ele>227.0</ele><time>2026-04-25T11:48:21.705Z</time></trkpt><trkpt lat="45.6809293" lon="9.5680247"><ele>227.0</ele><time>2026-04-25T11:48:22.705Z</time></trkpt><trkpt lat="45.6808415" lon="9.5679625"><ele>226.83333333333334</ele><time>2026-04-25T11:48:23.705Z</time></trkpt><trkpt lat="45.6807561" lon="9.5679051"><ele>226.66666666666669</ele><time>2026-04-25T11:48:24.706Z</time></trkpt><trkpt lat="45.6806713" lon="9.5678516"><ele>226.5</ele><time>2026-04-25T11:48:25.706Z</time></trkpt><trkpt lat="45.6806038" lon="9.5678145"><ele>226.33333333333331</ele><time>2026-04-25T11:48:26.706Z</time></trkpt><trkpt lat="45.6805393" lon="9.5677962"><ele>226.16666666666666</ele><time>2026-04-25T11:48:27.706Z</time></trkpt><trkpt lat="45.6804539" lon="9.5678489"><ele>226.0</ele><time>2026-04-25T11:48:29.705Z</time></trkpt><trkpt lat="45.6804556" lon="9.5679582"><ele>225.99999999999997</ele><time>2026-04-25T11:48:32.706Z</time></trkpt><trkpt lat="45.6805124" lon="9.567904"><ele>226.0</ele><time>2026-04-25T11:48:35.705Z</time></trkpt><trkpt lat="45.6805849" lon="9.5678568"><ele>226.0</ele><time>2026-04-25T11:48:45.705Z</time></trkpt><trkpt lat="45.6806892" lon="9.5679276"><ele>226.0</ele><time>2026-04-25T11:48:47.706Z</time></trkpt><trkpt lat="45.6807539" lon="9.5679754"><ele>225.99999999999997</ele><time>2026-04-25T11:48:48.705Z</time></trkpt><trkpt lat="45.6808249" lon="9.5680218"><ele>226.0</ele><time>2026-04-25T11:48:49.706Z</time></trkpt><trkpt lat="45.6809006" lon="9.5680702"><ele>226.0</ele><time>2026-04-25T11:48:50.706Z</time></trkpt><trkpt lat="45.6809796" lon="9.5681216"><ele>226.00000000000003</ele><time>2026-04-25T11:48:51.706Z</time></trkpt><trkpt lat="45.6810613" lon="9.5681778"><ele>226.00000000000003</ele><time>2026-04-25T11:48:52.705Z</time></trkpt><trkpt lat="45.6811449" lon="9.5682367"><ele>226.0</ele><time>2026-04-25T11:48:53.706Z</time></trkpt><trkpt lat="45.6812313" lon="9.5682963"><ele>226.0</ele><time>2026-04-25T11:48:54.706Z</time></trkpt><trkpt lat="45.681317" lon="9.5683551"><ele>226.16666666666666</ele><time>2026-04-25T11:48:55.705Z</time></trkpt><trkpt lat="45.6813998" lon="9.568411"><ele>226.33333333333331</ele><time>2026-04-25T11:48:56.705Z</time></trkpt><trkpt lat="45.6814823" lon="9.5684657"><ele>226.5</ele><time>2026-04-25T11:48:57.705Z</time></trkpt><trkpt lat="45.6815476" lon="9.5685092"><ele>226.66666666666669</ele><time>2026-04-25T11:48:58.705Z</time></trkpt><trkpt lat="45.6816401" lon="9.5685932"><ele>226.83333333333334</ele><time>2026-04-25T11:49:00.706Z</time></trkpt><trkpt lat="45.6816835" lon="9.5686782"><ele>227.0</ele><time>2026-04-25T11:49:02.705Z</time></trkpt><trkpt lat="45.6817383" lon="9.5687594"><ele>227.16666666666669</ele><time>2026-04-25T11:49:05.706Z</time></trkpt><trkpt lat="45.6817764" lon="9.5688419"><ele>227.33333333333334</ele><time>2026-04-25T11:51:58.705Z</time></trkpt><trkpt lat="45.6818545" lon="9.5688876"><ele>227.5</ele><time>2026-04-25T11:52:01.706Z</time></trkpt><trkpt lat="45.6818768" lon="9.5690032"><ele>227.66666666666669</ele><time>2026-04-25T11:52:04.706Z</time></trkpt><trkpt lat="45.6818363" lon="9.5691297"><ele>227.83333333333334</ele><time>2026-04-25T11:52:06.705Z</time></trkpt><trkpt lat="45.6817824" lon="9.5692669"><ele>228.0</ele><time>2026-04-25T11:52:08.705Z</time></trkpt><trkpt lat="45.6817324" lon="9.5693988"><ele>228.0</ele><time>2026-04-25T11:52:10.706Z</time></trkpt><trkpt lat="45.6817246" lon="9.5695068"><ele>228.0</ele><time>2026-04-25T11:52:13.706Z</time></trkpt><trkpt lat="45.6817891" lon="9.5695638"><ele>228.0</ele><time>2026-04-25T11:52:17.706Z</time></trkpt><trkpt lat="45.6818918" lon="9.5694722"><ele>228.0</ele><time>2026-04-25T11:52:19.705Z</time></trkpt><trkpt lat="45.6819973" lon="9.5693916"><ele>228.0</ele><time>2026-04-25T11:52:21.706Z</time></trkpt><trkpt lat="45.6820606" lon="9.569345"><ele>228.0</ele><time>2026-04-25T11:52:24.705Z</time></trkpt><trkpt lat="45.6821191" lon="9.5692944"><ele>227.99999999999997</ele><time>2026-04-25T11:52:42.705Z</time></trkpt><trkpt lat="45.6822076" lon="9.5692545"><ele>228.0</ele><time>2026-04-25T11:52:44.706Z</time></trkpt><trkpt lat="45.6822722" lon="9.5692328"><ele>228.0</ele><time>2026-04-25T11:52:45.706Z</time></trkpt><trkpt lat="45.6823317" lon="9.5691995"><ele>227.99999999999997</ele><time>2026-04-25T11:52:46.705Z</time></trkpt><trkpt lat="45.6823824" lon="9.5691412"><ele>228.0</ele><time>2026-04-25T11:52:47.705Z</time></trkpt><trkpt lat="45.6824179" lon="9.5690588"><ele>228.0</ele><time>2026-04-25T11:52:48.706Z</time></trkpt><trkpt lat="45.6824249" lon="9.5689589"><ele>228.0</ele><time>2026-04-25T11:52:49.706Z</time></trkpt><trkpt lat="45.6823986" lon="9.5688515"><ele>228.0</ele><time>2026-04-25T11:52:50.705Z</time></trkpt><trkpt lat="45.6823373" lon="9.5687619"><ele>228.0</ele><time>2026-04-25T11:52:51.706Z</time></trkpt><trkpt lat="45.6822469" lon="9.5687113"><ele>228.0</ele><time>2026-04-25T11:52:52.705Z</time></trkpt><trkpt lat="45.6821349" lon="9.5686974"><ele>228.0</ele><time>2026-04-25T11:52:53.705Z</time></trkpt><trkpt lat="45.6820135" lon="9.5686945"><ele>227.75</ele><time>2026-04-25T11:52:54.706Z</time></trkpt><trkpt lat="45.6818877" lon="9.5686701"><ele>227.5</ele><time>2026-04-25T11:52:55.705Z</time></trkpt><trkpt lat="45.6817628" lon="9.5686137"><ele>227.25</ele><time>2026-04-25T11:52:56.705Z</time></trkpt><trkpt lat="45.681631" lon="9.5685332"><ele>227.0</ele><time>2026-04-25T11:52:57.705Z</time></trkpt><trkpt lat="45.6815112" lon="9.568455"><ele>227.0</ele><time>2026-04-25T11:52:58.706Z</time></trkpt><trkpt lat="45.68138" lon="9.568369"><ele>227.0</ele><time>2026-04-25T11:52:59.705Z</time></trkpt><trkpt lat="45.6812451" lon="9.5682807"><ele>227.0</ele><time>2026-04-25T11:53:00.705Z</time></trkpt><trkpt lat="45.6811107" lon="9.5681922"><ele>227.0</ele><time>2026-04-25T11:53:01.706Z</time></trkpt><trkpt lat="45.680978" lon="9.5681036"><ele>226.75</ele><time>2026-04-25T11:53:02.706Z</time></trkpt><trkpt lat="45.6808491" lon="9.5680174"><ele>226.5</ele><time>2026-04-25T11:53:03.706Z</time></trkpt><trkpt lat="45.6807229" lon="9.5679324"><ele>226.25</ele><time>2026-04-25T11:53:04.706Z</time></trkpt><trkpt lat="45.6806088" lon="9.567856"><ele>226.0</ele><time>2026-04-25T11:53:05.706Z</time></trkpt><trkpt lat="45.6804822" lon="9.5677725"><ele>226.25</ele><time>2026-04-25T11:53:06.705Z</time></trkpt><trkpt lat="45.6803632" lon="9.5676943"><ele>226.5</ele><time>2026-04-25T11:53:07.705Z</time></trkpt><trkpt lat="45.6802456" lon="9.5676164"><ele>226.75</ele><time>2026-04-25T11:53:08.705Z</time></trkpt><trkpt lat="45.6801284" lon="9.5675385"><ele>227.0</ele><time>2026-04-25T11:53:09.705Z</time></trkpt><trkpt lat="45.6800127" lon="9.5674609"><ele>227.0</ele><time>2026-04-25T11:53:10.705Z</time></trkpt><trkpt lat="45.6798958" lon="9.5673822"><ele>227.0</ele><time>2026-04-25T11:53:11.706Z</time></trkpt><trkpt lat="45.6797765" lon="9.5673029"><ele>227.0</ele><time>2026-04-25T11:53:12.705Z</time></trkpt><trkpt lat="45.6796595" lon="9.5672255"><ele>227.0</ele><time>2026-04-25T11:53:13.705Z</time></trkpt><trkpt lat="45.6795423" lon="9.5671493"><ele>227.0</ele><time>2026-04-25T11:53:14.706Z</time></trkpt><trkpt lat="45.6794192" lon="9.5670696"><ele>227.0</ele><time>2026-04-25T11:53:15.705Z</time></trkpt><trkpt lat="45.6792868" lon="9.5669829"><ele>227.0</ele><time>2026-04-25T11:53:16.705Z</time></trkpt><trkpt lat="45.679142" lon="9.5668867"><ele>227.0</ele><time>2026-04-25T11:53:17.705Z</time></trkpt><trkpt lat="45.6789873" lon="9.566784"><ele>227.0</ele><time>2026-04-25T11:53:18.705Z</time></trkpt><trkpt lat="45.6788274" lon="9.5666767"><ele>227.0</ele><time>2026-04-25T11:53:19.706Z</time></trkpt><trkpt lat="45.6786621" lon="9.5665668"><ele>227.0</ele><time>2026-04-25T11:53:20.705Z</time></trkpt><trkpt lat="45.6785074" lon="9.5664623"><ele>227.0</ele><time>2026-04-25T11:53:21.706Z</time></trkpt><trkpt lat="45.6783323" lon="9.5663464"><ele>227.0</ele><time>2026-04-25T11:53:22.705Z</time></trkpt><trkpt lat="45.6781664" lon="9.5662375"><ele>227.0</ele><time>2026-04-25T11:53:23.706Z</time></trkpt><trkpt lat="45.6780026" lon="9.5661347"><ele>226.66666666666669</ele><time>2026-04-25T11:53:24.706Z</time></trkpt><trkpt lat="45.6778403" lon="9.5660318"><ele>226.33333333333331</ele><time>2026-04-25T11:53:25.706Z</time></trkpt><trkpt lat="45.6776795" lon="9.5659299"><ele>226.0</ele><time>2026-04-25T11:53:26.705Z</time></trkpt><trkpt lat="45.6775181" lon="9.5658276"><ele>225.66666666666666</ele><time>2026-04-25T11:53:27.705Z</time></trkpt><trkpt lat="45.6773595" lon="9.5657252"><ele>225.33333333333331</ele><time>2026-04-25T11:53:28.705Z</time></trkpt><trkpt lat="45.6772035" lon="9.5656224"><ele>225.0</ele><time>2026-04-25T11:53:29.706Z</time></trkpt><trkpt lat="45.6770498" lon="9.5655208"><ele>224.66666666666669</ele><time>2026-04-25T11:53:30.706Z</time></trkpt><trkpt lat="45.6768965" lon="9.5654203"><ele>224.33333333333334</ele><time>2026-04-25T11:53:31.705Z</time></trkpt><trkpt lat="45.6767456" lon="9.5653215"><ele>224.0</ele><time>2026-04-25T11:53:32.705Z</time></trkpt><trkpt lat="45.6765964" lon="9.5652233"><ele>223.66666666666669</ele><time>2026-04-25T11:53:33.705Z</time></trkpt><trkpt lat="45.6764484" lon="9.565127"><ele>223.33333333333331</ele><time>2026-04-25T11:53:34.706Z</time></trkpt><trkpt lat="45.6763032" lon="9.5650321"><ele>223.0</ele><time>2026-04-25T11:53:35.706Z</time></trkpt><trkpt lat="45.6761574" lon="9.564937"><ele>223.0</ele><time>2026-04-25T11:53:36.705Z</time></trkpt><trkpt lat="45.6760223" lon="9.564849"><ele>223.0</ele><time>2026-04-25T11:53:37.706Z</time></trkpt><trkpt lat="45.6758685" lon="9.5647491"><ele>223.0</ele><time>2026-04-25T11:53:38.705Z</time></trkpt><trkpt lat="45.6757184" lon="9.564653"><ele>223.0</ele><time>2026-04-25T11:53:39.706Z</time></trkpt><trkpt lat="45.6755777" lon="9.5645628"><ele>223.0</ele><time>2026-04-25T11:53:40.706Z</time></trkpt><trkpt lat="45.6754167" lon="9.5644605"><ele>223.0</ele><time>2026-04-25T11:53:41.706Z</time></trkpt><trkpt lat="45.6752642" lon="9.5643629"><ele>222.33333333333331</ele><time>2026-04-25T11:53:42.706Z</time></trkpt><trkpt lat="45.6751117" lon="9.564264"><ele>221.66666666666669</ele><time>2026-04-25T11:53:43.706Z</time></trkpt><trkpt lat="45.674959" lon="9.5641636"><ele>221.0</ele><time>2026-04-25T11:53:44.705Z</time></trkpt><trkpt lat="45.6748062" lon="9.5640583"><ele>221.0</ele><time>2026-04-25T11:53:45.706Z</time></trkpt><trkpt lat="45.6746568" lon="9.5639468"><ele>221.0</ele><time>2026-04-25T11:53:46.705Z</time></trkpt><trkpt lat="45.6745135" lon="9.5638228"><ele>221.0</ele><time>2026-04-25T11:53:47.706Z</time></trkpt><trkpt lat="45.6743873" lon="9.5636931"><ele>220.33333333333334</ele><time>2026-04-25T11:53:48.705Z</time></trkpt><trkpt lat="45.6742545" lon="9.5635335"><ele>219.66666666666669</ele><time>2026-04-25T11:53:49.705Z</time></trkpt><trkpt lat="45.6741383" lon="9.563374"><ele>219.0</ele><time>2026-04-25T11:53:50.705Z</time></trkpt><trkpt lat="45.6740273" lon="9.5632085"><ele>219.0</ele><time>2026-04-25T11:53:51.706Z</time></trkpt><trkpt lat="45.6739195" lon="9.5630403"><ele>219.0</ele><time>2026-04-25T11:53:52.706Z</time></trkpt><trkpt lat="45.6738207" lon="9.5628807"><ele>219.0</ele><time>2026-04-25T11:53:53.706Z</time></trkpt><trkpt lat="45.673711" lon="9.5626951"><ele>219.0</ele><time>2026-04-25T11:53:54.705Z</time></trkpt><trkpt lat="45.673614" lon="9.5625197"><ele>219.0</ele><time>2026-04-25T11:53:55.706Z</time></trkpt><trkpt lat="45.6735278" lon="9.562357"><ele>219.0</ele><time>2026-04-25T11:53:56.705Z</time></trkpt><trkpt lat="45.6734342" lon="9.5621745"><ele>219.0</ele><time>2026-04-25T11:53:57.705Z</time></trkpt><trkpt lat="45.6733509" lon="9.5620106"><ele>219.0</ele><time>2026-04-25T11:53:58.706Z</time></trkpt><trkpt lat="45.6732712" lon="9.5618545"><ele>219.0</ele><time>2026-04-25T11:53:59.706Z</time></trkpt><trkpt lat="45.6731958" lon="9.5617082"><ele>219.0</ele><time>2026-04-25T11:54:00.706Z</time></trkpt><trkpt lat="45.673126" lon="9.5615731"><ele>219.0</ele><time>2026-04-25T11:54:01.705Z</time></trkpt><trkpt lat="45.6730626" lon="9.5614445"><ele>218.99999999999997</ele><time>2026-04-25T11:54:02.706Z</time></trkpt><trkpt lat="45.6730037" lon="9.5613235"><ele>218.99999999999997</ele><time>2026-04-25T11:54:03.705Z</time></trkpt><trkpt lat="45.6729537" lon="9.5612234"><ele>219.0</ele><time>2026-04-25T11:54:04.705Z</time></trkpt><trkpt lat="45.6729023" lon="9.5611195"><ele>219.0</ele><time>2026-04-25T11:54:05.705Z</time></trkpt><trkpt lat="45.6728634" lon="9.5610341"><ele>219.25</ele><time>2026-04-25T11:54:06.706Z</time></trkpt><trkpt lat="45.6728098" lon="9.5609116"><ele>219.5</ele><time>2026-04-25T11:54:08.706Z</time></trkpt><trkpt lat="45.6727443" lon="9.5607736"><ele>219.75</ele><time>2026-04-25T11:54:49.706Z</time></trkpt><trkpt lat="45.6726885" lon="9.5606537"><ele>220.0</ele><time>2026-04-25T11:54:50.706Z</time></trkpt><trkpt lat="45.672604" lon="9.5604809"><ele>220.0</ele><time>2026-04-25T11:54:51.706Z</time></trkpt><trkpt lat="45.6725037" lon="9.5602754"><ele>220.0</ele><time>2026-04-25T11:54:52.706Z</time></trkpt><trkpt lat="45.6723713" lon="9.5600121"><ele>220.0</ele><time>2026-04-25T11:54:53.705Z</time></trkpt><trkpt lat="45.6722453" lon="9.5597677"><ele>220.0</ele><time>2026-04-25T11:54:54.706Z</time></trkpt><trkpt lat="45.6721287" lon="9.5595414"><ele>220.0</ele><time>2026-04-25T11:54:55.706Z</time></trkpt><trkpt lat="45.6720009" lon="9.5592938"><ele>220.0</ele><time>2026-04-25T11:54:56.706Z</time></trkpt><trkpt lat="45.6718936" lon="9.5590849"><ele>219.66666666666666</ele><time>2026-04-25T11:54:57.705Z</time></trkpt><trkpt lat="45.6717749" lon="9.5588509"><ele>219.33333333333331</ele><time>2026-04-25T11:54:58.705Z</time></trkpt><trkpt lat="45.6716654" lon="9.558635"><ele>219.0</ele><time>2026-04-25T11:54:59.705Z</time></trkpt><trkpt lat="45.6715587" lon="9.5584263"><ele>219.0</ele><time>2026-04-25T11:55:00.706Z</time></trkpt><trkpt lat="45.6714182" lon="9.5581564"><ele>219.0</ele><time>2026-04-25T11:55:01.706Z</time></trkpt><trkpt lat="45.671271" lon="9.5578772"><ele>219.5</ele><time>2026-04-25T11:55:02.706Z</time></trkpt><trkpt lat="45.6711361" lon="9.5576272"><ele>220.0</ele><time>2026-04-25T11:55:03.705Z</time></trkpt><trkpt lat="45.6709913" lon="9.557362"><ele>219.66666666666666</ele><time>2026-04-25T11:55:04.706Z</time></trkpt><trkpt lat="45.6708708" lon="9.5571325"><ele>219.33333333333331</ele><time>2026-04-25T11:55:05.706Z</time></trkpt><trkpt lat="45.6707791" lon="9.5569207"><ele>219.0</ele><time>2026-04-25T11:55:06.705Z</time></trkpt><trkpt lat="45.6707132" lon="9.5567373"><ele>219.0</ele><time>2026-04-25T11:55:07.705Z</time></trkpt><trkpt lat="45.6706391" lon="9.5566092"><ele>218.99999999999997</ele><time>2026-04-25T11:55:08.706Z</time></trkpt><trkpt lat="45.6705395" lon="9.5565369"><ele>218.99999999999997</ele><time>2026-04-25T11:55:09.706Z</time></trkpt><trkpt lat="45.6704471" lon="9.5565404"><ele>219.0</ele><time>2026-04-25T11:55:10.705Z</time></trkpt><trkpt lat="45.6703542" lon="9.5565779"><ele>219.0</ele><time>2026-04-25T11:55:11.705Z</time></trkpt><trkpt lat="45.6702209" lon="9.5565901"><ele>218.0</ele><time>2026-04-25T11:55:12.705Z</time></trkpt><trkpt lat="45.6700684" lon="9.5565825"><ele>217.0</ele><time>2026-04-25T11:55:13.706Z</time></trkpt><trkpt lat="45.6698864" lon="9.5565239"><ele>216.0</ele><time>2026-04-25T11:55:14.705Z</time></trkpt><trkpt lat="45.6696967" lon="9.5564179"><ele>216.0</ele><time>2026-04-25T11:55:15.705Z</time></trkpt><trkpt lat="45.6695322" lon="9.5563099"><ele>216.0</ele><time>2026-04-25T11:55:16.705Z</time></trkpt><trkpt lat="45.6693535" lon="9.5561939"><ele>216.0</ele><time>2026-04-25T11:55:17.705Z</time></trkpt><trkpt lat="45.6691902" lon="9.5560901"><ele>216.0</ele><time>2026-04-25T11:55:18.706Z</time></trkpt><trkpt lat="45.6690449" lon="9.5559974"><ele>216.0</ele><time>2026-04-25T11:55:19.706Z</time></trkpt><trkpt lat="45.6688886" lon="9.5558959"><ele>216.0</ele><time>2026-04-25T11:55:20.705Z</time></trkpt><trkpt lat="45.6687502" lon="9.5558051"><ele>216.0</ele><time>2026-04-25T11:55:21.706Z</time></trkpt><trkpt lat="45.6686156" lon="9.5557164"><ele>216.0</ele><time>2026-04-25T11:55:22.706Z</time></trkpt><trkpt lat="45.6684833" lon="9.5556297"><ele>216.0</ele><time>2026-04-25T11:55:23.706Z</time></trkpt><trkpt lat="45.6683612" lon="9.5555485"><ele>216.0</ele><time>2026-04-25T11:55:24.705Z</time></trkpt><trkpt lat="45.6682259" lon="9.5554597"><ele>215.5</ele><time>2026-04-25T11:55:25.705Z</time></trkpt><trkpt lat="45.6681015" lon="9.5553785"><ele>215.0</ele><time>2026-04-25T11:55:26.705Z</time></trkpt><trkpt lat="45.667977" lon="9.555297"><ele>214.5</ele><time>2026-04-25T11:55:27.705Z</time></trkpt><trkpt lat="45.6678537" lon="9.5552162"><ele>214.0</ele><time>2026-04-25T11:55:28.706Z</time></trkpt><trkpt lat="45.6677374" lon="9.5551393"><ele>214.0</ele><time>2026-04-25T11:55:29.705Z</time></trkpt><trkpt lat="45.6676061" lon="9.5550524"><ele>214.0</ele><time>2026-04-25T11:55:30.705Z</time></trkpt><trkpt lat="45.6674814" lon="9.5549701"><ele>214.0</ele><time>2026-04-25T11:55:31.705Z</time></trkpt><trkpt lat="45.6673565" lon="9.5548883"><ele>214.0</ele><time>2026-04-25T11:55:32.705Z</time></trkpt><trkpt lat="45.6672327" lon="9.5548068"><ele>214.0</ele><time>2026-04-25T11:55:33.705Z</time></trkpt><trkpt lat="45.6671102" lon="9.5547257"><ele>214.0</ele><time>2026-04-25T11:55:34.705Z</time></trkpt><trkpt lat="45.6669929" lon="9.5546479"><ele>214.0</ele><time>2026-04-25T11:55:35.705Z</time></trkpt><trkpt lat="45.6668805" lon="9.5545739"><ele>214.0</ele><time>2026-04-25T11:55:36.705Z</time></trkpt><trkpt lat="45.6667696" lon="9.5545015"><ele>213.79999999999998</ele><time>2026-04-25T11:55:37.705Z</time></trkpt><trkpt lat="45.6666685" lon="9.5544369"><ele>213.59999999999997</ele><time>2026-04-25T11:55:38.705Z</time></trkpt><trkpt lat="45.6665686" lon="9.5543754"><ele>213.4</ele><time>2026-04-25T11:55:39.706Z</time></trkpt><trkpt lat="45.6664657" lon="9.5543193"><ele>213.2</ele><time>2026-04-25T11:55:40.706Z</time></trkpt><trkpt lat="45.666357" lon="9.5542685"><ele>213.0</ele><time>2026-04-25T11:55:41.705Z</time></trkpt><trkpt lat="45.6662465" lon="9.5542223"><ele>213.0</ele><time>2026-04-25T11:55:42.705Z</time></trkpt><trkpt lat="45.6661341" lon="9.5541799"><ele>213.0</ele><time>2026-04-25T11:55:43.705Z</time></trkpt><trkpt lat="45.666023" lon="9.55414"><ele>213.0</ele><time>2026-04-25T11:55:44.706Z</time></trkpt><trkpt lat="45.6659154" lon="9.5541039"><ele>213.0</ele><time>2026-04-25T11:55:45.706Z</time></trkpt><trkpt lat="45.6657943" lon="9.5540659"><ele>213.0</ele><time>2026-04-25T11:55:46.705Z</time></trkpt><trkpt lat="45.6656757" lon="9.5540291"><ele>213.0</ele><time>2026-04-25T11:55:47.705Z</time></trkpt><trkpt lat="45.665533" lon="9.5539882"><ele>213.0</ele><time>2026-04-25T11:55:48.706Z</time></trkpt><trkpt lat="45.6653669" lon="9.5539411"><ele>213.0</ele><time>2026-04-25T11:55:49.706Z</time></trkpt><trkpt lat="45.6651936" lon="9.5538941"><ele>213.33333333333331</ele><time>2026-04-25T11:55:50.705Z</time></trkpt><trkpt lat="45.6650151" lon="9.5538439"><ele>213.66666666666666</ele><time>2026-04-25T11:55:51.705Z</time></trkpt><trkpt lat="45.6648321" lon="9.553791"><ele>214.0</ele><time>2026-04-25T11:55:52.705Z</time></trkpt><trkpt lat="45.6646521" lon="9.5537362"><ele>214.0</ele><time>2026-04-25T11:55:53.706Z</time></trkpt><trkpt lat="45.6644724" lon="9.5536807"><ele>214.0</ele><time>2026-04-25T11:55:54.705Z</time></trkpt><trkpt lat="45.6642942" lon="9.5536277"><ele>214.0</ele><time>2026-04-25T11:55:55.705Z</time></trkpt><trkpt lat="45.6641193" lon="9.5535783"><ele>214.0</ele><time>2026-04-25T11:55:56.706Z</time></trkpt><trkpt lat="45.663948" lon="9.55353"><ele>214.0</ele><time>2026-04-25T11:55:57.705Z</time></trkpt><trkpt lat="45.6637684" lon="9.5534841"><ele>214.0</ele><time>2026-04-25T11:55:58.705Z</time></trkpt><trkpt lat="45.6635672" lon="9.5534396"><ele>213.0</ele><time>2026-04-25T11:55:59.706Z</time></trkpt><trkpt lat="45.6633392" lon="9.5533978"><ele>212.0</ele><time>2026-04-25T11:56:00.706Z</time></trkpt><trkpt lat="45.6631309" lon="9.5533891"><ele>211.0</ele><time>2026-04-25T11:56:01.706Z</time></trkpt><trkpt lat="45.6629102" lon="9.5534207"><ele>210.66666666666666</ele><time>2026-04-25T11:56:02.706Z</time></trkpt><trkpt lat="45.6627162" lon="9.553478"><ele>210.33333333333331</ele><time>2026-04-25T11:56:03.705Z</time></trkpt><trkpt lat="45.6625298" lon="9.5535466"><ele>210.0</ele><time>2026-04-25T11:56:04.705Z</time></trkpt><trkpt lat="45.6623472" lon="9.5536182"><ele>210.0</ele><time>2026-04-25T11:56:05.706Z</time></trkpt><trkpt lat="45.662167" lon="9.5536877"><ele>210.0</ele><time>2026-04-25T11:56:06.706Z</time></trkpt><trkpt lat="45.6619874" lon="9.5537564"><ele>210.0</ele><time>2026-04-25T11:56:07.706Z</time></trkpt><trkpt lat="45.6618094" lon="9.5538265"><ele>209.66666666666669</ele><time>2026-04-25T11:56:08.706Z</time></trkpt><trkpt lat="45.6616263" lon="9.5538996"><ele>209.33333333333334</ele><time>2026-04-25T11:56:09.705Z</time></trkpt><trkpt lat="45.6614415" lon="9.5539727"><ele>209.0</ele><time>2026-04-25T11:56:10.705Z</time></trkpt><trkpt lat="45.661255" lon="9.5540471"><ele>209.0</ele><time>2026-04-25T11:56:11.705Z</time></trkpt><trkpt lat="45.6610695" lon="9.5541229"><ele>209.0</ele><time>2026-04-25T11:56:12.706Z</time></trkpt><trkpt lat="45.6608867" lon="9.5541993"><ele>209.0</ele><time>2026-04-25T11:56:13.706Z</time></trkpt><trkpt lat="45.6607119" lon="9.5542735"><ele>209.0</ele><time>2026-04-25T11:56:14.706Z</time></trkpt><trkpt lat="45.6605518" lon="9.5543531"><ele>209.0</ele><time>2026-04-25T11:56:15.706Z</time></trkpt><trkpt lat="45.6604109" lon="9.5544397"><ele>209.0</ele><time>2026-04-25T11:56:16.705Z</time></trkpt><trkpt lat="45.6602802" lon="9.5545143"><ele>209.0</ele><time>2026-04-25T11:56:17.706Z</time></trkpt><trkpt lat="45.6601108" lon="9.5545705"><ele>209.0</ele><time>2026-04-25T11:56:18.706Z</time></trkpt><trkpt lat="45.6599501" lon="9.5546517"><ele>209.0</ele><time>2026-04-25T11:56:19.705Z</time></trkpt><trkpt lat="45.6597942" lon="9.5547385"><ele>209.0</ele><time>2026-04-25T11:56:20.706Z</time></trkpt><trkpt lat="45.6596117" lon="9.5547864"><ele>209.0</ele><time>2026-04-25T11:56:21.705Z</time></trkpt><trkpt lat="45.6594252" lon="9.5547781"><ele>209.0</ele><time>2026-04-25T11:56:22.705Z</time></trkpt><trkpt lat="45.6592359" lon="9.5547389"><ele>209.0</ele><time>2026-04-25T11:56:23.706Z</time></trkpt><trkpt lat="45.6590359" lon="9.5546672"><ele>209.0</ele><time>2026-04-25T11:56:24.706Z</time></trkpt><trkpt lat="45.6588093" lon="9.5545798"><ele>209.0</ele><time>2026-04-25T11:56:25.706Z</time></trkpt><trkpt lat="45.6586052" lon="9.5544896"><ele>209.0</ele><time>2026-04-25T11:56:26.705Z</time></trkpt><trkpt lat="45.6584041" lon="9.5543973"><ele>209.0</ele><time>2026-04-25T11:56:27.706Z</time></trkpt><trkpt lat="45.6582155" lon="9.5543096"><ele>209.0</ele><time>2026-04-25T11:56:28.705Z</time></trkpt><trkpt lat="45.6580045" lon="9.5542107"><ele>209.0</ele><time>2026-04-25T11:56:29.705Z</time></trkpt><trkpt lat="45.6578083" lon="9.5541181"><ele>209.0</ele><time>2026-04-25T11:56:30.706Z</time></trkpt><trkpt lat="45.6576166" lon="9.5540298"><ele>209.0</ele><time>2026-04-25T11:56:31.705Z</time></trkpt><trkpt lat="45.6574254" lon="9.553942"><ele>208.0</ele><time>2026-04-25T11:56:32.706Z</time></trkpt><trkpt lat="45.6572507" lon="9.5538623"><ele>207.0</ele><time>2026-04-25T11:56:33.706Z</time></trkpt><trkpt lat="45.6570585" lon="9.5537749"><ele>206.0</ele><time>2026-04-25T11:56:34.705Z</time></trkpt><trkpt lat="45.6568842" lon="9.5536949"><ele>205.66666666666669</ele><time>2026-04-25T11:56:35.706Z</time></trkpt><trkpt lat="45.656728" lon="9.553622"><ele>205.33333333333331</ele><time>2026-04-25T11:56:36.705Z</time></trkpt><trkpt lat="45.6565619" lon="9.5535446"><ele>205.0</ele><time>2026-04-25T11:56:37.705Z</time></trkpt><trkpt lat="45.6564172" lon="9.5534772"><ele>205.0</ele><time>2026-04-25T11:56:38.705Z</time></trkpt><trkpt lat="45.6562793" lon="9.5534116"><ele>205.0</ele><time>2026-04-25T11:56:39.705Z</time></trkpt><trkpt lat="45.65616" lon="9.5533572"><ele>205.0</ele><time>2026-04-25T11:56:40.705Z</time></trkpt><trkpt lat="45.6560572" lon="9.5533092"><ele>205.0</ele><time>2026-04-25T11:56:41.705Z</time></trkpt><trkpt lat="45.6559621" lon="9.5532637"><ele>204.5</ele><time>2026-04-25T11:56:42.706Z</time></trkpt><trkpt lat="45.6558606" lon="9.5532144"><ele>204.0</ele><time>2026-04-25T11:56:43.706Z</time></trkpt><trkpt lat="45.655753" lon="9.5531661"><ele>203.5</ele><time>2026-04-25T11:56:44.706Z</time></trkpt><trkpt lat="45.6556004" lon="9.5531049"><ele>203.0</ele><time>2026-04-25T11:56:45.705Z</time></trkpt><trkpt lat="45.6554321" lon="9.5530279"><ele>202.66666666666669</ele><time>2026-04-25T11:56:46.705Z</time></trkpt><trkpt lat="45.6552557" lon="9.5529398"><ele>202.33333333333331</ele><time>2026-04-25T11:56:47.705Z</time></trkpt><trkpt lat="45.6550849" lon="9.5528552"><ele>202.0</ele><time>2026-04-25T11:56:48.705Z</time></trkpt><trkpt lat="45.6549308" lon="9.5527808"><ele>202.0</ele><time>2026-04-25T11:56:49.705Z</time></trkpt><trkpt lat="45.6547593" lon="9.5526992"><ele>202.0</ele><time>2026-04-25T11:56:50.706Z</time></trkpt><trkpt lat="45.6545989" lon="9.5526253"><ele>202.0</ele><time>2026-04-25T11:56:51.706Z</time></trkpt><trkpt lat="45.6544411" lon="9.5525548"><ele>202.0</ele><time>2026-04-25T11:56:52.706Z</time></trkpt><trkpt lat="45.6542656" lon="9.5524743"><ele>202.0</ele><time>2026-04-25T11:56:53.705Z</time></trkpt><trkpt lat="45.6541097" lon="9.5524014"><ele>202.0</ele><time>2026-04-25T11:56:54.705Z</time></trkpt><trkpt lat="45.6539629" lon="9.55233"><ele>202.0</ele><time>2026-04-25T11:56:55.705Z</time></trkpt><trkpt lat="45.6538346" lon="9.552265"><ele>202.0</ele><time>2026-04-25T11:56:56.706Z</time></trkpt><trkpt lat="45.6537278" lon="9.5522034"><ele>202.0</ele><time>2026-04-25T11:56:57.706Z</time></trkpt><trkpt lat="45.653637" lon="9.5521302"><ele>202.0</ele><time>2026-04-25T11:56:58.706Z</time></trkpt><trkpt lat="45.6535587" lon="9.5520387"><ele>201.83333333333331</ele><time>2026-04-25T11:56:59.706Z</time></trkpt><trkpt lat="45.6534928" lon="9.5519529"><ele>201.66666666666666</ele><time>2026-04-25T11:57:00.705Z</time></trkpt><trkpt lat="45.6534179" lon="9.5518806"><ele>201.5</ele><time>2026-04-25T11:57:01.705Z</time></trkpt><trkpt lat="45.6533389" lon="9.5518531"><ele>201.33333333333331</ele><time>2026-04-25T11:57:02.706Z</time></trkpt><trkpt lat="45.653251" lon="9.5518593"><ele>201.16666666666666</ele><time>2026-04-25T11:57:03.705Z</time></trkpt><trkpt lat="45.6531642" lon="9.5518703"><ele>201.0</ele><time>2026-04-25T11:57:04.705Z</time></trkpt><trkpt lat="45.6530766" lon="9.5518653"><ele>201.0</ele><time>2026-04-25T11:57:05.706Z</time></trkpt><trkpt lat="45.6529676" lon="9.5518374"><ele>201.0</ele><time>2026-04-25T11:57:06.705Z</time></trkpt><trkpt lat="45.6528566" lon="9.5517958"><ele>201.0</ele><time>2026-04-25T11:57:07.706Z</time></trkpt><trkpt lat="45.6527249" lon="9.5517421"><ele>201.0</ele><time>2026-04-25T11:57:08.706Z</time></trkpt><trkpt lat="45.6525662" lon="9.5516691"><ele>201.0</ele><time>2026-04-25T11:57:09.706Z</time></trkpt><trkpt lat="45.6524273" lon="9.5516007"><ele>201.0</ele><time>2026-04-25T11:57:10.706Z</time></trkpt><trkpt lat="45.6522984" lon="9.551534"><ele>201.0</ele><time>2026-04-25T11:57:11.705Z</time></trkpt><trkpt lat="45.6521785" lon="9.5514712"><ele>201.0</ele><time>2026-04-25T11:57:12.706Z</time></trkpt><trkpt lat="45.6520643" lon="9.5514135"><ele>201.0</ele><time>2026-04-25T11:57:13.706Z</time></trkpt><trkpt lat="45.6519548" lon="9.5513605"><ele>201.0</ele><time>2026-04-25T11:57:14.705Z</time></trkpt><trkpt lat="45.6518593" lon="9.5513179"><ele>201.0</ele><time>2026-04-25T11:57:15.706Z</time></trkpt><trkpt lat="45.6517881" lon="9.5512881"><ele>201.0</ele><time>2026-04-25T11:57:16.706Z</time></trkpt><trkpt lat="45.651717" lon="9.5512578"><ele>201.0</ele><time>2026-04-25T11:57:18.705Z</time></trkpt><trkpt lat="45.6516442" lon="9.5512243"><ele>201.0</ele><time>2026-04-25T11:57:20.705Z</time></trkpt><trkpt lat="45.6515491" lon="9.5511742"><ele>201.0</ele><time>2026-04-25T11:57:22.705Z</time></trkpt><trkpt lat="45.6514504" lon="9.5511308"><ele>201.0</ele><time>2026-04-25T11:57:24.706Z</time></trkpt><trkpt lat="45.6513543" lon="9.5510885"><ele>201.0</ele><time>2026-04-25T11:57:26.705Z</time></trkpt><trkpt lat="45.6512395" lon="9.5510337"><ele>201.0</ele><time>2026-04-25T11:57:28.706Z</time></trkpt><trkpt lat="45.6511676" lon="9.5509995"><ele>201.0</ele><time>2026-04-25T11:57:29.705Z</time></trkpt><trkpt lat="45.6511032" lon="9.5509694"><ele>201.4</ele><time>2026-04-25T11:57:30.705Z</time></trkpt><trkpt lat="45.6510266" lon="9.5509337"><ele>201.8</ele><time>2026-04-25T11:57:31.706Z</time></trkpt><trkpt lat="45.6509337" lon="9.5508917"><ele>202.20000000000002</ele><time>2026-04-25T11:57:32.706Z</time></trkpt><trkpt lat="45.6508244" lon="9.5508412"><ele>202.60000000000002</ele><time>2026-04-25T11:57:33.705Z</time></trkpt><trkpt lat="45.6507077" lon="9.5507875"><ele>203.0</ele><time>2026-04-25T11:57:34.705Z</time></trkpt><trkpt lat="45.6505823" lon="9.5507301"><ele>203.0</ele><time>2026-04-25T11:57:35.705Z</time></trkpt><trkpt lat="45.6504513" lon="9.5506691"><ele>203.0</ele><time>2026-04-25T11:57:36.705Z</time></trkpt><trkpt lat="45.6503246" lon="9.5506109"><ele>203.0</ele><time>2026-04-25T11:57:37.706Z</time></trkpt><trkpt lat="45.6501782" lon="9.5505414"><ele>203.0</ele><time>2026-04-25T11:57:38.705Z</time></trkpt><trkpt lat="45.6500358" lon="9.5504743"><ele>202.75</ele><time>2026-04-25T11:57:39.706Z</time></trkpt><trkpt lat="45.6499038" lon="9.5504115"><ele>202.5</ele><time>2026-04-25T11:57:40.705Z</time></trkpt><trkpt lat="45.6497551" lon="9.5503406"><ele>202.25</ele><time>2026-04-25T11:57:41.705Z</time></trkpt><trkpt lat="45.6496161" lon="9.5502743"><ele>202.0</ele><time>2026-04-25T11:57:42.706Z</time></trkpt><trkpt lat="45.649483" lon="9.5502061"><ele>202.0</ele><time>2026-04-25T11:57:43.705Z</time></trkpt><trkpt lat="45.6493511" lon="9.5501321"><ele>202.0</ele><time>2026-04-25T11:57:44.705Z</time></trkpt><trkpt lat="45.6492208" lon="9.550046"><ele>202.0</ele><time>2026-04-25T11:57:45.705Z</time></trkpt><trkpt lat="45.6490874" lon="9.5499464"><ele>202.0</ele><time>2026-04-25T11:57:46.706Z</time></trkpt><trkpt lat="45.6489549" lon="9.5498376"><ele>202.0</ele><time>2026-04-25T11:57:47.706Z</time></trkpt><trkpt lat="45.6488306" lon="9.5497354"><ele>202.0</ele><time>2026-04-25T11:57:48.705Z</time></trkpt><trkpt lat="45.6486923" lon="9.5496215"><ele>202.0</ele><time>2026-04-25T11:57:49.705Z</time></trkpt><trkpt lat="45.6485626" lon="9.5495156"><ele>202.33333333333331</ele><time>2026-04-25T11:57:50.705Z</time></trkpt><trkpt lat="45.648432" lon="9.5494068"><ele>202.66666666666669</ele><time>2026-04-25T11:57:51.705Z</time></trkpt><trkpt lat="45.6482952" lon="9.5492916"><ele>203.0</ele><time>2026-04-25T11:57:52.706Z</time></trkpt><trkpt lat="45.6481639" lon="9.5491819"><ele>203.0</ele><time>2026-04-25T11:57:53.706Z</time></trkpt><trkpt lat="45.6480129" lon="9.5490562"><ele>203.0</ele><time>2026-04-25T11:57:54.705Z</time></trkpt><trkpt lat="45.6478697" lon="9.5489372"><ele>203.0</ele><time>2026-04-25T11:57:55.705Z</time></trkpt><trkpt lat="45.6477397" lon="9.5488282"><ele>202.75</ele><time>2026-04-25T11:57:56.706Z</time></trkpt><trkpt lat="45.6475991" lon="9.5487103"><ele>202.5</ele><time>2026-04-25T11:57:57.705Z</time></trkpt><trkpt lat="45.6474812" lon="9.5486114"><ele>202.25</ele><time>2026-04-25T11:57:58.705Z</time></trkpt><trkpt lat="45.6473829" lon="9.5485305"><ele>202.0</ele><time>2026-04-25T11:57:59.706Z</time></trkpt><trkpt lat="45.6473047" lon="9.548467"><ele>201.99999999999997</ele><time>2026-04-25T11:58:00.706Z</time></trkpt><trkpt lat="45.647244" lon="9.5484185"><ele>202.0</ele><time>2026-04-25T11:58:01.705Z</time></trkpt><trkpt lat="45.647156" lon="9.5483555"><ele>202.0</ele><time>2026-04-25T11:58:03.705Z</time></trkpt><trkpt lat="45.6470908" lon="9.5483015"><ele>202.0</ele><time>2026-04-25T11:58:11.706Z</time></trkpt><trkpt lat="45.6470247" lon="9.5482413"><ele>201.99999999999997</ele><time>2026-04-25T11:58:12.706Z</time></trkpt><trkpt lat="45.6469275" lon="9.548157"><ele>202.0</ele><time>2026-04-25T11:58:13.706Z</time></trkpt><trkpt lat="45.6468033" lon="9.5480492"><ele>201.66666666666666</ele><time>2026-04-25T11:58:14.706Z</time></trkpt><trkpt lat="45.6466375" lon="9.5479161"><ele>201.33333333333331</ele><time>2026-04-25T11:58:15.705Z</time></trkpt><trkpt lat="45.6464526" lon="9.5477785"><ele>201.0</ele><time>2026-04-25T11:58:16.705Z</time></trkpt><trkpt lat="45.6462634" lon="9.5476052"><ele>201.33333333333331</ele><time>2026-04-25T11:58:17.706Z</time></trkpt><trkpt lat="45.6460965" lon="9.5474636"><ele>201.66666666666666</ele><time>2026-04-25T11:58:18.705Z</time></trkpt><trkpt lat="45.6459261" lon="9.5473203"><ele>202.0</ele><time>2026-04-25T11:58:19.705Z</time></trkpt><trkpt lat="45.6457807" lon="9.5472218"><ele>202.0</ele><time>2026-04-25T11:58:20.705Z</time></trkpt><trkpt lat="45.6456382" lon="9.547097"><ele>202.0</ele><time>2026-04-25T11:58:21.706Z</time></trkpt><trkpt lat="45.6455165" lon="9.5469721"><ele>202.0</ele><time>2026-04-25T11:58:22.705Z</time></trkpt><trkpt lat="45.6454039" lon="9.5468329"><ele>201.5</ele><time>2026-04-25T11:58:23.705Z</time></trkpt><trkpt lat="45.6453137" lon="9.5466884"><ele>201.0</ele><time>2026-04-25T11:58:24.706Z</time></trkpt><trkpt lat="45.6452538" lon="9.5465346"><ele>200.5</ele><time>2026-04-25T11:58:25.706Z</time></trkpt><trkpt lat="45.6452084" lon="9.5463921"><ele>200.0</ele><time>2026-04-25T11:58:26.705Z</time></trkpt><trkpt lat="45.6451505" lon="9.5462885"><ele>200.0</ele><time>2026-04-25T11:58:27.706Z</time></trkpt><trkpt lat="45.6450708" lon="9.546239"><ele>200.0</ele><time>2026-04-25T11:58:28.705Z</time></trkpt><trkpt lat="45.6449783" lon="9.5462546"><ele>200.0</ele><time>2026-04-25T11:58:29.705Z</time></trkpt><trkpt lat="45.6448688" lon="9.5462926"><ele>200.0</ele><time>2026-04-25T11:58:30.706Z</time></trkpt><trkpt lat="45.6447465" lon="9.546302"><ele>200.0</ele><time>2026-04-25T11:58:31.706Z</time></trkpt><trkpt lat="45.6446188" lon="9.5462593"><ele>199.66666666666669</ele><time>2026-04-25T11:58:32.705Z</time></trkpt><trkpt lat="45.644482" lon="9.546163"><ele>199.33333333333331</ele><time>2026-04-25T11:58:33.706Z</time></trkpt><trkpt lat="45.6443487" lon="9.5460532"><ele>199.0</ele><time>2026-04-25T11:58:34.706Z</time></trkpt><trkpt lat="45.6441997" lon="9.5459313"><ele>198.33333333333331</ele><time>2026-04-25T11:58:35.706Z</time></trkpt><trkpt lat="45.6440421" lon="9.5457999"><ele>197.66666666666669</ele><time>2026-04-25T11:58:36.706Z</time></trkpt><trkpt lat="45.6438749" lon="9.5456602"><ele>197.0</ele><time>2026-04-25T11:58:37.706Z</time></trkpt><trkpt lat="45.6437056" lon="9.5455203"><ele>196.0</ele><time>2026-04-25T11:58:38.705Z</time></trkpt><trkpt lat="45.6435396" lon="9.5453841"><ele>195.0</ele><time>2026-04-25T11:58:39.705Z</time></trkpt><trkpt lat="45.6433765" lon="9.5452502"><ele>194.0</ele><time>2026-04-25T11:58:40.705Z</time></trkpt><trkpt lat="45.6432112" lon="9.545116"><ele>194.0</ele><time>2026-04-25T11:58:41.706Z</time></trkpt><trkpt lat="45.6430435" lon="9.5449793"><ele>194.0</ele><time>2026-04-25T11:58:42.706Z</time></trkpt><trkpt lat="45.6428764" lon="9.544843"><ele>194.0</ele><time>2026-04-25T11:58:43.705Z</time></trkpt><trkpt lat="45.642711" lon="9.5447086"><ele>194.0</ele><time>2026-04-25T11:58:44.705Z</time></trkpt><trkpt lat="45.6425439" lon="9.5445743"><ele>194.0</ele><time>2026-04-25T11:58:45.705Z</time></trkpt><trkpt lat="45.6423768" lon="9.5444398"><ele>194.0</ele><time>2026-04-25T11:58:46.705Z</time></trkpt><trkpt lat="45.6422104" lon="9.5443052"><ele>194.33333333333334</ele><time>2026-04-25T11:58:47.706Z</time></trkpt><trkpt lat="45.6420441" lon="9.544172"><ele>194.66666666666669</ele><time>2026-04-25T11:58:48.706Z</time></trkpt><trkpt lat="45.6418683" lon="9.5440311"><ele>195.0</ele><time>2026-04-25T11:58:49.706Z</time></trkpt><trkpt lat="45.6417094" lon="9.5439031"><ele>195.0</ele><time>2026-04-25T11:58:50.706Z</time></trkpt><trkpt lat="45.6415438" lon="9.5437698"><ele>195.0</ele><time>2026-04-25T11:58:51.705Z</time></trkpt><trkpt lat="45.6413877" lon="9.5436445"><ele>195.0</ele><time>2026-04-25T11:58:52.705Z</time></trkpt><trkpt lat="45.6412112" lon="9.5435038"><ele>195.33333333333331</ele><time>2026-04-25T11:58:53.706Z</time></trkpt><trkpt lat="45.641049" lon="9.5433757"><ele>195.66666666666666</ele><time>2026-04-25T11:58:54.705Z</time></trkpt><trkpt lat="45.6408994" lon="9.543257"><ele>196.0</ele><time>2026-04-25T11:58:55.705Z</time></trkpt><trkpt lat="45.6407314" lon="9.5431239"><ele>196.0</ele><time>2026-04-25T11:58:56.705Z</time></trkpt><trkpt lat="45.6405896" lon="9.5430111"><ele>196.0</ele><time>2026-04-25T11:58:57.705Z</time></trkpt><trkpt lat="45.6404271" lon="9.5428818"><ele>196.0</ele><time>2026-04-25T11:58:58.706Z</time></trkpt><trkpt lat="45.6402674" lon="9.5427586"><ele>196.33333333333331</ele><time>2026-04-25T11:58:59.705Z</time></trkpt><trkpt lat="45.6400976" lon="9.5426293"><ele>196.66666666666669</ele><time>2026-04-25T11:59:00.705Z</time></trkpt><trkpt lat="45.6399028" lon="9.5424821"><ele>197.0</ele><time>2026-04-25T11:59:01.706Z</time></trkpt><trkpt lat="45.6397381" lon="9.542348"><ele>197.0</ele><time>2026-04-25T11:59:02.706Z</time></trkpt><trkpt lat="45.6395944" lon="9.5422244"><ele>197.0</ele><time>2026-04-25T11:59:03.706Z</time></trkpt><trkpt lat="45.6394407" lon="9.5420935"><ele>197.0</ele><time>2026-04-25T11:59:04.705Z</time></trkpt><trkpt lat="45.6393066" lon="9.5419817"><ele>196.75</ele><time>2026-04-25T11:59:05.706Z</time></trkpt><trkpt lat="45.6391864" lon="9.541881"><ele>196.5</ele><time>2026-04-25T11:59:06.705Z</time></trkpt><trkpt lat="45.6390822" lon="9.5417856"><ele>196.25</ele><time>2026-04-25T11:59:07.706Z</time></trkpt><trkpt lat="45.6390008" lon="9.5416875"><ele>196.0</ele><time>2026-04-25T11:59:08.705Z</time></trkpt><trkpt lat="45.6389343" lon="9.5415565"><ele>196.0</ele><time>2026-04-25T11:59:09.705Z</time></trkpt><trkpt lat="45.638886" lon="9.5414304"><ele>196.0</ele><time>2026-04-25T11:59:10.705Z</time></trkpt><trkpt lat="45.6388328" lon="9.5413263"><ele>196.0</ele><time>2026-04-25T11:59:11.706Z</time></trkpt><trkpt lat="45.6387542" lon="9.5412413"><ele>196.0</ele><time>2026-04-25T11:59:12.706Z</time></trkpt><trkpt lat="45.6386688" lon="9.5412118"><ele>196.0</ele><time>2026-04-25T11:59:13.705Z</time></trkpt><trkpt lat="45.6385635" lon="9.5412112"><ele>195.0</ele><time>2026-04-25T11:59:14.705Z</time></trkpt><trkpt lat="45.6384576" lon="9.5412097"><ele>194.0</ele><time>2026-04-25T11:59:15.705Z</time></trkpt><trkpt lat="45.6383578" lon="9.5411836"><ele>193.0</ele><time>2026-04-25T11:59:16.705Z</time></trkpt><trkpt lat="45.6382398" lon="9.5411212"><ele>192.0</ele><time>2026-04-25T11:59:17.705Z</time></trkpt><trkpt lat="45.6381257" lon="9.5410368"><ele>192.0</ele><time>2026-04-25T11:59:18.706Z</time></trkpt><trkpt lat="45.6380143" lon="9.5409489"><ele>192.0</ele><time>2026-04-25T11:59:19.706Z</time></trkpt><trkpt lat="45.6378839" lon="9.5408459"><ele>192.0</ele><time>2026-04-25T11:59:20.706Z</time></trkpt><trkpt lat="45.637759" lon="9.5407454"><ele>192.0</ele><time>2026-04-25T11:59:21.705Z</time></trkpt><trkpt lat="45.6376315" lon="9.5406428"><ele>192.66666666666669</ele><time>2026-04-25T11:59:22.705Z</time></trkpt><trkpt lat="45.6374992" lon="9.5405399"><ele>193.33333333333334</ele><time>2026-04-25T11:59:23.705Z</time></trkpt><trkpt lat="45.6373656" lon="9.5404394"><ele>194.0</ele><time>2026-04-25T11:59:24.706Z</time></trkpt><trkpt lat="45.6372129" lon="9.5403256"><ele>195.75</ele><time>2026-04-25T11:59:25.705Z</time></trkpt><trkpt lat="45.6370768" lon="9.5402199"><ele>197.5</ele><time>2026-04-25T11:59:26.706Z</time></trkpt><trkpt lat="45.6369575" lon="9.5401257"><ele>199.25</ele><time>2026-04-25T11:59:27.705Z</time></trkpt><trkpt lat="45.6368262" lon="9.5400206"><ele>201.0</ele><time>2026-04-25T11:59:28.706Z</time></trkpt><trkpt lat="45.6367121" lon="9.5399296"><ele>201.0</ele><time>2026-04-25T11:59:29.705Z</time></trkpt><trkpt lat="45.6365839" lon="9.5398277"><ele>201.0</ele><time>2026-04-25T11:59:30.705Z</time></trkpt><trkpt lat="45.6364609" lon="9.5397291"><ele>201.0</ele><time>2026-04-25T11:59:31.706Z</time></trkpt><trkpt lat="45.6363448" lon="9.539637"><ele>201.0</ele><time>2026-04-25T11:59:32.706Z</time></trkpt><trkpt lat="45.6362022" lon="9.5395232"><ele>201.66666666666669</ele><time>2026-04-25T11:59:33.705Z</time></trkpt><trkpt lat="45.6360125" lon="9.5393697"><ele>202.33333333333334</ele><time>2026-04-25T11:59:34.706Z</time></trkpt><trkpt lat="45.6358159" lon="9.5392158"><ele>203.0</ele><time>2026-04-25T11:59:35.706Z</time></trkpt><trkpt lat="45.6355436" lon="9.5390052"><ele>201.0</ele><time>2026-04-25T11:59:36.705Z</time></trkpt><trkpt lat="45.6352763" lon="9.5387882"><ele>199.0</ele><time>2026-04-25T11:59:37.705Z</time></trkpt><trkpt lat="45.6350025" lon="9.5385642"><ele>199.0</ele><time>2026-04-25T11:59:38.705Z</time></trkpt><trkpt lat="45.6346749" lon="9.5382798"><ele>199.0</ele><time>2026-04-25T11:59:39.706Z</time></trkpt><trkpt lat="45.6343626" lon="9.5380051"><ele>201.5</ele><time>2026-04-25T11:59:40.706Z</time></trkpt><trkpt lat="45.6340276" lon="9.5377029"><ele>204.0</ele><time>2026-04-25T11:59:41.706Z</time></trkpt><trkpt lat="45.6336727" lon="9.5373835"><ele>204.0</ele><time>2026-04-25T11:59:42.705Z</time></trkpt><trkpt lat="45.6333782" lon="9.5371122"><ele>204.0</ele><time>2026-04-25T11:59:43.705Z</time></trkpt><trkpt lat="45.6330772" lon="9.5368346"><ele>203.5</ele><time>2026-04-25T11:59:44.706Z</time></trkpt><trkpt lat="45.6327985" lon="9.5365818"><ele>203.0</ele><time>2026-04-25T11:59:45.706Z</time></trkpt><trkpt lat="45.6325382" lon="9.5363465"><ele>204.0</ele><time>2026-04-25T11:59:46.706Z</time></trkpt><trkpt lat="45.632277" lon="9.5361138"><ele>205.0</ele><time>2026-04-25T11:59:47.705Z</time></trkpt><trkpt lat="45.6320695" lon="9.5359224"><ele>205.5</ele><time>2026-04-25T11:59:48.706Z</time></trkpt><trkpt lat="45.6318499" lon="9.5357332"><ele>206.0</ele><time>2026-04-25T11:59:49.706Z</time></trkpt><trkpt lat="45.631648" lon="9.5355443"><ele>206.0</ele><time>2026-04-25T11:59:50.705Z</time></trkpt><trkpt lat="45.6314921" lon="9.535389"><ele>206.0</ele><time>2026-04-25T11:59:51.706Z</time></trkpt><trkpt lat="45.6313135" lon="9.5352238"><ele>206.0</ele><time>2026-04-25T11:59:52.705Z</time></trkpt><trkpt lat="45.6311272" lon="9.5350495"><ele>207.0</ele><time>2026-04-25T11:59:53.705Z</time></trkpt><trkpt lat="45.6309628" lon="9.5348988"><ele>208.0</ele><time>2026-04-25T11:59:54.705Z</time></trkpt><trkpt lat="45.6307806" lon="9.534734"><ele>209.0</ele><time>2026-04-25T11:59:55.705Z</time></trkpt><trkpt lat="45.6306258" lon="9.5345935"><ele>209.33333333333334</ele><time>2026-04-25T11:59:56.705Z</time></trkpt><trkpt lat="45.6304675" lon="9.5344486"><ele>209.66666666666669</ele><time>2026-04-25T11:59:57.706Z</time></trkpt><trkpt lat="45.6303024" lon="9.5342975"><ele>210.0</ele><time>2026-04-25T11:59:58.705Z</time></trkpt><trkpt lat="45.6301597" lon="9.5341667"><ele>209.33333333333331</ele><time>2026-04-25T11:59:59.706Z</time></trkpt><trkpt lat="45.6300115" lon="9.5340295"><ele>208.66666666666666</ele><time>2026-04-25T12:00:00.705Z</time></trkpt><trkpt lat="45.6298639" lon="9.5338926"><ele>208.0</ele><time>2026-04-25T12:00:01.706Z</time></trkpt><trkpt lat="45.6297157" lon="9.533757"><ele>208.0</ele><time>2026-04-25T12:00:02.706Z</time></trkpt><trkpt lat="45.6295643" lon="9.5336202"><ele>208.0</ele><time>2026-04-25T12:00:03.705Z</time></trkpt><trkpt lat="45.6294394" lon="9.5335067"><ele>208.0</ele><time>2026-04-25T12:00:04.705Z</time></trkpt><trkpt lat="45.6293133" lon="9.5333916"><ele>208.0</ele><time>2026-04-25T12:00:05.705Z</time></trkpt><trkpt lat="45.6291814" lon="9.5332703"><ele>208.0</ele><time>2026-04-25T12:00:06.706Z</time></trkpt><trkpt lat="45.629071" lon="9.533169"><ele>208.0</ele><time>2026-04-25T12:00:07.706Z</time></trkpt><trkpt lat="45.6289638" lon="9.5330699"><ele>208.0</ele><time>2026-04-25T12:00:08.705Z</time></trkpt><trkpt lat="45.6288622" lon="9.5329724"><ele>207.99999999999997</ele><time>2026-04-25T12:00:09.706Z</time></trkpt><trkpt lat="45.6287842" lon="9.5328933"><ele>208.0</ele><time>2026-04-25T12:00:10.706Z</time></trkpt><trkpt lat="45.6287217" lon="9.5328152"><ele>208.0</ele><time>2026-04-25T12:00:11.706Z</time></trkpt><trkpt lat="45.6286756" lon="9.5327387"><ele>208.0</ele><time>2026-04-25T12:00:13.705Z</time></trkpt><trkpt lat="45.6286299" lon="9.5326325"><ele>207.99999999999997</ele><time>2026-04-25T12:00:15.705Z</time></trkpt><trkpt lat="45.6285968" lon="9.5325477"><ele>208.0</ele><time>2026-04-25T12:00:16.705Z</time></trkpt><trkpt lat="45.6284956" lon="9.5324162"><ele>207.4</ele><time>2026-04-25T12:00:18.705Z</time></trkpt><trkpt lat="45.62842" lon="9.5323945"><ele>206.8</ele><time>2026-04-25T12:00:19.706Z</time></trkpt><trkpt lat="45.6283429" lon="9.5323857"><ele>206.2</ele><time>2026-04-25T12:00:20.705Z</time></trkpt><trkpt lat="45.6282474" lon="9.5323594"><ele>205.6</ele><time>2026-04-25T12:00:21.706Z</time></trkpt><trkpt lat="45.6281546" lon="9.5323019"><ele>205.0</ele><time>2026-04-25T12:00:22.705Z</time></trkpt><trkpt lat="45.6280686" lon="9.5322329"><ele>205.0</ele><time>2026-04-25T12:00:23.705Z</time></trkpt><trkpt lat="45.6279687" lon="9.5321462"><ele>205.0</ele><time>2026-04-25T12:00:24.705Z</time></trkpt><trkpt lat="45.6278687" lon="9.5320543"><ele>205.0</ele><time>2026-04-25T12:00:25.706Z</time></trkpt><trkpt lat="45.6277633" lon="9.5319565"><ele>205.0</ele><time>2026-04-25T12:00:26.705Z</time></trkpt><trkpt lat="45.6276539" lon="9.5318561"><ele>205.25</ele><time>2026-04-25T12:00:27.706Z</time></trkpt><trkpt lat="45.6275454" lon="9.5317563"><ele>205.5</ele><time>2026-04-25T12:00:28.706Z</time></trkpt><trkpt lat="45.6274164" lon="9.5316403"><ele>205.75</ele><time>2026-04-25T12:00:29.706Z</time></trkpt><trkpt lat="45.6272917" lon="9.5315284"><ele>206.0</ele><time>2026-04-25T12:00:30.705Z</time></trkpt><trkpt lat="45.6271766" lon="9.5314234"><ele>206.0</ele><time>2026-04-25T12:00:31.705Z</time></trkpt><trkpt lat="45.627045" lon="9.5312973"><ele>206.0</ele><time>2026-04-25T12:00:32.706Z</time></trkpt><trkpt lat="45.6269285" lon="9.5311832"><ele>206.0</ele><time>2026-04-25T12:00:33.706Z</time></trkpt><trkpt lat="45.6267853" lon="9.5310567"><ele>205.33333333333334</ele><time>2026-04-25T12:00:34.706Z</time></trkpt><trkpt lat="45.6266482" lon="9.5309371"><ele>204.66666666666669</ele><time>2026-04-25T12:00:35.706Z</time></trkpt><trkpt lat="45.6265235" lon="9.5308256"><ele>204.0</ele><time>2026-04-25T12:00:36.706Z</time></trkpt><trkpt lat="45.6263845" lon="9.530697"><ele>204.0</ele><time>2026-04-25T12:00:37.705Z</time></trkpt><trkpt lat="45.6262514" lon="9.530574"><ele>204.0</ele><time>2026-04-25T12:00:38.706Z</time></trkpt><trkpt lat="45.6261245" lon="9.5304575"><ele>204.0</ele><time>2026-04-25T12:00:39.706Z</time></trkpt><trkpt lat="45.6259822" lon="9.5303302"><ele>204.0</ele><time>2026-04-25T12:00:40.705Z</time></trkpt><trkpt lat="45.62585" lon="9.5302123"><ele>204.0</ele><time>2026-04-25T12:00:41.705Z</time></trkpt><trkpt lat="45.6257214" lon="9.530097"><ele>204.0</ele><time>2026-04-25T12:00:42.705Z</time></trkpt><trkpt lat="45.6255928" lon="9.529983"><ele>204.0</ele><time>2026-04-25T12:00:43.705Z</time></trkpt><trkpt lat="45.6254712" lon="9.5298762"><ele>204.0</ele><time>2026-04-25T12:00:44.705Z</time></trkpt><trkpt lat="45.6253321" lon="9.5297517"><ele>204.0</ele><time>2026-04-25T12:00:45.705Z</time></trkpt><trkpt lat="45.6252032" lon="9.5296348"><ele>203.25</ele><time>2026-04-25T12:00:46.705Z</time></trkpt><trkpt lat="45.6250817" lon="9.5295257"><ele>202.5</ele><time>2026-04-25T12:00:47.706Z</time></trkpt><trkpt lat="45.624945" lon="9.5294029"><ele>201.75</ele><time>2026-04-25T12:00:48.706Z</time></trkpt><trkpt lat="45.6248235" lon="9.5292931"><ele>201.0</ele><time>2026-04-25T12:00:49.705Z</time></trkpt><trkpt lat="45.6246855" lon="9.5291691"><ele>201.0</ele><time>2026-04-25T12:00:50.706Z</time></trkpt><trkpt lat="45.6245551" lon="9.5290528"><ele>201.0</ele><time>2026-04-25T12:00:51.706Z</time></trkpt><trkpt lat="45.6244335" lon="9.5289453"><ele>201.0</ele><time>2026-04-25T12:00:52.706Z</time></trkpt><trkpt lat="45.6243057" lon="9.5288321"><ele>201.0</ele><time>2026-04-25T12:00:53.706Z</time></trkpt><trkpt lat="45.6241795" lon="9.5287166"><ele>201.75</ele><time>2026-04-25T12:00:54.706Z</time></trkpt><trkpt lat="45.6240738" lon="9.5286206"><ele>202.5</ele><time>2026-04-25T12:00:55.706Z</time></trkpt><trkpt lat="45.6239546" lon="9.5285119"><ele>203.25</ele><time>2026-04-25T12:00:56.705Z</time></trkpt><trkpt lat="45.6238402" lon="9.5284085"><ele>204.0</ele><time>2026-04-25T12:00:57.706Z</time></trkpt><trkpt lat="45.6237231" lon="9.5283047"><ele>204.25</ele><time>2026-04-25T12:00:58.705Z</time></trkpt><trkpt lat="45.6236064" lon="9.5282003"><ele>204.5</ele><time>2026-04-25T12:00:59.705Z</time></trkpt><trkpt lat="45.623496" lon="9.5281005"><ele>204.75</ele><time>2026-04-25T12:01:00.705Z</time></trkpt><trkpt lat="45.6233793" lon="9.5279939"><ele>205.0</ele><time>2026-04-25T12:01:01.706Z</time></trkpt><trkpt lat="45.6232615" lon="9.5278875"><ele>205.0</ele><time>2026-04-25T12:01:02.705Z</time></trkpt><trkpt lat="45.623167" lon="9.5278033"><ele>205.0</ele><time>2026-04-25T12:01:03.705Z</time></trkpt><trkpt lat="45.6230685" lon="9.5277156"><ele>205.0</ele><time>2026-04-25T12:01:04.705Z</time></trkpt><trkpt lat="45.6229911" lon="9.5276462"><ele>205.0</ele><time>2026-04-25T12:01:05.705Z</time></trkpt><trkpt lat="45.6229105" lon="9.5275728"><ele>205.0</ele><time>2026-04-25T12:01:06.705Z</time></trkpt><trkpt lat="45.6228429" lon="9.527511"><ele>204.99999999999997</ele><time>2026-04-25T12:01:07.705Z</time></trkpt><trkpt lat="45.6227843" lon="9.5274572"><ele>205.0</ele><time>2026-04-25T12:01:08.705Z</time></trkpt><trkpt lat="45.6227241" lon="9.5273949"><ele>205.0</ele><time>2026-04-25T12:01:09.706Z</time></trkpt><trkpt lat="45.6226693" lon="9.5273075"><ele>205.0</ele><time>2026-04-25T12:01:10.706Z</time></trkpt><trkpt lat="45.6226308" lon="9.5272177"><ele>204.99999999999997</ele><time>2026-04-25T12:01:11.706Z</time></trkpt><trkpt lat="45.6225801" lon="9.5271178"><ele>205.0</ele><time>2026-04-25T12:01:12.706Z</time></trkpt><trkpt lat="45.6225229" lon="9.5270433"><ele>205.0</ele><time>2026-04-25T12:01:13.705Z</time></trkpt><trkpt lat="45.622453" lon="9.5269938"><ele>205.0</ele><time>2026-04-25T12:01:14.706Z</time></trkpt><trkpt lat="45.6223716" lon="9.5269632"><ele>205.0</ele><time>2026-04-25T12:01:15.705Z</time></trkpt><trkpt lat="45.6222849" lon="9.5269436"><ele>205.0</ele><time>2026-04-25T12:01:16.706Z</time></trkpt><trkpt lat="45.6221907" lon="9.5269081"><ele>205.0</ele><time>2026-04-25T12:01:17.706Z</time></trkpt><trkpt lat="45.6220901" lon="9.5268407"><ele>205.0</ele><time>2026-04-25T12:01:18.705Z</time></trkpt><trkpt lat="45.6220031" lon="9.5267673"><ele>205.0</ele><time>2026-04-25T12:01:19.705Z</time></trkpt><trkpt lat="45.6219028" lon="9.5266792"><ele>205.0</ele><time>2026-04-25T12:01:20.706Z</time></trkpt><trkpt lat="45.6218131" lon="9.5265981"><ele>205.0</ele><time>2026-04-25T12:01:21.705Z</time></trkpt><trkpt lat="45.6217124" lon="9.5265057"><ele>205.0</ele><time>2026-04-25T12:01:22.706Z</time></trkpt><trkpt lat="45.6216165" lon="9.5264178"><ele>205.0</ele><time>2026-04-25T12:01:23.705Z</time></trkpt><trkpt lat="45.6215266" lon="9.5263381"><ele>205.0</ele><time>2026-04-25T12:01:24.706Z</time></trkpt><trkpt lat="45.6214354" lon="9.526258"><ele>205.0</ele><time>2026-04-25T12:01:25.706Z</time></trkpt><trkpt lat="45.6213359" lon="9.5261719"><ele>205.0</ele><time>2026-04-25T12:01:26.706Z</time></trkpt><trkpt lat="45.6212544" lon="9.5261004"><ele>205.0</ele><time>2026-04-25T12:01:27.706Z</time></trkpt><trkpt lat="45.6211639" lon="9.5260214"><ele>204.6</ele><time>2026-04-25T12:01:28.706Z</time></trkpt><trkpt lat="45.6210811" lon="9.5259476"><ele>204.2</ele><time>2026-04-25T12:01:29.705Z</time></trkpt><trkpt lat="45.6209981" lon="9.5258724"><ele>203.8</ele><time>2026-04-25T12:01:30.705Z</time></trkpt><trkpt lat="45.6209117" lon="9.5257934"><ele>203.4</ele><time>2026-04-25T12:01:31.706Z</time></trkpt><trkpt lat="45.62083" lon="9.5257182"><ele>203.0</ele><time>2026-04-25T12:01:32.705Z</time></trkpt><trkpt lat="45.6207427" lon="9.5256384"><ele>203.0</ele><time>2026-04-25T12:01:33.705Z</time></trkpt><trkpt lat="45.6206503" lon="9.5255538"><ele>203.0</ele><time>2026-04-25T12:01:34.706Z</time></trkpt><trkpt lat="45.6205696" lon="9.525479"><ele>203.0</ele><time>2026-04-25T12:01:35.706Z</time></trkpt><trkpt lat="45.6204793" lon="9.5253952"><ele>203.0</ele><time>2026-04-25T12:01:36.706Z</time></trkpt><trkpt lat="45.6204019" lon="9.525324"><ele>203.0</ele><time>2026-04-25T12:01:37.706Z</time></trkpt><trkpt lat="45.620319" lon="9.5252483"><ele>203.00000000000003</ele><time>2026-04-25T12:01:38.705Z</time></trkpt><trkpt lat="45.620245" lon="9.5251822"><ele>203.0</ele><time>2026-04-25T12:01:39.705Z</time></trkpt><trkpt lat="45.6201797" lon="9.5251244"><ele>203.0</ele><time>2026-04-25T12:01:40.705Z</time></trkpt><trkpt lat="45.6201175" lon="9.525069"><ele>203.0</ele><time>2026-04-25T12:01:41.705Z</time></trkpt><trkpt lat="45.6200585" lon="9.5250148"><ele>203.00000000000003</ele><time>2026-04-25T12:01:42.706Z</time></trkpt><trkpt lat="45.6199578" lon="9.5249216"><ele>203.0</ele><time>2026-04-25T12:01:44.706Z</time></trkpt><trkpt lat="45.6198666" lon="9.5248379"><ele>203.0</ele><time>2026-04-25T12:01:46.705Z</time></trkpt><trkpt lat="45.619768" lon="9.5247524"><ele>203.0</ele><time>2026-04-25T12:01:48.705Z</time></trkpt><trkpt lat="45.6197127" lon="9.5247049"><ele>203.0</ele><time>2026-04-25T12:01:49.706Z</time></trkpt><trkpt lat="45.6196506" lon="9.5246519"><ele>203.0</ele><time>2026-04-25T12:01:50.705Z</time></trkpt><trkpt lat="45.6195403" lon="9.5245637"><ele>203.0</ele><time>2026-04-25T12:01:52.706Z</time></trkpt><trkpt lat="45.6194704" lon="9.5245134"><ele>203.00000000000003</ele><time>2026-04-25T12:01:54.706Z</time></trkpt><trkpt lat="45.6194027" lon="9.5244661"><ele>203.0</ele><time>2026-04-25T12:01:56.706Z</time></trkpt><trkpt lat="45.6193145" lon="9.5243988"><ele>203.0</ele><time>2026-04-25T12:01:58.706Z</time></trkpt><trkpt lat="45.6192149" lon="9.5243234"><ele>203.0</ele><time>2026-04-25T12:02:00.706Z</time></trkpt><trkpt lat="45.6191551" lon="9.5242889"><ele>203.00000000000003</ele><time>2026-04-25T12:02:01.705Z</time></trkpt><trkpt lat="45.6190848" lon="9.5242605"><ele>203.0</ele><time>2026-04-25T12:02:02.705Z</time></trkpt><trkpt lat="45.6190077" lon="9.52424"><ele>203.00000000000003</ele><time>2026-04-25T12:02:03.706Z</time></trkpt><trkpt lat="45.6189258" lon="9.5242274"><ele>203.0</ele><time>2026-04-25T12:02:04.705Z</time></trkpt><trkpt lat="45.6188438" lon="9.5242163"><ele>203.0</ele><time>2026-04-25T12:02:05.705Z</time></trkpt><trkpt lat="45.6187623" lon="9.5242095"><ele>203.0</ele><time>2026-04-25T12:02:06.706Z</time></trkpt><trkpt lat="45.6186817" lon="9.5242079"><ele>203.00000000000003</ele><time>2026-04-25T12:02:07.705Z</time></trkpt><trkpt lat="45.618601" lon="9.5242091"><ele>203.0</ele><time>2026-04-25T12:02:08.705Z</time></trkpt><trkpt lat="45.6185246" lon="9.5242084"><ele>202.50000000000003</ele><time>2026-04-25T12:02:09.705Z</time></trkpt><trkpt lat="45.6184382" lon="9.5242084"><ele>202.0</ele><time>2026-04-25T12:02:10.705Z</time></trkpt><trkpt lat="45.6183576" lon="9.5242076"><ele>201.5</ele><time>2026-04-25T12:02:11.706Z</time></trkpt><trkpt lat="45.6182797" lon="9.5242051"><ele>201.0</ele><time>2026-04-25T12:02:12.705Z</time></trkpt><trkpt lat="45.6182008" lon="9.5242039"><ele>200.50000000000003</ele><time>2026-04-25T12:02:13.705Z</time></trkpt><trkpt lat="45.618124" lon="9.5241942"><ele>200.0</ele><time>2026-04-25T12:02:14.705Z</time></trkpt><trkpt lat="45.6180476" lon="9.5241813"><ele>200.00000000000003</ele><time>2026-04-25T12:02:15.705Z</time></trkpt><trkpt lat="45.6179683" lon="9.5241712"><ele>200.0</ele><time>2026-04-25T12:02:16.706Z</time></trkpt><trkpt lat="45.6178888" lon="9.5241674"><ele>200.0</ele><time>2026-04-25T12:02:17.706Z</time></trkpt><trkpt lat="45.6178066" lon="9.5241712"><ele>200.0</ele><time>2026-04-25T12:02:18.706Z</time></trkpt><trkpt lat="45.6177217" lon="9.5241805"><ele>200.00000000000003</ele><time>2026-04-25T12:02:19.705Z</time></trkpt><trkpt lat="45.6176378" lon="9.5241927"><ele>200.0</ele><time>2026-04-25T12:02:20.705Z</time></trkpt><trkpt lat="45.6175518" lon="9.524204"><ele>198.83333333333334</ele><time>2026-04-25T12:02:21.705Z</time></trkpt><trkpt lat="45.6174653" lon="9.5242128"><ele>197.66666666666669</ele><time>2026-04-25T12:02:22.705Z</time></trkpt><trkpt lat="45.6173833" lon="9.5242206"><ele>196.5</ele><time>2026-04-25T12:02:23.706Z</time></trkpt><trkpt lat="45.6173008" lon="9.5242307"><ele>195.33333333333331</ele><time>2026-04-25T12:02:24.706Z</time></trkpt><trkpt lat="45.617224" lon="9.5242382"><ele>194.16666666666666</ele><time>2026-04-25T12:02:25.705Z</time></trkpt><trkpt lat="45.6171371" lon="9.5242426"><ele>193.0</ele><time>2026-04-25T12:02:26.705Z</time></trkpt><trkpt lat="45.6170532" lon="9.5242423"><ele>192.49999999999997</ele><time>2026-04-25T12:02:27.706Z</time></trkpt><trkpt lat="45.6169675" lon="9.524239"><ele>192.0</ele><time>2026-04-25T12:02:28.706Z</time></trkpt><trkpt lat="45.6168809" lon="9.5242434"><ele>191.5</ele><time>2026-04-25T12:02:29.706Z</time></trkpt><trkpt lat="45.6167995" lon="9.5242677"><ele>191.0</ele><time>2026-04-25T12:02:30.705Z</time></trkpt><trkpt lat="45.616725" lon="9.5243117"><ele>190.5</ele><time>2026-04-25T12:02:31.706Z</time></trkpt><trkpt lat="45.6166608" lon="9.5243656"><ele>190.0</ele><time>2026-04-25T12:02:32.706Z</time></trkpt><trkpt lat="45.616606" lon="9.5244254"><ele>190.0</ele><time>2026-04-25T12:02:33.706Z</time></trkpt><trkpt lat="45.6165584" lon="9.5244844"><ele>190.0</ele><time>2026-04-25T12:02:34.705Z</time></trkpt><trkpt lat="45.6164823" lon="9.5245858"><ele>190.0</ele><time>2026-04-25T12:02:36.706Z</time></trkpt><trkpt lat="45.6164025" lon="9.5246774"><ele>190.0</ele><time>2026-04-25T12:02:38.705Z</time></trkpt><trkpt lat="45.6162876" lon="9.524753"><ele>190.0</ele><time>2026-04-25T12:02:40.705Z</time></trkpt><trkpt lat="45.6162229" lon="9.5247781"><ele>190.0</ele><time>2026-04-25T12:02:41.705Z</time></trkpt><trkpt lat="45.6161445" lon="9.5247983"><ele>190.0</ele><time>2026-04-25T12:02:42.705Z</time></trkpt><trkpt lat="45.6160692" lon="9.5248137"><ele>190.0</ele><time>2026-04-25T12:02:43.706Z</time></trkpt><trkpt lat="45.6159916" lon="9.5248289"><ele>190.0</ele><time>2026-04-25T12:02:44.705Z</time></trkpt><trkpt lat="45.6159096" lon="9.5248437"><ele>190.0</ele><time>2026-04-25T12:02:45.706Z</time></trkpt><trkpt lat="45.6158245" lon="9.5248596"><ele>190.0</ele><time>2026-04-25T12:02:46.706Z</time></trkpt><trkpt lat="45.6157403" lon="9.5248747"><ele>190.0</ele><time>2026-04-25T12:02:47.705Z</time></trkpt><trkpt lat="45.6156594" lon="9.5248899"><ele>190.0</ele><time>2026-04-25T12:02:48.706Z</time></trkpt><trkpt lat="45.6155851" lon="9.5249101"><ele>190.0</ele><time>2026-04-25T12:02:49.705Z</time></trkpt><trkpt lat="45.6155197" lon="9.5249419"><ele>190.0</ele><time>2026-04-25T12:02:50.706Z</time></trkpt><trkpt lat="45.6154262" lon="9.5250266"><ele>190.0</ele><time>2026-04-25T12:02:52.706Z</time></trkpt><trkpt lat="45.6153499" lon="9.5251024"><ele>190.0</ele><time>2026-04-25T12:02:54.706Z</time></trkpt><trkpt lat="45.6152532" lon="9.5251534"><ele>189.0</ele><time>2026-04-25T12:02:56.706Z</time></trkpt><trkpt lat="45.6151505" lon="9.5251571"><ele>188.0</ele><time>2026-04-25T12:02:58.705Z</time></trkpt><trkpt lat="45.615053" lon="9.5251023"><ele>187.0</ele><time>2026-04-25T12:03:00.706Z</time></trkpt><trkpt lat="45.6149372" lon="9.5250315"><ele>186.0</ele><time>2026-04-25T12:03:02.706Z</time></trkpt><trkpt lat="45.6148685" lon="9.5250229"><ele>185.0</ele><time>2026-04-25T12:03:03.706Z</time></trkpt><trkpt lat="45.6147968" lon="9.5250286"><ele>185.0</ele><time>2026-04-25T12:03:04.706Z</time></trkpt><trkpt lat="45.6147214" lon="9.5250409"><ele>185.0</ele><time>2026-04-25T12:03:05.706Z</time></trkpt><trkpt lat="45.6146421" lon="9.5250546"><ele>185.0</ele><time>2026-04-25T12:03:06.705Z</time></trkpt><trkpt lat="45.6145594" lon="9.5250702"><ele>185.0</ele><time>2026-04-25T12:03:07.705Z</time></trkpt><trkpt lat="45.6144717" lon="9.5250858"><ele>185.0</ele><time>2026-04-25T12:03:08.705Z</time></trkpt><trkpt lat="45.6143818" lon="9.525102"><ele>185.0</ele><time>2026-04-25T12:03:09.705Z</time></trkpt><trkpt lat="45.6142892" lon="9.5251178"><ele>185.8</ele><time>2026-04-25T12:03:10.705Z</time></trkpt><trkpt lat="45.6141957" lon="9.5251341"><ele>186.6</ele><time>2026-04-25T12:03:11.706Z</time></trkpt><trkpt lat="45.6141019" lon="9.5251508"><ele>187.39999999999998</ele><time>2026-04-25T12:03:12.706Z</time></trkpt><trkpt lat="45.614013" lon="9.5251663"><ele>188.2</ele><time>2026-04-25T12:03:13.706Z</time></trkpt><trkpt lat="45.6139094" lon="9.525182"><ele>189.0</ele><time>2026-04-25T12:03:14.705Z</time></trkpt><trkpt lat="45.6138093" lon="9.5251968"><ele>189.0</ele><time>2026-04-25T12:03:15.706Z</time></trkpt><trkpt lat="45.6137066" lon="9.5252125"><ele>189.0</ele><time>2026-04-25T12:03:16.705Z</time></trkpt><trkpt lat="45.6136019" lon="9.5252297"><ele>189.0</ele><time>2026-04-25T12:03:17.706Z</time></trkpt><trkpt lat="45.6134968" lon="9.5252481"><ele>189.0</ele><time>2026-04-25T12:03:18.705Z</time></trkpt><trkpt lat="45.6133936" lon="9.5252668"><ele>189.0</ele><time>2026-04-25T12:03:19.706Z</time></trkpt><trkpt lat="45.6132957" lon="9.5252858"><ele>188.39999999999998</ele><time>2026-04-25T12:03:20.705Z</time></trkpt><trkpt lat="45.6132094" lon="9.5253024"><ele>187.8</ele><time>2026-04-25T12:03:21.705Z</time></trkpt><trkpt lat="45.6131327" lon="9.5253167"><ele>187.2</ele><time>2026-04-25T12:03:22.705Z</time></trkpt><trkpt lat="45.6130651" lon="9.5253295"><ele>186.60000000000002</ele><time>2026-04-25T12:03:23.706Z</time></trkpt><trkpt lat="45.6129482" lon="9.5253548"><ele>186.0</ele><time>2026-04-25T12:03:25.705Z</time></trkpt><trkpt lat="45.6128189" lon="9.5253842"><ele>186.16666666666666</ele><time>2026-04-25T12:03:27.705Z</time></trkpt><trkpt lat="45.6127499" lon="9.5253979"><ele>186.33333333333334</ele><time>2026-04-25T12:03:28.706Z</time></trkpt><trkpt lat="45.6126828" lon="9.5254091"><ele>186.5</ele><time>2026-04-25T12:03:29.705Z</time></trkpt><trkpt lat="45.6126032" lon="9.5254219"><ele>186.66666666666669</ele><time>2026-04-25T12:03:30.706Z</time></trkpt><trkpt lat="45.6125216" lon="9.5254353"><ele>186.83333333333334</ele><time>2026-04-25T12:03:31.705Z</time></trkpt><trkpt lat="45.6124363" lon="9.5254489"><ele>187.0</ele><time>2026-04-25T12:03:32.705Z</time></trkpt><trkpt lat="45.6123493" lon="9.5254626"><ele>187.0</ele><time>2026-04-25T12:03:33.705Z</time></trkpt><trkpt lat="45.6122618" lon="9.525475"><ele>187.0</ele><time>2026-04-25T12:03:34.705Z</time></trkpt><trkpt lat="45.6121757" lon="9.525488"><ele>187.0</ele><time>2026-04-25T12:03:35.705Z</time></trkpt><trkpt lat="45.61209" lon="9.5255009"><ele>187.0</ele><time>2026-04-25T12:03:36.706Z</time></trkpt><trkpt lat="45.6120038" lon="9.525514"><ele>187.0</ele><time>2026-04-25T12:03:37.705Z</time></trkpt><trkpt lat="45.6119194" lon="9.5255278"><ele>187.0</ele><time>2026-04-25T12:03:38.705Z</time></trkpt><trkpt lat="45.6118362" lon="9.5255419"><ele>186.5</ele><time>2026-04-25T12:03:39.705Z</time></trkpt><trkpt lat="45.6117545" lon="9.5255559"><ele>186.0</ele><time>2026-04-25T12:03:40.705Z</time></trkpt><trkpt lat="45.6116746" lon="9.5255718"><ele>185.5</ele><time>2026-04-25T12:03:41.705Z</time></trkpt><trkpt lat="45.6115983" lon="9.5255863"><ele>185.0</ele><time>2026-04-25T12:03:42.706Z</time></trkpt><trkpt lat="45.6115247" lon="9.5255984"><ele>184.5</ele><time>2026-04-25T12:03:43.705Z</time></trkpt><trkpt lat="45.6114563" lon="9.5256091"><ele>184.0</ele><time>2026-04-25T12:03:44.705Z</time></trkpt><trkpt lat="45.6113325" lon="9.5256228"><ele>184.0</ele><time>2026-04-25T12:03:46.706Z</time></trkpt><trkpt lat="45.6112196" lon="9.5256393"><ele>184.0</ele><time>2026-04-25T12:03:48.705Z</time></trkpt><trkpt lat="45.6111125" lon="9.5256531"><ele>184.0</ele><time>2026-04-25T12:03:50.706Z</time></trkpt><trkpt lat="45.6110187" lon="9.525663"><ele>184.0</ele><time>2026-04-25T12:03:52.705Z</time></trkpt><trkpt lat="45.610919" lon="9.5256583"><ele>184.0</ele><time>2026-04-25T12:03:54.705Z</time></trkpt><trkpt lat="45.6108514" lon="9.5256354"><ele>183.66666666666669</ele><time>2026-04-25T12:03:57.706Z</time></trkpt><trkpt lat="45.6107866" lon="9.5255928"><ele>183.33333333333334</ele><time>2026-04-25T12:04:00.706Z</time></trkpt><trkpt lat="45.6107015" lon="9.5254876"><ele>183.0</ele><time>2026-04-25T12:04:02.705Z</time></trkpt><trkpt lat="45.610665" lon="9.5254047"><ele>182.66666666666666</ele><time>2026-04-25T12:04:03.705Z</time></trkpt><trkpt lat="45.6106337" lon="9.5253171"><ele>182.33333333333331</ele><time>2026-04-25T12:04:04.705Z</time></trkpt><trkpt lat="45.6106011" lon="9.5252179"><ele>182.0</ele><time>2026-04-25T12:04:05.705Z</time></trkpt><trkpt lat="45.6105666" lon="9.5251037"><ele>179.6</ele><time>2026-04-25T12:04:06.705Z</time></trkpt><trkpt lat="45.6105297" lon="9.5249816"><ele>177.2</ele><time>2026-04-25T12:04:07.706Z</time></trkpt><trkpt lat="45.6104909" lon="9.5248541"><ele>174.8</ele><time>2026-04-25T12:04:08.706Z</time></trkpt><trkpt lat="45.6104528" lon="9.5247259"><ele>172.4</ele><time>2026-04-25T12:04:09.706Z</time></trkpt><trkpt lat="45.610415" lon="9.5245991"><ele>170.0</ele><time>2026-04-25T12:04:10.705Z</time></trkpt><trkpt lat="45.6103769" lon="9.5244751"><ele>167.4</ele><time>2026-04-25T12:04:11.705Z</time></trkpt><trkpt lat="45.6103386" lon="9.5243537"><ele>164.8</ele><time>2026-04-25T12:04:12.705Z</time></trkpt><trkpt lat="45.6103008" lon="9.5242339"><ele>162.2</ele><time>2026-04-25T12:04:13.705Z</time></trkpt><trkpt lat="45.6102635" lon="9.5241138"><ele>159.6</ele><time>2026-04-25T12:04:14.706Z</time></trkpt><trkpt lat="45.610226" lon="9.5239935"><ele>157.0</ele><time>2026-04-25T12:04:15.705Z</time></trkpt><trkpt lat="45.6101884" lon="9.5238725"><ele>157.0</ele><time>2026-04-25T12:04:16.705Z</time></trkpt><trkpt lat="45.6101534" lon="9.5237596"><ele>157.0</ele><time>2026-04-25T12:04:17.705Z</time></trkpt><trkpt lat="45.6101133" lon="9.5236296"><ele>157.0</ele><time>2026-04-25T12:04:18.706Z</time></trkpt><trkpt lat="45.6100754" lon="9.5235116"><ele>157.0</ele><time>2026-04-25T12:04:19.706Z</time></trkpt><trkpt lat="45.6100342" lon="9.5234064"><ele>157.0</ele><time>2026-04-25T12:04:20.706Z</time></trkpt><trkpt lat="45.609992" lon="9.5233295"><ele>157.0</ele><time>2026-04-25T12:04:21.706Z</time></trkpt><trkpt lat="45.6099241" lon="9.523246"><ele>159.66666666666669</ele><time>2026-04-25T12:04:23.705Z</time></trkpt><trkpt lat="45.6098545" lon="9.5231898"><ele>162.33333333333334</ele><time>2026-04-25T12:04:25.706Z</time></trkpt><trkpt lat="45.6097825" lon="9.523133"><ele>165.0</ele><time>2026-04-25T12:04:27.705Z</time></trkpt><trkpt lat="45.6097228" lon="9.5230825"><ele>167.66666666666666</ele><time>2026-04-25T12:04:29.705Z</time></trkpt><trkpt lat="45.6096672" lon="9.5230387"><ele>170.33333333333331</ele><time>2026-04-25T12:04:31.705Z</time></trkpt><trkpt lat="45.6096039" lon="9.522986"><ele>173.0</ele><time>2026-04-25T12:04:33.706Z</time></trkpt><trkpt lat="45.6095001" lon="9.5228989"><ele>175.14285714285714</ele><time>2026-04-25T12:04:35.706Z</time></trkpt><trkpt lat="45.6094398" lon="9.5228472"><ele>177.2857142857143</ele><time>2026-04-25T12:04:36.706Z</time></trkpt><trkpt lat="45.6093815" lon="9.5227967"><ele>179.42857142857144</ele><time>2026-04-25T12:04:37.705Z</time></trkpt><trkpt lat="45.6093244" lon="9.5227461"><ele>181.57142857142856</ele><time>2026-04-25T12:04:38.705Z</time></trkpt><trkpt lat="45.6092653" lon="9.5226948"><ele>183.71428571428572</ele><time>2026-04-25T12:04:39.705Z</time></trkpt><trkpt lat="45.6092066" lon="9.522646"><ele>185.85714285714286</ele><time>2026-04-25T12:04:40.705Z</time></trkpt><trkpt lat="45.6091472" lon="9.5226003"><ele>188.0</ele><time>2026-04-25T12:04:41.705Z</time></trkpt><trkpt lat="45.6090888" lon="9.5225605"><ele>188.0</ele><time>2026-04-25T12:04:42.706Z</time></trkpt><trkpt lat="45.6089736" lon="9.5225071"><ele>188.0</ele><time>2026-04-25T12:04:44.705Z</time></trkpt><trkpt lat="45.6088705" lon="9.5224758"><ele>188.0</ele><time>2026-04-25T12:04:46.706Z</time></trkpt><trkpt lat="45.6087687" lon="9.5224462"><ele>188.0</ele><time>2026-04-25T12:04:48.705Z</time></trkpt><trkpt lat="45.6086625" lon="9.5224192"><ele>188.0</ele><time>2026-04-25T12:04:50.705Z</time></trkpt><trkpt lat="45.6085755" lon="9.5223995"><ele>187.66666666666666</ele><time>2026-04-25T12:04:52.706Z</time></trkpt><trkpt lat="45.6085044" lon="9.5223815"><ele>187.33333333333331</ele><time>2026-04-25T12:04:54.706Z</time></trkpt><trkpt lat="45.6084391" lon="9.5223613"><ele>187.0</ele><time>2026-04-25T12:04:56.706Z</time></trkpt><trkpt lat="45.608365" lon="9.5223402"><ele>186.66666666666666</ele><time>2026-04-25T12:04:58.705Z</time></trkpt><trkpt lat="45.6082849" lon="9.5223141"><ele>186.33333333333334</ele><time>2026-04-25T12:05:00.705Z</time></trkpt><trkpt lat="45.6081944" lon="9.5222854"><ele>186.0</ele><time>2026-04-25T12:05:02.705Z</time></trkpt><trkpt lat="45.6080776" lon="9.5222481"><ele>186.0</ele><time>2026-04-25T12:05:04.706Z</time></trkpt><trkpt lat="45.6079608" lon="9.522213"><ele>186.0</ele><time>2026-04-25T12:05:06.706Z</time></trkpt><trkpt lat="45.6078361" lon="9.5221725"><ele>186.0</ele><time>2026-04-25T12:05:08.705Z</time></trkpt><trkpt lat="45.6077675" lon="9.5221502"><ele>186.0</ele><time>2026-04-25T12:05:09.705Z</time></trkpt><trkpt lat="45.607698" lon="9.522128"><ele>186.0</ele><time>2026-04-25T12:05:10.705Z</time></trkpt><trkpt lat="45.6076265" lon="9.5221062"><ele>185.8</ele><time>2026-04-25T12:05:11.706Z</time></trkpt><trkpt lat="45.6075573" lon="9.5220854"><ele>185.60000000000002</ele><time>2026-04-25T12:05:12.706Z</time></trkpt><trkpt lat="45.6074953" lon="9.5220688"><ele>185.4</ele><time>2026-04-25T12:05:13.706Z</time></trkpt><trkpt lat="45.6073823" lon="9.5220362"><ele>185.2</ele><time>2026-04-25T12:05:15.706Z</time></trkpt><trkpt lat="45.6072705" lon="9.5219801"><ele>185.0</ele><time>2026-04-25T12:05:17.706Z</time></trkpt><trkpt lat="45.6071664" lon="9.5218949"><ele>185.0</ele><time>2026-04-25T12:05:19.705Z</time></trkpt><trkpt lat="45.6070842" lon="9.5217923"><ele>185.0</ele><time>2026-04-25T12:05:21.706Z</time></trkpt><trkpt lat="45.6070195" lon="9.5216815"><ele>185.0</ele><time>2026-04-25T12:05:23.706Z</time></trkpt><trkpt lat="45.606982" lon="9.5215569"><ele>185.0</ele><time>2026-04-25T12:05:25.705Z</time></trkpt><trkpt lat="45.6069267" lon="9.5214387"><ele>185.0</ele><time>2026-04-25T12:05:27.705Z</time></trkpt><trkpt lat="45.6068072" lon="9.5214506"><ele>184.57142857142856</ele><time>2026-04-25T12:05:29.705Z</time></trkpt><trkpt lat="45.6067433" lon="9.5214716"><ele>184.14285714285714</ele><time>2026-04-25T12:05:30.706Z</time></trkpt><trkpt lat="45.6066749" lon="9.5214753"><ele>183.71428571428572</ele><time>2026-04-25T12:05:31.705Z</time></trkpt><trkpt lat="45.6066077" lon="9.5214655"><ele>183.28571428571428</ele><time>2026-04-25T12:05:32.706Z</time></trkpt><trkpt lat="45.6065435" lon="9.5214456"><ele>182.85714285714286</ele><time>2026-04-25T12:05:33.705Z</time></trkpt><trkpt lat="45.6064758" lon="9.5214188"><ele>182.42857142857142</ele><time>2026-04-25T12:05:34.705Z</time></trkpt><trkpt lat="45.6064129" lon="9.5213894"><ele>182.0</ele><time>2026-04-25T12:05:35.705Z</time></trkpt><trkpt lat="45.6063441" lon="9.5213536"><ele>182.0</ele><time>2026-04-25T12:05:36.706Z</time></trkpt><trkpt lat="45.6062777" lon="9.521315"><ele>182.0</ele><time>2026-04-25T12:05:37.705Z</time></trkpt><trkpt lat="45.6062001" lon="9.5212659"><ele>182.0</ele><time>2026-04-25T12:05:38.706Z</time></trkpt><trkpt lat="45.6061277" lon="9.52122"><ele>182.0</ele><time>2026-04-25T12:05:39.705Z</time></trkpt><trkpt lat="45.6060541" lon="9.521173"><ele>182.0</ele><time>2026-04-25T12:05:40.706Z</time></trkpt><trkpt lat="45.605978" lon="9.5211226"><ele>182.0</ele><time>2026-04-25T12:05:41.705Z</time></trkpt><trkpt lat="45.6059021" lon="9.5210698"><ele>182.5</ele><time>2026-04-25T12:05:42.706Z</time></trkpt><trkpt lat="45.6058252" lon="9.5210186"><ele>183.0</ele><time>2026-04-25T12:05:43.705Z</time></trkpt><trkpt lat="45.6057479" lon="9.5209688"><ele>183.5</ele><time>2026-04-25T12:05:44.706Z</time></trkpt><trkpt lat="45.6056733" lon="9.5209225"><ele>184.0</ele><time>2026-04-25T12:05:45.706Z</time></trkpt><trkpt lat="45.6055995" lon="9.5208858"><ele>184.5</ele><time>2026-04-25T12:05:46.705Z</time></trkpt><trkpt lat="45.605523" lon="9.5208711"><ele>185.0</ele><time>2026-04-25T12:05:47.706Z</time></trkpt><trkpt lat="45.6054451" lon="9.5208838"><ele>185.0</ele><time>2026-04-25T12:05:48.705Z</time></trkpt><trkpt lat="45.6053705" lon="9.520918"><ele>185.0</ele><time>2026-04-25T12:05:49.706Z</time></trkpt><trkpt lat="45.6053002" lon="9.5209598"><ele>185.0</ele><time>2026-04-25T12:05:50.706Z</time></trkpt><trkpt lat="45.6052359" lon="9.5210007"><ele>185.0</ele><time>2026-04-25T12:05:51.705Z</time></trkpt><trkpt lat="45.6051347" lon="9.5210659"><ele>185.0</ele><time>2026-04-25T12:05:53.705Z</time></trkpt><trkpt lat="45.6050474" lon="9.5211192"><ele>185.0</ele><time>2026-04-25T12:05:55.705Z</time></trkpt><trkpt lat="45.6049768" lon="9.5211569"><ele>184.66666666666666</ele><time>2026-04-25T12:05:57.706Z</time></trkpt><trkpt lat="45.6048886" lon="9.5211713"><ele>184.33333333333331</ele><time>2026-04-25T12:05:59.705Z</time></trkpt><trkpt lat="45.6047692" lon="9.5212237"><ele>184.0</ele><time>2026-04-25T12:06:01.706Z</time></trkpt><trkpt lat="45.604702" lon="9.5212577"><ele>183.66666666666666</ele><time>2026-04-25T12:06:02.705Z</time></trkpt><trkpt lat="45.6046301" lon="9.5212815"><ele>183.33333333333334</ele><time>2026-04-25T12:06:03.705Z</time></trkpt><trkpt lat="45.6045535" lon="9.5212955"><ele>183.0</ele><time>2026-04-25T12:06:04.706Z</time></trkpt><trkpt lat="45.6044705" lon="9.5213086"><ele>182.60000000000002</ele><time>2026-04-25T12:06:05.706Z</time></trkpt><trkpt lat="45.6043838" lon="9.5213224"><ele>182.20000000000002</ele><time>2026-04-25T12:06:06.706Z</time></trkpt><trkpt lat="45.6042922" lon="9.5213358"><ele>181.8</ele><time>2026-04-25T12:06:07.706Z</time></trkpt><trkpt lat="45.6041957" lon="9.5213482"><ele>181.4</ele><time>2026-04-25T12:06:08.705Z</time></trkpt><trkpt lat="45.6041014" lon="9.5213592"><ele>181.0</ele><time>2026-04-25T12:06:09.706Z</time></trkpt><trkpt lat="45.6039892" lon="9.5213727"><ele>181.0</ele><time>2026-04-25T12:06:10.705Z</time></trkpt><trkpt lat="45.6038831" lon="9.5213863"><ele>181.0</ele><time>2026-04-25T12:06:11.706Z</time></trkpt><trkpt lat="45.6037734" lon="9.5214019"><ele>181.0</ele><time>2026-04-25T12:06:12.705Z</time></trkpt><trkpt lat="45.6036622" lon="9.5214163"><ele>181.0</ele><time>2026-04-25T12:06:13.705Z</time></trkpt><trkpt lat="45.603549" lon="9.5214276"><ele>181.0</ele><time>2026-04-25T12:06:14.706Z</time></trkpt><trkpt lat="45.6034342" lon="9.5214371"><ele>180.5</ele><time>2026-04-25T12:06:15.705Z</time></trkpt><trkpt lat="45.6033131" lon="9.5214447"><ele>180.0</ele><time>2026-04-25T12:06:16.706Z</time></trkpt><trkpt lat="45.6031845" lon="9.5214522"><ele>179.5</ele><time>2026-04-25T12:06:17.706Z</time></trkpt><trkpt lat="45.6030472" lon="9.5214634"><ele>179.0</ele><time>2026-04-25T12:06:18.705Z</time></trkpt><trkpt lat="45.6029077" lon="9.5214816"><ele>179.5</ele><time>2026-04-25T12:06:19.706Z</time></trkpt><trkpt lat="45.6027726" lon="9.5215068"><ele>180.0</ele><time>2026-04-25T12:06:20.705Z</time></trkpt><trkpt lat="45.6026421" lon="9.5215366"><ele>180.5</ele><time>2026-04-25T12:06:21.706Z</time></trkpt><trkpt lat="45.6025145" lon="9.5215705"><ele>181.0</ele><time>2026-04-25T12:06:22.705Z</time></trkpt><trkpt lat="45.602387" lon="9.5216076"><ele>181.0</ele><time>2026-04-25T12:06:23.706Z</time></trkpt><trkpt lat="45.6022581" lon="9.5216464"><ele>181.0</ele><time>2026-04-25T12:06:24.706Z</time></trkpt><trkpt lat="45.6021365" lon="9.5216806"><ele>181.0</ele><time>2026-04-25T12:06:25.706Z</time></trkpt><trkpt lat="45.6019991" lon="9.5217133"><ele>181.0</ele><time>2026-04-25T12:06:26.706Z</time></trkpt><trkpt lat="45.6018648" lon="9.5217396"><ele>180.75</ele><time>2026-04-25T12:06:27.705Z</time></trkpt><trkpt lat="45.6017276" lon="9.5217602"><ele>180.5</ele><time>2026-04-25T12:06:28.706Z</time></trkpt><trkpt lat="45.6015881" lon="9.5217758"><ele>180.25</ele><time>2026-04-25T12:06:29.706Z</time></trkpt><trkpt lat="45.6014473" lon="9.5217899"><ele>180.0</ele><time>2026-04-25T12:06:30.705Z</time></trkpt><trkpt lat="45.6013069" lon="9.5218036"><ele>180.0</ele><time>2026-04-25T12:06:31.706Z</time></trkpt><trkpt lat="45.6011711" lon="9.5218151"><ele>180.0</ele><time>2026-04-25T12:06:32.706Z</time></trkpt><trkpt lat="45.6010402" lon="9.5218254"><ele>180.0</ele><time>2026-04-25T12:06:33.706Z</time></trkpt><trkpt lat="45.6009122" lon="9.5218378"><ele>180.0</ele><time>2026-04-25T12:06:34.706Z</time></trkpt><trkpt lat="45.6007912" lon="9.5218504"><ele>179.8</ele><time>2026-04-25T12:06:35.705Z</time></trkpt><trkpt lat="45.6006795" lon="9.5218601"><ele>179.6</ele><time>2026-04-25T12:06:36.705Z</time></trkpt><trkpt lat="45.6005725" lon="9.5218565"><ele>179.39999999999998</ele><time>2026-04-25T12:06:37.705Z</time></trkpt><trkpt lat="45.6004729" lon="9.52183"><ele>179.2</ele><time>2026-04-25T12:06:38.705Z</time></trkpt><trkpt lat="45.6003767" lon="9.5217969"><ele>179.0</ele><time>2026-04-25T12:06:39.705Z</time></trkpt><trkpt lat="45.6002819" lon="9.521796"><ele>178.6</ele><time>2026-04-25T12:06:40.706Z</time></trkpt><trkpt lat="45.600192" lon="9.5218274"><ele>178.2</ele><time>2026-04-25T12:06:41.706Z</time></trkpt><trkpt lat="45.6000965" lon="9.5218749"><ele>177.79999999999998</ele><time>2026-04-25T12:06:42.705Z</time></trkpt><trkpt lat="45.6000036" lon="9.5219115"><ele>177.39999999999998</ele><time>2026-04-25T12:06:43.706Z</time></trkpt><trkpt lat="45.5999107" lon="9.5219343"><ele>177.0</ele><time>2026-04-25T12:06:44.705Z</time></trkpt><trkpt lat="45.5997993" lon="9.5219522"><ele>177.0</ele><time>2026-04-25T12:06:45.705Z</time></trkpt><trkpt lat="45.599688" lon="9.5219653"><ele>177.0</ele><time>2026-04-25T12:06:46.705Z</time></trkpt><trkpt lat="45.5995725" lon="9.5219774"><ele>177.0</ele><time>2026-04-25T12:06:47.705Z</time></trkpt><trkpt lat="45.5994533" lon="9.5219885"><ele>177.0</ele><time>2026-04-25T12:06:48.705Z</time></trkpt><trkpt lat="45.5993315" lon="9.5219975"><ele>176.75</ele><time>2026-04-25T12:06:49.705Z</time></trkpt><trkpt lat="45.5992092" lon="9.5220067"><ele>176.5</ele><time>2026-04-25T12:06:50.705Z</time></trkpt><trkpt lat="45.5990864" lon="9.5220146"><ele>176.25</ele><time>2026-04-25T12:06:51.705Z</time></trkpt><trkpt lat="45.5989736" lon="9.522021"><ele>176.0</ele><time>2026-04-25T12:06:52.706Z</time></trkpt><trkpt lat="45.5988509" lon="9.5220282"><ele>176.0</ele><time>2026-04-25T12:06:53.706Z</time></trkpt><trkpt lat="45.5987424" lon="9.5220366"><ele>176.0</ele><time>2026-04-25T12:06:54.705Z</time></trkpt><trkpt lat="45.5986378" lon="9.5220453"><ele>176.0</ele><time>2026-04-25T12:06:55.705Z</time></trkpt><trkpt lat="45.5985362" lon="9.5220537"><ele>176.0</ele><time>2026-04-25T12:06:56.706Z</time></trkpt><trkpt lat="45.5984436" lon="9.5220583"><ele>176.0</ele><time>2026-04-25T12:06:57.706Z</time></trkpt><trkpt lat="45.5983427" lon="9.5220565"><ele>175.60000000000002</ele><time>2026-04-25T12:06:58.705Z</time></trkpt><trkpt lat="45.5982492" lon="9.522046"><ele>175.2</ele><time>2026-04-25T12:06:59.705Z</time></trkpt><trkpt lat="45.5981645" lon="9.5220208"><ele>174.8</ele><time>2026-04-25T12:07:00.706Z</time></trkpt><trkpt lat="45.5980759" lon="9.5219655"><ele>174.39999999999998</ele><time>2026-04-25T12:07:01.705Z</time></trkpt><trkpt lat="45.597999" lon="9.5218898"><ele>174.0</ele><time>2026-04-25T12:07:02.706Z</time></trkpt><trkpt lat="45.5979207" lon="9.5218148"><ele>174.0</ele><time>2026-04-25T12:07:03.705Z</time></trkpt><trkpt lat="45.5978329" lon="9.5217692"><ele>174.0</ele><time>2026-04-25T12:07:04.706Z</time></trkpt><trkpt lat="45.5977376" lon="9.5217704"><ele>174.0</ele><time>2026-04-25T12:07:05.706Z</time></trkpt><trkpt lat="45.5976487" lon="9.5218216"><ele>174.0</ele><time>2026-04-25T12:07:06.705Z</time></trkpt><trkpt lat="45.5975802" lon="9.5219135"><ele>174.0</ele><time>2026-04-25T12:07:07.705Z</time></trkpt><trkpt lat="45.5975443" lon="9.5220232"><ele>174.0</ele><time>2026-04-25T12:07:08.705Z</time></trkpt><trkpt lat="45.5975474" lon="9.5221554"><ele>174.0</ele><time>2026-04-25T12:07:09.706Z</time></trkpt><trkpt lat="45.5975928" lon="9.5222567"><ele>174.0</ele><time>2026-04-25T12:07:10.705Z</time></trkpt><trkpt lat="45.5976656" lon="9.5223114"><ele>174.0</ele><time>2026-04-25T12:07:11.705Z</time></trkpt><trkpt lat="45.59775" lon="9.522313"><ele>174.0</ele><time>2026-04-25T12:07:12.706Z</time></trkpt><trkpt lat="45.5978263" lon="9.5222686"><ele>174.0</ele><time>2026-04-25T12:07:13.705Z</time></trkpt><trkpt lat="45.597897" lon="9.5221795"><ele>174.0</ele><time>2026-04-25T12:07:14.705Z</time></trkpt><trkpt lat="45.5979385" lon="9.5220674"><ele>174.0</ele><time>2026-04-25T12:07:15.706Z</time></trkpt><trkpt lat="45.5979458" lon="9.5219469"><ele>174.0</ele><time>2026-04-25T12:07:16.705Z</time></trkpt><trkpt lat="45.5979219" lon="9.5218057"><ele>174.0</ele><time>2026-04-25T12:07:17.705Z</time></trkpt><trkpt lat="45.597893" lon="9.5216674"><ele>174.0</ele><time>2026-04-25T12:07:18.705Z</time></trkpt><trkpt lat="45.5978818" lon="9.5215193"><ele>174.0</ele><time>2026-04-25T12:07:19.705Z</time></trkpt><trkpt lat="45.5978842" lon="9.5213642"><ele>174.0</ele><time>2026-04-25T12:07:20.705Z</time></trkpt><trkpt lat="45.597892" lon="9.5212053"><ele>174.0</ele><time>2026-04-25T12:07:21.706Z</time></trkpt><trkpt lat="45.5979003" lon="9.5210417"><ele>174.0</ele><time>2026-04-25T12:07:22.705Z</time></trkpt><trkpt lat="45.5979077" lon="9.520875"><ele>174.5</ele><time>2026-04-25T12:07:23.705Z</time></trkpt><trkpt lat="45.5979131" lon="9.5207183"><ele>175.0</ele><time>2026-04-25T12:07:24.706Z</time></trkpt><trkpt lat="45.5979184" lon="9.5205385"><ele>175.5</ele><time>2026-04-25T12:07:25.706Z</time></trkpt><trkpt lat="45.5979221" lon="9.5203697"><ele>176.0</ele><time>2026-04-25T12:07:26.706Z</time></trkpt><trkpt lat="45.5979233" lon="9.5202012"><ele>176.0</ele><time>2026-04-25T12:07:27.705Z</time></trkpt><trkpt lat="45.5979224" lon="9.5200357"><ele>176.0</ele><time>2026-04-25T12:07:28.705Z</time></trkpt><trkpt lat="45.5979252" lon="9.5198829"><ele>176.0</ele><time>2026-04-25T12:07:29.706Z</time></trkpt><trkpt lat="45.5979406" lon="9.5197125"><ele>176.0</ele><time>2026-04-25T12:07:30.705Z</time></trkpt><trkpt lat="45.5979697" lon="9.5195588"><ele>176.0</ele><time>2026-04-25T12:07:31.705Z</time></trkpt><trkpt lat="45.5979956" lon="9.5194227"><ele>176.0</ele><time>2026-04-25T12:07:32.705Z</time></trkpt><trkpt lat="45.5980008" lon="9.5192767"><ele>176.0</ele><time>2026-04-25T12:07:33.706Z</time></trkpt><trkpt lat="45.5979682" lon="9.5191583"><ele>176.0</ele><time>2026-04-25T12:07:34.706Z</time></trkpt><trkpt lat="45.5978999" lon="9.5190735"><ele>176.0</ele><time>2026-04-25T12:07:35.706Z</time></trkpt><trkpt lat="45.5978098" lon="9.5190215"><ele>176.4</ele><time>2026-04-25T12:07:36.705Z</time></trkpt><trkpt lat="45.5977169" lon="9.5189521"><ele>176.8</ele><time>2026-04-25T12:07:37.706Z</time></trkpt><trkpt lat="45.597636" lon="9.5188505"><ele>177.20000000000002</ele><time>2026-04-25T12:07:38.705Z</time></trkpt><trkpt lat="45.5975704" lon="9.5187253"><ele>177.60000000000002</ele><time>2026-04-25T12:07:39.706Z</time></trkpt><trkpt lat="45.5975133" lon="9.518595"><ele>178.0</ele><time>2026-04-25T12:07:40.705Z</time></trkpt><trkpt lat="45.5974482" lon="9.5184412"><ele>178.0</ele><time>2026-04-25T12:07:41.706Z</time></trkpt><trkpt lat="45.5973875" lon="9.518291"><ele>178.0</ele><time>2026-04-25T12:07:42.705Z</time></trkpt><trkpt lat="45.5973284" lon="9.5181342"><ele>178.0</ele><time>2026-04-25T12:07:43.705Z</time></trkpt><trkpt lat="45.597271" lon="9.5179713"><ele>178.0</ele><time>2026-04-25T12:07:44.706Z</time></trkpt><trkpt lat="45.5972181" lon="9.5178183"><ele>177.75</ele><time>2026-04-25T12:07:45.705Z</time></trkpt><trkpt lat="45.5971566" lon="9.5176404"><ele>177.5</ele><time>2026-04-25T12:07:46.706Z</time></trkpt><trkpt lat="45.5970974" lon="9.5174715"><ele>177.25</ele><time>2026-04-25T12:07:47.706Z</time></trkpt><trkpt lat="45.5970416" lon="9.517312"><ele>177.0</ele><time>2026-04-25T12:07:48.705Z</time></trkpt><trkpt lat="45.596978" lon="9.5171317"><ele>176.25</ele><time>2026-04-25T12:07:49.705Z</time></trkpt><trkpt lat="45.5969182" lon="9.5169588"><ele>175.5</ele><time>2026-04-25T12:07:50.705Z</time></trkpt><trkpt lat="45.5968577" lon="9.516782"><ele>174.75</ele><time>2026-04-25T12:07:51.706Z</time></trkpt><trkpt lat="45.5967962" lon="9.5166014"><ele>174.0</ele><time>2026-04-25T12:07:52.706Z</time></trkpt><trkpt lat="45.5967345" lon="9.5164197"><ele>174.0</ele><time>2026-04-25T12:07:53.705Z</time></trkpt><trkpt lat="45.5966726" lon="9.5162382"><ele>174.0</ele><time>2026-04-25T12:07:54.706Z</time></trkpt><trkpt lat="45.5966117" lon="9.5160584"><ele>174.0</ele><time>2026-04-25T12:07:55.705Z</time></trkpt><trkpt lat="45.5965545" lon="9.5158912"><ele>174.0</ele><time>2026-04-25T12:07:56.705Z</time></trkpt><trkpt lat="45.5964876" lon="9.5157006"><ele>174.0</ele><time>2026-04-25T12:07:57.705Z</time></trkpt><trkpt lat="45.5964242" lon="9.5155222"><ele>174.0</ele><time>2026-04-25T12:07:58.705Z</time></trkpt><trkpt lat="45.596361" lon="9.5153424"><ele>174.0</ele><time>2026-04-25T12:07:59.706Z</time></trkpt><trkpt lat="45.5962985" lon="9.5151613"><ele>174.0</ele><time>2026-04-25T12:08:00.706Z</time></trkpt><trkpt lat="45.5962401" lon="9.5149914"><ele>174.25</ele><time>2026-04-25T12:08:01.706Z</time></trkpt><trkpt lat="45.5961743" lon="9.5147983"><ele>174.5</ele><time>2026-04-25T12:08:02.706Z</time></trkpt><trkpt lat="45.5961113" lon="9.5146182"><ele>174.75</ele><time>2026-04-25T12:08:03.706Z</time></trkpt><trkpt lat="45.5960519" lon="9.5144503"><ele>175.0</ele><time>2026-04-25T12:08:04.706Z</time></trkpt><trkpt lat="45.5959843" lon="9.514258"><ele>174.5</ele><time>2026-04-25T12:08:05.706Z</time></trkpt><trkpt lat="45.5959214" lon="9.5140762"><ele>174.0</ele><time>2026-04-25T12:08:06.705Z</time></trkpt><trkpt lat="45.5958586" lon="9.5138939"><ele>173.5</ele><time>2026-04-25T12:08:07.705Z</time></trkpt><trkpt lat="45.5957969" lon="9.5137115"><ele>173.0</ele><time>2026-04-25T12:08:08.705Z</time></trkpt><trkpt lat="45.595734" lon="9.5135294"><ele>173.0</ele><time>2026-04-25T12:08:09.706Z</time></trkpt><trkpt lat="45.5956705" lon="9.5133492"><ele>173.0</ele><time>2026-04-25T12:08:10.706Z</time></trkpt><trkpt lat="45.5956063" lon="9.5131688"><ele>173.0</ele><time>2026-04-25T12:08:11.706Z</time></trkpt><trkpt lat="45.5955461" lon="9.5129996"><ele>173.0</ele><time>2026-04-25T12:08:12.706Z</time></trkpt><trkpt lat="45.5954784" lon="9.5128071"><ele>173.25</ele><time>2026-04-25T12:08:13.706Z</time></trkpt><trkpt lat="45.5954153" lon="9.5126256"><ele>173.5</ele><time>2026-04-25T12:08:14.705Z</time></trkpt><trkpt lat="45.5953528" lon="9.5124443"><ele>173.75</ele><time>2026-04-25T12:08:15.706Z</time></trkpt><trkpt lat="45.595289" lon="9.5122643"><ele>174.0</ele><time>2026-04-25T12:08:16.705Z</time></trkpt><trkpt lat="45.5952291" lon="9.5120945"><ele>173.75</ele><time>2026-04-25T12:08:17.706Z</time></trkpt><trkpt lat="45.5951611" lon="9.5119008"><ele>173.5</ele><time>2026-04-25T12:08:18.705Z</time></trkpt><trkpt lat="45.5950988" lon="9.5117197"><ele>173.25</ele><time>2026-04-25T12:08:19.705Z</time></trkpt><trkpt lat="45.5950402" lon="9.511549"><ele>173.0</ele><time>2026-04-25T12:08:20.706Z</time></trkpt><trkpt lat="45.5949739" lon="9.5113551"><ele>173.25</ele><time>2026-04-25T12:08:21.706Z</time></trkpt><trkpt lat="45.5949106" lon="9.5111735"><ele>173.5</ele><time>2026-04-25T12:08:22.705Z</time></trkpt><trkpt lat="45.5948475" lon="9.5109916"><ele>173.75</ele><time>2026-04-25T12:08:23.706Z</time></trkpt><trkpt lat="45.5947846" lon="9.5108104"><ele>174.0</ele><time>2026-04-25T12:08:24.706Z</time></trkpt><trkpt lat="45.5947217" lon="9.5106296"><ele>174.0</ele><time>2026-04-25T12:08:25.705Z</time></trkpt><trkpt lat="45.5946587" lon="9.5104475"><ele>174.0</ele><time>2026-04-25T12:08:26.706Z</time></trkpt><trkpt lat="45.5945958" lon="9.5102657"><ele>174.0</ele><time>2026-04-25T12:08:27.705Z</time></trkpt><trkpt lat="45.5945394" lon="9.5100973"><ele>174.0</ele><time>2026-04-25T12:08:28.705Z</time></trkpt><trkpt lat="45.5944756" lon="9.5099132"><ele>174.25</ele><time>2026-04-25T12:08:29.705Z</time></trkpt><trkpt lat="45.5944169" lon="9.5097446"><ele>174.5</ele><time>2026-04-25T12:08:30.706Z</time></trkpt><trkpt lat="45.5943574" lon="9.5095756"><ele>174.75</ele><time>2026-04-25T12:08:31.705Z</time></trkpt><trkpt lat="45.5942971" lon="9.509403"><ele>175.0</ele><time>2026-04-25T12:08:32.705Z</time></trkpt><trkpt lat="45.5942415" lon="9.50924"><ele>175.0</ele><time>2026-04-25T12:08:33.705Z</time></trkpt><trkpt lat="45.5941788" lon="9.5090519"><ele>175.0</ele><time>2026-04-25T12:08:34.705Z</time></trkpt><trkpt lat="45.594119" lon="9.5088745"><ele>175.0</ele><time>2026-04-25T12:08:35.705Z</time></trkpt><trkpt lat="45.5940621" lon="9.5087082"><ele>175.0</ele><time>2026-04-25T12:08:36.706Z</time></trkpt><trkpt lat="45.5939958" lon="9.5085209"><ele>175.0</ele><time>2026-04-25T12:08:37.706Z</time></trkpt><trkpt lat="45.5939335" lon="9.5083463"><ele>175.0</ele><time>2026-04-25T12:08:38.705Z</time></trkpt><trkpt lat="45.5938715" lon="9.5081706"><ele>175.0</ele><time>2026-04-25T12:08:39.705Z</time></trkpt><trkpt lat="45.5938113" lon="9.5080001"><ele>175.0</ele><time>2026-04-25T12:08:40.705Z</time></trkpt><trkpt lat="45.5937522" lon="9.5078314"><ele>174.75</ele><time>2026-04-25T12:08:41.706Z</time></trkpt><trkpt lat="45.5936924" lon="9.5076651"><ele>174.5</ele><time>2026-04-25T12:08:42.706Z</time></trkpt><trkpt lat="45.593628" lon="9.5075008"><ele>174.25</ele><time>2026-04-25T12:08:43.705Z</time></trkpt><trkpt lat="45.5935627" lon="9.5073507"><ele>174.0</ele><time>2026-04-25T12:08:44.706Z</time></trkpt><trkpt lat="45.5934859" lon="9.5071893"><ele>174.2</ele><time>2026-04-25T12:08:45.705Z</time></trkpt><trkpt lat="45.5934182" lon="9.5070493"><ele>174.39999999999998</ele><time>2026-04-25T12:08:46.706Z</time></trkpt><trkpt lat="45.5933593" lon="9.5069266"><ele>174.6</ele><time>2026-04-25T12:08:47.705Z</time></trkpt><trkpt lat="45.5933143" lon="9.5068325"><ele>174.8</ele><time>2026-04-25T12:08:48.705Z</time></trkpt><trkpt lat="45.5932709" lon="9.5067361"><ele>175.0</ele><time>2026-04-25T12:08:50.706Z</time></trkpt><trkpt lat="45.5932348" lon="9.506632"><ele>175.0</ele><time>2026-04-25T12:08:52.705Z</time></trkpt><trkpt lat="45.5932117" lon="9.5065386"><ele>175.0</ele><time>2026-04-25T12:08:53.705Z</time></trkpt><trkpt lat="45.5931872" lon="9.5064347"><ele>175.0</ele><time>2026-04-25T12:08:54.705Z</time></trkpt><trkpt lat="45.5931465" lon="9.5063345"><ele>175.0</ele><time>2026-04-25T12:08:55.705Z</time></trkpt><trkpt lat="45.5930814" lon="9.5062589"><ele>175.0</ele><time>2026-04-25T12:08:56.705Z</time></trkpt><trkpt lat="45.5930015" lon="9.5062211"><ele>175.0</ele><time>2026-04-25T12:08:57.706Z</time></trkpt><trkpt lat="45.5929158" lon="9.5062197"><ele>174.8</ele><time>2026-04-25T12:08:58.706Z</time></trkpt><trkpt lat="45.5928272" lon="9.506248"><ele>174.6</ele><time>2026-04-25T12:08:59.705Z</time></trkpt><trkpt lat="45.5927432" lon="9.5062875"><ele>174.39999999999998</ele><time>2026-04-25T12:09:00.706Z</time></trkpt><trkpt lat="45.592644" lon="9.5063226"><ele>174.2</ele><time>2026-04-25T12:09:01.706Z</time></trkpt><trkpt lat="45.5925462" lon="9.5063375"><ele>174.0</ele><time>2026-04-25T12:09:02.706Z</time></trkpt><trkpt lat="45.5924441" lon="9.5063391"><ele>174.0</ele><time>2026-04-25T12:09:03.706Z</time></trkpt><trkpt lat="45.5923344" lon="9.506334"><ele>174.0</ele><time>2026-04-25T12:09:04.705Z</time></trkpt><trkpt lat="45.5922246" lon="9.506327"><ele>174.0</ele><time>2026-04-25T12:09:05.705Z</time></trkpt><trkpt lat="45.5920939" lon="9.5063216"><ele>174.0</ele><time>2026-04-25T12:09:06.706Z</time></trkpt><trkpt lat="45.591968" lon="9.5063208"><ele>173.75</ele><time>2026-04-25T12:09:07.706Z</time></trkpt><trkpt lat="45.5918467" lon="9.5063229"><ele>173.5</ele><time>2026-04-25T12:09:08.706Z</time></trkpt><trkpt lat="45.5917071" lon="9.5063267"><ele>173.25</ele><time>2026-04-25T12:09:09.705Z</time></trkpt><trkpt lat="45.5915756" lon="9.5063296"><ele>173.0</ele><time>2026-04-25T12:09:10.706Z</time></trkpt><trkpt lat="45.5914455" lon="9.506332"><ele>173.0</ele><time>2026-04-25T12:09:11.705Z</time></trkpt><trkpt lat="45.5913154" lon="9.5063341"><ele>173.0</ele><time>2026-04-25T12:09:12.706Z</time></trkpt><trkpt lat="45.5911843" lon="9.5063364"><ele>173.0</ele><time>2026-04-25T12:09:13.706Z</time></trkpt><trkpt lat="45.5910528" lon="9.5063396"><ele>173.0</ele><time>2026-04-25T12:09:14.706Z</time></trkpt><trkpt lat="45.5909218" lon="9.5063428"><ele>172.0</ele><time>2026-04-25T12:09:15.706Z</time></trkpt><trkpt lat="45.5907981" lon="9.5063456"><ele>171.0</ele><time>2026-04-25T12:09:16.705Z</time></trkpt><trkpt lat="45.5906572" lon="9.5063482"><ele>170.0</ele><time>2026-04-25T12:09:17.706Z</time></trkpt><trkpt lat="45.5905253" lon="9.506351"><ele>169.0</ele><time>2026-04-25T12:09:18.706Z</time></trkpt><trkpt lat="45.5903929" lon="9.5063547"><ele>169.25</ele><time>2026-04-25T12:09:19.705Z</time></trkpt><trkpt lat="45.5902607" lon="9.5063587"><ele>169.5</ele><time>2026-04-25T12:09:20.705Z</time></trkpt><trkpt lat="45.5901367" lon="9.5063626"><ele>169.75</ele><time>2026-04-25T12:09:21.706Z</time></trkpt><trkpt lat="45.5899958" lon="9.506366"><ele>170.0</ele><time>2026-04-25T12:09:22.705Z</time></trkpt><trkpt lat="45.5898635" lon="9.5063699"><ele>170.0</ele><time>2026-04-25T12:09:23.705Z</time></trkpt><trkpt lat="45.5897404" lon="9.5063741"><ele>170.0</ele><time>2026-04-25T12:09:24.706Z</time></trkpt><trkpt lat="45.5895989" lon="9.506379"><ele>170.0</ele><time>2026-04-25T12:09:25.705Z</time></trkpt><trkpt lat="45.5894661" lon="9.5063832"><ele>170.0</ele><time>2026-04-25T12:09:26.705Z</time></trkpt><trkpt lat="45.5893338" lon="9.5063876"><ele>170.0</ele><time>2026-04-25T12:09:27.706Z</time></trkpt><trkpt lat="45.5892018" lon="9.5063903"><ele>170.0</ele><time>2026-04-25T12:09:28.706Z</time></trkpt><trkpt lat="45.5890694" lon="9.506389"><ele>170.0</ele><time>2026-04-25T12:09:29.705Z</time></trkpt><trkpt lat="45.5889371" lon="9.5063827"><ele>170.0</ele><time>2026-04-25T12:09:30.706Z</time></trkpt><trkpt lat="45.588805" lon="9.5063719"><ele>170.0</ele><time>2026-04-25T12:09:31.706Z</time></trkpt><trkpt lat="45.5886821" lon="9.5063554"><ele>170.0</ele><time>2026-04-25T12:09:32.706Z</time></trkpt><trkpt lat="45.5885429" lon="9.5063274"><ele>170.0</ele><time>2026-04-25T12:09:33.705Z</time></trkpt><trkpt lat="45.5884129" lon="9.5062931"><ele>170.0</ele><time>2026-04-25T12:09:34.705Z</time></trkpt><trkpt lat="45.5882835" lon="9.5062525"><ele>170.0</ele><time>2026-04-25T12:09:35.706Z</time></trkpt><trkpt lat="45.5881553" lon="9.5062057"><ele>170.0</ele><time>2026-04-25T12:09:36.705Z</time></trkpt><trkpt lat="45.5880383" lon="9.5061554"><ele>170.0</ele><time>2026-04-25T12:09:37.705Z</time></trkpt><trkpt lat="45.5879158" lon="9.5060886"><ele>170.0</ele><time>2026-04-25T12:09:38.705Z</time></trkpt><trkpt lat="45.5878175" lon="9.5060178"><ele>170.0</ele><time>2026-04-25T12:09:39.706Z</time></trkpt><trkpt lat="45.5877383" lon="9.5059411"><ele>170.0</ele><time>2026-04-25T12:09:40.705Z</time></trkpt><trkpt lat="45.5876635" lon="9.5058444"><ele>170.0</ele><time>2026-04-25T12:09:41.706Z</time></trkpt><trkpt lat="45.5875956" lon="9.5057477"><ele>170.0</ele><time>2026-04-25T12:09:42.705Z</time></trkpt><trkpt lat="45.5875177" lon="9.5056567"><ele>170.0</ele><time>2026-04-25T12:09:43.706Z</time></trkpt><trkpt lat="45.587429" lon="9.5055818"><ele>170.0</ele><time>2026-04-25T12:09:44.705Z</time></trkpt><trkpt lat="45.5873341" lon="9.5055231"><ele>170.0</ele><time>2026-04-25T12:09:45.706Z</time></trkpt><trkpt lat="45.5872353" lon="9.5054729"><ele>170.0</ele><time>2026-04-25T12:09:46.705Z</time></trkpt><trkpt lat="45.5871355" lon="9.5054244"><ele>170.0</ele><time>2026-04-25T12:09:47.705Z</time></trkpt><trkpt lat="45.5870426" lon="9.5053731"><ele>170.0</ele><time>2026-04-25T12:09:48.706Z</time></trkpt><trkpt lat="45.5869393" lon="9.5053022"><ele>170.6</ele><time>2026-04-25T12:09:49.705Z</time></trkpt><trkpt lat="45.5868469" lon="9.5052216"><ele>171.2</ele><time>2026-04-25T12:09:50.705Z</time></trkpt><trkpt lat="45.5867629" lon="9.5051333"><ele>171.8</ele><time>2026-04-25T12:09:51.705Z</time></trkpt><trkpt lat="45.586674" lon="9.5050237"><ele>172.4</ele><time>2026-04-25T12:09:52.705Z</time></trkpt><trkpt lat="45.586596" lon="9.5049171"><ele>173.0</ele><time>2026-04-25T12:09:53.705Z</time></trkpt><trkpt lat="45.586508" lon="9.5047889"><ele>173.0</ele><time>2026-04-25T12:09:54.705Z</time></trkpt><trkpt lat="45.58643" lon="9.5046683"><ele>173.0</ele><time>2026-04-25T12:09:55.706Z</time></trkpt><trkpt lat="45.5863641" lon="9.5045607"><ele>173.0</ele><time>2026-04-25T12:09:56.706Z</time></trkpt><trkpt lat="45.5862959" lon="9.504443"><ele>173.0</ele><time>2026-04-25T12:09:57.706Z</time></trkpt><trkpt lat="45.5862384" lon="9.5043382"><ele>173.0</ele><time>2026-04-25T12:09:58.705Z</time></trkpt><trkpt lat="45.5861857" lon="9.5042405"><ele>172.5</ele><time>2026-04-25T12:09:59.706Z</time></trkpt><trkpt lat="45.5861365" lon="9.5041466"><ele>172.0</ele><time>2026-04-25T12:10:00.705Z</time></trkpt><trkpt lat="45.5860898" lon="9.5040548"><ele>171.5</ele><time>2026-04-25T12:10:01.706Z</time></trkpt><trkpt lat="45.5860443" lon="9.5039624"><ele>171.0</ele><time>2026-04-25T12:10:02.705Z</time></trkpt><trkpt lat="45.5859973" lon="9.5038654"><ele>170.5</ele><time>2026-04-25T12:10:03.706Z</time></trkpt><trkpt lat="45.5859523" lon="9.5037711"><ele>170.0</ele><time>2026-04-25T12:10:04.706Z</time></trkpt><trkpt lat="45.5858992" lon="9.5036579"><ele>170.0</ele><time>2026-04-25T12:10:05.706Z</time></trkpt><trkpt lat="45.5858488" lon="9.5035414"><ele>170.0</ele><time>2026-04-25T12:10:06.705Z</time></trkpt><trkpt lat="45.5857999" lon="9.5034159"><ele>170.0</ele><time>2026-04-25T12:10:07.706Z</time></trkpt><trkpt lat="45.5857512" lon="9.5032794"><ele>170.0</ele><time>2026-04-25T12:10:08.705Z</time></trkpt><trkpt lat="45.5857064" lon="9.5031474"><ele>170.0</ele><time>2026-04-25T12:10:09.706Z</time></trkpt><trkpt lat="45.585655" lon="9.5029862"><ele>170.5</ele><time>2026-04-25T12:10:10.705Z</time></trkpt><trkpt lat="45.5856094" lon="9.5028305"><ele>171.0</ele><time>2026-04-25T12:10:11.706Z</time></trkpt><trkpt lat="45.5855694" lon="9.5026823"><ele>171.5</ele><time>2026-04-25T12:10:12.706Z</time></trkpt><trkpt lat="45.5855272" lon="9.5025108"><ele>172.0</ele><time>2026-04-25T12:10:13.705Z</time></trkpt><trkpt lat="45.5854917" lon="9.5023476"><ele>172.0</ele><time>2026-04-25T12:10:14.705Z</time></trkpt><trkpt lat="45.5854601" lon="9.5021798"><ele>172.0</ele><time>2026-04-25T12:10:15.705Z</time></trkpt><trkpt lat="45.5854318" lon="9.5020036"><ele>172.0</ele><time>2026-04-25T12:10:16.705Z</time></trkpt><trkpt lat="45.5854082" lon="9.5018243"><ele>172.0</ele><time>2026-04-25T12:10:17.705Z</time></trkpt><trkpt lat="45.5853877" lon="9.5016467"><ele>171.75</ele><time>2026-04-25T12:10:18.706Z</time></trkpt><trkpt lat="45.5853713" lon="9.5014671"><ele>171.5</ele><time>2026-04-25T12:10:19.706Z</time></trkpt><trkpt lat="45.5853601" lon="9.5012949"><ele>171.25</ele><time>2026-04-25T12:10:20.706Z</time></trkpt><trkpt lat="45.5853525" lon="9.5010943"><ele>171.0</ele><time>2026-04-25T12:10:21.706Z</time></trkpt><trkpt lat="45.5853505" lon="9.500908"><ele>170.75</ele><time>2026-04-25T12:10:22.705Z</time></trkpt><trkpt lat="45.5853537" lon="9.5007194"><ele>170.5</ele><time>2026-04-25T12:10:23.705Z</time></trkpt><trkpt lat="45.5853635" lon="9.5005263"><ele>170.25</ele><time>2026-04-25T12:10:24.706Z</time></trkpt><trkpt lat="45.5853779" lon="9.500345"><ele>170.0</ele><time>2026-04-25T12:10:25.705Z</time></trkpt><trkpt lat="45.585401" lon="9.5001456"><ele>170.0</ele><time>2026-04-25T12:10:26.705Z</time></trkpt><trkpt lat="45.5854273" lon="9.4999609"><ele>170.0</ele><time>2026-04-25T12:10:27.706Z</time></trkpt><trkpt lat="45.5854553" lon="9.4997854"><ele>170.0</ele><time>2026-04-25T12:10:28.706Z</time></trkpt><trkpt lat="45.585492" lon="9.4995833"><ele>170.0</ele><time>2026-04-25T12:10:29.706Z</time></trkpt><trkpt lat="45.5855306" lon="9.499397"><ele>170.0</ele><time>2026-04-25T12:10:30.706Z</time></trkpt><trkpt lat="45.5855713" lon="9.4992148"><ele>170.0</ele><time>2026-04-25T12:10:31.706Z</time></trkpt><trkpt lat="45.5856145" lon="9.4990333"><ele>170.0</ele><time>2026-04-25T12:10:32.705Z</time></trkpt><trkpt lat="45.5856602" lon="9.4988516"><ele>170.0</ele><time>2026-04-25T12:10:33.705Z</time></trkpt><trkpt lat="45.5857058" lon="9.4986667"><ele>169.75</ele><time>2026-04-25T12:10:34.706Z</time></trkpt><trkpt lat="45.5857521" lon="9.4984835"><ele>169.5</ele><time>2026-04-25T12:10:35.706Z</time></trkpt><trkpt lat="45.5857948" lon="9.498316"><ele>169.25</ele><time>2026-04-25T12:10:36.705Z</time></trkpt><trkpt lat="45.5858438" lon="9.4981243"><ele>169.0</ele><time>2026-04-25T12:10:37.705Z</time></trkpt><trkpt lat="45.5858909" lon="9.4979444"><ele>169.25</ele><time>2026-04-25T12:10:38.705Z</time></trkpt><trkpt lat="45.5859373" lon="9.4977729"><ele>169.5</ele><time>2026-04-25T12:10:39.706Z</time></trkpt><trkpt lat="45.5859889" lon="9.4975856"><ele>169.75</ele><time>2026-04-25T12:10:40.705Z</time></trkpt><trkpt lat="45.5860326" lon="9.4974241"><ele>170.0</ele><time>2026-04-25T12:10:41.706Z</time></trkpt><trkpt lat="45.5860806" lon="9.4972399"><ele>169.75</ele><time>2026-04-25T12:10:42.706Z</time></trkpt><trkpt lat="45.5861234" lon="9.4970701"><ele>169.5</ele><time>2026-04-25T12:10:43.706Z</time></trkpt><trkpt lat="45.5861656" lon="9.4969048"><ele>169.25</ele><time>2026-04-25T12:10:44.706Z</time></trkpt><trkpt lat="45.5862143" lon="9.4967175"><ele>169.0</ele><time>2026-04-25T12:10:45.705Z</time></trkpt><trkpt lat="45.5862603" lon="9.4965426"><ele>168.75</ele><time>2026-04-25T12:10:46.705Z</time></trkpt><trkpt lat="45.5863038" lon="9.4963772"><ele>168.5</ele><time>2026-04-25T12:10:47.706Z</time></trkpt><trkpt lat="45.5863523" lon="9.4961902"><ele>168.25</ele><time>2026-04-25T12:10:48.706Z</time></trkpt><trkpt lat="45.5863969" lon="9.496013"><ele>168.0</ele><time>2026-04-25T12:10:49.706Z</time></trkpt><trkpt lat="45.5864405" lon="9.495835"><ele>168.5</ele><time>2026-04-25T12:10:50.705Z</time></trkpt><trkpt lat="45.5864834" lon="9.4956565"><ele>169.0</ele><time>2026-04-25T12:10:51.706Z</time></trkpt><trkpt lat="45.5865239" lon="9.495488"><ele>169.5</ele><time>2026-04-25T12:10:52.705Z</time></trkpt><trkpt lat="45.5865703" lon="9.4952979"><ele>170.0</ele><time>2026-04-25T12:10:53.706Z</time></trkpt><trkpt lat="45.5866149" lon="9.4951166"><ele>170.0</ele><time>2026-04-25T12:10:54.706Z</time></trkpt><trkpt lat="45.5866598" lon="9.4949462"><ele>170.0</ele><time>2026-04-25T12:10:55.706Z</time></trkpt><trkpt lat="45.5867141" lon="9.4947538"><ele>170.0</ele><time>2026-04-25T12:10:56.706Z</time></trkpt><trkpt lat="45.5867601" lon="9.4945847"><ele>170.0</ele><time>2026-04-25T12:10:57.706Z</time></trkpt><trkpt lat="45.5868096" lon="9.4943901"><ele>170.0</ele><time>2026-04-25T12:10:58.705Z</time></trkpt><trkpt lat="45.5868568" lon="9.4942069"><ele>170.0</ele><time>2026-04-25T12:10:59.706Z</time></trkpt><trkpt lat="45.5869017" lon="9.4940358"><ele>170.0</ele><time>2026-04-25T12:11:00.706Z</time></trkpt><trkpt lat="45.58695" lon="9.4938371"><ele>170.0</ele><time>2026-04-25T12:11:01.706Z</time></trkpt><trkpt lat="45.586993" lon="9.4936523"><ele>171.25</ele><time>2026-04-25T12:11:02.706Z</time></trkpt><trkpt lat="45.5870323" lon="9.4934775"><ele>172.5</ele><time>2026-04-25T12:11:03.705Z</time></trkpt><trkpt lat="45.5870736" lon="9.4932781"><ele>173.75</ele><time>2026-04-25T12:11:04.706Z</time></trkpt><trkpt lat="45.5871081" lon="9.493092"><ele>175.0</ele><time>2026-04-25T12:11:05.706Z</time></trkpt><trkpt lat="45.5871402" lon="9.4929037"><ele>175.25</ele><time>2026-04-25T12:11:06.706Z</time></trkpt><trkpt lat="45.587168" lon="9.4927188"><ele>175.5</ele><time>2026-04-25T12:11:07.706Z</time></trkpt><trkpt lat="45.5871912" lon="9.4925519"><ele>175.75</ele><time>2026-04-25T12:11:08.706Z</time></trkpt><trkpt lat="45.5872177" lon="9.492375"><ele>176.0</ele><time>2026-04-25T12:11:09.706Z</time></trkpt><trkpt lat="45.5872477" lon="9.4922253"><ele>176.0</ele><time>2026-04-25T12:11:10.705Z</time></trkpt><trkpt lat="45.5872797" lon="9.4920996"><ele>176.0</ele><time>2026-04-25T12:11:11.705Z</time></trkpt><trkpt lat="45.5873176" lon="9.4919657"><ele>176.0</ele><time>2026-04-25T12:11:12.706Z</time></trkpt><trkpt lat="45.5873473" lon="9.4918451"><ele>176.0</ele><time>2026-04-25T12:11:13.706Z</time></trkpt><trkpt lat="45.5873701" lon="9.4916937"><ele>176.0</ele><time>2026-04-25T12:11:14.705Z</time></trkpt><trkpt lat="45.5873729" lon="9.4915421"><ele>175.60000000000002</ele><time>2026-04-25T12:11:15.705Z</time></trkpt><trkpt lat="45.5873602" lon="9.4914016"><ele>175.2</ele><time>2026-04-25T12:11:16.706Z</time></trkpt><trkpt lat="45.5873341" lon="9.491239"><ele>174.8</ele><time>2026-04-25T12:11:17.706Z</time></trkpt><trkpt lat="45.5873051" lon="9.4910845"><ele>174.39999999999998</ele><time>2026-04-25T12:11:18.705Z</time></trkpt><trkpt lat="45.5872773" lon="9.4909343"><ele>174.0</ele><time>2026-04-25T12:11:19.705Z</time></trkpt><trkpt lat="45.5872469" lon="9.4907575"><ele>174.0</ele><time>2026-04-25T12:11:20.706Z</time></trkpt><trkpt lat="45.5872197" lon="9.4905887"><ele>174.0</ele><time>2026-04-25T12:11:21.706Z</time></trkpt><trkpt lat="45.5871919" lon="9.4904179"><ele>174.0</ele><time>2026-04-25T12:11:22.705Z</time></trkpt><trkpt lat="45.587163" lon="9.490247"><ele>174.0</ele><time>2026-04-25T12:11:23.706Z</time></trkpt><trkpt lat="45.5871351" lon="9.4900853"><ele>174.0</ele><time>2026-04-25T12:11:24.705Z</time></trkpt><trkpt lat="45.5871044" lon="9.4899006"><ele>174.0</ele><time>2026-04-25T12:11:25.705Z</time></trkpt><trkpt lat="45.5870759" lon="9.4897214"><ele>174.0</ele><time>2026-04-25T12:11:26.706Z</time></trkpt><trkpt lat="45.5870496" lon="9.4895526"><ele>174.0</ele><time>2026-04-25T12:11:27.706Z</time></trkpt><trkpt lat="45.5870193" lon="9.4893611"><ele>174.25</ele><time>2026-04-25T12:11:28.706Z</time></trkpt><trkpt lat="45.586993" lon="9.4891932"><ele>174.5</ele><time>2026-04-25T12:11:29.706Z</time></trkpt><trkpt lat="45.5869646" lon="9.4890027"><ele>174.75</ele><time>2026-04-25T12:11:30.705Z</time></trkpt><trkpt lat="45.5869379" lon="9.488821"><ele>175.0</ele><time>2026-04-25T12:11:31.706Z</time></trkpt><trkpt lat="45.5869109" lon="9.4886514"><ele>174.5</ele><time>2026-04-25T12:11:32.705Z</time></trkpt><trkpt lat="45.5868781" lon="9.4884554"><ele>174.0</ele><time>2026-04-25T12:11:33.705Z</time></trkpt><trkpt lat="45.5868455" lon="9.4882643"><ele>173.5</ele><time>2026-04-25T12:11:34.706Z</time></trkpt><trkpt lat="45.5868147" lon="9.4880846"><ele>173.0</ele><time>2026-04-25T12:11:35.706Z</time></trkpt><trkpt lat="45.586777" lon="9.4878804"><ele>173.0</ele><time>2026-04-25T12:11:36.706Z</time></trkpt><trkpt lat="45.5867359" lon="9.4876884"><ele>173.0</ele><time>2026-04-25T12:11:37.706Z</time></trkpt><trkpt lat="45.5866891" lon="9.4875022"><ele>173.0</ele><time>2026-04-25T12:11:38.705Z</time></trkpt><trkpt lat="45.5866345" lon="9.4873164"><ele>173.0</ele><time>2026-04-25T12:11:39.706Z</time></trkpt><trkpt lat="45.5865777" lon="9.4871498"><ele>173.75</ele><time>2026-04-25T12:11:40.705Z</time></trkpt><trkpt lat="45.5865069" lon="9.4869675"><ele>174.5</ele><time>2026-04-25T12:11:41.705Z</time></trkpt><trkpt lat="45.5864366" lon="9.4868008"><ele>175.25</ele><time>2026-04-25T12:11:42.705Z</time></trkpt><trkpt lat="45.5863696" lon="9.4866468"><ele>176.0</ele><time>2026-04-25T12:11:43.705Z</time></trkpt><trkpt lat="45.5862937" lon="9.4864724"><ele>176.0</ele><time>2026-04-25T12:11:44.706Z</time></trkpt><trkpt lat="45.5862279" lon="9.4863204"><ele>176.0</ele><time>2026-04-25T12:11:45.706Z</time></trkpt><trkpt lat="45.5861531" lon="9.4861477"><ele>176.0</ele><time>2026-04-25T12:11:46.706Z</time></trkpt><trkpt lat="45.5860827" lon="9.4859874"><ele>176.0</ele><time>2026-04-25T12:11:47.706Z</time></trkpt><trkpt lat="45.5860166" lon="9.4858383"><ele>176.0</ele><time>2026-04-25T12:11:48.706Z</time></trkpt><trkpt lat="45.5859416" lon="9.4856683"><ele>176.0</ele><time>2026-04-25T12:11:49.705Z</time></trkpt><trkpt lat="45.585872" lon="9.4855084"><ele>176.0</ele><time>2026-04-25T12:11:50.705Z</time></trkpt><trkpt lat="45.5858067" lon="9.4853564"><ele>176.0</ele><time>2026-04-25T12:11:51.706Z</time></trkpt><trkpt lat="45.5857328" lon="9.4851839"><ele>176.0</ele><time>2026-04-25T12:11:52.705Z</time></trkpt><trkpt lat="45.5856635" lon="9.4850228"><ele>176.0</ele><time>2026-04-25T12:11:53.706Z</time></trkpt><trkpt lat="45.5855944" lon="9.484864"><ele>176.0</ele><time>2026-04-25T12:11:54.706Z</time></trkpt><trkpt lat="45.5855253" lon="9.4847066"><ele>176.0</ele><time>2026-04-25T12:11:55.705Z</time></trkpt><trkpt lat="45.585461" lon="9.4845602"><ele>176.0</ele><time>2026-04-25T12:11:56.705Z</time></trkpt><trkpt lat="45.5853887" lon="9.4843926"><ele>176.0</ele><time>2026-04-25T12:11:57.706Z</time></trkpt><trkpt lat="45.5853215" lon="9.4842378"><ele>176.0</ele><time>2026-04-25T12:11:58.706Z</time></trkpt><trkpt lat="45.5852587" lon="9.4840956"><ele>176.0</ele><time>2026-04-25T12:11:59.706Z</time></trkpt><trkpt lat="45.5851873" lon="9.4839356"><ele>175.5</ele><time>2026-04-25T12:12:00.705Z</time></trkpt><trkpt lat="45.5851241" lon="9.4837951"><ele>175.0</ele><time>2026-04-25T12:12:01.705Z</time></trkpt><trkpt lat="45.5850528" lon="9.4836372"><ele>174.5</ele><time>2026-04-25T12:12:02.706Z</time></trkpt><trkpt lat="45.5849837" lon="9.483488"><ele>174.0</ele><time>2026-04-25T12:12:03.706Z</time></trkpt><trkpt lat="45.5849149" lon="9.4833455"><ele>174.0</ele><time>2026-04-25T12:12:04.705Z</time></trkpt><trkpt lat="45.584831" lon="9.4831854"><ele>174.0</ele><time>2026-04-25T12:12:05.706Z</time></trkpt><trkpt lat="45.584745" lon="9.4830375"><ele>174.0</ele><time>2026-04-25T12:12:06.705Z</time></trkpt><trkpt lat="45.5846587" lon="9.4829028"><ele>174.0</ele><time>2026-04-25T12:12:07.706Z</time></trkpt><trkpt lat="45.5845566" lon="9.4827542"><ele>173.25</ele><time>2026-04-25T12:12:08.705Z</time></trkpt><trkpt lat="45.5844606" lon="9.4826211"><ele>172.5</ele><time>2026-04-25T12:12:09.706Z</time></trkpt><trkpt lat="45.5843672" lon="9.4824975"><ele>171.75</ele><time>2026-04-25T12:12:10.705Z</time></trkpt><trkpt lat="45.5842779" lon="9.4823836"><ele>171.0</ele><time>2026-04-25T12:12:11.705Z</time></trkpt><trkpt lat="45.5841987" lon="9.4822853"><ele>171.0</ele><time>2026-04-25T12:12:12.705Z</time></trkpt><trkpt lat="45.5841134" lon="9.4821816"><ele>171.0</ele><time>2026-04-25T12:12:13.705Z</time></trkpt><trkpt lat="45.584038" lon="9.482086"><ele>171.0</ele><time>2026-04-25T12:12:14.705Z</time></trkpt><trkpt lat="45.5839722" lon="9.4819906"><ele>171.0</ele><time>2026-04-25T12:12:15.705Z</time></trkpt><trkpt lat="45.5839042" lon="9.4818679"><ele>171.0</ele><time>2026-04-25T12:12:16.705Z</time></trkpt><trkpt lat="45.5838403" lon="9.4817625"><ele>171.0</ele><time>2026-04-25T12:12:17.705Z</time></trkpt><trkpt lat="45.5837513" lon="9.4816673"><ele>171.0</ele><time>2026-04-25T12:12:18.705Z</time></trkpt><trkpt lat="45.5836543" lon="9.4816072"><ele>171.0</ele><time>2026-04-25T12:12:19.706Z</time></trkpt><trkpt lat="45.5835584" lon="9.4815564"><ele>171.0</ele><time>2026-04-25T12:12:20.705Z</time></trkpt><trkpt lat="45.583452" lon="9.4814814"><ele>171.0</ele><time>2026-04-25T12:12:21.705Z</time></trkpt><trkpt lat="45.5833542" lon="9.4813981"><ele>170.5</ele><time>2026-04-25T12:12:22.705Z</time></trkpt><trkpt lat="45.5832614" lon="9.4813124"><ele>170.0</ele><time>2026-04-25T12:12:23.706Z</time></trkpt><trkpt lat="45.5831542" lon="9.4812122"><ele>169.5</ele><time>2026-04-25T12:12:24.706Z</time></trkpt><trkpt lat="45.5830514" lon="9.4811161"><ele>169.0</ele><time>2026-04-25T12:12:25.705Z</time></trkpt><trkpt lat="45.5829461" lon="9.4810186"><ele>168.75</ele><time>2026-04-25T12:12:26.705Z</time></trkpt><trkpt lat="45.582842" lon="9.4809214"><ele>168.5</ele><time>2026-04-25T12:12:27.705Z</time></trkpt><trkpt lat="45.5827447" lon="9.4808294"><ele>168.25</ele><time>2026-04-25T12:12:28.705Z</time></trkpt><trkpt lat="45.5826341" lon="9.4807259"><ele>168.0</ele><time>2026-04-25T12:12:29.705Z</time></trkpt><trkpt lat="45.5825289" lon="9.4806285"><ele>168.0</ele><time>2026-04-25T12:12:30.706Z</time></trkpt><trkpt lat="45.5824295" lon="9.4805396"><ele>168.0</ele><time>2026-04-25T12:12:31.706Z</time></trkpt><trkpt lat="45.5823141" lon="9.4804413"><ele>168.0</ele><time>2026-04-25T12:12:32.705Z</time></trkpt><trkpt lat="45.5822114" lon="9.4803583"><ele>168.0</ele><time>2026-04-25T12:12:33.705Z</time></trkpt><trkpt lat="45.5820939" lon="9.4802675"><ele>167.60000000000002</ele><time>2026-04-25T12:12:34.706Z</time></trkpt><trkpt lat="45.5819834" lon="9.4801837"><ele>167.20000000000002</ele><time>2026-04-25T12:12:35.706Z</time></trkpt><trkpt lat="45.5818822" lon="9.4801075"><ele>166.8</ele><time>2026-04-25T12:12:36.705Z</time></trkpt><trkpt lat="45.5817802" lon="9.4800246"><ele>166.4</ele><time>2026-04-25T12:12:37.705Z</time></trkpt><trkpt lat="45.5817196" lon="9.4799552"><ele>166.0</ele><time>2026-04-25T12:12:38.705Z</time></trkpt><trkpt lat="45.5816694" lon="9.4798197"><ele>166.0</ele><time>2026-04-25T12:12:40.705Z</time></trkpt><trkpt lat="45.5816401" lon="9.4796849"><ele>166.0</ele><time>2026-04-25T12:12:42.706Z</time></trkpt><trkpt lat="45.5815846" lon="9.4795819"><ele>166.0</ele><time>2026-04-25T12:12:44.705Z</time></trkpt><trkpt lat="45.5815055" lon="9.4795222"><ele>166.0</ele><time>2026-04-25T12:12:46.706Z</time></trkpt><trkpt lat="45.5814405" lon="9.4795114"><ele>166.0</ele><time>2026-04-25T12:12:48.706Z</time></trkpt><trkpt lat="45.5813741" lon="9.479569"><ele>166.0</ele><time>2026-04-25T12:12:52.705Z</time></trkpt><trkpt lat="45.581311" lon="9.4796127"><ele>166.4</ele><time>2026-04-25T12:13:03.705Z</time></trkpt><trkpt lat="45.5812313" lon="9.4795963"><ele>166.8</ele><time>2026-04-25T12:13:15.706Z</time></trkpt><trkpt lat="45.5811059" lon="9.4795332"><ele>167.20000000000002</ele><time>2026-04-25T12:13:17.706Z</time></trkpt><trkpt lat="45.5810243" lon="9.4794753"><ele>167.60000000000002</ele><time>2026-04-25T12:13:18.706Z</time></trkpt><trkpt lat="45.5809286" lon="9.4794042"><ele>168.0</ele><time>2026-04-25T12:13:19.706Z</time></trkpt><trkpt lat="45.5808234" lon="9.479327"><ele>167.0</ele><time>2026-04-25T12:13:20.706Z</time></trkpt><trkpt lat="45.5807216" lon="9.4792523"><ele>166.0</ele><time>2026-04-25T12:13:21.705Z</time></trkpt><trkpt lat="45.5806065" lon="9.4791673"><ele>165.0</ele><time>2026-04-25T12:13:22.706Z</time></trkpt><trkpt lat="45.5804992" lon="9.479086"><ele>164.0</ele><time>2026-04-25T12:13:23.705Z</time></trkpt><trkpt lat="45.5803944" lon="9.4790045"><ele>164.0</ele><time>2026-04-25T12:13:24.705Z</time></trkpt><trkpt lat="45.5802906" lon="9.4789237"><ele>164.0</ele><time>2026-04-25T12:13:25.705Z</time></trkpt><trkpt lat="45.5801859" lon="9.478844"><ele>164.0</ele><time>2026-04-25T12:13:26.706Z</time></trkpt><trkpt lat="45.5800802" lon="9.4787655"><ele>164.0</ele><time>2026-04-25T12:13:27.706Z</time></trkpt><trkpt lat="45.579975" lon="9.4786887"><ele>163.6</ele><time>2026-04-25T12:13:28.706Z</time></trkpt><trkpt lat="45.579872" lon="9.4786108"><ele>163.2</ele><time>2026-04-25T12:13:29.705Z</time></trkpt><trkpt lat="45.5797728" lon="9.4785298"><ele>162.79999999999998</ele><time>2026-04-25T12:13:30.705Z</time></trkpt><trkpt lat="45.5796811" lon="9.4784456"><ele>162.39999999999998</ele><time>2026-04-25T12:13:31.706Z</time></trkpt><trkpt lat="45.5795977" lon="9.4783548"><ele>162.0</ele><time>2026-04-25T12:13:32.705Z</time></trkpt><trkpt lat="45.5795253" lon="9.478248"><ele>161.8</ele><time>2026-04-25T12:13:33.706Z</time></trkpt><trkpt lat="45.5794655" lon="9.4781283"><ele>161.6</ele><time>2026-04-25T12:13:34.705Z</time></trkpt><trkpt lat="45.5793947" lon="9.4780135"><ele>161.4</ele><time>2026-04-25T12:13:35.706Z</time></trkpt><trkpt lat="45.5792952" lon="9.4779326"><ele>161.20000000000002</ele><time>2026-04-25T12:13:36.706Z</time></trkpt><trkpt lat="45.5791834" lon="9.4779092"><ele>161.0</ele><time>2026-04-25T12:13:37.705Z</time></trkpt><trkpt lat="45.5790454" lon="9.4778973"><ele>161.0</ele><time>2026-04-25T12:13:38.705Z</time></trkpt><trkpt lat="45.5789117" lon="9.4778565"><ele>161.0</ele><time>2026-04-25T12:13:39.706Z</time></trkpt><trkpt lat="45.5787835" lon="9.4777886"><ele>161.0</ele><time>2026-04-25T12:13:40.705Z</time></trkpt><trkpt lat="45.5786595" lon="9.4776913"><ele>161.0</ele><time>2026-04-25T12:13:41.705Z</time></trkpt><trkpt lat="45.5785407" lon="9.4775784"><ele>160.75</ele><time>2026-04-25T12:13:42.706Z</time></trkpt><trkpt lat="45.5784255" lon="9.4774498"><ele>160.5</ele><time>2026-04-25T12:13:43.705Z</time></trkpt><trkpt lat="45.5783185" lon="9.4773082"><ele>160.25</ele><time>2026-04-25T12:13:44.706Z</time></trkpt><trkpt lat="45.5782198" lon="9.4771522"><ele>160.0</ele><time>2026-04-25T12:13:45.705Z</time></trkpt><trkpt lat="45.5781285" lon="9.476985"><ele>160.25</ele><time>2026-04-25T12:13:46.706Z</time></trkpt><trkpt lat="45.578042" lon="9.4768103"><ele>160.5</ele><time>2026-04-25T12:13:47.705Z</time></trkpt><trkpt lat="45.5779638" lon="9.4766441"><ele>160.75</ele><time>2026-04-25T12:13:48.706Z</time></trkpt><trkpt lat="45.5778764" lon="9.4764561"><ele>161.0</ele><time>2026-04-25T12:13:49.706Z</time></trkpt><trkpt lat="45.5777912" lon="9.4762757"><ele>161.33333333333331</ele><time>2026-04-25T12:13:50.705Z</time></trkpt><trkpt lat="45.5777006" lon="9.4760905"><ele>161.66666666666666</ele><time>2026-04-25T12:13:51.705Z</time></trkpt><trkpt lat="45.5776023" lon="9.475898"><ele>162.0</ele><time>2026-04-25T12:13:52.706Z</time></trkpt><trkpt lat="45.5775" lon="9.4757127"><ele>162.0</ele><time>2026-04-25T12:13:53.705Z</time></trkpt><trkpt lat="45.5773708" lon="9.4755006"><ele>162.0</ele><time>2026-04-25T12:13:54.706Z</time></trkpt><trkpt lat="45.5772349" lon="9.4753034"><ele>162.0</ele><time>2026-04-25T12:13:55.706Z</time></trkpt><trkpt lat="45.5770998" lon="9.4751234"><ele>162.0</ele><time>2026-04-25T12:13:56.705Z</time></trkpt><trkpt lat="45.5769431" lon="9.4749322"><ele>162.0</ele><time>2026-04-25T12:13:57.705Z</time></trkpt><trkpt lat="45.5767937" lon="9.4747612"><ele>162.0</ele><time>2026-04-25T12:13:58.705Z</time></trkpt><trkpt lat="45.576646" lon="9.4745932"><ele>162.0</ele><time>2026-04-25T12:13:59.706Z</time></trkpt><trkpt lat="45.5765034" lon="9.4744308"><ele>162.0</ele><time>2026-04-25T12:14:00.706Z</time></trkpt><trkpt lat="45.5763603" lon="9.4742686"><ele>162.0</ele><time>2026-04-25T12:14:01.705Z</time></trkpt><trkpt lat="45.5762199" lon="9.4741101"><ele>161.0</ele><time>2026-04-25T12:14:02.706Z</time></trkpt><trkpt lat="45.5760811" lon="9.4739533"><ele>160.0</ele><time>2026-04-25T12:14:03.706Z</time></trkpt><trkpt lat="45.5759529" lon="9.4738076"><ele>159.0</ele><time>2026-04-25T12:14:04.706Z</time></trkpt><trkpt lat="45.575809" lon="9.4736427"><ele>159.0</ele><time>2026-04-25T12:14:05.706Z</time></trkpt><trkpt lat="45.5756759" lon="9.4734901"><ele>159.0</ele><time>2026-04-25T12:14:06.705Z</time></trkpt><trkpt lat="45.5755423" lon="9.4733378"><ele>159.0</ele><time>2026-04-25T12:14:07.705Z</time></trkpt><trkpt lat="45.5754101" lon="9.4731874"><ele>158.33333333333334</ele><time>2026-04-25T12:14:08.706Z</time></trkpt><trkpt lat="45.5752879" lon="9.4730491"><ele>157.66666666666669</ele><time>2026-04-25T12:14:09.705Z</time></trkpt><trkpt lat="45.5751492" lon="9.4728935"><ele>157.0</ele><time>2026-04-25T12:14:10.706Z</time></trkpt><trkpt lat="45.5750208" lon="9.4727512"><ele>158.33333333333334</ele><time>2026-04-25T12:14:11.706Z</time></trkpt><trkpt lat="45.5749002" lon="9.47262"><ele>159.66666666666666</ele><time>2026-04-25T12:14:12.706Z</time></trkpt><trkpt lat="45.5747629" lon="9.4724743"><ele>161.0</ele><time>2026-04-25T12:14:13.706Z</time></trkpt><trkpt lat="45.5746345" lon="9.4723472"><ele>160.66666666666666</ele><time>2026-04-25T12:14:14.705Z</time></trkpt><trkpt lat="45.5745013" lon="9.4722286"><ele>160.33333333333334</ele><time>2026-04-25T12:14:15.706Z</time></trkpt><trkpt lat="45.5743642" lon="9.4721218"><ele>160.0</ele><time>2026-04-25T12:14:16.706Z</time></trkpt><trkpt lat="45.5742206" lon="9.4720264"><ele>160.0</ele><time>2026-04-25T12:14:17.706Z</time></trkpt><trkpt lat="45.5740744" lon="9.4719413"><ele>160.0</ele><time>2026-04-25T12:14:18.706Z</time></trkpt><trkpt lat="45.5739254" lon="9.4718623"><ele>160.0</ele><time>2026-04-25T12:14:19.706Z</time></trkpt><trkpt lat="45.5737848" lon="9.4717919"><ele>158.66666666666669</ele><time>2026-04-25T12:14:20.705Z</time></trkpt><trkpt lat="45.5736226" lon="9.471713"><ele>157.33333333333334</ele><time>2026-04-25T12:14:21.705Z</time></trkpt><trkpt lat="45.5734667" lon="9.4716382"><ele>156.0</ele><time>2026-04-25T12:14:22.706Z</time></trkpt><trkpt lat="45.5733048" lon="9.4715613"><ele>156.0</ele><time>2026-04-25T12:14:23.706Z</time></trkpt><trkpt lat="45.5731368" lon="9.4714836"><ele>156.0</ele><time>2026-04-25T12:14:24.705Z</time></trkpt><trkpt lat="45.5729781" lon="9.4714119"><ele>156.0</ele><time>2026-04-25T12:14:25.705Z</time></trkpt><trkpt lat="45.5728026" lon="9.4713357"><ele>155.66666666666666</ele><time>2026-04-25T12:14:26.706Z</time></trkpt><trkpt lat="45.5726435" lon="9.4712651"><ele>155.33333333333331</ele><time>2026-04-25T12:14:27.705Z</time></trkpt><trkpt lat="45.5724967" lon="9.4711982"><ele>155.0</ele><time>2026-04-25T12:14:28.706Z</time></trkpt><trkpt lat="45.5723317" lon="9.4711196"><ele>155.0</ele><time>2026-04-25T12:14:29.705Z</time></trkpt><trkpt lat="45.5721776" lon="9.4710426"><ele>155.0</ele><time>2026-04-25T12:14:30.706Z</time></trkpt><trkpt lat="45.5720236" lon="9.4709641"><ele>155.0</ele><time>2026-04-25T12:14:31.706Z</time></trkpt><trkpt lat="45.5718709" lon="9.4708866"><ele>155.0</ele><time>2026-04-25T12:14:32.705Z</time></trkpt><trkpt lat="45.57172" lon="9.4708102"><ele>155.0</ele><time>2026-04-25T12:14:33.706Z</time></trkpt><trkpt lat="45.5715688" lon="9.4707321"><ele>155.0</ele><time>2026-04-25T12:14:34.706Z</time></trkpt><trkpt lat="45.5714203" lon="9.470654"><ele>155.0</ele><time>2026-04-25T12:14:35.705Z</time></trkpt><trkpt lat="45.5712831" lon="9.4705813"><ele>155.0</ele><time>2026-04-25T12:14:36.705Z</time></trkpt><trkpt lat="45.5711288" lon="9.4705019"><ele>155.0</ele><time>2026-04-25T12:14:37.705Z</time></trkpt><trkpt lat="45.5709845" lon="9.4704295"><ele>155.66666666666666</ele><time>2026-04-25T12:14:38.705Z</time></trkpt><trkpt lat="45.5708349" lon="9.4703542"><ele>156.33333333333334</ele><time>2026-04-25T12:14:39.706Z</time></trkpt><trkpt lat="45.570689" lon="9.470283"><ele>157.0</ele><time>2026-04-25T12:14:40.706Z</time></trkpt><trkpt lat="45.5705494" lon="9.4702167"><ele>157.0</ele><time>2026-04-25T12:14:41.705Z</time></trkpt><trkpt lat="45.5703908" lon="9.4701456"><ele>157.0</ele><time>2026-04-25T12:14:42.705Z</time></trkpt><trkpt lat="45.5702411" lon="9.4700819"><ele>157.0</ele><time>2026-04-25T12:14:43.705Z</time></trkpt><trkpt lat="45.5701008" lon="9.4700232"><ele>155.33333333333334</ele><time>2026-04-25T12:14:44.706Z</time></trkpt><trkpt lat="45.5699413" lon="9.4699543"><ele>153.66666666666666</ele><time>2026-04-25T12:14:45.706Z</time></trkpt><trkpt lat="45.5697924" lon="9.4698894"><ele>152.0</ele><time>2026-04-25T12:14:46.706Z</time></trkpt><trkpt lat="45.5696429" lon="9.4698217"><ele>151.66666666666666</ele><time>2026-04-25T12:14:47.706Z</time></trkpt><trkpt lat="45.569494" lon="9.4697552"><ele>151.33333333333334</ele><time>2026-04-25T12:14:48.706Z</time></trkpt><trkpt lat="45.5693452" lon="9.4696899"><ele>151.0</ele><time>2026-04-25T12:14:49.705Z</time></trkpt><trkpt lat="45.5691953" lon="9.4696303"><ele>151.33333333333334</ele><time>2026-04-25T12:14:50.706Z</time></trkpt><trkpt lat="45.569044" lon="9.4695685"><ele>151.66666666666666</ele><time>2026-04-25T12:14:51.706Z</time></trkpt><trkpt lat="45.568905" lon="9.4695082"><ele>152.0</ele><time>2026-04-25T12:14:52.706Z</time></trkpt><trkpt lat="45.5687475" lon="9.4694356"><ele>151.66666666666666</ele><time>2026-04-25T12:14:53.705Z</time></trkpt><trkpt lat="45.5685988" lon="9.4693643"><ele>151.33333333333334</ele><time>2026-04-25T12:14:54.706Z</time></trkpt><trkpt lat="45.5684503" lon="9.4692938"><ele>151.0</ele><time>2026-04-25T12:14:55.705Z</time></trkpt><trkpt lat="45.568302" lon="9.4692239"><ele>151.0</ele><time>2026-04-25T12:14:56.705Z</time></trkpt><trkpt lat="45.5681627" lon="9.4691574"><ele>151.0</ele><time>2026-04-25T12:14:57.706Z</time></trkpt><trkpt lat="45.568005" lon="9.4690828"><ele>151.0</ele><time>2026-04-25T12:14:58.705Z</time></trkpt><trkpt lat="45.5678569" lon="9.4690124"><ele>150.33333333333334</ele><time>2026-04-25T12:14:59.706Z</time></trkpt><trkpt lat="45.5677177" lon="9.4689473"><ele>149.66666666666666</ele><time>2026-04-25T12:15:00.706Z</time></trkpt><trkpt lat="45.567559" lon="9.4688745"><ele>149.0</ele><time>2026-04-25T12:15:01.705Z</time></trkpt><trkpt lat="45.5674103" lon="9.4688063"><ele>149.33333333333331</ele><time>2026-04-25T12:15:02.705Z</time></trkpt><trkpt lat="45.5672616" lon="9.4687361"><ele>149.66666666666666</ele><time>2026-04-25T12:15:03.705Z</time></trkpt><trkpt lat="45.5671141" lon="9.4686629"><ele>150.0</ele><time>2026-04-25T12:15:04.706Z</time></trkpt><trkpt lat="45.5669682" lon="9.468582"><ele>150.33333333333334</ele><time>2026-04-25T12:15:05.706Z</time></trkpt><trkpt lat="45.5668271" lon="9.4684891"><ele>150.66666666666669</ele><time>2026-04-25T12:15:06.705Z</time></trkpt><trkpt lat="45.5666893" lon="9.468383"><ele>151.0</ele><time>2026-04-25T12:15:07.705Z</time></trkpt><trkpt lat="45.5665638" lon="9.468275"><ele>151.0</ele><time>2026-04-25T12:15:08.705Z</time></trkpt><trkpt lat="45.5664252" lon="9.4681443"><ele>151.0</ele><time>2026-04-25T12:15:09.705Z</time></trkpt><trkpt lat="45.5663026" lon="9.4680165"><ele>151.0</ele><time>2026-04-25T12:15:10.705Z</time></trkpt><trkpt lat="45.5661944" lon="9.467889"><ele>151.0</ele><time>2026-04-25T12:15:11.705Z</time></trkpt><trkpt lat="45.5661002" lon="9.4677602"><ele>151.0</ele><time>2026-04-25T12:15:12.706Z</time></trkpt><trkpt lat="45.5660253" lon="9.4676347"><ele>151.0</ele><time>2026-04-25T12:15:13.706Z</time></trkpt><trkpt lat="45.5659585" lon="9.4674848"><ele>151.0</ele><time>2026-04-25T12:15:14.706Z</time></trkpt><trkpt lat="45.5659034" lon="9.4673378"><ele>151.0</ele><time>2026-04-25T12:15:15.705Z</time></trkpt><trkpt lat="45.5658424" lon="9.4672141"><ele>151.0</ele><time>2026-04-25T12:15:16.706Z</time></trkpt><trkpt lat="45.5657517" lon="9.4671103"><ele>151.0</ele><time>2026-04-25T12:15:17.706Z</time></trkpt><trkpt lat="45.565648" lon="9.4670416"><ele>151.0</ele><time>2026-04-25T12:15:18.706Z</time></trkpt><trkpt lat="45.5655319" lon="9.4669656"><ele>151.33333333333334</ele><time>2026-04-25T12:15:19.706Z</time></trkpt><trkpt lat="45.5654145" lon="9.4668579"><ele>151.66666666666666</ele><time>2026-04-25T12:15:20.706Z</time></trkpt><trkpt lat="45.5652954" lon="9.4667164"><ele>152.0</ele><time>2026-04-25T12:15:21.706Z</time></trkpt><trkpt lat="45.5651774" lon="9.4665683"><ele>151.33333333333331</ele><time>2026-04-25T12:15:22.705Z</time></trkpt><trkpt lat="45.5650581" lon="9.4664131"><ele>150.66666666666666</ele><time>2026-04-25T12:15:23.706Z</time></trkpt><trkpt lat="45.5649486" lon="9.4662699"><ele>150.0</ele><time>2026-04-25T12:15:24.705Z</time></trkpt><trkpt lat="45.5648283" lon="9.4661117"><ele>149.66666666666666</ele><time>2026-04-25T12:15:25.706Z</time></trkpt><trkpt lat="45.5647157" lon="9.4659639"><ele>149.33333333333331</ele><time>2026-04-25T12:15:26.705Z</time></trkpt><trkpt lat="45.564601" lon="9.4658125"><ele>149.0</ele><time>2026-04-25T12:15:27.705Z</time></trkpt><trkpt lat="45.5644847" lon="9.4656608"><ele>148.66666666666666</ele><time>2026-04-25T12:15:28.706Z</time></trkpt><trkpt lat="45.564376" lon="9.4655196"><ele>148.33333333333334</ele><time>2026-04-25T12:15:29.705Z</time></trkpt><trkpt lat="45.5642541" lon="9.4653614"><ele>148.0</ele><time>2026-04-25T12:15:30.706Z</time></trkpt><trkpt lat="45.5641409" lon="9.4652122"><ele>147.66666666666669</ele><time>2026-04-25T12:15:31.705Z</time></trkpt><trkpt lat="45.5640345" lon="9.4650681"><ele>147.33333333333334</ele><time>2026-04-25T12:15:32.706Z</time></trkpt><trkpt lat="45.5639145" lon="9.464908"><ele>147.0</ele><time>2026-04-25T12:15:33.706Z</time></trkpt><trkpt lat="45.5638013" lon="9.4647554"><ele>146.66666666666666</ele><time>2026-04-25T12:15:34.706Z</time></trkpt><trkpt lat="45.5636884" lon="9.4646042"><ele>146.33333333333331</ele><time>2026-04-25T12:15:35.705Z</time></trkpt><trkpt lat="45.5635752" lon="9.4644495"><ele>146.0</ele><time>2026-04-25T12:15:36.705Z</time></trkpt><trkpt lat="45.5634608" lon="9.4642924"><ele>146.0</ele><time>2026-04-25T12:15:37.705Z</time></trkpt><trkpt lat="45.5633418" lon="9.4641302"><ele>146.0</ele><time>2026-04-25T12:15:38.706Z</time></trkpt><trkpt lat="45.5632197" lon="9.4639656"><ele>146.0</ele><time>2026-04-25T12:15:39.706Z</time></trkpt><trkpt lat="45.5631037" lon="9.4638104"><ele>146.0</ele><time>2026-04-25T12:15:40.705Z</time></trkpt><trkpt lat="45.562971" lon="9.463634"><ele>146.0</ele><time>2026-04-25T12:15:41.706Z</time></trkpt><trkpt lat="45.5628467" lon="9.4634689"><ele>146.0</ele><time>2026-04-25T12:15:42.705Z</time></trkpt><trkpt lat="45.5627234" lon="9.4633041"><ele>146.0</ele><time>2026-04-25T12:15:43.706Z</time></trkpt><trkpt lat="45.5626013" lon="9.463137"><ele>146.0</ele><time>2026-04-25T12:15:44.705Z</time></trkpt><trkpt lat="45.5624865" lon="9.4629784"><ele>146.0</ele><time>2026-04-25T12:15:45.705Z</time></trkpt><trkpt lat="45.5623554" lon="9.4628003"><ele>145.66666666666666</ele><time>2026-04-25T12:15:46.705Z</time></trkpt><trkpt lat="45.5622326" lon="9.4626363"><ele>145.33333333333334</ele><time>2026-04-25T12:15:47.705Z</time></trkpt><trkpt lat="45.5621183" lon="9.4624857"><ele>145.0</ele><time>2026-04-25T12:15:48.705Z</time></trkpt><trkpt lat="45.5619901" lon="9.4623164"><ele>144.66666666666669</ele><time>2026-04-25T12:15:49.706Z</time></trkpt><trkpt lat="45.5618714" lon="9.4621577"><ele>144.33333333333334</ele><time>2026-04-25T12:15:50.706Z</time></trkpt><trkpt lat="45.5617538" lon="9.461998"><ele>144.0</ele><time>2026-04-25T12:15:51.705Z</time></trkpt><trkpt lat="45.5616375" lon="9.4618397"><ele>144.0</ele><time>2026-04-25T12:15:52.705Z</time></trkpt><trkpt lat="45.5615222" lon="9.4616817"><ele>144.0</ele><time>2026-04-25T12:15:53.705Z</time></trkpt><trkpt lat="45.5614076" lon="9.4615261"><ele>144.0</ele><time>2026-04-25T12:15:54.705Z</time></trkpt><trkpt lat="45.5612925" lon="9.46137"><ele>144.0</ele><time>2026-04-25T12:15:55.706Z</time></trkpt><trkpt lat="45.5611861" lon="9.4612251"><ele>144.0</ele><time>2026-04-25T12:15:56.706Z</time></trkpt><trkpt lat="45.5610702" lon="9.4610648"><ele>144.0</ele><time>2026-04-25T12:15:57.705Z</time></trkpt><trkpt lat="45.5609684" lon="9.4609211"><ele>144.0</ele><time>2026-04-25T12:15:58.705Z</time></trkpt><trkpt lat="45.5608759" lon="9.4607822"><ele>144.0</ele><time>2026-04-25T12:15:59.705Z</time></trkpt><trkpt lat="45.5608008" lon="9.4606463"><ele>144.0</ele><time>2026-04-25T12:16:00.706Z</time></trkpt><trkpt lat="45.5607466" lon="9.4605116"><ele>144.0</ele><time>2026-04-25T12:16:01.706Z</time></trkpt><trkpt lat="45.560701" lon="9.4603532"><ele>144.0</ele><time>2026-04-25T12:16:02.706Z</time></trkpt><trkpt lat="45.5606552" lon="9.4602093"><ele>144.0</ele><time>2026-04-25T12:16:03.706Z</time></trkpt><trkpt lat="45.5605944" lon="9.4600946"><ele>144.0</ele><time>2026-04-25T12:16:04.705Z</time></trkpt><trkpt lat="45.5604998" lon="9.4600096"><ele>144.0</ele><time>2026-04-25T12:16:05.706Z</time></trkpt><trkpt lat="45.5603946" lon="9.4599795"><ele>144.0</ele><time>2026-04-25T12:16:06.706Z</time></trkpt><trkpt lat="45.5602802" lon="9.4599686"><ele>144.0</ele><time>2026-04-25T12:16:07.705Z</time></trkpt><trkpt lat="45.5601592" lon="9.4599421"><ele>144.0</ele><time>2026-04-25T12:16:08.706Z</time></trkpt><trkpt lat="45.5600339" lon="9.4598969"><ele>144.0</ele><time>2026-04-25T12:16:09.706Z</time></trkpt><trkpt lat="45.5599083" lon="9.4598354"><ele>144.0</ele><time>2026-04-25T12:16:10.706Z</time></trkpt><trkpt lat="45.5597717" lon="9.4597651"><ele>144.0</ele><time>2026-04-25T12:16:11.706Z</time></trkpt><trkpt lat="45.5596256" lon="9.4596931"><ele>144.0</ele><time>2026-04-25T12:16:12.706Z</time></trkpt><trkpt lat="45.5594391" lon="9.4596069"><ele>144.0</ele><time>2026-04-25T12:16:13.705Z</time></trkpt><trkpt lat="45.5592501" lon="9.4595224"><ele>144.0</ele><time>2026-04-25T12:16:14.706Z</time></trkpt><trkpt lat="45.559053" lon="9.459438"><ele>144.0</ele><time>2026-04-25T12:16:15.706Z</time></trkpt><trkpt lat="45.55885" lon="9.4593578"><ele>144.0</ele><time>2026-04-25T12:16:16.705Z</time></trkpt><trkpt lat="45.5586565" lon="9.4592897"><ele>144.0</ele><time>2026-04-25T12:16:17.705Z</time></trkpt><trkpt lat="45.5584334" lon="9.4592195"><ele>144.0</ele><time>2026-04-25T12:16:18.705Z</time></trkpt><trkpt lat="45.5582241" lon="9.4591621"><ele>144.0</ele><time>2026-04-25T12:16:19.705Z</time></trkpt><trkpt lat="45.5580313" lon="9.4591132"><ele>144.0</ele><time>2026-04-25T12:16:20.705Z</time></trkpt><trkpt lat="45.5578155" lon="9.4590591"><ele>144.0</ele><time>2026-04-25T12:16:21.706Z</time></trkpt><trkpt lat="45.5576162" lon="9.4590069"><ele>144.0</ele><time>2026-04-25T12:16:22.705Z</time></trkpt><trkpt lat="45.5574212" lon="9.4589535"><ele>144.0</ele><time>2026-04-25T12:16:23.706Z</time></trkpt><trkpt lat="45.557229" lon="9.4588997"><ele>144.0</ele><time>2026-04-25T12:16:24.705Z</time></trkpt><trkpt lat="45.5570391" lon="9.4588448"><ele>144.0</ele><time>2026-04-25T12:16:25.706Z</time></trkpt><trkpt lat="45.5568527" lon="9.4587893"><ele>144.0</ele><time>2026-04-25T12:16:26.705Z</time></trkpt><trkpt lat="45.556668" lon="9.4587317"><ele>144.0</ele><time>2026-04-25T12:16:27.706Z</time></trkpt><trkpt lat="45.5564983" lon="9.4586764"><ele>144.0</ele><time>2026-04-25T12:16:28.706Z</time></trkpt><trkpt lat="45.5563067" lon="9.4586109"><ele>144.0</ele><time>2026-04-25T12:16:29.706Z</time></trkpt><trkpt lat="45.5561274" lon="9.4585485"><ele>144.0</ele><time>2026-04-25T12:16:30.705Z</time></trkpt><trkpt lat="45.5559508" lon="9.4584872"><ele>144.0</ele><time>2026-04-25T12:16:31.706Z</time></trkpt><trkpt lat="45.5557744" lon="9.4584284"><ele>144.0</ele><time>2026-04-25T12:16:32.705Z</time></trkpt><trkpt lat="45.5556106" lon="9.4583739"><ele>144.0</ele><time>2026-04-25T12:16:33.705Z</time></trkpt><trkpt lat="45.5554254" lon="9.4583121"><ele>144.0</ele><time>2026-04-25T12:16:34.705Z</time></trkpt><trkpt lat="45.5552518" lon="9.458255"><ele>143.66666666666666</ele><time>2026-04-25T12:16:35.706Z</time></trkpt><trkpt lat="45.5550905" lon="9.4582015"><ele>143.33333333333331</ele><time>2026-04-25T12:16:36.706Z</time></trkpt><trkpt lat="45.5549067" lon="9.4581402"><ele>143.0</ele><time>2026-04-25T12:16:37.706Z</time></trkpt><trkpt lat="45.5547328" lon="9.4580813"><ele>143.0</ele><time>2026-04-25T12:16:38.705Z</time></trkpt><trkpt lat="45.5545589" lon="9.4580209"><ele>143.0</ele><time>2026-04-25T12:16:39.705Z</time></trkpt><trkpt lat="45.554384" lon="9.4579593"><ele>143.0</ele><time>2026-04-25T12:16:40.706Z</time></trkpt><trkpt lat="45.5542088" lon="9.4578954"><ele>142.66666666666666</ele><time>2026-04-25T12:16:41.706Z</time></trkpt><trkpt lat="45.5540324" lon="9.457828"><ele>142.33333333333334</ele><time>2026-04-25T12:16:42.705Z</time></trkpt><trkpt lat="45.5538539" lon="9.4577553"><ele>142.0</ele><time>2026-04-25T12:16:43.705Z</time></trkpt><trkpt lat="45.5536859" lon="9.4576837"><ele>141.66666666666669</ele><time>2026-04-25T12:16:44.706Z</time></trkpt><trkpt lat="45.5534944" lon="9.4575988"><ele>141.33333333333334</ele><time>2026-04-25T12:16:45.705Z</time></trkpt><trkpt lat="45.5533135" lon="9.4575155"><ele>141.0</ele><time>2026-04-25T12:16:46.706Z</time></trkpt><trkpt lat="45.5531318" lon="9.4574292"><ele>141.0</ele><time>2026-04-25T12:16:47.706Z</time></trkpt><trkpt lat="45.5529506" lon="9.4573419"><ele>141.0</ele><time>2026-04-25T12:16:48.705Z</time></trkpt><trkpt lat="45.5527813" lon="9.4572593"><ele>141.0</ele><time>2026-04-25T12:16:49.705Z</time></trkpt><trkpt lat="45.5525899" lon="9.4571661"><ele>140.0</ele><time>2026-04-25T12:16:50.705Z</time></trkpt><trkpt lat="45.5524106" lon="9.4570793"><ele>139.0</ele><time>2026-04-25T12:16:51.705Z</time></trkpt><trkpt lat="45.552243" lon="9.4569985"><ele>138.0</ele><time>2026-04-25T12:16:52.706Z</time></trkpt><trkpt lat="45.5520517" lon="9.4569058"><ele>137.66666666666666</ele><time>2026-04-25T12:16:53.706Z</time></trkpt><trkpt lat="45.5518723" lon="9.4568188"><ele>137.33333333333331</ele><time>2026-04-25T12:16:54.706Z</time></trkpt><trkpt lat="45.5516928" lon="9.4567325"><ele>137.0</ele><time>2026-04-25T12:16:55.706Z</time></trkpt><trkpt lat="45.5515135" lon="9.4566472"><ele>137.0</ele><time>2026-04-25T12:16:56.706Z</time></trkpt><trkpt lat="45.5513344" lon="9.4565624"><ele>137.0</ele><time>2026-04-25T12:16:57.706Z</time></trkpt><trkpt lat="45.5511557" lon="9.4564766"><ele>137.0</ele><time>2026-04-25T12:16:58.706Z</time></trkpt><trkpt lat="45.5509778" lon="9.4563905"><ele>137.0</ele><time>2026-04-25T12:16:59.705Z</time></trkpt><trkpt lat="45.550814" lon="9.4563121"><ele>137.0</ele><time>2026-04-25T12:17:00.705Z</time></trkpt><trkpt lat="45.5506313" lon="9.4562241"><ele>137.0</ele><time>2026-04-25T12:17:01.705Z</time></trkpt><trkpt lat="45.5504618" lon="9.4561413"><ele>137.33333333333331</ele><time>2026-04-25T12:17:02.705Z</time></trkpt><trkpt lat="45.5502925" lon="9.4560586"><ele>137.66666666666666</ele><time>2026-04-25T12:17:03.705Z</time></trkpt><trkpt lat="45.5501241" lon="9.4559765"><ele>138.0</ele><time>2026-04-25T12:17:04.705Z</time></trkpt><trkpt lat="45.5499666" lon="9.4559003"><ele>138.0</ele><time>2026-04-25T12:17:05.706Z</time></trkpt><trkpt lat="45.5497899" lon="9.4558134"><ele>138.0</ele><time>2026-04-25T12:17:06.706Z</time></trkpt><trkpt lat="45.5496275" lon="9.4557303"><ele>138.0</ele><time>2026-04-25T12:17:07.706Z</time></trkpt><trkpt lat="45.5494796" lon="9.4556455"><ele>137.66666666666666</ele><time>2026-04-25T12:17:08.706Z</time></trkpt><trkpt lat="45.5493196" lon="9.4555327"><ele>137.33333333333331</ele><time>2026-04-25T12:17:09.706Z</time></trkpt><trkpt lat="45.5491795" lon="9.4554053"><ele>137.0</ele><time>2026-04-25T12:17:10.706Z</time></trkpt><trkpt lat="45.5490506" lon="9.4552619"><ele>137.0</ele><time>2026-04-25T12:17:11.705Z</time></trkpt><trkpt lat="45.548933" lon="9.4551047"><ele>137.0</ele><time>2026-04-25T12:17:12.705Z</time></trkpt><trkpt lat="45.5488267" lon="9.4549367"><ele>137.0</ele><time>2026-04-25T12:17:13.705Z</time></trkpt><trkpt lat="45.5487325" lon="9.4547593"><ele>136.33333333333331</ele><time>2026-04-25T12:17:14.706Z</time></trkpt><trkpt lat="45.5486496" lon="9.4545706"><ele>135.66666666666666</ele><time>2026-04-25T12:17:15.706Z</time></trkpt><trkpt lat="45.5485823" lon="9.4543838"><ele>135.0</ele><time>2026-04-25T12:17:16.705Z</time></trkpt><trkpt lat="45.5485204" lon="9.4541654"><ele>135.0</ele><time>2026-04-25T12:17:17.705Z</time></trkpt><trkpt lat="45.5484761" lon="9.4539555"><ele>135.0</ele><time>2026-04-25T12:17:18.706Z</time></trkpt><trkpt lat="45.5484454" lon="9.4537399"><ele>135.0</ele><time>2026-04-25T12:17:19.705Z</time></trkpt><trkpt lat="45.5484251" lon="9.4535198"><ele>134.66666666666666</ele><time>2026-04-25T12:17:20.705Z</time></trkpt><trkpt lat="45.5484098" lon="9.4533116"><ele>134.33333333333331</ele><time>2026-04-25T12:17:21.706Z</time></trkpt><trkpt lat="45.5483935" lon="9.4530728"><ele>134.0</ele><time>2026-04-25T12:17:22.705Z</time></trkpt><trkpt lat="45.548376" lon="9.4528486"><ele>133.75</ele><time>2026-04-25T12:17:23.705Z</time></trkpt><trkpt lat="45.5483565" lon="9.4526447"><ele>133.5</ele><time>2026-04-25T12:17:24.706Z</time></trkpt><trkpt lat="45.5483288" lon="9.4524273"><ele>133.25</ele><time>2026-04-25T12:17:25.706Z</time></trkpt><trkpt lat="45.548292" lon="9.4522435"><ele>133.0</ele><time>2026-04-25T12:17:26.706Z</time></trkpt><trkpt lat="45.5482389" lon="9.4520876"><ele>133.0</ele><time>2026-04-25T12:17:27.706Z</time></trkpt><trkpt lat="45.5481671" lon="9.4519695"><ele>133.0</ele><time>2026-04-25T12:17:28.706Z</time></trkpt><trkpt lat="45.5480854" lon="9.4518954"><ele>133.0</ele><time>2026-04-25T12:17:29.705Z</time></trkpt><trkpt lat="45.5480048" lon="9.4518424"><ele>133.0</ele><time>2026-04-25T12:17:30.705Z</time></trkpt><trkpt lat="45.5479235" lon="9.4517841"><ele>133.0</ele><time>2026-04-25T12:17:31.706Z</time></trkpt><trkpt lat="45.5478429" lon="9.4517135"><ele>133.5</ele><time>2026-04-25T12:17:32.706Z</time></trkpt><trkpt lat="45.547744" lon="9.4516176"><ele>134.0</ele><time>2026-04-25T12:17:33.705Z</time></trkpt><trkpt lat="45.5476421" lon="9.4515226"><ele>134.5</ele><time>2026-04-25T12:17:34.706Z</time></trkpt><trkpt lat="45.5475308" lon="9.4514412"><ele>135.0</ele><time>2026-04-25T12:17:35.705Z</time></trkpt><trkpt lat="45.5474066" lon="9.4513892"><ele>135.0</ele><time>2026-04-25T12:17:36.706Z</time></trkpt><trkpt lat="45.5472804" lon="9.4513497"><ele>135.0</ele><time>2026-04-25T12:17:37.706Z</time></trkpt><trkpt lat="45.54714" lon="9.4512878"><ele>135.0</ele><time>2026-04-25T12:17:38.705Z</time></trkpt><trkpt lat="45.5470193" lon="9.4511978"><ele>135.0</ele><time>2026-04-25T12:17:39.706Z</time></trkpt><trkpt lat="45.546923" lon="9.4510838"><ele>134.75</ele><time>2026-04-25T12:17:40.706Z</time></trkpt><trkpt lat="45.5468335" lon="9.450928"><ele>134.5</ele><time>2026-04-25T12:17:41.706Z</time></trkpt><trkpt lat="45.546758" lon="9.450771"><ele>134.25</ele><time>2026-04-25T12:17:42.705Z</time></trkpt><trkpt lat="45.5466909" lon="9.4506206"><ele>134.0</ele><time>2026-04-25T12:17:43.706Z</time></trkpt><trkpt lat="45.5466172" lon="9.4504476"><ele>134.0</ele><time>2026-04-25T12:17:44.705Z</time></trkpt><trkpt lat="45.5465499" lon="9.4502873"><ele>134.0</ele><time>2026-04-25T12:17:45.705Z</time></trkpt><trkpt lat="45.5464833" lon="9.4501253"><ele>134.0</ele><time>2026-04-25T12:17:46.706Z</time></trkpt><trkpt lat="45.5464178" lon="9.4499621"><ele>134.0</ele><time>2026-04-25T12:17:47.705Z</time></trkpt><trkpt lat="45.546358" lon="9.4498099"><ele>134.0</ele><time>2026-04-25T12:17:48.706Z</time></trkpt><trkpt lat="45.5462913" lon="9.4496401"><ele>134.0</ele><time>2026-04-25T12:17:49.705Z</time></trkpt><trkpt lat="45.5462294" lon="9.4494833"><ele>134.0</ele><time>2026-04-25T12:17:50.705Z</time></trkpt><trkpt lat="45.546172" lon="9.4493384"><ele>134.0</ele><time>2026-04-25T12:17:51.706Z</time></trkpt><trkpt lat="45.5461064" lon="9.4491729"><ele>134.5</ele><time>2026-04-25T12:17:52.706Z</time></trkpt><trkpt lat="45.5460504" lon="9.4490247"><ele>135.0</ele><time>2026-04-25T12:17:53.706Z</time></trkpt><trkpt lat="45.54599" lon="9.4488572"><ele>135.5</ele><time>2026-04-25T12:17:54.706Z</time></trkpt><trkpt lat="45.5459386" lon="9.4487111"><ele>136.0</ele><time>2026-04-25T12:17:55.705Z</time></trkpt><trkpt lat="45.5458923" lon="9.4485861"><ele>136.2</ele><time>2026-04-25T12:17:56.705Z</time></trkpt><trkpt lat="45.5458436" lon="9.4484507"><ele>136.39999999999998</ele><time>2026-04-25T12:17:57.706Z</time></trkpt><trkpt lat="45.5457991" lon="9.4483247"><ele>136.6</ele><time>2026-04-25T12:17:58.706Z</time></trkpt><trkpt lat="45.5457551" lon="9.4482029"><ele>136.79999999999998</ele><time>2026-04-25T12:17:59.706Z</time></trkpt><trkpt lat="45.5457121" lon="9.4480838"><ele>137.0</ele><time>2026-04-25T12:18:00.706Z</time></trkpt><trkpt lat="45.5456714" lon="9.4479722"><ele>136.83333333333331</ele><time>2026-04-25T12:18:01.706Z</time></trkpt><trkpt lat="45.5456347" lon="9.4478728"><ele>136.66666666666666</ele><time>2026-04-25T12:18:02.705Z</time></trkpt><trkpt lat="45.545601" lon="9.4477823"><ele>136.5</ele><time>2026-04-25T12:18:03.705Z</time></trkpt><trkpt lat="45.5455419" lon="9.4476195"><ele>136.33333333333334</ele><time>2026-04-25T12:18:05.706Z</time></trkpt><trkpt lat="45.5455125" lon="9.4475382"><ele>136.16666666666669</ele><time>2026-04-25T12:18:06.705Z</time></trkpt><trkpt lat="45.5454835" lon="9.447457"><ele>136.0</ele><time>2026-04-25T12:18:07.705Z</time></trkpt><trkpt lat="45.5454542" lon="9.4473749"><ele>136.0</ele><time>2026-04-25T12:18:08.705Z</time></trkpt><trkpt lat="45.5453982" lon="9.4472132"><ele>136.0</ele><time>2026-04-25T12:18:10.706Z</time></trkpt><trkpt lat="45.545366" lon="9.4471235"><ele>136.0</ele><time>2026-04-25T12:18:11.706Z</time></trkpt><trkpt lat="45.5453363" lon="9.4470417"><ele>136.0</ele><time>2026-04-25T12:18:12.705Z</time></trkpt><trkpt lat="45.5453014" lon="9.4469427"><ele>136.0</ele><time>2026-04-25T12:18:13.706Z</time></trkpt><trkpt lat="45.5452672" lon="9.4468443"><ele>136.0</ele><time>2026-04-25T12:18:14.706Z</time></trkpt><trkpt lat="45.5452316" lon="9.4467444"><ele>136.16666666666669</ele><time>2026-04-25T12:18:15.706Z</time></trkpt><trkpt lat="45.545195" lon="9.4466413"><ele>136.33333333333334</ele><time>2026-04-25T12:18:16.705Z</time></trkpt><trkpt lat="45.5451569" lon="9.4465365"><ele>136.5</ele><time>2026-04-25T12:18:17.706Z</time></trkpt><trkpt lat="45.5451191" lon="9.4464321"><ele>136.66666666666666</ele><time>2026-04-25T12:18:18.706Z</time></trkpt><trkpt lat="45.5450807" lon="9.446324"><ele>136.83333333333331</ele><time>2026-04-25T12:18:19.706Z</time></trkpt><trkpt lat="45.5450438" lon="9.4462174"><ele>137.0</ele><time>2026-04-25T12:18:20.706Z</time></trkpt><trkpt lat="45.5449954" lon="9.4460826"><ele>136.75</ele><time>2026-04-25T12:18:21.706Z</time></trkpt><trkpt lat="45.5449453" lon="9.4459386"><ele>136.5</ele><time>2026-04-25T12:18:22.705Z</time></trkpt><trkpt lat="45.5448893" lon="9.4457741"><ele>136.25</ele><time>2026-04-25T12:18:23.706Z</time></trkpt><trkpt lat="45.5448316" lon="9.4456056"><ele>136.0</ele><time>2026-04-25T12:18:24.706Z</time></trkpt><trkpt lat="45.5447781" lon="9.4454509"><ele>136.0</ele><time>2026-04-25T12:18:25.705Z</time></trkpt><trkpt lat="45.5447235" lon="9.4452964"><ele>136.0</ele><time>2026-04-25T12:18:26.705Z</time></trkpt><trkpt lat="45.5446668" lon="9.4451402"><ele>136.0</ele><time>2026-04-25T12:18:27.706Z</time></trkpt><trkpt lat="45.5446213" lon="9.4450095"><ele>136.0</ele><time>2026-04-25T12:18:28.706Z</time></trkpt><trkpt lat="45.5445717" lon="9.444864"><ele>135.83333333333334</ele><time>2026-04-25T12:18:29.706Z</time></trkpt><trkpt lat="45.544528" lon="9.444732"><ele>135.66666666666669</ele><time>2026-04-25T12:18:30.705Z</time></trkpt><trkpt lat="45.5444879" lon="9.4446105"><ele>135.5</ele><time>2026-04-25T12:18:31.705Z</time></trkpt><trkpt lat="45.5444514" lon="9.4444991"><ele>135.33333333333334</ele><time>2026-04-25T12:18:32.706Z</time></trkpt><trkpt lat="45.5444205" lon="9.4443958"><ele>135.16666666666666</ele><time>2026-04-25T12:18:33.706Z</time></trkpt><trkpt lat="45.5443948" lon="9.4443037"><ele>135.0</ele><time>2026-04-25T12:18:34.706Z</time></trkpt><trkpt lat="45.5443532" lon="9.4441636"><ele>135.0</ele><time>2026-04-25T12:18:36.706Z</time></trkpt><trkpt lat="45.5443092" lon="9.4440217"><ele>135.0</ele><time>2026-04-25T12:18:38.706Z</time></trkpt><trkpt lat="45.5442693" lon="9.4438792"><ele>135.0</ele><time>2026-04-25T12:18:40.706Z</time></trkpt><trkpt lat="45.5442424" lon="9.4437616"><ele>135.0</ele><time>2026-04-25T12:18:42.706Z</time></trkpt><trkpt lat="45.5442226" lon="9.4436642"><ele>135.0</ele><time>2026-04-25T12:18:49.706Z</time></trkpt><trkpt lat="45.5441777" lon="9.4434745"><ele>134.75</ele><time>2026-04-25T12:18:51.706Z</time></trkpt><trkpt lat="45.5441352" lon="9.4433446"><ele>134.5</ele><time>2026-04-25T12:18:52.705Z</time></trkpt><trkpt lat="45.544083" lon="9.4431947"><ele>134.25</ele><time>2026-04-25T12:18:53.706Z</time></trkpt><trkpt lat="45.5440247" lon="9.4430314"><ele>134.0</ele><time>2026-04-25T12:18:54.705Z</time></trkpt><trkpt lat="45.5439599" lon="9.4428606"><ele>134.0</ele><time>2026-04-25T12:18:55.705Z</time></trkpt><trkpt lat="45.5438921" lon="9.4426844"><ele>134.0</ele><time>2026-04-25T12:18:56.705Z</time></trkpt><trkpt lat="45.543826" lon="9.442512"><ele>134.0</ele><time>2026-04-25T12:18:57.705Z</time></trkpt><trkpt lat="45.5437476" lon="9.442309"><ele>134.0</ele><time>2026-04-25T12:18:58.705Z</time></trkpt><trkpt lat="45.5436703" lon="9.4421057"><ele>133.66666666666666</ele><time>2026-04-25T12:18:59.705Z</time></trkpt><trkpt lat="45.5435919" lon="9.4418962"><ele>133.33333333333334</ele><time>2026-04-25T12:19:00.706Z</time></trkpt><trkpt lat="45.5435161" lon="9.4416942"><ele>133.0</ele><time>2026-04-25T12:19:01.706Z</time></trkpt><trkpt lat="45.5434464" lon="9.4415072"><ele>133.0</ele><time>2026-04-25T12:19:02.705Z</time></trkpt><trkpt lat="45.5433887" lon="9.4413375"><ele>133.0</ele><time>2026-04-25T12:19:03.705Z</time></trkpt><trkpt lat="45.5433478" lon="9.4411794"><ele>133.0</ele><time>2026-04-25T12:19:04.706Z</time></trkpt><trkpt lat="45.543331" lon="9.4410246"><ele>133.0</ele><time>2026-04-25T12:19:05.706Z</time></trkpt><trkpt lat="45.5433373" lon="9.4408837"><ele>133.0</ele><time>2026-04-25T12:19:06.706Z</time></trkpt><trkpt lat="45.5433383" lon="9.4407517"><ele>133.0</ele><time>2026-04-25T12:19:07.705Z</time></trkpt><trkpt lat="45.5433073" lon="9.4406286"><ele>133.0</ele><time>2026-04-25T12:19:08.706Z</time></trkpt><trkpt lat="45.5432388" lon="9.4405157"><ele>133.0</ele><time>2026-04-25T12:19:09.705Z</time></trkpt><trkpt lat="45.5431566" lon="9.4403868"><ele>133.0</ele><time>2026-04-25T12:19:10.706Z</time></trkpt><trkpt lat="45.5430764" lon="9.4402193"><ele>133.0</ele><time>2026-04-25T12:19:11.705Z</time></trkpt><trkpt lat="45.542999" lon="9.4400316"><ele>133.0</ele><time>2026-04-25T12:19:12.705Z</time></trkpt><trkpt lat="45.5429325" lon="9.43986"><ele>133.0</ele><time>2026-04-25T12:19:13.706Z</time></trkpt><trkpt lat="45.5428585" lon="9.4396703"><ele>133.0</ele><time>2026-04-25T12:19:14.705Z</time></trkpt><trkpt lat="45.5427888" lon="9.4394915"><ele>133.0</ele><time>2026-04-25T12:19:15.705Z</time></trkpt><trkpt lat="45.5427219" lon="9.4393158"><ele>133.0</ele><time>2026-04-25T12:19:16.706Z</time></trkpt><trkpt lat="45.5426566" lon="9.4391441"><ele>133.0</ele><time>2026-04-25T12:19:17.705Z</time></trkpt><trkpt lat="45.5425937" lon="9.4389803"><ele>133.0</ele><time>2026-04-25T12:19:18.705Z</time></trkpt><trkpt lat="45.542538" lon="9.4388271"><ele>133.0</ele><time>2026-04-25T12:19:19.705Z</time></trkpt><trkpt lat="45.5425025" lon="9.4386945"><ele>133.0</ele><time>2026-04-25T12:19:20.706Z</time></trkpt><trkpt lat="45.5424873" lon="9.4385762"><ele>133.0</ele><time>2026-04-25T12:19:21.706Z</time></trkpt><trkpt lat="45.5424951" lon="9.4384708"><ele>133.0</ele><time>2026-04-25T12:19:22.705Z</time></trkpt><trkpt lat="45.5425285" lon="9.4383792"><ele>133.0</ele><time>2026-04-25T12:19:23.705Z</time></trkpt><trkpt lat="45.5425865" lon="9.4383002"><ele>133.0</ele><time>2026-04-25T12:19:24.705Z</time></trkpt><trkpt lat="45.5426516" lon="9.4382249"><ele>133.0</ele><time>2026-04-25T12:19:25.706Z</time></trkpt><trkpt lat="45.5426987" lon="9.4381364"><ele>133.0</ele><time>2026-04-25T12:19:26.705Z</time></trkpt><trkpt lat="45.542721" lon="9.4380318"><ele>133.0</ele><time>2026-04-25T12:19:27.705Z</time></trkpt><trkpt lat="45.5427082" lon="9.4379139"><ele>133.0</ele><time>2026-04-25T12:19:28.705Z</time></trkpt><trkpt lat="45.5426669" lon="9.4378215"><ele>133.0</ele><time>2026-04-25T12:19:29.706Z</time></trkpt><trkpt lat="45.5426028" lon="9.4377524"><ele>133.0</ele><time>2026-04-25T12:19:30.705Z</time></trkpt><trkpt lat="45.5425282" lon="9.4377242"><ele>132.8</ele><time>2026-04-25T12:19:31.706Z</time></trkpt><trkpt lat="45.5424449" lon="9.4377055"><ele>132.60000000000002</ele><time>2026-04-25T12:19:32.705Z</time></trkpt><trkpt lat="45.5423577" lon="9.4376667"><ele>132.39999999999998</ele><time>2026-04-25T12:19:33.706Z</time></trkpt><trkpt lat="45.5422721" lon="9.4375907"><ele>132.2</ele><time>2026-04-25T12:19:34.705Z</time></trkpt><trkpt lat="45.5421913" lon="9.4374835"><ele>132.0</ele><time>2026-04-25T12:19:35.705Z</time></trkpt><trkpt lat="45.5421165" lon="9.4373562"><ele>132.0</ele><time>2026-04-25T12:19:36.705Z</time></trkpt><trkpt lat="45.5420483" lon="9.437211"><ele>132.0</ele><time>2026-04-25T12:19:37.706Z</time></trkpt><trkpt lat="45.5419786" lon="9.4370457"><ele>132.0</ele><time>2026-04-25T12:19:38.706Z</time></trkpt><trkpt lat="45.5418999" lon="9.4368498"><ele>132.0</ele><time>2026-04-25T12:19:39.706Z</time></trkpt><trkpt lat="45.5418088" lon="9.4366148"><ele>132.33333333333334</ele><time>2026-04-25T12:19:40.705Z</time></trkpt><trkpt lat="45.5417097" lon="9.4363595"><ele>132.66666666666669</ele><time>2026-04-25T12:19:41.706Z</time></trkpt><trkpt lat="45.5416033" lon="9.4360782"><ele>133.0</ele><time>2026-04-25T12:19:42.706Z</time></trkpt><trkpt lat="45.541497" lon="9.4357859"><ele>133.0</ele><time>2026-04-25T12:19:43.705Z</time></trkpt><trkpt lat="45.5413898" lon="9.4354883"><ele>133.0</ele><time>2026-04-25T12:19:44.706Z</time></trkpt><trkpt lat="45.5412871" lon="9.4352049"><ele>132.0</ele><time>2026-04-25T12:19:45.705Z</time></trkpt><trkpt lat="45.5411683" lon="9.4348756"><ele>131.0</ele><time>2026-04-25T12:19:46.706Z</time></trkpt><trkpt lat="45.541061" lon="9.4345743"><ele>130.66666666666666</ele><time>2026-04-25T12:19:47.705Z</time></trkpt><trkpt lat="45.5409573" lon="9.4342827"><ele>130.33333333333334</ele><time>2026-04-25T12:19:48.705Z</time></trkpt><trkpt lat="45.5408578" lon="9.4340034"><ele>130.0</ele><time>2026-04-25T12:19:49.705Z</time></trkpt><trkpt lat="45.540759" lon="9.4337294"><ele>130.0</ele><time>2026-04-25T12:19:50.706Z</time></trkpt><trkpt lat="45.5406593" lon="9.4334578"><ele>130.0</ele><time>2026-04-25T12:19:51.706Z</time></trkpt><trkpt lat="45.5405574" lon="9.4331853"><ele>130.0</ele><time>2026-04-25T12:19:52.706Z</time></trkpt><trkpt lat="45.5404553" lon="9.4329148"><ele>130.33333333333334</ele><time>2026-04-25T12:19:53.706Z</time></trkpt><trkpt lat="45.5403554" lon="9.4326469"><ele>130.66666666666666</ele><time>2026-04-25T12:19:54.705Z</time></trkpt><trkpt lat="45.5402582" lon="9.432384"><ele>131.0</ele><time>2026-04-25T12:19:55.706Z</time></trkpt><trkpt lat="45.5401654" lon="9.4321315"><ele>131.0</ele><time>2026-04-25T12:19:56.705Z</time></trkpt><trkpt lat="45.5400747" lon="9.4318875"><ele>131.0</ele><time>2026-04-25T12:19:57.705Z</time></trkpt><trkpt lat="45.5399862" lon="9.4316499"><ele>131.0</ele><time>2026-04-25T12:19:58.705Z</time></trkpt><trkpt lat="45.5398991" lon="9.4314172"><ele>131.0</ele><time>2026-04-25T12:19:59.705Z</time></trkpt><trkpt lat="45.5398125" lon="9.4311857"><ele>131.0</ele><time>2026-04-25T12:20:00.705Z</time></trkpt><trkpt lat="45.5397322" lon="9.4309718"><ele>131.0</ele><time>2026-04-25T12:20:01.706Z</time></trkpt><trkpt lat="45.5396474" lon="9.4307452"><ele>131.0</ele><time>2026-04-25T12:20:02.706Z</time></trkpt><trkpt lat="45.5395752" lon="9.4305437"><ele>131.0</ele><time>2026-04-25T12:20:03.706Z</time></trkpt><trkpt lat="45.5395164" lon="9.4303595"><ele>131.0</ele><time>2026-04-25T12:20:04.705Z</time></trkpt><trkpt lat="45.5394765" lon="9.4302015"><ele>131.0</ele><time>2026-04-25T12:20:05.705Z</time></trkpt><trkpt lat="45.5394527" lon="9.430071"><ele>131.14285714285714</ele><time>2026-04-25T12:20:06.705Z</time></trkpt><trkpt lat="45.5394402" lon="9.4299581"><ele>131.2857142857143</ele><time>2026-04-25T12:20:07.705Z</time></trkpt><trkpt lat="45.5394382" lon="9.429855"><ele>131.42857142857144</ele><time>2026-04-25T12:20:08.706Z</time></trkpt><trkpt lat="45.5394488" lon="9.4297589"><ele>131.57142857142858</ele><time>2026-04-25T12:20:09.706Z</time></trkpt><trkpt lat="45.5394748" lon="9.429671"><ele>131.71428571428572</ele><time>2026-04-25T12:20:10.706Z</time></trkpt><trkpt lat="45.5395151" lon="9.4295905"><ele>131.85714285714286</ele><time>2026-04-25T12:20:11.706Z</time></trkpt><trkpt lat="45.5395554" lon="9.4295042"><ele>132.0</ele><time>2026-04-25T12:20:12.706Z</time></trkpt><trkpt lat="45.5395787" lon="9.4293959"><ele>132.2</ele><time>2026-04-25T12:20:13.705Z</time></trkpt><trkpt lat="45.5395742" lon="9.4292724"><ele>132.39999999999998</ele><time>2026-04-25T12:20:14.706Z</time></trkpt><trkpt lat="45.5395312" lon="9.4291551"><ele>132.60000000000002</ele><time>2026-04-25T12:20:15.706Z</time></trkpt><trkpt lat="45.5394504" lon="9.4290758"><ele>132.8</ele><time>2026-04-25T12:20:16.706Z</time></trkpt><trkpt lat="45.5393415" lon="9.4290372"><ele>133.0</ele><time>2026-04-25T12:20:17.705Z</time></trkpt><trkpt lat="45.5392082" lon="9.428979"><ele>132.0</ele><time>2026-04-25T12:20:18.706Z</time></trkpt><trkpt lat="45.53908" lon="9.4288802"><ele>131.0</ele><time>2026-04-25T12:20:19.706Z</time></trkpt><trkpt lat="45.5389575" lon="9.4287316"><ele>130.0</ele><time>2026-04-25T12:20:20.706Z</time></trkpt><trkpt lat="45.5388391" lon="9.4285809"><ele>130.0</ele><time>2026-04-25T12:20:21.705Z</time></trkpt><trkpt lat="45.5387275" lon="9.4284431"><ele>130.0</ele><time>2026-04-25T12:20:22.706Z</time></trkpt><trkpt lat="45.5386235" lon="9.4283157"><ele>130.0</ele><time>2026-04-25T12:20:23.705Z</time></trkpt><trkpt lat="45.5385259" lon="9.4281935"><ele>130.0</ele><time>2026-04-25T12:20:24.706Z</time></trkpt><trkpt lat="45.5384313" lon="9.4280745"><ele>130.5</ele><time>2026-04-25T12:20:25.706Z</time></trkpt><trkpt lat="45.5383385" lon="9.4279559"><ele>131.0</ele><time>2026-04-25T12:20:26.706Z</time></trkpt><trkpt lat="45.5382419" lon="9.4278296"><ele>131.5</ele><time>2026-04-25T12:20:27.706Z</time></trkpt><trkpt lat="45.5381401" lon="9.427697"><ele>132.0</ele><time>2026-04-25T12:20:28.705Z</time></trkpt><trkpt lat="45.5380299" lon="9.4275592"><ele>132.0</ele><time>2026-04-25T12:20:29.705Z</time></trkpt><trkpt lat="45.5379143" lon="9.4274196"><ele>132.0</ele><time>2026-04-25T12:20:30.705Z</time></trkpt><trkpt lat="45.5377953" lon="9.4272796"><ele>132.0</ele><time>2026-04-25T12:20:31.705Z</time></trkpt><trkpt lat="45.5376784" lon="9.4271481"><ele>132.33333333333334</ele><time>2026-04-25T12:20:32.706Z</time></trkpt><trkpt lat="45.5375651" lon="9.4270259"><ele>132.66666666666669</ele><time>2026-04-25T12:20:33.706Z</time></trkpt><trkpt lat="45.5374354" lon="9.4268944"><ele>133.0</ele><time>2026-04-25T12:20:34.705Z</time></trkpt><trkpt lat="45.5373093" lon="9.4267767"><ele>133.0</ele><time>2026-04-25T12:20:35.705Z</time></trkpt><trkpt lat="45.5371815" lon="9.4266661"><ele>133.0</ele><time>2026-04-25T12:20:36.706Z</time></trkpt><trkpt lat="45.5370519" lon="9.4265586"><ele>133.0</ele><time>2026-04-25T12:20:37.706Z</time></trkpt><trkpt lat="45.5369214" lon="9.4264518"><ele>132.66666666666669</ele><time>2026-04-25T12:20:38.706Z</time></trkpt><trkpt lat="45.5367883" lon="9.4263446"><ele>132.33333333333334</ele><time>2026-04-25T12:20:39.705Z</time></trkpt><trkpt lat="45.5366568" lon="9.4262388"><ele>132.0</ele><time>2026-04-25T12:20:40.706Z</time></trkpt><trkpt lat="45.5365251" lon="9.4261327"><ele>132.0</ele><time>2026-04-25T12:20:41.705Z</time></trkpt><trkpt lat="45.5363937" lon="9.4260251"><ele>132.0</ele><time>2026-04-25T12:20:42.705Z</time></trkpt><trkpt lat="45.5362618" lon="9.4259168"><ele>132.0</ele><time>2026-04-25T12:20:43.705Z</time></trkpt><trkpt lat="45.5361381" lon="9.4258162"><ele>132.0</ele><time>2026-04-25T12:20:44.705Z</time></trkpt><trkpt lat="45.5359957" lon="9.4257016"><ele>132.0</ele><time>2026-04-25T12:20:45.706Z</time></trkpt><trkpt lat="45.5358549" lon="9.4255864"><ele>132.0</ele><time>2026-04-25T12:20:46.706Z</time></trkpt><trkpt lat="45.5357079" lon="9.4254649"><ele>132.0</ele><time>2026-04-25T12:20:47.706Z</time></trkpt><trkpt lat="45.5355604" lon="9.4253415"><ele>132.0</ele><time>2026-04-25T12:20:48.705Z</time></trkpt><trkpt lat="45.5354217" lon="9.4252247"><ele>132.0</ele><time>2026-04-25T12:20:49.705Z</time></trkpt><trkpt lat="45.5352655" lon="9.4250906"><ele>132.0</ele><time>2026-04-25T12:20:50.705Z</time></trkpt><trkpt lat="45.5351195" lon="9.4249613"><ele>132.0</ele><time>2026-04-25T12:20:51.705Z</time></trkpt><trkpt lat="45.5349855" lon="9.4248364"><ele>132.0</ele><time>2026-04-25T12:20:52.705Z</time></trkpt><trkpt lat="45.5348355" lon="9.42469"><ele>132.0</ele><time>2026-04-25T12:20:53.706Z</time></trkpt><trkpt lat="45.5346958" lon="9.4245471"><ele>131.66666666666666</ele><time>2026-04-25T12:20:54.705Z</time></trkpt><trkpt lat="45.5345572" lon="9.4243992"><ele>131.33333333333331</ele><time>2026-04-25T12:20:55.706Z</time></trkpt><trkpt lat="45.534421" lon="9.4242464"><ele>131.0</ele><time>2026-04-25T12:20:56.705Z</time></trkpt><trkpt lat="45.5342878" lon="9.4240902"><ele>131.0</ele><time>2026-04-25T12:20:57.706Z</time></trkpt><trkpt lat="45.5341573" lon="9.4239303"><ele>131.0</ele><time>2026-04-25T12:20:58.706Z</time></trkpt><trkpt lat="45.5340289" lon="9.4237673"><ele>131.0</ele><time>2026-04-25T12:20:59.705Z</time></trkpt><trkpt lat="45.5339087" lon="9.4236103"><ele>131.0</ele><time>2026-04-25T12:21:00.705Z</time></trkpt><trkpt lat="45.5337713" lon="9.4234283"><ele>131.0</ele><time>2026-04-25T12:21:01.705Z</time></trkpt><trkpt lat="45.5336401" lon="9.4232522"><ele>131.0</ele><time>2026-04-25T12:21:02.705Z</time></trkpt><trkpt lat="45.5335079" lon="9.4230736"><ele>130.66666666666666</ele><time>2026-04-25T12:21:03.705Z</time></trkpt><trkpt lat="45.5333744" lon="9.4228899"><ele>130.33333333333334</ele><time>2026-04-25T12:21:04.705Z</time></trkpt><trkpt lat="45.5332477" lon="9.422716"><ele>130.0</ele><time>2026-04-25T12:21:05.706Z</time></trkpt><trkpt lat="45.5331041" lon="9.4225345"><ele>130.0</ele><time>2026-04-25T12:21:06.705Z</time></trkpt><trkpt lat="45.5329698" lon="9.4223509"><ele>130.0</ele><time>2026-04-25T12:21:07.706Z</time></trkpt><trkpt lat="45.5328421" lon="9.422178"><ele>130.0</ele><time>2026-04-25T12:21:08.705Z</time></trkpt><trkpt lat="45.532697" lon="9.4219794"><ele>130.0</ele><time>2026-04-25T12:21:09.706Z</time></trkpt><trkpt lat="45.5325597" lon="9.4217914"><ele>130.0</ele><time>2026-04-25T12:21:10.705Z</time></trkpt><trkpt lat="45.5324218" lon="9.4216031"><ele>130.0</ele><time>2026-04-25T12:21:11.706Z</time></trkpt><trkpt lat="45.5322835" lon="9.4214166"><ele>130.0</ele><time>2026-04-25T12:21:12.705Z</time></trkpt><trkpt lat="45.5321439" lon="9.4212308"><ele>130.0</ele><time>2026-04-25T12:21:13.705Z</time></trkpt><trkpt lat="45.5320057" lon="9.4210471"><ele>130.0</ele><time>2026-04-25T12:21:14.705Z</time></trkpt><trkpt lat="45.5318686" lon="9.4208638"><ele>130.0</ele><time>2026-04-25T12:21:15.705Z</time></trkpt><trkpt lat="45.5317405" lon="9.4206909"><ele>130.0</ele><time>2026-04-25T12:21:16.706Z</time></trkpt><trkpt lat="45.5315927" lon="9.4204916"><ele>130.0</ele><time>2026-04-25T12:21:17.706Z</time></trkpt><trkpt lat="45.5314514" lon="9.4203012"><ele>130.0</ele><time>2026-04-25T12:21:18.705Z</time></trkpt><trkpt lat="45.5313083" lon="9.4201083"><ele>130.0</ele><time>2026-04-25T12:21:19.705Z</time></trkpt><trkpt lat="45.5311679" lon="9.4199189"><ele>130.0</ele><time>2026-04-25T12:21:20.705Z</time></trkpt><trkpt lat="45.5310374" lon="9.419744"><ele>129.66666666666669</ele><time>2026-04-25T12:21:21.705Z</time></trkpt><trkpt lat="45.5308886" lon="9.4195435"><ele>129.33333333333334</ele><time>2026-04-25T12:21:22.705Z</time></trkpt><trkpt lat="45.5307476" lon="9.4193525"><ele>129.0</ele><time>2026-04-25T12:21:23.706Z</time></trkpt><trkpt lat="45.5306136" lon="9.4191724"><ele>129.0</ele><time>2026-04-25T12:21:24.706Z</time></trkpt><trkpt lat="45.5304589" lon="9.418967"><ele>129.0</ele><time>2026-04-25T12:21:25.705Z</time></trkpt><trkpt lat="45.5303125" lon="9.4187725"><ele>129.0</ele><time>2026-04-25T12:21:26.705Z</time></trkpt><trkpt lat="45.5301655" lon="9.4185742"><ele>129.0</ele><time>2026-04-25T12:21:27.705Z</time></trkpt><trkpt lat="45.5300205" lon="9.418372"><ele>129.0</ele><time>2026-04-25T12:21:28.706Z</time></trkpt><trkpt lat="45.5298771" lon="9.4181677"><ele>129.0</ele><time>2026-04-25T12:21:29.705Z</time></trkpt><trkpt lat="45.5297348" lon="9.4179609"><ele>129.33333333333334</ele><time>2026-04-25T12:21:30.706Z</time></trkpt><trkpt lat="45.5295935" lon="9.4177514"><ele>129.66666666666669</ele><time>2026-04-25T12:21:31.706Z</time></trkpt><trkpt lat="45.5294623" lon="9.4175551"><ele>130.0</ele><time>2026-04-25T12:21:32.706Z</time></trkpt><trkpt lat="45.5293135" lon="9.4173313"><ele>131.33333333333334</ele><time>2026-04-25T12:21:33.705Z</time></trkpt><trkpt lat="45.5291746" lon="9.4171199"><ele>132.66666666666666</ele><time>2026-04-25T12:21:34.706Z</time></trkpt><trkpt lat="45.5290372" lon="9.4169089"><ele>134.0</ele><time>2026-04-25T12:21:35.705Z</time></trkpt><trkpt lat="45.5289002" lon="9.4166954"><ele>134.0</ele><time>2026-04-25T12:21:36.706Z</time></trkpt><trkpt lat="45.5287733" lon="9.4164955"><ele>134.0</ele><time>2026-04-25T12:21:37.705Z</time></trkpt><trkpt lat="45.5286304" lon="9.4162654"><ele>134.0</ele><time>2026-04-25T12:21:38.706Z</time></trkpt><trkpt lat="45.5284987" lon="9.4160457"><ele>133.33333333333331</ele><time>2026-04-25T12:21:39.706Z</time></trkpt><trkpt lat="45.5283757" lon="9.4158362"><ele>132.66666666666666</ele><time>2026-04-25T12:21:40.706Z</time></trkpt><trkpt lat="45.5282378" lon="9.4155972"><ele>132.0</ele><time>2026-04-25T12:21:41.706Z</time></trkpt><trkpt lat="45.5281088" lon="9.4153703"><ele>132.0</ele><time>2026-04-25T12:21:42.705Z</time></trkpt><trkpt lat="45.5279811" lon="9.4151444"><ele>132.0</ele><time>2026-04-25T12:21:43.705Z</time></trkpt><trkpt lat="45.5278533" lon="9.4149172"><ele>132.0</ele><time>2026-04-25T12:21:44.706Z</time></trkpt><trkpt lat="45.5277256" lon="9.4146883"><ele>131.66666666666666</ele><time>2026-04-25T12:21:45.705Z</time></trkpt><trkpt lat="45.527599" lon="9.4144589"><ele>131.33333333333331</ele><time>2026-04-25T12:21:46.705Z</time></trkpt><trkpt lat="45.5274717" lon="9.4142273"><ele>131.0</ele><time>2026-04-25T12:21:47.706Z</time></trkpt><trkpt lat="45.5273517" lon="9.4140079"><ele>131.33333333333331</ele><time>2026-04-25T12:21:48.705Z</time></trkpt><trkpt lat="45.5272157" lon="9.4137616"><ele>131.66666666666666</ele><time>2026-04-25T12:21:49.705Z</time></trkpt><trkpt lat="45.5270901" lon="9.4135309"><ele>132.0</ele><time>2026-04-25T12:21:50.705Z</time></trkpt><trkpt lat="45.5269666" lon="9.4133026"><ele>131.33333333333334</ele><time>2026-04-25T12:21:51.706Z</time></trkpt><trkpt lat="45.5268446" lon="9.4130785"><ele>130.66666666666669</ele><time>2026-04-25T12:21:52.705Z</time></trkpt><trkpt lat="45.526733" lon="9.4128743"><ele>130.0</ele><time>2026-04-25T12:21:53.706Z</time></trkpt><trkpt lat="45.526609" lon="9.4126495"><ele>130.0</ele><time>2026-04-25T12:21:54.706Z</time></trkpt><trkpt lat="45.5264919" lon="9.4124413"><ele>130.0</ele><time>2026-04-25T12:21:55.705Z</time></trkpt><trkpt lat="45.5263796" lon="9.4122441"><ele>130.0</ele><time>2026-04-25T12:21:56.705Z</time></trkpt><trkpt lat="45.526249" lon="9.412016"><ele>130.66666666666669</ele><time>2026-04-25T12:21:57.706Z</time></trkpt><trkpt lat="45.5261249" lon="9.411796"><ele>131.33333333333334</ele><time>2026-04-25T12:21:58.705Z</time></trkpt><trkpt lat="45.5259993" lon="9.4115706"><ele>132.0</ele><time>2026-04-25T12:21:59.705Z</time></trkpt><trkpt lat="45.5258734" lon="9.4113424"><ele>132.0</ele><time>2026-04-25T12:22:00.705Z</time></trkpt><trkpt lat="45.5257472" lon="9.4111124"><ele>132.0</ele><time>2026-04-25T12:22:01.706Z</time></trkpt><trkpt lat="45.5256217" lon="9.4108813"><ele>132.0</ele><time>2026-04-25T12:22:02.705Z</time></trkpt><trkpt lat="45.5254967" lon="9.4106493"><ele>131.66666666666666</ele><time>2026-04-25T12:22:03.705Z</time></trkpt><trkpt lat="45.5253807" lon="9.4104327"><ele>131.33333333333331</ele><time>2026-04-25T12:22:04.706Z</time></trkpt><trkpt lat="45.5252507" lon="9.4101898"><ele>131.0</ele><time>2026-04-25T12:22:05.705Z</time></trkpt><trkpt lat="45.5251299" lon="9.4099654"><ele>131.0</ele><time>2026-04-25T12:22:06.706Z</time></trkpt><trkpt lat="45.5250116" lon="9.4097475"><ele>131.0</ele><time>2026-04-25T12:22:07.706Z</time></trkpt><trkpt lat="45.5248977" lon="9.409538"><ele>131.0</ele><time>2026-04-25T12:22:08.705Z</time></trkpt><trkpt lat="45.5247941" lon="9.4093471"><ele>131.33333333333331</ele><time>2026-04-25T12:22:09.706Z</time></trkpt><trkpt lat="45.5246805" lon="9.4091322"><ele>131.66666666666666</ele><time>2026-04-25T12:22:10.705Z</time></trkpt><trkpt lat="45.5245786" lon="9.4089368"><ele>132.0</ele><time>2026-04-25T12:22:11.706Z</time></trkpt><trkpt lat="45.5244882" lon="9.4087629"><ele>131.5</ele><time>2026-04-25T12:22:12.706Z</time></trkpt><trkpt lat="45.5243919" lon="9.4085775"><ele>131.0</ele><time>2026-04-25T12:22:13.706Z</time></trkpt><trkpt lat="45.5243083" lon="9.4084165"><ele>130.5</ele><time>2026-04-25T12:22:14.705Z</time></trkpt><trkpt lat="45.5242336" lon="9.4082714"><ele>130.0</ele><time>2026-04-25T12:22:15.705Z</time></trkpt><trkpt lat="45.5241711" lon="9.4081408"><ele>130.0</ele><time>2026-04-25T12:22:16.706Z</time></trkpt><trkpt lat="45.5241256" lon="9.408024"><ele>130.0</ele><time>2026-04-25T12:22:17.706Z</time></trkpt><trkpt lat="45.5240991" lon="9.4079134"><ele>130.0</ele><time>2026-04-25T12:22:18.706Z</time></trkpt><trkpt lat="45.5240863" lon="9.4078107"><ele>130.0</ele><time>2026-04-25T12:22:19.706Z</time></trkpt><trkpt lat="45.5240704" lon="9.4076438"><ele>130.0</ele><time>2026-04-25T12:22:21.705Z</time></trkpt><trkpt lat="45.5240452" lon="9.407545"><ele>130.0</ele><time>2026-04-25T12:22:23.706Z</time></trkpt><trkpt lat="45.5240066" lon="9.4074712"><ele>130.00000000000003</ele><time>2026-04-25T12:22:26.705Z</time></trkpt><trkpt lat="45.5239705" lon="9.4073838"><ele>130.0</ele><time>2026-04-25T12:22:31.705Z</time></trkpt><trkpt lat="45.5238998" lon="9.4073828"><ele>130.0</ele><time>2026-04-25T12:25:40.705Z</time></trkpt><trkpt lat="45.5238284" lon="9.4073961"><ele>130.0</ele><time>2026-04-25T12:25:43.706Z</time></trkpt><trkpt lat="45.5237612" lon="9.4073092"><ele>130.0</ele><time>2026-04-25T12:25:46.706Z</time></trkpt><trkpt lat="45.5236986" lon="9.4072524"><ele>130.00000000000003</ele><time>2026-04-25T12:25:48.706Z</time></trkpt><trkpt lat="45.5236514" lon="9.40718"><ele>130.0</ele><time>2026-04-25T12:25:50.705Z</time></trkpt><trkpt lat="45.5235665" lon="9.4070638"><ele>130.8</ele><time>2026-04-25T12:25:52.706Z</time></trkpt><trkpt lat="45.5235064" lon="9.4069708"><ele>131.6</ele><time>2026-04-25T12:25:53.705Z</time></trkpt><trkpt lat="45.523439" lon="9.4068549"><ele>132.4</ele><time>2026-04-25T12:25:54.705Z</time></trkpt><trkpt lat="45.5233674" lon="9.4067292"><ele>133.2</ele><time>2026-04-25T12:25:55.706Z</time></trkpt><trkpt lat="45.5232888" lon="9.4065924"><ele>134.0</ele><time>2026-04-25T12:25:56.706Z</time></trkpt><trkpt lat="45.5232036" lon="9.406441"><ele>133.66666666666666</ele><time>2026-04-25T12:25:57.706Z</time></trkpt><trkpt lat="45.523113" lon="9.406279"><ele>133.33333333333334</ele><time>2026-04-25T12:25:58.705Z</time></trkpt><trkpt lat="45.5230163" lon="9.4061047"><ele>133.0</ele><time>2026-04-25T12:25:59.706Z</time></trkpt><trkpt lat="45.5228998" lon="9.4058999"><ele>132.5</ele><time>2026-04-25T12:26:00.705Z</time></trkpt><trkpt lat="45.5227496" lon="9.4056338"><ele>132.0</ele><time>2026-04-25T12:26:01.706Z</time></trkpt><trkpt lat="45.5226169" lon="9.4053976"><ele>131.33333333333334</ele><time>2026-04-25T12:26:02.706Z</time></trkpt><trkpt lat="45.5224856" lon="9.4051628"><ele>130.66666666666669</ele><time>2026-04-25T12:26:03.705Z</time></trkpt><trkpt lat="45.5223586" lon="9.4049361"><ele>130.0</ele><time>2026-04-25T12:26:04.705Z</time></trkpt><trkpt lat="45.5222349" lon="9.4047142"><ele>130.0</ele><time>2026-04-25T12:26:05.705Z</time></trkpt><trkpt lat="45.522114" lon="9.4044955"><ele>130.0</ele><time>2026-04-25T12:26:06.706Z</time></trkpt><trkpt lat="45.5219885" lon="9.4042691"><ele>130.0</ele><time>2026-04-25T12:26:07.706Z</time></trkpt><trkpt lat="45.5218618" lon="9.4040381"><ele>130.33333333333334</ele><time>2026-04-25T12:26:08.705Z</time></trkpt><trkpt lat="45.5217308" lon="9.4038045"><ele>130.66666666666666</ele><time>2026-04-25T12:26:09.706Z</time></trkpt><trkpt lat="45.5215969" lon="9.4035678"><ele>131.0</ele><time>2026-04-25T12:26:10.705Z</time></trkpt><trkpt lat="45.5214647" lon="9.4033318"><ele>131.0</ele><time>2026-04-25T12:26:11.706Z</time></trkpt><trkpt lat="45.5213402" lon="9.4030999"><ele>131.0</ele><time>2026-04-25T12:26:12.706Z</time></trkpt><trkpt lat="45.5212246" lon="9.4028699"><ele>131.0</ele><time>2026-04-25T12:26:13.706Z</time></trkpt><trkpt lat="45.5211214" lon="9.4026431"><ele>131.0</ele><time>2026-04-25T12:26:14.706Z</time></trkpt><trkpt lat="45.5210342" lon="9.4024159"><ele>131.0</ele><time>2026-04-25T12:26:15.706Z</time></trkpt><trkpt lat="45.5209608" lon="9.402182"><ele>131.0</ele><time>2026-04-25T12:26:16.705Z</time></trkpt><trkpt lat="45.5208949" lon="9.4019213"><ele>131.0</ele><time>2026-04-25T12:26:17.705Z</time></trkpt><trkpt lat="45.520843" lon="9.4016847"><ele>131.0</ele><time>2026-04-25T12:26:18.706Z</time></trkpt><trkpt lat="45.5207924" lon="9.4014237"><ele>131.0</ele><time>2026-04-25T12:26:19.706Z</time></trkpt><trkpt lat="45.5207476" lon="9.4011586"><ele>130.33333333333331</ele><time>2026-04-25T12:26:20.705Z</time></trkpt><trkpt lat="45.5207096" lon="9.4008886"><ele>129.66666666666666</ele><time>2026-04-25T12:26:21.705Z</time></trkpt><trkpt lat="45.5206784" lon="9.4006145"><ele>129.0</ele><time>2026-04-25T12:26:22.705Z</time></trkpt><trkpt lat="45.5206553" lon="9.4003374"><ele>129.0</ele><time>2026-04-25T12:26:23.706Z</time></trkpt><trkpt lat="45.5206435" lon="9.4000599"><ele>129.0</ele><time>2026-04-25T12:26:24.705Z</time></trkpt><trkpt lat="45.5206479" lon="9.3997849"><ele>129.0</ele><time>2026-04-25T12:26:25.705Z</time></trkpt><trkpt lat="45.5206677" lon="9.39951"><ele>129.33333333333334</ele><time>2026-04-25T12:26:26.706Z</time></trkpt><trkpt lat="45.5206997" lon="9.3992326"><ele>129.66666666666669</ele><time>2026-04-25T12:26:27.706Z</time></trkpt><trkpt lat="45.5207433" lon="9.3989562"><ele>130.0</ele><time>2026-04-25T12:26:28.705Z</time></trkpt><trkpt lat="45.5207978" lon="9.398679"><ele>130.33333333333334</ele><time>2026-04-25T12:26:29.705Z</time></trkpt><trkpt lat="45.5208633" lon="9.3984072"><ele>130.66666666666666</ele><time>2026-04-25T12:26:30.706Z</time></trkpt><trkpt lat="45.5209401" lon="9.3981388"><ele>131.0</ele><time>2026-04-25T12:26:31.705Z</time></trkpt><trkpt lat="45.5210253" lon="9.3978806"><ele>130.66666666666666</ele><time>2026-04-25T12:26:32.706Z</time></trkpt><trkpt lat="45.5211257" lon="9.3976193"><ele>130.33333333333334</ele><time>2026-04-25T12:26:33.705Z</time></trkpt><trkpt lat="45.5212226" lon="9.3974033"><ele>130.0</ele><time>2026-04-25T12:26:34.706Z</time></trkpt><trkpt lat="45.5213349" lon="9.3971859"><ele>130.33333333333334</ele><time>2026-04-25T12:26:35.706Z</time></trkpt><trkpt lat="45.5214534" lon="9.3969832"><ele>130.66666666666666</ele><time>2026-04-25T12:26:36.706Z</time></trkpt><trkpt lat="45.521576" lon="9.3967919"><ele>131.0</ele><time>2026-04-25T12:26:37.705Z</time></trkpt><trkpt lat="45.5217008" lon="9.3966061"><ele>131.0</ele><time>2026-04-25T12:26:38.706Z</time></trkpt><trkpt lat="45.5218285" lon="9.3964234"><ele>131.0</ele><time>2026-04-25T12:26:39.706Z</time></trkpt><trkpt lat="45.5219578" lon="9.3962424"><ele>131.0</ele><time>2026-04-25T12:26:40.706Z</time></trkpt><trkpt lat="45.5220895" lon="9.3960593"><ele>131.0</ele><time>2026-04-25T12:26:41.706Z</time></trkpt><trkpt lat="45.5222234" lon="9.3958731"><ele>131.0</ele><time>2026-04-25T12:26:42.706Z</time></trkpt><trkpt lat="45.5223597" lon="9.3956815"><ele>131.0</ele><time>2026-04-25T12:26:43.705Z</time></trkpt><trkpt lat="45.5224966" lon="9.3954894"><ele>131.0</ele><time>2026-04-25T12:26:44.706Z</time></trkpt><trkpt lat="45.5226341" lon="9.3952958"><ele>131.0</ele><time>2026-04-25T12:26:45.706Z</time></trkpt><trkpt lat="45.5227769" lon="9.3950958"><ele>131.0</ele><time>2026-04-25T12:26:46.706Z</time></trkpt><trkpt lat="45.5229165" lon="9.3949009"><ele>131.0</ele><time>2026-04-25T12:26:47.706Z</time></trkpt><trkpt lat="45.5230526" lon="9.3947117"><ele>131.0</ele><time>2026-04-25T12:26:48.706Z</time></trkpt><trkpt lat="45.5231938" lon="9.3945158"><ele>131.0</ele><time>2026-04-25T12:26:49.705Z</time></trkpt><trkpt lat="45.5233178" lon="9.3943432"><ele>131.0</ele><time>2026-04-25T12:26:50.705Z</time></trkpt><trkpt lat="45.5234526" lon="9.3941557"><ele>131.0</ele><time>2026-04-25T12:26:51.705Z</time></trkpt><trkpt lat="45.5235867" lon="9.3939685"><ele>131.0</ele><time>2026-04-25T12:26:52.706Z</time></trkpt><trkpt lat="45.5237187" lon="9.3937804"><ele>130.66666666666666</ele><time>2026-04-25T12:26:53.705Z</time></trkpt><trkpt lat="45.5238452" lon="9.393592"><ele>130.33333333333334</ele><time>2026-04-25T12:26:54.706Z</time></trkpt><trkpt lat="45.523964" lon="9.3933993"><ele>130.0</ele><time>2026-04-25T12:26:55.706Z</time></trkpt><trkpt lat="45.5240723" lon="9.393203"><ele>129.66666666666669</ele><time>2026-04-25T12:26:56.706Z</time></trkpt><trkpt lat="45.5241708" lon="9.3930033"><ele>129.33333333333334</ele><time>2026-04-25T12:26:57.706Z</time></trkpt><trkpt lat="45.5242604" lon="9.3928031"><ele>129.0</ele><time>2026-04-25T12:26:58.705Z</time></trkpt><trkpt lat="45.5243434" lon="9.3926013"><ele>129.0</ele><time>2026-04-25T12:26:59.706Z</time></trkpt><trkpt lat="45.5244203" lon="9.3923952"><ele>129.0</ele><time>2026-04-25T12:27:00.706Z</time></trkpt><trkpt lat="45.5244906" lon="9.392184"><ele>129.0</ele><time>2026-04-25T12:27:01.705Z</time></trkpt><trkpt lat="45.5245553" lon="9.3919707"><ele>129.66666666666666</ele><time>2026-04-25T12:27:02.706Z</time></trkpt><trkpt lat="45.5246148" lon="9.391754"><ele>130.33333333333331</ele><time>2026-04-25T12:27:03.705Z</time></trkpt><trkpt lat="45.5246659" lon="9.3915412"><ele>131.0</ele><time>2026-04-25T12:27:04.706Z</time></trkpt><trkpt lat="45.5247119" lon="9.3913181"><ele>131.5</ele><time>2026-04-25T12:27:05.706Z</time></trkpt><trkpt lat="45.5247451" lon="9.3911209"><ele>132.0</ele><time>2026-04-25T12:27:06.706Z</time></trkpt><trkpt lat="45.5247738" lon="9.39091"><ele>132.5</ele><time>2026-04-25T12:27:07.706Z</time></trkpt><trkpt lat="45.5247967" lon="9.3906992"><ele>133.0</ele><time>2026-04-25T12:27:08.705Z</time></trkpt><trkpt lat="45.5248144" lon="9.3904887"><ele>133.0</ele><time>2026-04-25T12:27:09.706Z</time></trkpt><trkpt lat="45.5248257" lon="9.3902797"><ele>133.0</ele><time>2026-04-25T12:27:10.706Z</time></trkpt><trkpt lat="45.5248295" lon="9.3900744"><ele>133.0</ele><time>2026-04-25T12:27:11.705Z</time></trkpt><trkpt lat="45.5248264" lon="9.3898764"><ele>133.0</ele><time>2026-04-25T12:27:12.706Z</time></trkpt><trkpt lat="45.5248169" lon="9.3896885"><ele>133.4</ele><time>2026-04-25T12:27:13.706Z</time></trkpt><trkpt lat="45.5248027" lon="9.3895097"><ele>133.8</ele><time>2026-04-25T12:27:14.705Z</time></trkpt><trkpt lat="45.524784" lon="9.3893354"><ele>134.2</ele><time>2026-04-25T12:27:15.706Z</time></trkpt><trkpt lat="45.5247642" lon="9.3891832"><ele>134.6</ele><time>2026-04-25T12:27:16.706Z</time></trkpt><trkpt lat="45.5247452" lon="9.3890717"><ele>135.0</ele><time>2026-04-25T12:27:17.705Z</time></trkpt><trkpt lat="45.5247272" lon="9.3889758"><ele>135.0</ele><time>2026-04-25T12:27:19.706Z</time></trkpt><trkpt lat="45.5247028" lon="9.3888625"><ele>135.0</ele><time>2026-04-25T12:28:31.706Z</time></trkpt><trkpt lat="45.5246884" lon="9.388772"><ele>135.0</ele><time>2026-04-25T12:28:32.706Z</time></trkpt><trkpt lat="45.5246734" lon="9.3886771"><ele>135.0</ele><time>2026-04-25T12:28:33.706Z</time></trkpt><trkpt lat="45.5246568" lon="9.3885751"><ele>135.0</ele><time>2026-04-25T12:28:34.706Z</time></trkpt><trkpt lat="45.5246344" lon="9.3884566"><ele>135.0</ele><time>2026-04-25T12:28:35.706Z</time></trkpt><trkpt lat="45.524604" lon="9.3883227"><ele>135.0</ele><time>2026-04-25T12:28:36.706Z</time></trkpt><trkpt lat="45.5245651" lon="9.3881716"><ele>135.0</ele><time>2026-04-25T12:28:37.705Z</time></trkpt><trkpt lat="45.5245209" lon="9.3880091"><ele>135.0</ele><time>2026-04-25T12:28:38.705Z</time></trkpt><trkpt lat="45.5244721" lon="9.3878404"><ele>135.0</ele><time>2026-04-25T12:28:39.706Z</time></trkpt><trkpt lat="45.5244208" lon="9.3876667"><ele>134.75</ele><time>2026-04-25T12:28:40.706Z</time></trkpt><trkpt lat="45.5243653" lon="9.3874799"><ele>134.5</ele><time>2026-04-25T12:28:41.706Z</time></trkpt><trkpt lat="45.5243136" lon="9.3873089"><ele>134.25</ele><time>2026-04-25T12:28:42.706Z</time></trkpt><trkpt lat="45.52426" lon="9.38713"><ele>134.0</ele><time>2026-04-25T12:28:43.705Z</time></trkpt><trkpt lat="45.524204" lon="9.3869493"><ele>134.0</ele><time>2026-04-25T12:28:44.706Z</time></trkpt><trkpt lat="45.5241475" lon="9.3867676"><ele>134.0</ele><time>2026-04-25T12:28:45.705Z</time></trkpt><trkpt lat="45.5240938" lon="9.3865939"><ele>134.0</ele><time>2026-04-25T12:28:46.706Z</time></trkpt><trkpt lat="45.5240427" lon="9.3864271"><ele>134.0</ele><time>2026-04-25T12:28:47.706Z</time></trkpt><trkpt lat="45.5239933" lon="9.3862657"><ele>134.0</ele><time>2026-04-25T12:28:48.705Z</time></trkpt><trkpt lat="45.523944" lon="9.3861047"><ele>134.0</ele><time>2026-04-25T12:28:49.705Z</time></trkpt><trkpt lat="45.5238941" lon="9.3859399"><ele>134.0</ele><time>2026-04-25T12:28:50.705Z</time></trkpt><trkpt lat="45.5238441" lon="9.3857749"><ele>134.0</ele><time>2026-04-25T12:28:51.705Z</time></trkpt><trkpt lat="45.5237935" lon="9.3856086"><ele>133.75</ele><time>2026-04-25T12:28:52.705Z</time></trkpt><trkpt lat="45.5237423" lon="9.3854394"><ele>133.5</ele><time>2026-04-25T12:28:53.706Z</time></trkpt><trkpt lat="45.5236901" lon="9.3852685"><ele>133.25</ele><time>2026-04-25T12:28:54.705Z</time></trkpt><trkpt lat="45.5236408" lon="9.3851046"><ele>133.0</ele><time>2026-04-25T12:28:55.706Z</time></trkpt><trkpt lat="45.5235926" lon="9.3849478"><ele>133.0</ele><time>2026-04-25T12:28:56.705Z</time></trkpt><trkpt lat="45.5235432" lon="9.3847883"><ele>133.0</ele><time>2026-04-25T12:28:57.706Z</time></trkpt><trkpt lat="45.5234995" lon="9.3846456"><ele>133.0</ele><time>2026-04-25T12:28:58.706Z</time></trkpt><trkpt lat="45.5234536" lon="9.3844916"><ele>133.0</ele><time>2026-04-25T12:28:59.706Z</time></trkpt><trkpt lat="45.5234063" lon="9.3843333"><ele>133.25</ele><time>2026-04-25T12:29:00.706Z</time></trkpt><trkpt lat="45.5233584" lon="9.3841723"><ele>133.5</ele><time>2026-04-25T12:29:01.705Z</time></trkpt><trkpt lat="45.5233108" lon="9.3840082"><ele>133.75</ele><time>2026-04-25T12:29:02.705Z</time></trkpt><trkpt lat="45.5232636" lon="9.3838437"><ele>134.0</ele><time>2026-04-25T12:29:03.705Z</time></trkpt><trkpt lat="45.523218" lon="9.383674"><ele>134.0</ele><time>2026-04-25T12:29:04.705Z</time></trkpt><trkpt lat="45.5231781" lon="9.3835075"><ele>134.0</ele><time>2026-04-25T12:29:05.706Z</time></trkpt><trkpt lat="45.52314" lon="9.3833143"><ele>134.0</ele><time>2026-04-25T12:29:06.705Z</time></trkpt><trkpt lat="45.5231096" lon="9.3831208"><ele>134.0</ele><time>2026-04-25T12:29:07.706Z</time></trkpt><trkpt lat="45.5230834" lon="9.3829208"><ele>134.0</ele><time>2026-04-25T12:29:08.705Z</time></trkpt><trkpt lat="45.5230584" lon="9.3827156"><ele>134.0</ele><time>2026-04-25T12:29:09.706Z</time></trkpt><trkpt lat="45.5230322" lon="9.3824965"><ele>134.0</ele><time>2026-04-25T12:29:10.706Z</time></trkpt><trkpt lat="45.5230034" lon="9.3822577"><ele>133.66666666666666</ele><time>2026-04-25T12:29:11.706Z</time></trkpt><trkpt lat="45.5229707" lon="9.3819837"><ele>133.33333333333334</ele><time>2026-04-25T12:29:12.705Z</time></trkpt><trkpt lat="45.5229328" lon="9.3816692"><ele>133.0</ele><time>2026-04-25T12:29:13.706Z</time></trkpt><trkpt lat="45.5228898" lon="9.3813188"><ele>133.5</ele><time>2026-04-25T12:29:14.705Z</time></trkpt><trkpt lat="45.5228427" lon="9.3809363"><ele>134.0</ele><time>2026-04-25T12:29:15.706Z</time></trkpt><trkpt lat="45.522794" lon="9.3805039"><ele>134.0</ele><time>2026-04-25T12:29:16.705Z</time></trkpt><trkpt lat="45.5227451" lon="9.3800419"><ele>134.0</ele><time>2026-04-25T12:29:17.706Z</time></trkpt><trkpt lat="45.5226936" lon="9.3795896"><ele>133.5</ele><time>2026-04-25T12:29:18.706Z</time></trkpt><trkpt lat="45.5226483" lon="9.3791475"><ele>133.0</ele><time>2026-04-25T12:29:19.706Z</time></trkpt><trkpt lat="45.5226039" lon="9.3787359"><ele>132.0</ele><time>2026-04-25T12:29:20.706Z</time></trkpt><trkpt lat="45.5225607" lon="9.3783651"><ele>131.0</ele><time>2026-04-25T12:29:21.705Z</time></trkpt><trkpt lat="45.5225295" lon="9.3780372"><ele>130.33333333333331</ele><time>2026-04-25T12:29:22.706Z</time></trkpt><trkpt lat="45.5224911" lon="9.3777586"><ele>129.66666666666666</ele><time>2026-04-25T12:29:23.706Z</time></trkpt><trkpt lat="45.5224553" lon="9.3774702"><ele>129.0</ele><time>2026-04-25T12:29:24.705Z</time></trkpt><trkpt lat="45.5224217" lon="9.3771901"><ele>130.0</ele><time>2026-04-25T12:29:25.706Z</time></trkpt><trkpt lat="45.5223888" lon="9.3769154"><ele>131.0</ele><time>2026-04-25T12:29:26.705Z</time></trkpt><trkpt lat="45.5223564" lon="9.3766434"><ele>132.0</ele><time>2026-04-25T12:29:27.705Z</time></trkpt><trkpt lat="45.5223243" lon="9.3763753"><ele>132.0</ele><time>2026-04-25T12:29:28.705Z</time></trkpt><trkpt lat="45.5222899" lon="9.3760877"><ele>132.0</ele><time>2026-04-25T12:29:29.705Z</time></trkpt><trkpt lat="45.5222606" lon="9.3758421"><ele>132.0</ele><time>2026-04-25T12:29:30.706Z</time></trkpt><trkpt lat="45.5222311" lon="9.3755927"><ele>132.0</ele><time>2026-04-25T12:29:31.705Z</time></trkpt><trkpt lat="45.5222024" lon="9.3753471"><ele>132.0</ele><time>2026-04-25T12:29:32.705Z</time></trkpt><trkpt lat="45.5221724" lon="9.3750956"><ele>132.0</ele><time>2026-04-25T12:29:33.705Z</time></trkpt><trkpt lat="45.5221388" lon="9.3748447"><ele>132.0</ele><time>2026-04-25T12:29:34.706Z</time></trkpt><trkpt lat="45.5221094" lon="9.3745899"><ele>132.0</ele><time>2026-04-25T12:29:35.705Z</time></trkpt><trkpt lat="45.5220801" lon="9.3743336"><ele>132.0</ele><time>2026-04-25T12:29:36.706Z</time></trkpt><trkpt lat="45.5220505" lon="9.3740791"><ele>132.66666666666666</ele><time>2026-04-25T12:29:37.705Z</time></trkpt><trkpt lat="45.5220206" lon="9.3738185"><ele>133.33333333333331</ele><time>2026-04-25T12:29:38.705Z</time></trkpt><trkpt lat="45.5219903" lon="9.373555"><ele>134.0</ele><time>2026-04-25T12:29:39.706Z</time></trkpt><trkpt lat="45.5219586" lon="9.3732853"><ele>133.33333333333331</ele><time>2026-04-25T12:29:40.706Z</time></trkpt><trkpt lat="45.5219254" lon="9.3730176"><ele>132.66666666666666</ele><time>2026-04-25T12:29:41.705Z</time></trkpt><trkpt lat="45.5218904" lon="9.3727469"><ele>132.0</ele><time>2026-04-25T12:29:42.706Z</time></trkpt><trkpt lat="45.5218541" lon="9.3724845"><ele>132.0</ele><time>2026-04-25T12:29:43.706Z</time></trkpt><trkpt lat="45.5218183" lon="9.3722377"><ele>132.0</ele><time>2026-04-25T12:29:44.705Z</time></trkpt><trkpt lat="45.5217829" lon="9.3720014"><ele>132.0</ele><time>2026-04-25T12:29:45.705Z</time></trkpt><trkpt lat="45.5217482" lon="9.3717694"><ele>131.66666666666666</ele><time>2026-04-25T12:29:46.706Z</time></trkpt><trkpt lat="45.5217119" lon="9.3715395"><ele>131.33333333333331</ele><time>2026-04-25T12:29:47.706Z</time></trkpt><trkpt lat="45.5216717" lon="9.3713098"><ele>131.0</ele><time>2026-04-25T12:29:48.705Z</time></trkpt><trkpt lat="45.521627" lon="9.371082"><ele>131.0</ele><time>2026-04-25T12:29:49.706Z</time></trkpt><trkpt lat="45.5215799" lon="9.3708618"><ele>131.0</ele><time>2026-04-25T12:29:50.706Z</time></trkpt><trkpt lat="45.5215317" lon="9.3706547"><ele>131.0</ele><time>2026-04-25T12:29:51.706Z</time></trkpt><trkpt lat="45.5214839" lon="9.3704606"><ele>131.4</ele><time>2026-04-25T12:29:52.705Z</time></trkpt><trkpt lat="45.5214406" lon="9.3702933"><ele>131.8</ele><time>2026-04-25T12:29:53.706Z</time></trkpt><trkpt lat="45.5213948" lon="9.3701249"><ele>132.20000000000002</ele><time>2026-04-25T12:29:54.706Z</time></trkpt><trkpt lat="45.5213562" lon="9.3699884"><ele>132.6</ele><time>2026-04-25T12:29:55.706Z</time></trkpt><trkpt lat="45.5213242" lon="9.3698731"><ele>133.0</ele><time>2026-04-25T12:29:56.705Z</time></trkpt><trkpt lat="45.5212999" lon="9.3697722"><ele>132.83333333333334</ele><time>2026-04-25T12:29:57.705Z</time></trkpt><trkpt lat="45.5212846" lon="9.3696748"><ele>132.66666666666669</ele><time>2026-04-25T12:29:58.705Z</time></trkpt><trkpt lat="45.5212732" lon="9.3694991"><ele>132.5</ele><time>2026-04-25T12:30:00.705Z</time></trkpt><trkpt lat="45.5212504" lon="9.3694139"><ele>132.33333333333334</ele><time>2026-04-25T12:30:01.706Z</time></trkpt><trkpt lat="45.5212096" lon="9.3693334"><ele>132.16666666666666</ele><time>2026-04-25T12:30:02.706Z</time></trkpt><trkpt lat="45.5211608" lon="9.3692446"><ele>132.0</ele><time>2026-04-25T12:30:03.705Z</time></trkpt><trkpt lat="45.5211118" lon="9.3691409"><ele>132.0</ele><time>2026-04-25T12:30:04.705Z</time></trkpt><trkpt lat="45.5210659" lon="9.3690264"><ele>132.0</ele><time>2026-04-25T12:30:05.706Z</time></trkpt><trkpt lat="45.5210199" lon="9.368904"><ele>132.0</ele><time>2026-04-25T12:30:06.706Z</time></trkpt><trkpt lat="45.5209738" lon="9.3687727"><ele>132.0</ele><time>2026-04-25T12:30:07.706Z</time></trkpt><trkpt lat="45.5209251" lon="9.3686322"><ele>132.0</ele><time>2026-04-25T12:30:08.705Z</time></trkpt><trkpt lat="45.5208771" lon="9.3684936"><ele>132.25</ele><time>2026-04-25T12:30:09.706Z</time></trkpt><trkpt lat="45.5208201" lon="9.3683311"><ele>132.5</ele><time>2026-04-25T12:30:10.706Z</time></trkpt><trkpt lat="45.5207652" lon="9.3681747"><ele>132.75</ele><time>2026-04-25T12:30:11.706Z</time></trkpt><trkpt lat="45.5207091" lon="9.3680094"><ele>133.0</ele><time>2026-04-25T12:30:12.706Z</time></trkpt><trkpt lat="45.5206483" lon="9.3678298"><ele>133.0</ele><time>2026-04-25T12:30:13.705Z</time></trkpt><trkpt lat="45.5205867" lon="9.3676493"><ele>133.0</ele><time>2026-04-25T12:30:14.705Z</time></trkpt><trkpt lat="45.5205284" lon="9.367476"><ele>133.0</ele><time>2026-04-25T12:30:15.706Z</time></trkpt><trkpt lat="45.5204705" lon="9.3673059"><ele>133.0</ele><time>2026-04-25T12:30:16.706Z</time></trkpt><trkpt lat="45.5204123" lon="9.367134"><ele>133.0</ele><time>2026-04-25T12:30:17.706Z</time></trkpt><trkpt lat="45.5203538" lon="9.3669608"><ele>133.0</ele><time>2026-04-25T12:30:18.705Z</time></trkpt><trkpt lat="45.5202958" lon="9.3667887"><ele>133.0</ele><time>2026-04-25T12:30:19.705Z</time></trkpt><trkpt lat="45.5202411" lon="9.3666259"><ele>133.0</ele><time>2026-04-25T12:30:20.705Z</time></trkpt><trkpt lat="45.5201894" lon="9.3664722"><ele>132.8</ele><time>2026-04-25T12:30:21.705Z</time></trkpt><trkpt lat="45.520141" lon="9.3663295"><ele>132.60000000000002</ele><time>2026-04-25T12:30:22.705Z</time></trkpt><trkpt lat="45.5200955" lon="9.3661982"><ele>132.39999999999998</ele><time>2026-04-25T12:30:23.705Z</time></trkpt><trkpt lat="45.5200505" lon="9.3660722"><ele>132.2</ele><time>2026-04-25T12:30:24.706Z</time></trkpt><trkpt lat="45.5200055" lon="9.3659487"><ele>132.0</ele><time>2026-04-25T12:30:25.705Z</time></trkpt><trkpt lat="45.519949" lon="9.3658013"><ele>132.0</ele><time>2026-04-25T12:30:26.705Z</time></trkpt><trkpt lat="45.5198927" lon="9.3656619"><ele>132.0</ele><time>2026-04-25T12:30:27.705Z</time></trkpt><trkpt lat="45.5198373" lon="9.3655256"><ele>132.0</ele><time>2026-04-25T12:30:28.706Z</time></trkpt><trkpt lat="45.5197799" lon="9.3653876"><ele>132.0</ele><time>2026-04-25T12:30:29.705Z</time></trkpt><trkpt lat="45.5197194" lon="9.3652414"><ele>132.2</ele><time>2026-04-25T12:30:30.705Z</time></trkpt><trkpt lat="45.5196624" lon="9.365096"><ele>132.39999999999998</ele><time>2026-04-25T12:30:31.706Z</time></trkpt><trkpt lat="45.5196119" lon="9.3649597"><ele>132.60000000000002</ele><time>2026-04-25T12:30:32.705Z</time></trkpt><trkpt lat="45.5195641" lon="9.3648366"><ele>132.8</ele><time>2026-04-25T12:30:33.705Z</time></trkpt><trkpt lat="45.519518" lon="9.3647279"><ele>133.0</ele><time>2026-04-25T12:30:34.705Z</time></trkpt><trkpt lat="45.5194746" lon="9.3646291"><ele>133.16666666666669</ele><time>2026-04-25T12:30:35.705Z</time></trkpt><trkpt lat="45.519434" lon="9.3645391"><ele>133.33333333333334</ele><time>2026-04-25T12:30:36.705Z</time></trkpt><trkpt lat="45.5193971" lon="9.3644576"><ele>133.5</ele><time>2026-04-25T12:30:37.706Z</time></trkpt><trkpt lat="45.5193453" lon="9.3643146"><ele>133.66666666666666</ele><time>2026-04-25T12:30:39.706Z</time></trkpt><trkpt lat="45.5193111" lon="9.3642166"><ele>133.83333333333331</ele><time>2026-04-25T12:30:41.706Z</time></trkpt><trkpt lat="45.5192823" lon="9.364133"><ele>134.0</ele><time>2026-04-25T12:30:44.706Z</time></trkpt><trkpt lat="45.5192217" lon="9.3639857"><ele>134.0</ele><time>2026-04-25T12:31:28.705Z</time></trkpt><trkpt lat="45.5191832" lon="9.3638823"><ele>134.0</ele><time>2026-04-25T12:31:29.705Z</time></trkpt><trkpt lat="45.5191392" lon="9.3637615"><ele>134.0</ele><time>2026-04-25T12:31:30.706Z</time></trkpt><trkpt lat="45.5190916" lon="9.3636331"><ele>134.0</ele><time>2026-04-25T12:31:31.706Z</time></trkpt><trkpt lat="45.5190406" lon="9.3634955"><ele>134.0</ele><time>2026-04-25T12:31:32.706Z</time></trkpt><trkpt lat="45.5189914" lon="9.3633511"><ele>134.0</ele><time>2026-04-25T12:31:33.706Z</time></trkpt><trkpt lat="45.5189492" lon="9.3631905"><ele>134.0</ele><time>2026-04-25T12:31:34.705Z</time></trkpt><trkpt lat="45.5189234" lon="9.3630401"><ele>134.0</ele><time>2026-04-25T12:31:35.706Z</time></trkpt><trkpt lat="45.5188996" lon="9.3628667"><ele>134.0</ele><time>2026-04-25T12:31:36.705Z</time></trkpt><trkpt lat="45.5188751" lon="9.3626732"><ele>134.0</ele><time>2026-04-25T12:31:37.705Z</time></trkpt><trkpt lat="45.5188517" lon="9.3624969"><ele>134.0</ele><time>2026-04-25T12:31:38.706Z</time></trkpt><trkpt lat="45.5188237" lon="9.3623008"><ele>134.0</ele><time>2026-04-25T12:31:39.705Z</time></trkpt><trkpt lat="45.5187934" lon="9.3621116"><ele>134.0</ele><time>2026-04-25T12:31:40.706Z</time></trkpt><trkpt lat="45.5187643" lon="9.3619323"><ele>133.6</ele><time>2026-04-25T12:31:41.706Z</time></trkpt><trkpt lat="45.518737" lon="9.361766"><ele>133.2</ele><time>2026-04-25T12:31:42.705Z</time></trkpt><trkpt lat="45.5187114" lon="9.3616137"><ele>132.79999999999998</ele><time>2026-04-25T12:31:43.706Z</time></trkpt><trkpt lat="45.5186882" lon="9.3614741"><ele>132.4</ele><time>2026-04-25T12:31:44.706Z</time></trkpt><trkpt lat="45.518667" lon="9.3613462"><ele>132.0</ele><time>2026-04-25T12:31:45.706Z</time></trkpt><trkpt lat="45.5186489" lon="9.3612336"><ele>131.79999999999998</ele><time>2026-04-25T12:31:46.706Z</time></trkpt><trkpt lat="45.5186333" lon="9.3611344"><ele>131.6</ele><time>2026-04-25T12:31:47.706Z</time></trkpt><trkpt lat="45.5186138" lon="9.3609987"><ele>131.39999999999998</ele><time>2026-04-25T12:31:49.705Z</time></trkpt><trkpt lat="45.5185976" lon="9.3609026"><ele>131.2</ele><time>2026-04-25T12:32:29.705Z</time></trkpt><trkpt lat="45.518566" lon="9.3607136"><ele>131.0</ele><time>2026-04-25T12:32:31.706Z</time></trkpt><trkpt lat="45.5185496" lon="9.3605877"><ele>130.5</ele><time>2026-04-25T12:32:32.705Z</time></trkpt><trkpt lat="45.5185275" lon="9.3604476"><ele>130.0</ele><time>2026-04-25T12:32:33.705Z</time></trkpt><trkpt lat="45.5185029" lon="9.3602956"><ele>129.5</ele><time>2026-04-25T12:32:34.706Z</time></trkpt><trkpt lat="45.5184771" lon="9.3601305"><ele>129.0</ele><time>2026-04-25T12:32:35.705Z</time></trkpt><trkpt lat="45.5184508" lon="9.359951"><ele>129.0</ele><time>2026-04-25T12:32:36.705Z</time></trkpt><trkpt lat="45.5184219" lon="9.359762"><ele>129.0</ele><time>2026-04-25T12:32:37.705Z</time></trkpt><trkpt lat="45.5183908" lon="9.359563"><ele>129.0</ele><time>2026-04-25T12:32:38.706Z</time></trkpt><trkpt lat="45.5183587" lon="9.3593568"><ele>129.0</ele><time>2026-04-25T12:32:39.706Z</time></trkpt><trkpt lat="45.5183255" lon="9.3591394"><ele>129.0</ele><time>2026-04-25T12:32:40.705Z</time></trkpt><trkpt lat="45.518288" lon="9.3589001"><ele>129.0</ele><time>2026-04-25T12:32:41.705Z</time></trkpt><trkpt lat="45.5182542" lon="9.3586821"><ele>129.0</ele><time>2026-04-25T12:32:42.705Z</time></trkpt><trkpt lat="45.5182173" lon="9.3584383"><ele>129.0</ele><time>2026-04-25T12:32:43.705Z</time></trkpt><trkpt lat="45.5181775" lon="9.3581834"><ele>129.0</ele><time>2026-04-25T12:32:44.706Z</time></trkpt><trkpt lat="45.5181369" lon="9.3579163"><ele>129.0</ele><time>2026-04-25T12:32:45.705Z</time></trkpt><trkpt lat="45.5180942" lon="9.3576355"><ele>129.0</ele><time>2026-04-25T12:32:46.705Z</time></trkpt><trkpt lat="45.5180496" lon="9.3573429"><ele>129.0</ele><time>2026-04-25T12:32:47.706Z</time></trkpt><trkpt lat="45.5180047" lon="9.3570453"><ele>129.0</ele><time>2026-04-25T12:32:48.706Z</time></trkpt><trkpt lat="45.5179601" lon="9.3567474"><ele>129.0</ele><time>2026-04-25T12:32:49.706Z</time></trkpt><trkpt lat="45.5179162" lon="9.3564564"><ele>129.0</ele><time>2026-04-25T12:32:50.705Z</time></trkpt><trkpt lat="45.5178735" lon="9.3561766"><ele>129.0</ele><time>2026-04-25T12:32:51.706Z</time></trkpt><trkpt lat="45.5178318" lon="9.3559053"><ele>129.0</ele><time>2026-04-25T12:32:52.706Z</time></trkpt><trkpt lat="45.5177908" lon="9.3556422"><ele>129.0</ele><time>2026-04-25T12:32:53.706Z</time></trkpt><trkpt lat="45.5177526" lon="9.3553915"><ele>129.0</ele><time>2026-04-25T12:32:54.705Z</time></trkpt><trkpt lat="45.5177163" lon="9.3551567"><ele>129.0</ele><time>2026-04-25T12:32:55.706Z</time></trkpt><trkpt lat="45.5176828" lon="9.3549346"><ele>129.0</ele><time>2026-04-25T12:32:56.705Z</time></trkpt><trkpt lat="45.5176473" lon="9.3547139"><ele>129.0</ele><time>2026-04-25T12:32:57.706Z</time></trkpt><trkpt lat="45.5176189" lon="9.354538"><ele>129.0</ele><time>2026-04-25T12:32:58.706Z</time></trkpt><trkpt lat="45.5175925" lon="9.3543715"><ele>129.2</ele><time>2026-04-25T12:32:59.706Z</time></trkpt><trkpt lat="45.5175717" lon="9.3542287"><ele>129.4</ele><time>2026-04-25T12:33:00.706Z</time></trkpt><trkpt lat="45.5175593" lon="9.3541134"><ele>129.6</ele><time>2026-04-25T12:33:01.705Z</time></trkpt><trkpt lat="45.5175602" lon="9.3540184"><ele>129.8</ele><time>2026-04-25T12:33:02.705Z</time></trkpt><trkpt lat="45.5176184" lon="9.353858"><ele>130.0</ele><time>2026-04-25T12:33:04.705Z</time></trkpt><trkpt lat="45.5176587" lon="9.3537577"><ele>130.0</ele><time>2026-04-25T12:33:05.706Z</time></trkpt><trkpt lat="45.5176692" lon="9.3536577"><ele>130.0</ele><time>2026-04-25T12:33:06.705Z</time></trkpt><trkpt lat="45.5175945" lon="9.3535212"><ele>130.0</ele><time>2026-04-25T12:33:08.706Z</time></trkpt><trkpt lat="45.5175322" lon="9.3534616"><ele>130.0</ele><time>2026-04-25T12:33:09.706Z</time></trkpt><trkpt lat="45.5174824" lon="9.3533821"><ele>130.0</ele><time>2026-04-25T12:33:10.705Z</time></trkpt><trkpt lat="45.5174453" lon="9.3532707"><ele>130.0</ele><time>2026-04-25T12:33:11.706Z</time></trkpt><trkpt lat="45.5174127" lon="9.3531217"><ele>130.0</ele><time>2026-04-25T12:33:12.705Z</time></trkpt><trkpt lat="45.5173756" lon="9.3529432"><ele>130.0</ele><time>2026-04-25T12:33:13.705Z</time></trkpt><trkpt lat="45.5173398" lon="9.3527597"><ele>130.0</ele><time>2026-04-25T12:33:14.705Z</time></trkpt><trkpt lat="45.5172996" lon="9.3525299"><ele>130.0</ele><time>2026-04-25T12:33:15.705Z</time></trkpt><trkpt lat="45.5172572" lon="9.3522605"><ele>130.0</ele><time>2026-04-25T12:33:16.706Z</time></trkpt><trkpt lat="45.5172166" lon="9.351972"><ele>130.0</ele><time>2026-04-25T12:33:17.705Z</time></trkpt><trkpt lat="45.5171754" lon="9.3516712"><ele>130.0</ele><time>2026-04-25T12:33:18.706Z</time></trkpt><trkpt lat="45.5171353" lon="9.3513816"><ele>130.0</ele><time>2026-04-25T12:33:19.706Z</time></trkpt><trkpt lat="45.5170964" lon="9.3511113"><ele>130.0</ele><time>2026-04-25T12:33:20.706Z</time></trkpt><trkpt lat="45.5170599" lon="9.3508599"><ele>130.0</ele><time>2026-04-25T12:33:21.705Z</time></trkpt><trkpt lat="45.5170253" lon="9.3506284"><ele>130.5</ele><time>2026-04-25T12:33:22.706Z</time></trkpt><trkpt lat="45.5169935" lon="9.3504108"><ele>131.0</ele><time>2026-04-25T12:33:23.706Z</time></trkpt><trkpt lat="45.516966" lon="9.3502073"><ele>131.5</ele><time>2026-04-25T12:33:24.705Z</time></trkpt><trkpt lat="45.5169459" lon="9.3500211"><ele>132.0</ele><time>2026-04-25T12:33:25.706Z</time></trkpt><trkpt lat="45.516932" lon="9.3498554"><ele>131.6</ele><time>2026-04-25T12:33:26.706Z</time></trkpt><trkpt lat="45.5169271" lon="9.3497065"><ele>131.2</ele><time>2026-04-25T12:33:27.706Z</time></trkpt><trkpt lat="45.5169334" lon="9.3495676"><ele>130.8</ele><time>2026-04-25T12:33:28.705Z</time></trkpt><trkpt lat="45.5169582" lon="9.3494188"><ele>130.4</ele><time>2026-04-25T12:33:29.706Z</time></trkpt><trkpt lat="45.5169966" lon="9.3492839"><ele>130.0</ele><time>2026-04-25T12:33:30.705Z</time></trkpt><trkpt lat="45.5170383" lon="9.3491462"><ele>130.0</ele><time>2026-04-25T12:33:31.706Z</time></trkpt><trkpt lat="45.517062" lon="9.3490123"><ele>130.0</ele><time>2026-04-25T12:33:32.706Z</time></trkpt><trkpt lat="45.5170532" lon="9.3488846"><ele>130.0</ele><time>2026-04-25T12:33:33.706Z</time></trkpt><trkpt lat="45.5170053" lon="9.3487608"><ele>130.0</ele><time>2026-04-25T12:33:34.705Z</time></trkpt><trkpt lat="45.5169286" lon="9.348645"><ele>130.0</ele><time>2026-04-25T12:33:35.706Z</time></trkpt><trkpt lat="45.5168395" lon="9.3485246"><ele>130.0</ele><time>2026-04-25T12:33:36.706Z</time></trkpt><trkpt lat="45.5167607" lon="9.3483763"><ele>130.0</ele><time>2026-04-25T12:33:37.706Z</time></trkpt><trkpt lat="45.5167014" lon="9.3482148"><ele>130.0</ele><time>2026-04-25T12:33:38.706Z</time></trkpt><trkpt lat="45.5166597" lon="9.3480638"><ele>130.0</ele><time>2026-04-25T12:33:39.706Z</time></trkpt><trkpt lat="45.5166283" lon="9.3479225"><ele>130.0</ele><time>2026-04-25T12:33:40.705Z</time></trkpt><trkpt lat="45.516605" lon="9.3477979"><ele>130.0</ele><time>2026-04-25T12:33:41.706Z</time></trkpt><trkpt lat="45.5165869" lon="9.3476819"><ele>130.0</ele><time>2026-04-25T12:33:42.706Z</time></trkpt><trkpt lat="45.5165704" lon="9.3475682"><ele>130.0</ele><time>2026-04-25T12:33:43.706Z</time></trkpt><trkpt lat="45.5165531" lon="9.3474512"><ele>130.0</ele><time>2026-04-25T12:33:44.705Z</time></trkpt><trkpt lat="45.5165315" lon="9.3473198"><ele>130.0</ele><time>2026-04-25T12:33:45.705Z</time></trkpt><trkpt lat="45.5165119" lon="9.3472027"><ele>130.0</ele><time>2026-04-25T12:33:46.706Z</time></trkpt><trkpt lat="45.5164916" lon="9.3470779"><ele>130.0</ele><time>2026-04-25T12:33:47.706Z</time></trkpt><trkpt lat="45.5164719" lon="9.3469548"><ele>130.0</ele><time>2026-04-25T12:33:48.705Z</time></trkpt><trkpt lat="45.5164521" lon="9.3468302"><ele>130.0</ele><time>2026-04-25T12:33:49.705Z</time></trkpt><trkpt lat="45.5164315" lon="9.3467026"><ele>130.0</ele><time>2026-04-25T12:33:50.706Z</time></trkpt><trkpt lat="45.5164104" lon="9.3465654"><ele>130.0</ele><time>2026-04-25T12:33:51.706Z</time></trkpt><trkpt lat="45.5163884" lon="9.3464231"><ele>130.0</ele><time>2026-04-25T12:33:52.705Z</time></trkpt><trkpt lat="45.5163655" lon="9.3462765"><ele>130.0</ele><time>2026-04-25T12:33:53.706Z</time></trkpt><trkpt lat="45.5163437" lon="9.3461312"><ele>130.0</ele><time>2026-04-25T12:33:54.705Z</time></trkpt><trkpt lat="45.5163222" lon="9.3459865"><ele>130.0</ele><time>2026-04-25T12:33:55.705Z</time></trkpt><trkpt lat="45.5163009" lon="9.3458397"><ele>130.0</ele><time>2026-04-25T12:33:56.706Z</time></trkpt><trkpt lat="45.5162799" lon="9.3456908"><ele>130.0</ele><time>2026-04-25T12:33:57.705Z</time></trkpt><trkpt lat="45.5162604" lon="9.3455416"><ele>130.0</ele><time>2026-04-25T12:33:58.706Z</time></trkpt><trkpt lat="45.516241" lon="9.3453939"><ele>130.0</ele><time>2026-04-25T12:33:59.705Z</time></trkpt><trkpt lat="45.5162199" lon="9.3452426"><ele>130.0</ele><time>2026-04-25T12:34:00.705Z</time></trkpt><trkpt lat="45.5161964" lon="9.3450827"><ele>129.8</ele><time>2026-04-25T12:34:01.706Z</time></trkpt><trkpt lat="45.5161753" lon="9.3449424"><ele>129.6</ele><time>2026-04-25T12:34:02.705Z</time></trkpt><trkpt lat="45.5161533" lon="9.3447987"><ele>129.4</ele><time>2026-04-25T12:34:03.706Z</time></trkpt><trkpt lat="45.5161328" lon="9.344668"><ele>129.2</ele><time>2026-04-25T12:34:04.705Z</time></trkpt><trkpt lat="45.5161132" lon="9.3445446"><ele>129.0</ele><time>2026-04-25T12:34:05.705Z</time></trkpt><trkpt lat="45.5160949" lon="9.3444297"><ele>129.0</ele><time>2026-04-25T12:34:06.705Z</time></trkpt><trkpt lat="45.5160771" lon="9.3443194"><ele>129.0</ele><time>2026-04-25T12:34:07.705Z</time></trkpt><trkpt lat="45.5160621" lon="9.3442204"><ele>129.0</ele><time>2026-04-25T12:34:08.706Z</time></trkpt><trkpt lat="45.5160524" lon="9.3441307"><ele>129.0</ele><time>2026-04-25T12:34:09.705Z</time></trkpt><trkpt lat="45.5160578" lon="9.3439721"><ele>129.0</ele><time>2026-04-25T12:34:11.705Z</time></trkpt><trkpt lat="45.5160606" lon="9.3438315"><ele>129.0</ele><time>2026-04-25T12:34:13.706Z</time></trkpt><trkpt lat="45.5160025" lon="9.3436926"><ele>129.0</ele><time>2026-04-25T12:34:15.706Z</time></trkpt><trkpt lat="45.5159695" lon="9.3436156"><ele>129.0</ele><time>2026-04-25T12:34:16.706Z</time></trkpt><trkpt lat="45.5159406" lon="9.3435131"><ele>129.0</ele><time>2026-04-25T12:34:17.705Z</time></trkpt><trkpt lat="45.5159221" lon="9.3434073"><ele>129.0</ele><time>2026-04-25T12:34:18.705Z</time></trkpt><trkpt lat="45.5159075" lon="9.3432808"><ele>129.0</ele><time>2026-04-25T12:34:19.705Z</time></trkpt><trkpt lat="45.5158941" lon="9.343139"><ele>129.0</ele><time>2026-04-25T12:34:20.706Z</time></trkpt><trkpt lat="45.5158768" lon="9.3429713"><ele>129.0</ele><time>2026-04-25T12:34:21.706Z</time></trkpt><trkpt lat="45.5158532" lon="9.3427578"><ele>129.0</ele><time>2026-04-25T12:34:22.706Z</time></trkpt><trkpt lat="45.5158235" lon="9.3424799"><ele>129.0</ele><time>2026-04-25T12:34:23.705Z</time></trkpt><trkpt lat="45.5157993" lon="9.3421413"><ele>129.0</ele><time>2026-04-25T12:34:24.706Z</time></trkpt><trkpt lat="45.5157697" lon="9.3417711"><ele>129.0</ele><time>2026-04-25T12:34:25.706Z</time></trkpt><trkpt lat="45.5157402" lon="9.3413713"><ele>128.5</ele><time>2026-04-25T12:34:26.705Z</time></trkpt><trkpt lat="45.5157083" lon="9.3409687"><ele>128.0</ele><time>2026-04-25T12:34:27.706Z</time></trkpt><trkpt lat="45.5156866" lon="9.3405899"><ele>128.33333333333331</ele><time>2026-04-25T12:34:28.706Z</time></trkpt><trkpt lat="45.5156673" lon="9.3402586"><ele>128.66666666666666</ele><time>2026-04-25T12:34:29.706Z</time></trkpt><trkpt lat="45.5156473" lon="9.3399534"><ele>129.0</ele><time>2026-04-25T12:34:30.706Z</time></trkpt><trkpt lat="45.5156264" lon="9.3396716"><ele>129.0</ele><time>2026-04-25T12:34:31.705Z</time></trkpt><trkpt lat="45.5156046" lon="9.3394036"><ele>129.0</ele><time>2026-04-25T12:34:32.705Z</time></trkpt><trkpt lat="45.5155837" lon="9.3391339"><ele>129.0</ele><time>2026-04-25T12:34:33.705Z</time></trkpt><trkpt lat="45.5155709" lon="9.3389107"><ele>128.66666666666666</ele><time>2026-04-25T12:34:34.705Z</time></trkpt><trkpt lat="45.515567" lon="9.338674"><ele>128.33333333333331</ele><time>2026-04-25T12:34:35.705Z</time></trkpt><trkpt lat="45.5155759" lon="9.3384414"><ele>128.0</ele><time>2026-04-25T12:34:36.706Z</time></trkpt><trkpt lat="45.515594" lon="9.3382134"><ele>129.0</ele><time>2026-04-25T12:34:37.706Z</time></trkpt><trkpt lat="45.5156028" lon="9.3379867"><ele>130.0</ele><time>2026-04-25T12:34:38.705Z</time></trkpt><trkpt lat="45.5155813" lon="9.3377585"><ele>131.0</ele><time>2026-04-25T12:34:39.705Z</time></trkpt><trkpt lat="45.5155288" lon="9.3375241"><ele>131.0</ele><time>2026-04-25T12:34:40.705Z</time></trkpt><trkpt lat="45.5154773" lon="9.3372853"><ele>131.0</ele><time>2026-04-25T12:34:41.705Z</time></trkpt><trkpt lat="45.5154372" lon="9.3370413"><ele>131.0</ele><time>2026-04-25T12:34:42.705Z</time></trkpt><trkpt lat="45.5154126" lon="9.3368092"><ele>130.5</ele><time>2026-04-25T12:34:43.706Z</time></trkpt><trkpt lat="45.515395" lon="9.3365916"><ele>130.0</ele><time>2026-04-25T12:34:44.706Z</time></trkpt><trkpt lat="45.5153801" lon="9.3363888"><ele>129.5</ele><time>2026-04-25T12:34:45.706Z</time></trkpt><trkpt lat="45.5153663" lon="9.3361943"><ele>129.0</ele><time>2026-04-25T12:34:46.705Z</time></trkpt><trkpt lat="45.5153529" lon="9.3360097"><ele>128.75</ele><time>2026-04-25T12:34:47.705Z</time></trkpt><trkpt lat="45.5153394" lon="9.3358339"><ele>128.5</ele><time>2026-04-25T12:34:48.705Z</time></trkpt><trkpt lat="45.5153255" lon="9.3356495"><ele>128.25</ele><time>2026-04-25T12:34:49.705Z</time></trkpt><trkpt lat="45.5153129" lon="9.3354875"><ele>128.0</ele><time>2026-04-25T12:34:50.706Z</time></trkpt><trkpt lat="45.5152986" lon="9.3353132"><ele>128.0</ele><time>2026-04-25T12:34:51.706Z</time></trkpt><trkpt lat="45.5152829" lon="9.3351353"><ele>128.0</ele><time>2026-04-25T12:34:52.706Z</time></trkpt><trkpt lat="45.5152687" lon="9.3349543"><ele>128.0</ele><time>2026-04-25T12:34:53.705Z</time></trkpt><trkpt lat="45.5152548" lon="9.3347733"><ele>128.0</ele><time>2026-04-25T12:34:54.706Z</time></trkpt><trkpt lat="45.5152406" lon="9.3345894"><ele>128.0</ele><time>2026-04-25T12:34:55.705Z</time></trkpt><trkpt lat="45.5152257" lon="9.3344019"><ele>128.0</ele><time>2026-04-25T12:34:56.706Z</time></trkpt><trkpt lat="45.5152107" lon="9.3342151"><ele>128.0</ele><time>2026-04-25T12:34:57.706Z</time></trkpt><trkpt lat="45.5151951" lon="9.3340201"><ele>128.0</ele><time>2026-04-25T12:34:58.705Z</time></trkpt><trkpt lat="45.5151799" lon="9.333822"><ele>128.0</ele><time>2026-04-25T12:34:59.706Z</time></trkpt><trkpt lat="45.5151644" lon="9.3336216"><ele>128.0</ele><time>2026-04-25T12:35:00.705Z</time></trkpt><trkpt lat="45.5151494" lon="9.3334194"><ele>128.0</ele><time>2026-04-25T12:35:01.706Z</time></trkpt><trkpt lat="45.5151343" lon="9.3332154"><ele>128.0</ele><time>2026-04-25T12:35:02.705Z</time></trkpt><trkpt lat="45.5151181" lon="9.3330133"><ele>128.25</ele><time>2026-04-25T12:35:03.705Z</time></trkpt><trkpt lat="45.5151026" lon="9.3328115"><ele>128.5</ele><time>2026-04-25T12:35:04.706Z</time></trkpt><trkpt lat="45.5150866" lon="9.3326027"><ele>128.75</ele><time>2026-04-25T12:35:05.706Z</time></trkpt><trkpt lat="45.5150727" lon="9.332418"><ele>129.0</ele><time>2026-04-25T12:35:06.705Z</time></trkpt><trkpt lat="45.515058" lon="9.3322304"><ele>129.0</ele><time>2026-04-25T12:35:07.705Z</time></trkpt><trkpt lat="45.5150436" lon="9.3320529"><ele>129.0</ele><time>2026-04-25T12:35:08.705Z</time></trkpt><trkpt lat="45.5150293" lon="9.3318876"><ele>129.0</ele><time>2026-04-25T12:35:09.706Z</time></trkpt><trkpt lat="45.5150153" lon="9.3317332"><ele>129.0</ele><time>2026-04-25T12:35:10.706Z</time></trkpt><trkpt lat="45.515003" lon="9.3315954"><ele>129.0</ele><time>2026-04-25T12:35:11.705Z</time></trkpt><trkpt lat="45.5149925" lon="9.331477"><ele>129.2</ele><time>2026-04-25T12:35:12.706Z</time></trkpt><trkpt lat="45.5149831" lon="9.3313694"><ele>129.4</ele><time>2026-04-25T12:35:13.706Z</time></trkpt><trkpt lat="45.5149751" lon="9.3312676"><ele>129.6</ele><time>2026-04-25T12:35:14.705Z</time></trkpt><trkpt lat="45.5149857" lon="9.3311054"><ele>129.8</ele><time>2026-04-25T12:35:16.706Z</time></trkpt><trkpt lat="45.5150463" lon="9.3309662"><ele>130.0</ele><time>2026-04-25T12:35:18.705Z</time></trkpt><trkpt lat="45.5151317" lon="9.3308496"><ele>130.0</ele><time>2026-04-25T12:35:20.706Z</time></trkpt><trkpt lat="45.5152255" lon="9.3307708"><ele>130.0</ele><time>2026-04-25T12:35:22.706Z</time></trkpt><trkpt lat="45.5152864" lon="9.33074"><ele>130.0</ele><time>2026-04-25T12:35:23.705Z</time></trkpt><trkpt lat="45.5153607" lon="9.3307242"><ele>130.0</ele><time>2026-04-25T12:35:24.705Z</time></trkpt><trkpt lat="45.5154462" lon="9.3307177"><ele>130.0</ele><time>2026-04-25T12:35:25.706Z</time></trkpt><trkpt lat="45.5155406" lon="9.3307126"><ele>130.0</ele><time>2026-04-25T12:35:26.705Z</time></trkpt><trkpt lat="45.5156443" lon="9.3307069"><ele>130.0</ele><time>2026-04-25T12:35:27.706Z</time></trkpt><trkpt lat="45.5157572" lon="9.3307008"><ele>130.0</ele><time>2026-04-25T12:35:28.706Z</time></trkpt><trkpt lat="45.5158816" lon="9.3306954"><ele>130.0</ele><time>2026-04-25T12:35:29.705Z</time></trkpt><trkpt lat="45.5160159" lon="9.3306899"><ele>130.0</ele><time>2026-04-25T12:35:30.706Z</time></trkpt><trkpt lat="45.5161481" lon="9.3306839"><ele>130.0</ele><time>2026-04-25T12:35:31.706Z</time></trkpt><trkpt lat="45.5162803" lon="9.3306774"><ele>130.0</ele><time>2026-04-25T12:35:32.706Z</time></trkpt><trkpt lat="45.5164189" lon="9.330671"><ele>130.0</ele><time>2026-04-25T12:35:33.706Z</time></trkpt><trkpt lat="45.5165683" lon="9.3306638"><ele>130.0</ele><time>2026-04-25T12:35:34.706Z</time></trkpt><trkpt lat="45.5167293" lon="9.3306584"><ele>130.0</ele><time>2026-04-25T12:35:35.705Z</time></trkpt><trkpt lat="45.5168713" lon="9.3306525"><ele>130.0</ele><time>2026-04-25T12:35:36.706Z</time></trkpt><trkpt lat="45.5170162" lon="9.3306436"><ele>130.0</ele><time>2026-04-25T12:35:37.706Z</time></trkpt><trkpt lat="45.5171367" lon="9.3306362"><ele>130.0</ele><time>2026-04-25T12:35:38.706Z</time></trkpt><trkpt lat="45.5172542" lon="9.3306292"><ele>130.0</ele><time>2026-04-25T12:35:39.706Z</time></trkpt><trkpt lat="45.5173753" lon="9.3306232"><ele>130.0</ele><time>2026-04-25T12:35:40.706Z</time></trkpt><trkpt lat="45.5174999" lon="9.3306166"><ele>130.0</ele><time>2026-04-25T12:35:41.706Z</time></trkpt><trkpt lat="45.5176271" lon="9.3306104"><ele>130.0</ele><time>2026-04-25T12:35:42.706Z</time></trkpt><trkpt lat="45.5177524" lon="9.3306047"><ele>130.0</ele><time>2026-04-25T12:35:43.706Z</time></trkpt><trkpt lat="45.5178767" lon="9.3305991"><ele>130.0</ele><time>2026-04-25T12:35:44.706Z</time></trkpt><trkpt lat="45.5179989" lon="9.3305945"><ele>130.0</ele><time>2026-04-25T12:35:45.705Z</time></trkpt><trkpt lat="45.5181232" lon="9.3305892"><ele>130.0</ele><time>2026-04-25T12:35:46.706Z</time></trkpt><trkpt lat="45.518251" lon="9.330584"><ele>130.25</ele><time>2026-04-25T12:35:47.705Z</time></trkpt><trkpt lat="45.5183786" lon="9.3305785"><ele>130.5</ele><time>2026-04-25T12:35:48.706Z</time></trkpt><trkpt lat="45.5185117" lon="9.3305695"><ele>130.75</ele><time>2026-04-25T12:35:49.705Z</time></trkpt><trkpt lat="45.5186445" lon="9.330562"><ele>131.0</ele><time>2026-04-25T12:35:50.706Z</time></trkpt><trkpt lat="45.5187808" lon="9.3305552"><ele>131.0</ele><time>2026-04-25T12:35:51.706Z</time></trkpt><trkpt lat="45.5189179" lon="9.33055"><ele>131.0</ele><time>2026-04-25T12:35:52.706Z</time></trkpt><trkpt lat="45.5190568" lon="9.3305456"><ele>131.0</ele><time>2026-04-25T12:35:53.706Z</time></trkpt><trkpt lat="45.5191928" lon="9.3305404"><ele>131.0</ele><time>2026-04-25T12:35:54.706Z</time></trkpt><trkpt lat="45.5193234" lon="9.3305342"><ele>131.0</ele><time>2026-04-25T12:35:55.706Z</time></trkpt><trkpt lat="45.5194456" lon="9.3305293"><ele>131.0</ele><time>2026-04-25T12:35:56.705Z</time></trkpt><trkpt lat="45.519561" lon="9.3305241"><ele>131.0</ele><time>2026-04-25T12:35:57.706Z</time></trkpt><trkpt lat="45.5196732" lon="9.3305189"><ele>131.0</ele><time>2026-04-25T12:35:58.705Z</time></trkpt><trkpt lat="45.5197786" lon="9.3305136"><ele>131.0</ele><time>2026-04-25T12:35:59.706Z</time></trkpt><trkpt lat="45.5198748" lon="9.3305095"><ele>131.0</ele><time>2026-04-25T12:36:00.706Z</time></trkpt><trkpt lat="45.5199538" lon="9.3305056"><ele>131.0</ele><time>2026-04-25T12:36:01.705Z</time></trkpt><trkpt lat="45.5200295" lon="9.3304994"><ele>131.0</ele><time>2026-04-25T12:36:02.705Z</time></trkpt><trkpt lat="45.520124" lon="9.330422"><ele>131.0</ele><time>2026-04-25T12:36:04.705Z</time></trkpt><trkpt lat="45.520132" lon="9.3302532"><ele>131.0</ele><time>2026-04-25T12:36:06.705Z</time></trkpt><trkpt lat="45.5201266" lon="9.3301336"><ele>131.0</ele><time>2026-04-25T12:36:07.706Z</time></trkpt><trkpt lat="45.5201235" lon="9.3299906"><ele>131.0</ele><time>2026-04-25T12:36:08.705Z</time></trkpt><trkpt lat="45.5201214" lon="9.3298196"><ele>131.0</ele><time>2026-04-25T12:36:09.706Z</time></trkpt><trkpt lat="45.5201211" lon="9.3296191"><ele>131.0</ele><time>2026-04-25T12:36:10.706Z</time></trkpt><trkpt lat="45.5201201" lon="9.3294002"><ele>131.0</ele><time>2026-04-25T12:36:11.705Z</time></trkpt><trkpt lat="45.5201201" lon="9.3291875"><ele>131.0</ele><time>2026-04-25T12:36:12.706Z</time></trkpt><trkpt lat="45.5201218" lon="9.3289877"><ele>131.0</ele><time>2026-04-25T12:36:13.706Z</time></trkpt><trkpt lat="45.5201261" lon="9.3288011"><ele>131.0</ele><time>2026-04-25T12:36:14.706Z</time></trkpt><trkpt lat="45.5201283" lon="9.3286233"><ele>131.0</ele><time>2026-04-25T12:36:15.706Z</time></trkpt><trkpt lat="45.5201263" lon="9.3284514"><ele>131.0</ele><time>2026-04-25T12:36:16.705Z</time></trkpt><trkpt lat="45.5201229" lon="9.3282887"><ele>131.0</ele><time>2026-04-25T12:36:17.705Z</time></trkpt><trkpt lat="45.5201189" lon="9.3281036"><ele>131.0</ele><time>2026-04-25T12:36:18.705Z</time></trkpt><trkpt lat="45.5201166" lon="9.3279288"><ele>131.0</ele><time>2026-04-25T12:36:19.706Z</time></trkpt><trkpt lat="45.5201144" lon="9.3277651"><ele>131.0</ele><time>2026-04-25T12:36:20.705Z</time></trkpt><trkpt lat="45.5201121" lon="9.3276083"><ele>131.0</ele><time>2026-04-25T12:36:21.705Z</time></trkpt><trkpt lat="45.52011" lon="9.3274664"><ele>131.0</ele><time>2026-04-25T12:36:22.705Z</time></trkpt><trkpt lat="45.5201096" lon="9.3273409"><ele>131.0</ele><time>2026-04-25T12:36:23.706Z</time></trkpt><trkpt lat="45.520111" lon="9.327236"><ele>130.8</ele><time>2026-04-25T12:36:24.706Z</time></trkpt><trkpt lat="45.5201311" lon="9.327104"><ele>130.6</ele><time>2026-04-25T12:36:26.706Z</time></trkpt><trkpt lat="45.5202032" lon="9.3270154"><ele>130.4</ele><time>2026-04-25T12:36:28.705Z</time></trkpt><trkpt lat="45.5202709" lon="9.3268824"><ele>130.2</ele><time>2026-04-25T12:36:30.706Z</time></trkpt><trkpt lat="45.5202303" lon="9.3267215"><ele>130.0</ele><time>2026-04-25T12:36:32.706Z</time></trkpt><trkpt lat="45.5201895" lon="9.3266219"><ele>130.0</ele><time>2026-04-25T12:36:33.705Z</time></trkpt><trkpt lat="45.5201381" lon="9.3264907"><ele>130.0</ele><time>2026-04-25T12:36:34.705Z</time></trkpt><trkpt lat="45.52008" lon="9.3263566"><ele>130.0</ele><time>2026-04-25T12:36:35.705Z</time></trkpt><trkpt lat="45.520005" lon="9.3261967"><ele>130.0</ele><time>2026-04-25T12:36:36.705Z</time></trkpt><trkpt lat="45.5199158" lon="9.3260101"><ele>130.66666666666669</ele><time>2026-04-25T12:36:37.706Z</time></trkpt><trkpt lat="45.519818" lon="9.3257955"><ele>131.33333333333334</ele><time>2026-04-25T12:36:38.705Z</time></trkpt><trkpt lat="45.5197087" lon="9.3255554"><ele>132.0</ele><time>2026-04-25T12:36:39.706Z</time></trkpt><trkpt lat="45.5196019" lon="9.3253094"><ele>132.66666666666666</ele><time>2026-04-25T12:36:40.705Z</time></trkpt><trkpt lat="45.519502" lon="9.3250719"><ele>133.33333333333331</ele><time>2026-04-25T12:36:41.705Z</time></trkpt><trkpt lat="45.5194089" lon="9.3248407"><ele>134.0</ele><time>2026-04-25T12:36:42.705Z</time></trkpt><trkpt lat="45.5193152" lon="9.3246098"><ele>134.66666666666666</ele><time>2026-04-25T12:36:43.706Z</time></trkpt><trkpt lat="45.5192182" lon="9.3243758"><ele>135.33333333333334</ele><time>2026-04-25T12:36:44.706Z</time></trkpt><trkpt lat="45.519122" lon="9.3241422"><ele>136.0</ele><time>2026-04-25T12:36:45.705Z</time></trkpt><trkpt lat="45.5190289" lon="9.3239164"><ele>136.33333333333334</ele><time>2026-04-25T12:36:46.706Z</time></trkpt><trkpt lat="45.5189405" lon="9.3237014"><ele>136.66666666666666</ele><time>2026-04-25T12:36:47.706Z</time></trkpt><trkpt lat="45.5188573" lon="9.3235"><ele>137.0</ele><time>2026-04-25T12:36:48.706Z</time></trkpt><trkpt lat="45.5187844" lon="9.3233226"><ele>136.4</ele><time>2026-04-25T12:36:49.705Z</time></trkpt><trkpt lat="45.5187066" lon="9.3231407"><ele>135.79999999999998</ele><time>2026-04-25T12:36:50.705Z</time></trkpt><trkpt lat="45.5186459" lon="9.3229949"><ele>135.2</ele><time>2026-04-25T12:36:51.705Z</time></trkpt><trkpt lat="45.5186026" lon="9.3228747"><ele>134.6</ele><time>2026-04-25T12:36:52.705Z</time></trkpt><trkpt lat="45.5185791" lon="9.3227689"><ele>134.0</ele><time>2026-04-25T12:36:53.706Z</time></trkpt><trkpt lat="45.5185651" lon="9.3226651"><ele>133.2</ele><time>2026-04-25T12:36:54.706Z</time></trkpt><trkpt lat="45.5185538" lon="9.3225482"><ele>132.4</ele><time>2026-04-25T12:36:55.705Z</time></trkpt><trkpt lat="45.5185412" lon="9.322409"><ele>131.6</ele><time>2026-04-25T12:36:56.706Z</time></trkpt><trkpt lat="45.5185249" lon="9.3222512"><ele>130.8</ele><time>2026-04-25T12:36:57.706Z</time></trkpt><trkpt lat="45.5185088" lon="9.3220886"><ele>130.0</ele><time>2026-04-25T12:36:58.705Z</time></trkpt><trkpt lat="45.518493" lon="9.3219354"><ele>130.0</ele><time>2026-04-25T12:36:59.705Z</time></trkpt><trkpt lat="45.5184814" lon="9.3217953"><ele>130.0</ele><time>2026-04-25T12:37:00.706Z</time></trkpt><trkpt lat="45.5184728" lon="9.3216704"><ele>130.0</ele><time>2026-04-25T12:37:01.705Z</time></trkpt><trkpt lat="45.5184668" lon="9.321554"><ele>130.0</ele><time>2026-04-25T12:37:02.705Z</time></trkpt><trkpt lat="45.5184614" lon="9.3214258"><ele>130.0</ele><time>2026-04-25T12:37:03.706Z</time></trkpt><trkpt lat="45.518456" lon="9.3212842"><ele>130.0</ele><time>2026-04-25T12:37:04.706Z</time></trkpt><trkpt lat="45.5184506" lon="9.3211357"><ele>130.0</ele><time>2026-04-25T12:37:05.705Z</time></trkpt><trkpt lat="45.5184442" lon="9.3209623"><ele>130.0</ele><time>2026-04-25T12:37:06.706Z</time></trkpt><trkpt lat="45.5184371" lon="9.3207988"><ele>130.0</ele><time>2026-04-25T12:37:07.706Z</time></trkpt><trkpt lat="45.518429" lon="9.3206513"><ele>130.0</ele><time>2026-04-25T12:37:08.706Z</time></trkpt><trkpt lat="45.5184177" lon="9.3205123"><ele>130.0</ele><time>2026-04-25T12:37:09.705Z</time></trkpt><trkpt lat="45.5184058" lon="9.3203866"><ele>130.0</ele><time>2026-04-25T12:37:10.705Z</time></trkpt><trkpt lat="45.5184066" lon="9.3202831"><ele>130.0</ele><time>2026-04-25T12:37:11.705Z</time></trkpt><trkpt lat="45.5184654" lon="9.3201636"><ele>130.0</ele><time>2026-04-25T12:37:13.706Z</time></trkpt><trkpt lat="45.5185612" lon="9.3201441"><ele>130.0</ele><time>2026-04-25T12:37:15.706Z</time></trkpt><trkpt lat="45.5186081" lon="9.3202382"><ele>130.0</ele><time>2026-04-25T12:37:17.705Z</time></trkpt><trkpt lat="45.5186184" lon="9.320363"><ele>130.0</ele><time>2026-04-25T12:37:19.705Z</time></trkpt><trkpt lat="45.5186884" lon="9.3203778"><ele>130.0</ele><time>2026-04-25T12:37:22.706Z</time></trkpt><trkpt lat="45.5186889" lon="9.3202595"><ele>130.0</ele><time>2026-04-25T12:37:24.705Z</time></trkpt><trkpt lat="45.5186714" lon="9.3201127"><ele>130.0</ele><time>2026-04-25T12:37:26.705Z</time></trkpt><trkpt lat="45.5186307" lon="9.3200253"><ele>130.0</ele><time>2026-04-25T12:37:28.705Z</time></trkpt><trkpt lat="45.5185252" lon="9.3200006"><ele>130.0</ele><time>2026-04-25T12:37:30.706Z</time></trkpt><trkpt lat="45.5184247" lon="9.3200087"><ele>130.0</ele><time>2026-04-25T12:37:31.706Z</time></trkpt><trkpt lat="45.5182829" lon="9.3200218"><ele>130.0</ele><time>2026-04-25T12:37:32.706Z</time></trkpt><trkpt lat="45.5181281" lon="9.3200344"><ele>130.0</ele><time>2026-04-25T12:37:33.705Z</time></trkpt><trkpt lat="45.517975" lon="9.3200478"><ele>130.25</ele><time>2026-04-25T12:37:34.706Z</time></trkpt><trkpt lat="45.5178337" lon="9.3200612"><ele>130.5</ele><time>2026-04-25T12:37:35.706Z</time></trkpt><trkpt lat="45.5177006" lon="9.3200741"><ele>130.75</ele><time>2026-04-25T12:37:36.705Z</time></trkpt><trkpt lat="45.5175738" lon="9.3200871"><ele>131.0</ele><time>2026-04-25T12:37:37.706Z</time></trkpt><trkpt lat="45.5174675" lon="9.3200997"><ele>131.0</ele><time>2026-04-25T12:37:38.705Z</time></trkpt><trkpt lat="45.5173856" lon="9.3201031"><ele>131.0</ele><time>2026-04-25T12:37:39.706Z</time></trkpt><trkpt lat="45.517308" lon="9.3200284"><ele>131.0</ele><time>2026-04-25T12:37:41.705Z</time></trkpt><trkpt lat="45.5173426" lon="9.3198971"><ele>131.0</ele><time>2026-04-25T12:37:43.705Z</time></trkpt><trkpt lat="45.5174024" lon="9.319852"><ele>131.0</ele><time>2026-04-25T12:37:44.705Z</time></trkpt><trkpt lat="45.517484" lon="9.3198338"><ele>131.0</ele><time>2026-04-25T12:37:45.706Z</time></trkpt><trkpt lat="45.5175875" lon="9.3198363"><ele>131.0</ele><time>2026-04-25T12:37:46.705Z</time></trkpt><trkpt lat="45.5176941" lon="9.3198285"><ele>131.0</ele><time>2026-04-25T12:37:47.705Z</time></trkpt><trkpt lat="45.517803" lon="9.3198271"><ele>131.0</ele><time>2026-04-25T12:37:48.705Z</time></trkpt><trkpt lat="45.5179089" lon="9.3198279"><ele>131.0</ele><time>2026-04-25T12:37:49.705Z</time></trkpt><trkpt lat="45.5180195" lon="9.3198297"><ele>131.0</ele><time>2026-04-25T12:37:50.706Z</time></trkpt><trkpt lat="45.5181349" lon="9.3198404"><ele>130.8</ele><time>2026-04-25T12:37:51.705Z</time></trkpt><trkpt lat="45.5182476" lon="9.3198443"><ele>130.6</ele><time>2026-04-25T12:37:52.705Z</time></trkpt><trkpt lat="45.5183554" lon="9.3198477"><ele>130.4</ele><time>2026-04-25T12:37:53.706Z</time></trkpt><trkpt lat="45.5184592" lon="9.3198492"><ele>130.2</ele><time>2026-04-25T12:37:54.705Z</time></trkpt><trkpt lat="45.5185569" lon="9.3198434"><ele>130.0</ele><time>2026-04-25T12:37:55.706Z</time></trkpt><trkpt lat="45.5186515" lon="9.3198195"><ele>130.0</ele><time>2026-04-25T12:37:56.706Z</time></trkpt><trkpt lat="45.5187381" lon="9.3197741"><ele>130.0</ele><time>2026-04-25T12:37:57.705Z</time></trkpt><trkpt lat="45.5188238" lon="9.3197001"><ele>130.0</ele><time>2026-04-25T12:37:58.706Z</time></trkpt><trkpt lat="45.5189062" lon="9.3196007"><ele>130.0</ele><time>2026-04-25T12:37:59.705Z</time></trkpt><trkpt lat="45.5189843" lon="9.3195"><ele>130.0</ele><time>2026-04-25T12:38:00.705Z</time></trkpt><trkpt lat="45.5190657" lon="9.3194185"><ele>130.0</ele><time>2026-04-25T12:38:01.706Z</time></trkpt><trkpt lat="45.5191607" lon="9.3193723"><ele>130.0</ele><time>2026-04-25T12:38:02.705Z</time></trkpt><trkpt lat="45.5192727" lon="9.3193604"><ele>130.0</ele><time>2026-04-25T12:38:03.705Z</time></trkpt><trkpt lat="45.5193797" lon="9.3193645"><ele>130.0</ele><time>2026-04-25T12:38:04.706Z</time></trkpt><trkpt lat="45.5194798" lon="9.3193631"><ele>130.0</ele><time>2026-04-25T12:38:05.706Z</time></trkpt><trkpt lat="45.5195688" lon="9.3193447"><ele>130.0</ele><time>2026-04-25T12:38:06.705Z</time></trkpt><trkpt lat="45.5196376" lon="9.3193005"><ele>130.0</ele><time>2026-04-25T12:38:07.705Z</time></trkpt><trkpt lat="45.5196986" lon="9.319164"><ele>130.0</ele><time>2026-04-25T12:38:09.705Z</time></trkpt><trkpt lat="45.5197024" lon="9.3190417"><ele>130.0</ele><time>2026-04-25T12:38:10.706Z</time></trkpt><trkpt lat="45.5196979" lon="9.3188936"><ele>130.0</ele><time>2026-04-25T12:38:11.706Z</time></trkpt><trkpt lat="45.5196933" lon="9.3187208"><ele>130.0</ele><time>2026-04-25T12:38:12.705Z</time></trkpt><trkpt lat="45.5196893" lon="9.318479"><ele>130.0</ele><time>2026-04-25T12:38:13.706Z</time></trkpt><trkpt lat="45.5196819" lon="9.3181989"><ele>130.0</ele><time>2026-04-25T12:38:14.705Z</time></trkpt><trkpt lat="45.519677" lon="9.3178706"><ele>130.0</ele><time>2026-04-25T12:38:15.706Z</time></trkpt><trkpt lat="45.5196716" lon="9.3175942"><ele>130.0</ele><time>2026-04-25T12:38:16.705Z</time></trkpt><trkpt lat="45.5196628" lon="9.3173547"><ele>130.0</ele><time>2026-04-25T12:38:17.706Z</time></trkpt><trkpt lat="45.5196597" lon="9.3171446"><ele>130.0</ele><time>2026-04-25T12:38:18.705Z</time></trkpt><trkpt lat="45.5196592" lon="9.3169875"><ele>130.0</ele><time>2026-04-25T12:38:19.706Z</time></trkpt><trkpt lat="45.5196396" lon="9.3168703"><ele>130.0</ele><time>2026-04-25T12:38:20.706Z</time></trkpt><trkpt lat="45.519615" lon="9.3167678"><ele>130.0</ele><time>2026-04-25T12:38:21.706Z</time></trkpt><trkpt lat="45.5195315" lon="9.3166944"><ele>130.0</ele><time>2026-04-25T12:38:23.706Z</time></trkpt><trkpt lat="45.5194531" lon="9.3166869"><ele>130.0</ele><time>2026-04-25T12:38:24.705Z</time></trkpt><trkpt lat="45.5193556" lon="9.3166912"><ele>129.83333333333334</ele><time>2026-04-25T12:38:25.706Z</time></trkpt><trkpt lat="45.5192509" lon="9.3166972"><ele>129.66666666666669</ele><time>2026-04-25T12:38:26.706Z</time></trkpt><trkpt lat="45.519167" lon="9.3167016"><ele>129.5</ele><time>2026-04-25T12:38:27.706Z</time></trkpt><trkpt lat="45.519103" lon="9.316704"><ele>129.33333333333334</ele><time>2026-04-25T12:38:28.706Z</time></trkpt><trkpt lat="45.5189995" lon="9.3166735"><ele>129.16666666666666</ele><time>2026-04-25T12:38:30.705Z</time></trkpt><trkpt lat="45.5189677" lon="9.3165913"><ele>129.0</ele><time>2026-04-25T12:38:32.706Z</time></trkpt><trkpt lat="45.5190024" lon="9.3164741"><ele>129.0</ele><time>2026-04-25T12:38:35.705Z</time></trkpt><trkpt lat="45.5190275" lon="9.3163873"><ele>129.0</ele><time>2026-04-25T12:38:38.706Z</time></trkpt><trkpt lat="45.5189866" lon="9.3164641"><ele>129.0</ele><time>2026-04-25T12:40:31.706Z</time></trkpt><trkpt lat="45.5189353" lon="9.3165775"><ele>129.0</ele><time>2026-04-25T12:40:34.706Z</time></trkpt><trkpt lat="45.5188915" lon="9.316656"><ele>129.0</ele><time>2026-04-25T12:40:36.705Z</time></trkpt><trkpt lat="45.518794" lon="9.3166971"><ele>129.0</ele><time>2026-04-25T12:40:38.705Z</time></trkpt><trkpt lat="45.5186743" lon="9.3167032"><ele>128.8</ele><time>2026-04-25T12:40:40.705Z</time></trkpt><trkpt lat="45.5186048" lon="9.3167047"><ele>128.60000000000002</ele><time>2026-04-25T12:40:41.706Z</time></trkpt><trkpt lat="45.5184748" lon="9.316706"><ele>128.4</ele><time>2026-04-25T12:40:43.705Z</time></trkpt><trkpt lat="45.51841" lon="9.3167061"><ele>128.20000000000002</ele><time>2026-04-25T12:40:44.705Z</time></trkpt><trkpt lat="45.5182998" lon="9.3167246"><ele>128.0</ele><time>2026-04-25T12:40:46.706Z</time></trkpt><trkpt lat="45.5182355" lon="9.3168183"><ele>127.99999999999999</ele><time>2026-04-25T12:40:48.705Z</time></trkpt><trkpt lat="45.518227" lon="9.3169757"><ele>128.0</ele><time>2026-04-25T12:40:50.706Z</time></trkpt><trkpt lat="45.5182275" lon="9.3170693"><ele>128.0</ele><time>2026-04-25T12:40:51.705Z</time></trkpt><trkpt lat="45.5182265" lon="9.3171679"><ele>128.0</ele><time>2026-04-25T12:40:52.705Z</time></trkpt><trkpt lat="45.5182255" lon="9.3172692"><ele>127.99999999999999</ele><time>2026-04-25T12:40:53.705Z</time></trkpt><trkpt lat="45.5182256" lon="9.3173721"><ele>128.0</ele><time>2026-04-25T12:40:54.706Z</time></trkpt><trkpt lat="45.5182255" lon="9.3174766"><ele>128.33333333333331</ele><time>2026-04-25T12:40:55.706Z</time></trkpt><trkpt lat="45.5182261" lon="9.3175821"><ele>128.66666666666666</ele><time>2026-04-25T12:40:56.705Z</time></trkpt><trkpt lat="45.5182284" lon="9.3176961"><ele>129.0</ele><time>2026-04-25T12:40:57.706Z</time></trkpt><trkpt lat="45.5182309" lon="9.3177967"><ele>129.33333333333334</ele><time>2026-04-25T12:40:58.706Z</time></trkpt><trkpt lat="45.5182343" lon="9.3179101"><ele>129.66666666666669</ele><time>2026-04-25T12:40:59.706Z</time></trkpt><trkpt lat="45.5182373" lon="9.3180274"><ele>130.0</ele><time>2026-04-25T12:41:00.706Z</time></trkpt><trkpt lat="45.5182397" lon="9.3181461"><ele>130.0</ele><time>2026-04-25T12:41:01.706Z</time></trkpt><trkpt lat="45.5182415" lon="9.3182651"><ele>130.0</ele><time>2026-04-25T12:41:02.705Z</time></trkpt><trkpt lat="45.5182437" lon="9.3183839"><ele>130.0</ele><time>2026-04-25T12:41:03.706Z</time></trkpt><trkpt lat="45.5182451" lon="9.3185018"><ele>130.0</ele><time>2026-04-25T12:41:04.706Z</time></trkpt><trkpt lat="45.5182463" lon="9.3186208"><ele>130.0</ele><time>2026-04-25T12:41:05.705Z</time></trkpt><trkpt lat="45.518248" lon="9.3187399"><ele>130.0</ele><time>2026-04-25T12:41:06.706Z</time></trkpt><trkpt lat="45.5182495" lon="9.3188589"><ele>130.0</ele><time>2026-04-25T12:41:07.705Z</time></trkpt><trkpt lat="45.518251" lon="9.3189744"><ele>130.0</ele><time>2026-04-25T12:41:08.706Z</time></trkpt><trkpt lat="45.5182527" lon="9.3190873"><ele>130.0</ele><time>2026-04-25T12:41:09.705Z</time></trkpt><trkpt lat="45.5182544" lon="9.3192012"><ele>130.0</ele><time>2026-04-25T12:41:10.705Z</time></trkpt><trkpt lat="45.5182567" lon="9.3193123"><ele>130.0</ele><time>2026-04-25T12:41:11.705Z</time></trkpt><trkpt lat="45.5182587" lon="9.3194162"><ele>130.0</ele><time>2026-04-25T12:41:12.705Z</time></trkpt><trkpt lat="45.5182602" lon="9.3195213"><ele>130.0</ele><time>2026-04-25T12:41:13.706Z</time></trkpt><trkpt lat="45.5182537" lon="9.3196804"><ele>130.0</ele><time>2026-04-25T12:41:15.706Z</time></trkpt><trkpt lat="45.5182272" lon="9.3197719"><ele>130.0</ele><time>2026-04-25T12:41:17.705Z</time></trkpt><trkpt lat="45.5181594" lon="9.3198065"><ele>130.0</ele><time>2026-04-25T12:41:19.706Z</time></trkpt><trkpt lat="45.518051" lon="9.3198027"><ele>130.0</ele><time>2026-04-25T12:41:21.705Z</time></trkpt><trkpt lat="45.517986" lon="9.3197953"><ele>130.0</ele><time>2026-04-25T12:41:22.706Z</time></trkpt><trkpt lat="45.5179133" lon="9.3197906"><ele>130.16666666666669</ele><time>2026-04-25T12:41:23.705Z</time></trkpt><trkpt lat="45.5178361" lon="9.3197905"><ele>130.33333333333334</ele><time>2026-04-25T12:41:24.706Z</time></trkpt><trkpt lat="45.5177566" lon="9.3197927"><ele>130.5</ele><time>2026-04-25T12:41:25.705Z</time></trkpt><trkpt lat="45.5176734" lon="9.3197945"><ele>130.66666666666666</ele><time>2026-04-25T12:41:26.705Z</time></trkpt><trkpt lat="45.5176014" lon="9.3197974"><ele>130.83333333333331</ele><time>2026-04-25T12:41:27.705Z</time></trkpt><trkpt lat="45.5175307" lon="9.3197983"><ele>131.0</ele><time>2026-04-25T12:41:28.706Z</time></trkpt><trkpt lat="45.5174615" lon="9.3198004"><ele>131.0</ele><time>2026-04-25T12:41:29.705Z</time></trkpt><trkpt lat="45.5173576" lon="9.3198045"><ele>131.0</ele><time>2026-04-25T12:41:31.705Z</time></trkpt><trkpt lat="45.5172776" lon="9.3198395"><ele>131.0</ele><time>2026-04-25T12:41:33.705Z</time></trkpt><trkpt lat="45.5172488" lon="9.3199662"><ele>131.0</ele><time>2026-04-25T12:41:35.706Z</time></trkpt><trkpt lat="45.5172134" lon="9.3200879"><ele>131.0</ele><time>2026-04-25T12:41:37.705Z</time></trkpt><trkpt lat="45.5171027" lon="9.3201211"><ele>130.25</ele><time>2026-04-25T12:41:39.705Z</time></trkpt><trkpt lat="45.5170101" lon="9.3201338"><ele>129.5</ele><time>2026-04-25T12:41:40.705Z</time></trkpt><trkpt lat="45.5169022" lon="9.3201475"><ele>128.75</ele><time>2026-04-25T12:41:41.706Z</time></trkpt><trkpt lat="45.5167858" lon="9.3201614"><ele>128.0</ele><time>2026-04-25T12:41:42.705Z</time></trkpt><trkpt lat="45.5166515" lon="9.3201804"><ele>128.0</ele><time>2026-04-25T12:41:43.705Z</time></trkpt><trkpt lat="45.5164993" lon="9.3201995"><ele>128.0</ele><time>2026-04-25T12:41:44.706Z</time></trkpt><trkpt lat="45.5163329" lon="9.3202143"><ele>128.0</ele><time>2026-04-25T12:41:45.706Z</time></trkpt><trkpt lat="45.5161864" lon="9.3202245"><ele>128.33333333333331</ele><time>2026-04-25T12:41:46.706Z</time></trkpt><trkpt lat="45.5160334" lon="9.3202387"><ele>128.66666666666666</ele><time>2026-04-25T12:41:47.705Z</time></trkpt><trkpt lat="45.5158819" lon="9.3202549"><ele>129.0</ele><time>2026-04-25T12:41:48.705Z</time></trkpt><trkpt lat="45.5157315" lon="9.3202708"><ele>129.0</ele><time>2026-04-25T12:41:49.706Z</time></trkpt><trkpt lat="45.5155809" lon="9.320286"><ele>129.0</ele><time>2026-04-25T12:41:50.705Z</time></trkpt><trkpt lat="45.5154304" lon="9.3203014"><ele>129.0</ele><time>2026-04-25T12:41:51.706Z</time></trkpt><trkpt lat="45.5152786" lon="9.320318"><ele>129.25</ele><time>2026-04-25T12:41:52.706Z</time></trkpt><trkpt lat="45.5151299" lon="9.3203351"><ele>129.5</ele><time>2026-04-25T12:41:53.706Z</time></trkpt><trkpt lat="45.5149864" lon="9.320353"><ele>129.75</ele><time>2026-04-25T12:41:54.706Z</time></trkpt><trkpt lat="45.5148462" lon="9.3203697"><ele>130.0</ele><time>2026-04-25T12:41:55.706Z</time></trkpt><trkpt lat="45.5147128" lon="9.320384"><ele>130.0</ele><time>2026-04-25T12:41:56.706Z</time></trkpt><trkpt lat="45.514589" lon="9.3203843"><ele>130.0</ele><time>2026-04-25T12:41:57.706Z</time></trkpt><trkpt lat="45.5144663" lon="9.3203453"><ele>130.0</ele><time>2026-04-25T12:41:58.706Z</time></trkpt><trkpt lat="45.5143526" lon="9.3202664"><ele>130.0</ele><time>2026-04-25T12:41:59.706Z</time></trkpt><trkpt lat="45.5142585" lon="9.3201536"><ele>129.5</ele><time>2026-04-25T12:42:00.705Z</time></trkpt><trkpt lat="45.5141866" lon="9.3200046"><ele>129.0</ele><time>2026-04-25T12:42:01.706Z</time></trkpt><trkpt lat="45.5141466" lon="9.3198563"><ele>128.5</ele><time>2026-04-25T12:42:02.705Z</time></trkpt><trkpt lat="45.5141182" lon="9.3196837"><ele>128.0</ele><time>2026-04-25T12:42:03.705Z</time></trkpt><trkpt lat="45.5140974" lon="9.3195015"><ele>128.0</ele><time>2026-04-25T12:42:04.705Z</time></trkpt><trkpt lat="45.5140788" lon="9.3193075"><ele>128.0</ele><time>2026-04-25T12:42:05.706Z</time></trkpt><trkpt lat="45.5140573" lon="9.3190939"><ele>128.0</ele><time>2026-04-25T12:42:06.705Z</time></trkpt><trkpt lat="45.5140315" lon="9.3188633"><ele>127.33333333333333</ele><time>2026-04-25T12:42:07.705Z</time></trkpt><trkpt lat="45.5140028" lon="9.3186258"><ele>126.66666666666666</ele><time>2026-04-25T12:42:08.705Z</time></trkpt><trkpt lat="45.5139737" lon="9.3183881"><ele>126.0</ele><time>2026-04-25T12:42:09.706Z</time></trkpt><trkpt lat="45.5139441" lon="9.3181524"><ele>126.66666666666666</ele><time>2026-04-25T12:42:10.705Z</time></trkpt><trkpt lat="45.5139084" lon="9.3178996"><ele>127.33333333333333</ele><time>2026-04-25T12:42:11.706Z</time></trkpt><trkpt lat="45.5138683" lon="9.3176265"><ele>128.0</ele><time>2026-04-25T12:42:12.706Z</time></trkpt><trkpt lat="45.5138275" lon="9.3173335"><ele>129.0</ele><time>2026-04-25T12:42:13.706Z</time></trkpt><trkpt lat="45.5137869" lon="9.3170207"><ele>130.0</ele><time>2026-04-25T12:42:14.705Z</time></trkpt><trkpt lat="45.5137462" lon="9.3166951"><ele>128.0</ele><time>2026-04-25T12:42:15.706Z</time></trkpt><trkpt lat="45.5137061" lon="9.316371"><ele>126.0</ele><time>2026-04-25T12:42:16.705Z</time></trkpt><trkpt lat="45.5136646" lon="9.3160359"><ele>126.0</ele><time>2026-04-25T12:42:17.706Z</time></trkpt><trkpt lat="45.5136302" lon="9.3157501"><ele>126.0</ele><time>2026-04-25T12:42:18.705Z</time></trkpt><trkpt lat="45.513599" lon="9.3154565"><ele>126.0</ele><time>2026-04-25T12:42:19.705Z</time></trkpt><trkpt lat="45.5135791" lon="9.3151757"><ele>126.0</ele><time>2026-04-25T12:42:20.705Z</time></trkpt><trkpt lat="45.5135736" lon="9.3149025"><ele>126.0</ele><time>2026-04-25T12:42:21.705Z</time></trkpt><trkpt lat="45.5135791" lon="9.3146288"><ele>126.0</ele><time>2026-04-25T12:42:22.705Z</time></trkpt><trkpt lat="45.5135891" lon="9.3143497"><ele>126.0</ele><time>2026-04-25T12:42:23.705Z</time></trkpt><trkpt lat="45.5136017" lon="9.3140651"><ele>126.0</ele><time>2026-04-25T12:42:24.706Z</time></trkpt><trkpt lat="45.513617" lon="9.313779"><ele>126.0</ele><time>2026-04-25T12:42:25.706Z</time></trkpt><trkpt lat="45.5136364" lon="9.313499"><ele>126.0</ele><time>2026-04-25T12:42:26.705Z</time></trkpt><trkpt lat="45.5136577" lon="9.313231"><ele>126.0</ele><time>2026-04-25T12:42:27.706Z</time></trkpt><trkpt lat="45.5136786" lon="9.3129737"><ele>126.0</ele><time>2026-04-25T12:42:28.705Z</time></trkpt><trkpt lat="45.513697" lon="9.3127297"><ele>125.66666666666666</ele><time>2026-04-25T12:42:29.705Z</time></trkpt><trkpt lat="45.5137124" lon="9.3125012"><ele>125.33333333333333</ele><time>2026-04-25T12:42:30.705Z</time></trkpt><trkpt lat="45.5137251" lon="9.31228"><ele>125.0</ele><time>2026-04-25T12:42:31.705Z</time></trkpt><trkpt lat="45.5137335" lon="9.3120407"><ele>126.0</ele><time>2026-04-25T12:42:32.706Z</time></trkpt><trkpt lat="45.5137434" lon="9.3117489"><ele>127.0</ele><time>2026-04-25T12:42:33.705Z</time></trkpt><trkpt lat="45.5137577" lon="9.3114914"><ele>128.0</ele><time>2026-04-25T12:42:34.705Z</time></trkpt><trkpt lat="45.5137743" lon="9.3112329"><ele>128.0</ele><time>2026-04-25T12:42:35.705Z</time></trkpt><trkpt lat="45.5137876" lon="9.3109961"><ele>128.0</ele><time>2026-04-25T12:42:36.706Z</time></trkpt><trkpt lat="45.5137964" lon="9.3107715"><ele>128.0</ele><time>2026-04-25T12:42:37.705Z</time></trkpt><trkpt lat="45.5137948" lon="9.3105512"><ele>128.0</ele><time>2026-04-25T12:42:38.705Z</time></trkpt><trkpt lat="45.5137826" lon="9.3103295"><ele>128.0</ele><time>2026-04-25T12:42:39.705Z</time></trkpt><trkpt lat="45.5137637" lon="9.3101068"><ele>128.0</ele><time>2026-04-25T12:42:40.705Z</time></trkpt><trkpt lat="45.5137431" lon="9.3098838"><ele>126.66666666666666</ele><time>2026-04-25T12:42:41.706Z</time></trkpt><trkpt lat="45.5137184" lon="9.3096525"><ele>125.33333333333334</ele><time>2026-04-25T12:42:42.706Z</time></trkpt><trkpt lat="45.5136854" lon="9.3093944"><ele>124.0</ele><time>2026-04-25T12:42:43.706Z</time></trkpt><trkpt lat="45.5136537" lon="9.3091072"><ele>124.33333333333334</ele><time>2026-04-25T12:42:44.705Z</time></trkpt><trkpt lat="45.5136282" lon="9.3088063"><ele>124.66666666666666</ele><time>2026-04-25T12:42:45.706Z</time></trkpt><trkpt lat="45.513603" lon="9.3085109"><ele>125.0</ele><time>2026-04-25T12:42:46.706Z</time></trkpt><trkpt lat="45.5135759" lon="9.3082242"><ele>125.33333333333333</ele><time>2026-04-25T12:42:47.706Z</time></trkpt><trkpt lat="45.5135478" lon="9.307945"><ele>125.66666666666666</ele><time>2026-04-25T12:42:48.705Z</time></trkpt><trkpt lat="45.5135178" lon="9.3076547"><ele>126.0</ele><time>2026-04-25T12:42:49.705Z</time></trkpt><trkpt lat="45.5134918" lon="9.3074056"><ele>126.33333333333334</ele><time>2026-04-25T12:42:50.706Z</time></trkpt><trkpt lat="45.5134644" lon="9.3071434"><ele>126.66666666666667</ele><time>2026-04-25T12:42:51.705Z</time></trkpt><trkpt lat="45.5134359" lon="9.3068879"><ele>127.0</ele><time>2026-04-25T12:42:52.705Z</time></trkpt><trkpt lat="45.5134079" lon="9.3066353"><ele>126.66666666666667</ele><time>2026-04-25T12:42:53.706Z</time></trkpt><trkpt lat="45.5133838" lon="9.3063842"><ele>126.33333333333334</ele><time>2026-04-25T12:42:54.706Z</time></trkpt><trkpt lat="45.5133684" lon="9.3061357"><ele>126.0</ele><time>2026-04-25T12:42:55.705Z</time></trkpt><trkpt lat="45.5133607" lon="9.3058878"><ele>126.0</ele><time>2026-04-25T12:42:56.705Z</time></trkpt><trkpt lat="45.5133576" lon="9.3056476"><ele>126.0</ele><time>2026-04-25T12:42:57.705Z</time></trkpt><trkpt lat="45.5133587" lon="9.3054188"><ele>126.0</ele><time>2026-04-25T12:42:58.705Z</time></trkpt><trkpt lat="45.5133636" lon="9.3052044"><ele>126.25</ele><time>2026-04-25T12:42:59.706Z</time></trkpt><trkpt lat="45.5133725" lon="9.3050063"><ele>126.5</ele><time>2026-04-25T12:43:00.706Z</time></trkpt><trkpt lat="45.5133818" lon="9.3048274"><ele>126.75</ele><time>2026-04-25T12:43:01.705Z</time></trkpt><trkpt lat="45.5133899" lon="9.3046716"><ele>127.0</ele><time>2026-04-25T12:43:02.705Z</time></trkpt><trkpt lat="45.5133958" lon="9.3045467"><ele>127.00000000000001</ele><time>2026-04-25T12:43:03.705Z</time></trkpt><trkpt lat="45.5133986" lon="9.3044469"><ele>127.0</ele><time>2026-04-25T12:43:04.705Z</time></trkpt><trkpt lat="45.5133996" lon="9.3043542"><ele>127.0</ele><time>2026-04-25T12:43:05.706Z</time></trkpt><trkpt lat="45.5133987" lon="9.304211"><ele>127.0</ele><time>2026-04-25T12:43:07.706Z</time></trkpt><trkpt lat="45.5134053" lon="9.3040314"><ele>127.00000000000001</ele><time>2026-04-25T12:43:09.705Z</time></trkpt><trkpt lat="45.5134271" lon="9.3039218"><ele>127.0</ele><time>2026-04-25T12:43:10.705Z</time></trkpt><trkpt lat="45.5134491" lon="9.3038081"><ele>127.0</ele><time>2026-04-25T12:43:11.705Z</time></trkpt><trkpt lat="45.5134522" lon="9.3036833"><ele>127.0</ele><time>2026-04-25T12:43:12.706Z</time></trkpt><trkpt lat="45.5134338" lon="9.3035321"><ele>127.0</ele><time>2026-04-25T12:43:13.706Z</time></trkpt><trkpt lat="45.5134151" lon="9.3033516"><ele>127.0</ele><time>2026-04-25T12:43:14.705Z</time></trkpt><trkpt lat="45.513411" lon="9.3031609"><ele>126.75</ele><time>2026-04-25T12:43:15.706Z</time></trkpt><trkpt lat="45.5134182" lon="9.3029726"><ele>126.5</ele><time>2026-04-25T12:43:16.705Z</time></trkpt><trkpt lat="45.5134285" lon="9.3027907"><ele>126.25</ele><time>2026-04-25T12:43:17.705Z</time></trkpt><trkpt lat="45.51344" lon="9.3026137"><ele>126.0</ele><time>2026-04-25T12:43:18.706Z</time></trkpt><trkpt lat="45.5134517" lon="9.3024449"><ele>126.0</ele><time>2026-04-25T12:43:19.706Z</time></trkpt><trkpt lat="45.5134615" lon="9.3022818"><ele>126.0</ele><time>2026-04-25T12:43:20.706Z</time></trkpt><trkpt lat="45.5134695" lon="9.3021125"><ele>126.0</ele><time>2026-04-25T12:43:21.705Z</time></trkpt><trkpt lat="45.5134779" lon="9.3019674"><ele>126.0</ele><time>2026-04-25T12:43:22.705Z</time></trkpt><trkpt lat="45.5134878" lon="9.3018161"><ele>126.0</ele><time>2026-04-25T12:43:23.705Z</time></trkpt><trkpt lat="45.5134958" lon="9.3016682"><ele>126.4</ele><time>2026-04-25T12:43:24.706Z</time></trkpt><trkpt lat="45.5135034" lon="9.301524"><ele>126.8</ele><time>2026-04-25T12:43:25.706Z</time></trkpt><trkpt lat="45.5135105" lon="9.3013835"><ele>127.20000000000002</ele><time>2026-04-25T12:43:26.705Z</time></trkpt><trkpt lat="45.5135166" lon="9.3012476"><ele>127.60000000000001</ele><time>2026-04-25T12:43:27.705Z</time></trkpt><trkpt lat="45.513521" lon="9.3011213"><ele>128.0</ele><time>2026-04-25T12:43:28.706Z</time></trkpt><trkpt lat="45.5135231" lon="9.3010003"><ele>128.16666666666666</ele><time>2026-04-25T12:43:29.706Z</time></trkpt><trkpt lat="45.5135231" lon="9.300889"><ele>128.33333333333331</ele><time>2026-04-25T12:43:30.706Z</time></trkpt><trkpt lat="45.5135238" lon="9.300785"><ele>128.5</ele><time>2026-04-25T12:43:31.705Z</time></trkpt><trkpt lat="45.5135307" lon="9.3006783"><ele>128.66666666666666</ele><time>2026-04-25T12:43:32.705Z</time></trkpt><trkpt lat="45.5135418" lon="9.3005646"><ele>128.83333333333334</ele><time>2026-04-25T12:43:33.705Z</time></trkpt><trkpt lat="45.5135486" lon="9.3004468"><ele>129.0</ele><time>2026-04-25T12:43:34.706Z</time></trkpt><trkpt lat="45.5135487" lon="9.3003238"><ele>129.0</ele><time>2026-04-25T12:43:35.706Z</time></trkpt><trkpt lat="45.5135471" lon="9.3001993"><ele>129.0</ele><time>2026-04-25T12:43:36.706Z</time></trkpt><trkpt lat="45.5135466" lon="9.3000645"><ele>129.0</ele><time>2026-04-25T12:43:37.705Z</time></trkpt><trkpt lat="45.5135473" lon="9.2999465"><ele>129.0</ele><time>2026-04-25T12:43:38.705Z</time></trkpt><trkpt lat="45.5135477" lon="9.2998222"><ele>129.0</ele><time>2026-04-25T12:43:39.706Z</time></trkpt><trkpt lat="45.5135481" lon="9.2997038"><ele>129.0</ele><time>2026-04-25T12:43:40.706Z</time></trkpt><trkpt lat="45.5135496" lon="9.2995937"><ele>128.85714285714283</ele><time>2026-04-25T12:43:41.705Z</time></trkpt><trkpt lat="45.5135564" lon="9.2994903"><ele>128.71428571428572</ele><time>2026-04-25T12:43:42.705Z</time></trkpt><trkpt lat="45.5135746" lon="9.2993929"><ele>128.57142857142856</ele><time>2026-04-25T12:43:43.706Z</time></trkpt><trkpt lat="45.5136055" lon="9.2993008"><ele>128.42857142857142</ele><time>2026-04-25T12:43:44.706Z</time></trkpt><trkpt lat="45.5136398" lon="9.2992148"><ele>128.28571428571428</ele><time>2026-04-25T12:43:45.705Z</time></trkpt><trkpt lat="45.5136634" lon="9.2991255"><ele>128.14285714285714</ele><time>2026-04-25T12:43:46.705Z</time></trkpt><trkpt lat="45.5136632" lon="9.299033"><ele>128.0</ele><time>2026-04-25T12:43:47.705Z</time></trkpt><trkpt lat="45.5136423" lon="9.298943"><ele>127.83333333333333</ele><time>2026-04-25T12:43:48.705Z</time></trkpt><trkpt lat="45.513616" lon="9.2988501"><ele>127.66666666666666</ele><time>2026-04-25T12:43:49.706Z</time></trkpt><trkpt lat="45.5135936" lon="9.2987461"><ele>127.5</ele><time>2026-04-25T12:43:50.705Z</time></trkpt><trkpt lat="45.5135763" lon="9.2986345"><ele>127.33333333333334</ele><time>2026-04-25T12:43:51.705Z</time></trkpt><trkpt lat="45.5135623" lon="9.298516"><ele>127.16666666666667</ele><time>2026-04-25T12:43:52.705Z</time></trkpt><trkpt lat="45.5135492" lon="9.2983805"><ele>127.0</ele><time>2026-04-25T12:43:53.705Z</time></trkpt><trkpt lat="45.5135378" lon="9.2982606"><ele>127.0</ele><time>2026-04-25T12:43:54.705Z</time></trkpt><trkpt lat="45.5135232" lon="9.2981339"><ele>126.99999999999999</ele><time>2026-04-25T12:43:55.706Z</time></trkpt><trkpt lat="45.5135073" lon="9.2980085"><ele>126.99999999999999</ele><time>2026-04-25T12:43:56.706Z</time></trkpt><trkpt lat="45.5134907" lon="9.2978807"><ele>127.0</ele><time>2026-04-25T12:43:57.705Z</time></trkpt><trkpt lat="45.5134745" lon="9.2977475"><ele>127.0</ele><time>2026-04-25T12:43:58.706Z</time></trkpt><trkpt lat="45.5134599" lon="9.2976081"><ele>127.0</ele><time>2026-04-25T12:43:59.705Z</time></trkpt><trkpt lat="45.5134448" lon="9.2974631"><ele>126.99999999999999</ele><time>2026-04-25T12:44:00.706Z</time></trkpt><trkpt lat="45.513429" lon="9.297312"><ele>126.99999999999999</ele><time>2026-04-25T12:44:01.706Z</time></trkpt><trkpt lat="45.5134145" lon="9.2971687"><ele>127.0</ele><time>2026-04-25T12:44:02.705Z</time></trkpt><trkpt lat="45.5134021" lon="9.2970343"><ele>127.0</ele><time>2026-04-25T12:44:03.706Z</time></trkpt><trkpt lat="45.5133907" lon="9.2969039"><ele>127.0</ele><time>2026-04-25T12:44:04.706Z</time></trkpt><trkpt lat="45.5133786" lon="9.2967791"><ele>126.99999999999999</ele><time>2026-04-25T12:44:05.706Z</time></trkpt><trkpt lat="45.5133656" lon="9.2966533"><ele>126.99999999999999</ele><time>2026-04-25T12:44:06.706Z</time></trkpt><trkpt lat="45.5133516" lon="9.2965217"><ele>127.0</ele><time>2026-04-25T12:44:07.705Z</time></trkpt><trkpt lat="45.5133385" lon="9.2963842"><ele>127.0</ele><time>2026-04-25T12:44:08.706Z</time></trkpt><trkpt lat="45.5133242" lon="9.2962355"><ele>127.0</ele><time>2026-04-25T12:44:09.705Z</time></trkpt><trkpt lat="45.5133116" lon="9.2961052"><ele>126.99999999999999</ele><time>2026-04-25T12:44:10.705Z</time></trkpt><trkpt lat="45.5132973" lon="9.2959696"><ele>126.99999999999999</ele><time>2026-04-25T12:44:11.706Z</time></trkpt><trkpt lat="45.5132843" lon="9.2958367"><ele>127.0</ele><time>2026-04-25T12:44:12.705Z</time></trkpt><trkpt lat="45.5132715" lon="9.2957098"><ele>127.0</ele><time>2026-04-25T12:44:13.706Z</time></trkpt><trkpt lat="45.5132599" lon="9.2955851"><ele>127.16666666666667</ele><time>2026-04-25T12:44:14.705Z</time></trkpt><trkpt lat="45.5132518" lon="9.2954629"><ele>127.33333333333334</ele><time>2026-04-25T12:44:15.706Z</time></trkpt><trkpt lat="45.5132461" lon="9.2953448"><ele>127.5</ele><time>2026-04-25T12:44:16.705Z</time></trkpt><trkpt lat="45.5132434" lon="9.2952318"><ele>127.66666666666666</ele><time>2026-04-25T12:44:17.706Z</time></trkpt><trkpt lat="45.5132448" lon="9.2951238"><ele>127.83333333333333</ele><time>2026-04-25T12:44:18.706Z</time></trkpt><trkpt lat="45.5132526" lon="9.2950174"><ele>128.0</ele><time>2026-04-25T12:44:19.705Z</time></trkpt><trkpt lat="45.5132593" lon="9.2949061"><ele>128.0</ele><time>2026-04-25T12:44:20.706Z</time></trkpt><trkpt lat="45.513244" lon="9.294787"><ele>128.0</ele><time>2026-04-25T12:44:21.705Z</time></trkpt><trkpt lat="45.5132215" lon="9.2946544"><ele>128.0</ele><time>2026-04-25T12:44:22.706Z</time></trkpt><trkpt lat="45.5131894" lon="9.2945253"><ele>128.0</ele><time>2026-04-25T12:44:23.705Z</time></trkpt><trkpt lat="45.5131689" lon="9.2943895"><ele>128.0</ele><time>2026-04-25T12:44:24.706Z</time></trkpt><trkpt lat="45.5131474" lon="9.2942349"><ele>128.0</ele><time>2026-04-25T12:44:25.705Z</time></trkpt><trkpt lat="45.5131323" lon="9.294101"><ele>128.0</ele><time>2026-04-25T12:44:26.705Z</time></trkpt><trkpt lat="45.5131172" lon="9.2939569"><ele>128.0</ele><time>2026-04-25T12:44:27.706Z</time></trkpt><trkpt lat="45.5131049" lon="9.2938121"><ele>128.0</ele><time>2026-04-25T12:44:28.705Z</time></trkpt><trkpt lat="45.5130942" lon="9.2936665"><ele>128.0</ele><time>2026-04-25T12:44:29.706Z</time></trkpt><trkpt lat="45.5130823" lon="9.2935195"><ele>128.0</ele><time>2026-04-25T12:44:30.705Z</time></trkpt><trkpt lat="45.5130692" lon="9.2933705"><ele>128.0</ele><time>2026-04-25T12:44:31.705Z</time></trkpt><trkpt lat="45.5130541" lon="9.2932196"><ele>128.0</ele><time>2026-04-25T12:44:32.706Z</time></trkpt><trkpt lat="45.5130392" lon="9.2930681"><ele>128.0</ele><time>2026-04-25T12:44:33.706Z</time></trkpt><trkpt lat="45.5130254" lon="9.2929135"><ele>128.0</ele><time>2026-04-25T12:44:34.706Z</time></trkpt><trkpt lat="45.5130119" lon="9.2927584"><ele>127.75</ele><time>2026-04-25T12:44:35.706Z</time></trkpt><trkpt lat="45.5129981" lon="9.2925981"><ele>127.5</ele><time>2026-04-25T12:44:36.706Z</time></trkpt><trkpt lat="45.5129838" lon="9.2924352"><ele>127.25</ele><time>2026-04-25T12:44:37.706Z</time></trkpt><trkpt lat="45.5129683" lon="9.2922693"><ele>127.0</ele><time>2026-04-25T12:44:38.705Z</time></trkpt><trkpt lat="45.5129519" lon="9.2921009"><ele>126.75</ele><time>2026-04-25T12:44:39.706Z</time></trkpt><trkpt lat="45.5129351" lon="9.2919305"><ele>126.5</ele><time>2026-04-25T12:44:40.706Z</time></trkpt><trkpt lat="45.5129169" lon="9.2917488"><ele>126.25</ele><time>2026-04-25T12:44:41.705Z</time></trkpt><trkpt lat="45.5129009" lon="9.29159"><ele>126.0</ele><time>2026-04-25T12:44:42.706Z</time></trkpt><trkpt lat="45.5128842" lon="9.2914214"><ele>127.0</ele><time>2026-04-25T12:44:43.706Z</time></trkpt><trkpt lat="45.5128683" lon="9.2912541"><ele>128.0</ele><time>2026-04-25T12:44:44.705Z</time></trkpt><trkpt lat="45.5128534" lon="9.2910868"><ele>129.0</ele><time>2026-04-25T12:44:45.705Z</time></trkpt><trkpt lat="45.5128393" lon="9.2909203"><ele>130.0</ele><time>2026-04-25T12:44:46.705Z</time></trkpt><trkpt lat="45.5128244" lon="9.2907507"><ele>129.75</ele><time>2026-04-25T12:44:47.706Z</time></trkpt><trkpt lat="45.5128078" lon="9.2905846"><ele>129.5</ele><time>2026-04-25T12:44:48.705Z</time></trkpt><trkpt lat="45.5127871" lon="9.2904168"><ele>129.25</ele><time>2026-04-25T12:44:49.706Z</time></trkpt><trkpt lat="45.5127611" lon="9.2902507"><ele>129.0</ele><time>2026-04-25T12:44:50.706Z</time></trkpt><trkpt lat="45.512728" lon="9.2900851"><ele>129.0</ele><time>2026-04-25T12:44:51.705Z</time></trkpt><trkpt lat="45.5126904" lon="9.2899214"><ele>129.0</ele><time>2026-04-25T12:44:52.705Z</time></trkpt><trkpt lat="45.5126509" lon="9.2897598"><ele>129.0</ele><time>2026-04-25T12:44:53.705Z</time></trkpt><trkpt lat="45.5126122" lon="9.2895986"><ele>129.0</ele><time>2026-04-25T12:44:54.706Z</time></trkpt><trkpt lat="45.5125739" lon="9.2894377"><ele>128.75</ele><time>2026-04-25T12:44:55.705Z</time></trkpt><trkpt lat="45.5125356" lon="9.2892813"><ele>128.5</ele><time>2026-04-25T12:44:56.706Z</time></trkpt><trkpt lat="45.5124936" lon="9.2891162"><ele>128.25</ele><time>2026-04-25T12:44:57.706Z</time></trkpt><trkpt lat="45.5124558" lon="9.2889717"><ele>128.0</ele><time>2026-04-25T12:44:58.705Z</time></trkpt><trkpt lat="45.5124158" lon="9.2888178"><ele>128.0</ele><time>2026-04-25T12:44:59.705Z</time></trkpt><trkpt lat="45.512375" lon="9.2886634"><ele>128.0</ele><time>2026-04-25T12:45:00.705Z</time></trkpt><trkpt lat="45.5123327" lon="9.2885039"><ele>128.0</ele><time>2026-04-25T12:45:01.705Z</time></trkpt><trkpt lat="45.5122901" lon="9.28834"><ele>128.0</ele><time>2026-04-25T12:45:02.705Z</time></trkpt><trkpt lat="45.5122453" lon="9.2881663"><ele>128.0</ele><time>2026-04-25T12:45:03.705Z</time></trkpt><trkpt lat="45.5121979" lon="9.287982"><ele>128.0</ele><time>2026-04-25T12:45:04.705Z</time></trkpt><trkpt lat="45.5121503" lon="9.2877929"><ele>128.0</ele><time>2026-04-25T12:45:05.705Z</time></trkpt><trkpt lat="45.5121058" lon="9.2876135"><ele>128.0</ele><time>2026-04-25T12:45:06.706Z</time></trkpt><trkpt lat="45.5120646" lon="9.2874447"><ele>128.0</ele><time>2026-04-25T12:45:07.705Z</time></trkpt><trkpt lat="45.5120262" lon="9.2872863"><ele>128.0</ele><time>2026-04-25T12:45:08.705Z</time></trkpt><trkpt lat="45.5119888" lon="9.2871335"><ele>128.0</ele><time>2026-04-25T12:45:09.705Z</time></trkpt><trkpt lat="45.5119532" lon="9.2869871"><ele>128.0</ele><time>2026-04-25T12:45:10.706Z</time></trkpt><trkpt lat="45.5119168" lon="9.286838"><ele>128.0</ele><time>2026-04-25T12:45:11.705Z</time></trkpt><trkpt lat="45.5118808" lon="9.2866928"><ele>128.0</ele><time>2026-04-25T12:45:12.706Z</time></trkpt><trkpt lat="45.5118421" lon="9.286539"><ele>128.0</ele><time>2026-04-25T12:45:13.705Z</time></trkpt><trkpt lat="45.5118082" lon="9.2864046"><ele>128.0</ele><time>2026-04-25T12:45:14.705Z</time></trkpt><trkpt lat="45.5117741" lon="9.2862623"><ele>128.0</ele><time>2026-04-25T12:45:15.705Z</time></trkpt><trkpt lat="45.5117445" lon="9.2861262"><ele>127.99999999999999</ele><time>2026-04-25T12:45:16.705Z</time></trkpt><trkpt lat="45.5117219" lon="9.286001"><ele>128.0</ele><time>2026-04-25T12:45:17.705Z</time></trkpt><trkpt lat="45.5117055" lon="9.2858871"><ele>128.0</ele><time>2026-04-25T12:45:18.705Z</time></trkpt><trkpt lat="45.5116926" lon="9.2857865"><ele>128.0</ele><time>2026-04-25T12:45:19.705Z</time></trkpt><trkpt lat="45.5116752" lon="9.285645"><ele>127.99999999999999</ele><time>2026-04-25T12:45:21.705Z</time></trkpt><trkpt lat="45.5116607" lon="9.2855205"><ele>128.0</ele><time>2026-04-25T12:45:24.706Z</time></trkpt><trkpt lat="45.511658" lon="9.2854265"><ele>128.20000000000002</ele><time>2026-04-25T12:45:26.705Z</time></trkpt><trkpt lat="45.5116908" lon="9.2852897"><ele>128.4</ele><time>2026-04-25T12:45:28.705Z</time></trkpt><trkpt lat="45.5117139" lon="9.2851995"><ele>128.60000000000002</ele><time>2026-04-25T12:45:29.706Z</time></trkpt><trkpt lat="45.5117248" lon="9.2850249"><ele>128.8</ele><time>2026-04-25T12:45:31.705Z</time></trkpt><trkpt lat="45.5116718" lon="9.2848708"><ele>129.0</ele><time>2026-04-25T12:45:33.706Z</time></trkpt><trkpt lat="45.5116422" lon="9.284791"><ele>128.8</ele><time>2026-04-25T12:45:34.706Z</time></trkpt><trkpt lat="45.5116301" lon="9.2846312"><ele>128.60000000000002</ele><time>2026-04-25T12:45:36.706Z</time></trkpt><trkpt lat="45.5116434" lon="9.2844703"><ele>128.4</ele><time>2026-04-25T12:45:38.705Z</time></trkpt><trkpt lat="45.5116534" lon="9.2843814"><ele>128.20000000000002</ele><time>2026-04-25T12:45:40.705Z</time></trkpt><trkpt lat="45.5116703" lon="9.2842232"><ele>128.0</ele><time>2026-04-25T12:45:43.706Z</time></trkpt><trkpt lat="45.5116799" lon="9.284112"><ele>128.0</ele><time>2026-04-25T12:45:44.706Z</time></trkpt><trkpt lat="45.5116885" lon="9.2839792"><ele>128.0</ele><time>2026-04-25T12:45:45.706Z</time></trkpt><trkpt lat="45.5116943" lon="9.2838508"><ele>128.0</ele><time>2026-04-25T12:45:46.706Z</time></trkpt><trkpt lat="45.5117002" lon="9.2837044"><ele>128.0</ele><time>2026-04-25T12:45:47.705Z</time></trkpt><trkpt lat="45.5117058" lon="9.2835512"><ele>128.0</ele><time>2026-04-25T12:45:48.705Z</time></trkpt><trkpt lat="45.5117121" lon="9.2833924"><ele>128.5</ele><time>2026-04-25T12:45:49.705Z</time></trkpt><trkpt lat="45.511719" lon="9.2832293"><ele>129.0</ele><time>2026-04-25T12:45:50.705Z</time></trkpt><trkpt lat="45.5117265" lon="9.2830616"><ele>129.5</ele><time>2026-04-25T12:45:51.705Z</time></trkpt><trkpt lat="45.5117348" lon="9.2828906"><ele>130.0</ele><time>2026-04-25T12:45:52.706Z</time></trkpt><trkpt lat="45.5117432" lon="9.2827188"><ele>130.25</ele><time>2026-04-25T12:45:53.706Z</time></trkpt><trkpt lat="45.5117531" lon="9.2825372"><ele>130.5</ele><time>2026-04-25T12:45:54.705Z</time></trkpt><trkpt lat="45.5117616" lon="9.2823509"><ele>130.75</ele><time>2026-04-25T12:45:55.706Z</time></trkpt><trkpt lat="45.5117694" lon="9.2821577"><ele>131.0</ele><time>2026-04-25T12:45:56.705Z</time></trkpt><trkpt lat="45.5117774" lon="9.2819624"><ele>130.5</ele><time>2026-04-25T12:45:57.706Z</time></trkpt><trkpt lat="45.5117864" lon="9.2817646"><ele>130.0</ele><time>2026-04-25T12:45:58.705Z</time></trkpt><trkpt lat="45.511796" lon="9.2815655"><ele>129.5</ele><time>2026-04-25T12:45:59.706Z</time></trkpt><trkpt lat="45.5118064" lon="9.2813654"><ele>129.0</ele><time>2026-04-25T12:46:00.705Z</time></trkpt><trkpt lat="45.5118168" lon="9.2811539"><ele>129.0</ele><time>2026-04-25T12:46:01.706Z</time></trkpt><trkpt lat="45.5118259" lon="9.2809638"><ele>129.0</ele><time>2026-04-25T12:46:02.706Z</time></trkpt><trkpt lat="45.5118358" lon="9.280764"><ele>129.0</ele><time>2026-04-25T12:46:03.706Z</time></trkpt><trkpt lat="45.5118454" lon="9.2805652"><ele>129.0</ele><time>2026-04-25T12:46:04.705Z</time></trkpt><trkpt lat="45.5118559" lon="9.2803667"><ele>128.5</ele><time>2026-04-25T12:46:05.706Z</time></trkpt><trkpt lat="45.5118658" lon="9.2801707"><ele>128.0</ele><time>2026-04-25T12:46:06.706Z</time></trkpt><trkpt lat="45.511875" lon="9.2799744"><ele>127.5</ele><time>2026-04-25T12:46:07.705Z</time></trkpt><trkpt lat="45.5118839" lon="9.279781"><ele>127.0</ele><time>2026-04-25T12:46:08.705Z</time></trkpt><trkpt lat="45.5118917" lon="9.2795908"><ele>126.0</ele><time>2026-04-25T12:46:09.705Z</time></trkpt><trkpt lat="45.5118996" lon="9.2794124"><ele>125.0</ele><time>2026-04-25T12:46:10.706Z</time></trkpt><trkpt lat="45.5119078" lon="9.2792442"><ele>124.0</ele><time>2026-04-25T12:46:11.706Z</time></trkpt><trkpt lat="45.5119242" lon="9.2790843"><ele>123.0</ele><time>2026-04-25T12:46:12.705Z</time></trkpt><trkpt lat="45.5119546" lon="9.2789244"><ele>123.0</ele><time>2026-04-25T12:46:13.705Z</time></trkpt><trkpt lat="45.5119744" lon="9.2787474"><ele>123.0</ele><time>2026-04-25T12:46:14.706Z</time></trkpt><trkpt lat="45.5119675" lon="9.2785421"><ele>123.0</ele><time>2026-04-25T12:46:15.705Z</time></trkpt><trkpt lat="45.5119594" lon="9.2782955"><ele>123.0</ele><time>2026-04-25T12:46:16.706Z</time></trkpt><trkpt lat="45.5119639" lon="9.278013"><ele>124.0</ele><time>2026-04-25T12:46:17.705Z</time></trkpt><trkpt lat="45.5119759" lon="9.2777748"><ele>125.0</ele><time>2026-04-25T12:46:18.705Z</time></trkpt><trkpt lat="45.5119884" lon="9.2775283"><ele>126.0</ele><time>2026-04-25T12:46:19.705Z</time></trkpt><trkpt lat="45.5119996" lon="9.277285"><ele>126.0</ele><time>2026-04-25T12:46:20.705Z</time></trkpt><trkpt lat="45.5120106" lon="9.2770442"><ele>126.0</ele><time>2026-04-25T12:46:21.705Z</time></trkpt><trkpt lat="45.5120212" lon="9.276805"><ele>126.0</ele><time>2026-04-25T12:46:22.706Z</time></trkpt><trkpt lat="45.5120306" lon="9.2765681"><ele>126.66666666666666</ele><time>2026-04-25T12:46:23.705Z</time></trkpt><trkpt lat="45.5120402" lon="9.2763323"><ele>127.33333333333333</ele><time>2026-04-25T12:46:24.705Z</time></trkpt><trkpt lat="45.5120504" lon="9.2760979"><ele>128.0</ele><time>2026-04-25T12:46:25.705Z</time></trkpt><trkpt lat="45.5120616" lon="9.2758656"><ele>128.0</ele><time>2026-04-25T12:46:26.705Z</time></trkpt><trkpt lat="45.512072" lon="9.2756359"><ele>128.0</ele><time>2026-04-25T12:46:27.706Z</time></trkpt><trkpt lat="45.5120831" lon="9.2754071"><ele>128.0</ele><time>2026-04-25T12:46:28.706Z</time></trkpt><trkpt lat="45.5120935" lon="9.2751827"><ele>127.66666666666666</ele><time>2026-04-25T12:46:29.705Z</time></trkpt><trkpt lat="45.5121044" lon="9.2749574"><ele>127.33333333333334</ele><time>2026-04-25T12:46:30.706Z</time></trkpt><trkpt lat="45.5121157" lon="9.2747327"><ele>127.0</ele><time>2026-04-25T12:46:31.706Z</time></trkpt><trkpt lat="45.5121277" lon="9.2745094"><ele>127.0</ele><time>2026-04-25T12:46:32.705Z</time></trkpt><trkpt lat="45.512139" lon="9.2742722"><ele>127.0</ele><time>2026-04-25T12:46:33.706Z</time></trkpt><trkpt lat="45.512148" lon="9.2740641"><ele>127.0</ele><time>2026-04-25T12:46:34.706Z</time></trkpt><trkpt lat="45.5121568" lon="9.2738433"><ele>126.66666666666667</ele><time>2026-04-25T12:46:35.706Z</time></trkpt><trkpt lat="45.512163" lon="9.2736252"><ele>126.33333333333334</ele><time>2026-04-25T12:46:36.705Z</time></trkpt><trkpt lat="45.5121664" lon="9.2734062"><ele>126.0</ele><time>2026-04-25T12:46:37.706Z</time></trkpt><trkpt lat="45.5121703" lon="9.2731873"><ele>126.33333333333334</ele><time>2026-04-25T12:46:38.705Z</time></trkpt><trkpt lat="45.5121777" lon="9.2729705"><ele>126.66666666666667</ele><time>2026-04-25T12:46:39.705Z</time></trkpt><trkpt lat="45.5121872" lon="9.272754"><ele>127.0</ele><time>2026-04-25T12:46:40.705Z</time></trkpt><trkpt lat="45.512197" lon="9.2725388"><ele>127.0</ele><time>2026-04-25T12:46:41.705Z</time></trkpt><trkpt lat="45.512207" lon="9.2723255"><ele>127.0</ele><time>2026-04-25T12:46:42.705Z</time></trkpt><trkpt lat="45.5122171" lon="9.2721128"><ele>127.0</ele><time>2026-04-25T12:46:43.705Z</time></trkpt><trkpt lat="45.5122257" lon="9.2719064"><ele>127.0</ele><time>2026-04-25T12:46:44.706Z</time></trkpt><trkpt lat="45.5122325" lon="9.2717088"><ele>127.0</ele><time>2026-04-25T12:46:45.706Z</time></trkpt><trkpt lat="45.5122386" lon="9.2715259"><ele>127.0</ele><time>2026-04-25T12:46:46.706Z</time></trkpt><trkpt lat="45.5122455" lon="9.271349"><ele>127.0</ele><time>2026-04-25T12:46:47.706Z</time></trkpt><trkpt lat="45.5122537" lon="9.2711704"><ele>127.0</ele><time>2026-04-25T12:46:48.706Z</time></trkpt><trkpt lat="45.5122621" lon="9.2709834"><ele>127.0</ele><time>2026-04-25T12:46:49.706Z</time></trkpt><trkpt lat="45.512269" lon="9.2708244"><ele>127.0</ele><time>2026-04-25T12:46:50.705Z</time></trkpt><trkpt lat="45.5122773" lon="9.270657"><ele>127.0</ele><time>2026-04-25T12:46:51.705Z</time></trkpt><trkpt lat="45.5122851" lon="9.2704922"><ele>127.0</ele><time>2026-04-25T12:46:52.706Z</time></trkpt><trkpt lat="45.5122921" lon="9.2703286"><ele>127.5</ele><time>2026-04-25T12:46:53.706Z</time></trkpt><trkpt lat="45.5122995" lon="9.2701657"><ele>128.0</ele><time>2026-04-25T12:46:54.706Z</time></trkpt><trkpt lat="45.5123082" lon="9.2700028"><ele>128.5</ele><time>2026-04-25T12:46:55.706Z</time></trkpt><trkpt lat="45.5123175" lon="9.2698407"><ele>129.0</ele><time>2026-04-25T12:46:56.705Z</time></trkpt><trkpt lat="45.5123261" lon="9.2696801"><ele>129.0</ele><time>2026-04-25T12:46:57.706Z</time></trkpt><trkpt lat="45.5123345" lon="9.2695199"><ele>129.0</ele><time>2026-04-25T12:46:58.705Z</time></trkpt><trkpt lat="45.5123423" lon="9.2693629"><ele>129.0</ele><time>2026-04-25T12:46:59.705Z</time></trkpt><trkpt lat="45.5123498" lon="9.2692066"><ele>129.0</ele><time>2026-04-25T12:47:00.705Z</time></trkpt><trkpt lat="45.5123575" lon="9.2690502"><ele>129.0</ele><time>2026-04-25T12:47:01.705Z</time></trkpt><trkpt lat="45.5123656" lon="9.2688935"><ele>128.6</ele><time>2026-04-25T12:47:02.706Z</time></trkpt><trkpt lat="45.5123751" lon="9.2687385"><ele>128.2</ele><time>2026-04-25T12:47:03.706Z</time></trkpt><trkpt lat="45.5123877" lon="9.2685856"><ele>127.79999999999998</ele><time>2026-04-25T12:47:04.706Z</time></trkpt><trkpt lat="45.5124069" lon="9.2684254"><ele>127.39999999999999</ele><time>2026-04-25T12:47:05.705Z</time></trkpt><trkpt lat="45.5124308" lon="9.2682885"><ele>127.0</ele><time>2026-04-25T12:47:06.705Z</time></trkpt><trkpt lat="45.512463" lon="9.2681508"><ele>127.19999999999999</ele><time>2026-04-25T12:47:07.706Z</time></trkpt><trkpt lat="45.5125032" lon="9.268026"><ele>127.39999999999999</ele><time>2026-04-25T12:47:08.706Z</time></trkpt><trkpt lat="45.5125491" lon="9.267922"><ele>127.60000000000001</ele><time>2026-04-25T12:47:09.706Z</time></trkpt><trkpt lat="45.5125939" lon="9.2678419"><ele>127.80000000000001</ele><time>2026-04-25T12:47:10.706Z</time></trkpt><trkpt lat="45.5126674" lon="9.2677396"><ele>128.0</ele><time>2026-04-25T12:47:12.706Z</time></trkpt><trkpt lat="45.5127723" lon="9.2676573"><ele>128.0</ele><time>2026-04-25T12:47:14.705Z</time></trkpt><trkpt lat="45.5128413" lon="9.2676131"><ele>127.99999999999999</ele><time>2026-04-25T12:47:15.706Z</time></trkpt><trkpt lat="45.5129083" lon="9.2675578"><ele>128.0</ele><time>2026-04-25T12:47:16.706Z</time></trkpt><trkpt lat="45.5129657" lon="9.2674868"><ele>128.0</ele><time>2026-04-25T12:47:17.705Z</time></trkpt><trkpt lat="45.513008" lon="9.2673994"><ele>127.99999999999999</ele><time>2026-04-25T12:47:18.706Z</time></trkpt><trkpt lat="45.5130323" lon="9.2673005"><ele>128.0</ele><time>2026-04-25T12:47:19.706Z</time></trkpt><trkpt lat="45.5130388" lon="9.2671988"><ele>128.0</ele><time>2026-04-25T12:47:20.705Z</time></trkpt><trkpt lat="45.5130256" lon="9.2670903"><ele>127.66666666666666</ele><time>2026-04-25T12:47:21.706Z</time></trkpt><trkpt lat="45.5129935" lon="9.2669912"><ele>127.33333333333333</ele><time>2026-04-25T12:47:22.706Z</time></trkpt><trkpt lat="45.5129327" lon="9.2668892"><ele>127.0</ele><time>2026-04-25T12:47:23.705Z</time></trkpt><trkpt lat="45.5128515" lon="9.2668137"><ele>126.66666666666666</ele><time>2026-04-25T12:47:24.705Z</time></trkpt><trkpt lat="45.5127626" lon="9.266776"><ele>126.33333333333333</ele><time>2026-04-25T12:47:25.706Z</time></trkpt><trkpt lat="45.5126756" lon="9.2667803"><ele>126.0</ele><time>2026-04-25T12:47:26.705Z</time></trkpt><trkpt lat="45.5125917" lon="9.2668066"><ele>126.0</ele><time>2026-04-25T12:47:27.705Z</time></trkpt><trkpt lat="45.5125161" lon="9.2668643"><ele>126.0</ele><time>2026-04-25T12:47:28.705Z</time></trkpt><trkpt lat="45.5124618" lon="9.266912"><ele>126.0</ele><time>2026-04-25T12:47:29.705Z</time></trkpt><trkpt lat="45.5123971" lon="9.2669645"><ele>126.0</ele><time>2026-04-25T12:47:32.705Z</time></trkpt><trkpt lat="45.5123074" lon="9.2669984"><ele>126.0</ele><time>2026-04-25T12:47:35.706Z</time></trkpt><trkpt lat="45.5121632" lon="9.2670209"><ele>126.0</ele><time>2026-04-25T12:47:37.705Z</time></trkpt><trkpt lat="45.5120699" lon="9.267036"><ele>126.0</ele><time>2026-04-25T12:47:38.705Z</time></trkpt><trkpt lat="45.5119522" lon="9.2670567"><ele>126.0</ele><time>2026-04-25T12:47:39.705Z</time></trkpt><trkpt lat="45.5118096" lon="9.2670723"><ele>126.0</ele><time>2026-04-25T12:47:40.705Z</time></trkpt><trkpt lat="45.5116258" lon="9.267077"><ele>126.0</ele><time>2026-04-25T12:47:41.705Z</time></trkpt><trkpt lat="45.5114049" lon="9.267056"><ele>126.0</ele><time>2026-04-25T12:47:42.706Z</time></trkpt><trkpt lat="45.5111667" lon="9.2670186"><ele>126.33333333333334</ele><time>2026-04-25T12:47:43.705Z</time></trkpt><trkpt lat="45.5109375" lon="9.2669871"><ele>126.66666666666667</ele><time>2026-04-25T12:47:44.706Z</time></trkpt><trkpt lat="45.5107436" lon="9.2669684"><ele>127.0</ele><time>2026-04-25T12:47:45.705Z</time></trkpt><trkpt lat="45.5105416" lon="9.2669544"><ele>126.33333333333334</ele><time>2026-04-25T12:47:46.706Z</time></trkpt><trkpt lat="45.5103771" lon="9.266942"><ele>125.66666666666666</ele><time>2026-04-25T12:47:47.706Z</time></trkpt><trkpt lat="45.5102376" lon="9.2669189"><ele>125.0</ele><time>2026-04-25T12:47:48.705Z</time></trkpt><trkpt lat="45.5100965" lon="9.2668681"><ele>125.0</ele><time>2026-04-25T12:47:49.706Z</time></trkpt><trkpt lat="45.5099873" lon="9.2667864"><ele>125.0</ele><time>2026-04-25T12:47:50.706Z</time></trkpt><trkpt lat="45.5099044" lon="9.2666803"><ele>125.0</ele><time>2026-04-25T12:47:51.706Z</time></trkpt><trkpt lat="45.5098278" lon="9.2665842"><ele>125.0</ele><time>2026-04-25T12:47:52.705Z</time></trkpt><trkpt lat="45.5097445" lon="9.2665333"><ele>125.0</ele><time>2026-04-25T12:47:53.705Z</time></trkpt><trkpt lat="45.5096595" lon="9.2665397"><ele>125.0</ele><time>2026-04-25T12:47:54.705Z</time></trkpt><trkpt lat="45.5095834" lon="9.2666095"><ele>125.0</ele><time>2026-04-25T12:47:55.705Z</time></trkpt><trkpt lat="45.5095283" lon="9.2667155"><ele>125.0</ele><time>2026-04-25T12:47:56.705Z</time></trkpt><trkpt lat="45.5094627" lon="9.2668302"><ele>125.0</ele><time>2026-04-25T12:47:57.706Z</time></trkpt><trkpt lat="45.5093859" lon="9.2669032"><ele>125.0</ele><time>2026-04-25T12:47:58.705Z</time></trkpt><trkpt lat="45.5092866" lon="9.2669313"><ele>125.0</ele><time>2026-04-25T12:47:59.706Z</time></trkpt><trkpt lat="45.5091713" lon="9.266929"><ele>125.0</ele><time>2026-04-25T12:48:00.706Z</time></trkpt><trkpt lat="45.5090548" lon="9.2669131"><ele>125.0</ele><time>2026-04-25T12:48:01.706Z</time></trkpt><trkpt lat="45.5089313" lon="9.2668991"><ele>125.0</ele><time>2026-04-25T12:48:02.705Z</time></trkpt><trkpt lat="45.5088156" lon="9.2668935"><ele>124.75</ele><time>2026-04-25T12:48:03.706Z</time></trkpt><trkpt lat="45.5087096" lon="9.2669084"><ele>124.5</ele><time>2026-04-25T12:48:04.706Z</time></trkpt><trkpt lat="45.5085927" lon="9.2669583"><ele>124.25</ele><time>2026-04-25T12:48:05.706Z</time></trkpt><trkpt lat="45.5084887" lon="9.2670319"><ele>124.0</ele><time>2026-04-25T12:48:06.705Z</time></trkpt><trkpt lat="45.5083891" lon="9.2671152"><ele>124.0</ele><time>2026-04-25T12:48:07.705Z</time></trkpt><trkpt lat="45.5082892" lon="9.2672008"><ele>124.0</ele><time>2026-04-25T12:48:08.706Z</time></trkpt><trkpt lat="45.5081887" lon="9.2672852"><ele>124.0</ele><time>2026-04-25T12:48:09.705Z</time></trkpt><trkpt lat="45.5080878" lon="9.2673664"><ele>124.0</ele><time>2026-04-25T12:48:10.706Z</time></trkpt><trkpt lat="45.5079839" lon="9.2674404"><ele>124.25</ele><time>2026-04-25T12:48:11.706Z</time></trkpt><trkpt lat="45.507884" lon="9.2674968"><ele>124.5</ele><time>2026-04-25T12:48:12.705Z</time></trkpt><trkpt lat="45.507767" lon="9.2675461"><ele>124.75</ele><time>2026-04-25T12:48:13.705Z</time></trkpt><trkpt lat="45.5076556" lon="9.267584"><ele>125.0</ele><time>2026-04-25T12:48:14.705Z</time></trkpt><trkpt lat="45.5075479" lon="9.2676151"><ele>125.0</ele><time>2026-04-25T12:48:15.706Z</time></trkpt><trkpt lat="45.5074276" lon="9.2676482"><ele>125.0</ele><time>2026-04-25T12:48:16.706Z</time></trkpt><trkpt lat="45.5073223" lon="9.2676771"><ele>125.0</ele><time>2026-04-25T12:48:17.706Z</time></trkpt><trkpt lat="45.50721" lon="9.2677087"><ele>125.0</ele><time>2026-04-25T12:48:18.705Z</time></trkpt><trkpt lat="45.5070894" lon="9.2677421"><ele>125.2</ele><time>2026-04-25T12:48:19.705Z</time></trkpt><trkpt lat="45.5069834" lon="9.2677721"><ele>125.4</ele><time>2026-04-25T12:48:20.705Z</time></trkpt><trkpt lat="45.5068635" lon="9.2678093"><ele>125.6</ele><time>2026-04-25T12:48:21.705Z</time></trkpt><trkpt lat="45.5067525" lon="9.2678432"><ele>125.8</ele><time>2026-04-25T12:48:22.706Z</time></trkpt><trkpt lat="45.5066542" lon="9.2678714"><ele>126.0</ele><time>2026-04-25T12:48:23.705Z</time></trkpt><trkpt lat="45.5065574" lon="9.2678969"><ele>126.0</ele><time>2026-04-25T12:48:24.705Z</time></trkpt><trkpt lat="45.5064809" lon="9.2679144"><ele>126.0</ele><time>2026-04-25T12:48:25.705Z</time></trkpt><trkpt lat="45.506362" lon="9.2679365"><ele>126.0</ele><time>2026-04-25T12:48:27.705Z</time></trkpt><trkpt lat="45.5062747" lon="9.2679509"><ele>126.0</ele><time>2026-04-25T12:48:29.706Z</time></trkpt><trkpt lat="45.5062113" lon="9.2679605"><ele>126.0</ele><time>2026-04-25T12:48:33.706Z</time></trkpt><trkpt lat="45.506143" lon="9.2679773"><ele>126.0</ele><time>2026-04-25T12:48:38.705Z</time></trkpt><trkpt lat="45.5060776" lon="9.2679797"><ele>126.0</ele><time>2026-04-25T12:48:50.705Z</time></trkpt><trkpt lat="45.5060116" lon="9.2679888"><ele>126.0</ele><time>2026-04-25T12:48:52.705Z</time></trkpt><trkpt lat="45.505936" lon="9.2679962"><ele>126.0</ele><time>2026-04-25T12:48:54.706Z</time></trkpt><trkpt lat="45.5058585" lon="9.2679928"><ele>126.0</ele><time>2026-04-25T12:48:56.705Z</time></trkpt><trkpt lat="45.5057711" lon="9.2679806"><ele>126.0</ele><time>2026-04-25T12:48:58.705Z</time></trkpt><trkpt lat="45.5056767" lon="9.2679682"><ele>126.0</ele><time>2026-04-25T12:49:00.706Z</time></trkpt><trkpt lat="45.5055485" lon="9.2679751"><ele>126.0</ele><time>2026-04-25T12:49:02.705Z</time></trkpt><trkpt lat="45.5054822" lon="9.2679988"><ele>126.0</ele><time>2026-04-25T12:49:03.705Z</time></trkpt><trkpt lat="45.5054148" lon="9.2680391"><ele>126.0</ele><time>2026-04-25T12:49:04.705Z</time></trkpt><trkpt lat="45.5053495" lon="9.2680837"><ele>126.0</ele><time>2026-04-25T12:49:05.706Z</time></trkpt><trkpt lat="45.5052866" lon="9.2681236"><ele>126.0</ele><time>2026-04-25T12:49:06.705Z</time></trkpt><trkpt lat="45.5052236" lon="9.2681563"><ele>126.0</ele><time>2026-04-25T12:49:07.705Z</time></trkpt><trkpt lat="45.5051609" lon="9.2681811"><ele>126.0</ele><time>2026-04-25T12:49:08.705Z</time></trkpt><trkpt lat="45.5050977" lon="9.2681967"><ele>126.4</ele><time>2026-04-25T12:49:09.705Z</time></trkpt><trkpt lat="45.5050303" lon="9.2682086"><ele>126.8</ele><time>2026-04-25T12:49:10.705Z</time></trkpt><trkpt lat="45.5049073" lon="9.2682281"><ele>127.20000000000002</ele><time>2026-04-25T12:49:12.705Z</time></trkpt><trkpt lat="45.50484" lon="9.2682396"><ele>127.60000000000001</ele><time>2026-04-25T12:49:13.706Z</time></trkpt><trkpt lat="45.5047269" lon="9.2682589"><ele>128.0</ele><time>2026-04-25T12:49:15.705Z</time></trkpt><trkpt lat="45.5046281" lon="9.2682886"><ele>127.80000000000001</ele><time>2026-04-25T12:49:17.705Z</time></trkpt><trkpt lat="45.5045354" lon="9.2683322"><ele>127.60000000000001</ele><time>2026-04-25T12:49:19.706Z</time></trkpt><trkpt lat="45.5044067" lon="9.2683945"><ele>127.39999999999999</ele><time>2026-04-25T12:49:21.706Z</time></trkpt><trkpt lat="45.5043285" lon="9.2684421"><ele>127.19999999999999</ele><time>2026-04-25T12:49:22.706Z</time></trkpt><trkpt lat="45.5042481" lon="9.2685001"><ele>127.0</ele><time>2026-04-25T12:49:23.706Z</time></trkpt><trkpt lat="45.5041729" lon="9.2685616"><ele>127.0</ele><time>2026-04-25T12:49:24.706Z</time></trkpt><trkpt lat="45.5041036" lon="9.268624"><ele>127.0</ele><time>2026-04-25T12:49:25.706Z</time></trkpt><trkpt lat="45.5040422" lon="9.2686857"><ele>127.0</ele><time>2026-04-25T12:49:26.706Z</time></trkpt><trkpt lat="45.5039856" lon="9.2687425"><ele>127.0</ele><time>2026-04-25T12:49:27.706Z</time></trkpt><trkpt lat="45.5039321" lon="9.268795"><ele>127.0</ele><time>2026-04-25T12:49:28.706Z</time></trkpt><trkpt lat="45.5038723" lon="9.2688514"><ele>127.0</ele><time>2026-04-25T12:49:29.705Z</time></trkpt><trkpt lat="45.5038137" lon="9.2689031"><ele>127.0</ele><time>2026-04-25T12:49:30.706Z</time></trkpt><trkpt lat="45.5037378" lon="9.2689623"><ele>127.19999999999999</ele><time>2026-04-25T12:49:31.706Z</time></trkpt><trkpt lat="45.5036475" lon="9.2690208"><ele>127.39999999999999</ele><time>2026-04-25T12:49:32.705Z</time></trkpt><trkpt lat="45.5035459" lon="9.2690698"><ele>127.60000000000001</ele><time>2026-04-25T12:49:33.706Z</time></trkpt><trkpt lat="45.5034303" lon="9.2691069"><ele>127.80000000000001</ele><time>2026-04-25T12:49:34.705Z</time></trkpt><trkpt lat="45.5033091" lon="9.2691296"><ele>128.0</ele><time>2026-04-25T12:49:35.705Z</time></trkpt><trkpt lat="45.5031795" lon="9.2691331"><ele>128.0</ele><time>2026-04-25T12:49:36.706Z</time></trkpt><trkpt lat="45.5030502" lon="9.2691114"><ele>128.0</ele><time>2026-04-25T12:49:37.705Z</time></trkpt><trkpt lat="45.5029168" lon="9.2690646"><ele>128.0</ele><time>2026-04-25T12:49:38.705Z</time></trkpt><trkpt lat="45.5027857" lon="9.2689978"><ele>128.0</ele><time>2026-04-25T12:49:39.705Z</time></trkpt><trkpt lat="45.5026524" lon="9.2689173"><ele>128.25</ele><time>2026-04-25T12:49:40.706Z</time></trkpt><trkpt lat="45.5025202" lon="9.2688326"><ele>128.5</ele><time>2026-04-25T12:49:41.706Z</time></trkpt><trkpt lat="45.5023848" lon="9.2687446"><ele>128.75</ele><time>2026-04-25T12:49:42.705Z</time></trkpt><trkpt lat="45.5022473" lon="9.2686566"><ele>129.0</ele><time>2026-04-25T12:49:43.706Z</time></trkpt><trkpt lat="45.5021067" lon="9.2685744"><ele>128.33333333333334</ele><time>2026-04-25T12:49:44.706Z</time></trkpt><trkpt lat="45.501953" lon="9.2684973"><ele>127.66666666666667</ele><time>2026-04-25T12:49:45.706Z</time></trkpt><trkpt lat="45.5018145" lon="9.2684451"><ele>127.0</ele><time>2026-04-25T12:49:46.705Z</time></trkpt><trkpt lat="45.5016641" lon="9.2684106"><ele>127.0</ele><time>2026-04-25T12:49:47.706Z</time></trkpt><trkpt lat="45.5015141" lon="9.2683975"><ele>127.0</ele><time>2026-04-25T12:49:48.706Z</time></trkpt><trkpt lat="45.5013625" lon="9.2683969"><ele>127.0</ele><time>2026-04-25T12:49:49.706Z</time></trkpt><trkpt lat="45.5012055" lon="9.268407"><ele>126.25</ele><time>2026-04-25T12:49:50.705Z</time></trkpt><trkpt lat="45.5010667" lon="9.2684168"><ele>125.5</ele><time>2026-04-25T12:49:51.705Z</time></trkpt><trkpt lat="45.5009233" lon="9.2684236"><ele>124.75</ele><time>2026-04-25T12:49:52.705Z</time></trkpt><trkpt lat="45.5007813" lon="9.2684143"><ele>124.0</ele><time>2026-04-25T12:49:53.705Z</time></trkpt><trkpt lat="45.5006471" lon="9.2683814"><ele>124.0</ele><time>2026-04-25T12:49:54.706Z</time></trkpt><trkpt lat="45.5005098" lon="9.2683189"><ele>124.0</ele><time>2026-04-25T12:49:55.706Z</time></trkpt><trkpt lat="45.50039" lon="9.2682226"><ele>124.0</ele><time>2026-04-25T12:49:56.705Z</time></trkpt><trkpt lat="45.5002845" lon="9.2680988"><ele>124.0</ele><time>2026-04-25T12:49:57.706Z</time></trkpt><trkpt lat="45.5002001" lon="9.2679518"><ele>124.75</ele><time>2026-04-25T12:49:58.706Z</time></trkpt><trkpt lat="45.5001319" lon="9.2677902"><ele>125.5</ele><time>2026-04-25T12:49:59.705Z</time></trkpt><trkpt lat="45.5000609" lon="9.2676328"><ele>126.25</ele><time>2026-04-25T12:50:00.706Z</time></trkpt><trkpt lat="45.499963" lon="9.2674887"><ele>127.0</ele><time>2026-04-25T12:50:01.705Z</time></trkpt><trkpt lat="45.4998534" lon="9.267393"><ele>127.0</ele><time>2026-04-25T12:50:02.705Z</time></trkpt><trkpt lat="45.4997138" lon="9.2673198"><ele>127.0</ele><time>2026-04-25T12:50:03.705Z</time></trkpt><trkpt lat="45.4995657" lon="9.2672624"><ele>127.0</ele><time>2026-04-25T12:50:04.705Z</time></trkpt><trkpt lat="45.4994166" lon="9.2672098"><ele>126.5</ele><time>2026-04-25T12:50:05.705Z</time></trkpt><trkpt lat="45.4992738" lon="9.2671628"><ele>126.0</ele><time>2026-04-25T12:50:06.705Z</time></trkpt><trkpt lat="45.4991405" lon="9.267119"><ele>125.5</ele><time>2026-04-25T12:50:07.705Z</time></trkpt><trkpt lat="45.499015" lon="9.2670728"><ele>125.0</ele><time>2026-04-25T12:50:08.706Z</time></trkpt><trkpt lat="45.498898" lon="9.2670201"><ele>125.0</ele><time>2026-04-25T12:50:09.706Z</time></trkpt><trkpt lat="45.4987892" lon="9.2669607"><ele>125.0</ele><time>2026-04-25T12:50:10.706Z</time></trkpt><trkpt lat="45.498684" lon="9.2668914"><ele>125.0</ele><time>2026-04-25T12:50:11.705Z</time></trkpt><trkpt lat="45.4985864" lon="9.2668124"><ele>125.0</ele><time>2026-04-25T12:50:12.705Z</time></trkpt><trkpt lat="45.4984954" lon="9.2667238"><ele>125.2</ele><time>2026-04-25T12:50:13.706Z</time></trkpt><trkpt lat="45.4984122" lon="9.2666263"><ele>125.4</ele><time>2026-04-25T12:50:14.705Z</time></trkpt><trkpt lat="45.498335" lon="9.2665229"><ele>125.6</ele><time>2026-04-25T12:50:15.705Z</time></trkpt><trkpt lat="45.4982598" lon="9.2664405"><ele>125.8</ele><time>2026-04-25T12:50:16.705Z</time></trkpt><trkpt lat="45.4981793" lon="9.2664015"><ele>126.0</ele><time>2026-04-25T12:50:17.706Z</time></trkpt><trkpt lat="45.4981111" lon="9.2664128"><ele>126.19999999999999</ele><time>2026-04-25T12:50:18.705Z</time></trkpt><trkpt lat="45.4980447" lon="9.2664717"><ele>126.39999999999999</ele><time>2026-04-25T12:50:19.705Z</time></trkpt><trkpt lat="45.4979838" lon="9.2665646"><ele>126.6</ele><time>2026-04-25T12:50:20.706Z</time></trkpt><trkpt lat="45.4979157" lon="9.2666686"><ele>126.8</ele><time>2026-04-25T12:50:21.705Z</time></trkpt><trkpt lat="45.4978243" lon="9.2667556"><ele>127.0</ele><time>2026-04-25T12:50:22.706Z</time></trkpt><trkpt lat="45.4977186" lon="9.2668021"><ele>126.25</ele><time>2026-04-25T12:50:23.706Z</time></trkpt><trkpt lat="45.4976095" lon="9.2668002"><ele>125.5</ele><time>2026-04-25T12:50:24.705Z</time></trkpt><trkpt lat="45.4975054" lon="9.2667509"><ele>124.75</ele><time>2026-04-25T12:50:25.706Z</time></trkpt><trkpt lat="45.4974117" lon="9.266657"><ele>124.0</ele><time>2026-04-25T12:50:26.706Z</time></trkpt><trkpt lat="45.4973326" lon="9.2665276"><ele>124.25</ele><time>2026-04-25T12:50:27.706Z</time></trkpt><trkpt lat="45.49727" lon="9.266382"><ele>124.5</ele><time>2026-04-25T12:50:28.705Z</time></trkpt><trkpt lat="45.4972114" lon="9.2662337"><ele>124.75</ele><time>2026-04-25T12:50:29.705Z</time></trkpt><trkpt lat="45.4971454" lon="9.2660914"><ele>125.0</ele><time>2026-04-25T12:50:30.705Z</time></trkpt><trkpt lat="45.4970734" lon="9.2659801"><ele>125.0</ele><time>2026-04-25T12:50:31.705Z</time></trkpt><trkpt lat="45.4969826" lon="9.2658851"><ele>125.0</ele><time>2026-04-25T12:50:32.705Z</time></trkpt><trkpt lat="45.4968701" lon="9.2658154"><ele>125.0</ele><time>2026-04-25T12:50:33.706Z</time></trkpt><trkpt lat="45.496754" lon="9.2657787"><ele>125.0</ele><time>2026-04-25T12:50:34.706Z</time></trkpt><trkpt lat="45.4966161" lon="9.2657676"><ele>125.0</ele><time>2026-04-25T12:50:35.706Z</time></trkpt><trkpt lat="45.4964531" lon="9.2657788"><ele>125.0</ele><time>2026-04-25T12:50:36.705Z</time></trkpt><trkpt lat="45.4962577" lon="9.2658057"><ele>125.0</ele><time>2026-04-25T12:50:37.705Z</time></trkpt><trkpt lat="45.4960412" lon="9.2658385"><ele>125.66666666666666</ele><time>2026-04-25T12:50:38.705Z</time></trkpt><trkpt lat="45.4958635" lon="9.2658532"><ele>126.33333333333334</ele><time>2026-04-25T12:50:39.706Z</time></trkpt><trkpt lat="45.4956852" lon="9.2658512"><ele>127.0</ele><time>2026-04-25T12:50:40.705Z</time></trkpt><trkpt lat="45.4955173" lon="9.2658262"><ele>126.66666666666667</ele><time>2026-04-25T12:50:41.705Z</time></trkpt><trkpt lat="45.4953615" lon="9.265775"><ele>126.33333333333334</ele><time>2026-04-25T12:50:42.706Z</time></trkpt><trkpt lat="45.4952111" lon="9.265701"><ele>126.0</ele><time>2026-04-25T12:50:43.706Z</time></trkpt><trkpt lat="45.495071" lon="9.2656074"><ele>126.0</ele><time>2026-04-25T12:50:44.705Z</time></trkpt><trkpt lat="45.4949421" lon="9.2654938"><ele>126.0</ele><time>2026-04-25T12:50:45.706Z</time></trkpt><trkpt lat="45.4948242" lon="9.2653644"><ele>126.0</ele><time>2026-04-25T12:50:46.705Z</time></trkpt><trkpt lat="45.4947186" lon="9.2652188"><ele>126.0</ele><time>2026-04-25T12:50:47.706Z</time></trkpt><trkpt lat="45.494626" lon="9.2650622"><ele>125.0</ele><time>2026-04-25T12:50:48.705Z</time></trkpt><trkpt lat="45.494539" lon="9.2648842"><ele>124.0</ele><time>2026-04-25T12:50:49.705Z</time></trkpt><trkpt lat="45.4944754" lon="9.2647285"><ele>123.0</ele><time>2026-04-25T12:50:50.706Z</time></trkpt><trkpt lat="45.4944219" lon="9.2645586"><ele>122.0</ele><time>2026-04-25T12:50:51.706Z</time></trkpt><trkpt lat="45.4943852" lon="9.2643943"><ele>122.0</ele><time>2026-04-25T12:50:52.706Z</time></trkpt><trkpt lat="45.4943615" lon="9.2642346"><ele>121.99999999999999</ele><time>2026-04-25T12:50:53.706Z</time></trkpt><trkpt lat="45.4943476" lon="9.2640853"><ele>121.99999999999999</ele><time>2026-04-25T12:50:54.705Z</time></trkpt><trkpt lat="45.4943401" lon="9.2639492"><ele>122.0</ele><time>2026-04-25T12:50:55.705Z</time></trkpt><trkpt lat="45.494339" lon="9.2638216"><ele>122.0</ele><time>2026-04-25T12:50:56.706Z</time></trkpt><trkpt lat="45.4943423" lon="9.2636994"><ele>121.99999999999999</ele><time>2026-04-25T12:50:57.705Z</time></trkpt><trkpt lat="45.4943487" lon="9.2635808"><ele>122.0</ele><time>2026-04-25T12:50:58.706Z</time></trkpt><trkpt lat="45.4943613" lon="9.2634639"><ele>122.0</ele><time>2026-04-25T12:50:59.705Z</time></trkpt><trkpt lat="45.4943878" lon="9.2633483"><ele>122.0</ele><time>2026-04-25T12:51:00.706Z</time></trkpt><trkpt lat="45.4944032" lon="9.2632301"><ele>121.99999999999999</ele><time>2026-04-25T12:51:01.705Z</time></trkpt><trkpt lat="45.4943886" lon="9.2631145"><ele>122.0</ele><time>2026-04-25T12:51:02.705Z</time></trkpt><trkpt lat="45.4943379" lon="9.2630241"><ele>122.0</ele><time>2026-04-25T12:51:03.705Z</time></trkpt><trkpt lat="45.494258" lon="9.262967"><ele>121.99999999999999</ele><time>2026-04-25T12:51:04.705Z</time></trkpt><trkpt lat="45.4941599" lon="9.2629261"><ele>121.99999999999999</ele><time>2026-04-25T12:51:05.705Z</time></trkpt><trkpt lat="45.4940699" lon="9.2628676"><ele>122.0</ele><time>2026-04-25T12:51:06.706Z</time></trkpt><trkpt lat="45.4939685" lon="9.2628033"><ele>122.0</ele><time>2026-04-25T12:51:07.706Z</time></trkpt><trkpt lat="45.4938666" lon="9.262745"><ele>122.0</ele><time>2026-04-25T12:51:08.705Z</time></trkpt><trkpt lat="45.4937607" lon="9.2626932"><ele>121.99999999999999</ele><time>2026-04-25T12:51:09.705Z</time></trkpt><trkpt lat="45.4936537" lon="9.2626424"><ele>121.99999999999999</ele><time>2026-04-25T12:51:10.705Z</time></trkpt><trkpt lat="45.4935516" lon="9.2626081"><ele>122.0</ele><time>2026-04-25T12:51:11.705Z</time></trkpt><trkpt lat="45.4934527" lon="9.2625611"><ele>122.0</ele><time>2026-04-25T12:51:12.706Z</time></trkpt><trkpt lat="45.4933543" lon="9.2625123"><ele>122.0</ele><time>2026-04-25T12:51:13.706Z</time></trkpt><trkpt lat="45.493259" lon="9.2624656"><ele>121.99999999999999</ele><time>2026-04-25T12:51:14.705Z</time></trkpt><trkpt lat="45.4931603" lon="9.2624147"><ele>121.99999999999999</ele><time>2026-04-25T12:51:15.705Z</time></trkpt><trkpt lat="45.4930612" lon="9.2623654"><ele>122.0</ele><time>2026-04-25T12:51:16.706Z</time></trkpt><trkpt lat="45.492964" lon="9.2623164"><ele>122.0</ele><time>2026-04-25T12:51:17.705Z</time></trkpt><trkpt lat="45.492867" lon="9.2622683"><ele>122.0</ele><time>2026-04-25T12:51:18.706Z</time></trkpt><trkpt lat="45.4927692" lon="9.2622215"><ele>121.99999999999999</ele><time>2026-04-25T12:51:19.706Z</time></trkpt><trkpt lat="45.4926699" lon="9.2621732"><ele>121.99999999999999</ele><time>2026-04-25T12:51:20.706Z</time></trkpt><trkpt lat="45.4925635" lon="9.2621217"><ele>122.0</ele><time>2026-04-25T12:51:21.705Z</time></trkpt><trkpt lat="45.492471" lon="9.2620759"><ele>122.0</ele><time>2026-04-25T12:51:22.705Z</time></trkpt><trkpt lat="45.4923694" lon="9.2620271"><ele>122.0</ele><time>2026-04-25T12:51:23.706Z</time></trkpt><trkpt lat="45.492265" lon="9.2619755"><ele>121.99999999999999</ele><time>2026-04-25T12:51:24.705Z</time></trkpt><trkpt lat="45.4921596" lon="9.2619245"><ele>121.99999999999999</ele><time>2026-04-25T12:51:25.705Z</time></trkpt><trkpt lat="45.4920547" lon="9.2618735"><ele>122.0</ele><time>2026-04-25T12:51:26.706Z</time></trkpt><trkpt lat="45.4919492" lon="9.2618203"><ele>122.0</ele><time>2026-04-25T12:51:27.706Z</time></trkpt><trkpt lat="45.4918432" lon="9.2617668"><ele>121.5</ele><time>2026-04-25T12:51:28.705Z</time></trkpt><trkpt lat="45.4917375" lon="9.2617138"><ele>121.0</ele><time>2026-04-25T12:51:29.705Z</time></trkpt><trkpt lat="45.4916296" lon="9.2616615"><ele>120.5</ele><time>2026-04-25T12:51:30.705Z</time></trkpt><trkpt lat="45.4915215" lon="9.2616115"><ele>120.0</ele><time>2026-04-25T12:51:31.705Z</time></trkpt><trkpt lat="45.4914123" lon="9.2615629"><ele>120.0</ele><time>2026-04-25T12:51:32.706Z</time></trkpt><trkpt lat="45.4913024" lon="9.2615239"><ele>120.0</ele><time>2026-04-25T12:51:33.705Z</time></trkpt><trkpt lat="45.4911918" lon="9.2615052"><ele>120.0</ele><time>2026-04-25T12:51:34.705Z</time></trkpt><trkpt lat="45.4910798" lon="9.2615083"><ele>120.0</ele><time>2026-04-25T12:51:35.705Z</time></trkpt><trkpt lat="45.4909679" lon="9.2615272"><ele>120.0</ele><time>2026-04-25T12:51:36.705Z</time></trkpt><trkpt lat="45.4908535" lon="9.2615569"><ele>119.6</ele><time>2026-04-25T12:51:37.706Z</time></trkpt><trkpt lat="45.4907578" lon="9.2615837"><ele>119.2</ele><time>2026-04-25T12:51:38.706Z</time></trkpt><trkpt lat="45.4906613" lon="9.2616078"><ele>118.80000000000001</ele><time>2026-04-25T12:51:39.706Z</time></trkpt><trkpt lat="45.4905701" lon="9.2616303"><ele>118.4</ele><time>2026-04-25T12:51:40.705Z</time></trkpt><trkpt lat="45.4904855" lon="9.2616529"><ele>118.0</ele><time>2026-04-25T12:51:41.706Z</time></trkpt><trkpt lat="45.4904067" lon="9.2616697"><ele>117.83333333333334</ele><time>2026-04-25T12:51:42.705Z</time></trkpt><trkpt lat="45.4903346" lon="9.2616836"><ele>117.66666666666667</ele><time>2026-04-25T12:51:43.706Z</time></trkpt><trkpt lat="45.4902682" lon="9.2616981"><ele>117.5</ele><time>2026-04-25T12:51:44.705Z</time></trkpt><trkpt lat="45.4901424" lon="9.2617323"><ele>117.33333333333334</ele><time>2026-04-25T12:51:46.706Z</time></trkpt><trkpt lat="45.4900721" lon="9.2617393"><ele>117.16666666666667</ele><time>2026-04-25T12:51:47.706Z</time></trkpt><trkpt lat="45.4900017" lon="9.2617389"><ele>117.0</ele><time>2026-04-25T12:51:48.705Z</time></trkpt><trkpt lat="45.4899234" lon="9.2617356"><ele>117.0</ele><time>2026-04-25T12:51:49.705Z</time></trkpt><trkpt lat="45.4898479" lon="9.2617394"><ele>117.0</ele><time>2026-04-25T12:51:50.706Z</time></trkpt><trkpt lat="45.4897696" lon="9.2617605"><ele>117.0</ele><time>2026-04-25T12:51:51.706Z</time></trkpt><trkpt lat="45.4896872" lon="9.2617967"><ele>117.0</ele><time>2026-04-25T12:51:52.706Z</time></trkpt><trkpt lat="45.4896116" lon="9.2618383"><ele>117.0</ele><time>2026-04-25T12:51:53.706Z</time></trkpt><trkpt lat="45.4895457" lon="9.261876"><ele>117.0</ele><time>2026-04-25T12:51:54.706Z</time></trkpt><trkpt lat="45.4894467" lon="9.2619291"><ele>117.39999999999999</ele><time>2026-04-25T12:51:56.706Z</time></trkpt><trkpt lat="45.4892989" lon="9.261946"><ele>117.79999999999998</ele><time>2026-04-25T12:51:58.705Z</time></trkpt><trkpt lat="45.4892097" lon="9.2619461"><ele>118.2</ele><time>2026-04-25T12:51:59.705Z</time></trkpt><trkpt lat="45.4891143" lon="9.261961"><ele>118.6</ele><time>2026-04-25T12:52:00.705Z</time></trkpt><trkpt lat="45.4890305" lon="9.2620071"><ele>119.0</ele><time>2026-04-25T12:52:01.706Z</time></trkpt><trkpt lat="45.4889521" lon="9.262101"><ele>119.0</ele><time>2026-04-25T12:52:02.706Z</time></trkpt><trkpt lat="45.4889054" lon="9.2622198"><ele>119.0</ele><time>2026-04-25T12:52:03.705Z</time></trkpt><trkpt lat="45.4888848" lon="9.2623476"><ele>119.0</ele><time>2026-04-25T12:52:04.706Z</time></trkpt><trkpt lat="45.4888933" lon="9.2624903"><ele>119.0</ele><time>2026-04-25T12:52:05.706Z</time></trkpt><trkpt lat="45.4889303" lon="9.2626083"><ele>119.0</ele><time>2026-04-25T12:52:06.706Z</time></trkpt><trkpt lat="45.4889866" lon="9.2626971"><ele>118.49999999999999</ele><time>2026-04-25T12:52:07.705Z</time></trkpt><trkpt lat="45.489058" lon="9.262757"><ele>118.0</ele><time>2026-04-25T12:52:08.706Z</time></trkpt><trkpt lat="45.4891413" lon="9.2627863"><ele>117.5</ele><time>2026-04-25T12:52:09.705Z</time></trkpt><trkpt lat="45.4892187" lon="9.2627848"><ele>117.0</ele><time>2026-04-25T12:52:10.705Z</time></trkpt><trkpt lat="45.4893048" lon="9.2627475"><ele>116.49999999999999</ele><time>2026-04-25T12:52:11.706Z</time></trkpt><trkpt lat="45.4893843" lon="9.2626676"><ele>116.0</ele><time>2026-04-25T12:52:12.705Z</time></trkpt><trkpt lat="45.4894503" lon="9.2625437"><ele>116.0</ele><time>2026-04-25T12:52:13.706Z</time></trkpt><trkpt lat="45.4894899" lon="9.2623832"><ele>116.0</ele><time>2026-04-25T12:52:14.706Z</time></trkpt><trkpt lat="45.4895275" lon="9.2622074"><ele>116.0</ele><time>2026-04-25T12:52:15.706Z</time></trkpt><trkpt lat="45.4895826" lon="9.2620653"><ele>116.0</ele><time>2026-04-25T12:52:16.705Z</time></trkpt><trkpt lat="45.4896674" lon="9.2619569"><ele>116.25</ele><time>2026-04-25T12:52:17.706Z</time></trkpt><trkpt lat="45.4897948" lon="9.2618783"><ele>116.5</ele><time>2026-04-25T12:52:18.706Z</time></trkpt><trkpt lat="45.4899335" lon="9.2618485"><ele>116.75</ele><time>2026-04-25T12:52:19.706Z</time></trkpt><trkpt lat="45.4900599" lon="9.2618315"><ele>117.0</ele><time>2026-04-25T12:52:20.705Z</time></trkpt><trkpt lat="45.4901939" lon="9.2618115"><ele>117.0</ele><time>2026-04-25T12:52:21.705Z</time></trkpt><trkpt lat="45.4903029" lon="9.2618054"><ele>116.99999999999999</ele><time>2026-04-25T12:52:22.706Z</time></trkpt><trkpt lat="45.4903911" lon="9.2618293"><ele>116.99999999999999</ele><time>2026-04-25T12:52:23.705Z</time></trkpt><trkpt lat="45.4904685" lon="9.2618529"><ele>117.0</ele><time>2026-04-25T12:52:24.706Z</time></trkpt><trkpt lat="45.4905677" lon="9.26179"><ele>117.0</ele><time>2026-04-25T12:52:26.705Z</time></trkpt><trkpt lat="45.4905531" lon="9.2616853"><ele>117.0</ele><time>2026-04-25T12:52:28.705Z</time></trkpt><trkpt lat="45.4904599" lon="9.2616785"><ele>116.99999999999999</ele><time>2026-04-25T12:52:30.706Z</time></trkpt><trkpt lat="45.4903511" lon="9.2617096"><ele>116.99999999999999</ele><time>2026-04-25T12:52:32.706Z</time></trkpt><trkpt lat="45.4902588" lon="9.2617072"><ele>117.0</ele><time>2026-04-25T12:52:34.705Z</time></trkpt><trkpt lat="45.4901598" lon="9.2616999"><ele>117.0</ele><time>2026-04-25T12:52:36.705Z</time></trkpt><trkpt lat="45.4900831" lon="9.2617107"><ele>117.0</ele><time>2026-04-25T12:52:37.705Z</time></trkpt><trkpt lat="45.4899931" lon="9.2617223"><ele>117.0</ele><time>2026-04-25T12:52:38.705Z</time></trkpt><trkpt lat="45.4899119" lon="9.2617308"><ele>117.0</ele><time>2026-04-25T12:52:39.706Z</time></trkpt><trkpt lat="45.4898217" lon="9.2617415"><ele>117.0</ele><time>2026-04-25T12:52:40.705Z</time></trkpt><trkpt lat="45.4897246" lon="9.2617553"><ele>117.0</ele><time>2026-04-25T12:52:41.705Z</time></trkpt><trkpt lat="45.4896372" lon="9.2617684"><ele>117.0</ele><time>2026-04-25T12:52:42.705Z</time></trkpt><trkpt lat="45.4895445" lon="9.2617811"><ele>117.39999999999999</ele><time>2026-04-25T12:52:43.705Z</time></trkpt><trkpt lat="45.4894527" lon="9.261792"><ele>117.79999999999998</ele><time>2026-04-25T12:52:44.706Z</time></trkpt><trkpt lat="45.4893548" lon="9.2617979"><ele>118.2</ele><time>2026-04-25T12:52:45.706Z</time></trkpt><trkpt lat="45.4892512" lon="9.2617981"><ele>118.6</ele><time>2026-04-25T12:52:46.705Z</time></trkpt><trkpt lat="45.4891374" lon="9.2618038"><ele>119.0</ele><time>2026-04-25T12:52:47.706Z</time></trkpt><trkpt lat="45.4890103" lon="9.2618029"><ele>119.0</ele><time>2026-04-25T12:52:48.705Z</time></trkpt><trkpt lat="45.4888867" lon="9.2617759"><ele>119.0</ele><time>2026-04-25T12:52:49.705Z</time></trkpt><trkpt lat="45.4887556" lon="9.2617019"><ele>119.0</ele><time>2026-04-25T12:52:50.706Z</time></trkpt><trkpt lat="45.4886503" lon="9.2616075"><ele>119.0</ele><time>2026-04-25T12:52:51.706Z</time></trkpt><trkpt lat="45.4885579" lon="9.2615025"><ele>119.0</ele><time>2026-04-25T12:52:52.706Z</time></trkpt><trkpt lat="45.4884707" lon="9.2613879"><ele>119.0</ele><time>2026-04-25T12:52:53.706Z</time></trkpt><trkpt lat="45.4883833" lon="9.2612555"><ele>119.0</ele><time>2026-04-25T12:52:54.705Z</time></trkpt><trkpt lat="45.4883083" lon="9.2611253"><ele>119.0</ele><time>2026-04-25T12:52:55.705Z</time></trkpt><trkpt lat="45.4882321" lon="9.2609767"><ele>119.0</ele><time>2026-04-25T12:52:56.705Z</time></trkpt><trkpt lat="45.4881541" lon="9.2608099"><ele>119.0</ele><time>2026-04-25T12:52:57.706Z</time></trkpt><trkpt lat="45.4880866" lon="9.2606549"><ele>119.0</ele><time>2026-04-25T12:52:58.706Z</time></trkpt><trkpt lat="45.4880166" lon="9.2604797"><ele>119.0</ele><time>2026-04-25T12:52:59.706Z</time></trkpt><trkpt lat="45.48795" lon="9.2602933"><ele>118.0</ele><time>2026-04-25T12:53:00.706Z</time></trkpt><trkpt lat="45.4878891" lon="9.2601013"><ele>117.0</ele><time>2026-04-25T12:53:01.706Z</time></trkpt><trkpt lat="45.4878325" lon="9.2599011"><ele>116.0</ele><time>2026-04-25T12:53:02.705Z</time></trkpt><trkpt lat="45.4877798" lon="9.2596911"><ele>116.0</ele><time>2026-04-25T12:53:03.705Z</time></trkpt><trkpt lat="45.487734" lon="9.2594705"><ele>116.0</ele><time>2026-04-25T12:53:04.706Z</time></trkpt><trkpt lat="45.4876988" lon="9.2592604"><ele>116.0</ele><time>2026-04-25T12:53:05.705Z</time></trkpt><trkpt lat="45.4876664" lon="9.2590226"><ele>116.0</ele><time>2026-04-25T12:53:06.706Z</time></trkpt><trkpt lat="45.4876424" lon="9.2588071"><ele>116.0</ele><time>2026-04-25T12:53:07.705Z</time></trkpt><trkpt lat="45.4876227" lon="9.2585956"><ele>116.0</ele><time>2026-04-25T12:53:08.706Z</time></trkpt><trkpt lat="45.487606" lon="9.2583809"><ele>116.0</ele><time>2026-04-25T12:53:09.706Z</time></trkpt><trkpt lat="45.4875903" lon="9.2581621"><ele>116.0</ele><time>2026-04-25T12:53:10.705Z</time></trkpt><trkpt lat="45.4875746" lon="9.2579379"><ele>116.0</ele><time>2026-04-25T12:53:11.705Z</time></trkpt><trkpt lat="45.4875582" lon="9.2577097"><ele>116.0</ele><time>2026-04-25T12:53:12.705Z</time></trkpt><trkpt lat="45.4875403" lon="9.2574634"><ele>116.0</ele><time>2026-04-25T12:53:13.705Z</time></trkpt><trkpt lat="45.4875264" lon="9.2572484"><ele>116.0</ele><time>2026-04-25T12:53:14.705Z</time></trkpt><trkpt lat="45.4875112" lon="9.2570118"><ele>116.66666666666666</ele><time>2026-04-25T12:53:15.706Z</time></trkpt><trkpt lat="45.4874951" lon="9.2567743"><ele>117.33333333333334</ele><time>2026-04-25T12:53:16.706Z</time></trkpt><trkpt lat="45.4874793" lon="9.2565336"><ele>118.0</ele><time>2026-04-25T12:53:17.706Z</time></trkpt><trkpt lat="45.4874634" lon="9.2562898"><ele>118.0</ele><time>2026-04-25T12:53:18.705Z</time></trkpt><trkpt lat="45.4874483" lon="9.2560449"><ele>118.0</ele><time>2026-04-25T12:53:19.705Z</time></trkpt><trkpt lat="45.487434" lon="9.2557934"><ele>118.0</ele><time>2026-04-25T12:53:20.706Z</time></trkpt><trkpt lat="45.4874204" lon="9.2555596"><ele>117.33333333333334</ele><time>2026-04-25T12:53:21.705Z</time></trkpt><trkpt lat="45.4874057" lon="9.2552901"><ele>116.66666666666666</ele><time>2026-04-25T12:53:22.706Z</time></trkpt><trkpt lat="45.4873913" lon="9.2550419"><ele>116.0</ele><time>2026-04-25T12:53:23.705Z</time></trkpt><trkpt lat="45.4873779" lon="9.2547944"><ele>116.33333333333333</ele><time>2026-04-25T12:53:24.706Z</time></trkpt><trkpt lat="45.487364" lon="9.2545467"><ele>116.66666666666666</ele><time>2026-04-25T12:53:25.706Z</time></trkpt><trkpt lat="45.4873492" lon="9.2542857"><ele>117.0</ele><time>2026-04-25T12:53:26.706Z</time></trkpt><trkpt lat="45.487335" lon="9.2540534"><ele>117.0</ele><time>2026-04-25T12:53:27.706Z</time></trkpt><trkpt lat="45.4873193" lon="9.2538073"><ele>117.0</ele><time>2026-04-25T12:53:28.705Z</time></trkpt><trkpt lat="45.4873012" lon="9.2535448"><ele>117.0</ele><time>2026-04-25T12:53:29.705Z</time></trkpt><trkpt lat="45.4872863" lon="9.2533127"><ele>117.33333333333334</ele><time>2026-04-25T12:53:30.705Z</time></trkpt><trkpt lat="45.4872719" lon="9.2530647"><ele>117.66666666666667</ele><time>2026-04-25T12:53:31.705Z</time></trkpt><trkpt lat="45.4872607" lon="9.2528151"><ele>118.0</ele><time>2026-04-25T12:53:32.705Z</time></trkpt><trkpt lat="45.4872536" lon="9.2525662"><ele>118.0</ele><time>2026-04-25T12:53:33.705Z</time></trkpt><trkpt lat="45.4872481" lon="9.2523167"><ele>118.0</ele><time>2026-04-25T12:53:34.706Z</time></trkpt><trkpt lat="45.4872407" lon="9.2520668"><ele>118.0</ele><time>2026-04-25T12:53:35.705Z</time></trkpt><trkpt lat="45.4872314" lon="9.2518173"><ele>118.0</ele><time>2026-04-25T12:53:36.705Z</time></trkpt><trkpt lat="45.4872195" lon="9.2515857"><ele>118.0</ele><time>2026-04-25T12:53:37.705Z</time></trkpt><trkpt lat="45.4872038" lon="9.2513243"><ele>118.0</ele><time>2026-04-25T12:53:38.706Z</time></trkpt><trkpt lat="45.4871884" lon="9.2510802"><ele>117.66666666666667</ele><time>2026-04-25T12:53:39.705Z</time></trkpt><trkpt lat="45.4871697" lon="9.2508355"><ele>117.33333333333334</ele><time>2026-04-25T12:53:40.706Z</time></trkpt><trkpt lat="45.4871545" lon="9.2505935"><ele>117.0</ele><time>2026-04-25T12:53:41.705Z</time></trkpt><trkpt lat="45.4871401" lon="9.2503537"><ele>116.66666666666666</ele><time>2026-04-25T12:53:42.705Z</time></trkpt><trkpt lat="45.4871271" lon="9.2501129"><ele>116.33333333333333</ele><time>2026-04-25T12:53:43.706Z</time></trkpt><trkpt lat="45.4871132" lon="9.2498776"><ele>116.0</ele><time>2026-04-25T12:53:44.705Z</time></trkpt><trkpt lat="45.4870941" lon="9.2496247"><ele>116.33333333333333</ele><time>2026-04-25T12:53:45.705Z</time></trkpt><trkpt lat="45.4870739" lon="9.2494046"><ele>116.66666666666666</ele><time>2026-04-25T12:53:46.706Z</time></trkpt><trkpt lat="45.4870497" lon="9.2491751"><ele>117.0</ele><time>2026-04-25T12:53:47.705Z</time></trkpt><trkpt lat="45.4870249" lon="9.2489559"><ele>117.5</ele><time>2026-04-25T12:53:48.705Z</time></trkpt><trkpt lat="45.4869996" lon="9.2487556"><ele>118.0</ele><time>2026-04-25T12:53:49.706Z</time></trkpt><trkpt lat="45.4869729" lon="9.2485704"><ele>118.5</ele><time>2026-04-25T12:53:50.705Z</time></trkpt><trkpt lat="45.4869458" lon="9.248401"><ele>119.0</ele><time>2026-04-25T12:53:51.705Z</time></trkpt><trkpt lat="45.4869204" lon="9.2482429"><ele>119.2</ele><time>2026-04-25T12:53:52.705Z</time></trkpt><trkpt lat="45.4868999" lon="9.2481043"><ele>119.4</ele><time>2026-04-25T12:53:53.706Z</time></trkpt><trkpt lat="45.4868799" lon="9.2479572"><ele>119.6</ele><time>2026-04-25T12:53:54.705Z</time></trkpt><trkpt lat="45.4868656" lon="9.2478337"><ele>119.8</ele><time>2026-04-25T12:53:55.706Z</time></trkpt><trkpt lat="45.4868548" lon="9.2477304"><ele>120.0</ele><time>2026-04-25T12:53:56.705Z</time></trkpt><trkpt lat="45.4868517" lon="9.2475615"><ele>120.0</ele><time>2026-04-25T12:53:58.705Z</time></trkpt><trkpt lat="45.486897" lon="9.2474496"><ele>120.0</ele><time>2026-04-25T12:54:00.706Z</time></trkpt><trkpt lat="45.4869552" lon="9.2473984"><ele>120.0</ele><time>2026-04-25T12:54:02.705Z</time></trkpt><trkpt lat="45.4870146" lon="9.2473301"><ele>120.0</ele><time>2026-04-25T12:54:04.705Z</time></trkpt><trkpt lat="45.487035" lon="9.2471721"><ele>120.0</ele><time>2026-04-25T12:54:06.705Z</time></trkpt><trkpt lat="45.487028" lon="9.2470538"><ele>120.0</ele><time>2026-04-25T12:54:07.706Z</time></trkpt><trkpt lat="45.487011" lon="9.2468841"><ele>120.5</ele><time>2026-04-25T12:54:08.705Z</time></trkpt><trkpt lat="45.4869925" lon="9.2467038"><ele>121.0</ele><time>2026-04-25T12:54:09.705Z</time></trkpt><trkpt lat="45.4869698" lon="9.2465063"><ele>121.5</ele><time>2026-04-25T12:54:10.706Z</time></trkpt><trkpt lat="45.4869439" lon="9.2463245"><ele>122.0</ele><time>2026-04-25T12:54:11.705Z</time></trkpt><trkpt lat="45.4869099" lon="9.2461547"><ele>122.25</ele><time>2026-04-25T12:54:12.706Z</time></trkpt><trkpt lat="45.4868623" lon="9.2459934"><ele>122.5</ele><time>2026-04-25T12:54:13.705Z</time></trkpt><trkpt lat="45.4868127" lon="9.24582"><ele>122.75</ele><time>2026-04-25T12:54:14.705Z</time></trkpt><trkpt lat="45.4867809" lon="9.2456492"><ele>123.0</ele><time>2026-04-25T12:54:15.706Z</time></trkpt><trkpt lat="45.4867587" lon="9.2454672"><ele>123.25</ele><time>2026-04-25T12:54:16.706Z</time></trkpt><trkpt lat="45.4867406" lon="9.2452701"><ele>123.5</ele><time>2026-04-25T12:54:17.705Z</time></trkpt><trkpt lat="45.4867242" lon="9.2451046"><ele>123.75</ele><time>2026-04-25T12:54:18.705Z</time></trkpt><trkpt lat="45.4867041" lon="9.2449281"><ele>124.0</ele><time>2026-04-25T12:54:19.705Z</time></trkpt><trkpt lat="45.4866861" lon="9.2447514"><ele>124.0</ele><time>2026-04-25T12:54:20.705Z</time></trkpt><trkpt lat="45.4866684" lon="9.244578"><ele>124.0</ele><time>2026-04-25T12:54:21.705Z</time></trkpt><trkpt lat="45.486652" lon="9.2443938"><ele>124.0</ele><time>2026-04-25T12:54:22.706Z</time></trkpt><trkpt lat="45.4866377" lon="9.2442324"><ele>124.0</ele><time>2026-04-25T12:54:23.705Z</time></trkpt><trkpt lat="45.4866222" lon="9.2440594"><ele>124.75</ele><time>2026-04-25T12:54:24.706Z</time></trkpt><trkpt lat="45.4866067" lon="9.2438914"><ele>125.5</ele><time>2026-04-25T12:54:25.706Z</time></trkpt><trkpt lat="45.4865906" lon="9.2437233"><ele>126.25</ele><time>2026-04-25T12:54:26.706Z</time></trkpt><trkpt lat="45.4865748" lon="9.2435613"><ele>127.0</ele><time>2026-04-25T12:54:27.706Z</time></trkpt><trkpt lat="45.4865608" lon="9.2434211"><ele>127.00000000000001</ele><time>2026-04-25T12:54:28.705Z</time></trkpt><trkpt lat="45.4865497" lon="9.2433107"><ele>127.0</ele><time>2026-04-25T12:54:29.705Z</time></trkpt><trkpt lat="45.4865353" lon="9.2431656"><ele>127.0</ele><time>2026-04-25T12:54:31.705Z</time></trkpt><trkpt lat="45.4865268" lon="9.2430747"><ele>127.0</ele><time>2026-04-25T12:54:34.705Z</time></trkpt><trkpt lat="45.4865166" lon="9.2429672"><ele>127.00000000000001</ele><time>2026-04-25T12:55:27.706Z</time></trkpt><trkpt lat="45.4865069" lon="9.2428677"><ele>127.0</ele><time>2026-04-25T12:55:28.706Z</time></trkpt><trkpt lat="45.4864958" lon="9.2427563"><ele>127.0</ele><time>2026-04-25T12:55:29.706Z</time></trkpt><trkpt lat="45.4864836" lon="9.2426282"><ele>126.99999999999999</ele><time>2026-04-25T12:55:30.705Z</time></trkpt><trkpt lat="45.4864709" lon="9.2424836"><ele>126.99999999999999</ele><time>2026-04-25T12:55:31.706Z</time></trkpt><trkpt lat="45.4864601" lon="9.2423347"><ele>127.0</ele><time>2026-04-25T12:55:32.706Z</time></trkpt><trkpt lat="45.486447" lon="9.2421899"><ele>127.0</ele><time>2026-04-25T12:55:33.706Z</time></trkpt><trkpt lat="45.4864336" lon="9.242038"><ele>127.19999999999999</ele><time>2026-04-25T12:55:34.705Z</time></trkpt><trkpt lat="45.486423" lon="9.2419054"><ele>127.39999999999999</ele><time>2026-04-25T12:55:35.705Z</time></trkpt><trkpt lat="45.4864114" lon="9.2417666"><ele>127.60000000000001</ele><time>2026-04-25T12:55:36.705Z</time></trkpt><trkpt lat="45.4864003" lon="9.2416182"><ele>127.80000000000001</ele><time>2026-04-25T12:55:37.705Z</time></trkpt><trkpt lat="45.4863891" lon="9.2414907"><ele>128.0</ele><time>2026-04-25T12:55:38.706Z</time></trkpt><trkpt lat="45.4863774" lon="9.2413551"><ele>127.99999999999999</ele><time>2026-04-25T12:55:39.706Z</time></trkpt><trkpt lat="45.4863662" lon="9.2412198"><ele>128.0</ele><time>2026-04-25T12:55:40.706Z</time></trkpt><trkpt lat="45.4863547" lon="9.241087"><ele>128.0</ele><time>2026-04-25T12:55:41.706Z</time></trkpt><trkpt lat="45.4863448" lon="9.2409601"><ele>128.0</ele><time>2026-04-25T12:55:42.705Z</time></trkpt><trkpt lat="45.4863324" lon="9.24084"><ele>127.99999999999999</ele><time>2026-04-25T12:55:43.706Z</time></trkpt><trkpt lat="45.486316" lon="9.240726"><ele>128.0</ele><time>2026-04-25T12:55:44.706Z</time></trkpt><trkpt lat="45.4863025" lon="9.2406291"><ele>127.66666666666666</ele><time>2026-04-25T12:55:45.705Z</time></trkpt><trkpt lat="45.4863025" lon="9.2405358"><ele>127.33333333333333</ele><time>2026-04-25T12:55:46.705Z</time></trkpt><trkpt lat="45.4863707" lon="9.2404174"><ele>127.0</ele><time>2026-04-25T12:55:48.705Z</time></trkpt><trkpt lat="45.4864846" lon="9.2404036"><ele>126.66666666666666</ele><time>2026-04-25T12:55:50.705Z</time></trkpt><trkpt lat="45.4865574" lon="9.240401"><ele>126.33333333333333</ele><time>2026-04-25T12:55:51.705Z</time></trkpt><trkpt lat="45.4866326" lon="9.2403935"><ele>126.0</ele><time>2026-04-25T12:55:52.706Z</time></trkpt><trkpt lat="45.4867098" lon="9.240385"><ele>126.0</ele><time>2026-04-25T12:55:53.705Z</time></trkpt><trkpt lat="45.486776" lon="9.2403775"><ele>126.0</ele><time>2026-04-25T12:55:54.706Z</time></trkpt><trkpt lat="45.4868442" lon="9.2403724"><ele>126.0</ele><time>2026-04-25T12:55:55.706Z</time></trkpt><trkpt lat="45.4869122" lon="9.2403669"><ele>126.0</ele><time>2026-04-25T12:55:56.706Z</time></trkpt><trkpt lat="45.4869894" lon="9.2403599"><ele>126.0</ele><time>2026-04-25T12:55:57.706Z</time></trkpt><trkpt lat="45.4870787" lon="9.240352"><ele>126.0</ele><time>2026-04-25T12:55:58.705Z</time></trkpt><trkpt lat="45.4871755" lon="9.2403432"><ele>125.6</ele><time>2026-04-25T12:55:59.705Z</time></trkpt><trkpt lat="45.4872792" lon="9.2403322"><ele>125.19999999999999</ele><time>2026-04-25T12:56:00.705Z</time></trkpt><trkpt lat="45.4873847" lon="9.2403291"><ele>124.80000000000001</ele><time>2026-04-25T12:56:01.705Z</time></trkpt><trkpt lat="45.4874969" lon="9.2403199"><ele>124.4</ele><time>2026-04-25T12:56:02.705Z</time></trkpt><trkpt lat="45.4876014" lon="9.2403122"><ele>124.0</ele><time>2026-04-25T12:56:03.706Z</time></trkpt><trkpt lat="45.4877024" lon="9.2403049"><ele>124.0</ele><time>2026-04-25T12:56:04.705Z</time></trkpt><trkpt lat="45.487801" lon="9.2402971"><ele>124.0</ele><time>2026-04-25T12:56:05.705Z</time></trkpt><trkpt lat="45.4878955" lon="9.2402896"><ele>124.0</ele><time>2026-04-25T12:56:06.705Z</time></trkpt><trkpt lat="45.4879861" lon="9.240282"><ele>124.0</ele><time>2026-04-25T12:56:07.705Z</time></trkpt><trkpt lat="45.4880725" lon="9.2402748"><ele>124.0</ele><time>2026-04-25T12:56:08.706Z</time></trkpt><trkpt lat="45.4881515" lon="9.24027"><ele>124.0</ele><time>2026-04-25T12:56:09.706Z</time></trkpt><trkpt lat="45.4882216" lon="9.2402541"><ele>124.0</ele><time>2026-04-25T12:56:10.706Z</time></trkpt><trkpt lat="45.4883007" lon="9.2401184"><ele>124.0</ele><time>2026-04-25T12:56:12.705Z</time></trkpt><trkpt lat="45.4883153" lon="9.2399948"><ele>124.0</ele><time>2026-04-25T12:56:13.706Z</time></trkpt><trkpt lat="45.4883124" lon="9.2398356"><ele>124.0</ele><time>2026-04-25T12:56:14.706Z</time></trkpt><trkpt lat="45.4883072" lon="9.2396726"><ele>124.2</ele><time>2026-04-25T12:56:15.706Z</time></trkpt><trkpt lat="45.4883012" lon="9.2395125"><ele>124.4</ele><time>2026-04-25T12:56:16.705Z</time></trkpt><trkpt lat="45.4882964" lon="9.2393724"><ele>124.6</ele><time>2026-04-25T12:56:17.706Z</time></trkpt><trkpt lat="45.4882916" lon="9.2392151"><ele>124.8</ele><time>2026-04-25T12:56:18.706Z</time></trkpt><trkpt lat="45.4882882" lon="9.2390709"><ele>125.0</ele><time>2026-04-25T12:56:19.706Z</time></trkpt><trkpt lat="45.4882853" lon="9.2389398"><ele>124.99999999999999</ele><time>2026-04-25T12:56:20.706Z</time></trkpt><trkpt lat="45.4882829" lon="9.2388348"><ele>125.0</ele><time>2026-04-25T12:56:21.705Z</time></trkpt><trkpt lat="45.4882781" lon="9.2386763"><ele>125.0</ele><time>2026-04-25T12:56:23.705Z</time></trkpt><trkpt lat="45.4882817" lon="9.238561"><ele>125.0</ele><time>2026-04-25T12:56:25.705Z</time></trkpt><trkpt lat="45.4883195" lon="9.2384737"><ele>124.99999999999999</ele><time>2026-04-25T12:56:27.705Z</time></trkpt><trkpt lat="45.4884062" lon="9.2384451"><ele>125.0</ele><time>2026-04-25T12:56:29.705Z</time></trkpt><trkpt lat="45.4885123" lon="9.2384403"><ele>125.0</ele><time>2026-04-25T12:56:31.705Z</time></trkpt><trkpt lat="45.4886024" lon="9.2384384"><ele>125.0</ele><time>2026-04-25T12:56:33.706Z</time></trkpt><trkpt lat="45.4886676" lon="9.2384919"><ele>125.0</ele><time>2026-04-25T12:56:36.705Z</time></trkpt><trkpt lat="45.4886771" lon="9.2385809"><ele>125.0</ele><time>2026-04-25T12:57:19.705Z</time></trkpt><trkpt lat="45.4887022" lon="9.2386645"><ele>125.0</ele><time>2026-04-25T12:57:23.719Z</time></trkpt><trkpt lat="45.4887131" lon="9.2387654"><ele>125.0</ele><time>2026-04-25T12:57:27.719Z</time></trkpt><trkpt lat="45.4886705" lon="9.2388414"><ele>125.0</ele><time>2026-04-25T12:57:37.718Z</time></trkpt><trkpt lat="45.4886493" lon="9.2389521"><ele>125.0</ele><time>2026-04-25T12:57:47.718Z</time></trkpt><trkpt lat="45.4888205" lon="9.2386667"><ele>125.0</ele><time>2026-04-25T13:00:36.718Z</time></trkpt><trkpt lat="45.4887541" lon="9.2386484"><ele>125.0</ele><time>2026-04-25T13:00:45.718Z</time></trkpt><trkpt lat="45.4887379" lon="9.2385027"><ele>125.0</ele><time>2026-04-25T13:00:52.722Z</time></trkpt><trkpt lat="45.4887424" lon="9.2384111"><ele>125.0</ele><time>2026-04-25T13:01:01.719Z</time></trkpt><trkpt lat="45.4887809" lon="9.2385089"><ele>125.0</ele><time>2026-04-25T13:01:11.719Z</time></trkpt><trkpt lat="45.4888019" lon="9.2386018"><ele>125.0</ele><time>2026-04-25T13:01:16.715Z</time></trkpt><trkpt lat="45.4887895" lon="9.2386905"><ele>125.0</ele><time>2026-04-25T13:01:21.722Z</time></trkpt><trkpt lat="45.4887927" lon="9.2387827"><ele>125.0</ele><time>2026-04-25T13:01:27.72Z</time></trkpt><trkpt lat="45.4888088" lon="9.2388986"><ele>125.0</ele><time>2026-04-25T13:01:48.719Z</time></trkpt><trkpt lat="45.4888165" lon="9.239004"><ele>125.0</ele><time>2026-04-25T13:01:54.719Z</time></trkpt><trkpt lat="45.4887737" lon="9.2391216"><ele>125.0</ele><time>2026-04-25T13:01:59.718Z</time></trkpt><trkpt lat="45.4887099" lon="9.2393412"><ele>125.0</ele><time>2026-04-25T13:02:26.72Z</time></trkpt><trkpt lat="45.4887563" lon="9.2392797"><ele>125.0</ele><time>2026-04-25T13:04:19.719Z</time></trkpt></trkseg></trk></gpx>